<?xml version='1.0' encoding='UTF-8'?><gpx version="1.1" creator="JPX - https://github.com/jenetics/jpx" xmlns="http://www.topografix.com/GPX/1/1"><trk><trkseg><trkpt lat="43.7997726" lon="11.2836817"><ele>131.0</ele><time>2026-04-24T12:02:10.647Z</time></trkpt><trkpt lat="43.7998367" lon="11.2837707"><ele>131.0</ele><time>2026-04-24T12:02:11.647Z</time></trkpt><trkpt lat="43.799889" lon="11.2838303"><ele>131.0</ele><time>2026-04-24T12:02:12.647Z</time></trkpt><trkpt lat="43.7999387" lon="11.2838864"><ele>131.0</ele><time>2026-04-24T12:02:13.647Z</time></trkpt><trkpt lat="43.7999869" lon="11.2839461"><ele>131.0</ele><time>2026-04-24T12:02:14.647Z</time></trkpt><trkpt lat="43.8000331" lon="11.2840085"><ele>131.0</ele><time>2026-04-24T12:02:15.647Z</time></trkpt><trkpt lat="43.8001268" lon="11.2841256"><ele>132.0</ele><time>2026-04-24T12:02:17.647Z</time></trkpt><trkpt lat="43.8001751" lon="11.2841855"><ele>133.0</ele><time>2026-04-24T12:02:18.647Z</time></trkpt><trkpt lat="43.8002227" lon="11.2842483"><ele>134.0</ele><time>2026-04-24T12:02:19.647Z</time></trkpt><trkpt lat="43.8002677" lon="11.2843136"><ele>135.0</ele><time>2026-04-24T12:02:20.646Z</time></trkpt><trkpt lat="43.8003107" lon="11.2843781"><ele>136.0</ele><time>2026-04-24T12:02:21.647Z</time></trkpt><trkpt lat="43.8003949" lon="11.2845061"><ele>137.0</ele><time>2026-04-24T12:02:23.647Z</time></trkpt><trkpt lat="43.8004385" lon="11.2845699"><ele>138.0</ele><time>2026-04-24T12:02:24.647Z</time></trkpt><trkpt lat="43.8005195" lon="11.2846915"><ele>139.75</ele><time>2026-04-24T12:02:26.647Z</time></trkpt><trkpt lat="43.8005949" lon="11.2848111"><ele>141.5</ele><time>2026-04-24T12:02:28.647Z</time></trkpt><trkpt lat="43.8006764" lon="11.2849231"><ele>143.25</ele><time>2026-04-24T12:02:30.647Z</time></trkpt><trkpt lat="43.8007636" lon="11.2850365"><ele>145.0</ele><time>2026-04-24T12:02:32.647Z</time></trkpt><trkpt lat="43.8008396" lon="11.2851508"><ele>145.0</ele><time>2026-04-24T12:02:34.647Z</time></trkpt><trkpt lat="43.8008609" lon="11.2852508"><ele>145.0</ele><time>2026-04-24T12:02:36.647Z</time></trkpt><trkpt lat="43.8009244" lon="11.285323"><ele>145.0</ele><time>2026-04-24T12:02:39.647Z</time></trkpt><trkpt lat="43.8010264" lon="11.2854012"><ele>145.0</ele><time>2026-04-24T12:02:41.647Z</time></trkpt><trkpt lat="43.801088" lon="11.2854409"><ele>145.0</ele><time>2026-04-24T12:02:42.647Z</time></trkpt><trkpt lat="43.8011494" lon="11.2854891"><ele>145.0</ele><time>2026-04-24T12:02:43.647Z</time></trkpt><trkpt lat="43.8012116" lon="11.2855488"><ele>145.33333333333334</ele><time>2026-04-24T12:02:44.647Z</time></trkpt><trkpt lat="43.8012759" lon="11.2856074"><ele>145.66666666666669</ele><time>2026-04-24T12:02:45.647Z</time></trkpt><trkpt lat="43.8013384" lon="11.2856688"><ele>146.0</ele><time>2026-04-24T12:02:46.647Z</time></trkpt><trkpt lat="43.8013976" lon="11.2857304"><ele>146.33333333333334</ele><time>2026-04-24T12:02:47.647Z</time></trkpt><trkpt lat="43.8014583" lon="11.2857929"><ele>146.66666666666666</ele><time>2026-04-24T12:02:48.647Z</time></trkpt><trkpt lat="43.801517" lon="11.2858557"><ele>147.0</ele><time>2026-04-24T12:02:49.647Z</time></trkpt><trkpt lat="43.8015763" lon="11.2859177"><ele>147.0</ele><time>2026-04-24T12:02:50.647Z</time></trkpt><trkpt lat="43.8016362" lon="11.285976"><ele>147.0</ele><time>2026-04-24T12:02:51.647Z</time></trkpt><trkpt lat="43.801695" lon="11.2860316"><ele>147.0</ele><time>2026-04-24T12:02:52.647Z</time></trkpt><trkpt lat="43.8017542" lon="11.2860832"><ele>147.0</ele><time>2026-04-24T12:02:53.647Z</time></trkpt><trkpt lat="43.8018135" lon="11.2861384"><ele>147.0</ele><time>2026-04-24T12:02:54.647Z</time></trkpt><trkpt lat="43.8018725" lon="11.2862042"><ele>147.0</ele><time>2026-04-24T12:02:55.647Z</time></trkpt><trkpt lat="43.8019281" lon="11.2862726"><ele>147.0</ele><time>2026-04-24T12:02:56.647Z</time></trkpt><trkpt lat="43.801975" lon="11.2863505"><ele>148.28571428571428</ele><time>2026-04-24T12:02:57.647Z</time></trkpt><trkpt lat="43.8020147" lon="11.2864339"><ele>149.57142857142856</ele><time>2026-04-24T12:02:58.647Z</time></trkpt><trkpt lat="43.8020464" lon="11.2865221"><ele>150.85714285714286</ele><time>2026-04-24T12:02:59.647Z</time></trkpt><trkpt lat="43.8020759" lon="11.2866148"><ele>152.14285714285714</ele><time>2026-04-24T12:03:00.646Z</time></trkpt><trkpt lat="43.8021063" lon="11.286709"><ele>153.42857142857142</ele><time>2026-04-24T12:03:01.647Z</time></trkpt><trkpt lat="43.8021349" lon="11.2868055"><ele>154.71428571428572</ele><time>2026-04-24T12:03:02.647Z</time></trkpt><trkpt lat="43.8021643" lon="11.2869034"><ele>156.0</ele><time>2026-04-24T12:03:03.647Z</time></trkpt><trkpt lat="43.8021965" lon="11.2870041"><ele>156.0</ele><time>2026-04-24T12:03:04.647Z</time></trkpt><trkpt lat="43.8022267" lon="11.2871025"><ele>156.0</ele><time>2026-04-24T12:03:05.647Z</time></trkpt><trkpt lat="43.8022605" lon="11.287202"><ele>156.0</ele><time>2026-04-24T12:03:06.647Z</time></trkpt><trkpt lat="43.8022918" lon="11.2872958"><ele>156.0</ele><time>2026-04-24T12:03:07.647Z</time></trkpt><trkpt lat="43.8023207" lon="11.2873898"><ele>156.0</ele><time>2026-04-24T12:03:08.646Z</time></trkpt><trkpt lat="43.8023504" lon="11.2874866"><ele>156.0</ele><time>2026-04-24T12:03:09.647Z</time></trkpt><trkpt lat="43.8023824" lon="11.2875843"><ele>156.16666666666666</ele><time>2026-04-24T12:03:10.647Z</time></trkpt><trkpt lat="43.8024151" lon="11.2876779"><ele>156.33333333333334</ele><time>2026-04-24T12:03:11.647Z</time></trkpt><trkpt lat="43.8024474" lon="11.2877782"><ele>156.5</ele><time>2026-04-24T12:03:12.647Z</time></trkpt><trkpt lat="43.8024822" lon="11.2878757"><ele>156.66666666666669</ele><time>2026-04-24T12:03:13.647Z</time></trkpt><trkpt lat="43.8025159" lon="11.2879695"><ele>156.83333333333334</ele><time>2026-04-24T12:03:14.647Z</time></trkpt><trkpt lat="43.8025427" lon="11.2880669"><ele>157.0</ele><time>2026-04-24T12:03:15.647Z</time></trkpt><trkpt lat="43.8025705" lon="11.2881694"><ele>157.0</ele><time>2026-04-24T12:03:16.647Z</time></trkpt><trkpt lat="43.802599" lon="11.2882759"><ele>157.0</ele><time>2026-04-24T12:03:17.647Z</time></trkpt><trkpt lat="43.8026254" lon="11.2883824"><ele>157.0</ele><time>2026-04-24T12:03:18.647Z</time></trkpt><trkpt lat="43.8026486" lon="11.2884874"><ele>157.0</ele><time>2026-04-24T12:03:19.647Z</time></trkpt><trkpt lat="43.80267" lon="11.2885969"><ele>157.0</ele><time>2026-04-24T12:03:20.646Z</time></trkpt><trkpt lat="43.8026836" lon="11.2887027"><ele>157.0</ele><time>2026-04-24T12:03:21.647Z</time></trkpt><trkpt lat="43.8026937" lon="11.2888092"><ele>158.0</ele><time>2026-04-24T12:03:22.647Z</time></trkpt><trkpt lat="43.8026994" lon="11.2889188"><ele>159.0</ele><time>2026-04-24T12:03:23.647Z</time></trkpt><trkpt lat="43.8026964" lon="11.2890264"><ele>160.0</ele><time>2026-04-24T12:03:24.647Z</time></trkpt><trkpt lat="43.8026894" lon="11.2891302"><ele>161.0</ele><time>2026-04-24T12:03:25.647Z</time></trkpt><trkpt lat="43.8026758" lon="11.2892288"><ele>162.0</ele><time>2026-04-24T12:03:26.647Z</time></trkpt><trkpt lat="43.8026579" lon="11.2893356"><ele>163.0</ele><time>2026-04-24T12:03:27.646Z</time></trkpt><trkpt lat="43.8026379" lon="11.2894365"><ele>163.0</ele><time>2026-04-24T12:03:28.647Z</time></trkpt><trkpt lat="43.8026176" lon="11.2895445"><ele>163.0</ele><time>2026-04-24T12:03:29.647Z</time></trkpt><trkpt lat="43.8025993" lon="11.2896488"><ele>163.0</ele><time>2026-04-24T12:03:30.647Z</time></trkpt><trkpt lat="43.8025728" lon="11.2897539"><ele>163.0</ele><time>2026-04-24T12:03:31.647Z</time></trkpt><trkpt lat="43.8025448" lon="11.2898559"><ele>163.0</ele><time>2026-04-24T12:03:32.647Z</time></trkpt><trkpt lat="43.8025043" lon="11.2899454"><ele>163.0</ele><time>2026-04-24T12:03:33.647Z</time></trkpt><trkpt lat="43.8024586" lon="11.2900337"><ele>164.0</ele><time>2026-04-24T12:03:34.647Z</time></trkpt><trkpt lat="43.8024057" lon="11.2901152"><ele>165.0</ele><time>2026-04-24T12:03:35.647Z</time></trkpt><trkpt lat="43.8023493" lon="11.2901804"><ele>166.0</ele><time>2026-04-24T12:03:36.647Z</time></trkpt><trkpt lat="43.8022866" lon="11.2902377"><ele>167.0</ele><time>2026-04-24T12:03:37.647Z</time></trkpt><trkpt lat="43.802223" lon="11.2902844"><ele>168.0</ele><time>2026-04-24T12:03:38.647Z</time></trkpt><trkpt lat="43.802156" lon="11.290326"><ele>169.0</ele><time>2026-04-24T12:03:39.647Z</time></trkpt><trkpt lat="43.8020836" lon="11.2903573"><ele>170.0</ele><time>2026-04-24T12:03:40.647Z</time></trkpt><trkpt lat="43.8020119" lon="11.2903827"><ele>170.0</ele><time>2026-04-24T12:03:41.647Z</time></trkpt><trkpt lat="43.8019396" lon="11.2904138"><ele>170.0</ele><time>2026-04-24T12:03:42.647Z</time></trkpt><trkpt lat="43.8018666" lon="11.2904414"><ele>170.0</ele><time>2026-04-24T12:03:43.647Z</time></trkpt><trkpt lat="43.8017909" lon="11.2904714"><ele>170.0</ele><time>2026-04-24T12:03:44.647Z</time></trkpt><trkpt lat="43.8017105" lon="11.2904996"><ele>170.0</ele><time>2026-04-24T12:03:45.647Z</time></trkpt><trkpt lat="43.8016345" lon="11.2905328"><ele>170.0</ele><time>2026-04-24T12:03:46.647Z</time></trkpt><trkpt lat="43.8015625" lon="11.2905774"><ele>170.5</ele><time>2026-04-24T12:03:47.647Z</time></trkpt><trkpt lat="43.8014979" lon="11.2906394"><ele>171.0</ele><time>2026-04-24T12:03:48.647Z</time></trkpt><trkpt lat="43.8014388" lon="11.2907134"><ele>171.5</ele><time>2026-04-24T12:03:49.647Z</time></trkpt><trkpt lat="43.8013843" lon="11.2907879"><ele>172.0</ele><time>2026-04-24T12:03:50.646Z</time></trkpt><trkpt lat="43.8013341" lon="11.2908652"><ele>172.5</ele><time>2026-04-24T12:03:51.647Z</time></trkpt><trkpt lat="43.8012775" lon="11.290947"><ele>173.0</ele><time>2026-04-24T12:03:52.647Z</time></trkpt><trkpt lat="43.8012258" lon="11.2910271"><ele>173.0</ele><time>2026-04-24T12:03:53.646Z</time></trkpt><trkpt lat="43.8011731" lon="11.2911111"><ele>173.0</ele><time>2026-04-24T12:03:54.647Z</time></trkpt><trkpt lat="43.8011204" lon="11.2911942"><ele>173.0</ele><time>2026-04-24T12:03:55.647Z</time></trkpt><trkpt lat="43.8010696" lon="11.2912739"><ele>173.0</ele><time>2026-04-24T12:03:56.647Z</time></trkpt><trkpt lat="43.8010173" lon="11.2913556"><ele>173.0</ele><time>2026-04-24T12:03:57.647Z</time></trkpt><trkpt lat="43.8009674" lon="11.2914429"><ele>173.0</ele><time>2026-04-24T12:03:58.647Z</time></trkpt><trkpt lat="43.8009214" lon="11.2915313"><ele>173.5</ele><time>2026-04-24T12:03:59.646Z</time></trkpt><trkpt lat="43.8008752" lon="11.2916231"><ele>174.0</ele><time>2026-04-24T12:04:00.647Z</time></trkpt><trkpt lat="43.8008429" lon="11.2917243"><ele>174.5</ele><time>2026-04-24T12:04:01.647Z</time></trkpt><trkpt lat="43.8008122" lon="11.2918275"><ele>175.0</ele><time>2026-04-24T12:04:02.647Z</time></trkpt><trkpt lat="43.8007807" lon="11.291926"><ele>175.5</ele><time>2026-04-24T12:04:03.647Z</time></trkpt><trkpt lat="43.8007504" lon="11.2920261"><ele>176.0</ele><time>2026-04-24T12:04:04.647Z</time></trkpt><trkpt lat="43.8007231" lon="11.2921316"><ele>176.0</ele><time>2026-04-24T12:04:05.647Z</time></trkpt><trkpt lat="43.8006964" lon="11.2922354"><ele>176.0</ele><time>2026-04-24T12:04:06.647Z</time></trkpt><trkpt lat="43.8006674" lon="11.2923344"><ele>176.0</ele><time>2026-04-24T12:04:07.647Z</time></trkpt><trkpt lat="43.8006434" lon="11.2924349"><ele>176.0</ele><time>2026-04-24T12:04:08.647Z</time></trkpt><trkpt lat="43.80062" lon="11.2925331"><ele>176.0</ele><time>2026-04-24T12:04:09.647Z</time></trkpt><trkpt lat="43.8005992" lon="11.2926333"><ele>176.0</ele><time>2026-04-24T12:04:10.647Z</time></trkpt><trkpt lat="43.8005802" lon="11.2927347"><ele>177.33333333333331</ele><time>2026-04-24T12:04:11.647Z</time></trkpt><trkpt lat="43.8005741" lon="11.2928373"><ele>178.66666666666666</ele><time>2026-04-24T12:04:12.647Z</time></trkpt><trkpt lat="43.80058" lon="11.2929424"><ele>180.0</ele><time>2026-04-24T12:04:13.646Z</time></trkpt><trkpt lat="43.8006033" lon="11.293041"><ele>181.33333333333334</ele><time>2026-04-24T12:04:14.647Z</time></trkpt><trkpt lat="43.8006443" lon="11.2931306"><ele>182.66666666666669</ele><time>2026-04-24T12:04:15.647Z</time></trkpt><trkpt lat="43.8006937" lon="11.2932075"><ele>184.0</ele><time>2026-04-24T12:04:16.647Z</time></trkpt><trkpt lat="43.8007487" lon="11.2932872"><ele>184.0</ele><time>2026-04-24T12:04:17.647Z</time></trkpt><trkpt lat="43.8008033" lon="11.2933666"><ele>184.0</ele><time>2026-04-24T12:04:18.647Z</time></trkpt><trkpt lat="43.8008557" lon="11.2934483"><ele>184.0</ele><time>2026-04-24T12:04:19.647Z</time></trkpt><trkpt lat="43.8009033" lon="11.2935344"><ele>184.0</ele><time>2026-04-24T12:04:20.646Z</time></trkpt><trkpt lat="43.8009476" lon="11.2936226"><ele>184.0</ele><time>2026-04-24T12:04:21.647Z</time></trkpt><trkpt lat="43.8009904" lon="11.293708"><ele>184.0</ele><time>2026-04-24T12:04:22.646Z</time></trkpt><trkpt lat="43.801031" lon="11.2937927"><ele>186.83333333333334</ele><time>2026-04-24T12:04:23.647Z</time></trkpt><trkpt lat="43.8010726" lon="11.2938768"><ele>189.66666666666669</ele><time>2026-04-24T12:04:24.646Z</time></trkpt><trkpt lat="43.8011113" lon="11.2939647"><ele>192.5</ele><time>2026-04-24T12:04:25.647Z</time></trkpt><trkpt lat="43.8011534" lon="11.2940505"><ele>195.33333333333334</ele><time>2026-04-24T12:04:26.647Z</time></trkpt><trkpt lat="43.8011938" lon="11.2941388"><ele>198.16666666666666</ele><time>2026-04-24T12:04:27.647Z</time></trkpt><trkpt lat="43.8012344" lon="11.294227"><ele>201.0</ele><time>2026-04-24T12:04:28.647Z</time></trkpt><trkpt lat="43.8012727" lon="11.294318"><ele>201.16666666666666</ele><time>2026-04-24T12:04:29.647Z</time></trkpt><trkpt lat="43.801304" lon="11.2944145"><ele>201.33333333333331</ele><time>2026-04-24T12:04:30.647Z</time></trkpt><trkpt lat="43.8013238" lon="11.2945166"><ele>201.5</ele><time>2026-04-24T12:04:31.646Z</time></trkpt><trkpt lat="43.8013357" lon="11.2946213"><ele>201.66666666666666</ele><time>2026-04-24T12:04:32.646Z</time></trkpt><trkpt lat="43.8013394" lon="11.2947273"><ele>201.83333333333331</ele><time>2026-04-24T12:04:33.647Z</time></trkpt><trkpt lat="43.8013383" lon="11.2948339"><ele>202.0</ele><time>2026-04-24T12:04:34.647Z</time></trkpt><trkpt lat="43.8013368" lon="11.2949418"><ele>202.66666666666666</ele><time>2026-04-24T12:04:35.647Z</time></trkpt><trkpt lat="43.801332" lon="11.2950471"><ele>203.33333333333331</ele><time>2026-04-24T12:04:36.647Z</time></trkpt><trkpt lat="43.80133" lon="11.2951529"><ele>204.0</ele><time>2026-04-24T12:04:37.647Z</time></trkpt><trkpt lat="43.8013294" lon="11.2952608"><ele>204.66666666666669</ele><time>2026-04-24T12:04:38.647Z</time></trkpt><trkpt lat="43.8013324" lon="11.295368"><ele>205.33333333333334</ele><time>2026-04-24T12:04:39.646Z</time></trkpt><trkpt lat="43.80134" lon="11.2954702"><ele>206.0</ele><time>2026-04-24T12:04:40.646Z</time></trkpt><trkpt lat="43.80135" lon="11.2955754"><ele>207.50000000000003</ele><time>2026-04-24T12:04:41.647Z</time></trkpt><trkpt lat="43.8013686" lon="11.2956774"><ele>209.0</ele><time>2026-04-24T12:04:42.647Z</time></trkpt><trkpt lat="43.8013939" lon="11.2957758"><ele>210.5</ele><time>2026-04-24T12:04:43.647Z</time></trkpt><trkpt lat="43.8014282" lon="11.2958695"><ele>212.0</ele><time>2026-04-24T12:04:44.647Z</time></trkpt><trkpt lat="43.8014619" lon="11.2959707"><ele>213.50000000000003</ele><time>2026-04-24T12:04:45.646Z</time></trkpt><trkpt lat="43.8014912" lon="11.2960721"><ele>215.0</ele><time>2026-04-24T12:04:46.647Z</time></trkpt><trkpt lat="43.8015213" lon="11.2961728"><ele>215.00000000000003</ele><time>2026-04-24T12:04:47.646Z</time></trkpt><trkpt lat="43.8015476" lon="11.2962774"><ele>215.0</ele><time>2026-04-24T12:04:48.646Z</time></trkpt><trkpt lat="43.801566" lon="11.2963798"><ele>215.0</ele><time>2026-04-24T12:04:49.646Z</time></trkpt><trkpt lat="43.8015803" lon="11.296484"><ele>215.0</ele><time>2026-04-24T12:04:50.647Z</time></trkpt><trkpt lat="43.8015945" lon="11.2965885"><ele>215.00000000000003</ele><time>2026-04-24T12:04:51.646Z</time></trkpt><trkpt lat="43.8016073" lon="11.2966907"><ele>215.0</ele><time>2026-04-24T12:04:52.646Z</time></trkpt><trkpt lat="43.8016187" lon="11.2967901"><ele>215.66666666666669</ele><time>2026-04-24T12:04:53.646Z</time></trkpt><trkpt lat="43.8016292" lon="11.2968933"><ele>216.33333333333334</ele><time>2026-04-24T12:04:54.647Z</time></trkpt><trkpt lat="43.8016391" lon="11.296998"><ele>217.0</ele><time>2026-04-24T12:04:55.647Z</time></trkpt><trkpt lat="43.8016466" lon="11.2971045"><ele>217.66666666666669</ele><time>2026-04-24T12:04:56.647Z</time></trkpt><trkpt lat="43.8016544" lon="11.2972113"><ele>218.33333333333334</ele><time>2026-04-24T12:04:57.647Z</time></trkpt><trkpt lat="43.8016583" lon="11.2973177"><ele>219.0</ele><time>2026-04-24T12:04:58.647Z</time></trkpt><trkpt lat="43.8016531" lon="11.2974211"><ele>220.28571428571428</ele><time>2026-04-24T12:04:59.647Z</time></trkpt><trkpt lat="43.8016403" lon="11.2975279"><ele>221.57142857142856</ele><time>2026-04-24T12:05:00.646Z</time></trkpt><trkpt lat="43.801613" lon="11.2976173"><ele>222.85714285714283</ele><time>2026-04-24T12:05:01.647Z</time></trkpt><trkpt lat="43.8015706" lon="11.2976959"><ele>224.14285714285714</ele><time>2026-04-24T12:05:02.647Z</time></trkpt><trkpt lat="43.8015191" lon="11.297765"><ele>225.4285714285714</ele><time>2026-04-24T12:05:03.646Z</time></trkpt><trkpt lat="43.8014568" lon="11.297819"><ele>226.7142857142857</ele><time>2026-04-24T12:05:04.646Z</time></trkpt><trkpt lat="43.8013884" lon="11.2978616"><ele>228.0</ele><time>2026-04-24T12:05:05.647Z</time></trkpt><trkpt lat="43.8013151" lon="11.2978941"><ele>228.0</ele><time>2026-04-24T12:05:06.646Z</time></trkpt><trkpt lat="43.8012422" lon="11.2979262"><ele>227.99999999999997</ele><time>2026-04-24T12:05:07.647Z</time></trkpt><trkpt lat="43.8011718" lon="11.2979561"><ele>228.0</ele><time>2026-04-24T12:05:08.646Z</time></trkpt><trkpt lat="43.8010989" lon="11.2979858"><ele>228.0</ele><time>2026-04-24T12:05:09.647Z</time></trkpt><trkpt lat="43.8010279" lon="11.2980187"><ele>227.99999999999997</ele><time>2026-04-24T12:05:10.647Z</time></trkpt><trkpt lat="43.8009578" lon="11.2980496"><ele>228.0</ele><time>2026-04-24T12:05:11.647Z</time></trkpt><trkpt lat="43.8008872" lon="11.2980818"><ele>228.0</ele><time>2026-04-24T12:05:12.647Z</time></trkpt><trkpt lat="43.8008171" lon="11.2981123"><ele>227.85714285714283</ele><time>2026-04-24T12:05:13.647Z</time></trkpt><trkpt lat="43.8007501" lon="11.2981492"><ele>227.7142857142857</ele><time>2026-04-24T12:05:14.647Z</time></trkpt><trkpt lat="43.8006958" lon="11.2982186"><ele>227.57142857142856</ele><time>2026-04-24T12:05:15.647Z</time></trkpt><trkpt lat="43.8006793" lon="11.2983187"><ele>227.42857142857144</ele><time>2026-04-24T12:05:16.647Z</time></trkpt><trkpt lat="43.8006848" lon="11.2984126"><ele>227.2857142857143</ele><time>2026-04-24T12:05:17.647Z</time></trkpt><trkpt lat="43.8007156" lon="11.2984919"><ele>227.14285714285717</ele><time>2026-04-24T12:05:18.647Z</time></trkpt><trkpt lat="43.8007801" lon="11.2985312"><ele>227.0</ele><time>2026-04-24T12:05:19.647Z</time></trkpt><trkpt lat="43.8008539" lon="11.2985257"><ele>227.0</ele><time>2026-04-24T12:05:20.647Z</time></trkpt><trkpt lat="43.8009198" lon="11.2984809"><ele>227.00000000000003</ele><time>2026-04-24T12:05:21.646Z</time></trkpt><trkpt lat="43.8009858" lon="11.2984262"><ele>227.0</ele><time>2026-04-24T12:05:22.647Z</time></trkpt><trkpt lat="43.8010515" lon="11.2983748"><ele>227.0</ele><time>2026-04-24T12:05:23.647Z</time></trkpt><trkpt lat="43.8011197" lon="11.2983339"><ele>227.00000000000003</ele><time>2026-04-24T12:05:24.647Z</time></trkpt><trkpt lat="43.8011885" lon="11.2982983"><ele>227.0</ele><time>2026-04-24T12:05:25.647Z</time></trkpt><trkpt lat="43.8012581" lon="11.2982674"><ele>227.0</ele><time>2026-04-24T12:05:26.647Z</time></trkpt><trkpt lat="43.8013308" lon="11.2982457"><ele>228.85714285714286</ele><time>2026-04-24T12:05:27.647Z</time></trkpt><trkpt lat="43.8014046" lon="11.2982259"><ele>230.71428571428572</ele><time>2026-04-24T12:05:28.647Z</time></trkpt><trkpt lat="43.8014766" lon="11.298214"><ele>232.57142857142858</ele><time>2026-04-24T12:05:29.647Z</time></trkpt><trkpt lat="43.8015479" lon="11.2982052"><ele>234.42857142857144</ele><time>2026-04-24T12:05:30.647Z</time></trkpt><trkpt lat="43.8016191" lon="11.2982"><ele>236.28571428571428</ele><time>2026-04-24T12:05:31.647Z</time></trkpt><trkpt lat="43.8016873" lon="11.2981951"><ele>238.14285714285717</ele><time>2026-04-24T12:05:32.647Z</time></trkpt><trkpt lat="43.8017588" lon="11.2981807"><ele>240.0</ele><time>2026-04-24T12:05:33.647Z</time></trkpt><trkpt lat="43.8018194" lon="11.2981479"><ele>240.0</ele><time>2026-04-24T12:05:34.647Z</time></trkpt><trkpt lat="43.8018917" lon="11.2981813"><ele>240.0</ele><time>2026-04-24T12:05:36.647Z</time></trkpt><trkpt lat="43.801872" lon="11.2982973"><ele>240.0</ele><time>2026-04-24T12:05:38.647Z</time></trkpt><trkpt lat="43.8017626" lon="11.2983058"><ele>240.0</ele><time>2026-04-24T12:05:40.647Z</time></trkpt><trkpt lat="43.8017006" lon="11.2982809"><ele>240.0</ele><time>2026-04-24T12:05:41.647Z</time></trkpt><trkpt lat="43.8016389" lon="11.2982509"><ele>240.0</ele><time>2026-04-24T12:05:42.647Z</time></trkpt><trkpt lat="43.8015699" lon="11.2982434"><ele>240.0</ele><time>2026-04-24T12:05:43.646Z</time></trkpt><trkpt lat="43.8015017" lon="11.2982528"><ele>240.0</ele><time>2026-04-24T12:05:44.646Z</time></trkpt><trkpt lat="43.8014333" lon="11.2982736"><ele>240.0</ele><time>2026-04-24T12:05:45.647Z</time></trkpt><trkpt lat="43.8013705" lon="11.2983147"><ele>240.0</ele><time>2026-04-24T12:05:46.647Z</time></trkpt><trkpt lat="43.8013216" lon="11.2983738"><ele>240.0</ele><time>2026-04-24T12:05:47.647Z</time></trkpt><trkpt lat="43.8012872" lon="11.2984493"><ele>240.0</ele><time>2026-04-24T12:05:48.647Z</time></trkpt><trkpt lat="43.801208" lon="11.2985565"><ele>240.0</ele><time>2026-04-24T12:05:50.647Z</time></trkpt><trkpt lat="43.8011473" lon="11.2986628"><ele>240.0</ele><time>2026-04-24T12:05:52.647Z</time></trkpt><trkpt lat="43.8010896" lon="11.2987971"><ele>240.0</ele><time>2026-04-24T12:05:54.647Z</time></trkpt><trkpt lat="43.801032" lon="11.2989088"><ele>240.0</ele><time>2026-04-24T12:05:56.647Z</time></trkpt><trkpt lat="43.8009848" lon="11.299063"><ele>240.0</ele><time>2026-04-24T12:05:58.646Z</time></trkpt><trkpt lat="43.8009294" lon="11.2991986"><ele>240.0</ele><time>2026-04-24T12:06:00.647Z</time></trkpt><trkpt lat="43.8008538" lon="11.2992936"><ele>241.6</ele><time>2026-04-24T12:06:02.647Z</time></trkpt><trkpt lat="43.8007782" lon="11.2993946"><ele>243.2</ele><time>2026-04-24T12:06:04.647Z</time></trkpt><trkpt lat="43.8006621" lon="11.2994893"><ele>244.8</ele><time>2026-04-24T12:06:06.647Z</time></trkpt><trkpt lat="43.8006069" lon="11.2995347"><ele>246.4</ele><time>2026-04-24T12:06:07.647Z</time></trkpt><trkpt lat="43.8004809" lon="11.2995908"><ele>248.0</ele><time>2026-04-24T12:06:09.647Z</time></trkpt><trkpt lat="43.8003736" lon="11.2996443"><ele>248.0</ele><time>2026-04-24T12:06:11.647Z</time></trkpt><trkpt lat="43.8002715" lon="11.2997164"><ele>248.0</ele><time>2026-04-24T12:06:13.647Z</time></trkpt><trkpt lat="43.8001723" lon="11.299809"><ele>248.0</ele><time>2026-04-24T12:06:15.647Z</time></trkpt><trkpt lat="43.8001219" lon="11.299862"><ele>248.0</ele><time>2026-04-24T12:06:16.647Z</time></trkpt><trkpt lat="43.8000937" lon="11.2999797"><ele>248.0</ele><time>2026-04-24T12:06:18.646Z</time></trkpt><trkpt lat="43.8000446" lon="11.3000375"><ele>250.2</ele><time>2026-04-24T12:06:19.647Z</time></trkpt><trkpt lat="43.7999898" lon="11.3000809"><ele>252.4</ele><time>2026-04-24T12:06:20.647Z</time></trkpt><trkpt lat="43.799886" lon="11.3001805"><ele>254.59999999999997</ele><time>2026-04-24T12:06:22.647Z</time></trkpt><trkpt lat="43.7999043" lon="11.3002812"><ele>256.8</ele><time>2026-04-24T12:06:23.647Z</time></trkpt><trkpt lat="43.7998932" lon="11.3004377"><ele>259.0</ele><time>2026-04-24T12:06:25.647Z</time></trkpt><trkpt lat="43.7999155" lon="11.3006044"><ele>263.0</ele><time>2026-04-24T12:06:27.647Z</time></trkpt><trkpt lat="43.7999313" lon="11.3006911"><ele>267.0</ele><time>2026-04-24T12:06:28.647Z</time></trkpt><trkpt lat="43.7999548" lon="11.3008576"><ele>271.0</ele><time>2026-04-24T12:06:30.646Z</time></trkpt><trkpt lat="43.7999697" lon="11.3009473"><ele>275.0</ele><time>2026-04-24T12:06:31.646Z</time></trkpt><trkpt lat="43.8000221" lon="11.301038"><ele>279.0</ele><time>2026-04-24T12:06:33.646Z</time></trkpt><trkpt lat="43.8000525" lon="11.3011337"><ele>283.0</ele><time>2026-04-24T12:06:35.646Z</time></trkpt><trkpt lat="43.799998" lon="11.3011943"><ele>283.0</ele><time>2026-04-24T12:06:36.647Z</time></trkpt><trkpt lat="43.7999206" lon="11.3012777"><ele>283.0</ele><time>2026-04-24T12:06:39.647Z</time></trkpt><trkpt lat="43.7998462" lon="11.3012199"><ele>283.0</ele><time>2026-04-24T12:06:42.647Z</time></trkpt><trkpt lat="43.7997553" lon="11.3012615"><ele>283.0</ele><time>2026-04-24T12:06:45.647Z</time></trkpt><trkpt lat="43.7996938" lon="11.3013461"><ele>283.0</ele><time>2026-04-24T12:06:47.647Z</time></trkpt><trkpt lat="43.7996622" lon="11.3014514"><ele>283.0</ele><time>2026-04-24T12:06:48.647Z</time></trkpt><trkpt lat="43.7995929" lon="11.3015556"><ele>284.0</ele><time>2026-04-24T12:06:50.647Z</time></trkpt><trkpt lat="43.7995374" lon="11.3016386"><ele>285.0</ele><time>2026-04-24T12:06:51.647Z</time></trkpt><trkpt lat="43.7994841" lon="11.3017258"><ele>286.0</ele><time>2026-04-24T12:06:52.647Z</time></trkpt><trkpt lat="43.7994145" lon="11.3018102"><ele>287.0</ele><time>2026-04-24T12:06:53.646Z</time></trkpt><trkpt lat="43.7993594" lon="11.3018618"><ele>288.0</ele><time>2026-04-24T12:06:54.647Z</time></trkpt><trkpt lat="43.7993163" lon="11.301953"><ele>289.0</ele><time>2026-04-24T12:06:55.647Z</time></trkpt><trkpt lat="43.7992723" lon="11.3020166"><ele>289.0</ele><time>2026-04-24T12:06:56.646Z</time></trkpt><trkpt lat="43.7991995" lon="11.302085"><ele>289.0</ele><time>2026-04-24T12:06:57.647Z</time></trkpt><trkpt lat="43.7991357" lon="11.3021424"><ele>289.0</ele><time>2026-04-24T12:06:58.647Z</time></trkpt><trkpt lat="43.7990648" lon="11.3021741"><ele>289.0</ele><time>2026-04-24T12:06:59.647Z</time></trkpt><trkpt lat="43.7990237" lon="11.3023156"><ele>289.0</ele><time>2026-04-24T12:07:01.647Z</time></trkpt><trkpt lat="43.7989727" lon="11.3023953"><ele>289.0</ele><time>2026-04-24T12:07:02.647Z</time></trkpt><trkpt lat="43.7989199" lon="11.3024682"><ele>294.0</ele><time>2026-04-24T12:07:03.647Z</time></trkpt><trkpt lat="43.7988313" lon="11.3025737"><ele>299.0</ele><time>2026-04-24T12:07:05.647Z</time></trkpt><trkpt lat="43.7987529" lon="11.3026652"><ele>304.0</ele><time>2026-04-24T12:07:07.647Z</time></trkpt><trkpt lat="43.7986871" lon="11.3027524"><ele>309.0</ele><time>2026-04-24T12:07:09.647Z</time></trkpt><trkpt lat="43.7986477" lon="11.3028249"><ele>314.0</ele><time>2026-04-24T12:07:10.647Z</time></trkpt><trkpt lat="43.7986018" lon="11.3029181"><ele>314.0</ele><time>2026-04-24T12:07:11.647Z</time></trkpt><trkpt lat="43.7985473" lon="11.3030568"><ele>314.0</ele><time>2026-04-24T12:07:13.647Z</time></trkpt><trkpt lat="43.7985343" lon="11.3031656"><ele>314.0</ele><time>2026-04-24T12:07:14.647Z</time></trkpt><trkpt lat="43.7985319" lon="11.303289"><ele>314.0</ele><time>2026-04-24T12:07:15.647Z</time></trkpt><trkpt lat="43.7985086" lon="11.3033806"><ele>314.0</ele><time>2026-04-24T12:07:16.647Z</time></trkpt><trkpt lat="43.7984282" lon="11.3034937"><ele>313.1666666666667</ele><time>2026-04-24T12:07:18.647Z</time></trkpt><trkpt lat="43.7983883" lon="11.3035881"><ele>312.33333333333337</ele><time>2026-04-24T12:07:19.647Z</time></trkpt><trkpt lat="43.7983422" lon="11.3036671"><ele>311.5</ele><time>2026-04-24T12:07:20.647Z</time></trkpt><trkpt lat="43.7983084" lon="11.3037561"><ele>310.6666666666667</ele><time>2026-04-24T12:07:21.646Z</time></trkpt><trkpt lat="43.7982706" lon="11.3038847"><ele>309.8333333333333</ele><time>2026-04-24T12:07:22.646Z</time></trkpt><trkpt lat="43.7982179" lon="11.3039901"><ele>309.0</ele><time>2026-04-24T12:07:23.647Z</time></trkpt><trkpt lat="43.7981825" lon="11.3041102"><ele>309.0</ele><time>2026-04-24T12:07:24.647Z</time></trkpt><trkpt lat="43.7982125" lon="11.304215"><ele>309.0</ele><time>2026-04-24T12:07:25.647Z</time></trkpt><trkpt lat="43.7982119" lon="11.3043127"><ele>309.0</ele><time>2026-04-24T12:07:26.647Z</time></trkpt><trkpt lat="43.7982035" lon="11.3044004"><ele>309.0</ele><time>2026-04-24T12:07:27.646Z</time></trkpt><trkpt lat="43.7982133" lon="11.3045382"><ele>309.0</ele><time>2026-04-24T12:07:29.646Z</time></trkpt><trkpt lat="43.7981957" lon="11.3046447"><ele>309.0</ele><time>2026-04-24T12:07:32.647Z</time></trkpt><trkpt lat="43.7981914" lon="11.304733"><ele>307.0</ele><time>2026-04-24T12:07:35.647Z</time></trkpt><trkpt lat="43.7982128" lon="11.3048446"><ele>305.0</ele><time>2026-04-24T12:07:38.647Z</time></trkpt><trkpt lat="43.7981967" lon="11.3049592"><ele>303.0</ele><time>2026-04-24T12:07:43.647Z</time></trkpt><trkpt lat="43.7982119" lon="11.3050518"><ele>301.0</ele><time>2026-04-24T12:07:45.647Z</time></trkpt><trkpt lat="43.7982249" lon="11.3051653"><ele>299.0</ele><time>2026-04-24T12:07:49.647Z</time></trkpt><trkpt lat="43.7982691" lon="11.3052562"><ele>297.0</ele><time>2026-04-24T12:07:54.647Z</time></trkpt><trkpt lat="43.7983363" lon="11.3053307"><ele>297.0</ele><time>2026-04-24T12:07:57.647Z</time></trkpt><trkpt lat="43.7983884" lon="11.3054272"><ele>297.0</ele><time>2026-04-24T12:08:01.647Z</time></trkpt><trkpt lat="43.7985277" lon="11.3055416"><ele>297.0</ele><time>2026-04-24T12:08:04.647Z</time></trkpt><trkpt lat="43.7986004" lon="11.3056072"><ele>297.0</ele><time>2026-04-24T12:08:06.647Z</time></trkpt><trkpt lat="43.7985989" lon="11.3057007"><ele>297.0</ele><time>2026-04-24T12:08:09.646Z</time></trkpt><trkpt lat="43.7986308" lon="11.3058017"><ele>298.5</ele><time>2026-04-24T12:08:13.647Z</time></trkpt><trkpt lat="43.7986908" lon="11.3058855"><ele>300.0</ele><time>2026-04-24T12:08:17.646Z</time></trkpt><trkpt lat="43.7987325" lon="11.3059698"><ele>301.5</ele><time>2026-04-24T12:08:21.647Z</time></trkpt><trkpt lat="43.7987668" lon="11.3060806"><ele>303.0</ele><time>2026-04-24T12:08:24.646Z</time></trkpt><trkpt lat="43.7987944" lon="11.3061701"><ele>304.5</ele><time>2026-04-24T12:08:26.646Z</time></trkpt><trkpt lat="43.7988416" lon="11.3062705"><ele>306.0</ele><time>2026-04-24T12:08:29.647Z</time></trkpt><trkpt lat="43.7988809" lon="11.3063845"><ele>302.2857142857143</ele><time>2026-04-24T12:08:32.647Z</time></trkpt><trkpt lat="43.7989175" lon="11.3064731"><ele>298.57142857142856</ele><time>2026-04-24T12:08:34.647Z</time></trkpt><trkpt lat="43.7989674" lon="11.3065564"><ele>294.8571428571429</ele><time>2026-04-24T12:08:36.645Z</time></trkpt><trkpt lat="43.7990256" lon="11.3066646"><ele>291.1428571428571</ele><time>2026-04-24T12:08:38.647Z</time></trkpt><trkpt lat="43.7990741" lon="11.3067248"><ele>287.42857142857144</ele><time>2026-04-24T12:08:40.647Z</time></trkpt><trkpt lat="43.7991329" lon="11.3067767"><ele>283.7142857142857</ele><time>2026-04-24T12:08:43.647Z</time></trkpt><trkpt lat="43.7991729" lon="11.306845"><ele>280.0</ele><time>2026-04-24T12:08:45.647Z</time></trkpt><trkpt lat="43.7992362" lon="11.306906"><ele>280.0</ele><time>2026-04-24T12:08:47.645Z</time></trkpt><trkpt lat="43.799298" lon="11.3069498"><ele>280.0</ele><time>2026-04-24T12:08:49.645Z</time></trkpt><trkpt lat="43.7993725" lon="11.3069899"><ele>280.0</ele><time>2026-04-24T12:08:52.646Z</time></trkpt><trkpt lat="43.7994603" lon="11.3070214"><ele>280.0</ele><time>2026-04-24T12:08:56.647Z</time></trkpt><trkpt lat="43.7995168" lon="11.3070626"><ele>280.0</ele><time>2026-04-24T12:08:59.647Z</time></trkpt><trkpt lat="43.7994768" lon="11.3071322"><ele>280.0</ele><time>2026-04-24T12:09:03.647Z</time></trkpt><trkpt lat="43.7994113" lon="11.3071797"><ele>280.0</ele><time>2026-04-24T12:09:07.647Z</time></trkpt><trkpt lat="43.7993866" lon="11.3072659"><ele>276.57142857142856</ele><time>2026-04-24T12:09:11.647Z</time></trkpt><trkpt lat="43.7993294" lon="11.3073386"><ele>273.1428571428571</ele><time>2026-04-24T12:09:13.645Z</time></trkpt><trkpt lat="43.799279" lon="11.3074008"><ele>269.7142857142857</ele><time>2026-04-24T12:09:15.647Z</time></trkpt><trkpt lat="43.7992225" lon="11.3074431"><ele>266.2857142857143</ele><time>2026-04-24T12:09:17.646Z</time></trkpt><trkpt lat="43.7991506" lon="11.3074556"><ele>262.85714285714283</ele><time>2026-04-24T12:09:19.647Z</time></trkpt><trkpt lat="43.7990734" lon="11.3074448"><ele>259.42857142857144</ele><time>2026-04-24T12:09:22.647Z</time></trkpt><trkpt lat="43.799008" lon="11.3074186"><ele>256.0</ele><time>2026-04-24T12:09:25.647Z</time></trkpt><trkpt lat="43.7989378" lon="11.3074176"><ele>256.0</ele><time>2026-04-24T12:09:30.647Z</time></trkpt><trkpt lat="43.7988812" lon="11.3074846"><ele>256.0</ele><time>2026-04-24T12:09:34.647Z</time></trkpt><trkpt lat="43.7988493" lon="11.3075703"><ele>256.0</ele><time>2026-04-24T12:09:37.647Z</time></trkpt><trkpt lat="43.7988508" lon="11.3077905"><ele>256.0</ele><time>2026-04-24T12:09:40.647Z</time></trkpt><trkpt lat="43.7988983" lon="11.3078602"><ele>256.0</ele><time>2026-04-24T12:09:43.647Z</time></trkpt><trkpt lat="43.798982" lon="11.3079135"><ele>256.0</ele><time>2026-04-24T12:09:45.646Z</time></trkpt><trkpt lat="43.7990552" lon="11.307948"><ele>255.99999999999997</ele><time>2026-04-24T12:09:47.647Z</time></trkpt><trkpt lat="43.7991299" lon="11.3079052"><ele>256.0</ele><time>2026-04-24T12:09:48.647Z</time></trkpt><trkpt lat="43.7992045" lon="11.307901"><ele>256.0</ele><time>2026-04-24T12:09:49.647Z</time></trkpt><trkpt lat="43.7992717" lon="11.3078862"><ele>255.99999999999997</ele><time>2026-04-24T12:09:51.647Z</time></trkpt><trkpt lat="43.7993361" lon="11.3079373"><ele>256.0</ele><time>2026-04-24T12:09:53.646Z</time></trkpt><trkpt lat="43.7993161" lon="11.3080258"><ele>256.0</ele><time>2026-04-24T12:09:55.647Z</time></trkpt><trkpt lat="43.7993274" lon="11.3081214"><ele>250.33333333333331</ele><time>2026-04-24T12:09:57.646Z</time></trkpt><trkpt lat="43.7992577" lon="11.3082506"><ele>244.66666666666666</ele><time>2026-04-24T12:09:59.647Z</time></trkpt><trkpt lat="43.7992015" lon="11.3083041"><ele>239.0</ele><time>2026-04-24T12:10:01.647Z</time></trkpt><trkpt lat="43.7991188" lon="11.3083256"><ele>233.33333333333331</ele><time>2026-04-24T12:10:02.647Z</time></trkpt><trkpt lat="43.7991526" lon="11.3084423"><ele>227.66666666666666</ele><time>2026-04-24T12:10:05.647Z</time></trkpt><trkpt lat="43.7992073" lon="11.3085089"><ele>222.0</ele><time>2026-04-24T12:10:06.647Z</time></trkpt><trkpt lat="43.7992784" lon="11.3086246"><ele>222.0</ele><time>2026-04-24T12:10:07.647Z</time></trkpt><trkpt lat="43.7993577" lon="11.3087948"><ele>222.0</ele><time>2026-04-24T12:10:08.647Z</time></trkpt><trkpt lat="43.7994323" lon="11.3089428"><ele>222.0</ele><time>2026-04-24T12:10:09.647Z</time></trkpt><trkpt lat="43.7994885" lon="11.3090867"><ele>222.0</ele><time>2026-04-24T12:10:10.647Z</time></trkpt><trkpt lat="43.7995558" lon="11.3092064"><ele>222.0</ele><time>2026-04-24T12:10:11.647Z</time></trkpt><trkpt lat="43.7996473" lon="11.3093121"><ele>222.0</ele><time>2026-04-24T12:10:12.646Z</time></trkpt><trkpt lat="43.7997594" lon="11.30941"><ele>222.0</ele><time>2026-04-24T12:10:13.647Z</time></trkpt><trkpt lat="43.7998383" lon="11.3095247"><ele>222.0</ele><time>2026-04-24T12:10:14.647Z</time></trkpt><trkpt lat="43.7999251" lon="11.3096531"><ele>223.5</ele><time>2026-04-24T12:10:15.647Z</time></trkpt><trkpt lat="43.8000211" lon="11.3097746"><ele>225.0</ele><time>2026-04-24T12:10:16.647Z</time></trkpt><trkpt lat="43.8001208" lon="11.3098897"><ele>226.5</ele><time>2026-04-24T12:10:17.647Z</time></trkpt><trkpt lat="43.800219" lon="11.3099887"><ele>228.0</ele><time>2026-04-24T12:10:18.646Z</time></trkpt><trkpt lat="43.8003329" lon="11.3100675"><ele>228.0</ele><time>2026-04-24T12:10:19.646Z</time></trkpt><trkpt lat="43.8004531" lon="11.3101319"><ele>228.0</ele><time>2026-04-24T12:10:20.647Z</time></trkpt><trkpt lat="43.8005703" lon="11.3101914"><ele>228.0</ele><time>2026-04-24T12:10:21.647Z</time></trkpt><trkpt lat="43.8006934" lon="11.3102477"><ele>228.0</ele><time>2026-04-24T12:10:22.647Z</time></trkpt><trkpt lat="43.8008158" lon="11.3102914"><ele>228.0</ele><time>2026-04-24T12:10:23.647Z</time></trkpt><trkpt lat="43.8009406" lon="11.3103426"><ele>228.0</ele><time>2026-04-24T12:10:24.647Z</time></trkpt><trkpt lat="43.8010628" lon="11.3103859"><ele>228.0</ele><time>2026-04-24T12:10:25.647Z</time></trkpt><trkpt lat="43.8011859" lon="11.3104434"><ele>228.0</ele><time>2026-04-24T12:10:26.646Z</time></trkpt><trkpt lat="43.8013115" lon="11.3105265"><ele>228.5</ele><time>2026-04-24T12:10:27.647Z</time></trkpt><trkpt lat="43.801399" lon="11.3106377"><ele>229.0</ele><time>2026-04-24T12:10:28.647Z</time></trkpt><trkpt lat="43.8014499" lon="11.3107383"><ele>229.5</ele><time>2026-04-24T12:10:29.647Z</time></trkpt><trkpt lat="43.8015481" lon="11.3108467"><ele>230.0</ele><time>2026-04-24T12:10:30.647Z</time></trkpt><trkpt lat="43.8016589" lon="11.3109386"><ele>230.0</ele><time>2026-04-24T12:10:31.647Z</time></trkpt><trkpt lat="43.801754" lon="11.3110206"><ele>230.0</ele><time>2026-04-24T12:10:32.647Z</time></trkpt><trkpt lat="43.8018714" lon="11.3110867"><ele>230.0</ele><time>2026-04-24T12:10:33.647Z</time></trkpt><trkpt lat="43.8019924" lon="11.3111487"><ele>230.0</ele><time>2026-04-24T12:10:34.647Z</time></trkpt><trkpt lat="43.8021306" lon="11.3112192"><ele>232.33333333333334</ele><time>2026-04-24T12:10:35.647Z</time></trkpt><trkpt lat="43.8022946" lon="11.3112886"><ele>234.66666666666669</ele><time>2026-04-24T12:10:36.647Z</time></trkpt><trkpt lat="43.8024475" lon="11.3113618"><ele>237.0</ele><time>2026-04-24T12:10:37.646Z</time></trkpt><trkpt lat="43.8026164" lon="11.3114401"><ele>246.0</ele><time>2026-04-24T12:10:38.647Z</time></trkpt><trkpt lat="43.8027741" lon="11.3115177"><ele>255.0</ele><time>2026-04-24T12:10:39.647Z</time></trkpt><trkpt lat="43.8029225" lon="11.3115912"><ele>264.0</ele><time>2026-04-24T12:10:40.647Z</time></trkpt><trkpt lat="43.8030687" lon="11.3116835"><ele>264.0</ele><time>2026-04-24T12:10:41.646Z</time></trkpt><trkpt lat="43.8031423" lon="11.3117596"><ele>264.0</ele><time>2026-04-24T12:10:42.647Z</time></trkpt><trkpt lat="43.8032652" lon="11.3118387"><ele>264.0</ele><time>2026-04-24T12:10:43.647Z</time></trkpt><trkpt lat="43.8033626" lon="11.311891"><ele>264.0</ele><time>2026-04-24T12:10:44.646Z</time></trkpt><trkpt lat="43.8034318" lon="11.3119477"><ele>264.0</ele><time>2026-04-24T12:10:45.647Z</time></trkpt><trkpt lat="43.8033826" lon="11.3118671"><ele>264.0</ele><time>2026-04-24T12:10:46.647Z</time></trkpt><trkpt lat="43.803358" lon="11.3117278"><ele>264.0</ele><time>2026-04-24T12:10:48.647Z</time></trkpt><trkpt lat="43.803304" lon="11.3115254"><ele>264.0</ele><time>2026-04-24T12:10:50.646Z</time></trkpt><trkpt lat="43.8032667" lon="11.311392"><ele>264.0</ele><time>2026-04-24T12:10:51.647Z</time></trkpt><trkpt lat="43.8032325" lon="11.3112422"><ele>268.4</ele><time>2026-04-24T12:10:52.647Z</time></trkpt><trkpt lat="43.8032333" lon="11.3111093"><ele>272.79999999999995</ele><time>2026-04-24T12:10:54.647Z</time></trkpt><trkpt lat="43.8033052" lon="11.311121"><ele>277.20000000000005</ele><time>2026-04-24T12:10:56.647Z</time></trkpt><trkpt lat="43.8033631" lon="11.3111871"><ele>281.6</ele><time>2026-04-24T12:10:57.647Z</time></trkpt><trkpt lat="43.8034339" lon="11.3112721"><ele>286.0</ele><time>2026-04-24T12:10:58.647Z</time></trkpt><trkpt lat="43.8035309" lon="11.3113826"><ele>288.0</ele><time>2026-04-24T12:10:59.647Z</time></trkpt><trkpt lat="43.803626" lon="11.3114799"><ele>290.0</ele><time>2026-04-24T12:11:00.647Z</time></trkpt><trkpt lat="43.8037032" lon="11.3115637"><ele>292.0</ele><time>2026-04-24T12:11:01.647Z</time></trkpt><trkpt lat="43.8037949" lon="11.3116443"><ele>294.0</ele><time>2026-04-24T12:11:02.647Z</time></trkpt><trkpt lat="43.803884" lon="11.3117135"><ele>296.0</ele><time>2026-04-24T12:11:03.647Z</time></trkpt><trkpt lat="43.8039562" lon="11.3117665"><ele>296.0</ele><time>2026-04-24T12:11:04.647Z</time></trkpt><trkpt lat="43.8040296" lon="11.3118139"><ele>296.0</ele><time>2026-04-24T12:11:05.647Z</time></trkpt><trkpt lat="43.8040968" lon="11.3118601"><ele>296.0</ele><time>2026-04-24T12:11:06.647Z</time></trkpt><trkpt lat="43.8041571" lon="11.3119033"><ele>296.0</ele><time>2026-04-24T12:11:07.647Z</time></trkpt><trkpt lat="43.8042659" lon="11.3119911"><ele>296.0</ele><time>2026-04-24T12:11:09.647Z</time></trkpt><trkpt lat="43.8043251" lon="11.3120466"><ele>296.0</ele><time>2026-04-24T12:11:10.646Z</time></trkpt><trkpt lat="43.8044142" lon="11.3121288"><ele>297.25</ele><time>2026-04-24T12:11:11.647Z</time></trkpt><trkpt lat="43.8045365" lon="11.3122339"><ele>298.5</ele><time>2026-04-24T12:11:12.646Z</time></trkpt><trkpt lat="43.80466" lon="11.3123319"><ele>299.75</ele><time>2026-04-24T12:11:13.647Z</time></trkpt><trkpt lat="43.8047735" lon="11.3124094"><ele>301.0</ele><time>2026-04-24T12:11:14.647Z</time></trkpt><trkpt lat="43.804888" lon="11.3124715"><ele>298.8</ele><time>2026-04-24T12:11:15.647Z</time></trkpt><trkpt lat="43.8049776" lon="11.3124283"><ele>296.6</ele><time>2026-04-24T12:11:16.646Z</time></trkpt><trkpt lat="43.8051382" lon="11.3123662"><ele>294.4</ele><time>2026-04-24T12:11:18.647Z</time></trkpt><trkpt lat="43.8052162" lon="11.3123451"><ele>292.2</ele><time>2026-04-24T12:11:19.647Z</time></trkpt><trkpt lat="43.8052918" lon="11.312361"><ele>290.0</ele><time>2026-04-24T12:11:20.647Z</time></trkpt><trkpt lat="43.8053547" lon="11.3124139"><ele>290.0</ele><time>2026-04-24T12:11:21.647Z</time></trkpt><trkpt lat="43.8054055" lon="11.312517"><ele>290.0</ele><time>2026-04-24T12:11:22.646Z</time></trkpt><trkpt lat="43.8054608" lon="11.3126248"><ele>290.0</ele><time>2026-04-24T12:11:23.647Z</time></trkpt><trkpt lat="43.8055209" lon="11.3127335"><ele>290.0</ele><time>2026-04-24T12:11:24.647Z</time></trkpt><trkpt lat="43.8056202" lon="11.3128026"><ele>290.0</ele><time>2026-04-24T12:11:25.647Z</time></trkpt><trkpt lat="43.8057546" lon="11.3127941"><ele>290.0</ele><time>2026-04-24T12:11:26.647Z</time></trkpt><trkpt lat="43.8058703" lon="11.3128438"><ele>290.0</ele><time>2026-04-24T12:11:27.647Z</time></trkpt><trkpt lat="43.806034" lon="11.3128312"><ele>290.0</ele><time>2026-04-24T12:11:28.647Z</time></trkpt><trkpt lat="43.8061511" lon="11.3128596"><ele>290.0</ele><time>2026-04-24T12:11:29.647Z</time></trkpt><trkpt lat="43.8062699" lon="11.3128727"><ele>294.5</ele><time>2026-04-24T12:11:30.647Z</time></trkpt><trkpt lat="43.8063892" lon="11.3129017"><ele>299.0</ele><time>2026-04-24T12:11:31.647Z</time></trkpt><trkpt lat="43.8065051" lon="11.3129449"><ele>303.5</ele><time>2026-04-24T12:11:32.647Z</time></trkpt><trkpt lat="43.8066159" lon="11.3129928"><ele>308.0</ele><time>2026-04-24T12:11:33.647Z</time></trkpt><trkpt lat="43.8067322" lon="11.3130558"><ele>311.0</ele><time>2026-04-24T12:11:34.647Z</time></trkpt><trkpt lat="43.8068421" lon="11.313131"><ele>314.0</ele><time>2026-04-24T12:11:35.646Z</time></trkpt><trkpt lat="43.80694" lon="11.3132177"><ele>317.0</ele><time>2026-04-24T12:11:36.647Z</time></trkpt><trkpt lat="43.807034" lon="11.3132701"><ele>320.0</ele><time>2026-04-24T12:11:37.647Z</time></trkpt><trkpt lat="43.8071176" lon="11.3132912"><ele>323.0</ele><time>2026-04-24T12:11:38.647Z</time></trkpt><trkpt lat="43.8071931" lon="11.3132767"><ele>323.0</ele><time>2026-04-24T12:11:39.647Z</time></trkpt><trkpt lat="43.8072969" lon="11.3131465"><ele>323.0</ele><time>2026-04-24T12:11:41.647Z</time></trkpt><trkpt lat="43.8073439" lon="11.3130443"><ele>323.0</ele><time>2026-04-24T12:11:42.647Z</time></trkpt><trkpt lat="43.8073798" lon="11.3129529"><ele>323.0</ele><time>2026-04-24T12:11:43.647Z</time></trkpt><trkpt lat="43.8074206" lon="11.3128684"><ele>323.0</ele><time>2026-04-24T12:11:44.647Z</time></trkpt><trkpt lat="43.8075509" lon="11.3129537"><ele>329.0</ele><time>2026-04-24T12:11:46.647Z</time></trkpt><trkpt lat="43.8076636" lon="11.3130281"><ele>335.0</ele><time>2026-04-24T12:11:47.646Z</time></trkpt><trkpt lat="43.8077793" lon="11.3130767"><ele>341.0</ele><time>2026-04-24T12:11:48.647Z</time></trkpt><trkpt lat="43.8078463" lon="11.3131963"><ele>347.0</ele><time>2026-04-24T12:11:49.646Z</time></trkpt><trkpt lat="43.8079301" lon="11.313303"><ele>347.0</ele><time>2026-04-24T12:11:50.647Z</time></trkpt><trkpt lat="43.8080116" lon="11.3134102"><ele>347.0</ele><time>2026-04-24T12:11:51.647Z</time></trkpt><trkpt lat="43.8080656" lon="11.3135503"><ele>347.0</ele><time>2026-04-24T12:11:52.647Z</time></trkpt><trkpt lat="43.808049" lon="11.3137024"><ele>347.0</ele><time>2026-04-24T12:11:53.647Z</time></trkpt><trkpt lat="43.8081128" lon="11.3138208"><ele>347.0</ele><time>2026-04-24T12:11:54.647Z</time></trkpt><trkpt lat="43.8081664" lon="11.313942"><ele>345.25</ele><time>2026-04-24T12:11:55.647Z</time></trkpt><trkpt lat="43.8082489" lon="11.3140356"><ele>343.5</ele><time>2026-04-24T12:11:56.646Z</time></trkpt><trkpt lat="43.8083234" lon="11.3141252"><ele>341.75</ele><time>2026-04-24T12:11:57.647Z</time></trkpt><trkpt lat="43.8084196" lon="11.3142069"><ele>340.0</ele><time>2026-04-24T12:11:58.646Z</time></trkpt><trkpt lat="43.8085702" lon="11.3142672"><ele>344.75</ele><time>2026-04-24T12:11:59.647Z</time></trkpt><trkpt lat="43.8087497" lon="11.3142797"><ele>349.5</ele><time>2026-04-24T12:12:00.647Z</time></trkpt><trkpt lat="43.8088358" lon="11.3143235"><ele>354.25</ele><time>2026-04-24T12:12:01.647Z</time></trkpt><trkpt lat="43.8088589" lon="11.3145125"><ele>359.0</ele><time>2026-04-24T12:12:04.647Z</time></trkpt><trkpt lat="43.808918" lon="11.3146551"><ele>358.83333333333337</ele><time>2026-04-24T12:12:05.647Z</time></trkpt><trkpt lat="43.8089027" lon="11.3148058"><ele>358.6666666666667</ele><time>2026-04-24T12:12:06.647Z</time></trkpt><trkpt lat="43.808912" lon="11.3149204"><ele>358.5</ele><time>2026-04-24T12:12:07.646Z</time></trkpt><trkpt lat="43.8089543" lon="11.315038"><ele>358.3333333333333</ele><time>2026-04-24T12:12:08.647Z</time></trkpt><trkpt lat="43.808957" lon="11.3151552"><ele>358.16666666666663</ele><time>2026-04-24T12:12:15.647Z</time></trkpt><trkpt lat="43.8090043" lon="11.3152323"><ele>358.0</ele><time>2026-04-24T12:12:16.647Z</time></trkpt><trkpt lat="43.8090024" lon="11.3153304"><ele>358.0</ele><time>2026-04-24T12:12:18.647Z</time></trkpt><trkpt lat="43.8089728" lon="11.3154804"><ele>358.0</ele><time>2026-04-24T12:12:20.647Z</time></trkpt><trkpt lat="43.8089091" lon="11.3155963"><ele>358.0</ele><time>2026-04-24T12:12:22.647Z</time></trkpt><trkpt lat="43.8088238" lon="11.3157085"><ele>358.0</ele><time>2026-04-24T12:12:24.646Z</time></trkpt><trkpt lat="43.8088021" lon="11.3158516"><ele>358.0</ele><time>2026-04-24T12:12:25.647Z</time></trkpt><trkpt lat="43.8087462" lon="11.3159143"><ele>358.0</ele><time>2026-04-24T12:12:26.647Z</time></trkpt><trkpt lat="43.8087078" lon="11.3159896"><ele>358.0</ele><time>2026-04-24T12:12:27.647Z</time></trkpt><trkpt lat="43.808638" lon="11.31613"><ele>358.0</ele><time>2026-04-24T12:12:29.647Z</time></trkpt><trkpt lat="43.808568" lon="11.3162622"><ele>358.0</ele><time>2026-04-24T12:12:31.647Z</time></trkpt><trkpt lat="43.808536" lon="11.3163873"><ele>358.0</ele><time>2026-04-24T12:12:33.647Z</time></trkpt><trkpt lat="43.8084938" lon="11.3164911"><ele>358.0</ele><time>2026-04-24T12:12:35.647Z</time></trkpt><trkpt lat="43.8085514" lon="11.3164255"><ele>358.0</ele><time>2026-04-24T12:12:45.645Z</time></trkpt><trkpt lat="43.808603" lon="11.3162939"><ele>358.0</ele><time>2026-04-24T12:12:47.647Z</time></trkpt><trkpt lat="43.8086409" lon="11.3162209"><ele>358.0</ele><time>2026-04-24T12:12:49.647Z</time></trkpt><trkpt lat="43.808571" lon="11.3163109"><ele>358.0</ele><time>2026-04-24T12:12:53.647Z</time></trkpt><trkpt lat="43.808511" lon="11.3164045"><ele>358.0</ele><time>2026-04-24T12:12:55.647Z</time></trkpt><trkpt lat="43.8084474" lon="11.3164638"><ele>358.0</ele><time>2026-04-24T12:12:58.647Z</time></trkpt><trkpt lat="43.8083774" lon="11.3164518"><ele>358.0</ele><time>2026-04-24T12:13:00.645Z</time></trkpt><trkpt lat="43.8083161" lon="11.3164761"><ele>358.0</ele><time>2026-04-24T12:13:03.646Z</time></trkpt><trkpt lat="43.8083785" lon="11.3164629"><ele>358.0</ele><time>2026-04-24T12:13:06.646Z</time></trkpt><trkpt lat="43.8084988" lon="11.3163856"><ele>358.0</ele><time>2026-04-24T12:13:08.647Z</time></trkpt><trkpt lat="43.8085669" lon="11.3163005"><ele>358.0</ele><time>2026-04-24T12:13:09.647Z</time></trkpt><trkpt lat="43.8086342" lon="11.3161935"><ele>358.0</ele><time>2026-04-24T12:13:10.647Z</time></trkpt><trkpt lat="43.8086961" lon="11.3160697"><ele>358.0</ele><time>2026-04-24T12:13:11.646Z</time></trkpt><trkpt lat="43.8087606" lon="11.3159544"><ele>358.0</ele><time>2026-04-24T12:13:12.647Z</time></trkpt><trkpt lat="43.8088245" lon="11.3158339"><ele>358.0</ele><time>2026-04-24T12:13:13.646Z</time></trkpt><trkpt lat="43.8088752" lon="11.3157382"><ele>358.0</ele><time>2026-04-24T12:13:14.647Z</time></trkpt><trkpt lat="43.8089147" lon="11.3156085"><ele>358.0</ele><time>2026-04-24T12:13:15.647Z</time></trkpt><trkpt lat="43.8089673" lon="11.3154944"><ele>358.0</ele><time>2026-04-24T12:13:16.647Z</time></trkpt><trkpt lat="43.8090199" lon="11.3153752"><ele>358.0</ele><time>2026-04-24T12:13:17.647Z</time></trkpt><trkpt lat="43.8090751" lon="11.3152223"><ele>358.0</ele><time>2026-04-24T12:13:18.647Z</time></trkpt><trkpt lat="43.8091329" lon="11.3150902"><ele>358.0</ele><time>2026-04-24T12:13:19.647Z</time></trkpt><trkpt lat="43.8091924" lon="11.3149061"><ele>358.0</ele><time>2026-04-24T12:13:20.647Z</time></trkpt><trkpt lat="43.8092466" lon="11.3147714"><ele>358.0</ele><time>2026-04-24T12:13:21.647Z</time></trkpt><trkpt lat="43.8092999" lon="11.3146387"><ele>358.0</ele><time>2026-04-24T12:13:22.647Z</time></trkpt><trkpt lat="43.8093568" lon="11.3144878"><ele>358.0</ele><time>2026-04-24T12:13:23.647Z</time></trkpt><trkpt lat="43.8094251" lon="11.3143398"><ele>358.4</ele><time>2026-04-24T12:13:24.647Z</time></trkpt><trkpt lat="43.8094702" lon="11.3142013"><ele>358.79999999999995</ele><time>2026-04-24T12:13:25.647Z</time></trkpt><trkpt lat="43.8095051" lon="11.3140686"><ele>359.2</ele><time>2026-04-24T12:13:26.646Z</time></trkpt><trkpt lat="43.8095551" lon="11.3139831"><ele>359.6</ele><time>2026-04-24T12:13:28.646Z</time></trkpt><trkpt lat="43.8096293" lon="11.3140468"><ele>360.0</ele><time>2026-04-24T12:13:33.646Z</time></trkpt><trkpt lat="43.8096728" lon="11.314126"><ele>360.0</ele><time>2026-04-24T12:13:34.646Z</time></trkpt><trkpt lat="43.8097424" lon="11.31426"><ele>360.0</ele><time>2026-04-24T12:13:36.647Z</time></trkpt><trkpt lat="43.8097701" lon="11.3143658"><ele>360.0</ele><time>2026-04-24T12:13:37.646Z</time></trkpt><trkpt lat="43.80973" lon="11.3144706"><ele>360.0</ele><time>2026-04-24T12:13:38.647Z</time></trkpt><trkpt lat="43.809722" lon="11.314577"><ele>360.0</ele><time>2026-04-24T12:13:39.647Z</time></trkpt><trkpt lat="43.8097101" lon="11.3146791"><ele>360.0</ele><time>2026-04-24T12:13:40.647Z</time></trkpt><trkpt lat="43.8096917" lon="11.3147861"><ele>361.5</ele><time>2026-04-24T12:13:41.647Z</time></trkpt><trkpt lat="43.8096784" lon="11.3148958"><ele>363.0</ele><time>2026-04-24T12:13:42.647Z</time></trkpt><trkpt lat="43.809656" lon="11.3150054"><ele>364.5</ele><time>2026-04-24T12:13:43.647Z</time></trkpt><trkpt lat="43.8096302" lon="11.3151085"><ele>366.0</ele><time>2026-04-24T12:13:44.647Z</time></trkpt><trkpt lat="43.809608" lon="11.3152138"><ele>367.5</ele><time>2026-04-24T12:13:45.647Z</time></trkpt><trkpt lat="43.809591" lon="11.3153222"><ele>369.0</ele><time>2026-04-24T12:13:46.647Z</time></trkpt><trkpt lat="43.8096051" lon="11.3154327"><ele>369.0</ele><time>2026-04-24T12:13:47.647Z</time></trkpt><trkpt lat="43.8096228" lon="11.3155389"><ele>369.0</ele><time>2026-04-24T12:13:48.647Z</time></trkpt><trkpt lat="43.8096409" lon="11.3156446"><ele>369.0</ele><time>2026-04-24T12:13:49.647Z</time></trkpt><trkpt lat="43.8096657" lon="11.3157504"><ele>369.0</ele><time>2026-04-24T12:13:50.647Z</time></trkpt><trkpt lat="43.8096975" lon="11.3158518"><ele>369.0</ele><time>2026-04-24T12:13:51.647Z</time></trkpt><trkpt lat="43.8097377" lon="11.3159567"><ele>369.0</ele><time>2026-04-24T12:13:52.647Z</time></trkpt><trkpt lat="43.8097762" lon="11.3160621"><ele>369.5</ele><time>2026-04-24T12:13:53.647Z</time></trkpt><trkpt lat="43.8098171" lon="11.316172"><ele>370.0</ele><time>2026-04-24T12:13:54.646Z</time></trkpt><trkpt lat="43.8098544" lon="11.3162859"><ele>370.5</ele><time>2026-04-24T12:13:55.647Z</time></trkpt><trkpt lat="43.8098773" lon="11.3164051"><ele>371.0</ele><time>2026-04-24T12:13:56.647Z</time></trkpt><trkpt lat="43.8098782" lon="11.316527"><ele>371.5</ele><time>2026-04-24T12:13:57.647Z</time></trkpt><trkpt lat="43.8098642" lon="11.3166437"><ele>372.0</ele><time>2026-04-24T12:13:58.646Z</time></trkpt><trkpt lat="43.8098342" lon="11.316756"><ele>373.0</ele><time>2026-04-24T12:13:59.647Z</time></trkpt><trkpt lat="43.8097974" lon="11.3168667"><ele>374.0</ele><time>2026-04-24T12:14:00.647Z</time></trkpt><trkpt lat="43.8097535" lon="11.3169754"><ele>375.0</ele><time>2026-04-24T12:14:01.647Z</time></trkpt><trkpt lat="43.8097022" lon="11.317078"><ele>376.0</ele><time>2026-04-24T12:14:02.646Z</time></trkpt><trkpt lat="43.8096418" lon="11.3171665"><ele>377.0</ele><time>2026-04-24T12:14:03.646Z</time></trkpt><trkpt lat="43.8095653" lon="11.317229"><ele>378.0</ele><time>2026-04-24T12:14:04.646Z</time></trkpt><trkpt lat="43.8094842" lon="11.3172804"><ele>378.57142857142856</ele><time>2026-04-24T12:14:05.647Z</time></trkpt><trkpt lat="43.8094156" lon="11.3173231"><ele>379.1428571428571</ele><time>2026-04-24T12:14:06.647Z</time></trkpt><trkpt lat="43.8093504" lon="11.3173725"><ele>379.7142857142857</ele><time>2026-04-24T12:14:07.646Z</time></trkpt><trkpt lat="43.8093213" lon="11.3174761"><ele>380.2857142857143</ele><time>2026-04-24T12:15:09.647Z</time></trkpt><trkpt lat="43.8092835" lon="11.3175661"><ele>380.85714285714283</ele><time>2026-04-24T12:15:12.647Z</time></trkpt><trkpt lat="43.8093055" lon="11.3176487"><ele>381.42857142857144</ele><time>2026-04-24T12:15:20.645Z</time></trkpt><trkpt lat="43.8093529" lon="11.3175701"><ele>382.0</ele><time>2026-04-24T12:15:25.647Z</time></trkpt><trkpt lat="43.8093832" lon="11.317838"><ele>383.75</ele><time>2026-04-24T12:15:31.646Z</time></trkpt><trkpt lat="43.8093525" lon="11.3180533"><ele>385.5</ele><time>2026-04-24T12:15:32.647Z</time></trkpt><trkpt lat="43.8093217" lon="11.3181873"><ele>387.25</ele><time>2026-04-24T12:15:33.646Z</time></trkpt><trkpt lat="43.8093177" lon="11.3183665"><ele>389.0</ele><time>2026-04-24T12:15:34.646Z</time></trkpt><trkpt lat="43.8092833" lon="11.3184715"><ele>388.99999999999994</ele><time>2026-04-24T12:15:35.647Z</time></trkpt><trkpt lat="43.809254" lon="11.3185959"><ele>389.0</ele><time>2026-04-24T12:15:36.647Z</time></trkpt><trkpt lat="43.8092431" lon="11.3187123"><ele>389.0</ele><time>2026-04-24T12:15:37.647Z</time></trkpt><trkpt lat="43.8092342" lon="11.3188254"><ele>389.0</ele><time>2026-04-24T12:15:38.647Z</time></trkpt><trkpt lat="43.8092427" lon="11.3189365"><ele>388.99999999999994</ele><time>2026-04-24T12:15:39.646Z</time></trkpt><trkpt lat="43.8092685" lon="11.3190425"><ele>389.0</ele><time>2026-04-24T12:15:40.646Z</time></trkpt><trkpt lat="43.8093224" lon="11.3191234"><ele>392.0</ele><time>2026-04-24T12:15:41.647Z</time></trkpt><trkpt lat="43.8093628" lon="11.3192249"><ele>395.0</ele><time>2026-04-24T12:15:42.647Z</time></trkpt><trkpt lat="43.8094056" lon="11.3193517"><ele>398.0</ele><time>2026-04-24T12:15:43.647Z</time></trkpt><trkpt lat="43.8094304" lon="11.3194674"><ele>401.0</ele><time>2026-04-24T12:15:44.647Z</time></trkpt><trkpt lat="43.8094526" lon="11.3195885"><ele>404.0</ele><time>2026-04-24T12:15:45.646Z</time></trkpt><trkpt lat="43.8094671" lon="11.3197144"><ele>404.6</ele><time>2026-04-24T12:15:46.647Z</time></trkpt><trkpt lat="43.8094708" lon="11.3198452"><ele>405.2</ele><time>2026-04-24T12:15:47.646Z</time></trkpt><trkpt lat="43.8094582" lon="11.3199607"><ele>405.8</ele><time>2026-04-24T12:15:48.647Z</time></trkpt><trkpt lat="43.8094277" lon="11.3200778"><ele>406.40000000000003</ele><time>2026-04-24T12:15:49.647Z</time></trkpt><trkpt lat="43.8094009" lon="11.320204"><ele>407.0</ele><time>2026-04-24T12:15:50.645Z</time></trkpt><trkpt lat="43.8093796" lon="11.3203347"><ele>407.0</ele><time>2026-04-24T12:15:51.646Z</time></trkpt><trkpt lat="43.8093564" lon="11.3204603"><ele>407.0</ele><time>2026-04-24T12:15:52.646Z</time></trkpt><trkpt lat="43.8093361" lon="11.320588"><ele>407.0</ele><time>2026-04-24T12:15:53.647Z</time></trkpt><trkpt lat="43.809315" lon="11.3207173"><ele>407.0</ele><time>2026-04-24T12:15:54.647Z</time></trkpt><trkpt lat="43.8092924" lon="11.3208531"><ele>407.0</ele><time>2026-04-24T12:15:55.647Z</time></trkpt><trkpt lat="43.8092735" lon="11.3209709"><ele>407.40000000000003</ele><time>2026-04-24T12:15:56.647Z</time></trkpt><trkpt lat="43.8092463" lon="11.3210991"><ele>407.8</ele><time>2026-04-24T12:15:57.647Z</time></trkpt><trkpt lat="43.8092205" lon="11.3212275"><ele>408.2</ele><time>2026-04-24T12:15:58.646Z</time></trkpt><trkpt lat="43.8091919" lon="11.321356"><ele>408.6</ele><time>2026-04-24T12:15:59.646Z</time></trkpt><trkpt lat="43.8091555" lon="11.3214818"><ele>409.0</ele><time>2026-04-24T12:16:00.647Z</time></trkpt><trkpt lat="43.8091252" lon="11.321609"><ele>409.0</ele><time>2026-04-24T12:16:01.647Z</time></trkpt><trkpt lat="43.809096" lon="11.3217404"><ele>409.0</ele><time>2026-04-24T12:16:02.646Z</time></trkpt><trkpt lat="43.8090594" lon="11.3218734"><ele>409.0</ele><time>2026-04-24T12:16:03.647Z</time></trkpt><trkpt lat="43.8090231" lon="11.3220089"><ele>409.0</ele><time>2026-04-24T12:16:04.647Z</time></trkpt><trkpt lat="43.8089881" lon="11.3221505"><ele>409.0</ele><time>2026-04-24T12:16:05.647Z</time></trkpt><trkpt lat="43.8089727" lon="11.3222799"><ele>409.6</ele><time>2026-04-24T12:16:06.647Z</time></trkpt><trkpt lat="43.8089636" lon="11.3224313"><ele>410.2</ele><time>2026-04-24T12:16:07.647Z</time></trkpt><trkpt lat="43.8089461" lon="11.3225752"><ele>410.8</ele><time>2026-04-24T12:16:08.647Z</time></trkpt><trkpt lat="43.8089305" lon="11.3227179"><ele>411.40000000000003</ele><time>2026-04-24T12:16:09.647Z</time></trkpt><trkpt lat="43.8088843" lon="11.3228127"><ele>412.0</ele><time>2026-04-24T12:16:10.647Z</time></trkpt><trkpt lat="43.8088861" lon="11.3229755"><ele>413.20000000000005</ele><time>2026-04-24T12:16:11.647Z</time></trkpt><trkpt lat="43.8088854" lon="11.3231023"><ele>414.4</ele><time>2026-04-24T12:16:12.647Z</time></trkpt><trkpt lat="43.8088757" lon="11.3232206"><ele>415.6</ele><time>2026-04-24T12:16:13.647Z</time></trkpt><trkpt lat="43.8088479" lon="11.3233471"><ele>416.79999999999995</ele><time>2026-04-24T12:16:14.647Z</time></trkpt><trkpt lat="43.8088371" lon="11.3235034"><ele>418.0</ele><time>2026-04-24T12:16:15.646Z</time></trkpt><trkpt lat="43.8088425" lon="11.3236435"><ele>418.0</ele><time>2026-04-24T12:16:16.647Z</time></trkpt><trkpt lat="43.8088567" lon="11.3237727"><ele>418.0</ele><time>2026-04-24T12:16:17.647Z</time></trkpt><trkpt lat="43.8088745" lon="11.323903"><ele>418.0</ele><time>2026-04-24T12:16:18.647Z</time></trkpt><trkpt lat="43.808882" lon="11.3240382"><ele>418.0</ele><time>2026-04-24T12:16:19.646Z</time></trkpt><trkpt lat="43.8088941" lon="11.324175"><ele>418.0</ele><time>2026-04-24T12:16:20.647Z</time></trkpt><trkpt lat="43.8089183" lon="11.3243047"><ele>419.79999999999995</ele><time>2026-04-24T12:16:21.647Z</time></trkpt><trkpt lat="43.8089536" lon="11.3244196"><ele>421.6</ele><time>2026-04-24T12:16:22.647Z</time></trkpt><trkpt lat="43.8090045" lon="11.3245361"><ele>423.40000000000003</ele><time>2026-04-24T12:16:23.647Z</time></trkpt><trkpt lat="43.8090566" lon="11.3246567"><ele>425.20000000000005</ele><time>2026-04-24T12:16:24.647Z</time></trkpt><trkpt lat="43.8090912" lon="11.3247888"><ele>427.0</ele><time>2026-04-24T12:16:25.646Z</time></trkpt><trkpt lat="43.8091354" lon="11.3249202"><ele>428.8</ele><time>2026-04-24T12:16:26.647Z</time></trkpt><trkpt lat="43.8091661" lon="11.3250715"><ele>430.6</ele><time>2026-04-24T12:16:27.647Z</time></trkpt><trkpt lat="43.8091737" lon="11.3252026"><ele>432.40000000000003</ele><time>2026-04-24T12:16:28.646Z</time></trkpt><trkpt lat="43.8091815" lon="11.3253447"><ele>434.20000000000005</ele><time>2026-04-24T12:16:29.646Z</time></trkpt><trkpt lat="43.8091707" lon="11.3254644"><ele>436.0</ele><time>2026-04-24T12:16:30.647Z</time></trkpt><trkpt lat="43.8091308" lon="11.3255896"><ele>437.4</ele><time>2026-04-24T12:16:31.647Z</time></trkpt><trkpt lat="43.8091286" lon="11.3257009"><ele>438.8</ele><time>2026-04-24T12:16:32.647Z</time></trkpt><trkpt lat="43.8091273" lon="11.3257972"><ele>440.19999999999993</ele><time>2026-04-24T12:16:33.647Z</time></trkpt><trkpt lat="43.8093134" lon="11.3257914"><ele>441.59999999999997</ele><time>2026-04-24T12:16:36.647Z</time></trkpt><trkpt lat="43.8093908" lon="11.3257829"><ele>443.0</ele><time>2026-04-24T12:16:37.647Z</time></trkpt><trkpt lat="43.8095156" lon="11.3257963"><ele>444.2</ele><time>2026-04-24T12:16:39.647Z</time></trkpt><trkpt lat="43.8095833" lon="11.325789"><ele>445.4</ele><time>2026-04-24T12:16:40.647Z</time></trkpt><trkpt lat="43.8096627" lon="11.3257612"><ele>446.59999999999997</ele><time>2026-04-24T12:16:41.647Z</time></trkpt><trkpt lat="43.8097628" lon="11.3257174"><ele>447.79999999999995</ele><time>2026-04-24T12:16:42.647Z</time></trkpt><trkpt lat="43.8098701" lon="11.3256753"><ele>449.0</ele><time>2026-04-24T12:16:43.647Z</time></trkpt><trkpt lat="43.8099946" lon="11.325623"><ele>449.0</ele><time>2026-04-24T12:16:44.646Z</time></trkpt><trkpt lat="43.8101216" lon="11.3255659"><ele>449.0</ele><time>2026-04-24T12:16:45.647Z</time></trkpt><trkpt lat="43.8102567" lon="11.3254764"><ele>449.0</ele><time>2026-04-24T12:16:46.647Z</time></trkpt><trkpt lat="43.8103734" lon="11.3254012"><ele>449.0</ele><time>2026-04-24T12:16:47.647Z</time></trkpt><trkpt lat="43.8105005" lon="11.3253308"><ele>453.5</ele><time>2026-04-24T12:16:48.647Z</time></trkpt><trkpt lat="43.8106234" lon="11.3252738"><ele>458.0</ele><time>2026-04-24T12:16:49.647Z</time></trkpt><trkpt lat="43.8107482" lon="11.3252215"><ele>462.5</ele><time>2026-04-24T12:16:50.647Z</time></trkpt><trkpt lat="43.8108709" lon="11.3251518"><ele>467.0</ele><time>2026-04-24T12:16:51.647Z</time></trkpt><trkpt lat="43.8109799" lon="11.3250625"><ele>466.99999999999994</ele><time>2026-04-24T12:16:53.646Z</time></trkpt><trkpt lat="43.8109846" lon="11.3251534"><ele>467.0</ele><time>2026-04-24T12:16:54.647Z</time></trkpt><trkpt lat="43.8110337" lon="11.3250715"><ele>467.0</ele><time>2026-04-24T12:16:57.647Z</time></trkpt><trkpt lat="43.8111085" lon="11.3250344"><ele>467.0</ele><time>2026-04-24T12:17:02.647Z</time></trkpt><trkpt lat="43.8111673" lon="11.3249783"><ele>466.99999999999994</ele><time>2026-04-24T12:17:05.647Z</time></trkpt><trkpt lat="43.8112601" lon="11.3250295"><ele>467.0</ele><time>2026-04-24T12:17:07.647Z</time></trkpt><trkpt lat="43.8113275" lon="11.3250573"><ele>468.99999999999994</ele><time>2026-04-24T12:17:08.647Z</time></trkpt><trkpt lat="43.8113988" lon="11.3250628"><ele>471.0</ele><time>2026-04-24T12:17:09.647Z</time></trkpt><trkpt lat="43.8114739" lon="11.3250695"><ele>473.0</ele><time>2026-04-24T12:17:10.647Z</time></trkpt><trkpt lat="43.8115688" lon="11.3251154"><ele>475.0</ele><time>2026-04-24T12:17:12.647Z</time></trkpt><trkpt lat="43.8116481" lon="11.3251875"><ele>476.99999999999994</ele><time>2026-04-24T12:17:14.647Z</time></trkpt><trkpt lat="43.8116867" lon="11.3253134"><ele>479.0</ele><time>2026-04-24T12:17:16.646Z</time></trkpt><trkpt lat="43.8117585" lon="11.3254246"><ele>480.79999999999995</ele><time>2026-04-24T12:17:18.646Z</time></trkpt><trkpt lat="43.8118312" lon="11.3255466"><ele>482.59999999999997</ele><time>2026-04-24T12:17:20.647Z</time></trkpt><trkpt lat="43.8118771" lon="11.3256409"><ele>484.4</ele><time>2026-04-24T12:17:22.647Z</time></trkpt><trkpt lat="43.8118982" lon="11.3257324"><ele>486.2</ele><time>2026-04-24T12:17:23.646Z</time></trkpt><trkpt lat="43.8119217" lon="11.3258278"><ele>488.0</ele><time>2026-04-24T12:17:24.647Z</time></trkpt><trkpt lat="43.8120157" lon="11.3259486"><ele>487.99999999999994</ele><time>2026-04-24T12:17:26.647Z</time></trkpt><trkpt lat="43.8120858" lon="11.3259883"><ele>488.0</ele><time>2026-04-24T12:17:27.646Z</time></trkpt><trkpt lat="43.8121717" lon="11.3260366"><ele>488.0</ele><time>2026-04-24T12:17:29.645Z</time></trkpt><trkpt lat="43.8122568" lon="11.3260743"><ele>488.0</ele><time>2026-04-24T12:17:31.646Z</time></trkpt><trkpt lat="43.8123229" lon="11.3261306"><ele>487.99999999999994</ele><time>2026-04-24T12:17:33.646Z</time></trkpt><trkpt lat="43.8124099" lon="11.3261908"><ele>488.0</ele><time>2026-04-24T12:17:35.647Z</time></trkpt><trkpt lat="43.8124704" lon="11.3262194"><ele>487.99999999999994</ele><time>2026-04-24T12:17:37.647Z</time></trkpt><trkpt lat="43.8125539" lon="11.3262439"><ele>488.0</ele><time>2026-04-24T12:17:39.647Z</time></trkpt><trkpt lat="43.8126199" lon="11.3262131"><ele>488.0</ele><time>2026-04-24T12:17:41.646Z</time></trkpt><trkpt lat="43.8126993" lon="11.3261966"><ele>488.0</ele><time>2026-04-24T12:17:45.646Z</time></trkpt><trkpt lat="43.8127643" lon="11.3261976"><ele>487.99999999999994</ele><time>2026-04-24T12:17:47.647Z</time></trkpt><trkpt lat="43.8128473" lon="11.3262429"><ele>488.0</ele><time>2026-04-24T12:17:49.647Z</time></trkpt><trkpt lat="43.8129209" lon="11.3262904"><ele>489.0</ele><time>2026-04-24T12:17:51.647Z</time></trkpt><trkpt lat="43.8130043" lon="11.3263409"><ele>489.99999999999994</ele><time>2026-04-24T12:17:53.647Z</time></trkpt><trkpt lat="43.8130924" lon="11.3264066"><ele>490.99999999999994</ele><time>2026-04-24T12:17:55.647Z</time></trkpt><trkpt lat="43.8131691" lon="11.3264444"><ele>492.0</ele><time>2026-04-24T12:17:57.647Z</time></trkpt><trkpt lat="43.813248" lon="11.3264973"><ele>493.0</ele><time>2026-04-24T12:17:59.647Z</time></trkpt><trkpt lat="43.8133106" lon="11.3265901"><ele>493.0</ele><time>2026-04-24T12:18:01.647Z</time></trkpt><trkpt lat="43.8133702" lon="11.3266813"><ele>492.99999999999994</ele><time>2026-04-24T12:18:03.646Z</time></trkpt><trkpt lat="43.8134658" lon="11.3267391"><ele>492.99999999999994</ele><time>2026-04-24T12:18:05.647Z</time></trkpt><trkpt lat="43.8135629" lon="11.3268523"><ele>493.0</ele><time>2026-04-24T12:18:07.647Z</time></trkpt><trkpt lat="43.8136192" lon="11.3269146"><ele>493.0</ele><time>2026-04-24T12:18:08.647Z</time></trkpt><trkpt lat="43.8136679" lon="11.3269795"><ele>494.2</ele><time>2026-04-24T12:18:09.647Z</time></trkpt><trkpt lat="43.8137101" lon="11.3270463"><ele>495.4</ele><time>2026-04-24T12:18:10.647Z</time></trkpt><trkpt lat="43.8138276" lon="11.3271537"><ele>496.59999999999997</ele><time>2026-04-24T12:18:12.647Z</time></trkpt><trkpt lat="43.8139209" lon="11.3271882"><ele>497.79999999999995</ele><time>2026-04-24T12:18:14.647Z</time></trkpt><trkpt lat="43.8140189" lon="11.3272287"><ele>499.0</ele><time>2026-04-24T12:18:16.647Z</time></trkpt><trkpt lat="43.8141059" lon="11.3272922"><ele>499.0</ele><time>2026-04-24T12:18:18.647Z</time></trkpt><trkpt lat="43.8142006" lon="11.3273201"><ele>499.0</ele><time>2026-04-24T12:18:20.647Z</time></trkpt><trkpt lat="43.814315" lon="11.3273553"><ele>499.0</ele><time>2026-04-24T12:18:22.647Z</time></trkpt><trkpt lat="43.8144352" lon="11.32736"><ele>499.0</ele><time>2026-04-24T12:18:24.647Z</time></trkpt><trkpt lat="43.8145051" lon="11.3273399"><ele>499.0</ele><time>2026-04-24T12:18:25.647Z</time></trkpt><trkpt lat="43.8145756" lon="11.3273241"><ele>498.4</ele><time>2026-04-24T12:18:26.647Z</time></trkpt><trkpt lat="43.8146558" lon="11.3273254"><ele>497.79999999999995</ele><time>2026-04-24T12:18:27.646Z</time></trkpt><trkpt lat="43.8147625" lon="11.3272703"><ele>497.20000000000005</ele><time>2026-04-24T12:18:29.647Z</time></trkpt><trkpt lat="43.8148903" lon="11.3271969"><ele>496.6</ele><time>2026-04-24T12:18:31.646Z</time></trkpt><trkpt lat="43.8149399" lon="11.3271042"><ele>496.0</ele><time>2026-04-24T12:18:32.647Z</time></trkpt><trkpt lat="43.8149925" lon="11.3270441"><ele>500.0</ele><time>2026-04-24T12:18:33.647Z</time></trkpt><trkpt lat="43.8151066" lon="11.326979"><ele>504.0</ele><time>2026-04-24T12:18:35.647Z</time></trkpt><trkpt lat="43.8152212" lon="11.3269349"><ele>508.0</ele><time>2026-04-24T12:18:37.647Z</time></trkpt><trkpt lat="43.8153183" lon="11.3269253"><ele>512.0</ele><time>2026-04-24T12:18:38.647Z</time></trkpt><trkpt lat="43.8153968" lon="11.3269035"><ele>516.0</ele><time>2026-04-24T12:18:39.647Z</time></trkpt><trkpt lat="43.8154604" lon="11.3269085"><ele>517.2</ele><time>2026-04-24T12:18:40.647Z</time></trkpt><trkpt lat="43.8155838" lon="11.3269693"><ele>518.4000000000001</ele><time>2026-04-24T12:18:42.647Z</time></trkpt><trkpt lat="43.8156529" lon="11.3270105"><ele>519.6</ele><time>2026-04-24T12:18:43.647Z</time></trkpt><trkpt lat="43.8157108" lon="11.327086"><ele>520.8000000000001</ele><time>2026-04-24T12:18:44.646Z</time></trkpt><trkpt lat="43.8157638" lon="11.3271446"><ele>522.0</ele><time>2026-04-24T12:18:45.646Z</time></trkpt><trkpt lat="43.8158448" lon="11.3272725"><ele>520.5714285714286</ele><time>2026-04-24T12:18:47.647Z</time></trkpt><trkpt lat="43.8159019" lon="11.327342"><ele>519.1428571428571</ele><time>2026-04-24T12:18:48.646Z</time></trkpt><trkpt lat="43.8159682" lon="11.3274046"><ele>517.7142857142857</ele><time>2026-04-24T12:18:49.647Z</time></trkpt><trkpt lat="43.8160316" lon="11.3274721"><ele>516.2857142857142</ele><time>2026-04-24T12:18:50.647Z</time></trkpt><trkpt lat="43.8160939" lon="11.3275209"><ele>514.8571428571428</ele><time>2026-04-24T12:18:51.647Z</time></trkpt><trkpt lat="43.8161543" lon="11.3275634"><ele>513.4285714285714</ele><time>2026-04-24T12:18:52.647Z</time></trkpt><trkpt lat="43.8162142" lon="11.3275927"><ele>512.0</ele><time>2026-04-24T12:18:53.647Z</time></trkpt><trkpt lat="43.8162755" lon="11.3276322"><ele>512.0</ele><time>2026-04-24T12:18:54.646Z</time></trkpt><trkpt lat="43.8164074" lon="11.3276481"><ele>512.0</ele><time>2026-04-24T12:18:56.647Z</time></trkpt><trkpt lat="43.81654" lon="11.3276092"><ele>512.0</ele><time>2026-04-24T12:18:58.647Z</time></trkpt><trkpt lat="43.8166038" lon="11.3276091"><ele>512.0</ele><time>2026-04-24T12:18:59.647Z</time></trkpt><trkpt lat="43.8167189" lon="11.3275636"><ele>511.16666666666663</ele><time>2026-04-24T12:19:01.647Z</time></trkpt><trkpt lat="43.8168281" lon="11.3275089"><ele>510.3333333333333</ele><time>2026-04-24T12:19:03.646Z</time></trkpt><trkpt lat="43.8168911" lon="11.3275029"><ele>509.5</ele><time>2026-04-24T12:19:04.646Z</time></trkpt><trkpt lat="43.8169592" lon="11.3274774"><ele>508.66666666666663</ele><time>2026-04-24T12:19:05.647Z</time></trkpt><trkpt lat="43.8170277" lon="11.3274603"><ele>507.8333333333333</ele><time>2026-04-24T12:19:06.647Z</time></trkpt><trkpt lat="43.8171037" lon="11.3274528"><ele>507.0</ele><time>2026-04-24T12:19:07.647Z</time></trkpt><trkpt lat="43.8171726" lon="11.3274351"><ele>507.0</ele><time>2026-04-24T12:19:08.647Z</time></trkpt><trkpt lat="43.8172489" lon="11.3274141"><ele>507.0</ele><time>2026-04-24T12:19:09.647Z</time></trkpt><trkpt lat="43.8173183" lon="11.3273685"><ele>507.0</ele><time>2026-04-24T12:19:10.647Z</time></trkpt><trkpt lat="43.8173847" lon="11.3273294"><ele>507.0</ele><time>2026-04-24T12:19:11.646Z</time></trkpt><trkpt lat="43.8174389" lon="11.3272788"><ele>507.0</ele><time>2026-04-24T12:19:12.647Z</time></trkpt><trkpt lat="43.8175139" lon="11.3272613"><ele>507.0</ele><time>2026-04-24T12:19:13.646Z</time></trkpt><trkpt lat="43.8175946" lon="11.3272444"><ele>508.85714285714283</ele><time>2026-04-24T12:19:14.646Z</time></trkpt><trkpt lat="43.81767" lon="11.3272221"><ele>510.7142857142858</ele><time>2026-04-24T12:19:15.646Z</time></trkpt><trkpt lat="43.817739" lon="11.327194"><ele>512.5714285714287</ele><time>2026-04-24T12:19:16.646Z</time></trkpt><trkpt lat="43.8178116" lon="11.3271902"><ele>514.4285714285714</ele><time>2026-04-24T12:19:17.647Z</time></trkpt><trkpt lat="43.8178806" lon="11.3271725"><ele>516.2857142857143</ele><time>2026-04-24T12:19:18.647Z</time></trkpt><trkpt lat="43.8179469" lon="11.327146"><ele>518.1428571428572</ele><time>2026-04-24T12:19:19.646Z</time></trkpt><trkpt lat="43.8180111" lon="11.3271304"><ele>520.0</ele><time>2026-04-24T12:19:20.647Z</time></trkpt><trkpt lat="43.8180816" lon="11.3271301"><ele>520.0</ele><time>2026-04-24T12:19:21.647Z</time></trkpt><trkpt lat="43.8181686" lon="11.3271157"><ele>520.0</ele><time>2026-04-24T12:19:22.647Z</time></trkpt><trkpt lat="43.8182642" lon="11.3270937"><ele>520.0</ele><time>2026-04-24T12:19:23.646Z</time></trkpt><trkpt lat="43.8183947" lon="11.3270584"><ele>520.0</ele><time>2026-04-24T12:19:24.647Z</time></trkpt><trkpt lat="43.8185041" lon="11.3270302"><ele>520.0</ele><time>2026-04-24T12:19:25.647Z</time></trkpt><trkpt lat="43.8186091" lon="11.3270135"><ele>517.4</ele><time>2026-04-24T12:19:26.647Z</time></trkpt><trkpt lat="43.818708" lon="11.3270024"><ele>514.8</ele><time>2026-04-24T12:19:27.647Z</time></trkpt><trkpt lat="43.8188063" lon="11.326987"><ele>512.2</ele><time>2026-04-24T12:19:28.647Z</time></trkpt><trkpt lat="43.8189052" lon="11.3270318"><ele>509.6</ele><time>2026-04-24T12:19:29.647Z</time></trkpt><trkpt lat="43.8190144" lon="11.3270367"><ele>507.0</ele><time>2026-04-24T12:19:30.647Z</time></trkpt><trkpt lat="43.8191174" lon="11.3270424"><ele>507.0</ele><time>2026-04-24T12:19:31.647Z</time></trkpt><trkpt lat="43.8191951" lon="11.3270408"><ele>507.0</ele><time>2026-04-24T12:19:33.647Z</time></trkpt><trkpt lat="43.8193569" lon="11.3270394"><ele>507.0</ele><time>2026-04-24T12:19:37.647Z</time></trkpt><trkpt lat="43.8194556" lon="11.3270868"><ele>507.0</ele><time>2026-04-24T12:19:38.647Z</time></trkpt><trkpt lat="43.8195664" lon="11.3271326"><ele>507.40000000000003</ele><time>2026-04-24T12:19:39.647Z</time></trkpt><trkpt lat="43.819668" lon="11.3271833"><ele>507.80000000000007</ele><time>2026-04-24T12:19:40.646Z</time></trkpt><trkpt lat="43.8197429" lon="11.3272499"><ele>508.2</ele><time>2026-04-24T12:19:41.647Z</time></trkpt><trkpt lat="43.8198174" lon="11.3273519"><ele>508.6</ele><time>2026-04-24T12:19:42.646Z</time></trkpt><trkpt lat="43.8198843" lon="11.327475"><ele>509.0</ele><time>2026-04-24T12:19:43.645Z</time></trkpt><trkpt lat="43.8199315" lon="11.3276026"><ele>509.4</ele><time>2026-04-24T12:19:44.646Z</time></trkpt><trkpt lat="43.8199759" lon="11.327742"><ele>509.79999999999995</ele><time>2026-04-24T12:19:45.646Z</time></trkpt><trkpt lat="43.8200179" lon="11.3278743"><ele>510.20000000000005</ele><time>2026-04-24T12:19:46.647Z</time></trkpt><trkpt lat="43.8200629" lon="11.3280075"><ele>510.6</ele><time>2026-04-24T12:19:47.647Z</time></trkpt><trkpt lat="43.8201046" lon="11.3281338"><ele>511.0</ele><time>2026-04-24T12:19:48.646Z</time></trkpt><trkpt lat="43.8201497" lon="11.3282485"><ele>514.2</ele><time>2026-04-24T12:19:49.646Z</time></trkpt><trkpt lat="43.8201986" lon="11.3283794"><ele>517.4000000000001</ele><time>2026-04-24T12:19:50.647Z</time></trkpt><trkpt lat="43.8202449" lon="11.3285127"><ele>520.6</ele><time>2026-04-24T12:19:51.647Z</time></trkpt><trkpt lat="43.82028" lon="11.3286455"><ele>523.8000000000001</ele><time>2026-04-24T12:19:52.647Z</time></trkpt><trkpt lat="43.8203221" lon="11.3287779"><ele>527.0</ele><time>2026-04-24T12:19:53.646Z</time></trkpt><trkpt lat="43.8203631" lon="11.3289091"><ele>528.2</ele><time>2026-04-24T12:19:54.647Z</time></trkpt><trkpt lat="43.8204" lon="11.329036"><ele>529.4000000000001</ele><time>2026-04-24T12:19:55.646Z</time></trkpt><trkpt lat="43.8204378" lon="11.3291604"><ele>530.5999999999999</ele><time>2026-04-24T12:19:56.647Z</time></trkpt><trkpt lat="43.8204773" lon="11.3292764"><ele>531.8</ele><time>2026-04-24T12:19:57.647Z</time></trkpt><trkpt lat="43.8205253" lon="11.3293926"><ele>533.0</ele><time>2026-04-24T12:19:58.647Z</time></trkpt><trkpt lat="43.8205806" lon="11.3295167"><ele>533.0</ele><time>2026-04-24T12:19:59.647Z</time></trkpt><trkpt lat="43.820618" lon="11.3296502"><ele>533.0</ele><time>2026-04-24T12:20:00.647Z</time></trkpt><trkpt lat="43.8206756" lon="11.3297545"><ele>533.0</ele><time>2026-04-24T12:20:01.646Z</time></trkpt><trkpt lat="43.8207417" lon="11.329848"><ele>533.0</ele><time>2026-04-24T12:20:02.647Z</time></trkpt><trkpt lat="43.8208057" lon="11.3299129"><ele>533.0</ele><time>2026-04-24T12:20:03.647Z</time></trkpt><trkpt lat="43.8209406" lon="11.3299534"><ele>533.4</ele><time>2026-04-24T12:20:04.647Z</time></trkpt><trkpt lat="43.8210341" lon="11.3299814"><ele>533.8</ele><time>2026-04-24T12:20:05.646Z</time></trkpt><trkpt lat="43.8211081" lon="11.3300043"><ele>534.2</ele><time>2026-04-24T12:20:06.647Z</time></trkpt><trkpt lat="43.821184" lon="11.3300374"><ele>534.6</ele><time>2026-04-24T12:20:07.646Z</time></trkpt><trkpt lat="43.821246" lon="11.3300537"><ele>535.0</ele><time>2026-04-24T12:20:08.646Z</time></trkpt><trkpt lat="43.8213822" lon="11.3300459"><ele>535.0</ele><time>2026-04-24T12:20:10.646Z</time></trkpt><trkpt lat="43.8214666" lon="11.3300282"><ele>535.0</ele><time>2026-04-24T12:20:11.647Z</time></trkpt><trkpt lat="43.8215575" lon="11.330004"><ele>535.0</ele><time>2026-04-24T12:20:12.646Z</time></trkpt><trkpt lat="43.8216368" lon="11.3300192"><ele>535.0</ele><time>2026-04-24T12:20:13.647Z</time></trkpt><trkpt lat="43.8217117" lon="11.3300418"><ele>535.0</ele><time>2026-04-24T12:20:14.647Z</time></trkpt><trkpt lat="43.8217927" lon="11.3300538"><ele>535.0</ele><time>2026-04-24T12:20:15.646Z</time></trkpt><trkpt lat="43.8218724" lon="11.3300715"><ele>534.4</ele><time>2026-04-24T12:20:16.647Z</time></trkpt><trkpt lat="43.8219642" lon="11.3301223"><ele>533.8</ele><time>2026-04-24T12:20:17.647Z</time></trkpt><trkpt lat="43.8220671" lon="11.3301568"><ele>533.2</ele><time>2026-04-24T12:20:18.646Z</time></trkpt><trkpt lat="43.8221595" lon="11.3301839"><ele>532.6</ele><time>2026-04-24T12:20:19.647Z</time></trkpt><trkpt lat="43.8222456" lon="11.3302032"><ele>532.0</ele><time>2026-04-24T12:20:20.647Z</time></trkpt><trkpt lat="43.822332" lon="11.330222"><ele>532.0</ele><time>2026-04-24T12:20:21.647Z</time></trkpt><trkpt lat="43.8224121" lon="11.3302353"><ele>532.0</ele><time>2026-04-24T12:20:22.647Z</time></trkpt><trkpt lat="43.8224907" lon="11.3302496"><ele>532.0</ele><time>2026-04-24T12:20:23.647Z</time></trkpt><trkpt lat="43.8225768" lon="11.3302217"><ele>532.0</ele><time>2026-04-24T12:20:24.647Z</time></trkpt><trkpt lat="43.8226489" lon="11.3302037"><ele>532.0</ele><time>2026-04-24T12:20:25.647Z</time></trkpt><trkpt lat="43.8227204" lon="11.3301832"><ele>532.0</ele><time>2026-04-24T12:20:26.647Z</time></trkpt><trkpt lat="43.8228034" lon="11.3301653"><ele>531.1666666666667</ele><time>2026-04-24T12:20:27.647Z</time></trkpt><trkpt lat="43.8228622" lon="11.3301321"><ele>530.3333333333334</ele><time>2026-04-24T12:20:29.646Z</time></trkpt><trkpt lat="43.8229413" lon="11.3301485"><ele>529.5</ele><time>2026-04-24T12:20:31.645Z</time></trkpt><trkpt lat="43.8230257" lon="11.3301234"><ele>528.6666666666666</ele><time>2026-04-24T12:20:33.647Z</time></trkpt><trkpt lat="43.8231029" lon="11.3300852"><ele>527.8333333333333</ele><time>2026-04-24T12:20:35.647Z</time></trkpt><trkpt lat="43.8232121" lon="11.3301483"><ele>527.0</ele><time>2026-04-24T12:21:02.646Z</time></trkpt><trkpt lat="43.8232954" lon="11.3300965"><ele>527.0</ele><time>2026-04-24T12:21:05.647Z</time></trkpt><trkpt lat="43.8233736" lon="11.3300482"><ele>527.0</ele><time>2026-04-24T12:21:07.647Z</time></trkpt><trkpt lat="43.8234622" lon="11.3299972"><ele>527.0</ele><time>2026-04-24T12:21:09.646Z</time></trkpt><trkpt lat="43.8235462" lon="11.32997"><ele>527.0</ele><time>2026-04-24T12:21:11.647Z</time></trkpt><trkpt lat="43.8236399" lon="11.3299692"><ele>527.0</ele><time>2026-04-24T12:21:12.647Z</time></trkpt><trkpt lat="43.8237175" lon="11.3299804"><ele>527.0</ele><time>2026-04-24T12:21:14.646Z</time></trkpt><trkpt lat="43.8238122" lon="11.3299823"><ele>526.0</ele><time>2026-04-24T12:21:16.647Z</time></trkpt><trkpt lat="43.8239337" lon="11.3299839"><ele>525.0</ele><time>2026-04-24T12:21:18.647Z</time></trkpt><trkpt lat="43.8240248" lon="11.3299955"><ele>524.0</ele><time>2026-04-24T12:21:20.647Z</time></trkpt><trkpt lat="43.8241138" lon="11.3299895"><ele>523.0</ele><time>2026-04-24T12:21:22.647Z</time></trkpt><trkpt lat="43.8242144" lon="11.3299816"><ele>522.0</ele><time>2026-04-24T12:21:24.647Z</time></trkpt><trkpt lat="43.8243227" lon="11.3299878"><ele>521.0</ele><time>2026-04-24T12:21:26.647Z</time></trkpt><trkpt lat="43.8243891" lon="11.330018"><ele>520.0</ele><time>2026-04-24T12:21:28.646Z</time></trkpt><trkpt lat="43.8244496" lon="11.3301099"><ele>519.0</ele><time>2026-04-24T12:21:30.647Z</time></trkpt><trkpt lat="43.8245264" lon="11.3301668"><ele>518.0</ele><time>2026-04-24T12:21:32.646Z</time></trkpt><trkpt lat="43.8245942" lon="11.3302461"><ele>517.0</ele><time>2026-04-24T12:21:38.647Z</time></trkpt><trkpt lat="43.8246644" lon="11.3303272"><ele>516.0</ele><time>2026-04-24T12:21:40.647Z</time></trkpt><trkpt lat="43.8247253" lon="11.3304048"><ele>516.0</ele><time>2026-04-24T12:21:42.647Z</time></trkpt><trkpt lat="43.8247901" lon="11.3304407"><ele>516.0</ele><time>2026-04-24T12:21:44.647Z</time></trkpt><trkpt lat="43.8248378" lon="11.3305238"><ele>516.0</ele><time>2026-04-24T12:21:46.647Z</time></trkpt><trkpt lat="43.8249129" lon="11.3305847"><ele>516.0</ele><time>2026-04-24T12:21:48.647Z</time></trkpt><trkpt lat="43.8249924" lon="11.3306357"><ele>516.0</ele><time>2026-04-24T12:21:52.647Z</time></trkpt><trkpt lat="43.8250732" lon="11.3306374"><ele>516.0</ele><time>2026-04-24T12:21:54.647Z</time></trkpt><trkpt lat="43.8251803" lon="11.3306348"><ele>514.5</ele><time>2026-04-24T12:21:57.646Z</time></trkpt><trkpt lat="43.8252736" lon="11.3306024"><ele>513.0</ele><time>2026-04-24T12:21:59.647Z</time></trkpt><trkpt lat="43.8253478" lon="11.3305758"><ele>511.5</ele><time>2026-04-24T12:22:01.646Z</time></trkpt><trkpt lat="43.8254005" lon="11.3305159"><ele>510.0</ele><time>2026-04-24T12:22:04.647Z</time></trkpt><trkpt lat="43.8254718" lon="11.3304465"><ele>508.5</ele><time>2026-04-24T12:22:07.647Z</time></trkpt><trkpt lat="43.8255522" lon="11.3303968"><ele>507.0</ele><time>2026-04-24T12:22:10.647Z</time></trkpt><trkpt lat="43.8256748" lon="11.3303821"><ele>507.0</ele><time>2026-04-24T12:22:12.647Z</time></trkpt><trkpt lat="43.8257725" lon="11.3303989"><ele>507.00000000000006</ele><time>2026-04-24T12:22:14.647Z</time></trkpt><trkpt lat="43.8258762" lon="11.3304265"><ele>507.00000000000006</ele><time>2026-04-24T12:22:15.647Z</time></trkpt><trkpt lat="43.8259678" lon="11.330414"><ele>507.0</ele><time>2026-04-24T12:22:17.647Z</time></trkpt><trkpt lat="43.8260561" lon="11.3304236"><ele>507.0</ele><time>2026-04-24T12:22:19.647Z</time></trkpt><trkpt lat="43.826161" lon="11.3304441"><ele>505.6</ele><time>2026-04-24T12:22:20.647Z</time></trkpt><trkpt lat="43.8262372" lon="11.3304542"><ele>504.20000000000005</ele><time>2026-04-24T12:22:21.647Z</time></trkpt><trkpt lat="43.8263138" lon="11.3304841"><ele>502.8</ele><time>2026-04-24T12:22:22.647Z</time></trkpt><trkpt lat="43.8264535" lon="11.3304022"><ele>501.4</ele><time>2026-04-24T12:22:24.647Z</time></trkpt><trkpt lat="43.8265156" lon="11.3303857"><ele>500.0</ele><time>2026-04-24T12:22:25.647Z</time></trkpt><trkpt lat="43.8265979" lon="11.3304026"><ele>500.0</ele><time>2026-04-24T12:22:26.647Z</time></trkpt><trkpt lat="43.8266638" lon="11.330399"><ele>500.0</ele><time>2026-04-24T12:22:29.647Z</time></trkpt><trkpt lat="43.8267479" lon="11.3304349"><ele>500.0</ele><time>2026-04-24T12:22:31.646Z</time></trkpt><trkpt lat="43.8268547" lon="11.3304811"><ele>500.0</ele><time>2026-04-24T12:22:33.647Z</time></trkpt><trkpt lat="43.8269278" lon="11.3304847"><ele>500.0</ele><time>2026-04-24T12:22:35.647Z</time></trkpt><trkpt lat="43.8270456" lon="11.3304761"><ele>498.0</ele><time>2026-04-24T12:22:37.647Z</time></trkpt><trkpt lat="43.8271362" lon="11.3304899"><ele>496.0</ele><time>2026-04-24T12:22:38.646Z</time></trkpt><trkpt lat="43.8272183" lon="11.3305026"><ele>494.0</ele><time>2026-04-24T12:22:41.647Z</time></trkpt><trkpt lat="43.8272987" lon="11.3305661"><ele>492.0</ele><time>2026-04-24T12:22:43.647Z</time></trkpt><trkpt lat="43.8273768" lon="11.3306298"><ele>490.0</ele><time>2026-04-24T12:22:45.647Z</time></trkpt><trkpt lat="43.8274719" lon="11.3306813"><ele>492.0</ele><time>2026-04-24T12:22:47.647Z</time></trkpt><trkpt lat="43.8275875" lon="11.3307407"><ele>494.0</ele><time>2026-04-24T12:22:49.646Z</time></trkpt><trkpt lat="43.8276683" lon="11.3307536"><ele>496.0</ele><time>2026-04-24T12:22:50.646Z</time></trkpt><trkpt lat="43.8277822" lon="11.3307964"><ele>498.0</ele><time>2026-04-24T12:22:52.647Z</time></trkpt><trkpt lat="43.8279212" lon="11.330829"><ele>498.0</ele><time>2026-04-24T12:22:54.647Z</time></trkpt><trkpt lat="43.8280257" lon="11.330885"><ele>497.99999999999994</ele><time>2026-04-24T12:22:56.647Z</time></trkpt><trkpt lat="43.8281135" lon="11.3309415"><ele>497.99999999999994</ele><time>2026-04-24T12:22:58.647Z</time></trkpt><trkpt lat="43.8281802" lon="11.3309736"><ele>498.0</ele><time>2026-04-24T12:22:59.647Z</time></trkpt><trkpt lat="43.8282559" lon="11.3309844"><ele>498.0</ele><time>2026-04-24T12:23:00.647Z</time></trkpt><trkpt lat="43.8283693" lon="11.3310112"><ele>498.0</ele><time>2026-04-24T12:23:02.646Z</time></trkpt><trkpt lat="43.8284384" lon="11.3310383"><ele>497.99999999999994</ele><time>2026-04-24T12:23:04.647Z</time></trkpt><trkpt lat="43.8285538" lon="11.3310615"><ele>497.99999999999994</ele><time>2026-04-24T12:23:06.647Z</time></trkpt><trkpt lat="43.8286611" lon="11.3310934"><ele>498.0</ele><time>2026-04-24T12:23:08.647Z</time></trkpt><trkpt lat="43.8287243" lon="11.3311022"><ele>498.0</ele><time>2026-04-24T12:23:09.647Z</time></trkpt><trkpt lat="43.8288148" lon="11.3311057"><ele>495.2</ele><time>2026-04-24T12:23:10.647Z</time></trkpt><trkpt lat="43.8289266" lon="11.3311275"><ele>492.4</ele><time>2026-04-24T12:23:12.647Z</time></trkpt><trkpt lat="43.8290491" lon="11.3311079"><ele>489.59999999999997</ele><time>2026-04-24T12:23:13.647Z</time></trkpt><trkpt lat="43.8291443" lon="11.3311136"><ele>486.79999999999995</ele><time>2026-04-24T12:23:14.647Z</time></trkpt><trkpt lat="43.8292149" lon="11.331113"><ele>484.0</ele><time>2026-04-24T12:23:15.645Z</time></trkpt><trkpt lat="43.8292971" lon="11.331103"><ele>481.1666666666667</ele><time>2026-04-24T12:23:16.647Z</time></trkpt><trkpt lat="43.8294089" lon="11.3310896"><ele>478.33333333333337</ele><time>2026-04-24T12:23:18.647Z</time></trkpt><trkpt lat="43.829471" lon="11.3310721"><ele>475.5</ele><time>2026-04-24T12:23:19.647Z</time></trkpt><trkpt lat="43.8295502" lon="11.3310571"><ele>472.66666666666663</ele><time>2026-04-24T12:23:23.647Z</time></trkpt><trkpt lat="43.829615" lon="11.3310513"><ele>469.8333333333333</ele><time>2026-04-24T12:23:25.647Z</time></trkpt><trkpt lat="43.8296795" lon="11.3311032"><ele>467.0</ele><time>2026-04-24T12:23:27.646Z</time></trkpt><trkpt lat="43.8297249" lon="11.3311639"><ele>467.0</ele><time>2026-04-24T12:23:29.647Z</time></trkpt><trkpt lat="43.8297732" lon="11.331231"><ele>467.00000000000006</ele><time>2026-04-24T12:23:31.647Z</time></trkpt><trkpt lat="43.8298741" lon="11.3312669"><ele>467.00000000000006</ele><time>2026-04-24T12:23:33.647Z</time></trkpt><trkpt lat="43.8299798" lon="11.3312964"><ele>467.0</ele><time>2026-04-24T12:23:35.647Z</time></trkpt><trkpt lat="43.8300958" lon="11.3312892"><ele>467.0</ele><time>2026-04-24T12:23:37.646Z</time></trkpt><trkpt lat="43.8302022" lon="11.331226"><ele>463.6</ele><time>2026-04-24T12:23:39.647Z</time></trkpt><trkpt lat="43.8303063" lon="11.3311743"><ele>460.20000000000005</ele><time>2026-04-24T12:23:41.646Z</time></trkpt><trkpt lat="43.8303747" lon="11.3311597"><ele>456.8</ele><time>2026-04-24T12:23:42.647Z</time></trkpt><trkpt lat="43.830484" lon="11.3311211"><ele>453.4</ele><time>2026-04-24T12:23:44.647Z</time></trkpt><trkpt lat="43.8305563" lon="11.3310957"><ele>450.0</ele><time>2026-04-24T12:23:45.647Z</time></trkpt><trkpt lat="43.8306748" lon="11.3310766"><ele>450.0</ele><time>2026-04-24T12:23:47.646Z</time></trkpt><trkpt lat="43.8308004" lon="11.331125"><ele>450.0</ele><time>2026-04-24T12:23:49.646Z</time></trkpt><trkpt lat="43.8308597" lon="11.3311605"><ele>450.0</ele><time>2026-04-24T12:23:50.647Z</time></trkpt><trkpt lat="43.8309649" lon="11.331226"><ele>450.0</ele><time>2026-04-24T12:23:52.646Z</time></trkpt><trkpt lat="43.8310281" lon="11.3312622"><ele>450.0</ele><time>2026-04-24T12:23:53.647Z</time></trkpt><trkpt lat="43.8310997" lon="11.3313157"><ele>449.0</ele><time>2026-04-24T12:23:55.647Z</time></trkpt><trkpt lat="43.8311653" lon="11.3313936"><ele>448.0</ele><time>2026-04-24T12:23:57.647Z</time></trkpt><trkpt lat="43.8312177" lon="11.3315047"><ele>447.0</ele><time>2026-04-24T12:23:59.647Z</time></trkpt><trkpt lat="43.831296" lon="11.3316105"><ele>446.0</ele><time>2026-04-24T12:24:01.647Z</time></trkpt><trkpt lat="43.831332" lon="11.3316832"><ele>445.0</ele><time>2026-04-24T12:24:02.646Z</time></trkpt><trkpt lat="43.8313831" lon="11.3317424"><ele>444.0</ele><time>2026-04-24T12:24:03.647Z</time></trkpt><trkpt lat="43.8314416" lon="11.3317949"><ele>444.0</ele><time>2026-04-24T12:24:04.646Z</time></trkpt><trkpt lat="43.831551" lon="11.3318509"><ele>444.0</ele><time>2026-04-24T12:24:06.647Z</time></trkpt><trkpt lat="43.8316848" lon="11.331957"><ele>444.0</ele><time>2026-04-24T12:24:08.647Z</time></trkpt><trkpt lat="43.831722" lon="11.3320316"><ele>444.0</ele><time>2026-04-24T12:24:09.646Z</time></trkpt><trkpt lat="43.8317662" lon="11.3321024"><ele>444.0</ele><time>2026-04-24T12:24:10.646Z</time></trkpt><trkpt lat="43.8318496" lon="11.3322087"><ele>443.1666666666667</ele><time>2026-04-24T12:24:12.647Z</time></trkpt><trkpt lat="43.8319146" lon="11.3321971"><ele>442.33333333333337</ele><time>2026-04-24T12:24:14.647Z</time></trkpt><trkpt lat="43.8319822" lon="11.3321635"><ele>441.5</ele><time>2026-04-24T12:24:16.647Z</time></trkpt><trkpt lat="43.8320708" lon="11.332064"><ele>440.6666666666667</ele><time>2026-04-24T12:24:17.647Z</time></trkpt><trkpt lat="43.8321294" lon="11.3319981"><ele>439.83333333333337</ele><time>2026-04-24T12:24:18.647Z</time></trkpt><trkpt lat="43.8321977" lon="11.3319275"><ele>439.0</ele><time>2026-04-24T12:24:19.647Z</time></trkpt><trkpt lat="43.8322538" lon="11.3318676"><ele>439.00000000000006</ele><time>2026-04-24T12:24:20.647Z</time></trkpt><trkpt lat="43.8323211" lon="11.3318053"><ele>439.0</ele><time>2026-04-24T12:24:21.647Z</time></trkpt><trkpt lat="43.8323802" lon="11.3317387"><ele>439.0</ele><time>2026-04-24T12:24:22.647Z</time></trkpt><trkpt lat="43.8324477" lon="11.3316741"><ele>439.0</ele><time>2026-04-24T12:24:23.647Z</time></trkpt><trkpt lat="43.8325062" lon="11.3316127"><ele>439.00000000000006</ele><time>2026-04-24T12:24:24.647Z</time></trkpt><trkpt lat="43.8325647" lon="11.3315508"><ele>439.0</ele><time>2026-04-24T12:24:25.647Z</time></trkpt><trkpt lat="43.8326226" lon="11.3314911"><ele>438.00000000000006</ele><time>2026-04-24T12:24:26.647Z</time></trkpt><trkpt lat="43.8326745" lon="11.3314349"><ele>437.0</ele><time>2026-04-24T12:24:27.647Z</time></trkpt><trkpt lat="43.8327238" lon="11.3313801"><ele>436.0</ele><time>2026-04-24T12:24:28.647Z</time></trkpt><trkpt lat="43.8328267" lon="11.3312699"><ele>435.0</ele><time>2026-04-24T12:24:30.646Z</time></trkpt><trkpt lat="43.8328834" lon="11.3312237"><ele>434.00000000000006</ele><time>2026-04-24T12:24:31.646Z</time></trkpt><trkpt lat="43.8329775" lon="11.3311977"><ele>433.0</ele><time>2026-04-24T12:24:33.647Z</time></trkpt><trkpt lat="43.8330367" lon="11.3312325"><ele>433.00000000000006</ele><time>2026-04-24T12:24:34.647Z</time></trkpt><trkpt lat="43.8330941" lon="11.3312718"><ele>433.0</ele><time>2026-04-24T12:24:35.647Z</time></trkpt><trkpt lat="43.83317" lon="11.3313219"><ele>433.0</ele><time>2026-04-24T12:24:36.647Z</time></trkpt><trkpt lat="43.8332416" lon="11.3313719"><ele>433.0</ele><time>2026-04-24T12:24:37.647Z</time></trkpt><trkpt lat="43.8333122" lon="11.3314168"><ele>433.00000000000006</ele><time>2026-04-24T12:24:38.647Z</time></trkpt><trkpt lat="43.8333816" lon="11.3314645"><ele>433.0</ele><time>2026-04-24T12:24:39.647Z</time></trkpt><trkpt lat="43.8334464" lon="11.3315079"><ele>431.6666666666667</ele><time>2026-04-24T12:24:40.646Z</time></trkpt><trkpt lat="43.8335111" lon="11.3315458"><ele>430.33333333333337</ele><time>2026-04-24T12:24:41.647Z</time></trkpt><trkpt lat="43.8335874" lon="11.3315777"><ele>429.0</ele><time>2026-04-24T12:24:42.647Z</time></trkpt><trkpt lat="43.8336656" lon="11.3316028"><ele>427.66666666666663</ele><time>2026-04-24T12:24:43.647Z</time></trkpt><trkpt lat="43.8337405" lon="11.3316271"><ele>426.3333333333333</ele><time>2026-04-24T12:24:44.647Z</time></trkpt><trkpt lat="43.8338165" lon="11.3316485"><ele>425.0</ele><time>2026-04-24T12:24:45.647Z</time></trkpt><trkpt lat="43.8338875" lon="11.3316672"><ele>425.0</ele><time>2026-04-24T12:24:46.647Z</time></trkpt><trkpt lat="43.8339586" lon="11.3316872"><ele>425.0</ele><time>2026-04-24T12:24:47.647Z</time></trkpt><trkpt lat="43.8340222" lon="11.331709"><ele>425.0</ele><time>2026-04-24T12:24:48.647Z</time></trkpt><trkpt lat="43.8341236" lon="11.3317273"><ele>425.0</ele><time>2026-04-24T12:24:50.647Z</time></trkpt><trkpt lat="43.8342508" lon="11.3317702"><ele>425.0</ele><time>2026-04-24T12:24:52.647Z</time></trkpt><trkpt lat="43.834345" lon="11.3317976"><ele>424.49999999999994</ele><time>2026-04-24T12:24:53.647Z</time></trkpt><trkpt lat="43.8344201" lon="11.3318132"><ele>424.0</ele><time>2026-04-24T12:24:54.647Z</time></trkpt><trkpt lat="43.8344896" lon="11.3318302"><ele>423.5</ele><time>2026-04-24T12:24:55.647Z</time></trkpt><trkpt lat="43.834584" lon="11.3318536"><ele>423.0</ele><time>2026-04-24T12:24:56.647Z</time></trkpt><trkpt lat="43.8346724" lon="11.3318731"><ele>422.49999999999994</ele><time>2026-04-24T12:24:57.647Z</time></trkpt><trkpt lat="43.8347784" lon="11.3318872"><ele>422.0</ele><time>2026-04-24T12:24:58.647Z</time></trkpt><trkpt lat="43.8348855" lon="11.3318942"><ele>422.0</ele><time>2026-04-24T12:24:59.647Z</time></trkpt><trkpt lat="43.8349791" lon="11.3318839"><ele>422.0</ele><time>2026-04-24T12:25:00.647Z</time></trkpt><trkpt lat="43.8350807" lon="11.3318217"><ele>422.0</ele><time>2026-04-24T12:25:01.647Z</time></trkpt><trkpt lat="43.8351747" lon="11.3317612"><ele>422.0</ele><time>2026-04-24T12:25:02.647Z</time></trkpt><trkpt lat="43.8352962" lon="11.3316941"><ele>422.0</ele><time>2026-04-24T12:25:03.647Z</time></trkpt><trkpt lat="43.8353752" lon="11.3316491"><ele>422.49999999999994</ele><time>2026-04-24T12:25:04.647Z</time></trkpt><trkpt lat="43.83545" lon="11.3316071"><ele>423.0</ele><time>2026-04-24T12:25:05.646Z</time></trkpt><trkpt lat="43.8355212" lon="11.331584"><ele>423.5</ele><time>2026-04-24T12:25:06.647Z</time></trkpt><trkpt lat="43.8356008" lon="11.33156"><ele>424.0</ele><time>2026-04-24T12:25:07.646Z</time></trkpt><trkpt lat="43.8357297" lon="11.3315685"><ele>424.49999999999994</ele><time>2026-04-24T12:25:09.646Z</time></trkpt><trkpt lat="43.8358002" lon="11.3315847"><ele>425.0</ele><time>2026-04-24T12:25:10.647Z</time></trkpt><trkpt lat="43.835905" lon="11.3315739"><ele>425.0</ele><time>2026-04-24T12:25:12.647Z</time></trkpt><trkpt lat="43.8359441" lon="11.3315008"><ele>425.0</ele><time>2026-04-24T12:25:14.647Z</time></trkpt><trkpt lat="43.8359224" lon="11.3313818"><ele>425.0</ele><time>2026-04-24T12:25:32.647Z</time></trkpt><trkpt lat="43.83594" lon="11.3312249"><ele>425.0</ele><time>2026-04-24T12:25:34.647Z</time></trkpt><trkpt lat="43.8359578" lon="11.3310514"><ele>425.0</ele><time>2026-04-24T12:25:36.647Z</time></trkpt><trkpt lat="43.8359111" lon="11.3309185"><ele>422.2</ele><time>2026-04-24T12:25:38.647Z</time></trkpt><trkpt lat="43.8358369" lon="11.3308606"><ele>419.4</ele><time>2026-04-24T12:25:40.647Z</time></trkpt><trkpt lat="43.8357293" lon="11.3307755"><ele>416.6</ele><time>2026-04-24T12:25:42.647Z</time></trkpt><trkpt lat="43.8356358" lon="11.3307307"><ele>413.8</ele><time>2026-04-24T12:25:43.647Z</time></trkpt><trkpt lat="43.8355691" lon="11.3306597"><ele>411.0</ele><time>2026-04-24T12:25:44.647Z</time></trkpt><trkpt lat="43.8354965" lon="11.330609"><ele>411.0</ele><time>2026-04-24T12:25:45.647Z</time></trkpt><trkpt lat="43.8354285" lon="11.3305691"><ele>411.0</ele><time>2026-04-24T12:25:46.647Z</time></trkpt><trkpt lat="43.8353587" lon="11.330515"><ele>411.0</ele><time>2026-04-24T12:25:48.646Z</time></trkpt><trkpt lat="43.8353951" lon="11.3304381"><ele>411.0</ele><time>2026-04-24T12:25:54.647Z</time></trkpt><trkpt lat="43.8354484" lon="11.3303837"><ele>411.0</ele><time>2026-04-24T12:25:56.646Z</time></trkpt><trkpt lat="43.835506" lon="11.330344"><ele>411.0</ele><time>2026-04-24T12:25:57.647Z</time></trkpt><trkpt lat="43.8355758" lon="11.3302844"><ele>411.0</ele><time>2026-04-24T12:25:58.646Z</time></trkpt><trkpt lat="43.8356477" lon="11.3302278"><ele>408.6666666666667</ele><time>2026-04-24T12:25:59.646Z</time></trkpt><trkpt lat="43.8357195" lon="11.330166"><ele>406.33333333333337</ele><time>2026-04-24T12:26:00.647Z</time></trkpt><trkpt lat="43.8357899" lon="11.3301089"><ele>404.0</ele><time>2026-04-24T12:26:01.645Z</time></trkpt><trkpt lat="43.8358495" lon="11.3300502"><ele>401.6666666666667</ele><time>2026-04-24T12:26:02.647Z</time></trkpt><trkpt lat="43.8359097" lon="11.3299806"><ele>399.33333333333337</ele><time>2026-04-24T12:26:04.646Z</time></trkpt><trkpt lat="43.8360005" lon="11.3299999"><ele>397.0</ele><time>2026-04-24T12:26:07.646Z</time></trkpt><trkpt lat="43.8360604" lon="11.3300863"><ele>395.33333333333337</ele><time>2026-04-24T12:26:09.647Z</time></trkpt><trkpt lat="43.8361256" lon="11.3301608"><ele>393.6666666666667</ele><time>2026-04-24T12:26:11.647Z</time></trkpt><trkpt lat="43.8361666" lon="11.3302296"><ele>392.0</ele><time>2026-04-24T12:26:13.647Z</time></trkpt><trkpt lat="43.836243" lon="11.3302807"><ele>390.33333333333337</ele><time>2026-04-24T12:26:16.647Z</time></trkpt><trkpt lat="43.8363047" lon="11.3303249"><ele>388.6666666666667</ele><time>2026-04-24T12:26:19.647Z</time></trkpt><trkpt lat="43.8364287" lon="11.3304278"><ele>387.0</ele><time>2026-04-24T12:26:21.646Z</time></trkpt><trkpt lat="43.8365041" lon="11.3304404"><ele>387.0</ele><time>2026-04-24T12:26:22.647Z</time></trkpt><trkpt lat="43.8365591" lon="11.3305432"><ele>387.0</ele><time>2026-04-24T12:26:24.647Z</time></trkpt><trkpt lat="43.8366047" lon="11.3306096"><ele>387.0</ele><time>2026-04-24T12:26:25.647Z</time></trkpt><trkpt lat="43.8366823" lon="11.3307079"><ele>387.0</ele><time>2026-04-24T12:26:27.647Z</time></trkpt><trkpt lat="43.8367821" lon="11.3307817"><ele>387.0</ele><time>2026-04-24T12:26:29.646Z</time></trkpt><trkpt lat="43.8368782" lon="11.3308728"><ele>384.5</ele><time>2026-04-24T12:26:31.647Z</time></trkpt><trkpt lat="43.8369671" lon="11.3309783"><ele>382.0</ele><time>2026-04-24T12:26:33.647Z</time></trkpt><trkpt lat="43.8370556" lon="11.3310779"><ele>379.5</ele><time>2026-04-24T12:26:35.647Z</time></trkpt><trkpt lat="43.8371561" lon="11.3311632"><ele>377.0</ele><time>2026-04-24T12:26:37.647Z</time></trkpt><trkpt lat="43.8372701" lon="11.3312017"><ele>377.0</ele><time>2026-04-24T12:26:39.647Z</time></trkpt><trkpt lat="43.8374054" lon="11.3312067"><ele>377.0</ele><time>2026-04-24T12:26:41.647Z</time></trkpt><trkpt lat="43.8374805" lon="11.3312077"><ele>377.0</ele><time>2026-04-24T12:26:42.647Z</time></trkpt><trkpt lat="43.8375569" lon="11.3312137"><ele>377.0</ele><time>2026-04-24T12:26:43.647Z</time></trkpt><trkpt lat="43.8376342" lon="11.3312212"><ele>377.0</ele><time>2026-04-24T12:26:44.647Z</time></trkpt><trkpt lat="43.8377047" lon="11.3312232"><ele>377.0</ele><time>2026-04-24T12:26:45.647Z</time></trkpt><trkpt lat="43.8378117" lon="11.3312197"><ele>375.0</ele><time>2026-04-24T12:26:47.646Z</time></trkpt><trkpt lat="43.8378922" lon="11.3312348"><ele>373.0</ele><time>2026-04-24T12:26:49.647Z</time></trkpt><trkpt lat="43.8379664" lon="11.3312753"><ele>371.0</ele><time>2026-04-24T12:26:51.646Z</time></trkpt><trkpt lat="43.83807" lon="11.3313315"><ele>369.0</ele><time>2026-04-24T12:26:53.647Z</time></trkpt><trkpt lat="43.8381653" lon="11.3313694"><ele>367.0</ele><time>2026-04-24T12:26:55.647Z</time></trkpt><trkpt lat="43.8382465" lon="11.3314306"><ele>372.0</ele><time>2026-04-24T12:26:58.647Z</time></trkpt><trkpt lat="43.8383158" lon="11.3314703"><ele>377.0</ele><time>2026-04-24T12:27:00.645Z</time></trkpt><trkpt lat="43.8383674" lon="11.3315426"><ele>382.0</ele><time>2026-04-24T12:27:04.646Z</time></trkpt><trkpt lat="43.8384529" lon="11.3315949"><ele>387.0</ele><time>2026-04-24T12:27:07.647Z</time></trkpt><trkpt lat="43.8385226" lon="11.3315952"><ele>392.0</ele><time>2026-04-24T12:27:09.647Z</time></trkpt><trkpt lat="43.8386634" lon="11.3316132"><ele>392.3333333333333</ele><time>2026-04-24T12:27:11.647Z</time></trkpt><trkpt lat="43.8387653" lon="11.3316486"><ele>392.66666666666663</ele><time>2026-04-24T12:27:13.647Z</time></trkpt><trkpt lat="43.8388274" lon="11.3316688"><ele>393.0</ele><time>2026-04-24T12:27:14.647Z</time></trkpt><trkpt lat="43.8389071" lon="11.3316312"><ele>393.33333333333337</ele><time>2026-04-24T12:27:16.647Z</time></trkpt><trkpt lat="43.8389966" lon="11.3315472"><ele>393.6666666666667</ele><time>2026-04-24T12:27:19.646Z</time></trkpt><trkpt lat="43.83906" lon="11.3315065"><ele>394.0</ele><time>2026-04-24T12:27:20.646Z</time></trkpt><trkpt lat="43.8391624" lon="11.3314524"><ele>394.00000000000006</ele><time>2026-04-24T12:27:22.647Z</time></trkpt><trkpt lat="43.8392558" lon="11.331474"><ele>394.0</ele><time>2026-04-24T12:27:24.646Z</time></trkpt><trkpt lat="43.8393136" lon="11.3315269"><ele>394.0</ele><time>2026-04-24T12:27:25.647Z</time></trkpt><trkpt lat="43.8393656" lon="11.3315945"><ele>394.0</ele><time>2026-04-24T12:27:26.647Z</time></trkpt><trkpt lat="43.8394349" lon="11.3316743"><ele>394.00000000000006</ele><time>2026-04-24T12:27:27.647Z</time></trkpt><trkpt lat="43.8395157" lon="11.3317645"><ele>394.0</ele><time>2026-04-24T12:27:28.647Z</time></trkpt><trkpt lat="43.8395855" lon="11.3318532"><ele>392.4</ele><time>2026-04-24T12:27:29.647Z</time></trkpt><trkpt lat="43.8396504" lon="11.3319588"><ele>390.79999999999995</ele><time>2026-04-24T12:27:30.647Z</time></trkpt><trkpt lat="43.8397161" lon="11.3320597"><ele>389.20000000000005</ele><time>2026-04-24T12:27:31.647Z</time></trkpt><trkpt lat="43.8397757" lon="11.3321645"><ele>387.6</ele><time>2026-04-24T12:27:32.647Z</time></trkpt><trkpt lat="43.8398591" lon="11.3323047"><ele>386.0</ele><time>2026-04-24T12:27:33.647Z</time></trkpt><trkpt lat="43.8399441" lon="11.3324475"><ele>390.25</ele><time>2026-04-24T12:27:34.647Z</time></trkpt><trkpt lat="43.8400353" lon="11.3326012"><ele>394.5</ele><time>2026-04-24T12:27:35.647Z</time></trkpt><trkpt lat="43.8401275" lon="11.3327515"><ele>398.75</ele><time>2026-04-24T12:27:36.647Z</time></trkpt><trkpt lat="43.84022" lon="11.3328621"><ele>403.0</ele><time>2026-04-24T12:27:37.647Z</time></trkpt><trkpt lat="43.840307" lon="11.3329887"><ele>408.0</ele><time>2026-04-24T12:27:38.647Z</time></trkpt><trkpt lat="43.8404069" lon="11.3330676"><ele>413.0</ele><time>2026-04-24T12:27:39.647Z</time></trkpt><trkpt lat="43.8405013" lon="11.3331709"><ele>418.0</ele><time>2026-04-24T12:27:40.647Z</time></trkpt><trkpt lat="43.8405859" lon="11.3332609"><ele>423.0</ele><time>2026-04-24T12:27:41.646Z</time></trkpt><trkpt lat="43.8406807" lon="11.3333463"><ele>423.0</ele><time>2026-04-24T12:27:42.647Z</time></trkpt><trkpt lat="43.8407852" lon="11.3334195"><ele>423.0</ele><time>2026-04-24T12:27:43.647Z</time></trkpt><trkpt lat="43.8408825" lon="11.3334936"><ele>423.0</ele><time>2026-04-24T12:27:44.647Z</time></trkpt><trkpt lat="43.8409487" lon="11.3335446"><ele>423.0</ele><time>2026-04-24T12:27:45.647Z</time></trkpt><trkpt lat="43.841014" lon="11.3336031"><ele>423.0</ele><time>2026-04-24T12:27:47.647Z</time></trkpt><trkpt lat="43.8410494" lon="11.333728"><ele>422.1666666666667</ele><time>2026-04-24T12:27:49.646Z</time></trkpt><trkpt lat="43.8410638" lon="11.3338219"><ele>421.33333333333337</ele><time>2026-04-24T12:27:50.647Z</time></trkpt><trkpt lat="43.841069" lon="11.33395"><ele>420.5</ele><time>2026-04-24T12:27:51.647Z</time></trkpt><trkpt lat="43.8410772" lon="11.3340654"><ele>419.6666666666667</ele><time>2026-04-24T12:27:52.647Z</time></trkpt><trkpt lat="43.8410727" lon="11.3341942"><ele>418.83333333333337</ele><time>2026-04-24T12:27:53.647Z</time></trkpt><trkpt lat="43.8410731" lon="11.3343144"><ele>418.0</ele><time>2026-04-24T12:27:54.647Z</time></trkpt><trkpt lat="43.8410913" lon="11.334457"><ele>418.0</ele><time>2026-04-24T12:27:56.647Z</time></trkpt><trkpt lat="43.8411709" lon="11.3345406"><ele>418.0</ele><time>2026-04-24T12:27:58.647Z</time></trkpt><trkpt lat="43.841265" lon="11.3346169"><ele>418.0</ele><time>2026-04-24T12:28:00.647Z</time></trkpt><trkpt lat="43.8412698" lon="11.3347826"><ele>418.0</ele><time>2026-04-24T12:28:02.647Z</time></trkpt><trkpt lat="43.8412874" lon="11.3348711"><ele>418.0</ele><time>2026-04-24T12:28:22.647Z</time></trkpt><trkpt lat="43.8414087" lon="11.3349254"><ele>417.2</ele><time>2026-04-24T12:28:24.647Z</time></trkpt><trkpt lat="43.8414724" lon="11.3349644"><ele>416.4</ele><time>2026-04-24T12:28:25.647Z</time></trkpt><trkpt lat="43.8416074" lon="11.3349779"><ele>415.59999999999997</ele><time>2026-04-24T12:28:27.646Z</time></trkpt><trkpt lat="43.8416904" lon="11.3349658"><ele>414.79999999999995</ele><time>2026-04-24T12:28:28.647Z</time></trkpt><trkpt lat="43.8417828" lon="11.3349404"><ele>414.0</ele><time>2026-04-24T12:28:29.647Z</time></trkpt><trkpt lat="43.8418757" lon="11.334889"><ele>414.0</ele><time>2026-04-24T12:28:30.647Z</time></trkpt><trkpt lat="43.8419544" lon="11.3348451"><ele>414.0</ele><time>2026-04-24T12:28:31.646Z</time></trkpt><trkpt lat="43.842038" lon="11.3348042"><ele>414.0</ele><time>2026-04-24T12:28:32.647Z</time></trkpt><trkpt lat="43.842138" lon="11.3347323"><ele>414.0</ele><time>2026-04-24T12:28:33.647Z</time></trkpt><trkpt lat="43.8422286" lon="11.3347579"><ele>414.0</ele><time>2026-04-24T12:28:34.647Z</time></trkpt><trkpt lat="43.8423253" lon="11.3347882"><ele>414.0</ele><time>2026-04-24T12:28:35.647Z</time></trkpt><trkpt lat="43.8424591" lon="11.3348094"><ele>414.0</ele><time>2026-04-24T12:28:36.647Z</time></trkpt><trkpt lat="43.8425428" lon="11.3348366"><ele>414.0</ele><time>2026-04-24T12:28:37.646Z</time></trkpt><trkpt lat="43.8426337" lon="11.3348689"><ele>414.0</ele><time>2026-04-24T12:28:38.647Z</time></trkpt><trkpt lat="43.8427208" lon="11.3348888"><ele>414.0</ele><time>2026-04-24T12:28:39.647Z</time></trkpt><trkpt lat="43.8428142" lon="11.3349065"><ele>412.79999999999995</ele><time>2026-04-24T12:28:40.646Z</time></trkpt><trkpt lat="43.8429044" lon="11.3349406"><ele>411.59999999999997</ele><time>2026-04-24T12:28:41.647Z</time></trkpt><trkpt lat="43.8429889" lon="11.3349587"><ele>410.4</ele><time>2026-04-24T12:28:42.647Z</time></trkpt><trkpt lat="43.8430774" lon="11.3349622"><ele>409.2</ele><time>2026-04-24T12:28:43.647Z</time></trkpt><trkpt lat="43.8431671" lon="11.3349296"><ele>408.0</ele><time>2026-04-24T12:28:44.647Z</time></trkpt><trkpt lat="43.8432477" lon="11.3348674"><ele>408.0</ele><time>2026-04-24T12:28:45.647Z</time></trkpt><trkpt lat="43.8433216" lon="11.3348053"><ele>408.0</ele><time>2026-04-24T12:28:46.647Z</time></trkpt><trkpt lat="43.8433949" lon="11.3347308"><ele>408.0</ele><time>2026-04-24T12:28:47.647Z</time></trkpt><trkpt lat="43.8434638" lon="11.3346912"><ele>408.0</ele><time>2026-04-24T12:28:48.646Z</time></trkpt><trkpt lat="43.8435394" lon="11.3346637"><ele>408.0</ele><time>2026-04-24T12:28:49.647Z</time></trkpt><trkpt lat="43.8436214" lon="11.334655"><ele>408.0</ele><time>2026-04-24T12:28:50.647Z</time></trkpt><trkpt lat="43.8437263" lon="11.3346768"><ele>409.0</ele><time>2026-04-24T12:28:51.647Z</time></trkpt><trkpt lat="43.8438093" lon="11.3346946"><ele>410.0</ele><time>2026-04-24T12:28:52.647Z</time></trkpt><trkpt lat="43.8438995" lon="11.3347993"><ele>411.0</ele><time>2026-04-24T12:28:53.646Z</time></trkpt><trkpt lat="43.8440011" lon="11.3348857"><ele>412.0</ele><time>2026-04-24T12:28:54.647Z</time></trkpt><trkpt lat="43.8441153" lon="11.334953"><ele>413.0</ele><time>2026-04-24T12:28:55.647Z</time></trkpt><trkpt lat="43.8442241" lon="11.3349771"><ele>412.66666666666663</ele><time>2026-04-24T12:28:56.647Z</time></trkpt><trkpt lat="43.8443021" lon="11.3350068"><ele>412.3333333333333</ele><time>2026-04-24T12:28:58.646Z</time></trkpt><trkpt lat="43.8443688" lon="11.3349969"><ele>412.0</ele><time>2026-04-24T12:29:06.647Z</time></trkpt><trkpt lat="43.8444604" lon="11.3349157"><ele>411.66666666666663</ele><time>2026-04-24T12:29:08.647Z</time></trkpt><trkpt lat="43.8445144" lon="11.3348685"><ele>411.3333333333333</ele><time>2026-04-24T12:29:09.647Z</time></trkpt><trkpt lat="43.8445732" lon="11.3348227"><ele>411.0</ele><time>2026-04-24T12:29:10.647Z</time></trkpt><trkpt lat="43.8446384" lon="11.3347106"><ele>411.0</ele><time>2026-04-24T12:29:11.647Z</time></trkpt><trkpt lat="43.8447006" lon="11.3345649"><ele>411.0</ele><time>2026-04-24T12:29:12.646Z</time></trkpt><trkpt lat="43.8447641" lon="11.334468"><ele>411.0</ele><time>2026-04-24T12:29:13.646Z</time></trkpt><trkpt lat="43.8448082" lon="11.3343686"><ele>411.0</ele><time>2026-04-24T12:29:14.645Z</time></trkpt><trkpt lat="43.84486" lon="11.3342685"><ele>411.0</ele><time>2026-04-24T12:29:15.646Z</time></trkpt><trkpt lat="43.8449029" lon="11.3341398"><ele>411.0</ele><time>2026-04-24T12:29:16.647Z</time></trkpt><trkpt lat="43.8449393" lon="11.3340405"><ele>411.0</ele><time>2026-04-24T12:29:17.647Z</time></trkpt><trkpt lat="43.8450372" lon="11.3339569"><ele>411.0</ele><time>2026-04-24T12:29:19.647Z</time></trkpt><trkpt lat="43.8451178" lon="11.3339078"><ele>411.0</ele><time>2026-04-24T12:29:21.647Z</time></trkpt><trkpt lat="43.8452446" lon="11.3338745"><ele>411.0</ele><time>2026-04-24T12:29:23.647Z</time></trkpt><trkpt lat="43.8453127" lon="11.3338594"><ele>407.20000000000005</ele><time>2026-04-24T12:29:24.647Z</time></trkpt><trkpt lat="43.8453867" lon="11.3338319"><ele>403.40000000000003</ele><time>2026-04-24T12:29:25.647Z</time></trkpt><trkpt lat="43.8454955" lon="11.3338715"><ele>399.6</ele><time>2026-04-24T12:29:26.647Z</time></trkpt><trkpt lat="43.8455887" lon="11.3338745"><ele>395.8</ele><time>2026-04-24T12:29:27.647Z</time></trkpt><trkpt lat="43.8456783" lon="11.3338641"><ele>392.0</ele><time>2026-04-24T12:29:28.647Z</time></trkpt><trkpt lat="43.8457691" lon="11.3338686"><ele>393.40000000000003</ele><time>2026-04-24T12:29:29.647Z</time></trkpt><trkpt lat="43.8458894" lon="11.3339106"><ele>394.8</ele><time>2026-04-24T12:29:30.647Z</time></trkpt><trkpt lat="43.8459782" lon="11.3339431"><ele>396.2</ele><time>2026-04-24T12:29:31.647Z</time></trkpt><trkpt lat="43.8460541" lon="11.3339607"><ele>397.6</ele><time>2026-04-24T12:29:32.646Z</time></trkpt><trkpt lat="43.8461401" lon="11.3339968"><ele>399.0</ele><time>2026-04-24T12:29:33.647Z</time></trkpt><trkpt lat="43.8462235" lon="11.3340183"><ele>399.0</ele><time>2026-04-24T12:29:34.647Z</time></trkpt><trkpt lat="43.846311" lon="11.3340363"><ele>399.0</ele><time>2026-04-24T12:29:35.647Z</time></trkpt><trkpt lat="43.8463853" lon="11.3340452"><ele>399.0</ele><time>2026-04-24T12:29:36.647Z</time></trkpt><trkpt lat="43.8464487" lon="11.3340717"><ele>399.0</ele><time>2026-04-24T12:29:37.647Z</time></trkpt><trkpt lat="43.8465103" lon="11.3341043"><ele>399.0</ele><time>2026-04-24T12:29:38.646Z</time></trkpt><trkpt lat="43.8465796" lon="11.3341446"><ele>399.0</ele><time>2026-04-24T12:29:39.646Z</time></trkpt><trkpt lat="43.8466511" lon="11.3341867"><ele>399.0</ele><time>2026-04-24T12:29:40.647Z</time></trkpt><trkpt lat="43.8467546" lon="11.3342983"><ele>396.2</ele><time>2026-04-24T12:29:42.647Z</time></trkpt><trkpt lat="43.846809" lon="11.3344118"><ele>393.4</ele><time>2026-04-24T12:29:44.647Z</time></trkpt><trkpt lat="43.8468672" lon="11.3344785"><ele>390.6</ele><time>2026-04-24T12:29:46.645Z</time></trkpt><trkpt lat="43.8469673" lon="11.3345229"><ele>387.8</ele><time>2026-04-24T12:29:48.647Z</time></trkpt><trkpt lat="43.8470675" lon="11.3345929"><ele>385.0</ele><time>2026-04-24T12:29:50.647Z</time></trkpt><trkpt lat="43.8471844" lon="11.3346312"><ele>385.0</ele><time>2026-04-24T12:29:52.647Z</time></trkpt><trkpt lat="43.8473331" lon="11.3346701"><ele>385.0</ele><time>2026-04-24T12:29:54.646Z</time></trkpt><trkpt lat="43.8474212" lon="11.3347033"><ele>385.0</ele><time>2026-04-24T12:29:56.647Z</time></trkpt><trkpt lat="43.847503" lon="11.3347828"><ele>385.0</ele><time>2026-04-24T12:29:59.647Z</time></trkpt><trkpt lat="43.8475712" lon="11.3348155"><ele>385.0</ele><time>2026-04-24T12:30:01.647Z</time></trkpt><trkpt lat="43.8476424" lon="11.3348575"><ele>386.50000000000006</ele><time>2026-04-24T12:30:04.646Z</time></trkpt><trkpt lat="43.8476963" lon="11.3349251"><ele>388.0</ele><time>2026-04-24T12:30:07.647Z</time></trkpt><trkpt lat="43.8477615" lon="11.334945"><ele>389.5</ele><time>2026-04-24T12:30:09.647Z</time></trkpt><trkpt lat="43.8478503" lon="11.3349516"><ele>391.0</ele><time>2026-04-24T12:30:12.647Z</time></trkpt><trkpt lat="43.8479366" lon="11.3349633"><ele>392.50000000000006</ele><time>2026-04-24T12:30:14.647Z</time></trkpt><trkpt lat="43.8480256" lon="11.3349645"><ele>394.0</ele><time>2026-04-24T12:30:16.646Z</time></trkpt><trkpt lat="43.84809" lon="11.3349532"><ele>394.0</ele><time>2026-04-24T12:30:20.647Z</time></trkpt><trkpt lat="43.8481673" lon="11.3349494"><ele>394.0</ele><time>2026-04-24T12:30:24.647Z</time></trkpt><trkpt lat="43.8482261" lon="11.334991"><ele>394.0</ele><time>2026-04-24T12:30:26.647Z</time></trkpt><trkpt lat="43.848323" lon="11.335072"><ele>394.0</ele><time>2026-04-24T12:30:28.647Z</time></trkpt><trkpt lat="43.8484223" lon="11.3350943"><ele>394.0</ele><time>2026-04-24T12:30:31.647Z</time></trkpt><trkpt lat="43.8485172" lon="11.3351227"><ele>394.0</ele><time>2026-04-24T12:30:33.647Z</time></trkpt><trkpt lat="43.8486109" lon="11.3351435"><ele>394.0</ele><time>2026-04-24T12:30:35.647Z</time></trkpt><trkpt lat="43.8487553" lon="11.3351521"><ele>394.0</ele><time>2026-04-24T12:30:37.647Z</time></trkpt><trkpt lat="43.8488594" lon="11.335175"><ele>394.0</ele><time>2026-04-24T12:30:39.647Z</time></trkpt><trkpt lat="43.8489532" lon="11.3351949"><ele>394.0</ele><time>2026-04-24T12:30:41.647Z</time></trkpt><trkpt lat="43.8490288" lon="11.3352221"><ele>394.0</ele><time>2026-04-24T12:30:42.647Z</time></trkpt><trkpt lat="43.8491225" lon="11.3352662"><ele>394.0</ele><time>2026-04-24T12:30:44.646Z</time></trkpt><trkpt lat="43.8492632" lon="11.3351764"><ele>394.0</ele><time>2026-04-24T12:30:46.645Z</time></trkpt><trkpt lat="43.8493488" lon="11.3351266"><ele>394.0</ele><time>2026-04-24T12:30:47.646Z</time></trkpt><trkpt lat="43.8494185" lon="11.335061"><ele>394.0</ele><time>2026-04-24T12:30:48.647Z</time></trkpt><trkpt lat="43.8495162" lon="11.3350146"><ele>395.6666666666667</ele><time>2026-04-24T12:30:49.647Z</time></trkpt><trkpt lat="43.8496358" lon="11.3349764"><ele>397.33333333333337</ele><time>2026-04-24T12:30:50.647Z</time></trkpt><trkpt lat="43.8497244" lon="11.334958"><ele>399.0</ele><time>2026-04-24T12:30:51.647Z</time></trkpt><trkpt lat="43.8498166" lon="11.3349462"><ele>400.66666666666663</ele><time>2026-04-24T12:30:52.647Z</time></trkpt><trkpt lat="43.8498891" lon="11.3349439"><ele>402.3333333333333</ele><time>2026-04-24T12:30:53.647Z</time></trkpt><trkpt lat="43.8499562" lon="11.33496"><ele>404.0</ele><time>2026-04-24T12:30:54.647Z</time></trkpt><trkpt lat="43.8500243" lon="11.3349954"><ele>403.99999999999994</ele><time>2026-04-24T12:30:55.647Z</time></trkpt><trkpt lat="43.8501146" lon="11.3350286"><ele>404.0</ele><time>2026-04-24T12:30:56.647Z</time></trkpt><trkpt lat="43.8501881" lon="11.3350453"><ele>404.0</ele><time>2026-04-24T12:30:57.647Z</time></trkpt><trkpt lat="43.8502551" lon="11.335055"><ele>404.0</ele><time>2026-04-24T12:30:58.647Z</time></trkpt><trkpt lat="43.850362" lon="11.3350131"><ele>403.99999999999994</ele><time>2026-04-24T12:31:00.646Z</time></trkpt><trkpt lat="43.8504277" lon="11.3349711"><ele>404.0</ele><time>2026-04-24T12:31:01.647Z</time></trkpt><trkpt lat="43.8505424" lon="11.3348475"><ele>405.75</ele><time>2026-04-24T12:31:02.646Z</time></trkpt><trkpt lat="43.850623" lon="11.3347559"><ele>407.5</ele><time>2026-04-24T12:31:03.646Z</time></trkpt><trkpt lat="43.85071" lon="11.3346538"><ele>409.25</ele><time>2026-04-24T12:31:04.647Z</time></trkpt><trkpt lat="43.8508492" lon="11.3345812"><ele>411.0</ele><time>2026-04-24T12:31:05.646Z</time></trkpt><trkpt lat="43.8509418" lon="11.3344957"><ele>409.0</ele><time>2026-04-24T12:31:06.646Z</time></trkpt><trkpt lat="43.8510444" lon="11.3344121"><ele>407.0</ele><time>2026-04-24T12:31:07.646Z</time></trkpt><trkpt lat="43.8511408" lon="11.3343334"><ele>405.0</ele><time>2026-04-24T12:31:08.646Z</time></trkpt><trkpt lat="43.8512578" lon="11.3342903"><ele>403.0</ele><time>2026-04-24T12:31:09.646Z</time></trkpt><trkpt lat="43.8513708" lon="11.3342511"><ele>403.0</ele><time>2026-04-24T12:31:10.646Z</time></trkpt><trkpt lat="43.8514837" lon="11.3342205"><ele>403.0</ele><time>2026-04-24T12:31:11.647Z</time></trkpt><trkpt lat="43.8515765" lon="11.3342002"><ele>403.0</ele><time>2026-04-24T12:31:12.646Z</time></trkpt><trkpt lat="43.8516911" lon="11.3342329"><ele>403.0</ele><time>2026-04-24T12:31:14.647Z</time></trkpt><trkpt lat="43.8517472" lon="11.3343334"><ele>403.0</ele><time>2026-04-24T12:31:15.647Z</time></trkpt><trkpt lat="43.851805" lon="11.3344526"><ele>402.2</ele><time>2026-04-24T12:31:16.647Z</time></trkpt><trkpt lat="43.8518694" lon="11.3345781"><ele>401.4</ele><time>2026-04-24T12:31:17.646Z</time></trkpt><trkpt lat="43.8519409" lon="11.3347027"><ele>400.59999999999997</ele><time>2026-04-24T12:31:18.647Z</time></trkpt><trkpt lat="43.8520124" lon="11.3348049"><ele>399.79999999999995</ele><time>2026-04-24T12:31:19.647Z</time></trkpt><trkpt lat="43.8520981" lon="11.3348772"><ele>399.0</ele><time>2026-04-24T12:31:20.647Z</time></trkpt><trkpt lat="43.8521728" lon="11.3348948"><ele>401.75</ele><time>2026-04-24T12:31:21.647Z</time></trkpt><trkpt lat="43.8522587" lon="11.3349041"><ele>404.5</ele><time>2026-04-24T12:31:22.647Z</time></trkpt><trkpt lat="43.8523837" lon="11.3348538"><ele>407.25</ele><time>2026-04-24T12:31:23.646Z</time></trkpt><trkpt lat="43.8524914" lon="11.3347912"><ele>410.0</ele><time>2026-04-24T12:31:24.647Z</time></trkpt><trkpt lat="43.8526227" lon="11.3347287"><ele>408.4</ele><time>2026-04-24T12:31:25.647Z</time></trkpt><trkpt lat="43.8527266" lon="11.3346727"><ele>406.8</ele><time>2026-04-24T12:31:26.647Z</time></trkpt><trkpt lat="43.8528059" lon="11.3346286"><ele>405.20000000000005</ele><time>2026-04-24T12:31:27.647Z</time></trkpt><trkpt lat="43.8529148" lon="11.3346281"><ele>403.6</ele><time>2026-04-24T12:31:29.646Z</time></trkpt><trkpt lat="43.8529677" lon="11.3346933"><ele>402.0</ele><time>2026-04-24T12:31:30.646Z</time></trkpt><trkpt lat="43.8530254" lon="11.3348065"><ele>402.0</ele><time>2026-04-24T12:31:31.647Z</time></trkpt><trkpt lat="43.8530989" lon="11.3349359"><ele>402.0</ele><time>2026-04-24T12:31:32.647Z</time></trkpt><trkpt lat="43.8531741" lon="11.3350535"><ele>402.0</ele><time>2026-04-24T12:31:33.647Z</time></trkpt><trkpt lat="43.853256" lon="11.3351425"><ele>402.0</ele><time>2026-04-24T12:31:34.647Z</time></trkpt><trkpt lat="43.8533609" lon="11.335202"><ele>402.0</ele><time>2026-04-24T12:31:35.645Z</time></trkpt><trkpt lat="43.8534737" lon="11.3352576"><ele>401.40000000000003</ele><time>2026-04-24T12:31:36.647Z</time></trkpt><trkpt lat="43.8535682" lon="11.3353375"><ele>400.8</ele><time>2026-04-24T12:31:37.647Z</time></trkpt><trkpt lat="43.8536453" lon="11.3354466"><ele>400.2</ele><time>2026-04-24T12:31:38.647Z</time></trkpt><trkpt lat="43.8537117" lon="11.3355721"><ele>399.6</ele><time>2026-04-24T12:31:39.647Z</time></trkpt><trkpt lat="43.8537945" lon="11.3356728"><ele>399.0</ele><time>2026-04-24T12:31:40.647Z</time></trkpt><trkpt lat="43.8538943" lon="11.3357587"><ele>400.4</ele><time>2026-04-24T12:31:41.646Z</time></trkpt><trkpt lat="43.8539995" lon="11.335839"><ele>401.79999999999995</ele><time>2026-04-24T12:31:42.647Z</time></trkpt><trkpt lat="43.8540932" lon="11.335909"><ele>403.20000000000005</ele><time>2026-04-24T12:31:43.647Z</time></trkpt><trkpt lat="43.8541628" lon="11.3359524"><ele>404.6</ele><time>2026-04-24T12:31:44.646Z</time></trkpt><trkpt lat="43.8542229" lon="11.3359942"><ele>406.0</ele><time>2026-04-24T12:31:45.647Z</time></trkpt><trkpt lat="43.8543282" lon="11.3360807"><ele>406.0</ele><time>2026-04-24T12:31:47.646Z</time></trkpt><trkpt lat="43.8543895" lon="11.3361274"><ele>406.0</ele><time>2026-04-24T12:31:48.647Z</time></trkpt><trkpt lat="43.8544496" lon="11.3361534"><ele>406.0</ele><time>2026-04-24T12:31:49.647Z</time></trkpt><trkpt lat="43.85453" lon="11.3361496"><ele>406.0</ele><time>2026-04-24T12:31:50.646Z</time></trkpt><trkpt lat="43.8546014" lon="11.3361182"><ele>406.0</ele><time>2026-04-24T12:31:51.646Z</time></trkpt><trkpt lat="43.8546744" lon="11.3360746"><ele>406.0</ele><time>2026-04-24T12:31:52.647Z</time></trkpt><trkpt lat="43.854745" lon="11.3360277"><ele>406.0</ele><time>2026-04-24T12:31:53.647Z</time></trkpt><trkpt lat="43.8548155" lon="11.3359555"><ele>406.0</ele><time>2026-04-24T12:31:54.647Z</time></trkpt><trkpt lat="43.8548869" lon="11.3358749"><ele>406.0</ele><time>2026-04-24T12:31:55.647Z</time></trkpt><trkpt lat="43.8549647" lon="11.3357929"><ele>406.0</ele><time>2026-04-24T12:31:56.647Z</time></trkpt><trkpt lat="43.8550459" lon="11.3357077"><ele>406.0</ele><time>2026-04-24T12:31:57.647Z</time></trkpt><trkpt lat="43.8551262" lon="11.3356153"><ele>406.0</ele><time>2026-04-24T12:31:58.647Z</time></trkpt><trkpt lat="43.8552083" lon="11.3355116"><ele>403.25</ele><time>2026-04-24T12:31:59.647Z</time></trkpt><trkpt lat="43.855291" lon="11.3354038"><ele>400.5</ele><time>2026-04-24T12:32:00.647Z</time></trkpt><trkpt lat="43.8553791" lon="11.3352791"><ele>397.75</ele><time>2026-04-24T12:32:01.647Z</time></trkpt><trkpt lat="43.8554608" lon="11.3351444"><ele>395.0</ele><time>2026-04-24T12:32:02.647Z</time></trkpt><trkpt lat="43.8555351" lon="11.3350134"><ele>395.0</ele><time>2026-04-24T12:32:03.647Z</time></trkpt><trkpt lat="43.8556069" lon="11.3349134"><ele>395.0</ele><time>2026-04-24T12:32:04.647Z</time></trkpt><trkpt lat="43.8556901" lon="11.3348484"><ele>395.0</ele><time>2026-04-24T12:32:05.647Z</time></trkpt><trkpt lat="43.855773" lon="11.3348026"><ele>395.0</ele><time>2026-04-24T12:32:06.647Z</time></trkpt><trkpt lat="43.8558334" lon="11.3347556"><ele>395.0</ele><time>2026-04-24T12:32:07.647Z</time></trkpt><trkpt lat="43.8558859" lon="11.3346075"><ele>393.99999999999994</ele><time>2026-04-24T12:32:09.647Z</time></trkpt><trkpt lat="43.8558762" lon="11.3345101"><ele>393.0</ele><time>2026-04-24T12:32:10.647Z</time></trkpt><trkpt lat="43.8558816" lon="11.3344172"><ele>392.0</ele><time>2026-04-24T12:32:11.646Z</time></trkpt><trkpt lat="43.8559617" lon="11.3344827"><ele>391.0</ele><time>2026-04-24T12:32:14.647Z</time></trkpt><trkpt lat="43.8559913" lon="11.3345599"><ele>389.99999999999994</ele><time>2026-04-24T12:32:15.647Z</time></trkpt><trkpt lat="43.8560292" lon="11.3346719"><ele>389.0</ele><time>2026-04-24T12:32:16.647Z</time></trkpt><trkpt lat="43.8560776" lon="11.334783"><ele>391.79999999999995</ele><time>2026-04-24T12:32:17.646Z</time></trkpt><trkpt lat="43.8561261" lon="11.3348984"><ele>394.59999999999997</ele><time>2026-04-24T12:32:18.647Z</time></trkpt><trkpt lat="43.8561811" lon="11.3350215"><ele>397.4</ele><time>2026-04-24T12:32:19.647Z</time></trkpt><trkpt lat="43.8562353" lon="11.3351394"><ele>400.2</ele><time>2026-04-24T12:32:20.647Z</time></trkpt><trkpt lat="43.8562952" lon="11.3352551"><ele>403.0</ele><time>2026-04-24T12:32:21.647Z</time></trkpt><trkpt lat="43.8563609" lon="11.3353558"><ele>403.0</ele><time>2026-04-24T12:32:22.646Z</time></trkpt><trkpt lat="43.8564394" lon="11.3354446"><ele>403.0</ele><time>2026-04-24T12:32:23.647Z</time></trkpt><trkpt lat="43.8565273" lon="11.3355185"><ele>403.0</ele><time>2026-04-24T12:32:24.647Z</time></trkpt><trkpt lat="43.8566167" lon="11.3355685"><ele>403.0</ele><time>2026-04-24T12:32:25.647Z</time></trkpt><trkpt lat="43.8567109" lon="11.3355809"><ele>403.0</ele><time>2026-04-24T12:32:26.647Z</time></trkpt><trkpt lat="43.8567967" lon="11.3355275"><ele>405.2</ele><time>2026-04-24T12:32:27.647Z</time></trkpt><trkpt lat="43.8568621" lon="11.3354255"><ele>407.4</ele><time>2026-04-24T12:32:28.647Z</time></trkpt><trkpt lat="43.8568958" lon="11.3352872"><ele>409.59999999999997</ele><time>2026-04-24T12:32:29.647Z</time></trkpt><trkpt lat="43.856907" lon="11.3351425"><ele>411.79999999999995</ele><time>2026-04-24T12:32:30.647Z</time></trkpt><trkpt lat="43.8569178" lon="11.3350006"><ele>414.0</ele><time>2026-04-24T12:32:31.647Z</time></trkpt><trkpt lat="43.8569449" lon="11.334865"><ele>414.0</ele><time>2026-04-24T12:32:32.647Z</time></trkpt><trkpt lat="43.8569808" lon="11.3347323"><ele>414.0</ele><time>2026-04-24T12:32:33.646Z</time></trkpt><trkpt lat="43.857031" lon="11.3346087"><ele>414.0</ele><time>2026-04-24T12:32:34.647Z</time></trkpt><trkpt lat="43.8571058" lon="11.334488"><ele>414.0</ele><time>2026-04-24T12:32:35.647Z</time></trkpt><trkpt lat="43.8571913" lon="11.3344028"><ele>414.0</ele><time>2026-04-24T12:32:36.647Z</time></trkpt><trkpt lat="43.8572864" lon="11.3343546"><ele>413.79999999999995</ele><time>2026-04-24T12:32:37.646Z</time></trkpt><trkpt lat="43.8573884" lon="11.3343559"><ele>413.59999999999997</ele><time>2026-04-24T12:32:38.647Z</time></trkpt><trkpt lat="43.8574923" lon="11.3343845"><ele>413.4</ele><time>2026-04-24T12:32:39.647Z</time></trkpt><trkpt lat="43.8575997" lon="11.3344183"><ele>413.2</ele><time>2026-04-24T12:32:40.647Z</time></trkpt><trkpt lat="43.8577107" lon="11.3344496"><ele>413.0</ele><time>2026-04-24T12:32:41.647Z</time></trkpt><trkpt lat="43.8578236" lon="11.3344709"><ele>413.0</ele><time>2026-04-24T12:32:42.647Z</time></trkpt><trkpt lat="43.857937" lon="11.3344872"><ele>413.0</ele><time>2026-04-24T12:32:43.646Z</time></trkpt><trkpt lat="43.8580549" lon="11.3344843"><ele>413.0</ele><time>2026-04-24T12:32:44.647Z</time></trkpt><trkpt lat="43.8581707" lon="11.3344772"><ele>413.0</ele><time>2026-04-24T12:32:45.647Z</time></trkpt><trkpt lat="43.8582767" lon="11.3344751"><ele>413.0</ele><time>2026-04-24T12:32:46.647Z</time></trkpt><trkpt lat="43.8583849" lon="11.3344814"><ele>413.0</ele><time>2026-04-24T12:32:47.647Z</time></trkpt><trkpt lat="43.8584907" lon="11.3345111"><ele>413.0</ele><time>2026-04-24T12:32:48.647Z</time></trkpt><trkpt lat="43.858587" lon="11.3345598"><ele>413.0</ele><time>2026-04-24T12:32:49.647Z</time></trkpt><trkpt lat="43.8586623" lon="11.3346808"><ele>413.0</ele><time>2026-04-24T12:32:50.647Z</time></trkpt><trkpt lat="43.8587122" lon="11.3348241"><ele>417.0</ele><time>2026-04-24T12:32:51.647Z</time></trkpt><trkpt lat="43.8587291" lon="11.3349817"><ele>421.0</ele><time>2026-04-24T12:32:52.647Z</time></trkpt><trkpt lat="43.8587098" lon="11.3351358"><ele>425.0</ele><time>2026-04-24T12:32:53.647Z</time></trkpt><trkpt lat="43.8586516" lon="11.3352886"><ele>429.0</ele><time>2026-04-24T12:32:54.646Z</time></trkpt><trkpt lat="43.8585838" lon="11.3354271"><ele>428.75</ele><time>2026-04-24T12:32:55.646Z</time></trkpt><trkpt lat="43.8585066" lon="11.3355542"><ele>428.5</ele><time>2026-04-24T12:32:56.647Z</time></trkpt><trkpt lat="43.8584147" lon="11.3356755"><ele>428.25</ele><time>2026-04-24T12:32:57.646Z</time></trkpt><trkpt lat="43.8583271" lon="11.3358015"><ele>428.0</ele><time>2026-04-24T12:32:58.647Z</time></trkpt><trkpt lat="43.8582555" lon="11.3359396"><ele>428.0</ele><time>2026-04-24T12:32:59.646Z</time></trkpt><trkpt lat="43.8581879" lon="11.3360589"><ele>427.99999999999994</ele><time>2026-04-24T12:33:00.647Z</time></trkpt><trkpt lat="43.8581764" lon="11.3361899"><ele>427.99999999999994</ele><time>2026-04-24T12:33:01.647Z</time></trkpt><trkpt lat="43.8581474" lon="11.3363018"><ele>428.0</ele><time>2026-04-24T12:33:02.647Z</time></trkpt><trkpt lat="43.8581321" lon="11.3364223"><ele>428.0</ele><time>2026-04-24T12:33:03.646Z</time></trkpt><trkpt lat="43.8581493" lon="11.3365317"><ele>429.79999999999995</ele><time>2026-04-24T12:33:04.645Z</time></trkpt><trkpt lat="43.858196" lon="11.3366397"><ele>431.59999999999997</ele><time>2026-04-24T12:33:05.646Z</time></trkpt><trkpt lat="43.8582454" lon="11.3367612"><ele>433.40000000000003</ele><time>2026-04-24T12:33:06.646Z</time></trkpt><trkpt lat="43.8583096" lon="11.336878"><ele>435.20000000000005</ele><time>2026-04-24T12:33:07.647Z</time></trkpt><trkpt lat="43.8583798" lon="11.3369842"><ele>437.0</ele><time>2026-04-24T12:33:08.646Z</time></trkpt><trkpt lat="43.8584444" lon="11.3370765"><ele>438.8333333333333</ele><time>2026-04-24T12:33:09.647Z</time></trkpt><trkpt lat="43.8585062" lon="11.3371567"><ele>440.66666666666663</ele><time>2026-04-24T12:33:10.647Z</time></trkpt><trkpt lat="43.8585694" lon="11.3372353"><ele>442.5</ele><time>2026-04-24T12:33:11.647Z</time></trkpt><trkpt lat="43.8586333" lon="11.3373071"><ele>444.33333333333337</ele><time>2026-04-24T12:33:12.647Z</time></trkpt><trkpt lat="43.8586981" lon="11.3373757"><ele>446.1666666666667</ele><time>2026-04-24T12:33:13.647Z</time></trkpt><trkpt lat="43.8587653" lon="11.3374281"><ele>448.0</ele><time>2026-04-24T12:33:14.647Z</time></trkpt><trkpt lat="43.8588349" lon="11.3374932"><ele>449.0</ele><time>2026-04-24T12:33:15.647Z</time></trkpt><trkpt lat="43.8589083" lon="11.3375545"><ele>449.99999999999994</ele><time>2026-04-24T12:33:16.646Z</time></trkpt><trkpt lat="43.8589951" lon="11.337602"><ele>450.99999999999994</ele><time>2026-04-24T12:33:17.647Z</time></trkpt><trkpt lat="43.8590807" lon="11.3376637"><ele>452.0</ele><time>2026-04-24T12:33:18.647Z</time></trkpt><trkpt lat="43.8591705" lon="11.3377203"><ele>453.0</ele><time>2026-04-24T12:33:19.646Z</time></trkpt><trkpt lat="43.8592713" lon="11.3377735"><ele>454.4</ele><time>2026-04-24T12:33:20.647Z</time></trkpt><trkpt lat="43.8593692" lon="11.3378294"><ele>455.79999999999995</ele><time>2026-04-24T12:33:21.647Z</time></trkpt><trkpt lat="43.8594638" lon="11.3378797"><ele>457.2</ele><time>2026-04-24T12:33:22.646Z</time></trkpt><trkpt lat="43.8595508" lon="11.3379252"><ele>458.6</ele><time>2026-04-24T12:33:23.647Z</time></trkpt><trkpt lat="43.8596447" lon="11.3379928"><ele>460.0</ele><time>2026-04-24T12:33:24.647Z</time></trkpt><trkpt lat="43.8597524" lon="11.3380614"><ele>461.5</ele><time>2026-04-24T12:33:25.647Z</time></trkpt><trkpt lat="43.8598661" lon="11.33816"><ele>463.0</ele><time>2026-04-24T12:33:26.647Z</time></trkpt><trkpt lat="43.8599623" lon="11.3382497"><ele>464.5</ele><time>2026-04-24T12:33:27.646Z</time></trkpt><trkpt lat="43.8600737" lon="11.338315"><ele>466.0</ele><time>2026-04-24T12:33:28.647Z</time></trkpt><trkpt lat="43.8601855" lon="11.3384123"><ele>468.5</ele><time>2026-04-24T12:33:29.647Z</time></trkpt><trkpt lat="43.8602795" lon="11.338483"><ele>471.0</ele><time>2026-04-24T12:33:30.645Z</time></trkpt><trkpt lat="43.8603702" lon="11.3385734"><ele>473.5</ele><time>2026-04-24T12:33:31.646Z</time></trkpt><trkpt lat="43.8604856" lon="11.3386365"><ele>476.0</ele><time>2026-04-24T12:33:32.645Z</time></trkpt><trkpt lat="43.8605921" lon="11.3386994"><ele>476.0</ele><time>2026-04-24T12:33:33.647Z</time></trkpt><trkpt lat="43.8606916" lon="11.3387814"><ele>476.0</ele><time>2026-04-24T12:33:34.647Z</time></trkpt><trkpt lat="43.8608081" lon="11.3388538"><ele>476.0</ele><time>2026-04-24T12:33:35.647Z</time></trkpt><trkpt lat="43.8609304" lon="11.3389101"><ele>476.0</ele><time>2026-04-24T12:33:36.647Z</time></trkpt><trkpt lat="43.861076" lon="11.3389654"><ele>478.75</ele><time>2026-04-24T12:33:37.647Z</time></trkpt><trkpt lat="43.8611991" lon="11.3390443"><ele>481.5</ele><time>2026-04-24T12:33:38.647Z</time></trkpt><trkpt lat="43.8613336" lon="11.3391061"><ele>484.25</ele><time>2026-04-24T12:33:39.647Z</time></trkpt><trkpt lat="43.8614278" lon="11.3391034"><ele>487.0</ele><time>2026-04-24T12:33:40.646Z</time></trkpt><trkpt lat="43.8615343" lon="11.3391619"><ele>487.0</ele><time>2026-04-24T12:33:41.646Z</time></trkpt><trkpt lat="43.8616283" lon="11.3392351"><ele>487.00000000000006</ele><time>2026-04-24T12:33:42.647Z</time></trkpt><trkpt lat="43.8617325" lon="11.3393018"><ele>487.00000000000006</ele><time>2026-04-24T12:33:43.647Z</time></trkpt><trkpt lat="43.8618039" lon="11.3393668"><ele>487.0</ele><time>2026-04-24T12:33:44.647Z</time></trkpt><trkpt lat="43.861885" lon="11.3394871"><ele>487.0</ele><time>2026-04-24T12:33:45.647Z</time></trkpt><trkpt lat="43.8619828" lon="11.3395389"><ele>488.5</ele><time>2026-04-24T12:33:47.647Z</time></trkpt><trkpt lat="43.8620812" lon="11.3395731"><ele>490.0</ele><time>2026-04-24T12:33:49.647Z</time></trkpt><trkpt lat="43.8622003" lon="11.3396055"><ele>491.5</ele><time>2026-04-24T12:33:51.646Z</time></trkpt><trkpt lat="43.8623083" lon="11.3396174"><ele>493.0</ele><time>2026-04-24T12:33:52.646Z</time></trkpt><trkpt lat="43.8624441" lon="11.3396504"><ele>493.0</ele><time>2026-04-24T12:33:53.647Z</time></trkpt><trkpt lat="43.8625831" lon="11.3396766"><ele>493.0</ele><time>2026-04-24T12:33:54.647Z</time></trkpt><trkpt lat="43.8627499" lon="11.3396912"><ele>493.0</ele><time>2026-04-24T12:33:55.647Z</time></trkpt><trkpt lat="43.8629083" lon="11.3397346"><ele>495.2</ele><time>2026-04-24T12:33:56.647Z</time></trkpt><trkpt lat="43.8630361" lon="11.3397693"><ele>497.4</ele><time>2026-04-24T12:33:57.647Z</time></trkpt><trkpt lat="43.8631351" lon="11.3398058"><ele>499.59999999999997</ele><time>2026-04-24T12:33:58.646Z</time></trkpt><trkpt lat="43.8632166" lon="11.3398307"><ele>501.79999999999995</ele><time>2026-04-24T12:33:59.647Z</time></trkpt><trkpt lat="43.8632855" lon="11.3398103"><ele>504.0</ele><time>2026-04-24T12:34:00.647Z</time></trkpt><trkpt lat="43.8633385" lon="11.3397343"><ele>503.8333333333333</ele><time>2026-04-24T12:34:01.647Z</time></trkpt><trkpt lat="43.8633863" lon="11.3396609"><ele>503.66666666666663</ele><time>2026-04-24T12:34:02.647Z</time></trkpt><trkpt lat="43.863429" lon="11.3395514"><ele>503.5</ele><time>2026-04-24T12:34:03.647Z</time></trkpt><trkpt lat="43.8634705" lon="11.3394428"><ele>503.3333333333333</ele><time>2026-04-24T12:34:04.647Z</time></trkpt><trkpt lat="43.8635255" lon="11.3393224"><ele>503.16666666666663</ele><time>2026-04-24T12:34:05.646Z</time></trkpt><trkpt lat="43.8635663" lon="11.3392081"><ele>503.0</ele><time>2026-04-24T12:34:06.647Z</time></trkpt><trkpt lat="43.8636097" lon="11.3391007"><ele>502.99999999999994</ele><time>2026-04-24T12:34:07.647Z</time></trkpt><trkpt lat="43.8636567" lon="11.3389997"><ele>503.0</ele><time>2026-04-24T12:34:08.646Z</time></trkpt><trkpt lat="43.8636985" lon="11.3389123"><ele>503.0</ele><time>2026-04-24T12:34:09.646Z</time></trkpt><trkpt lat="43.8637385" lon="11.3388077"><ele>503.0</ele><time>2026-04-24T12:34:10.647Z</time></trkpt><trkpt lat="43.8637685" lon="11.3387014"><ele>502.99999999999994</ele><time>2026-04-24T12:34:11.647Z</time></trkpt><trkpt lat="43.8638152" lon="11.3386348"><ele>503.0</ele><time>2026-04-24T12:34:12.647Z</time></trkpt><trkpt lat="43.8638691" lon="11.3385704"><ele>503.0</ele><time>2026-04-24T12:34:13.646Z</time></trkpt><trkpt lat="43.8639324" lon="11.338463"><ele>503.0</ele><time>2026-04-24T12:34:40.646Z</time></trkpt><trkpt lat="43.8639658" lon="11.3381756"><ele>503.0</ele><time>2026-04-24T12:34:42.645Z</time></trkpt><trkpt lat="43.8639765" lon="11.3379679"><ele>501.5</ele><time>2026-04-24T12:34:43.647Z</time></trkpt><trkpt lat="43.863973" lon="11.3377991"><ele>500.0</ele><time>2026-04-24T12:34:44.646Z</time></trkpt><trkpt lat="43.8639775" lon="11.3376207"><ele>498.5</ele><time>2026-04-24T12:34:45.647Z</time></trkpt><trkpt lat="43.8639828" lon="11.3374562"><ele>497.0</ele><time>2026-04-24T12:34:46.646Z</time></trkpt><trkpt lat="43.8639884" lon="11.3373018"><ele>495.25</ele><time>2026-04-24T12:34:47.647Z</time></trkpt><trkpt lat="43.8640138" lon="11.3371379"><ele>493.5</ele><time>2026-04-24T12:34:48.646Z</time></trkpt><trkpt lat="43.8640177" lon="11.3369715"><ele>491.75</ele><time>2026-04-24T12:34:49.646Z</time></trkpt><trkpt lat="43.8640438" lon="11.336823"><ele>490.0</ele><time>2026-04-24T12:34:50.647Z</time></trkpt><trkpt lat="43.8640766" lon="11.336677"><ele>490.0</ele><time>2026-04-24T12:34:51.647Z</time></trkpt><trkpt lat="43.8640951" lon="11.3365286"><ele>490.0</ele><time>2026-04-24T12:34:52.647Z</time></trkpt><trkpt lat="43.8641263" lon="11.3363872"><ele>490.0</ele><time>2026-04-24T12:34:53.647Z</time></trkpt><trkpt lat="43.8641357" lon="11.3362485"><ele>490.0</ele><time>2026-04-24T12:34:54.646Z</time></trkpt><trkpt lat="43.8641498" lon="11.336101"><ele>490.0</ele><time>2026-04-24T12:34:55.647Z</time></trkpt><trkpt lat="43.8641434" lon="11.3359271"><ele>490.25</ele><time>2026-04-24T12:34:56.647Z</time></trkpt><trkpt lat="43.8641471" lon="11.3357665"><ele>490.5</ele><time>2026-04-24T12:34:57.647Z</time></trkpt><trkpt lat="43.8641401" lon="11.3356063"><ele>490.75</ele><time>2026-04-24T12:34:58.646Z</time></trkpt><trkpt lat="43.8641404" lon="11.3354529"><ele>491.0</ele><time>2026-04-24T12:34:59.647Z</time></trkpt><trkpt lat="43.8641587" lon="11.3352873"><ele>491.0</ele><time>2026-04-24T12:35:00.647Z</time></trkpt><trkpt lat="43.8641784" lon="11.3351461"><ele>491.0</ele><time>2026-04-24T12:35:01.647Z</time></trkpt><trkpt lat="43.8641774" lon="11.3349964"><ele>491.0</ele><time>2026-04-24T12:35:02.646Z</time></trkpt><trkpt lat="43.8641492" lon="11.3348479"><ele>491.0</ele><time>2026-04-24T12:35:03.647Z</time></trkpt><trkpt lat="43.8641138" lon="11.3346851"><ele>491.0</ele><time>2026-04-24T12:35:04.647Z</time></trkpt><trkpt lat="43.8640542" lon="11.3345433"><ele>492.25</ele><time>2026-04-24T12:35:05.647Z</time></trkpt><trkpt lat="43.8639715" lon="11.3344118"><ele>493.5</ele><time>2026-04-24T12:35:06.645Z</time></trkpt><trkpt lat="43.8638972" lon="11.334296"><ele>494.75</ele><time>2026-04-24T12:35:07.647Z</time></trkpt><trkpt lat="43.8637998" lon="11.3342114"><ele>496.0</ele><time>2026-04-24T12:35:08.647Z</time></trkpt><trkpt lat="43.8637068" lon="11.3341178"><ele>496.0</ele><time>2026-04-24T12:35:09.647Z</time></trkpt><trkpt lat="43.8636263" lon="11.3339922"><ele>496.0</ele><time>2026-04-24T12:35:10.647Z</time></trkpt><trkpt lat="43.8635713" lon="11.3338589"><ele>496.0</ele><time>2026-04-24T12:35:11.647Z</time></trkpt><trkpt lat="43.8635203" lon="11.3337303"><ele>496.0</ele><time>2026-04-24T12:35:12.647Z</time></trkpt><trkpt lat="43.8634613" lon="11.3336277"><ele>496.0</ele><time>2026-04-24T12:35:13.647Z</time></trkpt><trkpt lat="43.8634063" lon="11.3335418"><ele>497.0</ele><time>2026-04-24T12:35:14.647Z</time></trkpt><trkpt lat="43.8633503" lon="11.3334547"><ele>498.0</ele><time>2026-04-24T12:35:15.646Z</time></trkpt><trkpt lat="43.8633276" lon="11.3333009"><ele>499.0</ele><time>2026-04-24T12:35:17.646Z</time></trkpt><trkpt lat="43.8633738" lon="11.3332009"><ele>500.0</ele><time>2026-04-24T12:35:19.646Z</time></trkpt><trkpt lat="43.8634445" lon="11.3332441"><ele>501.0</ele><time>2026-04-24T12:35:20.647Z</time></trkpt><trkpt lat="43.8635497" lon="11.3332552"><ele>501.0</ele><time>2026-04-24T12:35:22.647Z</time></trkpt><trkpt lat="43.8636138" lon="11.3332849"><ele>501.0</ele><time>2026-04-24T12:35:24.647Z</time></trkpt><trkpt lat="43.8636988" lon="11.3332879"><ele>501.0</ele><time>2026-04-24T12:35:32.647Z</time></trkpt><trkpt lat="43.8638369" lon="11.3333106"><ele>501.0</ele><time>2026-04-24T12:35:34.647Z</time></trkpt><trkpt lat="43.8639242" lon="11.3333272"><ele>501.0</ele><time>2026-04-24T12:35:35.647Z</time></trkpt><trkpt lat="43.8640263" lon="11.3333211"><ele>501.0</ele><time>2026-04-24T12:35:36.647Z</time></trkpt><trkpt lat="43.8641263" lon="11.3333517"><ele>501.0</ele><time>2026-04-24T12:35:37.647Z</time></trkpt><trkpt lat="43.8642231" lon="11.3333681"><ele>501.0</ele><time>2026-04-24T12:35:38.646Z</time></trkpt><trkpt lat="43.8643108" lon="11.3334046"><ele>501.0</ele><time>2026-04-24T12:35:39.647Z</time></trkpt><trkpt lat="43.8643999" lon="11.3334166"><ele>501.0</ele><time>2026-04-24T12:35:40.647Z</time></trkpt><trkpt lat="43.8644954" lon="11.3334331"><ele>502.1666666666667</ele><time>2026-04-24T12:35:41.647Z</time></trkpt><trkpt lat="43.8645582" lon="11.333415"><ele>503.33333333333337</ele><time>2026-04-24T12:35:42.645Z</time></trkpt><trkpt lat="43.8646257" lon="11.3334077"><ele>504.5</ele><time>2026-04-24T12:35:43.647Z</time></trkpt><trkpt lat="43.8647036" lon="11.3333785"><ele>505.6666666666667</ele><time>2026-04-24T12:35:45.646Z</time></trkpt><trkpt lat="43.8647891" lon="11.3333118"><ele>506.83333333333337</ele><time>2026-04-24T12:35:47.646Z</time></trkpt><trkpt lat="43.8648488" lon="11.3332695"><ele>508.0</ele><time>2026-04-24T12:35:48.647Z</time></trkpt><trkpt lat="43.8649378" lon="11.3332404"><ele>508.0</ele><time>2026-04-24T12:35:49.646Z</time></trkpt><trkpt lat="43.8650425" lon="11.3332239"><ele>507.99999999999994</ele><time>2026-04-24T12:35:50.645Z</time></trkpt><trkpt lat="43.8651381" lon="11.3331958"><ele>507.99999999999994</ele><time>2026-04-24T12:35:51.647Z</time></trkpt><trkpt lat="43.8652339" lon="11.3331889"><ele>508.0</ele><time>2026-04-24T12:35:52.646Z</time></trkpt><trkpt lat="43.8653289" lon="11.3331768"><ele>508.0</ele><time>2026-04-24T12:35:53.647Z</time></trkpt><trkpt lat="43.8654326" lon="11.3331654"><ele>509.2</ele><time>2026-04-24T12:35:54.647Z</time></trkpt><trkpt lat="43.8655398" lon="11.3331574"><ele>510.4</ele><time>2026-04-24T12:35:55.647Z</time></trkpt><trkpt lat="43.8656451" lon="11.3331496"><ele>511.59999999999997</ele><time>2026-04-24T12:35:56.647Z</time></trkpt><trkpt lat="43.8657535" lon="11.3331422"><ele>512.8</ele><time>2026-04-24T12:35:57.647Z</time></trkpt><trkpt lat="43.8658618" lon="11.3331512"><ele>514.0</ele><time>2026-04-24T12:35:58.647Z</time></trkpt><trkpt lat="43.8659657" lon="11.3331877"><ele>514.0</ele><time>2026-04-24T12:35:59.647Z</time></trkpt><trkpt lat="43.8660654" lon="11.3332413"><ele>514.0</ele><time>2026-04-24T12:36:00.647Z</time></trkpt><trkpt lat="43.8661635" lon="11.3332946"><ele>514.0</ele><time>2026-04-24T12:36:01.646Z</time></trkpt><trkpt lat="43.8662677" lon="11.3333461"><ele>514.0</ele><time>2026-04-24T12:36:02.646Z</time></trkpt><trkpt lat="43.8663734" lon="11.3334032"><ele>514.0</ele><time>2026-04-24T12:36:03.646Z</time></trkpt><trkpt lat="43.8664832" lon="11.3334576"><ele>514.0</ele><time>2026-04-24T12:36:04.646Z</time></trkpt><trkpt lat="43.8665938" lon="11.3335165"><ele>514.0</ele><time>2026-04-24T12:36:05.646Z</time></trkpt><trkpt lat="43.8667075" lon="11.3335746"><ele>514.0</ele><time>2026-04-24T12:36:06.647Z</time></trkpt><trkpt lat="43.8668216" lon="11.3336256"><ele>514.0</ele><time>2026-04-24T12:36:07.647Z</time></trkpt><trkpt lat="43.8669348" lon="11.3336746"><ele>512.25</ele><time>2026-04-24T12:36:08.647Z</time></trkpt><trkpt lat="43.867052" lon="11.3337199"><ele>510.5</ele><time>2026-04-24T12:36:09.646Z</time></trkpt><trkpt lat="43.8671681" lon="11.3337531"><ele>508.75</ele><time>2026-04-24T12:36:10.647Z</time></trkpt><trkpt lat="43.8672859" lon="11.3337916"><ele>507.0</ele><time>2026-04-24T12:36:11.647Z</time></trkpt><trkpt lat="43.8674033" lon="11.3338299"><ele>507.0</ele><time>2026-04-24T12:36:12.646Z</time></trkpt><trkpt lat="43.8675153" lon="11.3338665"><ele>507.0</ele><time>2026-04-24T12:36:13.646Z</time></trkpt><trkpt lat="43.8676291" lon="11.3338943"><ele>507.0</ele><time>2026-04-24T12:36:14.647Z</time></trkpt><trkpt lat="43.8677475" lon="11.3339143"><ele>507.0</ele><time>2026-04-24T12:36:15.647Z</time></trkpt><trkpt lat="43.8678674" lon="11.3339291"><ele>511.0</ele><time>2026-04-24T12:36:16.647Z</time></trkpt><trkpt lat="43.8679874" lon="11.3339454"><ele>515.0</ele><time>2026-04-24T12:36:17.647Z</time></trkpt><trkpt lat="43.8681086" lon="11.3339639"><ele>519.0</ele><time>2026-04-24T12:36:18.647Z</time></trkpt><trkpt lat="43.8682342" lon="11.3339817"><ele>523.0</ele><time>2026-04-24T12:36:19.647Z</time></trkpt><trkpt lat="43.868362" lon="11.3339831"><ele>522.75</ele><time>2026-04-24T12:36:20.647Z</time></trkpt><trkpt lat="43.8684886" lon="11.3339625"><ele>522.5</ele><time>2026-04-24T12:36:21.647Z</time></trkpt><trkpt lat="43.8686097" lon="11.3339071"><ele>522.25</ele><time>2026-04-24T12:36:22.647Z</time></trkpt><trkpt lat="43.8687197" lon="11.3338185"><ele>522.0</ele><time>2026-04-24T12:36:23.647Z</time></trkpt><trkpt lat="43.8688231" lon="11.3337061"><ele>522.0</ele><time>2026-04-24T12:36:24.647Z</time></trkpt><trkpt lat="43.8689222" lon="11.3336013"><ele>522.0</ele><time>2026-04-24T12:36:25.646Z</time></trkpt><trkpt lat="43.8690242" lon="11.3335273"><ele>522.0</ele><time>2026-04-24T12:36:26.647Z</time></trkpt><trkpt lat="43.8691418" lon="11.3334623"><ele>522.0</ele><time>2026-04-24T12:36:27.646Z</time></trkpt><trkpt lat="43.8692303" lon="11.3335571"><ele>523.0</ele><time>2026-04-24T12:36:28.646Z</time></trkpt><trkpt lat="43.8693322" lon="11.3336416"><ele>524.0</ele><time>2026-04-24T12:36:29.647Z</time></trkpt><trkpt lat="43.8694152" lon="11.3337488"><ele>525.0</ele><time>2026-04-24T12:36:30.646Z</time></trkpt><trkpt lat="43.8695117" lon="11.3338423"><ele>526.0</ele><time>2026-04-24T12:36:31.647Z</time></trkpt><trkpt lat="43.8696139" lon="11.3339191"><ele>528.75</ele><time>2026-04-24T12:36:32.647Z</time></trkpt><trkpt lat="43.8697231" lon="11.3339732"><ele>531.5</ele><time>2026-04-24T12:36:33.647Z</time></trkpt><trkpt lat="43.8698336" lon="11.334011"><ele>534.25</ele><time>2026-04-24T12:36:34.647Z</time></trkpt><trkpt lat="43.8699486" lon="11.3340456"><ele>537.0</ele><time>2026-04-24T12:36:35.647Z</time></trkpt><trkpt lat="43.8700604" lon="11.3340737"><ele>538.6</ele><time>2026-04-24T12:36:36.646Z</time></trkpt><trkpt lat="43.8701707" lon="11.3341072"><ele>540.2</ele><time>2026-04-24T12:36:37.647Z</time></trkpt><trkpt lat="43.8702778" lon="11.3341317"><ele>541.8</ele><time>2026-04-24T12:36:38.647Z</time></trkpt><trkpt lat="43.8703899" lon="11.3341466"><ele>543.4</ele><time>2026-04-24T12:36:39.647Z</time></trkpt><trkpt lat="43.8705025" lon="11.3341285"><ele>545.0</ele><time>2026-04-24T12:36:40.646Z</time></trkpt><trkpt lat="43.8706111" lon="11.3340517"><ele>545.0</ele><time>2026-04-24T12:36:41.647Z</time></trkpt><trkpt lat="43.8707007" lon="11.3339471"><ele>545.0</ele><time>2026-04-24T12:36:42.647Z</time></trkpt><trkpt lat="43.8707757" lon="11.3338193"><ele>545.0</ele><time>2026-04-24T12:36:43.647Z</time></trkpt><trkpt lat="43.8708308" lon="11.3336769"><ele>545.0</ele><time>2026-04-24T12:36:44.647Z</time></trkpt><trkpt lat="43.8708734" lon="11.3335239"><ele>544.0</ele><time>2026-04-24T12:36:45.647Z</time></trkpt><trkpt lat="43.8709033" lon="11.3333689"><ele>543.0</ele><time>2026-04-24T12:36:46.647Z</time></trkpt><trkpt lat="43.8709342" lon="11.3332197"><ele>542.0</ele><time>2026-04-24T12:36:47.646Z</time></trkpt><trkpt lat="43.8709809" lon="11.3330904"><ele>541.0</ele><time>2026-04-24T12:36:48.647Z</time></trkpt><trkpt lat="43.8710563" lon="11.3330074"><ele>540.0</ele><time>2026-04-24T12:36:49.647Z</time></trkpt><trkpt lat="43.8711509" lon="11.3329885"><ele>539.25</ele><time>2026-04-24T12:36:50.647Z</time></trkpt><trkpt lat="43.8712573" lon="11.3330237"><ele>538.5</ele><time>2026-04-24T12:36:51.647Z</time></trkpt><trkpt lat="43.8713623" lon="11.3331"><ele>537.75</ele><time>2026-04-24T12:36:52.646Z</time></trkpt><trkpt lat="43.8714754" lon="11.3331474"><ele>537.0</ele><time>2026-04-24T12:36:53.647Z</time></trkpt><trkpt lat="43.871592" lon="11.3331754"><ele>540.25</ele><time>2026-04-24T12:36:54.647Z</time></trkpt><trkpt lat="43.8717101" lon="11.333208"><ele>543.5</ele><time>2026-04-24T12:36:55.647Z</time></trkpt><trkpt lat="43.8718291" lon="11.333247"><ele>546.75</ele><time>2026-04-24T12:36:56.646Z</time></trkpt><trkpt lat="43.8719438" lon="11.3332996"><ele>550.0</ele><time>2026-04-24T12:36:57.647Z</time></trkpt><trkpt lat="43.8720534" lon="11.3333647"><ele>550.75</ele><time>2026-04-24T12:36:58.646Z</time></trkpt><trkpt lat="43.8721491" lon="11.3334382"><ele>551.5</ele><time>2026-04-24T12:36:59.645Z</time></trkpt><trkpt lat="43.8722635" lon="11.3334751"><ele>552.25</ele><time>2026-04-24T12:37:00.646Z</time></trkpt><trkpt lat="43.8723795" lon="11.3334771"><ele>553.0</ele><time>2026-04-24T12:37:01.647Z</time></trkpt><trkpt lat="43.8724991" lon="11.3334411"><ele>555.0</ele><time>2026-04-24T12:37:02.647Z</time></trkpt><trkpt lat="43.8726234" lon="11.3334043"><ele>557.0</ele><time>2026-04-24T12:37:03.647Z</time></trkpt><trkpt lat="43.8727406" lon="11.3333435"><ele>559.0</ele><time>2026-04-24T12:37:04.647Z</time></trkpt><trkpt lat="43.8728433" lon="11.3332452"><ele>561.0</ele><time>2026-04-24T12:37:05.647Z</time></trkpt><trkpt lat="43.8729292" lon="11.33312"><ele>560.0</ele><time>2026-04-24T12:37:06.646Z</time></trkpt><trkpt lat="43.8729997" lon="11.3329738"><ele>559.0</ele><time>2026-04-24T12:37:07.647Z</time></trkpt><trkpt lat="43.873056" lon="11.3328199"><ele>558.0</ele><time>2026-04-24T12:37:08.647Z</time></trkpt><trkpt lat="43.8731042" lon="11.3326631"><ele>557.0</ele><time>2026-04-24T12:37:09.647Z</time></trkpt><trkpt lat="43.8731419" lon="11.3325062"><ele>557.0</ele><time>2026-04-24T12:37:10.646Z</time></trkpt><trkpt lat="43.8731802" lon="11.332348"><ele>557.0</ele><time>2026-04-24T12:37:11.647Z</time></trkpt><trkpt lat="43.8732049" lon="11.3321846"><ele>557.0</ele><time>2026-04-24T12:37:12.647Z</time></trkpt><trkpt lat="43.8732466" lon="11.3320258"><ele>557.0</ele><time>2026-04-24T12:37:13.647Z</time></trkpt><trkpt lat="43.8732857" lon="11.3318741"><ele>557.0</ele><time>2026-04-24T12:37:14.646Z</time></trkpt><trkpt lat="43.8733292" lon="11.3317134"><ele>557.0</ele><time>2026-04-24T12:37:15.647Z</time></trkpt><trkpt lat="43.8733712" lon="11.3315601"><ele>557.0</ele><time>2026-04-24T12:37:16.647Z</time></trkpt><trkpt lat="43.8734208" lon="11.3314023"><ele>557.0</ele><time>2026-04-24T12:37:17.647Z</time></trkpt><trkpt lat="43.8734721" lon="11.3312461"><ele>559.5</ele><time>2026-04-24T12:37:18.646Z</time></trkpt><trkpt lat="43.8735234" lon="11.3310932"><ele>562.0</ele><time>2026-04-24T12:37:19.646Z</time></trkpt><trkpt lat="43.8735644" lon="11.330934"><ele>564.5</ele><time>2026-04-24T12:37:20.647Z</time></trkpt><trkpt lat="43.8735771" lon="11.3307642"><ele>567.0</ele><time>2026-04-24T12:37:21.647Z</time></trkpt><trkpt lat="43.8735531" lon="11.3306032"><ele>567.5</ele><time>2026-04-24T12:37:22.647Z</time></trkpt><trkpt lat="43.8734999" lon="11.330455"><ele>568.0</ele><time>2026-04-24T12:37:23.647Z</time></trkpt><trkpt lat="43.8734382" lon="11.3303153"><ele>568.5</ele><time>2026-04-24T12:37:24.647Z</time></trkpt><trkpt lat="43.8733934" lon="11.3301619"><ele>569.0</ele><time>2026-04-24T12:37:25.647Z</time></trkpt><trkpt lat="43.8733605" lon="11.330004"><ele>567.75</ele><time>2026-04-24T12:37:26.646Z</time></trkpt><trkpt lat="43.873325" lon="11.3298441"><ele>566.5</ele><time>2026-04-24T12:37:27.647Z</time></trkpt><trkpt lat="43.8732811" lon="11.3296833"><ele>565.25</ele><time>2026-04-24T12:37:28.647Z</time></trkpt><trkpt lat="43.8732241" lon="11.3295297"><ele>564.0</ele><time>2026-04-24T12:37:29.647Z</time></trkpt><trkpt lat="43.8731585" lon="11.3293929"><ele>564.0</ele><time>2026-04-24T12:37:30.647Z</time></trkpt><trkpt lat="43.8730947" lon="11.329256"><ele>564.0</ele><time>2026-04-24T12:37:31.647Z</time></trkpt><trkpt lat="43.8730357" lon="11.3291203"><ele>564.0</ele><time>2026-04-24T12:37:32.647Z</time></trkpt><trkpt lat="43.8729919" lon="11.3289811"><ele>564.0</ele><time>2026-04-24T12:37:33.647Z</time></trkpt><trkpt lat="43.8729625" lon="11.3288243"><ele>565.25</ele><time>2026-04-24T12:37:34.647Z</time></trkpt><trkpt lat="43.8729383" lon="11.3286639"><ele>566.5</ele><time>2026-04-24T12:37:35.646Z</time></trkpt><trkpt lat="43.8729061" lon="11.3285052"><ele>567.75</ele><time>2026-04-24T12:37:36.647Z</time></trkpt><trkpt lat="43.8728686" lon="11.3283518"><ele>569.0</ele><time>2026-04-24T12:37:37.647Z</time></trkpt><trkpt lat="43.8728339" lon="11.3282015"><ele>568.8</ele><time>2026-04-24T12:37:38.646Z</time></trkpt><trkpt lat="43.8728058" lon="11.328053"><ele>568.5999999999999</ele><time>2026-04-24T12:37:39.647Z</time></trkpt><trkpt lat="43.8727801" lon="11.3279079"><ele>568.4</ele><time>2026-04-24T12:37:40.647Z</time></trkpt><trkpt lat="43.8727623" lon="11.3277576"><ele>568.1999999999999</ele><time>2026-04-24T12:37:41.646Z</time></trkpt><trkpt lat="43.8727538" lon="11.3276052"><ele>568.0</ele><time>2026-04-24T12:37:42.646Z</time></trkpt><trkpt lat="43.8727447" lon="11.3274581"><ele>568.0</ele><time>2026-04-24T12:37:43.647Z</time></trkpt><trkpt lat="43.8727375" lon="11.3273236"><ele>568.0</ele><time>2026-04-24T12:37:44.647Z</time></trkpt><trkpt lat="43.872724" lon="11.3271939"><ele>568.0</ele><time>2026-04-24T12:37:45.647Z</time></trkpt><trkpt lat="43.8727185" lon="11.3270721"><ele>568.0</ele><time>2026-04-24T12:37:46.647Z</time></trkpt><trkpt lat="43.8727118" lon="11.3269595"><ele>568.0</ele><time>2026-04-24T12:37:47.647Z</time></trkpt><trkpt lat="43.8727014" lon="11.3268561"><ele>568.0</ele><time>2026-04-24T12:37:48.646Z</time></trkpt><trkpt lat="43.8726978" lon="11.3267665"><ele>567.6</ele><time>2026-04-24T12:37:49.646Z</time></trkpt><trkpt lat="43.8727092" lon="11.3266199"><ele>567.1999999999999</ele><time>2026-04-24T12:37:51.647Z</time></trkpt><trkpt lat="43.8727262" lon="11.3264857"><ele>566.8</ele><time>2026-04-24T12:37:53.647Z</time></trkpt><trkpt lat="43.8726454" lon="11.3263661"><ele>566.4</ele><time>2026-04-24T12:37:55.646Z</time></trkpt><trkpt lat="43.872575" lon="11.3263309"><ele>566.0</ele><time>2026-04-24T12:37:56.646Z</time></trkpt><trkpt lat="43.8724982" lon="11.3262863"><ele>562.6</ele><time>2026-04-24T12:37:57.647Z</time></trkpt><trkpt lat="43.8724218" lon="11.32622"><ele>559.2</ele><time>2026-04-24T12:37:58.646Z</time></trkpt><trkpt lat="43.8723435" lon="11.3261366"><ele>555.8</ele><time>2026-04-24T12:37:59.646Z</time></trkpt><trkpt lat="43.8722637" lon="11.326039"><ele>552.4</ele><time>2026-04-24T12:38:00.647Z</time></trkpt><trkpt lat="43.8721781" lon="11.3259305"><ele>549.0</ele><time>2026-04-24T12:38:01.647Z</time></trkpt><trkpt lat="43.8720984" lon="11.3258124"><ele>549.0</ele><time>2026-04-24T12:38:02.647Z</time></trkpt><trkpt lat="43.8720203" lon="11.3256774"><ele>549.0</ele><time>2026-04-24T12:38:03.647Z</time></trkpt><trkpt lat="43.8719421" lon="11.3255343"><ele>549.0</ele><time>2026-04-24T12:38:04.647Z</time></trkpt><trkpt lat="43.8718649" lon="11.3253846"><ele>549.0</ele><time>2026-04-24T12:38:05.647Z</time></trkpt><trkpt lat="43.8717886" lon="11.3252392"><ele>547.5</ele><time>2026-04-24T12:38:06.647Z</time></trkpt><trkpt lat="43.8717142" lon="11.3250985"><ele>546.0</ele><time>2026-04-24T12:38:07.647Z</time></trkpt><trkpt lat="43.8716406" lon="11.3249663"><ele>544.5</ele><time>2026-04-24T12:38:08.647Z</time></trkpt><trkpt lat="43.8715688" lon="11.3248232"><ele>543.0</ele><time>2026-04-24T12:38:09.647Z</time></trkpt><trkpt lat="43.8714979" lon="11.3246819"><ele>541.25</ele><time>2026-04-24T12:38:10.647Z</time></trkpt><trkpt lat="43.8714247" lon="11.324543"><ele>539.5</ele><time>2026-04-24T12:38:11.647Z</time></trkpt><trkpt lat="43.8713515" lon="11.3244036"><ele>537.75</ele><time>2026-04-24T12:38:12.646Z</time></trkpt><trkpt lat="43.8712781" lon="11.3242616"><ele>536.0</ele><time>2026-04-24T12:38:13.647Z</time></trkpt><trkpt lat="43.871208" lon="11.3241152"><ele>536.0</ele><time>2026-04-24T12:38:14.647Z</time></trkpt><trkpt lat="43.8711433" lon="11.3239714"><ele>536.0</ele><time>2026-04-24T12:38:15.647Z</time></trkpt><trkpt lat="43.871076" lon="11.3238175"><ele>536.0</ele><time>2026-04-24T12:38:16.647Z</time></trkpt><trkpt lat="43.8710142" lon="11.3236623"><ele>536.0</ele><time>2026-04-24T12:38:17.648Z</time></trkpt><trkpt lat="43.8709527" lon="11.3235059"><ele>534.5</ele><time>2026-04-24T12:38:18.648Z</time></trkpt><trkpt lat="43.8708899" lon="11.3233517"><ele>533.0</ele><time>2026-04-24T12:38:19.648Z</time></trkpt><trkpt lat="43.8708292" lon="11.3231989"><ele>531.5</ele><time>2026-04-24T12:38:20.648Z</time></trkpt><trkpt lat="43.8707685" lon="11.3230511"><ele>530.0</ele><time>2026-04-24T12:38:21.648Z</time></trkpt><trkpt lat="43.8707069" lon="11.3229029"><ele>529.0</ele><time>2026-04-24T12:38:22.648Z</time></trkpt><trkpt lat="43.8706446" lon="11.3227549"><ele>528.0</ele><time>2026-04-24T12:38:23.648Z</time></trkpt><trkpt lat="43.870596" lon="11.3226054"><ele>527.0</ele><time>2026-04-24T12:38:24.647Z</time></trkpt><trkpt lat="43.870546" lon="11.3224523"><ele>526.0</ele><time>2026-04-24T12:38:25.647Z</time></trkpt><trkpt lat="43.8704973" lon="11.3222939"><ele>524.25</ele><time>2026-04-24T12:38:26.648Z</time></trkpt><trkpt lat="43.8704609" lon="11.3221361"><ele>522.5</ele><time>2026-04-24T12:38:27.648Z</time></trkpt><trkpt lat="43.8704314" lon="11.3219729"><ele>520.75</ele><time>2026-04-24T12:38:28.648Z</time></trkpt><trkpt lat="43.8704041" lon="11.3218068"><ele>519.0</ele><time>2026-04-24T12:38:29.647Z</time></trkpt><trkpt lat="43.8703731" lon="11.3216242"><ele>519.0</ele><time>2026-04-24T12:38:30.648Z</time></trkpt><trkpt lat="43.8703438" lon="11.3214503"><ele>519.0</ele><time>2026-04-24T12:38:31.648Z</time></trkpt><trkpt lat="43.8703156" lon="11.3212791"><ele>519.0</ele><time>2026-04-24T12:38:32.648Z</time></trkpt><trkpt lat="43.8702837" lon="11.3211222"><ele>519.0</ele><time>2026-04-24T12:38:33.647Z</time></trkpt><trkpt lat="43.870257" lon="11.3209675"><ele>517.2</ele><time>2026-04-24T12:38:34.647Z</time></trkpt><trkpt lat="43.8702291" lon="11.3208242"><ele>515.4</ele><time>2026-04-24T12:38:35.647Z</time></trkpt><trkpt lat="43.8702028" lon="11.3206874"><ele>513.6</ele><time>2026-04-24T12:38:36.648Z</time></trkpt><trkpt lat="43.8701796" lon="11.3205613"><ele>511.8</ele><time>2026-04-24T12:38:37.648Z</time></trkpt><trkpt lat="43.8702435" lon="11.3205232"><ele>510.0</ele><time>2026-04-24T12:38:39.647Z</time></trkpt><trkpt lat="43.8702903" lon="11.3206082"><ele>510.0</ele><time>2026-04-24T12:38:41.648Z</time></trkpt><trkpt lat="43.8703278" lon="11.320709"><ele>510.0</ele><time>2026-04-24T12:38:42.648Z</time></trkpt><trkpt lat="43.8703769" lon="11.3208067"><ele>510.0</ele><time>2026-04-24T12:38:43.648Z</time></trkpt><trkpt lat="43.8704333" lon="11.3209087"><ele>510.0</ele><time>2026-04-24T12:38:44.647Z</time></trkpt><trkpt lat="43.8704873" lon="11.3210083"><ele>510.0</ele><time>2026-04-24T12:38:45.648Z</time></trkpt><trkpt lat="43.8705489" lon="11.3211055"><ele>510.0</ele><time>2026-04-24T12:38:46.648Z</time></trkpt><trkpt lat="43.8706168" lon="11.321198"><ele>510.0</ele><time>2026-04-24T12:38:47.648Z</time></trkpt><trkpt lat="43.8706927" lon="11.3212857"><ele>510.0</ele><time>2026-04-24T12:38:48.647Z</time></trkpt><trkpt lat="43.8707755" lon="11.3213728"><ele>510.0</ele><time>2026-04-24T12:38:49.648Z</time></trkpt><trkpt lat="43.8708581" lon="11.3214553"><ele>510.0</ele><time>2026-04-24T12:38:50.648Z</time></trkpt><trkpt lat="43.8709425" lon="11.3215431"><ele>510.0</ele><time>2026-04-24T12:38:51.648Z</time></trkpt><trkpt lat="43.8710144" lon="11.3216296"><ele>508.8</ele><time>2026-04-24T12:38:52.648Z</time></trkpt><trkpt lat="43.8710866" lon="11.3217299"><ele>507.6</ele><time>2026-04-24T12:38:53.648Z</time></trkpt><trkpt lat="43.8711642" lon="11.3218398"><ele>506.4</ele><time>2026-04-24T12:38:54.648Z</time></trkpt><trkpt lat="43.8712467" lon="11.3219451"><ele>505.2</ele><time>2026-04-24T12:38:55.648Z</time></trkpt><trkpt lat="43.8713291" lon="11.3220446"><ele>504.0</ele><time>2026-04-24T12:38:56.647Z</time></trkpt><trkpt lat="43.8714125" lon="11.3221356"><ele>504.0</ele><time>2026-04-24T12:38:57.648Z</time></trkpt><trkpt lat="43.8715007" lon="11.3222065"><ele>504.0</ele><time>2026-04-24T12:38:58.648Z</time></trkpt><trkpt lat="43.8715986" lon="11.3222523"><ele>504.0</ele><time>2026-04-24T12:38:59.648Z</time></trkpt><trkpt lat="43.8717044" lon="11.3222798"><ele>504.0</ele><time>2026-04-24T12:39:00.648Z</time></trkpt><trkpt lat="43.8718104" lon="11.3222907"><ele>504.0</ele><time>2026-04-24T12:39:01.647Z</time></trkpt><trkpt lat="43.8719193" lon="11.3222869"><ele>503.25</ele><time>2026-04-24T12:39:02.648Z</time></trkpt><trkpt lat="43.8720297" lon="11.322261"><ele>502.5</ele><time>2026-04-24T12:39:03.648Z</time></trkpt><trkpt lat="43.8721392" lon="11.3222186"><ele>501.75</ele><time>2026-04-24T12:39:04.648Z</time></trkpt><trkpt lat="43.8722483" lon="11.3221769"><ele>501.0</ele><time>2026-04-24T12:39:05.648Z</time></trkpt><trkpt lat="43.8723607" lon="11.3221734"><ele>501.0</ele><time>2026-04-24T12:39:06.647Z</time></trkpt><trkpt lat="43.8724709" lon="11.3221938"><ele>501.0</ele><time>2026-04-24T12:39:07.648Z</time></trkpt><trkpt lat="43.8725805" lon="11.3222188"><ele>501.0</ele><time>2026-04-24T12:39:08.648Z</time></trkpt><trkpt lat="43.872687" lon="11.3222428"><ele>501.0</ele><time>2026-04-24T12:39:09.648Z</time></trkpt><trkpt lat="43.8727882" lon="11.3222631"><ele>501.0</ele><time>2026-04-24T12:39:10.648Z</time></trkpt><trkpt lat="43.8728871" lon="11.3222822"><ele>503.3333333333333</ele><time>2026-04-24T12:39:11.648Z</time></trkpt><trkpt lat="43.8729829" lon="11.3222946"><ele>505.66666666666663</ele><time>2026-04-24T12:39:12.648Z</time></trkpt><trkpt lat="43.8730744" lon="11.3223042"><ele>508.0</ele><time>2026-04-24T12:39:13.648Z</time></trkpt><trkpt lat="43.8731639" lon="11.322318"><ele>510.3333333333333</ele><time>2026-04-24T12:39:14.648Z</time></trkpt><trkpt lat="43.8732479" lon="11.3223402"><ele>512.6666666666666</ele><time>2026-04-24T12:39:15.648Z</time></trkpt><trkpt lat="43.8733281" lon="11.3223579"><ele>515.0</ele><time>2026-04-24T12:39:16.648Z</time></trkpt><trkpt lat="43.8734024" lon="11.3223885"><ele>515.0</ele><time>2026-04-24T12:39:17.648Z</time></trkpt><trkpt lat="43.8734698" lon="11.3224353"><ele>515.0</ele><time>2026-04-24T12:39:18.648Z</time></trkpt><trkpt lat="43.8735247" lon="11.3224842"><ele>515.0</ele><time>2026-04-24T12:39:19.648Z</time></trkpt><trkpt lat="43.8735519" lon="11.3225984"><ele>515.0</ele><time>2026-04-24T12:39:21.648Z</time></trkpt><trkpt lat="43.8734644" lon="11.3226282"><ele>515.0</ele><time>2026-04-24T12:39:27.648Z</time></trkpt><trkpt lat="43.873391" lon="11.3226759"><ele>515.0</ele><time>2026-04-24T12:39:30.648Z</time></trkpt><trkpt lat="43.8733267" lon="11.3227454"><ele>515.0</ele><time>2026-04-24T12:39:34.648Z</time></trkpt><trkpt lat="43.8732672" lon="11.3227807"><ele>515.0</ele><time>2026-04-24T12:39:37.648Z</time></trkpt><trkpt lat="43.8732054" lon="11.3228121"><ele>515.0</ele><time>2026-04-24T12:40:56.648Z</time></trkpt><trkpt lat="43.8732699" lon="11.3228359"><ele>515.0</ele><time>2026-04-24T12:41:07.648Z</time></trkpt><trkpt lat="43.8732016" lon="11.3228452"><ele>515.0</ele><time>2026-04-24T12:53:23.648Z</time></trkpt><trkpt lat="43.8732654" lon="11.3227842"><ele>515.0</ele><time>2026-04-24T13:29:39.651Z</time></trkpt><trkpt lat="43.8733418" lon="11.3227547"><ele>515.0</ele><time>2026-04-24T13:29:42.651Z</time></trkpt><trkpt lat="43.8734225" lon="11.3227508"><ele>515.1666666666666</ele><time>2026-04-24T13:29:46.651Z</time></trkpt><trkpt lat="43.8734965" lon="11.3227364"><ele>515.3333333333333</ele><time>2026-04-24T13:29:48.651Z</time></trkpt><trkpt lat="43.8735455" lon="11.322654"><ele>515.5</ele><time>2026-04-24T13:29:50.65Z</time></trkpt><trkpt lat="43.8736006" lon="11.3226031"><ele>515.6666666666666</ele><time>2026-04-24T13:29:53.65Z</time></trkpt><trkpt lat="43.8736867" lon="11.3226733"><ele>515.8333333333334</ele><time>2026-04-24T13:29:55.651Z</time></trkpt><trkpt lat="43.8737355" lon="11.3227513"><ele>516.0</ele><time>2026-04-24T13:29:56.65Z</time></trkpt><trkpt lat="43.8737893" lon="11.3228247"><ele>516.0</ele><time>2026-04-24T13:29:57.65Z</time></trkpt><trkpt lat="43.8738578" lon="11.3228954"><ele>516.0</ele><time>2026-04-24T13:29:58.65Z</time></trkpt><trkpt lat="43.8739378" lon="11.3229551"><ele>516.0</ele><time>2026-04-24T13:29:59.65Z</time></trkpt><trkpt lat="43.8740283" lon="11.3229944"><ele>516.0</ele><time>2026-04-24T13:30:00.651Z</time></trkpt><trkpt lat="43.8741235" lon="11.3230198"><ele>516.0</ele><time>2026-04-24T13:30:01.651Z</time></trkpt><trkpt lat="43.8742142" lon="11.3230404"><ele>516.8</ele><time>2026-04-24T13:30:02.649Z</time></trkpt><trkpt lat="43.8743057" lon="11.3230608"><ele>517.6</ele><time>2026-04-24T13:30:03.65Z</time></trkpt><trkpt lat="43.8743936" lon="11.3230846"><ele>518.4</ele><time>2026-04-24T13:30:04.651Z</time></trkpt><trkpt lat="43.8744821" lon="11.3231108"><ele>519.2</ele><time>2026-04-24T13:30:05.65Z</time></trkpt><trkpt lat="43.8745742" lon="11.323149"><ele>520.0</ele><time>2026-04-24T13:30:06.65Z</time></trkpt><trkpt lat="43.874669" lon="11.3231917"><ele>521.3333333333334</ele><time>2026-04-24T13:30:07.651Z</time></trkpt><trkpt lat="43.874757" lon="11.3232299"><ele>522.6666666666667</ele><time>2026-04-24T13:30:08.651Z</time></trkpt><trkpt lat="43.8748427" lon="11.3232714"><ele>524.0</ele><time>2026-04-24T13:30:09.651Z</time></trkpt><trkpt lat="43.8749276" lon="11.3233087"><ele>525.3333333333334</ele><time>2026-04-24T13:30:10.651Z</time></trkpt><trkpt lat="43.8750109" lon="11.3233287"><ele>526.6666666666666</ele><time>2026-04-24T13:30:11.651Z</time></trkpt><trkpt lat="43.8750918" lon="11.3233093"><ele>528.0</ele><time>2026-04-24T13:30:12.651Z</time></trkpt><trkpt lat="43.8751584" lon="11.3232484"><ele>528.5</ele><time>2026-04-24T13:30:13.651Z</time></trkpt><trkpt lat="43.8751989" lon="11.3231563"><ele>529.0</ele><time>2026-04-24T13:30:14.651Z</time></trkpt><trkpt lat="43.8752215" lon="11.3230622"><ele>529.5</ele><time>2026-04-24T13:30:15.651Z</time></trkpt><trkpt lat="43.8752441" lon="11.3229141"><ele>530.0</ele><time>2026-04-24T13:30:17.651Z</time></trkpt><trkpt lat="43.8752658" lon="11.3228088"><ele>530.5</ele><time>2026-04-24T13:30:19.651Z</time></trkpt><trkpt lat="43.8752968" lon="11.3226828"><ele>531.0</ele><time>2026-04-24T13:30:21.65Z</time></trkpt><trkpt lat="43.8753138" lon="11.3225956"><ele>531.0</ele><time>2026-04-24T13:30:22.651Z</time></trkpt><trkpt lat="43.8753439" lon="11.3224941"><ele>531.0</ele><time>2026-04-24T13:30:23.651Z</time></trkpt><trkpt lat="43.8753815" lon="11.32239"><ele>531.0</ele><time>2026-04-24T13:30:24.651Z</time></trkpt><trkpt lat="43.8754254" lon="11.3222932"><ele>531.0</ele><time>2026-04-24T13:30:25.651Z</time></trkpt><trkpt lat="43.8754728" lon="11.3222059"><ele>531.0</ele><time>2026-04-24T13:30:26.651Z</time></trkpt><trkpt lat="43.8755294" lon="11.3221375"><ele>531.0</ele><time>2026-04-24T13:30:27.651Z</time></trkpt><trkpt lat="43.8755956" lon="11.3220793"><ele>531.0</ele><time>2026-04-24T13:30:28.65Z</time></trkpt><trkpt lat="43.8756672" lon="11.322022"><ele>531.0</ele><time>2026-04-24T13:30:29.651Z</time></trkpt><trkpt lat="43.8757409" lon="11.3219657"><ele>531.0</ele><time>2026-04-24T13:30:30.651Z</time></trkpt><trkpt lat="43.8758106" lon="11.3219166"><ele>531.0</ele><time>2026-04-24T13:30:31.651Z</time></trkpt><trkpt lat="43.8758835" lon="11.3218668"><ele>531.0</ele><time>2026-04-24T13:30:32.651Z</time></trkpt><trkpt lat="43.8759543" lon="11.3218159"><ele>531.0</ele><time>2026-04-24T13:30:33.651Z</time></trkpt><trkpt lat="43.876024" lon="11.3217516"><ele>531.0</ele><time>2026-04-24T13:30:34.65Z</time></trkpt><trkpt lat="43.876097" lon="11.3216922"><ele>531.0</ele><time>2026-04-24T13:30:35.65Z</time></trkpt><trkpt lat="43.876175" lon="11.3216168"><ele>531.0</ele><time>2026-04-24T13:30:36.651Z</time></trkpt><trkpt lat="43.8762486" lon="11.3215329"><ele>531.0</ele><time>2026-04-24T13:30:37.651Z</time></trkpt><trkpt lat="43.8763169" lon="11.3214427"><ele>531.0</ele><time>2026-04-24T13:30:38.65Z</time></trkpt><trkpt lat="43.8763794" lon="11.3213566"><ele>529.6666666666666</ele><time>2026-04-24T13:30:39.65Z</time></trkpt><trkpt lat="43.8764372" lon="11.3212679"><ele>528.3333333333334</ele><time>2026-04-24T13:30:40.651Z</time></trkpt><trkpt lat="43.8764877" lon="11.3211917"><ele>527.0</ele><time>2026-04-24T13:30:41.65Z</time></trkpt><trkpt lat="43.8765129" lon="11.32102"><ele>525.6666666666667</ele><time>2026-04-24T13:30:43.651Z</time></trkpt><trkpt lat="43.8764888" lon="11.3209231"><ele>524.3333333333334</ele><time>2026-04-24T13:30:44.651Z</time></trkpt><trkpt lat="43.8764655" lon="11.3208286"><ele>523.0</ele><time>2026-04-24T13:30:45.651Z</time></trkpt><trkpt lat="43.8764806" lon="11.3207165"><ele>523.0</ele><time>2026-04-24T13:30:46.651Z</time></trkpt><trkpt lat="43.8765275" lon="11.3206094"><ele>523.0</ele><time>2026-04-24T13:30:47.651Z</time></trkpt><trkpt lat="43.8765831" lon="11.3205067"><ele>523.0</ele><time>2026-04-24T13:30:48.65Z</time></trkpt><trkpt lat="43.8766396" lon="11.3204061"><ele>523.0</ele><time>2026-04-24T13:30:49.65Z</time></trkpt><trkpt lat="43.8767004" lon="11.3203189"><ele>523.0</ele><time>2026-04-24T13:30:50.65Z</time></trkpt><trkpt lat="43.8767462" lon="11.3202274"><ele>523.0</ele><time>2026-04-24T13:30:51.651Z</time></trkpt><trkpt lat="43.8767829" lon="11.3201504"><ele>522.3333333333334</ele><time>2026-04-24T13:30:52.651Z</time></trkpt><trkpt lat="43.8768077" lon="11.3200699"><ele>521.6666666666667</ele><time>2026-04-24T13:30:53.651Z</time></trkpt><trkpt lat="43.876826" lon="11.3199844"><ele>521.0</ele><time>2026-04-24T13:30:54.651Z</time></trkpt><trkpt lat="43.876821" lon="11.3198907"><ele>520.3333333333334</ele><time>2026-04-24T13:30:55.651Z</time></trkpt><trkpt lat="43.8768075" lon="11.3197906"><ele>519.6666666666666</ele><time>2026-04-24T13:30:56.651Z</time></trkpt><trkpt lat="43.8767627" lon="11.3196802"><ele>519.0</ele><time>2026-04-24T13:30:57.651Z</time></trkpt><trkpt lat="43.8767184" lon="11.3195642"><ele>519.0</ele><time>2026-04-24T13:30:58.651Z</time></trkpt><trkpt lat="43.8766612" lon="11.3194313"><ele>519.0</ele><time>2026-04-24T13:30:59.65Z</time></trkpt><trkpt lat="43.876582" lon="11.3193033"><ele>519.0</ele><time>2026-04-24T13:31:00.65Z</time></trkpt><trkpt lat="43.8765178" lon="11.3191756"><ele>519.0</ele><time>2026-04-24T13:31:01.65Z</time></trkpt><trkpt lat="43.8764903" lon="11.3190421"><ele>519.0</ele><time>2026-04-24T13:31:02.651Z</time></trkpt><trkpt lat="43.8764542" lon="11.3189208"><ele>518.0</ele><time>2026-04-24T13:31:03.651Z</time></trkpt><trkpt lat="43.8764733" lon="11.3188114"><ele>517.0</ele><time>2026-04-24T13:31:04.65Z</time></trkpt><trkpt lat="43.8764878" lon="11.3187006"><ele>516.0</ele><time>2026-04-24T13:31:05.651Z</time></trkpt><trkpt lat="43.8765019" lon="11.3186062"><ele>515.0</ele><time>2026-04-24T13:31:06.65Z</time></trkpt><trkpt lat="43.8765108" lon="11.3185105"><ele>514.0</ele><time>2026-04-24T13:31:07.651Z</time></trkpt><trkpt lat="43.8765199" lon="11.3184226"><ele>513.0</ele><time>2026-04-24T13:31:08.651Z</time></trkpt><trkpt lat="43.876525" lon="11.3182789"><ele>513.0</ele><time>2026-04-24T13:31:10.65Z</time></trkpt><trkpt lat="43.8765357" lon="11.3181271"><ele>513.0</ele><time>2026-04-24T13:31:12.651Z</time></trkpt><trkpt lat="43.8765422" lon="11.3180168"><ele>513.0</ele><time>2026-04-24T13:31:13.651Z</time></trkpt><trkpt lat="43.876553" lon="11.3179105"><ele>513.0</ele><time>2026-04-24T13:31:14.651Z</time></trkpt><trkpt lat="43.8765457" lon="11.3177903"><ele>513.0</ele><time>2026-04-24T13:31:15.651Z</time></trkpt><trkpt lat="43.8765511" lon="11.3176009"><ele>512.8</ele><time>2026-04-24T13:31:16.651Z</time></trkpt><trkpt lat="43.8765626" lon="11.3174713"><ele>512.5999999999999</ele><time>2026-04-24T13:31:17.651Z</time></trkpt><trkpt lat="43.8765833" lon="11.3173468"><ele>512.4000000000001</ele><time>2026-04-24T13:31:18.65Z</time></trkpt><trkpt lat="43.8766196" lon="11.3172056"><ele>512.2</ele><time>2026-04-24T13:31:19.65Z</time></trkpt><trkpt lat="43.8766493" lon="11.31707"><ele>512.0</ele><time>2026-04-24T13:31:20.651Z</time></trkpt><trkpt lat="43.8766742" lon="11.3169345"><ele>512.0</ele><time>2026-04-24T13:31:21.651Z</time></trkpt><trkpt lat="43.8766984" lon="11.3167986"><ele>512.0</ele><time>2026-04-24T13:31:22.651Z</time></trkpt><trkpt lat="43.8767206" lon="11.3166612"><ele>512.0</ele><time>2026-04-24T13:31:23.65Z</time></trkpt><trkpt lat="43.876734" lon="11.3165258"><ele>512.0</ele><time>2026-04-24T13:31:24.651Z</time></trkpt><trkpt lat="43.876752" lon="11.3163866"><ele>512.0</ele><time>2026-04-24T13:31:25.651Z</time></trkpt><trkpt lat="43.8767693" lon="11.316258"><ele>510.8</ele><time>2026-04-24T13:31:26.651Z</time></trkpt><trkpt lat="43.8767871" lon="11.3161118"><ele>509.6</ele><time>2026-04-24T13:31:27.651Z</time></trkpt><trkpt lat="43.8768132" lon="11.3159823"><ele>508.40000000000003</ele><time>2026-04-24T13:31:28.651Z</time></trkpt><trkpt lat="43.8768359" lon="11.315846"><ele>507.20000000000005</ele><time>2026-04-24T13:31:29.651Z</time></trkpt><trkpt lat="43.876836" lon="11.3157093"><ele>506.0</ele><time>2026-04-24T13:31:30.651Z</time></trkpt><trkpt lat="43.8768528" lon="11.3155692"><ele>506.0</ele><time>2026-04-24T13:31:31.651Z</time></trkpt><trkpt lat="43.8768779" lon="11.3154149"><ele>506.0</ele><time>2026-04-24T13:31:32.65Z</time></trkpt><trkpt lat="43.8769004" lon="11.3152611"><ele>506.0</ele><time>2026-04-24T13:31:33.651Z</time></trkpt><trkpt lat="43.876926" lon="11.3151101"><ele>506.0</ele><time>2026-04-24T13:31:34.649Z</time></trkpt><trkpt lat="43.8769559" lon="11.3149554"><ele>506.0</ele><time>2026-04-24T13:31:35.65Z</time></trkpt><trkpt lat="43.8769884" lon="11.3148128"><ele>506.0</ele><time>2026-04-24T13:31:36.651Z</time></trkpt><trkpt lat="43.8770139" lon="11.3146593"><ele>506.0</ele><time>2026-04-24T13:31:37.651Z</time></trkpt><trkpt lat="43.8770466" lon="11.3145185"><ele>506.0</ele><time>2026-04-24T13:31:38.65Z</time></trkpt><trkpt lat="43.8770698" lon="11.3143719"><ele>506.0</ele><time>2026-04-24T13:31:39.651Z</time></trkpt><trkpt lat="43.877086" lon="11.3142156"><ele>506.25</ele><time>2026-04-24T13:31:40.651Z</time></trkpt><trkpt lat="43.8771019" lon="11.314066"><ele>506.5</ele><time>2026-04-24T13:31:41.651Z</time></trkpt><trkpt lat="43.8771187" lon="11.313914"><ele>506.75</ele><time>2026-04-24T13:31:42.65Z</time></trkpt><trkpt lat="43.8771301" lon="11.3137582"><ele>507.0</ele><time>2026-04-24T13:31:43.65Z</time></trkpt><trkpt lat="43.8771313" lon="11.3135893"><ele>507.0</ele><time>2026-04-24T13:31:44.651Z</time></trkpt><trkpt lat="43.8771314" lon="11.3134281"><ele>507.00000000000006</ele><time>2026-04-24T13:31:45.651Z</time></trkpt><trkpt lat="43.8771409" lon="11.3132698"><ele>507.00000000000006</ele><time>2026-04-24T13:31:46.651Z</time></trkpt><trkpt lat="43.8771422" lon="11.313122"><ele>507.0</ele><time>2026-04-24T13:31:47.65Z</time></trkpt><trkpt lat="43.8771408" lon="11.3129941"><ele>507.0</ele><time>2026-04-24T13:31:48.651Z</time></trkpt><trkpt lat="43.8771363" lon="11.3128751"><ele>506.0</ele><time>2026-04-24T13:31:49.651Z</time></trkpt><trkpt lat="43.8771343" lon="11.312731"><ele>505.0</ele><time>2026-04-24T13:31:50.651Z</time></trkpt><trkpt lat="43.877139" lon="11.3125723"><ele>504.0</ele><time>2026-04-24T13:31:51.65Z</time></trkpt><trkpt lat="43.8771424" lon="11.3124067"><ele>503.0</ele><time>2026-04-24T13:31:52.651Z</time></trkpt><trkpt lat="43.8771469" lon="11.3122474"><ele>502.4</ele><time>2026-04-24T13:31:53.651Z</time></trkpt><trkpt lat="43.8771508" lon="11.3120916"><ele>501.79999999999995</ele><time>2026-04-24T13:31:54.651Z</time></trkpt><trkpt lat="43.8771553" lon="11.3119407"><ele>501.2</ele><time>2026-04-24T13:31:55.651Z</time></trkpt><trkpt lat="43.8771469" lon="11.3117892"><ele>500.6</ele><time>2026-04-24T13:31:56.651Z</time></trkpt><trkpt lat="43.8771334" lon="11.3116301"><ele>500.0</ele><time>2026-04-24T13:31:57.651Z</time></trkpt><trkpt lat="43.8771299" lon="11.3114536"><ele>499.75</ele><time>2026-04-24T13:31:58.65Z</time></trkpt><trkpt lat="43.877139" lon="11.3112735"><ele>499.5</ele><time>2026-04-24T13:31:59.65Z</time></trkpt><trkpt lat="43.877157" lon="11.3111028"><ele>499.25</ele><time>2026-04-24T13:32:00.651Z</time></trkpt><trkpt lat="43.8771981" lon="11.3109333"><ele>499.0</ele><time>2026-04-24T13:32:01.65Z</time></trkpt><trkpt lat="43.8772714" lon="11.3107293"><ele>499.6666666666667</ele><time>2026-04-24T13:32:02.651Z</time></trkpt><trkpt lat="43.8773578" lon="11.3105008"><ele>500.33333333333337</ele><time>2026-04-24T13:32:03.651Z</time></trkpt><trkpt lat="43.8774778" lon="11.3102721"><ele>501.0</ele><time>2026-04-24T13:32:04.651Z</time></trkpt><trkpt lat="43.8775912" lon="11.3100868"><ele>500.5</ele><time>2026-04-24T13:32:05.651Z</time></trkpt><trkpt lat="43.8776753" lon="11.3099313"><ele>500.0</ele><time>2026-04-24T13:32:06.65Z</time></trkpt><trkpt lat="43.8777394" lon="11.3097985"><ele>499.5</ele><time>2026-04-24T13:32:07.65Z</time></trkpt><trkpt lat="43.8777897" lon="11.3096613"><ele>499.0</ele><time>2026-04-24T13:32:08.651Z</time></trkpt><trkpt lat="43.8778139" lon="11.3094977"><ele>499.0</ele><time>2026-04-24T13:32:09.651Z</time></trkpt><trkpt lat="43.8778223" lon="11.3093285"><ele>499.0</ele><time>2026-04-24T13:32:10.651Z</time></trkpt><trkpt lat="43.8778359" lon="11.3091698"><ele>499.0</ele><time>2026-04-24T13:32:11.651Z</time></trkpt><trkpt lat="43.8778446" lon="11.3090149"><ele>499.0</ele><time>2026-04-24T13:32:12.651Z</time></trkpt><trkpt lat="43.8778407" lon="11.3088643"><ele>499.2</ele><time>2026-04-24T13:32:13.65Z</time></trkpt><trkpt lat="43.8778277" lon="11.3087181"><ele>499.4</ele><time>2026-04-24T13:32:14.65Z</time></trkpt><trkpt lat="43.8778126" lon="11.3085716"><ele>499.6</ele><time>2026-04-24T13:32:15.651Z</time></trkpt><trkpt lat="43.8778028" lon="11.3084371"><ele>499.8</ele><time>2026-04-24T13:32:16.651Z</time></trkpt><trkpt lat="43.8778145" lon="11.308304"><ele>500.0</ele><time>2026-04-24T13:32:17.651Z</time></trkpt><trkpt lat="43.8778394" lon="11.3081615"><ele>502.2</ele><time>2026-04-24T13:32:18.651Z</time></trkpt><trkpt lat="43.8778762" lon="11.3080217"><ele>504.4</ele><time>2026-04-24T13:32:19.651Z</time></trkpt><trkpt lat="43.8779245" lon="11.3078962"><ele>506.6</ele><time>2026-04-24T13:32:20.651Z</time></trkpt><trkpt lat="43.8779969" lon="11.3077902"><ele>508.8</ele><time>2026-04-24T13:32:21.651Z</time></trkpt><trkpt lat="43.8780746" lon="11.3076845"><ele>511.0</ele><time>2026-04-24T13:32:22.651Z</time></trkpt><trkpt lat="43.8781445" lon="11.3075895"><ele>511.0</ele><time>2026-04-24T13:32:23.651Z</time></trkpt><trkpt lat="43.878214" lon="11.3074997"><ele>511.0</ele><time>2026-04-24T13:32:24.651Z</time></trkpt><trkpt lat="43.8782805" lon="11.3074115"><ele>511.0</ele><time>2026-04-24T13:32:25.651Z</time></trkpt><trkpt lat="43.8783466" lon="11.307308"><ele>511.0</ele><time>2026-04-24T13:32:26.651Z</time></trkpt><trkpt lat="43.8784193" lon="11.3072008"><ele>511.0</ele><time>2026-04-24T13:32:27.65Z</time></trkpt><trkpt lat="43.8784886" lon="11.3070735"><ele>509.0</ele><time>2026-04-24T13:32:28.651Z</time></trkpt><trkpt lat="43.8785528" lon="11.3069384"><ele>507.0</ele><time>2026-04-24T13:32:29.651Z</time></trkpt><trkpt lat="43.8785949" lon="11.3067659"><ele>505.0</ele><time>2026-04-24T13:32:30.651Z</time></trkpt><trkpt lat="43.8786243" lon="11.3065987"><ele>503.0</ele><time>2026-04-24T13:32:31.651Z</time></trkpt><trkpt lat="43.8786418" lon="11.3064361"><ele>502.4</ele><time>2026-04-24T13:32:32.651Z</time></trkpt><trkpt lat="43.8786502" lon="11.3062806"><ele>501.79999999999995</ele><time>2026-04-24T13:32:33.651Z</time></trkpt><trkpt lat="43.8786416" lon="11.3061276"><ele>501.2</ele><time>2026-04-24T13:32:34.651Z</time></trkpt><trkpt lat="43.8786106" lon="11.305975"><ele>500.6</ele><time>2026-04-24T13:32:35.651Z</time></trkpt><trkpt lat="43.8785767" lon="11.3058351"><ele>500.0</ele><time>2026-04-24T13:32:36.651Z</time></trkpt><trkpt lat="43.8785539" lon="11.3056955"><ele>497.25</ele><time>2026-04-24T13:32:37.651Z</time></trkpt><trkpt lat="43.8785587" lon="11.3055567"><ele>494.5</ele><time>2026-04-24T13:32:38.651Z</time></trkpt><trkpt lat="43.8785725" lon="11.3053784"><ele>491.75</ele><time>2026-04-24T13:32:39.651Z</time></trkpt><trkpt lat="43.8785838" lon="11.3052123"><ele>489.0</ele><time>2026-04-24T13:32:40.651Z</time></trkpt><trkpt lat="43.8785943" lon="11.3050434"><ele>489.0</ele><time>2026-04-24T13:32:41.65Z</time></trkpt><trkpt lat="43.8786136" lon="11.30489"><ele>489.0</ele><time>2026-04-24T13:32:42.651Z</time></trkpt><trkpt lat="43.8786366" lon="11.3047375"><ele>489.0</ele><time>2026-04-24T13:32:43.65Z</time></trkpt><trkpt lat="43.8786517" lon="11.3045901"><ele>489.0</ele><time>2026-04-24T13:32:44.651Z</time></trkpt><trkpt lat="43.8786764" lon="11.3044728"><ele>489.0</ele><time>2026-04-24T13:32:45.649Z</time></trkpt><trkpt lat="43.878707" lon="11.3043378"><ele>489.0</ele><time>2026-04-24T13:32:46.649Z</time></trkpt><trkpt lat="43.8787699" lon="11.3042091"><ele>489.0</ele><time>2026-04-24T13:32:47.651Z</time></trkpt><trkpt lat="43.8788207" lon="11.3040948"><ele>489.0</ele><time>2026-04-24T13:32:48.651Z</time></trkpt><trkpt lat="43.8788514" lon="11.3039539"><ele>489.0</ele><time>2026-04-24T13:32:49.651Z</time></trkpt><trkpt lat="43.8788553" lon="11.3038199"><ele>489.0</ele><time>2026-04-24T13:32:50.65Z</time></trkpt><trkpt lat="43.8788463" lon="11.3036801"><ele>488.79999999999995</ele><time>2026-04-24T13:32:51.651Z</time></trkpt><trkpt lat="43.8788249" lon="11.303542"><ele>488.59999999999997</ele><time>2026-04-24T13:32:52.651Z</time></trkpt><trkpt lat="43.8788068" lon="11.303409"><ele>488.4</ele><time>2026-04-24T13:32:53.65Z</time></trkpt><trkpt lat="43.8788053" lon="11.3032691"><ele>488.2</ele><time>2026-04-24T13:32:54.65Z</time></trkpt><trkpt lat="43.8788277" lon="11.3031262"><ele>488.0</ele><time>2026-04-24T13:32:55.651Z</time></trkpt><trkpt lat="43.8788672" lon="11.3029818"><ele>488.5</ele><time>2026-04-24T13:32:56.651Z</time></trkpt><trkpt lat="43.8789198" lon="11.3028323"><ele>489.0</ele><time>2026-04-24T13:32:57.651Z</time></trkpt><trkpt lat="43.8789719" lon="11.3026744"><ele>489.5</ele><time>2026-04-24T13:32:58.65Z</time></trkpt><trkpt lat="43.8790268" lon="11.3025162"><ele>490.0</ele><time>2026-04-24T13:32:59.651Z</time></trkpt><trkpt lat="43.8790823" lon="11.3023612"><ele>490.0</ele><time>2026-04-24T13:33:00.651Z</time></trkpt><trkpt lat="43.8791373" lon="11.3022132"><ele>490.0</ele><time>2026-04-24T13:33:01.651Z</time></trkpt><trkpt lat="43.8792037" lon="11.3020879"><ele>490.0</ele><time>2026-04-24T13:33:02.65Z</time></trkpt><trkpt lat="43.8792956" lon="11.301998"><ele>490.0</ele><time>2026-04-24T13:33:03.651Z</time></trkpt><trkpt lat="43.8794005" lon="11.3019265"><ele>489.75</ele><time>2026-04-24T13:33:04.651Z</time></trkpt><trkpt lat="43.8795159" lon="11.3018737"><ele>489.5</ele><time>2026-04-24T13:33:05.651Z</time></trkpt><trkpt lat="43.879631" lon="11.3018142"><ele>489.25</ele><time>2026-04-24T13:33:06.651Z</time></trkpt><trkpt lat="43.8797453" lon="11.3017533"><ele>489.0</ele><time>2026-04-24T13:33:07.651Z</time></trkpt><trkpt lat="43.8798654" lon="11.3016956"><ele>489.0</ele><time>2026-04-24T13:33:08.651Z</time></trkpt><trkpt lat="43.8799728" lon="11.3016418"><ele>489.0</ele><time>2026-04-24T13:33:09.651Z</time></trkpt><trkpt lat="43.8800648" lon="11.301569"><ele>489.0</ele><time>2026-04-24T13:33:10.651Z</time></trkpt><trkpt lat="43.8801258" lon="11.3014687"><ele>489.0</ele><time>2026-04-24T13:33:11.651Z</time></trkpt><trkpt lat="43.8801644" lon="11.3013287"><ele>489.0</ele><time>2026-04-24T13:33:12.651Z</time></trkpt><trkpt lat="43.8801932" lon="11.3011695"><ele>483.5</ele><time>2026-04-24T13:33:13.651Z</time></trkpt><trkpt lat="43.8802248" lon="11.3010005"><ele>478.0</ele><time>2026-04-24T13:33:14.651Z</time></trkpt><trkpt lat="43.8802487" lon="11.300824"><ele>472.5</ele><time>2026-04-24T13:33:15.651Z</time></trkpt><trkpt lat="43.8802559" lon="11.3006552"><ele>467.0</ele><time>2026-04-24T13:33:16.651Z</time></trkpt><trkpt lat="43.880242" lon="11.300497"><ele>466.20000000000005</ele><time>2026-04-24T13:33:17.651Z</time></trkpt><trkpt lat="43.8802134" lon="11.3003668"><ele>465.40000000000003</ele><time>2026-04-24T13:33:18.651Z</time></trkpt><trkpt lat="43.8801975" lon="11.3002617"><ele>464.59999999999997</ele><time>2026-04-24T13:33:19.651Z</time></trkpt><trkpt lat="43.8802233" lon="11.3001504"><ele>463.79999999999995</ele><time>2026-04-24T13:33:20.651Z</time></trkpt><trkpt lat="43.8802851" lon="11.3000389"><ele>463.0</ele><time>2026-04-24T13:33:21.651Z</time></trkpt><trkpt lat="43.8803752" lon="11.2999288"><ele>463.0</ele><time>2026-04-24T13:33:22.651Z</time></trkpt><trkpt lat="43.880469" lon="11.299815"><ele>463.0</ele><time>2026-04-24T13:33:23.651Z</time></trkpt><trkpt lat="43.8805571" lon="11.2996879"><ele>463.0</ele><time>2026-04-24T13:33:24.651Z</time></trkpt><trkpt lat="43.8806438" lon="11.2995618"><ele>463.0</ele><time>2026-04-24T13:33:25.651Z</time></trkpt><trkpt lat="43.8807352" lon="11.2994385"><ele>462.25</ele><time>2026-04-24T13:33:26.651Z</time></trkpt><trkpt lat="43.8808307" lon="11.2993165"><ele>461.5</ele><time>2026-04-24T13:33:27.65Z</time></trkpt><trkpt lat="43.8809227" lon="11.299191"><ele>460.75</ele><time>2026-04-24T13:33:28.65Z</time></trkpt><trkpt lat="43.8810133" lon="11.2990644"><ele>460.0</ele><time>2026-04-24T13:33:29.651Z</time></trkpt><trkpt lat="43.8811038" lon="11.298942"><ele>456.25</ele><time>2026-04-24T13:33:30.651Z</time></trkpt><trkpt lat="43.8811952" lon="11.2988209"><ele>452.5</ele><time>2026-04-24T13:33:31.651Z</time></trkpt><trkpt lat="43.8812813" lon="11.2986914"><ele>448.75</ele><time>2026-04-24T13:33:32.651Z</time></trkpt><trkpt lat="43.881354" lon="11.2985372"><ele>445.0</ele><time>2026-04-24T13:33:33.651Z</time></trkpt><trkpt lat="43.88142" lon="11.2983636"><ele>445.0</ele><time>2026-04-24T13:33:34.651Z</time></trkpt><trkpt lat="43.8814846" lon="11.298185"><ele>445.0</ele><time>2026-04-24T13:33:35.65Z</time></trkpt><trkpt lat="43.8815467" lon="11.2980028"><ele>445.0</ele><time>2026-04-24T13:33:36.651Z</time></trkpt><trkpt lat="43.8816079" lon="11.2978143"><ele>445.0</ele><time>2026-04-24T13:33:37.651Z</time></trkpt><trkpt lat="43.8816767" lon="11.2976319"><ele>444.5</ele><time>2026-04-24T13:33:38.65Z</time></trkpt><trkpt lat="43.8817591" lon="11.2974692"><ele>444.0</ele><time>2026-04-24T13:33:39.651Z</time></trkpt><trkpt lat="43.8818374" lon="11.2973366"><ele>443.5</ele><time>2026-04-24T13:33:40.651Z</time></trkpt><trkpt lat="43.881882" lon="11.2972047"><ele>443.0</ele><time>2026-04-24T13:33:41.65Z</time></trkpt><trkpt lat="43.8818977" lon="11.2970482"><ele>442.2</ele><time>2026-04-24T13:33:42.65Z</time></trkpt><trkpt lat="43.8818897" lon="11.2968833"><ele>441.4</ele><time>2026-04-24T13:33:43.651Z</time></trkpt><trkpt lat="43.8818821" lon="11.2967247"><ele>440.59999999999997</ele><time>2026-04-24T13:33:44.651Z</time></trkpt><trkpt lat="43.8818874" lon="11.2965901"><ele>439.79999999999995</ele><time>2026-04-24T13:33:45.651Z</time></trkpt><trkpt lat="43.8818986" lon="11.2964824"><ele>439.0</ele><time>2026-04-24T13:33:46.651Z</time></trkpt><trkpt lat="43.8818441" lon="11.2963284"><ele>439.0</ele><time>2026-04-24T13:33:48.651Z</time></trkpt><trkpt lat="43.8817666" lon="11.2962681"><ele>439.0</ele><time>2026-04-24T13:33:49.65Z</time></trkpt><trkpt lat="43.8816715" lon="11.2962002"><ele>439.0</ele><time>2026-04-24T13:33:50.651Z</time></trkpt><trkpt lat="43.8815722" lon="11.2961103"><ele>439.0</ele><time>2026-04-24T13:33:51.651Z</time></trkpt><trkpt lat="43.8814728" lon="11.2960093"><ele>439.0</ele><time>2026-04-24T13:33:52.651Z</time></trkpt><trkpt lat="43.8813752" lon="11.2958975"><ele>438.5</ele><time>2026-04-24T13:33:53.65Z</time></trkpt><trkpt lat="43.8812814" lon="11.2957796"><ele>438.0</ele><time>2026-04-24T13:33:54.651Z</time></trkpt><trkpt lat="43.8811927" lon="11.2956521"><ele>437.5</ele><time>2026-04-24T13:33:55.65Z</time></trkpt><trkpt lat="43.881117" lon="11.295505"><ele>437.0</ele><time>2026-04-24T13:33:56.651Z</time></trkpt><trkpt lat="43.8810553" lon="11.2953408"><ele>435.25</ele><time>2026-04-24T13:33:57.651Z</time></trkpt><trkpt lat="43.8810016" lon="11.2951771"><ele>433.5</ele><time>2026-04-24T13:33:58.651Z</time></trkpt><trkpt lat="43.8809454" lon="11.2950224"><ele>431.75</ele><time>2026-04-24T13:33:59.651Z</time></trkpt><trkpt lat="43.8808852" lon="11.2948778"><ele>430.0</ele><time>2026-04-24T13:34:00.651Z</time></trkpt><trkpt lat="43.8808177" lon="11.2947443"><ele>427.0</ele><time>2026-04-24T13:34:01.651Z</time></trkpt><trkpt lat="43.880737" lon="11.2946213"><ele>424.0</ele><time>2026-04-24T13:34:02.651Z</time></trkpt><trkpt lat="43.8806405" lon="11.2945322"><ele>421.0</ele><time>2026-04-24T13:34:03.65Z</time></trkpt><trkpt lat="43.8805362" lon="11.294457"><ele>418.0</ele><time>2026-04-24T13:34:04.65Z</time></trkpt><trkpt lat="43.8804464" lon="11.2943729"><ele>418.0</ele><time>2026-04-24T13:34:05.651Z</time></trkpt><trkpt lat="43.8803784" lon="11.2942659"><ele>418.0</ele><time>2026-04-24T13:34:06.651Z</time></trkpt><trkpt lat="43.8803123" lon="11.2941274"><ele>418.0</ele><time>2026-04-24T13:34:07.651Z</time></trkpt><trkpt lat="43.8803016" lon="11.2939647"><ele>418.0</ele><time>2026-04-24T13:34:08.65Z</time></trkpt><trkpt lat="43.8802916" lon="11.2937976"><ele>415.2</ele><time>2026-04-24T13:34:09.651Z</time></trkpt><trkpt lat="43.8802943" lon="11.2936592"><ele>412.4</ele><time>2026-04-24T13:34:10.651Z</time></trkpt><trkpt lat="43.8803125" lon="11.2935298"><ele>409.59999999999997</ele><time>2026-04-24T13:34:11.651Z</time></trkpt><trkpt lat="43.8803473" lon="11.293412"><ele>406.79999999999995</ele><time>2026-04-24T13:34:12.65Z</time></trkpt><trkpt lat="43.8803764" lon="11.2933026"><ele>404.0</ele><time>2026-04-24T13:34:13.651Z</time></trkpt><trkpt lat="43.8803822" lon="11.2931895"><ele>403.99999999999994</ele><time>2026-04-24T13:34:14.651Z</time></trkpt><trkpt lat="43.8803598" lon="11.2930961"><ele>404.0</ele><time>2026-04-24T13:34:15.651Z</time></trkpt><trkpt lat="43.8803308" lon="11.2929986"><ele>404.0</ele><time>2026-04-24T13:34:16.651Z</time></trkpt><trkpt lat="43.880284" lon="11.2929065"><ele>404.0</ele><time>2026-04-24T13:34:17.651Z</time></trkpt><trkpt lat="43.8802211" lon="11.2928134"><ele>403.99999999999994</ele><time>2026-04-24T13:34:18.65Z</time></trkpt><trkpt lat="43.8801133" lon="11.2927733"><ele>404.0</ele><time>2026-04-24T13:34:19.65Z</time></trkpt><trkpt lat="43.8800066" lon="11.2927498"><ele>399.79999999999995</ele><time>2026-04-24T13:34:20.651Z</time></trkpt><trkpt lat="43.8799124" lon="11.2927149"><ele>395.59999999999997</ele><time>2026-04-24T13:34:21.651Z</time></trkpt><trkpt lat="43.8798158" lon="11.2927929"><ele>391.4</ele><time>2026-04-24T13:34:22.651Z</time></trkpt><trkpt lat="43.8797207" lon="11.2928435"><ele>387.2</ele><time>2026-04-24T13:34:23.651Z</time></trkpt><trkpt lat="43.879631" lon="11.2929212"><ele>383.0</ele><time>2026-04-24T13:34:24.65Z</time></trkpt><trkpt lat="43.8795617" lon="11.293002"><ele>383.59999999999997</ele><time>2026-04-24T13:34:25.651Z</time></trkpt><trkpt lat="43.8795101" lon="11.2931103"><ele>384.2</ele><time>2026-04-24T13:34:26.651Z</time></trkpt><trkpt lat="43.8794602" lon="11.2932186"><ele>384.8</ele><time>2026-04-24T13:34:27.651Z</time></trkpt><trkpt lat="43.8794029" lon="11.2933134"><ele>385.4</ele><time>2026-04-24T13:34:28.651Z</time></trkpt><trkpt lat="43.8793248" lon="11.2934078"><ele>386.0</ele><time>2026-04-24T13:34:29.651Z</time></trkpt><trkpt lat="43.8792231" lon="11.2934548"><ele>386.0</ele><time>2026-04-24T13:34:30.651Z</time></trkpt><trkpt lat="43.8791226" lon="11.2934875"><ele>386.0</ele><time>2026-04-24T13:34:31.651Z</time></trkpt><trkpt lat="43.8790266" lon="11.2934802"><ele>386.0</ele><time>2026-04-24T13:34:32.651Z</time></trkpt><trkpt lat="43.8789443" lon="11.2934421"><ele>386.0</ele><time>2026-04-24T13:34:33.651Z</time></trkpt><trkpt lat="43.8788711" lon="11.293368"><ele>386.0</ele><time>2026-04-24T13:34:34.651Z</time></trkpt><trkpt lat="43.8787881" lon="11.2932818"><ele>386.0</ele><time>2026-04-24T13:34:35.651Z</time></trkpt><trkpt lat="43.8787139" lon="11.2931842"><ele>386.0</ele><time>2026-04-24T13:34:36.649Z</time></trkpt><trkpt lat="43.8786434" lon="11.2930568"><ele>386.0</ele><time>2026-04-24T13:34:37.651Z</time></trkpt><trkpt lat="43.878579" lon="11.2929139"><ele>386.0</ele><time>2026-04-24T13:34:38.651Z</time></trkpt><trkpt lat="43.8785031" lon="11.2928022"><ele>381.5</ele><time>2026-04-24T13:34:39.651Z</time></trkpt><trkpt lat="43.8784146" lon="11.2927"><ele>377.0</ele><time>2026-04-24T13:34:40.65Z</time></trkpt><trkpt lat="43.8783184" lon="11.2926223"><ele>372.5</ele><time>2026-04-24T13:34:41.651Z</time></trkpt><trkpt lat="43.8782127" lon="11.2925564"><ele>368.0</ele><time>2026-04-24T13:34:42.651Z</time></trkpt><trkpt lat="43.8780852" lon="11.2925438"><ele>368.0</ele><time>2026-04-24T13:34:43.651Z</time></trkpt><trkpt lat="43.8779558" lon="11.2925495"><ele>368.0</ele><time>2026-04-24T13:34:44.651Z</time></trkpt><trkpt lat="43.8778253" lon="11.2925416"><ele>368.0</ele><time>2026-04-24T13:34:45.651Z</time></trkpt><trkpt lat="43.8777118" lon="11.2925226"><ele>368.0</ele><time>2026-04-24T13:34:46.651Z</time></trkpt><trkpt lat="43.8775973" lon="11.2925249"><ele>365.75</ele><time>2026-04-24T13:34:47.65Z</time></trkpt><trkpt lat="43.877481" lon="11.2925487"><ele>363.5</ele><time>2026-04-24T13:34:48.651Z</time></trkpt><trkpt lat="43.8773548" lon="11.2925753"><ele>361.25</ele><time>2026-04-24T13:34:49.651Z</time></trkpt><trkpt lat="43.8772278" lon="11.2926079"><ele>359.0</ele><time>2026-04-24T13:34:50.651Z</time></trkpt><trkpt lat="43.877124" lon="11.292625"><ele>359.0</ele><time>2026-04-24T13:34:51.65Z</time></trkpt><trkpt lat="43.8770181" lon="11.2926176"><ele>359.0</ele><time>2026-04-24T13:34:52.651Z</time></trkpt><trkpt lat="43.8769085" lon="11.2926005"><ele>359.0</ele><time>2026-04-24T13:34:53.651Z</time></trkpt><trkpt lat="43.8767885" lon="11.292515"><ele>359.0</ele><time>2026-04-24T13:34:54.651Z</time></trkpt><trkpt lat="43.876673" lon="11.2924501"><ele>358.0</ele><time>2026-04-24T13:34:55.651Z</time></trkpt><trkpt lat="43.8765639" lon="11.2923857"><ele>357.0</ele><time>2026-04-24T13:34:56.651Z</time></trkpt><trkpt lat="43.8764619" lon="11.2923135"><ele>356.0</ele><time>2026-04-24T13:34:57.651Z</time></trkpt><trkpt lat="43.8763668" lon="11.2922293"><ele>355.0</ele><time>2026-04-24T13:34:58.651Z</time></trkpt><trkpt lat="43.8762711" lon="11.2921527"><ele>352.6</ele><time>2026-04-24T13:34:59.651Z</time></trkpt><trkpt lat="43.8761823" lon="11.2920922"><ele>350.2</ele><time>2026-04-24T13:35:00.651Z</time></trkpt><trkpt lat="43.8760932" lon="11.2920733"><ele>347.79999999999995</ele><time>2026-04-24T13:35:01.651Z</time></trkpt><trkpt lat="43.8759862" lon="11.2920174"><ele>345.4</ele><time>2026-04-24T13:35:03.65Z</time></trkpt><trkpt lat="43.8759205" lon="11.2918782"><ele>343.0</ele><time>2026-04-24T13:35:05.651Z</time></trkpt><trkpt lat="43.8759033" lon="11.291748"><ele>343.0</ele><time>2026-04-24T13:35:07.651Z</time></trkpt><trkpt lat="43.8758311" lon="11.2916721"><ele>343.0</ele><time>2026-04-24T13:35:11.65Z</time></trkpt><trkpt lat="43.8757625" lon="11.291681"><ele>343.0</ele><time>2026-04-24T13:35:12.65Z</time></trkpt><trkpt lat="43.8756627" lon="11.2917244"><ele>343.0</ele><time>2026-04-24T13:35:13.651Z</time></trkpt><trkpt lat="43.8755546" lon="11.2917746"><ele>343.0</ele><time>2026-04-24T13:35:14.649Z</time></trkpt><trkpt lat="43.8754437" lon="11.291826"><ele>343.0</ele><time>2026-04-24T13:35:15.651Z</time></trkpt><trkpt lat="43.8753268" lon="11.2918652"><ele>343.0</ele><time>2026-04-24T13:35:16.651Z</time></trkpt><trkpt lat="43.8752034" lon="11.2918924"><ele>343.0</ele><time>2026-04-24T13:35:17.651Z</time></trkpt><trkpt lat="43.8750752" lon="11.2919053"><ele>343.0</ele><time>2026-04-24T13:35:18.651Z</time></trkpt><trkpt lat="43.8749463" lon="11.291888"><ele>344.25</ele><time>2026-04-24T13:35:19.651Z</time></trkpt><trkpt lat="43.8748238" lon="11.2918454"><ele>345.5</ele><time>2026-04-24T13:35:20.651Z</time></trkpt><trkpt lat="43.8747075" lon="11.2917928"><ele>346.75</ele><time>2026-04-24T13:35:21.651Z</time></trkpt><trkpt lat="43.8745925" lon="11.2917314"><ele>348.0</ele><time>2026-04-24T13:35:22.651Z</time></trkpt><trkpt lat="43.874476" lon="11.2916654"><ele>348.0</ele><time>2026-04-24T13:35:23.651Z</time></trkpt><trkpt lat="43.8743592" lon="11.2915937"><ele>348.0</ele><time>2026-04-24T13:35:24.651Z</time></trkpt><trkpt lat="43.8742413" lon="11.2915208"><ele>348.0</ele><time>2026-04-24T13:35:25.651Z</time></trkpt><trkpt lat="43.8741224" lon="11.291449"><ele>348.0</ele><time>2026-04-24T13:35:26.651Z</time></trkpt><trkpt lat="43.8740059" lon="11.2913708"><ele>350.25</ele><time>2026-04-24T13:35:27.651Z</time></trkpt><trkpt lat="43.873891" lon="11.2912913"><ele>352.5</ele><time>2026-04-24T13:35:28.651Z</time></trkpt><trkpt lat="43.8737773" lon="11.2912084"><ele>354.75</ele><time>2026-04-24T13:35:29.651Z</time></trkpt><trkpt lat="43.8736617" lon="11.2911258"><ele>357.0</ele><time>2026-04-24T13:35:30.651Z</time></trkpt><trkpt lat="43.8735437" lon="11.2910436"><ele>356.0</ele><time>2026-04-24T13:35:31.651Z</time></trkpt><trkpt lat="43.8734246" lon="11.2909646"><ele>355.0</ele><time>2026-04-24T13:35:32.651Z</time></trkpt><trkpt lat="43.8733027" lon="11.2908871"><ele>354.0</ele><time>2026-04-24T13:35:33.65Z</time></trkpt><trkpt lat="43.8731766" lon="11.2908279"><ele>353.0</ele><time>2026-04-24T13:35:34.65Z</time></trkpt><trkpt lat="43.8730466" lon="11.2907828"><ele>353.0</ele><time>2026-04-24T13:35:35.65Z</time></trkpt><trkpt lat="43.872915" lon="11.2907581"><ele>353.0</ele><time>2026-04-24T13:35:36.65Z</time></trkpt><trkpt lat="43.8727852" lon="11.2907628"><ele>353.0</ele><time>2026-04-24T13:35:37.651Z</time></trkpt><trkpt lat="43.8726594" lon="11.2907972"><ele>353.0</ele><time>2026-04-24T13:35:38.65Z</time></trkpt><trkpt lat="43.8725368" lon="11.2908537"><ele>354.5</ele><time>2026-04-24T13:35:39.651Z</time></trkpt><trkpt lat="43.8724126" lon="11.2909145"><ele>356.0</ele><time>2026-04-24T13:35:40.651Z</time></trkpt><trkpt lat="43.8722865" lon="11.2909794"><ele>357.5</ele><time>2026-04-24T13:35:41.651Z</time></trkpt><trkpt lat="43.8721585" lon="11.2910456"><ele>359.0</ele><time>2026-04-24T13:35:42.651Z</time></trkpt><trkpt lat="43.8720318" lon="11.2911165"><ele>359.0</ele><time>2026-04-24T13:35:43.651Z</time></trkpt><trkpt lat="43.8719036" lon="11.2911883"><ele>359.0</ele><time>2026-04-24T13:35:44.651Z</time></trkpt><trkpt lat="43.871776" lon="11.2912591"><ele>359.0</ele><time>2026-04-24T13:35:45.651Z</time></trkpt><trkpt lat="43.8716492" lon="11.2913275"><ele>359.0</ele><time>2026-04-24T13:35:46.65Z</time></trkpt><trkpt lat="43.8715236" lon="11.2913972"><ele>358.25</ele><time>2026-04-24T13:35:47.651Z</time></trkpt><trkpt lat="43.8713955" lon="11.2914539"><ele>357.5</ele><time>2026-04-24T13:35:48.651Z</time></trkpt><trkpt lat="43.8712647" lon="11.2914859"><ele>356.75</ele><time>2026-04-24T13:35:49.651Z</time></trkpt><trkpt lat="43.8711293" lon="11.2914836"><ele>356.0</ele><time>2026-04-24T13:35:50.651Z</time></trkpt><trkpt lat="43.8710053" lon="11.2914626"><ele>356.8</ele><time>2026-04-24T13:35:51.65Z</time></trkpt><trkpt lat="43.8709009" lon="11.2914353"><ele>357.6</ele><time>2026-04-24T13:35:52.65Z</time></trkpt><trkpt lat="43.8708163" lon="11.2914154"><ele>358.4</ele><time>2026-04-24T13:35:53.65Z</time></trkpt><trkpt lat="43.8707349" lon="11.291354"><ele>359.2</ele><time>2026-04-24T13:35:55.651Z</time></trkpt><trkpt lat="43.8707371" lon="11.2911822"><ele>360.0</ele><time>2026-04-24T13:35:57.651Z</time></trkpt><trkpt lat="43.8707677" lon="11.2910387"><ele>361.4</ele><time>2026-04-24T13:35:58.65Z</time></trkpt><trkpt lat="43.8708015" lon="11.2908635"><ele>362.8</ele><time>2026-04-24T13:35:59.65Z</time></trkpt><trkpt lat="43.8708278" lon="11.2907017"><ele>364.20000000000005</ele><time>2026-04-24T13:36:00.649Z</time></trkpt><trkpt lat="43.8708508" lon="11.2905725"><ele>365.6</ele><time>2026-04-24T13:36:01.651Z</time></trkpt><trkpt lat="43.8708747" lon="11.2904674"><ele>367.0</ele><time>2026-04-24T13:36:02.651Z</time></trkpt><trkpt lat="43.8708968" lon="11.29036"><ele>369.40000000000003</ele><time>2026-04-24T13:36:03.651Z</time></trkpt><trkpt lat="43.8709206" lon="11.2902488"><ele>371.8</ele><time>2026-04-24T13:36:04.65Z</time></trkpt><trkpt lat="43.8709505" lon="11.2901375"><ele>374.2</ele><time>2026-04-24T13:36:05.651Z</time></trkpt><trkpt lat="43.8709892" lon="11.2900219"><ele>376.6</ele><time>2026-04-24T13:36:06.651Z</time></trkpt><trkpt lat="43.871042" lon="11.2898995"><ele>379.0</ele><time>2026-04-24T13:36:07.651Z</time></trkpt><trkpt lat="43.8711109" lon="11.2897801"><ele>384.0</ele><time>2026-04-24T13:36:08.649Z</time></trkpt><trkpt lat="43.871184" lon="11.2896581"><ele>389.0</ele><time>2026-04-24T13:36:09.651Z</time></trkpt><trkpt lat="43.8712499" lon="11.2895533"><ele>394.0</ele><time>2026-04-24T13:36:10.651Z</time></trkpt><trkpt lat="43.871299" lon="11.2894676"><ele>399.0</ele><time>2026-04-24T13:36:11.651Z</time></trkpt><trkpt lat="43.8713026" lon="11.2893444"><ele>404.0</ele><time>2026-04-24T13:36:13.651Z</time></trkpt><trkpt lat="43.8712167" lon="11.2892194"><ele>403.99999999999994</ele><time>2026-04-24T13:36:15.651Z</time></trkpt><trkpt lat="43.8711551" lon="11.2891569"><ele>404.0</ele><time>2026-04-24T13:36:16.651Z</time></trkpt><trkpt lat="43.87108" lon="11.2890985"><ele>404.0</ele><time>2026-04-24T13:36:17.651Z</time></trkpt><trkpt lat="43.8709956" lon="11.2890409"><ele>404.0</ele><time>2026-04-24T13:36:18.651Z</time></trkpt><trkpt lat="43.8709186" lon="11.2889868"><ele>403.99999999999994</ele><time>2026-04-24T13:36:19.651Z</time></trkpt><trkpt lat="43.8708499" lon="11.2889118"><ele>404.0</ele><time>2026-04-24T13:36:20.651Z</time></trkpt><trkpt lat="43.8707963" lon="11.2888052"><ele>405.4</ele><time>2026-04-24T13:36:21.651Z</time></trkpt><trkpt lat="43.8707429" lon="11.2886932"><ele>406.79999999999995</ele><time>2026-04-24T13:36:22.651Z</time></trkpt><trkpt lat="43.8706816" lon="11.2885883"><ele>408.20000000000005</ele><time>2026-04-24T13:36:23.65Z</time></trkpt><trkpt lat="43.8706212" lon="11.2884773"><ele>409.6</ele><time>2026-04-24T13:36:24.651Z</time></trkpt><trkpt lat="43.8705638" lon="11.2883551"><ele>411.0</ele><time>2026-04-24T13:36:25.651Z</time></trkpt><trkpt lat="43.8705163" lon="11.2882335"><ele>411.0</ele><time>2026-04-24T13:36:26.65Z</time></trkpt><trkpt lat="43.8704947" lon="11.288124"><ele>411.0</ele><time>2026-04-24T13:36:27.651Z</time></trkpt><trkpt lat="43.870454" lon="11.2880042"><ele>411.0</ele><time>2026-04-24T13:36:28.651Z</time></trkpt><trkpt lat="43.870405" lon="11.2878795"><ele>411.0</ele><time>2026-04-24T13:36:29.651Z</time></trkpt><trkpt lat="43.8703526" lon="11.2877606"><ele>411.0</ele><time>2026-04-24T13:36:30.651Z</time></trkpt><trkpt lat="43.8703067" lon="11.2876708"><ele>410.20000000000005</ele><time>2026-04-24T13:36:31.651Z</time></trkpt><trkpt lat="43.8702539" lon="11.287569"><ele>409.40000000000003</ele><time>2026-04-24T13:36:32.651Z</time></trkpt><trkpt lat="43.8702007" lon="11.2874674"><ele>408.6</ele><time>2026-04-24T13:36:33.65Z</time></trkpt><trkpt lat="43.870121" lon="11.2873809"><ele>407.8</ele><time>2026-04-24T13:36:34.651Z</time></trkpt><trkpt lat="43.8700407" lon="11.287305"><ele>407.0</ele><time>2026-04-24T13:36:35.651Z</time></trkpt><trkpt lat="43.8699525" lon="11.2872342"><ele>410.8</ele><time>2026-04-24T13:36:36.651Z</time></trkpt><trkpt lat="43.869862" lon="11.2871318"><ele>414.6</ele><time>2026-04-24T13:36:38.65Z</time></trkpt><trkpt lat="43.8698129" lon="11.2870559"><ele>418.40000000000003</ele><time>2026-04-24T13:36:39.651Z</time></trkpt><trkpt lat="43.8697495" lon="11.286918"><ele>422.20000000000005</ele><time>2026-04-24T13:36:41.651Z</time></trkpt><trkpt lat="43.8697384" lon="11.2868253"><ele>426.0</ele><time>2026-04-24T13:36:42.651Z</time></trkpt><trkpt lat="43.8697422" lon="11.2867212"><ele>426.0</ele><time>2026-04-24T13:36:43.651Z</time></trkpt><trkpt lat="43.8697571" lon="11.2866133"><ele>426.0</ele><time>2026-04-24T13:36:44.651Z</time></trkpt><trkpt lat="43.8697748" lon="11.2864967"><ele>426.0</ele><time>2026-04-24T13:36:45.65Z</time></trkpt><trkpt lat="43.8698089" lon="11.2864152"><ele>426.0</ele><time>2026-04-24T13:36:46.65Z</time></trkpt><trkpt lat="43.8698367" lon="11.2862732"><ele>426.0</ele><time>2026-04-24T13:36:48.651Z</time></trkpt><trkpt lat="43.8697722" lon="11.2861285"><ele>428.0</ele><time>2026-04-24T13:36:50.651Z</time></trkpt><trkpt lat="43.8697061" lon="11.2860779"><ele>430.0</ele><time>2026-04-24T13:36:51.651Z</time></trkpt><trkpt lat="43.869615" lon="11.2860489"><ele>432.0</ele><time>2026-04-24T13:36:52.651Z</time></trkpt><trkpt lat="43.8695219" lon="11.2860189"><ele>434.0</ele><time>2026-04-24T13:36:53.651Z</time></trkpt><trkpt lat="43.8694348" lon="11.2860058"><ele>436.0</ele><time>2026-04-24T13:36:54.651Z</time></trkpt><trkpt lat="43.8693476" lon="11.2859865"><ele>438.0</ele><time>2026-04-24T13:36:55.651Z</time></trkpt><trkpt lat="43.8692475" lon="11.286022"><ele>438.0</ele><time>2026-04-24T13:36:56.651Z</time></trkpt><trkpt lat="43.8691862" lon="11.2861207"><ele>438.0</ele><time>2026-04-24T13:36:57.65Z</time></trkpt><trkpt lat="43.8691359" lon="11.2861753"><ele>438.0</ele><time>2026-04-24T13:36:58.651Z</time></trkpt><trkpt lat="43.8690705" lon="11.2862351"><ele>438.0</ele><time>2026-04-24T13:36:59.651Z</time></trkpt><trkpt lat="43.8690109" lon="11.2862843"><ele>438.0</ele><time>2026-04-24T13:37:00.65Z</time></trkpt><trkpt lat="43.8689331" lon="11.2862766"><ele>438.0</ele><time>2026-04-24T13:37:01.65Z</time></trkpt><trkpt lat="43.8688623" lon="11.2861969"><ele>438.0</ele><time>2026-04-24T13:37:02.65Z</time></trkpt><trkpt lat="43.8687833" lon="11.286164"><ele>438.0</ele><time>2026-04-24T13:37:03.65Z</time></trkpt><trkpt lat="43.8687005" lon="11.2861247"><ele>438.0</ele><time>2026-04-24T13:37:04.651Z</time></trkpt><trkpt lat="43.8686157" lon="11.2860696"><ele>438.0</ele><time>2026-04-24T13:37:05.651Z</time></trkpt><trkpt lat="43.8685352" lon="11.2860117"><ele>438.0</ele><time>2026-04-24T13:37:06.65Z</time></trkpt><trkpt lat="43.8684472" lon="11.2859657"><ele>438.0</ele><time>2026-04-24T13:37:07.651Z</time></trkpt><trkpt lat="43.8683652" lon="11.2859191"><ele>438.3333333333333</ele><time>2026-04-24T13:37:08.651Z</time></trkpt><trkpt lat="43.8682836" lon="11.2858872"><ele>438.66666666666663</ele><time>2026-04-24T13:37:09.651Z</time></trkpt><trkpt lat="43.8682075" lon="11.2858247"><ele>439.0</ele><time>2026-04-24T13:37:10.651Z</time></trkpt><trkpt lat="43.8681354" lon="11.285768"><ele>439.3333333333333</ele><time>2026-04-24T13:37:11.651Z</time></trkpt><trkpt lat="43.8680714" lon="11.2857057"><ele>439.66666666666663</ele><time>2026-04-24T13:37:12.65Z</time></trkpt><trkpt lat="43.8680162" lon="11.2856531"><ele>440.0</ele><time>2026-04-24T13:37:13.651Z</time></trkpt><trkpt lat="43.867969" lon="11.2855667"><ele>440.66666666666663</ele><time>2026-04-24T13:37:14.651Z</time></trkpt><trkpt lat="43.8679182" lon="11.2854823"><ele>441.3333333333333</ele><time>2026-04-24T13:37:15.65Z</time></trkpt><trkpt lat="43.8678429" lon="11.2854198"><ele>442.0</ele><time>2026-04-24T13:37:16.65Z</time></trkpt><trkpt lat="43.8677792" lon="11.2853322"><ele>442.66666666666663</ele><time>2026-04-24T13:37:17.651Z</time></trkpt><trkpt lat="43.8677067" lon="11.2852429"><ele>443.3333333333333</ele><time>2026-04-24T13:37:18.651Z</time></trkpt><trkpt lat="43.8676391" lon="11.285152"><ele>444.0</ele><time>2026-04-24T13:37:19.651Z</time></trkpt><trkpt lat="43.8675582" lon="11.2850679"><ele>444.0</ele><time>2026-04-24T13:37:20.651Z</time></trkpt><trkpt lat="43.8674858" lon="11.2849957"><ele>444.0</ele><time>2026-04-24T13:37:21.651Z</time></trkpt><trkpt lat="43.8674309" lon="11.2849168"><ele>444.0</ele><time>2026-04-24T13:37:22.651Z</time></trkpt><trkpt lat="43.8673814" lon="11.2848316"><ele>444.0</ele><time>2026-04-24T13:37:23.651Z</time></trkpt><trkpt lat="43.8673463" lon="11.2847391"><ele>444.0</ele><time>2026-04-24T13:37:24.651Z</time></trkpt><trkpt lat="43.8673132" lon="11.284615"><ele>444.0</ele><time>2026-04-24T13:37:25.651Z</time></trkpt><trkpt lat="43.867279" lon="11.2844984"><ele>445.79999999999995</ele><time>2026-04-24T13:37:26.651Z</time></trkpt><trkpt lat="43.8672392" lon="11.2843677"><ele>447.59999999999997</ele><time>2026-04-24T13:37:27.651Z</time></trkpt><trkpt lat="43.8672045" lon="11.2842361"><ele>449.4</ele><time>2026-04-24T13:37:28.651Z</time></trkpt><trkpt lat="43.8671738" lon="11.2841008"><ele>451.2</ele><time>2026-04-24T13:37:29.65Z</time></trkpt><trkpt lat="43.8671504" lon="11.2839679"><ele>453.0</ele><time>2026-04-24T13:37:30.651Z</time></trkpt><trkpt lat="43.8671271" lon="11.2838346"><ele>454.79999999999995</ele><time>2026-04-24T13:37:31.651Z</time></trkpt><trkpt lat="43.8671081" lon="11.2837085"><ele>456.59999999999997</ele><time>2026-04-24T13:37:32.651Z</time></trkpt><trkpt lat="43.8670857" lon="11.283578"><ele>458.40000000000003</ele><time>2026-04-24T13:37:33.65Z</time></trkpt><trkpt lat="43.8670712" lon="11.2834332"><ele>460.20000000000005</ele><time>2026-04-24T13:37:34.651Z</time></trkpt><trkpt lat="43.8670583" lon="11.2832842"><ele>462.0</ele><time>2026-04-24T13:37:35.65Z</time></trkpt><trkpt lat="43.8670418" lon="11.2831442"><ele>464.20000000000005</ele><time>2026-04-24T13:37:36.651Z</time></trkpt><trkpt lat="43.8670296" lon="11.2829905"><ele>466.40000000000003</ele><time>2026-04-24T13:37:37.65Z</time></trkpt><trkpt lat="43.8670285" lon="11.2828692"><ele>468.59999999999997</ele><time>2026-04-24T13:37:38.651Z</time></trkpt><trkpt lat="43.8670202" lon="11.2827403"><ele>470.79999999999995</ele><time>2026-04-24T13:37:39.65Z</time></trkpt><trkpt lat="43.8670127" lon="11.2826034"><ele>473.0</ele><time>2026-04-24T13:37:40.651Z</time></trkpt><trkpt lat="43.8670104" lon="11.2824653"><ele>473.0</ele><time>2026-04-24T13:37:41.65Z</time></trkpt><trkpt lat="43.8670112" lon="11.2823526"><ele>472.99999999999994</ele><time>2026-04-24T13:37:42.651Z</time></trkpt><trkpt lat="43.8670027" lon="11.2822604"><ele>472.99999999999994</ele><time>2026-04-24T13:37:43.65Z</time></trkpt><trkpt lat="43.8669791" lon="11.2821221"><ele>473.0</ele><time>2026-04-24T13:37:45.651Z</time></trkpt><trkpt lat="43.8669376" lon="11.2820497"><ele>473.0</ele><time>2026-04-24T13:37:46.651Z</time></trkpt><trkpt lat="43.8668488" lon="11.2819058"><ele>473.4</ele><time>2026-04-24T13:37:48.651Z</time></trkpt><trkpt lat="43.8667939" lon="11.2817084"><ele>473.79999999999995</ele><time>2026-04-24T13:37:50.65Z</time></trkpt><trkpt lat="43.8667568" lon="11.2816028"><ele>474.2</ele><time>2026-04-24T13:37:51.65Z</time></trkpt><trkpt lat="43.8667266" lon="11.2815118"><ele>474.6</ele><time>2026-04-24T13:37:52.651Z</time></trkpt><trkpt lat="43.8667065" lon="11.281425"><ele>475.0</ele><time>2026-04-24T13:37:53.651Z</time></trkpt><trkpt lat="43.8666767" lon="11.2813048"><ele>475.0</ele><time>2026-04-24T13:37:55.651Z</time></trkpt><trkpt lat="43.8666034" lon="11.2812844"><ele>475.0</ele><time>2026-04-24T13:37:56.651Z</time></trkpt><trkpt lat="43.8665339" lon="11.281269"><ele>475.0</ele><time>2026-04-24T13:37:57.65Z</time></trkpt><trkpt lat="43.8664668" lon="11.2812809"><ele>475.0</ele><time>2026-04-24T13:37:58.651Z</time></trkpt><trkpt lat="43.8663193" lon="11.2811746"><ele>475.0</ele><time>2026-04-24T13:38:00.65Z</time></trkpt><trkpt lat="43.8662642" lon="11.2810993"><ele>475.00000000000006</ele><time>2026-04-24T13:38:01.651Z</time></trkpt><trkpt lat="43.8662103" lon="11.2810386"><ele>475.0</ele><time>2026-04-24T13:38:02.651Z</time></trkpt><trkpt lat="43.866167" lon="11.280974"><ele>475.0</ele><time>2026-04-24T13:38:03.651Z</time></trkpt><trkpt lat="43.8661177" lon="11.2808951"><ele>475.0</ele><time>2026-04-24T13:38:04.65Z</time></trkpt><trkpt lat="43.8660718" lon="11.2807982"><ele>475.00000000000006</ele><time>2026-04-24T13:38:05.651Z</time></trkpt><trkpt lat="43.8660392" lon="11.2807122"><ele>475.0</ele><time>2026-04-24T13:38:06.651Z</time></trkpt><trkpt lat="43.8660482" lon="11.2805803"><ele>475.2</ele><time>2026-04-24T13:38:08.651Z</time></trkpt><trkpt lat="43.8660093" lon="11.2804925"><ele>475.4</ele><time>2026-04-24T13:38:10.651Z</time></trkpt><trkpt lat="43.8659119" lon="11.2804816"><ele>475.6</ele><time>2026-04-24T13:38:14.651Z</time></trkpt><trkpt lat="43.8658438" lon="11.280576"><ele>475.8</ele><time>2026-04-24T13:38:16.651Z</time></trkpt><trkpt lat="43.8657256" lon="11.280728"><ele>476.0</ele><time>2026-04-24T13:38:18.651Z</time></trkpt><trkpt lat="43.865677" lon="11.2807999"><ele>473.66666666666663</ele><time>2026-04-24T13:38:19.65Z</time></trkpt><trkpt lat="43.8656242" lon="11.2808847"><ele>471.3333333333333</ele><time>2026-04-24T13:38:20.651Z</time></trkpt><trkpt lat="43.8655647" lon="11.2809659"><ele>469.0</ele><time>2026-04-24T13:38:21.651Z</time></trkpt><trkpt lat="43.8654828" lon="11.2810184"><ele>466.66666666666663</ele><time>2026-04-24T13:38:22.651Z</time></trkpt><trkpt lat="43.8654143" lon="11.2810869"><ele>464.3333333333333</ele><time>2026-04-24T13:38:23.651Z</time></trkpt><trkpt lat="43.8653376" lon="11.2811673"><ele>462.0</ele><time>2026-04-24T13:38:24.651Z</time></trkpt><trkpt lat="43.8652719" lon="11.2812711"><ele>462.0</ele><time>2026-04-24T13:38:25.651Z</time></trkpt><trkpt lat="43.8652046" lon="11.2813589"><ele>462.0</ele><time>2026-04-24T13:38:26.651Z</time></trkpt><trkpt lat="43.8651664" lon="11.2814379"><ele>462.0</ele><time>2026-04-24T13:38:27.651Z</time></trkpt><trkpt lat="43.8650984" lon="11.2815196"><ele>462.0</ele><time>2026-04-24T13:38:28.651Z</time></trkpt><trkpt lat="43.8650289" lon="11.2816241"><ele>462.0</ele><time>2026-04-24T13:38:29.651Z</time></trkpt><trkpt lat="43.8649709" lon="11.28173"><ele>462.0</ele><time>2026-04-24T13:38:30.651Z</time></trkpt><trkpt lat="43.8649215" lon="11.2818459"><ele>463.40000000000003</ele><time>2026-04-24T13:38:31.651Z</time></trkpt><trkpt lat="43.8648609" lon="11.2819479"><ele>464.80000000000007</ele><time>2026-04-24T13:38:32.65Z</time></trkpt><trkpt lat="43.8648048" lon="11.2820532"><ele>466.2</ele><time>2026-04-24T13:38:33.651Z</time></trkpt><trkpt lat="43.8647898" lon="11.2821975"><ele>467.6</ele><time>2026-04-24T13:38:34.65Z</time></trkpt><trkpt lat="43.8647528" lon="11.2823219"><ele>469.0</ele><time>2026-04-24T13:38:35.651Z</time></trkpt><trkpt lat="43.8647317" lon="11.2824153"><ele>469.00000000000006</ele><time>2026-04-24T13:38:36.651Z</time></trkpt><trkpt lat="43.8646734" lon="11.2824757"><ele>469.0</ele><time>2026-04-24T13:38:38.651Z</time></trkpt><trkpt lat="43.8646376" lon="11.2825516"><ele>469.0</ele><time>2026-04-24T13:38:45.65Z</time></trkpt><trkpt lat="43.8646269" lon="11.2826635"><ele>469.0</ele><time>2026-04-24T13:38:47.651Z</time></trkpt><trkpt lat="43.8646197" lon="11.2828149"><ele>469.00000000000006</ele><time>2026-04-24T13:38:49.651Z</time></trkpt><trkpt lat="43.864603" lon="11.282943"><ele>469.0</ele><time>2026-04-24T13:38:51.651Z</time></trkpt><trkpt lat="43.8645594" lon="11.2830516"><ele>468.50000000000006</ele><time>2026-04-24T13:38:53.651Z</time></trkpt><trkpt lat="43.8644521" lon="11.2831071"><ele>468.0</ele><time>2026-04-24T13:38:55.651Z</time></trkpt><trkpt lat="43.8643847" lon="11.283133"><ele>467.5</ele><time>2026-04-24T13:38:56.651Z</time></trkpt><trkpt lat="43.8643183" lon="11.2831447"><ele>467.0</ele><time>2026-04-24T13:38:57.651Z</time></trkpt><trkpt lat="43.8642504" lon="11.2831384"><ele>466.50000000000006</ele><time>2026-04-24T13:38:58.651Z</time></trkpt><trkpt lat="43.8641827" lon="11.2831241"><ele>466.0</ele><time>2026-04-24T13:38:59.65Z</time></trkpt><trkpt lat="43.8641151" lon="11.2830922"><ele>469.00000000000006</ele><time>2026-04-24T13:39:00.651Z</time></trkpt><trkpt lat="43.8640386" lon="11.283057"><ele>472.0</ele><time>2026-04-24T13:39:01.651Z</time></trkpt><trkpt lat="43.8639637" lon="11.2830124"><ele>475.0</ele><time>2026-04-24T13:39:02.651Z</time></trkpt><trkpt lat="43.8639006" lon="11.2829502"><ele>478.0</ele><time>2026-04-24T13:39:03.651Z</time></trkpt><trkpt lat="43.8638476" lon="11.2828627"><ele>481.00000000000006</ele><time>2026-04-24T13:39:04.651Z</time></trkpt><trkpt lat="43.8638036" lon="11.2827752"><ele>484.0</ele><time>2026-04-24T13:39:05.65Z</time></trkpt><trkpt lat="43.8637464" lon="11.2826588"><ele>484.0</ele><time>2026-04-24T13:39:07.651Z</time></trkpt><trkpt lat="43.8636785" lon="11.2825897"><ele>484.0</ele><time>2026-04-24T13:39:09.65Z</time></trkpt><trkpt lat="43.8635584" lon="11.2825802"><ele>484.0</ele><time>2026-04-24T13:39:10.651Z</time></trkpt><trkpt lat="43.8634237" lon="11.282582"><ele>484.0</ele><time>2026-04-24T13:39:11.651Z</time></trkpt><trkpt lat="43.8633025" lon="11.2825795"><ele>484.2</ele><time>2026-04-24T13:39:12.651Z</time></trkpt><trkpt lat="43.8632023" lon="11.282559"><ele>484.4</ele><time>2026-04-24T13:39:13.65Z</time></trkpt><trkpt lat="43.8631014" lon="11.282509"><ele>484.6</ele><time>2026-04-24T13:39:14.65Z</time></trkpt><trkpt lat="43.8630213" lon="11.2824256"><ele>484.8</ele><time>2026-04-24T13:39:15.651Z</time></trkpt><trkpt lat="43.8629445" lon="11.2823229"><ele>485.0</ele><time>2026-04-24T13:39:16.651Z</time></trkpt><trkpt lat="43.8628618" lon="11.2822113"><ele>488.25</ele><time>2026-04-24T13:39:17.65Z</time></trkpt><trkpt lat="43.8627778" lon="11.2821154"><ele>491.5</ele><time>2026-04-24T13:39:18.651Z</time></trkpt><trkpt lat="43.862675" lon="11.2820398"><ele>494.75</ele><time>2026-04-24T13:39:19.651Z</time></trkpt><trkpt lat="43.862567" lon="11.2819599"><ele>498.0</ele><time>2026-04-24T13:39:20.651Z</time></trkpt><trkpt lat="43.8624592" lon="11.2819191"><ele>498.0</ele><time>2026-04-24T13:39:21.651Z</time></trkpt><trkpt lat="43.8623316" lon="11.2819159"><ele>498.0</ele><time>2026-04-24T13:39:22.651Z</time></trkpt><trkpt lat="43.8622236" lon="11.2818749"><ele>498.0</ele><time>2026-04-24T13:39:23.65Z</time></trkpt><trkpt lat="43.8621171" lon="11.2818077"><ele>498.0</ele><time>2026-04-24T13:39:24.651Z</time></trkpt><trkpt lat="43.8620022" lon="11.2817594"><ele>498.0</ele><time>2026-04-24T13:39:25.651Z</time></trkpt><trkpt lat="43.8618752" lon="11.2817218"><ele>498.0</ele><time>2026-04-24T13:39:26.65Z</time></trkpt><trkpt lat="43.8617603" lon="11.2816655"><ele>498.0</ele><time>2026-04-24T13:39:27.65Z</time></trkpt><trkpt lat="43.8616486" lon="11.2816108"><ele>498.0</ele><time>2026-04-24T13:39:28.651Z</time></trkpt><trkpt lat="43.8615362" lon="11.2815473"><ele>497.6666666666667</ele><time>2026-04-24T13:39:29.651Z</time></trkpt><trkpt lat="43.8614926" lon="11.2814609"><ele>497.33333333333337</ele><time>2026-04-24T13:39:30.651Z</time></trkpt><trkpt lat="43.861409" lon="11.281391"><ele>497.0</ele><time>2026-04-24T13:39:31.651Z</time></trkpt><trkpt lat="43.8613383" lon="11.2813288"><ele>496.6666666666667</ele><time>2026-04-24T13:39:32.651Z</time></trkpt><trkpt lat="43.8612567" lon="11.2812928"><ele>496.33333333333337</ele><time>2026-04-24T13:39:33.651Z</time></trkpt><trkpt lat="43.8611846" lon="11.2812823"><ele>496.0</ele><time>2026-04-24T13:39:34.649Z</time></trkpt><trkpt lat="43.8610481" lon="11.2813922"><ele>493.5</ele><time>2026-04-24T13:39:36.651Z</time></trkpt><trkpt lat="43.8609913" lon="11.2815052"><ele>491.0</ele><time>2026-04-24T13:39:37.651Z</time></trkpt><trkpt lat="43.8609846" lon="11.2817202"><ele>488.5</ele><time>2026-04-24T13:39:38.651Z</time></trkpt><trkpt lat="43.8608866" lon="11.2818495"><ele>486.0</ele><time>2026-04-24T13:39:39.651Z</time></trkpt><trkpt lat="43.8608216" lon="11.2819678"><ele>486.0</ele><time>2026-04-24T13:39:40.651Z</time></trkpt><trkpt lat="43.8607241" lon="11.2820535"><ele>486.0</ele><time>2026-04-24T13:39:41.651Z</time></trkpt><trkpt lat="43.8606229" lon="11.2821152"><ele>486.0</ele><time>2026-04-24T13:39:42.651Z</time></trkpt><trkpt lat="43.8604929" lon="11.282156"><ele>486.0</ele><time>2026-04-24T13:39:43.651Z</time></trkpt><trkpt lat="43.8603634" lon="11.2821794"><ele>486.0</ele><time>2026-04-24T13:39:44.651Z</time></trkpt><trkpt lat="43.8602514" lon="11.2821767"><ele>486.0</ele><time>2026-04-24T13:39:45.651Z</time></trkpt><trkpt lat="43.8601474" lon="11.2821442"><ele>486.0</ele><time>2026-04-24T13:39:46.651Z</time></trkpt><trkpt lat="43.860042" lon="11.2820818"><ele>486.0</ele><time>2026-04-24T13:39:47.651Z</time></trkpt><trkpt lat="43.859924" lon="11.2819914"><ele>487.8</ele><time>2026-04-24T13:39:48.651Z</time></trkpt><trkpt lat="43.8598184" lon="11.281901"><ele>489.6</ele><time>2026-04-24T13:39:49.651Z</time></trkpt><trkpt lat="43.8597529" lon="11.2818004"><ele>491.4</ele><time>2026-04-24T13:39:50.651Z</time></trkpt><trkpt lat="43.8597176" lon="11.2816982"><ele>493.2</ele><time>2026-04-24T13:39:51.65Z</time></trkpt><trkpt lat="43.8597101" lon="11.2815791"><ele>495.0</ele><time>2026-04-24T13:39:52.65Z</time></trkpt><trkpt lat="43.8597194" lon="11.281459"><ele>495.6</ele><time>2026-04-24T13:39:53.651Z</time></trkpt><trkpt lat="43.8597448" lon="11.2812944"><ele>496.2</ele><time>2026-04-24T13:39:55.651Z</time></trkpt><trkpt lat="43.8597827" lon="11.2812078"><ele>496.79999999999995</ele><time>2026-04-24T13:39:56.651Z</time></trkpt><trkpt lat="43.8598379" lon="11.2811083"><ele>497.4</ele><time>2026-04-24T13:39:57.651Z</time></trkpt><trkpt lat="43.8599008" lon="11.2809878"><ele>498.0</ele><time>2026-04-24T13:39:58.65Z</time></trkpt><trkpt lat="43.8599599" lon="11.2808581"><ele>498.0</ele><time>2026-04-24T13:39:59.65Z</time></trkpt><trkpt lat="43.8600175" lon="11.2807105"><ele>498.0</ele><time>2026-04-24T13:40:00.651Z</time></trkpt><trkpt lat="43.8600694" lon="11.2805537"><ele>498.0</ele><time>2026-04-24T13:40:01.651Z</time></trkpt><trkpt lat="43.8601205" lon="11.2803889"><ele>498.0</ele><time>2026-04-24T13:40:02.651Z</time></trkpt><trkpt lat="43.8601692" lon="11.2802262"><ele>498.5</ele><time>2026-04-24T13:40:03.651Z</time></trkpt><trkpt lat="43.8602156" lon="11.2800592"><ele>499.0</ele><time>2026-04-24T13:40:04.651Z</time></trkpt><trkpt lat="43.8602537" lon="11.2798912"><ele>499.5</ele><time>2026-04-24T13:40:05.65Z</time></trkpt><trkpt lat="43.8602828" lon="11.2797101"><ele>500.0</ele><time>2026-04-24T13:40:06.651Z</time></trkpt><trkpt lat="43.8603081" lon="11.2795296"><ele>501.0</ele><time>2026-04-24T13:40:07.651Z</time></trkpt><trkpt lat="43.8603157" lon="11.2793432"><ele>502.0</ele><time>2026-04-24T13:40:08.651Z</time></trkpt><trkpt lat="43.8603235" lon="11.2791453"><ele>503.0</ele><time>2026-04-24T13:40:09.65Z</time></trkpt><trkpt lat="43.8603211" lon="11.2789505"><ele>504.0</ele><time>2026-04-24T13:40:10.651Z</time></trkpt><trkpt lat="43.8602569" lon="11.2787802"><ele>504.0</ele><time>2026-04-24T13:40:11.651Z</time></trkpt><trkpt lat="43.8602308" lon="11.2786083"><ele>504.0</ele><time>2026-04-24T13:40:12.651Z</time></trkpt><trkpt lat="43.8602113" lon="11.2784828"><ele>504.0</ele><time>2026-04-24T13:40:13.651Z</time></trkpt><trkpt lat="43.8602183" lon="11.2783553"><ele>504.0</ele><time>2026-04-24T13:40:14.651Z</time></trkpt><trkpt lat="43.8602411" lon="11.2782081"><ele>504.0</ele><time>2026-04-24T13:40:15.651Z</time></trkpt><trkpt lat="43.8602801" lon="11.27806"><ele>505.5</ele><time>2026-04-24T13:40:16.65Z</time></trkpt><trkpt lat="43.8603254" lon="11.2779017"><ele>507.0</ele><time>2026-04-24T13:40:17.651Z</time></trkpt><trkpt lat="43.8603721" lon="11.2777413"><ele>508.5</ele><time>2026-04-24T13:40:18.651Z</time></trkpt><trkpt lat="43.8604164" lon="11.2775751"><ele>510.0</ele><time>2026-04-24T13:40:19.651Z</time></trkpt><trkpt lat="43.8604673" lon="11.2774158"><ele>512.5</ele><time>2026-04-24T13:40:20.651Z</time></trkpt><trkpt lat="43.8605204" lon="11.2772508"><ele>515.0</ele><time>2026-04-24T13:40:21.65Z</time></trkpt><trkpt lat="43.8605736" lon="11.2770802"><ele>517.5</ele><time>2026-04-24T13:40:22.65Z</time></trkpt><trkpt lat="43.8606285" lon="11.2769063"><ele>520.0</ele><time>2026-04-24T13:40:23.651Z</time></trkpt><trkpt lat="43.8606952" lon="11.2767314"><ele>520.0</ele><time>2026-04-24T13:40:24.651Z</time></trkpt><trkpt lat="43.8607811" lon="11.276528"><ele>520.0</ele><time>2026-04-24T13:40:25.651Z</time></trkpt><trkpt lat="43.8608757" lon="11.2763038"><ele>520.0</ele><time>2026-04-24T13:40:26.651Z</time></trkpt><trkpt lat="43.8609735" lon="11.2761012"><ele>523.0</ele><time>2026-04-24T13:40:27.65Z</time></trkpt><trkpt lat="43.8610796" lon="11.2759211"><ele>526.0</ele><time>2026-04-24T13:40:28.651Z</time></trkpt><trkpt lat="43.8611905" lon="11.2757634"><ele>529.0</ele><time>2026-04-24T13:40:29.65Z</time></trkpt><trkpt lat="43.8613455" lon="11.2757046"><ele>529.0</ele><time>2026-04-24T13:40:30.65Z</time></trkpt><trkpt lat="43.8615093" lon="11.2756233"><ele>529.0</ele><time>2026-04-24T13:40:31.651Z</time></trkpt><trkpt lat="43.8616524" lon="11.2755132"><ele>529.0</ele><time>2026-04-24T13:40:32.651Z</time></trkpt><trkpt lat="43.8617655" lon="11.2753878"><ele>533.25</ele><time>2026-04-24T13:40:33.652Z</time></trkpt><trkpt lat="43.8618568" lon="11.2752578"><ele>537.5</ele><time>2026-04-24T13:40:34.652Z</time></trkpt><trkpt lat="43.8619555" lon="11.2751649"><ele>541.75</ele><time>2026-04-24T13:40:35.652Z</time></trkpt><trkpt lat="43.8620569" lon="11.2751205"><ele>546.0</ele><time>2026-04-24T13:40:36.652Z</time></trkpt><trkpt lat="43.8621622" lon="11.2751169"><ele>546.0</ele><time>2026-04-24T13:40:37.652Z</time></trkpt><trkpt lat="43.8622599" lon="11.2751188"><ele>546.0</ele><time>2026-04-24T13:40:38.652Z</time></trkpt><trkpt lat="43.862374" lon="11.2751642"><ele>546.0</ele><time>2026-04-24T13:40:39.652Z</time></trkpt><trkpt lat="43.8623708" lon="11.2753503"><ele>546.0</ele><time>2026-04-24T13:40:40.65Z</time></trkpt><trkpt lat="43.8623847" lon="11.2755027"><ele>545.0</ele><time>2026-04-24T13:40:41.652Z</time></trkpt><trkpt lat="43.8623794" lon="11.2756623"><ele>544.0</ele><time>2026-04-24T13:40:42.652Z</time></trkpt><trkpt lat="43.8623497" lon="11.2758302"><ele>543.0</ele><time>2026-04-24T13:40:43.651Z</time></trkpt><trkpt lat="43.8623193" lon="11.2759852"><ele>542.0</ele><time>2026-04-24T13:40:44.652Z</time></trkpt><trkpt lat="43.8622883" lon="11.2761373"><ele>542.0</ele><time>2026-04-24T13:40:45.652Z</time></trkpt><trkpt lat="43.8622545" lon="11.2762867"><ele>542.0</ele><time>2026-04-24T13:40:46.652Z</time></trkpt><trkpt lat="43.8622109" lon="11.2764292"><ele>542.0</ele><time>2026-04-24T13:40:47.652Z</time></trkpt><trkpt lat="43.862155" lon="11.2765626"><ele>542.0</ele><time>2026-04-24T13:40:48.652Z</time></trkpt><trkpt lat="43.8620944" lon="11.2766919"><ele>542.0</ele><time>2026-04-24T13:40:49.652Z</time></trkpt><trkpt lat="43.8620292" lon="11.2768224"><ele>543.0</ele><time>2026-04-24T13:40:50.652Z</time></trkpt><trkpt lat="43.8619705" lon="11.2769595"><ele>544.0</ele><time>2026-04-24T13:40:51.652Z</time></trkpt><trkpt lat="43.8619344" lon="11.2771159"><ele>545.0</ele><time>2026-04-24T13:40:52.652Z</time></trkpt><trkpt lat="43.8619273" lon="11.2772831"><ele>546.0</ele><time>2026-04-24T13:40:53.652Z</time></trkpt><trkpt lat="43.8619475" lon="11.2774522"><ele>546.0</ele><time>2026-04-24T13:40:54.652Z</time></trkpt><trkpt lat="43.8619858" lon="11.2775966"><ele>546.0</ele><time>2026-04-24T13:40:55.652Z</time></trkpt><trkpt lat="43.8620525" lon="11.2777248"><ele>546.0</ele><time>2026-04-24T13:40:56.651Z</time></trkpt><trkpt lat="43.8621432" lon="11.2778196"><ele>546.0</ele><time>2026-04-24T13:40:57.652Z</time></trkpt><trkpt lat="43.8622515" lon="11.2778665"><ele>546.0</ele><time>2026-04-24T13:40:58.652Z</time></trkpt><trkpt lat="43.8623703" lon="11.2778647"><ele>546.0</ele><time>2026-04-24T13:40:59.652Z</time></trkpt><trkpt lat="43.8624958" lon="11.277841"><ele>546.0</ele><time>2026-04-24T13:41:00.652Z</time></trkpt><trkpt lat="43.8626194" lon="11.2778256"><ele>546.0</ele><time>2026-04-24T13:41:01.652Z</time></trkpt><trkpt lat="43.8627497" lon="11.2778381"><ele>544.75</ele><time>2026-04-24T13:41:02.651Z</time></trkpt><trkpt lat="43.862871" lon="11.2778795"><ele>543.5</ele><time>2026-04-24T13:41:03.652Z</time></trkpt><trkpt lat="43.862982" lon="11.2779751"><ele>542.25</ele><time>2026-04-24T13:41:04.652Z</time></trkpt><trkpt lat="43.8630896" lon="11.2780782"><ele>541.0</ele><time>2026-04-24T13:41:05.652Z</time></trkpt><trkpt lat="43.8632087" lon="11.2781402"><ele>541.0</ele><time>2026-04-24T13:41:06.652Z</time></trkpt><trkpt lat="43.8633317" lon="11.2781737"><ele>541.0</ele><time>2026-04-24T13:41:07.652Z</time></trkpt><trkpt lat="43.8634542" lon="11.2781832"><ele>541.0</ele><time>2026-04-24T13:41:08.651Z</time></trkpt><trkpt lat="43.863574" lon="11.2781851"><ele>541.0</ele><time>2026-04-24T13:41:09.651Z</time></trkpt><trkpt lat="43.863687" lon="11.2781548"><ele>542.6</ele><time>2026-04-24T13:41:10.651Z</time></trkpt><trkpt lat="43.8637711" lon="11.2780866"><ele>544.2</ele><time>2026-04-24T13:41:11.652Z</time></trkpt><trkpt lat="43.8638182" lon="11.2779985"><ele>545.8</ele><time>2026-04-24T13:41:12.652Z</time></trkpt><trkpt lat="43.8637768" lon="11.2778334"><ele>547.4</ele><time>2026-04-24T13:41:14.652Z</time></trkpt><trkpt lat="43.8636983" lon="11.2777751"><ele>549.0</ele><time>2026-04-24T13:41:15.652Z</time></trkpt><trkpt lat="43.8636043" lon="11.2777296"><ele>549.0</ele><time>2026-04-24T13:41:16.652Z</time></trkpt><trkpt lat="43.8635075" lon="11.2776781"><ele>549.0</ele><time>2026-04-24T13:41:17.652Z</time></trkpt><trkpt lat="43.8634327" lon="11.277638"><ele>549.0</ele><time>2026-04-24T13:41:18.652Z</time></trkpt><trkpt lat="43.8633658" lon="11.2775668"><ele>549.0</ele><time>2026-04-24T13:41:20.652Z</time></trkpt><trkpt lat="43.8634262" lon="11.2774872"><ele>549.0</ele><time>2026-04-24T13:41:24.651Z</time></trkpt><trkpt lat="43.8635727" lon="11.2774803"><ele>549.0</ele><time>2026-04-24T13:41:26.65Z</time></trkpt><trkpt lat="43.8636621" lon="11.2774304"><ele>549.0</ele><time>2026-04-24T13:41:27.652Z</time></trkpt><trkpt lat="43.8637417" lon="11.2773408"><ele>549.0</ele><time>2026-04-24T13:41:28.652Z</time></trkpt><trkpt lat="43.8638013" lon="11.277227"><ele>549.0</ele><time>2026-04-24T13:41:29.652Z</time></trkpt><trkpt lat="43.8638339" lon="11.2771049"><ele>549.0</ele><time>2026-04-24T13:41:30.652Z</time></trkpt><trkpt lat="43.863848" lon="11.2769996"><ele>550.1666666666666</ele><time>2026-04-24T13:41:31.652Z</time></trkpt><trkpt lat="43.8638576" lon="11.2768889"><ele>551.3333333333334</ele><time>2026-04-24T13:41:32.652Z</time></trkpt><trkpt lat="43.8638655" lon="11.2767747"><ele>552.5</ele><time>2026-04-24T13:41:33.652Z</time></trkpt><trkpt lat="43.8638699" lon="11.2766588"><ele>553.6666666666667</ele><time>2026-04-24T13:41:34.652Z</time></trkpt><trkpt lat="43.8638767" lon="11.2765485"><ele>554.8333333333334</ele><time>2026-04-24T13:41:35.652Z</time></trkpt><trkpt lat="43.8638839" lon="11.2764547"><ele>556.0</ele><time>2026-04-24T13:41:36.65Z</time></trkpt><trkpt lat="43.8638961" lon="11.2762838"><ele>556.6</ele><time>2026-04-24T13:41:38.652Z</time></trkpt><trkpt lat="43.8639009" lon="11.2761148"><ele>557.2</ele><time>2026-04-24T13:41:40.652Z</time></trkpt><trkpt lat="43.8639125" lon="11.2759672"><ele>557.8</ele><time>2026-04-24T13:41:42.652Z</time></trkpt><trkpt lat="43.8639179" lon="11.275792"><ele>558.4</ele><time>2026-04-24T13:41:44.652Z</time></trkpt><trkpt lat="43.8639208" lon="11.2756753"><ele>559.0</ele><time>2026-04-24T13:41:45.651Z</time></trkpt><trkpt lat="43.863924" lon="11.2755567"><ele>559.1666666666667</ele><time>2026-04-24T13:41:46.652Z</time></trkpt><trkpt lat="43.8639265" lon="11.2754335"><ele>559.3333333333334</ele><time>2026-04-24T13:41:47.652Z</time></trkpt><trkpt lat="43.863927" lon="11.2753204"><ele>559.5</ele><time>2026-04-24T13:41:48.652Z</time></trkpt><trkpt lat="43.863931" lon="11.275212"><ele>559.6666666666666</ele><time>2026-04-24T13:41:49.652Z</time></trkpt><trkpt lat="43.8639332" lon="11.2750922"><ele>559.8333333333333</ele><time>2026-04-24T13:41:50.652Z</time></trkpt><trkpt lat="43.8639376" lon="11.2749541"><ele>560.0</ele><time>2026-04-24T13:41:51.652Z</time></trkpt><trkpt lat="43.8639467" lon="11.2748165"><ele>557.3333333333333</ele><time>2026-04-24T13:41:52.651Z</time></trkpt><trkpt lat="43.8639583" lon="11.2746764"><ele>554.6666666666666</ele><time>2026-04-24T13:41:53.651Z</time></trkpt><trkpt lat="43.863975" lon="11.2745337"><ele>552.0</ele><time>2026-04-24T13:41:54.651Z</time></trkpt><trkpt lat="43.8634262" lon="11.2774872"><ele>551.4</ele><time>2026-04-24T13:41:24.651Z</time></trkpt><trkpt lat="43.8635727" lon="11.2774803"><ele>550.8000000000001</ele><time>2026-04-24T13:41:26.65Z</time></trkpt><trkpt lat="43.8636621" lon="11.2774304"><ele>550.2</ele><time>2026-04-24T13:41:27.652Z</time></trkpt><trkpt lat="43.8637417" lon="11.2773408"><ele>549.6</ele><time>2026-04-24T13:41:28.652Z</time></trkpt><trkpt lat="43.8638013" lon="11.277227"><ele>549.0</ele><time>2026-04-24T13:41:29.652Z</time></trkpt><trkpt lat="43.8638339" lon="11.2771049"><ele>550.1666666666666</ele><time>2026-04-24T13:41:30.652Z</time></trkpt><trkpt lat="43.863848" lon="11.2769996"><ele>551.3333333333334</ele><time>2026-04-24T13:41:31.652Z</time></trkpt><trkpt lat="43.8638576" lon="11.2768889"><ele>552.5</ele><time>2026-04-24T13:41:32.652Z</time></trkpt><trkpt lat="43.8638655" lon="11.2767747"><ele>553.6666666666667</ele><time>2026-04-24T13:41:33.652Z</time></trkpt><trkpt lat="43.8638699" lon="11.2766588"><ele>554.8333333333334</ele><time>2026-04-24T13:41:34.652Z</time></trkpt><trkpt lat="43.8638767" lon="11.2765485"><ele>556.0</ele><time>2026-04-24T13:41:35.652Z</time></trkpt><trkpt lat="43.8638839" lon="11.2764547"><ele>556.75</ele><time>2026-04-24T13:41:36.65Z</time></trkpt><trkpt lat="43.8638961" lon="11.2762838"><ele>557.5</ele><time>2026-04-24T13:41:38.652Z</time></trkpt><trkpt lat="43.8639009" lon="11.2761148"><ele>558.25</ele><time>2026-04-24T13:41:40.652Z</time></trkpt><trkpt lat="43.8639125" lon="11.2759672"><ele>559.0</ele><time>2026-04-24T13:41:42.652Z</time></trkpt><trkpt lat="43.8639179" lon="11.275792"><ele>559.0</ele><time>2026-04-24T13:41:44.652Z</time></trkpt><trkpt lat="43.8639208" lon="11.2756753"><ele>559.0</ele><time>2026-04-24T13:41:45.651Z</time></trkpt><trkpt lat="43.863924" lon="11.2755567"><ele>559.0</ele><time>2026-04-24T13:41:46.652Z</time></trkpt><trkpt lat="43.8639265" lon="11.2754335"><ele>559.0</ele><time>2026-04-24T13:41:47.652Z</time></trkpt><trkpt lat="43.863927" lon="11.2753204"><ele>559.0</ele><time>2026-04-24T13:41:48.652Z</time></trkpt><trkpt lat="43.863931" lon="11.275212"><ele>559.0</ele><time>2026-04-24T13:41:49.652Z</time></trkpt><trkpt lat="43.8639332" lon="11.2750922"><ele>559.2</ele><time>2026-04-24T13:41:50.652Z</time></trkpt><trkpt lat="43.8639376" lon="11.2749541"><ele>559.4</ele><time>2026-04-24T13:41:51.652Z</time></trkpt><trkpt lat="43.8639467" lon="11.2748165"><ele>559.6</ele><time>2026-04-24T13:41:52.651Z</time></trkpt><trkpt lat="43.8639583" lon="11.2746764"><ele>559.8</ele><time>2026-04-24T13:41:53.651Z</time></trkpt><trkpt lat="43.863975" lon="11.2745337"><ele>560.0</ele><time>2026-04-24T13:41:54.651Z</time></trkpt><trkpt lat="43.8639927" lon="11.2743946"><ele>562.25</ele><time>2026-04-24T13:41:55.652Z</time></trkpt><trkpt lat="43.8640158" lon="11.2742474"><ele>564.5</ele><time>2026-04-24T13:41:56.652Z</time></trkpt><trkpt lat="43.8640549" lon="11.2740824"><ele>566.75</ele><time>2026-04-24T13:41:57.651Z</time></trkpt><trkpt lat="43.8641048" lon="11.2739131"><ele>569.0</ele><time>2026-04-24T13:41:58.65Z</time></trkpt><trkpt lat="43.864199" lon="11.2736859"><ele>568.0</ele><time>2026-04-24T13:41:59.652Z</time></trkpt><trkpt lat="43.8642761" lon="11.2734998"><ele>567.0</ele><time>2026-04-24T13:42:00.652Z</time></trkpt><trkpt lat="43.8643509" lon="11.2733423"><ele>566.0</ele><time>2026-04-24T13:42:01.652Z</time></trkpt><trkpt lat="43.8644231" lon="11.2732225"><ele>565.0</ele><time>2026-04-24T13:42:02.652Z</time></trkpt><trkpt lat="43.8644943" lon="11.2730978"><ele>567.75</ele><time>2026-04-24T13:42:03.651Z</time></trkpt><trkpt lat="43.8645731" lon="11.2729793"><ele>570.5</ele><time>2026-04-24T13:42:04.652Z</time></trkpt><trkpt lat="43.8646502" lon="11.2728476"><ele>573.25</ele><time>2026-04-24T13:42:05.652Z</time></trkpt><trkpt lat="43.8647284" lon="11.2727092"><ele>576.0</ele><time>2026-04-24T13:42:06.651Z</time></trkpt><trkpt lat="43.8648087" lon="11.2725739"><ele>576.0</ele><time>2026-04-24T13:42:07.652Z</time></trkpt><trkpt lat="43.8648964" lon="11.2724426"><ele>576.0</ele><time>2026-04-24T13:42:08.652Z</time></trkpt><trkpt lat="43.8649814" lon="11.2723055"><ele>576.0</ele><time>2026-04-24T13:42:09.652Z</time></trkpt><trkpt lat="43.8650623" lon="11.2721787"><ele>576.0</ele><time>2026-04-24T13:42:10.65Z</time></trkpt><trkpt lat="43.8651293" lon="11.2720783"><ele>574.1666666666666</ele><time>2026-04-24T13:42:11.652Z</time></trkpt><trkpt lat="43.8651887" lon="11.2719921"><ele>572.3333333333334</ele><time>2026-04-24T13:42:12.652Z</time></trkpt><trkpt lat="43.8652357" lon="11.271928"><ele>570.5</ele><time>2026-04-24T13:42:13.651Z</time></trkpt><trkpt lat="43.865322" lon="11.2718889"><ele>568.6666666666667</ele><time>2026-04-24T13:42:15.652Z</time></trkpt><trkpt lat="43.8653877" lon="11.2719183"><ele>566.8333333333334</ele><time>2026-04-24T13:42:16.652Z</time></trkpt><trkpt lat="43.8654655" lon="11.2719879"><ele>565.0</ele><time>2026-04-24T13:42:17.651Z</time></trkpt><trkpt lat="43.8655557" lon="11.27207"><ele>565.0</ele><time>2026-04-24T13:42:18.652Z</time></trkpt><trkpt lat="43.8656585" lon="11.2721581"><ele>565.0</ele><time>2026-04-24T13:42:19.652Z</time></trkpt><trkpt lat="43.8657671" lon="11.2722508"><ele>565.0</ele><time>2026-04-24T13:42:20.651Z</time></trkpt><trkpt lat="43.8658783" lon="11.2723531"><ele>565.0</ele><time>2026-04-24T13:42:21.652Z</time></trkpt><trkpt lat="43.865993" lon="11.2724532"><ele>564.25</ele><time>2026-04-24T13:42:22.652Z</time></trkpt><trkpt lat="43.8661093" lon="11.272548"><ele>563.5</ele><time>2026-04-24T13:42:23.652Z</time></trkpt><trkpt lat="43.866224" lon="11.2726415"><ele>562.75</ele><time>2026-04-24T13:42:24.651Z</time></trkpt><trkpt lat="43.8663404" lon="11.2727318"><ele>562.0</ele><time>2026-04-24T13:42:25.652Z</time></trkpt><trkpt lat="43.8664573" lon="11.2728165"><ele>562.0</ele><time>2026-04-24T13:42:26.652Z</time></trkpt><trkpt lat="43.8665731" lon="11.2729094"><ele>562.0</ele><time>2026-04-24T13:42:27.652Z</time></trkpt><trkpt lat="43.866688" lon="11.2729974"><ele>562.0</ele><time>2026-04-24T13:42:28.652Z</time></trkpt><trkpt lat="43.8668103" lon="11.2730741"><ele>562.0</ele><time>2026-04-24T13:42:29.652Z</time></trkpt><trkpt lat="43.8669388" lon="11.2731395"><ele>563.25</ele><time>2026-04-24T13:42:30.652Z</time></trkpt><trkpt lat="43.8670708" lon="11.2731859"><ele>564.5</ele><time>2026-04-24T13:42:31.651Z</time></trkpt><trkpt lat="43.8672059" lon="11.27321"><ele>565.75</ele><time>2026-04-24T13:42:32.651Z</time></trkpt><trkpt lat="43.8673399" lon="11.273222"><ele>567.0</ele><time>2026-04-24T13:42:33.652Z</time></trkpt><trkpt lat="43.8674733" lon="11.273234"><ele>567.0</ele><time>2026-04-24T13:42:34.652Z</time></trkpt><trkpt lat="43.8676018" lon="11.2732411"><ele>567.0</ele><time>2026-04-24T13:42:35.652Z</time></trkpt><trkpt lat="43.8677195" lon="11.273241"><ele>567.0</ele><time>2026-04-24T13:42:36.65Z</time></trkpt><trkpt lat="43.8678249" lon="11.2732458"><ele>567.0</ele><time>2026-04-24T13:42:37.652Z</time></trkpt><trkpt lat="43.8679144" lon="11.2732489"><ele>567.0</ele><time>2026-04-24T13:42:38.652Z</time></trkpt><trkpt lat="43.8679977" lon="11.2732355"><ele>567.8000000000001</ele><time>2026-04-24T13:42:39.652Z</time></trkpt><trkpt lat="43.8680627" lon="11.2732057"><ele>568.6</ele><time>2026-04-24T13:42:40.652Z</time></trkpt><trkpt lat="43.8681661" lon="11.2731786"><ele>569.4000000000001</ele><time>2026-04-24T13:42:42.652Z</time></trkpt><trkpt lat="43.8682843" lon="11.2731968"><ele>570.2</ele><time>2026-04-24T13:42:44.652Z</time></trkpt><trkpt lat="43.8684015" lon="11.2732217"><ele>571.0</ele><time>2026-04-24T13:42:46.651Z</time></trkpt><trkpt lat="43.8684658" lon="11.273228"><ele>572.0</ele><time>2026-04-24T13:42:47.652Z</time></trkpt><trkpt lat="43.8685355" lon="11.2732217"><ele>573.0</ele><time>2026-04-24T13:42:48.652Z</time></trkpt><trkpt lat="43.8686081" lon="11.273208"><ele>574.0</ele><time>2026-04-24T13:42:49.652Z</time></trkpt><trkpt lat="43.8686915" lon="11.2731973"><ele>575.0</ele><time>2026-04-24T13:42:50.652Z</time></trkpt><trkpt lat="43.8687775" lon="11.2731971"><ele>576.0</ele><time>2026-04-24T13:42:51.652Z</time></trkpt><trkpt lat="43.8688724" lon="11.2732085"><ele>577.0</ele><time>2026-04-24T13:42:52.652Z</time></trkpt><trkpt lat="43.8689667" lon="11.2732388"><ele>577.0</ele><time>2026-04-24T13:42:53.652Z</time></trkpt><trkpt lat="43.8690574" lon="11.2732852"><ele>577.0</ele><time>2026-04-24T13:42:54.652Z</time></trkpt><trkpt lat="43.8691322" lon="11.273337"><ele>577.0</ele><time>2026-04-24T13:42:55.651Z</time></trkpt><trkpt lat="43.8691799" lon="11.2734083"><ele>577.0</ele><time>2026-04-24T13:42:56.651Z</time></trkpt><trkpt lat="43.8691984" lon="11.2735019"><ele>577.0</ele><time>2026-04-24T13:42:57.652Z</time></trkpt><trkpt lat="43.8691907" lon="11.2736167"><ele>577.0</ele><time>2026-04-24T13:42:58.651Z</time></trkpt><trkpt lat="43.8691894" lon="11.2737418"><ele>577.0</ele><time>2026-04-24T13:42:59.651Z</time></trkpt><trkpt lat="43.8692048" lon="11.2739085"><ele>577.0</ele><time>2026-04-24T13:43:00.652Z</time></trkpt><trkpt lat="43.8692166" lon="11.2740604"><ele>577.0</ele><time>2026-04-24T13:43:01.652Z</time></trkpt><trkpt lat="43.8692284" lon="11.2741611"><ele>577.0</ele><time>2026-04-24T13:43:02.652Z</time></trkpt><trkpt lat="43.8692955" lon="11.2742848"><ele>577.0</ele><time>2026-04-24T13:43:04.652Z</time></trkpt><trkpt lat="43.8693468" lon="11.2743355"><ele>577.3333333333334</ele><time>2026-04-24T13:43:05.652Z</time></trkpt><trkpt lat="43.8694288" lon="11.2743545"><ele>577.6666666666667</ele><time>2026-04-24T13:43:06.652Z</time></trkpt><trkpt lat="43.8695049" lon="11.2743709"><ele>578.0</ele><time>2026-04-24T13:43:07.652Z</time></trkpt><trkpt lat="43.8695758" lon="11.2744059"><ele>578.3333333333334</ele><time>2026-04-24T13:43:08.652Z</time></trkpt><trkpt lat="43.8696464" lon="11.2744371"><ele>578.6666666666666</ele><time>2026-04-24T13:43:09.651Z</time></trkpt><trkpt lat="43.8697637" lon="11.2745428"><ele>579.0</ele><time>2026-04-24T13:43:11.652Z</time></trkpt><trkpt lat="43.869833" lon="11.2745827"><ele>579.0</ele><time>2026-04-24T13:43:12.651Z</time></trkpt><trkpt lat="43.8699052" lon="11.2747022"><ele>579.0</ele><time>2026-04-24T13:43:14.652Z</time></trkpt><trkpt lat="43.8699333" lon="11.2748402"><ele>579.0</ele><time>2026-04-24T13:43:16.652Z</time></trkpt><trkpt lat="43.8699218" lon="11.2749966"><ele>579.0</ele><time>2026-04-24T13:43:18.652Z</time></trkpt><trkpt lat="43.8698882" lon="11.275071"><ele>579.0</ele><time>2026-04-24T13:43:19.652Z</time></trkpt><trkpt lat="43.8698499" lon="11.2751568"><ele>580.6666666666666</ele><time>2026-04-24T13:43:20.652Z</time></trkpt><trkpt lat="43.8698323" lon="11.2752768"><ele>582.3333333333334</ele><time>2026-04-24T13:43:21.652Z</time></trkpt><trkpt lat="43.8698294" lon="11.2753733"><ele>584.0</ele><time>2026-04-24T13:43:22.652Z</time></trkpt><trkpt lat="43.8698577" lon="11.2754567"><ele>585.6666666666667</ele><time>2026-04-24T13:43:23.652Z</time></trkpt><trkpt lat="43.8699134" lon="11.2755212"><ele>587.3333333333334</ele><time>2026-04-24T13:43:24.652Z</time></trkpt><trkpt lat="43.8699829" lon="11.2755697"><ele>589.0</ele><time>2026-04-24T13:43:25.651Z</time></trkpt><trkpt lat="43.8700658" lon="11.2756174"><ele>589.3333333333334</ele><time>2026-04-24T13:43:26.651Z</time></trkpt><trkpt lat="43.8701569" lon="11.2756448"><ele>589.6666666666667</ele><time>2026-04-24T13:43:27.652Z</time></trkpt><trkpt lat="43.870244" lon="11.2756787"><ele>590.0</ele><time>2026-04-24T13:43:28.652Z</time></trkpt><trkpt lat="43.8703195" lon="11.2757297"><ele>590.3333333333334</ele><time>2026-04-24T13:43:29.652Z</time></trkpt><trkpt lat="43.8703917" lon="11.2757837"><ele>590.6666666666666</ele><time>2026-04-24T13:43:30.652Z</time></trkpt><trkpt lat="43.8704383" lon="11.2758477"><ele>591.0</ele><time>2026-04-24T13:43:31.652Z</time></trkpt><trkpt lat="43.8704871" lon="11.2759419"><ele>591.0</ele><time>2026-04-24T13:43:32.652Z</time></trkpt><trkpt lat="43.8705358" lon="11.2760095"><ele>591.0</ele><time>2026-04-24T13:43:33.652Z</time></trkpt><trkpt lat="43.8706062" lon="11.2760785"><ele>591.0</ele><time>2026-04-24T13:43:34.652Z</time></trkpt><trkpt lat="43.8706756" lon="11.2761252"><ele>591.0</ele><time>2026-04-24T13:43:35.652Z</time></trkpt><trkpt lat="43.8707576" lon="11.2761694"><ele>591.0</ele><time>2026-04-24T13:43:36.652Z</time></trkpt><trkpt lat="43.8708277" lon="11.2762142"><ele>591.0</ele><time>2026-04-24T13:43:37.652Z</time></trkpt><trkpt lat="43.8708921" lon="11.2762523"><ele>591.6666666666666</ele><time>2026-04-24T13:43:38.652Z</time></trkpt><trkpt lat="43.8709637" lon="11.2762686"><ele>592.3333333333334</ele><time>2026-04-24T13:43:39.651Z</time></trkpt><trkpt lat="43.8710341" lon="11.2762723"><ele>593.0</ele><time>2026-04-24T13:43:40.652Z</time></trkpt><trkpt lat="43.8711109" lon="11.2762844"><ele>593.6666666666667</ele><time>2026-04-24T13:43:41.65Z</time></trkpt><trkpt lat="43.871186" lon="11.2763031"><ele>594.3333333333334</ele><time>2026-04-24T13:43:42.651Z</time></trkpt><trkpt lat="43.8712668" lon="11.276311"><ele>595.0</ele><time>2026-04-24T13:43:43.652Z</time></trkpt><trkpt lat="43.8713438" lon="11.2763293"><ele>595.0</ele><time>2026-04-24T13:43:44.652Z</time></trkpt><trkpt lat="43.8714239" lon="11.2763617"><ele>595.0</ele><time>2026-04-24T13:43:45.652Z</time></trkpt><trkpt lat="43.8715012" lon="11.2763921"><ele>595.0</ele><time>2026-04-24T13:43:46.652Z</time></trkpt><trkpt lat="43.8715674" lon="11.2764077"><ele>595.0</ele><time>2026-04-24T13:43:47.652Z</time></trkpt><trkpt lat="43.8716695" lon="11.2764781"><ele>595.0</ele><time>2026-04-24T13:43:49.652Z</time></trkpt><trkpt lat="43.8717192" lon="11.2765527"><ele>595.0</ele><time>2026-04-24T13:43:50.652Z</time></trkpt><trkpt lat="43.8717642" lon="11.2766342"><ele>596.8333333333334</ele><time>2026-04-24T13:43:51.652Z</time></trkpt><trkpt lat="43.871799" lon="11.276726"><ele>598.6666666666667</ele><time>2026-04-24T13:43:52.652Z</time></trkpt><trkpt lat="43.8718378" lon="11.2768277"><ele>600.5</ele><time>2026-04-24T13:43:53.651Z</time></trkpt><trkpt lat="43.8718882" lon="11.2769255"><ele>602.3333333333334</ele><time>2026-04-24T13:43:54.652Z</time></trkpt><trkpt lat="43.8719472" lon="11.2770106"><ele>604.1666666666666</ele><time>2026-04-24T13:43:55.651Z</time></trkpt><trkpt lat="43.8719986" lon="11.2770694"><ele>606.0</ele><time>2026-04-24T13:43:56.651Z</time></trkpt><trkpt lat="43.8720611" lon="11.2771113"><ele>606.0</ele><time>2026-04-24T13:43:57.652Z</time></trkpt><trkpt lat="43.8721528" lon="11.2771434"><ele>606.0</ele><time>2026-04-24T13:43:58.652Z</time></trkpt><trkpt lat="43.8722216" lon="11.2771752"><ele>606.0</ele><time>2026-04-24T13:43:59.652Z</time></trkpt><trkpt lat="43.8722873" lon="11.2772295"><ele>606.0</ele><time>2026-04-24T13:44:00.652Z</time></trkpt><trkpt lat="43.8723332" lon="11.2772963"><ele>606.0</ele><time>2026-04-24T13:44:01.652Z</time></trkpt><trkpt lat="43.8723681" lon="11.2773718"><ele>606.0</ele><time>2026-04-24T13:44:02.652Z</time></trkpt><trkpt lat="43.8724183" lon="11.2774282"><ele>606.0</ele><time>2026-04-24T13:44:03.652Z</time></trkpt><trkpt lat="43.8725526" lon="11.2774525"><ele>607.4</ele><time>2026-04-24T13:44:05.652Z</time></trkpt><trkpt lat="43.8726345" lon="11.2774468"><ele>608.8</ele><time>2026-04-24T13:44:06.652Z</time></trkpt><trkpt lat="43.8727296" lon="11.2774479"><ele>610.1999999999999</ele><time>2026-04-24T13:44:07.651Z</time></trkpt><trkpt lat="43.8728258" lon="11.2774466"><ele>611.6</ele><time>2026-04-24T13:44:08.651Z</time></trkpt><trkpt lat="43.8729234" lon="11.2774403"><ele>613.0</ele><time>2026-04-24T13:44:09.652Z</time></trkpt><trkpt lat="43.8730165" lon="11.2774183"><ele>613.0</ele><time>2026-04-24T13:44:10.651Z</time></trkpt><trkpt lat="43.8731075" lon="11.277381"><ele>613.0</ele><time>2026-04-24T13:44:11.652Z</time></trkpt><trkpt lat="43.8731898" lon="11.2773335"><ele>613.0</ele><time>2026-04-24T13:44:12.652Z</time></trkpt><trkpt lat="43.8732745" lon="11.2772752"><ele>613.0</ele><time>2026-04-24T13:44:13.652Z</time></trkpt><trkpt lat="43.873362" lon="11.2772047"><ele>613.0</ele><time>2026-04-24T13:44:14.652Z</time></trkpt><trkpt lat="43.873448" lon="11.2771374"><ele>613.3333333333334</ele><time>2026-04-24T13:44:15.652Z</time></trkpt><trkpt lat="43.8735196" lon="11.2770904"><ele>613.6666666666667</ele><time>2026-04-24T13:44:16.652Z</time></trkpt><trkpt lat="43.8735939" lon="11.2770412"><ele>614.0</ele><time>2026-04-24T13:44:17.652Z</time></trkpt><trkpt lat="43.8736812" lon="11.2769906"><ele>614.3333333333334</ele><time>2026-04-24T13:44:18.652Z</time></trkpt><trkpt lat="43.8737647" lon="11.2769462"><ele>614.6666666666666</ele><time>2026-04-24T13:44:19.652Z</time></trkpt><trkpt lat="43.8738577" lon="11.2769088"><ele>615.0</ele><time>2026-04-24T13:44:20.652Z</time></trkpt><trkpt lat="43.8739606" lon="11.2768903"><ele>615.0</ele><time>2026-04-24T13:44:21.651Z</time></trkpt><trkpt lat="43.874044" lon="11.2769072"><ele>615.0</ele><time>2026-04-24T13:44:22.652Z</time></trkpt><trkpt lat="43.87412" lon="11.2769677"><ele>615.0</ele><time>2026-04-24T13:44:23.652Z</time></trkpt><trkpt lat="43.8741835" lon="11.2770812"><ele>615.0</ele><time>2026-04-24T13:44:24.652Z</time></trkpt><trkpt lat="43.8742515" lon="11.2772105"><ele>615.0</ele><time>2026-04-24T13:44:25.652Z</time></trkpt><trkpt lat="43.8742938" lon="11.2772776"><ele>616.6666666666666</ele><time>2026-04-24T13:44:26.652Z</time></trkpt><trkpt lat="43.874332" lon="11.2773553"><ele>618.3333333333334</ele><time>2026-04-24T13:44:28.652Z</time></trkpt><trkpt lat="43.8743664" lon="11.2774853"><ele>620.0</ele><time>2026-04-24T13:44:30.652Z</time></trkpt><trkpt lat="43.8743937" lon="11.2775665"><ele>621.6666666666667</ele><time>2026-04-24T13:44:31.651Z</time></trkpt><trkpt lat="43.8744267" lon="11.2776601"><ele>623.3333333333334</ele><time>2026-04-24T13:44:32.651Z</time></trkpt><trkpt lat="43.8744673" lon="11.2777628"><ele>625.0</ele><time>2026-04-24T13:44:33.652Z</time></trkpt><trkpt lat="43.8745155" lon="11.2778624"><ele>625.0</ele><time>2026-04-24T13:44:34.652Z</time></trkpt><trkpt lat="43.8745771" lon="11.2779421"><ele>625.0</ele><time>2026-04-24T13:44:35.652Z</time></trkpt><trkpt lat="43.8746431" lon="11.2779954"><ele>625.0</ele><time>2026-04-24T13:44:36.652Z</time></trkpt><trkpt lat="43.8747135" lon="11.2780121"><ele>625.0</ele><time>2026-04-24T13:44:37.652Z</time></trkpt><trkpt lat="43.8747896" lon="11.2780074"><ele>625.0</ele><time>2026-04-24T13:44:38.652Z</time></trkpt><trkpt lat="43.8748768" lon="11.2779256"><ele>625.0</ele><time>2026-04-24T13:44:40.652Z</time></trkpt><trkpt lat="43.8749294" lon="11.2778319"><ele>625.0</ele><time>2026-04-24T13:44:41.652Z</time></trkpt><trkpt lat="43.8750035" lon="11.2777433"><ele>625.0</ele><time>2026-04-24T13:44:42.652Z</time></trkpt><trkpt lat="43.8750861" lon="11.2776473"><ele>625.0</ele><time>2026-04-24T13:44:43.652Z</time></trkpt><trkpt lat="43.8751489" lon="11.2775488"><ele>625.0</ele><time>2026-04-24T13:44:44.652Z</time></trkpt><trkpt lat="43.8752107" lon="11.277447"><ele>625.0</ele><time>2026-04-24T13:44:45.652Z</time></trkpt><trkpt lat="43.8752797" lon="11.2773784"><ele>624.2</ele><time>2026-04-24T13:44:46.65Z</time></trkpt><trkpt lat="43.8753626" lon="11.2773103"><ele>623.4</ele><time>2026-04-24T13:44:47.651Z</time></trkpt><trkpt lat="43.8754528" lon="11.2772542"><ele>622.6</ele><time>2026-04-24T13:44:48.651Z</time></trkpt><trkpt lat="43.8755607" lon="11.2772118"><ele>621.8</ele><time>2026-04-24T13:44:49.652Z</time></trkpt><trkpt lat="43.8756626" lon="11.2771728"><ele>621.0</ele><time>2026-04-24T13:44:50.651Z</time></trkpt><trkpt lat="43.8757508" lon="11.2771485"><ele>621.0</ele><time>2026-04-24T13:44:51.652Z</time></trkpt><trkpt lat="43.8758326" lon="11.2771349"><ele>621.0</ele><time>2026-04-24T13:44:52.651Z</time></trkpt><trkpt lat="43.8759046" lon="11.2771126"><ele>621.0</ele><time>2026-04-24T13:44:53.652Z</time></trkpt><trkpt lat="43.8759935" lon="11.2771067"><ele>621.0</ele><time>2026-04-24T13:44:54.652Z</time></trkpt><trkpt lat="43.8760824" lon="11.2771059"><ele>621.0</ele><time>2026-04-24T13:44:55.652Z</time></trkpt><trkpt lat="43.8761525" lon="11.277106"><ele>621.0</ele><time>2026-04-24T13:44:56.652Z</time></trkpt><trkpt lat="43.8762206" lon="11.2770928"><ele>620.8333333333334</ele><time>2026-04-24T13:44:57.652Z</time></trkpt><trkpt lat="43.876299" lon="11.2770861"><ele>620.6666666666666</ele><time>2026-04-24T13:44:58.652Z</time></trkpt><trkpt lat="43.87638" lon="11.2771265"><ele>620.5</ele><time>2026-04-24T13:44:59.652Z</time></trkpt><trkpt lat="43.8764628" lon="11.2771861"><ele>620.3333333333333</ele><time>2026-04-24T13:45:00.652Z</time></trkpt><trkpt lat="43.876526" lon="11.2772485"><ele>620.1666666666666</ele><time>2026-04-24T13:45:01.652Z</time></trkpt><trkpt lat="43.8766062" lon="11.2772848"><ele>620.0</ele><time>2026-04-24T13:45:02.651Z</time></trkpt><trkpt lat="43.8767043" lon="11.2773328"><ele>620.3333333333333</ele><time>2026-04-24T13:45:03.651Z</time></trkpt><trkpt lat="43.8767772" lon="11.277384"><ele>620.6666666666666</ele><time>2026-04-24T13:45:04.652Z</time></trkpt><trkpt lat="43.8768569" lon="11.2774372"><ele>621.0</ele><time>2026-04-24T13:45:05.652Z</time></trkpt><trkpt lat="43.8769392" lon="11.2774684"><ele>621.3333333333334</ele><time>2026-04-24T13:45:06.651Z</time></trkpt><trkpt lat="43.8770205" lon="11.2774794"><ele>621.6666666666667</ele><time>2026-04-24T13:45:08.652Z</time></trkpt><trkpt lat="43.8769426" lon="11.2775077"><ele>622.0</ele><time>2026-04-24T13:45:16.651Z</time></trkpt><trkpt lat="43.8769745" lon="11.2775974"><ele>622.0</ele><time>2026-04-24T13:45:18.652Z</time></trkpt><trkpt lat="43.8770389" lon="11.2777128"><ele>622.0</ele><time>2026-04-24T13:45:20.652Z</time></trkpt><trkpt lat="43.8770973" lon="11.2777993"><ele>622.0</ele><time>2026-04-24T13:45:22.651Z</time></trkpt><trkpt lat="43.8771501" lon="11.2778641"><ele>622.0</ele><time>2026-04-24T13:45:24.652Z</time></trkpt><trkpt lat="43.8771967" lon="11.2779523"><ele>622.0</ele><time>2026-04-24T13:45:26.651Z</time></trkpt><trkpt lat="43.877248" lon="11.2780463"><ele>622.0</ele><time>2026-04-24T13:45:28.652Z</time></trkpt><trkpt lat="43.8773173" lon="11.2781556"><ele>621.3333333333334</ele><time>2026-04-24T13:45:30.652Z</time></trkpt><trkpt lat="43.8773767" lon="11.2782429"><ele>620.6666666666667</ele><time>2026-04-24T13:45:32.652Z</time></trkpt><trkpt lat="43.8774353" lon="11.278284"><ele>620.0</ele><time>2026-04-24T13:45:54.651Z</time></trkpt><trkpt lat="43.877471" lon="11.2783814"><ele>619.3333333333334</ele><time>2026-04-24T13:46:40.652Z</time></trkpt><trkpt lat="43.8775508" lon="11.2784862"><ele>618.6666666666666</ele><time>2026-04-24T13:46:42.652Z</time></trkpt><trkpt lat="43.8776042" lon="11.2786005"><ele>618.0</ele><time>2026-04-24T13:46:44.652Z</time></trkpt><trkpt lat="43.8776434" lon="11.2786811"><ele>616.0</ele><time>2026-04-24T13:46:48.652Z</time></trkpt><trkpt lat="43.8777015" lon="11.2787833"><ele>614.0</ele><time>2026-04-24T13:46:51.652Z</time></trkpt><trkpt lat="43.8777565" lon="11.2788683"><ele>612.0</ele><time>2026-04-24T13:46:53.652Z</time></trkpt><trkpt lat="43.8778143" lon="11.2789647"><ele>610.0</ele><time>2026-04-24T13:46:55.652Z</time></trkpt><trkpt lat="43.8779132" lon="11.2790259"><ele>608.0</ele><time>2026-04-24T13:46:57.652Z</time></trkpt><trkpt lat="43.8780329" lon="11.2790138"><ele>606.4</ele><time>2026-04-24T13:46:59.652Z</time></trkpt><trkpt lat="43.8781228" lon="11.2790005"><ele>604.8</ele><time>2026-04-24T13:47:01.652Z</time></trkpt><trkpt lat="43.8782367" lon="11.2789897"><ele>603.2</ele><time>2026-04-24T13:47:03.652Z</time></trkpt><trkpt lat="43.878351" lon="11.2789925"><ele>601.6</ele><time>2026-04-24T13:47:05.652Z</time></trkpt><trkpt lat="43.8784734" lon="11.2790029"><ele>600.0</ele><time>2026-04-24T13:47:07.652Z</time></trkpt><trkpt lat="43.8785957" lon="11.2790227"><ele>598.5</ele><time>2026-04-24T13:47:09.652Z</time></trkpt><trkpt lat="43.8787177" lon="11.2790443"><ele>597.0</ele><time>2026-04-24T13:47:11.652Z</time></trkpt><trkpt lat="43.8788292" lon="11.279076"><ele>595.5</ele><time>2026-04-24T13:47:13.652Z</time></trkpt><trkpt lat="43.878946" lon="11.2791734"><ele>594.0</ele><time>2026-04-24T13:47:15.651Z</time></trkpt><trkpt lat="43.8790188" lon="11.2792315"><ele>594.0</ele><time>2026-04-24T13:47:16.652Z</time></trkpt><trkpt lat="43.8790899" lon="11.2792826"><ele>594.0</ele><time>2026-04-24T13:47:17.652Z</time></trkpt><trkpt lat="43.8791634" lon="11.2793394"><ele>594.0</ele><time>2026-04-24T13:47:18.651Z</time></trkpt><trkpt lat="43.8792363" lon="11.2794024"><ele>594.0</ele><time>2026-04-24T13:47:19.652Z</time></trkpt><trkpt lat="43.8793007" lon="11.2794698"><ele>594.0</ele><time>2026-04-24T13:47:20.651Z</time></trkpt><trkpt lat="43.879358" lon="11.2795541"><ele>594.0</ele><time>2026-04-24T13:47:21.652Z</time></trkpt><trkpt lat="43.8794056" lon="11.2796464"><ele>593.6</ele><time>2026-04-24T13:47:22.652Z</time></trkpt><trkpt lat="43.8794446" lon="11.2797372"><ele>593.2</ele><time>2026-04-24T13:47:24.652Z</time></trkpt><trkpt lat="43.8794727" lon="11.2798532"><ele>592.8000000000001</ele><time>2026-04-24T13:49:25.652Z</time></trkpt><trkpt lat="43.8795182" lon="11.2800075"><ele>592.4</ele><time>2026-04-24T13:49:27.652Z</time></trkpt><trkpt lat="43.8795559" lon="11.2801275"><ele>592.0</ele><time>2026-04-24T13:49:28.651Z</time></trkpt><trkpt lat="43.8795986" lon="11.2802505"><ele>592.0</ele><time>2026-04-24T13:49:29.652Z</time></trkpt><trkpt lat="43.8796452" lon="11.2803593"><ele>592.0</ele><time>2026-04-24T13:49:30.652Z</time></trkpt><trkpt lat="43.8797021" lon="11.2804483"><ele>592.0</ele><time>2026-04-24T13:49:31.652Z</time></trkpt><trkpt lat="43.8797765" lon="11.2805353"><ele>592.0</ele><time>2026-04-24T13:49:32.652Z</time></trkpt><trkpt lat="43.8798501" lon="11.2806112"><ele>592.0</ele><time>2026-04-24T13:49:33.652Z</time></trkpt><trkpt lat="43.8799318" lon="11.280681"><ele>591.0</ele><time>2026-04-24T13:49:34.652Z</time></trkpt><trkpt lat="43.880011" lon="11.2807408"><ele>590.0</ele><time>2026-04-24T13:49:35.652Z</time></trkpt><trkpt lat="43.8800806" lon="11.2807957"><ele>589.0</ele><time>2026-04-24T13:49:36.651Z</time></trkpt><trkpt lat="43.8801453" lon="11.2808517"><ele>588.0</ele><time>2026-04-24T13:49:37.651Z</time></trkpt><trkpt lat="43.8802195" lon="11.2808931"><ele>587.0</ele><time>2026-04-24T13:49:38.652Z</time></trkpt><trkpt lat="43.8802908" lon="11.280936"><ele>586.0</ele><time>2026-04-24T13:49:39.652Z</time></trkpt><trkpt lat="43.8803643" lon="11.2809599"><ele>585.6666666666667</ele><time>2026-04-24T13:49:40.652Z</time></trkpt><trkpt lat="43.8804468" lon="11.2809719"><ele>585.3333333333334</ele><time>2026-04-24T13:49:41.651Z</time></trkpt><trkpt lat="43.8805332" lon="11.2809859"><ele>585.0</ele><time>2026-04-24T13:49:42.652Z</time></trkpt><trkpt lat="43.8806253" lon="11.2809979"><ele>584.6666666666666</ele><time>2026-04-24T13:49:43.652Z</time></trkpt><trkpt lat="43.8807065" lon="11.2810152"><ele>584.3333333333333</ele><time>2026-04-24T13:49:44.652Z</time></trkpt><trkpt lat="43.8807788" lon="11.2810427"><ele>584.0</ele><time>2026-04-24T13:49:45.652Z</time></trkpt><trkpt lat="43.8808881" lon="11.2810595"><ele>583.0</ele><time>2026-04-24T13:49:47.652Z</time></trkpt><trkpt lat="43.8809479" lon="11.2810157"><ele>582.0</ele><time>2026-04-24T13:49:48.651Z</time></trkpt><trkpt lat="43.8810825" lon="11.2809872"><ele>581.0</ele><time>2026-04-24T13:49:50.652Z</time></trkpt><trkpt lat="43.8811857" lon="11.2810337"><ele>580.0</ele><time>2026-04-24T13:49:51.651Z</time></trkpt><trkpt lat="43.8812679" lon="11.2810736"><ele>579.0</ele><time>2026-04-24T13:49:52.652Z</time></trkpt><trkpt lat="43.8813523" lon="11.2810992"><ele>579.0</ele><time>2026-04-24T13:49:53.652Z</time></trkpt><trkpt lat="43.8814243" lon="11.2811297"><ele>579.0</ele><time>2026-04-24T13:49:54.651Z</time></trkpt><trkpt lat="43.881488" lon="11.2812048"><ele>579.0</ele><time>2026-04-24T13:49:55.651Z</time></trkpt><trkpt lat="43.8815418" lon="11.2812686"><ele>579.0</ele><time>2026-04-24T13:49:56.651Z</time></trkpt><trkpt lat="43.8816061" lon="11.2813316"><ele>579.0</ele><time>2026-04-24T13:49:57.652Z</time></trkpt><trkpt lat="43.8816696" lon="11.2814021"><ele>579.0</ele><time>2026-04-24T13:49:58.651Z</time></trkpt><trkpt lat="43.8817236" lon="11.2814795"><ele>576.8333333333334</ele><time>2026-04-24T13:49:59.652Z</time></trkpt><trkpt lat="43.8817691" lon="11.2815617"><ele>574.6666666666666</ele><time>2026-04-24T13:50:00.652Z</time></trkpt><trkpt lat="43.8818253" lon="11.2816501"><ele>572.5</ele><time>2026-04-24T13:50:01.652Z</time></trkpt><trkpt lat="43.8818738" lon="11.2817281"><ele>570.3333333333333</ele><time>2026-04-24T13:50:02.652Z</time></trkpt><trkpt lat="43.881925" lon="11.2818044"><ele>568.1666666666666</ele><time>2026-04-24T13:50:03.652Z</time></trkpt><trkpt lat="43.8819832" lon="11.2818704"><ele>566.0</ele><time>2026-04-24T13:50:04.652Z</time></trkpt><trkpt lat="43.8820435" lon="11.2819365"><ele>566.0</ele><time>2026-04-24T13:50:05.652Z</time></trkpt><trkpt lat="43.882118" lon="11.2820017"><ele>566.0</ele><time>2026-04-24T13:50:06.652Z</time></trkpt><trkpt lat="43.8821675" lon="11.2820559"><ele>566.0</ele><time>2026-04-24T13:50:07.652Z</time></trkpt><trkpt lat="43.8822751" lon="11.2821037"><ele>566.0</ele><time>2026-04-24T13:50:09.652Z</time></trkpt><trkpt lat="43.8823952" lon="11.2821501"><ele>566.0</ele><time>2026-04-24T13:50:11.652Z</time></trkpt><trkpt lat="43.8824639" lon="11.282158"><ele>566.0</ele><time>2026-04-24T13:50:12.652Z</time></trkpt><trkpt lat="43.8825467" lon="11.2821501"><ele>566.0</ele><time>2026-04-24T13:50:13.651Z</time></trkpt><trkpt lat="43.8826379" lon="11.2821352"><ele>566.0</ele><time>2026-04-24T13:50:14.652Z</time></trkpt><trkpt lat="43.8827197" lon="11.2820994"><ele>566.0</ele><time>2026-04-24T13:50:15.652Z</time></trkpt><trkpt lat="43.882805" lon="11.2820642"><ele>566.0</ele><time>2026-04-24T13:50:16.652Z</time></trkpt><trkpt lat="43.882896" lon="11.2820399"><ele>566.0</ele><time>2026-04-24T13:50:17.651Z</time></trkpt><trkpt lat="43.8829725" lon="11.2819964"><ele>565.5</ele><time>2026-04-24T13:50:18.651Z</time></trkpt><trkpt lat="43.883061" lon="11.2819304"><ele>565.0</ele><time>2026-04-24T13:50:19.652Z</time></trkpt><trkpt lat="43.8831445" lon="11.2818608"><ele>564.5</ele><time>2026-04-24T13:50:20.652Z</time></trkpt><trkpt lat="43.8832289" lon="11.2817989"><ele>564.0</ele><time>2026-04-24T13:50:21.652Z</time></trkpt><trkpt lat="43.8833006" lon="11.2817613"><ele>563.5</ele><time>2026-04-24T13:50:22.651Z</time></trkpt><trkpt lat="43.8833646" lon="11.2817212"><ele>563.0</ele><time>2026-04-24T13:50:23.651Z</time></trkpt><trkpt lat="43.8834342" lon="11.2816928"><ele>563.8571428571429</ele><time>2026-04-24T13:50:24.652Z</time></trkpt><trkpt lat="43.8834874" lon="11.2816443"><ele>564.7142857142858</ele><time>2026-04-24T13:50:25.652Z</time></trkpt><trkpt lat="43.8835399" lon="11.2815902"><ele>565.5714285714287</ele><time>2026-04-24T13:50:26.652Z</time></trkpt><trkpt lat="43.8836402" lon="11.2815518"><ele>566.4285714285714</ele><time>2026-04-24T13:50:28.652Z</time></trkpt><trkpt lat="43.8837185" lon="11.2815111"><ele>567.2857142857143</ele><time>2026-04-24T13:50:30.652Z</time></trkpt><trkpt lat="43.8837789" lon="11.2814856"><ele>568.1428571428572</ele><time>2026-04-24T13:50:32.652Z</time></trkpt><trkpt lat="43.8838278" lon="11.2814221"><ele>569.0</ele><time>2026-04-24T13:50:35.652Z</time></trkpt><trkpt lat="43.8839019" lon="11.2813599"><ele>570.8</ele><time>2026-04-24T13:50:37.652Z</time></trkpt><trkpt lat="43.8840097" lon="11.2812708"><ele>572.5999999999999</ele><time>2026-04-24T13:50:39.652Z</time></trkpt><trkpt lat="43.8840683" lon="11.2811972"><ele>574.4</ele><time>2026-04-24T13:50:40.652Z</time></trkpt><trkpt lat="43.8841417" lon="11.2811344"><ele>576.1999999999999</ele><time>2026-04-24T13:50:41.652Z</time></trkpt><trkpt lat="43.8842244" lon="11.281075"><ele>578.0</ele><time>2026-04-24T13:50:42.651Z</time></trkpt><trkpt lat="43.8843017" lon="11.2810064"><ele>579.1999999999999</ele><time>2026-04-24T13:50:43.652Z</time></trkpt><trkpt lat="43.8843724" lon="11.2809477"><ele>580.4</ele><time>2026-04-24T13:50:44.652Z</time></trkpt><trkpt lat="43.8844463" lon="11.2808857"><ele>581.5999999999999</ele><time>2026-04-24T13:50:45.652Z</time></trkpt><trkpt lat="43.8845315" lon="11.2808151"><ele>582.8</ele><time>2026-04-24T13:50:46.652Z</time></trkpt><trkpt lat="43.8846205" lon="11.2807308"><ele>584.0</ele><time>2026-04-24T13:50:47.652Z</time></trkpt><trkpt lat="43.8846942" lon="11.2806629"><ele>584.0</ele><time>2026-04-24T13:50:48.652Z</time></trkpt><trkpt lat="43.88476" lon="11.2806136"><ele>584.0</ele><time>2026-04-24T13:50:49.652Z</time></trkpt><trkpt lat="43.8848145" lon="11.2805649"><ele>584.0</ele><time>2026-04-24T13:50:50.652Z</time></trkpt><trkpt lat="43.8849527" lon="11.2805076"><ele>584.0</ele><time>2026-04-24T13:50:52.652Z</time></trkpt><trkpt lat="43.885061" lon="11.2804815"><ele>584.0</ele><time>2026-04-24T13:50:53.652Z</time></trkpt><trkpt lat="43.8851472" lon="11.2804688"><ele>583.8</ele><time>2026-04-24T13:50:54.652Z</time></trkpt><trkpt lat="43.8852784" lon="11.2805558"><ele>583.5999999999999</ele><time>2026-04-24T13:50:56.652Z</time></trkpt><trkpt lat="43.8853755" lon="11.2806208"><ele>583.4</ele><time>2026-04-24T13:50:57.652Z</time></trkpt><trkpt lat="43.8854578" lon="11.2806566"><ele>583.1999999999999</ele><time>2026-04-24T13:50:58.652Z</time></trkpt><trkpt lat="43.8855432" lon="11.2806692"><ele>583.0</ele><time>2026-04-24T13:50:59.652Z</time></trkpt><trkpt lat="43.8856418" lon="11.28067"><ele>583.0</ele><time>2026-04-24T13:51:00.652Z</time></trkpt><trkpt lat="43.8857322" lon="11.2806647"><ele>583.0</ele><time>2026-04-24T13:51:01.652Z</time></trkpt><trkpt lat="43.8858226" lon="11.280647"><ele>583.0</ele><time>2026-04-24T13:51:02.651Z</time></trkpt><trkpt lat="43.8859003" lon="11.2806194"><ele>583.0</ele><time>2026-04-24T13:51:03.651Z</time></trkpt><trkpt lat="43.8859841" lon="11.2805791"><ele>583.0</ele><time>2026-04-24T13:51:04.652Z</time></trkpt><trkpt lat="43.8860666" lon="11.2805696"><ele>583.0</ele><time>2026-04-24T13:51:05.652Z</time></trkpt><trkpt lat="43.8861446" lon="11.2805808"><ele>581.1666666666667</ele><time>2026-04-24T13:51:06.651Z</time></trkpt><trkpt lat="43.8862126" lon="11.2805771"><ele>579.3333333333334</ele><time>2026-04-24T13:51:07.652Z</time></trkpt><trkpt lat="43.8862845" lon="11.2805669"><ele>577.5</ele><time>2026-04-24T13:51:08.652Z</time></trkpt><trkpt lat="43.8863621" lon="11.2805483"><ele>575.6666666666666</ele><time>2026-04-24T13:51:09.651Z</time></trkpt><trkpt lat="43.88644" lon="11.28054"><ele>573.8333333333333</ele><time>2026-04-24T13:51:10.652Z</time></trkpt><trkpt lat="43.8865327" lon="11.2805555"><ele>572.0</ele><time>2026-04-24T13:51:11.652Z</time></trkpt><trkpt lat="43.8866255" lon="11.2805836"><ele>572.2857142857142</ele><time>2026-04-24T13:51:12.651Z</time></trkpt><trkpt lat="43.8866992" lon="11.2805998"><ele>572.5714285714286</ele><time>2026-04-24T13:51:13.651Z</time></trkpt><trkpt lat="43.8867707" lon="11.2806131"><ele>572.8571428571429</ele><time>2026-04-24T13:51:14.652Z</time></trkpt><trkpt lat="43.8868458" lon="11.2806366"><ele>573.1428571428571</ele><time>2026-04-24T13:51:15.652Z</time></trkpt><trkpt lat="43.8869105" lon="11.2806602"><ele>573.4285714285714</ele><time>2026-04-24T13:51:16.651Z</time></trkpt><trkpt lat="43.8869687" lon="11.2806952"><ele>573.7142857142857</ele><time>2026-04-24T13:51:17.652Z</time></trkpt><trkpt lat="43.8870297" lon="11.280721"><ele>574.0</ele><time>2026-04-24T13:51:18.652Z</time></trkpt><trkpt lat="43.8871041" lon="11.2807328"><ele>572.8333333333334</ele><time>2026-04-24T13:51:19.652Z</time></trkpt><trkpt lat="43.8871824" lon="11.2807511"><ele>571.6666666666667</ele><time>2026-04-24T13:51:21.652Z</time></trkpt><trkpt lat="43.8872496" lon="11.2807871"><ele>570.5</ele><time>2026-04-24T13:51:23.651Z</time></trkpt><trkpt lat="43.8873502" lon="11.2807663"><ele>569.3333333333334</ele><time>2026-04-24T13:51:25.652Z</time></trkpt><trkpt lat="43.8874148" lon="11.2807673"><ele>568.1666666666666</ele><time>2026-04-24T13:51:26.652Z</time></trkpt><trkpt lat="43.8874868" lon="11.2807716"><ele>567.0</ele><time>2026-04-24T13:51:27.652Z</time></trkpt><trkpt lat="43.8875519" lon="11.2807953"><ele>565.2</ele><time>2026-04-24T13:51:28.651Z</time></trkpt><trkpt lat="43.887654" lon="11.2808423"><ele>563.4000000000001</ele><time>2026-04-24T13:51:30.652Z</time></trkpt><trkpt lat="43.8877185" lon="11.2809267"><ele>561.5999999999999</ele><time>2026-04-24T13:51:32.652Z</time></trkpt><trkpt lat="43.8877631" lon="11.2810064"><ele>559.8</ele><time>2026-04-24T13:51:34.652Z</time></trkpt><trkpt lat="43.8878443" lon="11.2810414"><ele>558.0</ele><time>2026-04-24T13:51:36.651Z</time></trkpt><trkpt lat="43.8879623" lon="11.281024"><ele>558.0</ele><time>2026-04-24T13:51:38.652Z</time></trkpt><trkpt lat="43.8880285" lon="11.2809524"><ele>558.0</ele><time>2026-04-24T13:51:40.652Z</time></trkpt><trkpt lat="43.8880832" lon="11.2807899"><ele>558.0</ele><time>2026-04-24T13:51:42.651Z</time></trkpt><trkpt lat="43.8881057" lon="11.2807018"><ele>558.0</ele><time>2026-04-24T13:51:43.652Z</time></trkpt><trkpt lat="43.8881448" lon="11.2806185"><ele>558.0</ele><time>2026-04-24T13:51:46.652Z</time></trkpt><trkpt lat="43.8882034" lon="11.2805505"><ele>558.0</ele><time>2026-04-24T13:52:32.651Z</time></trkpt><trkpt lat="43.8882403" lon="11.2804645"><ele>557.5</ele><time>2026-04-24T13:52:42.652Z</time></trkpt><trkpt lat="43.8881991" lon="11.280389"><ele>557.0</ele><time>2026-04-24T13:53:00.652Z</time></trkpt><trkpt lat="43.8881083" lon="11.2803273"><ele>556.5</ele><time>2026-04-24T13:53:02.652Z</time></trkpt><trkpt lat="43.8880525" lon="11.2802778"><ele>556.0</ele><time>2026-04-24T13:53:05.651Z</time></trkpt><trkpt lat="43.8881665" lon="11.2803517"><ele>555.5</ele><time>2026-04-24T13:53:40.652Z</time></trkpt><trkpt lat="43.8882416" lon="11.2804006"><ele>555.0</ele><time>2026-04-24T13:53:41.652Z</time></trkpt><trkpt lat="43.8883147" lon="11.2804333"><ele>555.0000000000001</ele><time>2026-04-24T13:53:42.652Z</time></trkpt><trkpt lat="43.888381" lon="11.2804282"><ele>555.0</ele><time>2026-04-24T13:53:43.651Z</time></trkpt><trkpt lat="43.8884422" lon="11.2803997"><ele>555.0</ele><time>2026-04-24T13:53:44.652Z</time></trkpt><trkpt lat="43.8884973" lon="11.2803545"><ele>555.0</ele><time>2026-04-24T13:53:45.652Z</time></trkpt><trkpt lat="43.8885956" lon="11.2802689"><ele>555.0</ele><time>2026-04-24T13:53:47.652Z</time></trkpt><trkpt lat="43.8886631" lon="11.2802478"><ele>555.0000000000001</ele><time>2026-04-24T13:53:48.651Z</time></trkpt><trkpt lat="43.8887276" lon="11.2802381"><ele>555.0</ele><time>2026-04-24T13:53:49.652Z</time></trkpt><trkpt lat="43.8887895" lon="11.2802738"><ele>552.2</ele><time>2026-04-24T13:53:50.651Z</time></trkpt><trkpt lat="43.8888654" lon="11.2802743"><ele>549.4</ele><time>2026-04-24T13:53:51.652Z</time></trkpt><trkpt lat="43.8889311" lon="11.2802814"><ele>546.6</ele><time>2026-04-24T13:53:52.652Z</time></trkpt><trkpt lat="43.8890517" lon="11.2802839"><ele>543.8</ele><time>2026-04-24T13:53:54.651Z</time></trkpt><trkpt lat="43.8891242" lon="11.2802792"><ele>541.0</ele><time>2026-04-24T13:53:55.652Z</time></trkpt><trkpt lat="43.8892377" lon="11.2803013"><ele>539.6</ele><time>2026-04-24T13:53:57.652Z</time></trkpt><trkpt lat="43.8893462" lon="11.280389"><ele>538.2</ele><time>2026-04-24T13:53:59.652Z</time></trkpt><trkpt lat="43.8894098" lon="11.2804347"><ele>536.8</ele><time>2026-04-24T13:54:00.651Z</time></trkpt><trkpt lat="43.8895071" lon="11.2805505"><ele>535.4</ele><time>2026-04-24T13:54:02.652Z</time></trkpt><trkpt lat="43.889545" lon="11.2806489"><ele>534.0</ele><time>2026-04-24T13:54:03.652Z</time></trkpt><trkpt lat="43.8895908" lon="11.2807243"><ele>534.0</ele><time>2026-04-24T13:54:04.652Z</time></trkpt><trkpt lat="43.8896697" lon="11.2808347"><ele>534.0</ele><time>2026-04-24T13:54:06.652Z</time></trkpt><trkpt lat="43.8897256" lon="11.2809094"><ele>534.0</ele><time>2026-04-24T13:54:08.652Z</time></trkpt><trkpt lat="43.8897935" lon="11.280965"><ele>534.0</ele><time>2026-04-24T13:54:10.652Z</time></trkpt><trkpt lat="43.8898858" lon="11.280948"><ele>534.0</ele><time>2026-04-24T13:54:12.652Z</time></trkpt><trkpt lat="43.8899564" lon="11.2809205"><ele>534.0</ele><time>2026-04-24T13:54:13.652Z</time></trkpt><trkpt lat="43.8900629" lon="11.2809076"><ele>531.3333333333334</ele><time>2026-04-24T13:54:15.65Z</time></trkpt><trkpt lat="43.8901016" lon="11.2809787"><ele>528.6666666666666</ele><time>2026-04-24T13:54:16.651Z</time></trkpt><trkpt lat="43.8901544" lon="11.28107"><ele>526.0</ele><time>2026-04-24T13:54:18.652Z</time></trkpt><trkpt lat="43.8902079" lon="11.2811593"><ele>523.3333333333333</ele><time>2026-04-24T13:54:20.652Z</time></trkpt><trkpt lat="43.8902729" lon="11.281207"><ele>520.6666666666666</ele><time>2026-04-24T13:54:22.652Z</time></trkpt><trkpt lat="43.8903481" lon="11.2811387"><ele>518.0</ele><time>2026-04-24T13:54:25.652Z</time></trkpt><trkpt lat="43.89036" lon="11.2810361"><ele>518.0</ele><time>2026-04-24T13:54:26.651Z</time></trkpt><trkpt lat="43.8904051" lon="11.2808477"><ele>518.0</ele><time>2026-04-24T13:54:28.652Z</time></trkpt><trkpt lat="43.8904253" lon="11.2807554"><ele>518.0</ele><time>2026-04-24T13:54:29.652Z</time></trkpt><trkpt lat="43.8904369" lon="11.2806666"><ele>518.0</ele><time>2026-04-24T13:54:30.652Z</time></trkpt><trkpt lat="43.8904818" lon="11.2805485"><ele>518.0</ele><time>2026-04-24T13:54:32.652Z</time></trkpt><trkpt lat="43.8905288" lon="11.2804662"><ele>516.8</ele><time>2026-04-24T13:54:33.652Z</time></trkpt><trkpt lat="43.8905899" lon="11.2803358"><ele>515.5999999999999</ele><time>2026-04-24T13:54:35.652Z</time></trkpt><trkpt lat="43.89064" lon="11.280194"><ele>514.4000000000001</ele><time>2026-04-24T13:54:37.652Z</time></trkpt><trkpt lat="43.8906438" lon="11.2800234"><ele>513.2</ele><time>2026-04-24T13:54:39.652Z</time></trkpt><trkpt lat="43.8906487" lon="11.2799355"><ele>512.0</ele><time>2026-04-24T13:54:40.652Z</time></trkpt><trkpt lat="43.8906535" lon="11.2797908"><ele>509.20000000000005</ele><time>2026-04-24T13:54:42.651Z</time></trkpt><trkpt lat="43.8906544" lon="11.2796575"><ele>506.40000000000003</ele><time>2026-04-24T13:54:44.651Z</time></trkpt><trkpt lat="43.8905907" lon="11.2795823"><ele>503.59999999999997</ele><time>2026-04-24T13:54:46.652Z</time></trkpt><trkpt lat="43.8904978" lon="11.2795707"><ele>500.79999999999995</ele><time>2026-04-24T13:54:48.652Z</time></trkpt><trkpt lat="43.8903915" lon="11.2795298"><ele>498.0</ele><time>2026-04-24T13:54:50.652Z</time></trkpt><trkpt lat="43.890293" lon="11.2795226"><ele>498.0</ele><time>2026-04-24T13:54:52.652Z</time></trkpt><trkpt lat="43.8901986" lon="11.279562"><ele>497.99999999999994</ele><time>2026-04-24T13:54:54.652Z</time></trkpt><trkpt lat="43.8901051" lon="11.2795328"><ele>497.99999999999994</ele><time>2026-04-24T13:54:56.652Z</time></trkpt><trkpt lat="43.8900079" lon="11.2794818"><ele>498.0</ele><time>2026-04-24T13:55:00.652Z</time></trkpt><trkpt lat="43.8899155" lon="11.2794233"><ele>498.0</ele><time>2026-04-24T13:55:02.652Z</time></trkpt><trkpt lat="43.8898295" lon="11.2793713"><ele>497.6666666666667</ele><time>2026-04-24T13:55:03.652Z</time></trkpt><trkpt lat="43.8897618" lon="11.2793213"><ele>497.33333333333337</ele><time>2026-04-24T13:55:04.651Z</time></trkpt><trkpt lat="43.8896981" lon="11.2792782"><ele>497.0</ele><time>2026-04-24T13:55:05.652Z</time></trkpt><trkpt lat="43.889632" lon="11.2792204"><ele>496.6666666666667</ele><time>2026-04-24T13:55:06.651Z</time></trkpt><trkpt lat="43.8895796" lon="11.2790864"><ele>496.33333333333337</ele><time>2026-04-24T13:55:08.651Z</time></trkpt><trkpt lat="43.8895292" lon="11.2790131"><ele>496.0</ele><time>2026-04-24T13:55:09.652Z</time></trkpt><trkpt lat="43.8895007" lon="11.2788893"><ele>496.00000000000006</ele><time>2026-04-24T13:55:11.652Z</time></trkpt><trkpt lat="43.8895087" lon="11.2788003"><ele>496.0</ele><time>2026-04-24T13:55:13.651Z</time></trkpt><trkpt lat="43.889472" lon="11.2786773"><ele>496.0</ele><time>2026-04-24T13:55:15.652Z</time></trkpt><trkpt lat="43.889521" lon="11.2786092"><ele>496.0</ele><time>2026-04-24T13:55:19.652Z</time></trkpt><trkpt lat="43.8895058" lon="11.2784779"><ele>496.00000000000006</ele><time>2026-04-24T13:55:22.652Z</time></trkpt><trkpt lat="43.8894691" lon="11.278388"><ele>496.0</ele><time>2026-04-24T13:55:24.652Z</time></trkpt><trkpt lat="43.8894196" lon="11.2782629"><ele>496.00000000000006</ele><time>2026-04-24T13:55:26.651Z</time></trkpt><trkpt lat="43.8893493" lon="11.2781353"><ele>496.0</ele><time>2026-04-24T13:55:28.652Z</time></trkpt><trkpt lat="43.8892777" lon="11.2780233"><ele>496.0</ele><time>2026-04-24T13:55:30.652Z</time></trkpt><trkpt lat="43.8892274" lon="11.2779594"><ele>496.0</ele><time>2026-04-24T13:55:31.652Z</time></trkpt><trkpt lat="43.8891816" lon="11.2778879"><ele>496.00000000000006</ele><time>2026-04-24T13:55:32.652Z</time></trkpt><trkpt lat="43.8891483" lon="11.2777983"><ele>496.0</ele><time>2026-04-24T13:55:33.651Z</time></trkpt><trkpt lat="43.8891165" lon="11.2776595"><ele>495.33333333333337</ele><time>2026-04-24T13:55:35.652Z</time></trkpt><trkpt lat="43.889091" lon="11.2775204"><ele>494.6666666666667</ele><time>2026-04-24T13:55:37.652Z</time></trkpt><trkpt lat="43.8890395" lon="11.2774485"><ele>494.0</ele><time>2026-04-24T13:55:38.652Z</time></trkpt><trkpt lat="43.8889989" lon="11.277378"><ele>493.33333333333337</ele><time>2026-04-24T13:55:39.652Z</time></trkpt><trkpt lat="43.8889431" lon="11.2772955"><ele>492.6666666666667</ele><time>2026-04-24T13:55:40.652Z</time></trkpt><trkpt lat="43.8889074" lon="11.2772094"><ele>492.0</ele><time>2026-04-24T13:55:41.652Z</time></trkpt><trkpt lat="43.8888705" lon="11.2770536"><ele>492.0</ele><time>2026-04-24T13:55:43.652Z</time></trkpt><trkpt lat="43.8888588" lon="11.2769615"><ele>492.0</ele><time>2026-04-24T13:55:44.651Z</time></trkpt><trkpt lat="43.8888398" lon="11.2768705"><ele>492.0</ele><time>2026-04-24T13:55:45.652Z</time></trkpt><trkpt lat="43.8888646" lon="11.2767252"><ele>492.0</ele><time>2026-04-24T13:55:47.652Z</time></trkpt><trkpt lat="43.888913" lon="11.2766032"><ele>492.0</ele><time>2026-04-24T13:55:49.652Z</time></trkpt><trkpt lat="43.8889358" lon="11.2764725"><ele>492.0</ele><time>2026-04-24T13:55:51.652Z</time></trkpt><trkpt lat="43.8890063" lon="11.2763768"><ele>489.8</ele><time>2026-04-24T13:55:53.652Z</time></trkpt><trkpt lat="43.8890465" lon="11.2763078"><ele>487.6</ele><time>2026-04-24T13:55:54.652Z</time></trkpt><trkpt lat="43.8890975" lon="11.2761449"><ele>485.40000000000003</ele><time>2026-04-24T13:55:56.652Z</time></trkpt><trkpt lat="43.8891411" lon="11.2760816"><ele>483.20000000000005</ele><time>2026-04-24T13:55:57.652Z</time></trkpt><trkpt lat="43.8892329" lon="11.2759705"><ele>481.0</ele><time>2026-04-24T13:55:59.652Z</time></trkpt><trkpt lat="43.8893117" lon="11.275884"><ele>478.6</ele><time>2026-04-24T13:56:01.652Z</time></trkpt><trkpt lat="43.8894044" lon="11.2759009"><ele>476.20000000000005</ele><time>2026-04-24T13:56:03.652Z</time></trkpt><trkpt lat="43.88951" lon="11.2759204"><ele>473.79999999999995</ele><time>2026-04-24T13:56:05.652Z</time></trkpt><trkpt lat="43.8896037" lon="11.275928"><ele>471.4</ele><time>2026-04-24T13:56:07.652Z</time></trkpt><trkpt lat="43.8896919" lon="11.2759248"><ele>469.0</ele><time>2026-04-24T13:56:09.652Z</time></trkpt><trkpt lat="43.8897188" lon="11.2758207"><ele>469.0</ele><time>2026-04-24T13:56:11.652Z</time></trkpt><trkpt lat="43.8897073" lon="11.2756888"><ele>469.0</ele><time>2026-04-24T13:56:13.652Z</time></trkpt><trkpt lat="43.8896769" lon="11.2755101"><ele>469.0</ele><time>2026-04-24T13:56:15.652Z</time></trkpt><trkpt lat="43.8896676" lon="11.2754115"><ele>469.0</ele><time>2026-04-24T13:56:16.652Z</time></trkpt><trkpt lat="43.8896698" lon="11.2753038"><ele>469.0</ele><time>2026-04-24T13:56:17.652Z</time></trkpt><trkpt lat="43.8896817" lon="11.2752022"><ele>467.83333333333337</ele><time>2026-04-24T13:56:18.652Z</time></trkpt><trkpt lat="43.8896921" lon="11.2751021"><ele>466.6666666666667</ele><time>2026-04-24T13:56:19.652Z</time></trkpt><trkpt lat="43.8897035" lon="11.2749936"><ele>465.5</ele><time>2026-04-24T13:56:20.652Z</time></trkpt><trkpt lat="43.8897257" lon="11.2748869"><ele>464.33333333333337</ele><time>2026-04-24T13:56:21.652Z</time></trkpt><trkpt lat="43.8897666" lon="11.2747894"><ele>463.1666666666667</ele><time>2026-04-24T13:56:22.652Z</time></trkpt><trkpt lat="43.8898101" lon="11.2747019"><ele>462.0</ele><time>2026-04-24T13:56:23.651Z</time></trkpt><trkpt lat="43.8898531" lon="11.2746126"><ele>460.40000000000003</ele><time>2026-04-24T13:56:24.652Z</time></trkpt><trkpt lat="43.8898825" lon="11.2745087"><ele>458.80000000000007</ele><time>2026-04-24T13:56:25.652Z</time></trkpt><trkpt lat="43.8899174" lon="11.2744177"><ele>457.2</ele><time>2026-04-24T13:56:26.652Z</time></trkpt><trkpt lat="43.8899204" lon="11.2741989"><ele>455.6</ele><time>2026-04-24T13:56:28.652Z</time></trkpt><trkpt lat="43.8898722" lon="11.2740835"><ele>454.0</ele><time>2026-04-24T13:56:29.651Z</time></trkpt><trkpt lat="43.8898537" lon="11.2739776"><ele>452.0</ele><time>2026-04-24T13:56:30.652Z</time></trkpt><trkpt lat="43.8898372" lon="11.2738616"><ele>450.0</ele><time>2026-04-24T13:56:31.652Z</time></trkpt><trkpt lat="43.8898089" lon="11.273748"><ele>448.0</ele><time>2026-04-24T13:56:32.652Z</time></trkpt><trkpt lat="43.8897637" lon="11.2736193"><ele>446.0</ele><time>2026-04-24T13:56:33.652Z</time></trkpt><trkpt lat="43.8897579" lon="11.2734881"><ele>444.0</ele><time>2026-04-24T13:56:34.651Z</time></trkpt><trkpt lat="43.8897352" lon="11.2733313"><ele>444.0</ele><time>2026-04-24T13:56:35.65Z</time></trkpt><trkpt lat="43.8897217" lon="11.273182"><ele>444.0</ele><time>2026-04-24T13:56:36.652Z</time></trkpt><trkpt lat="43.8897162" lon="11.2730561"><ele>444.0</ele><time>2026-04-24T13:56:37.652Z</time></trkpt><trkpt lat="43.8897198" lon="11.2729274"><ele>444.0</ele><time>2026-04-24T13:56:38.652Z</time></trkpt><trkpt lat="43.8897243" lon="11.272785"><ele>444.0</ele><time>2026-04-24T13:56:39.652Z</time></trkpt><trkpt lat="43.8897335" lon="11.2726718"><ele>443.3333333333333</ele><time>2026-04-24T13:56:40.651Z</time></trkpt><trkpt lat="43.8897994" lon="11.2725717"><ele>442.66666666666663</ele><time>2026-04-24T13:56:41.651Z</time></trkpt><trkpt lat="43.8898659" lon="11.27248"><ele>442.0</ele><time>2026-04-24T13:56:42.652Z</time></trkpt><trkpt lat="43.8899067" lon="11.2723799"><ele>441.3333333333333</ele><time>2026-04-24T13:56:43.652Z</time></trkpt><trkpt lat="43.8899326" lon="11.2722688"><ele>440.66666666666663</ele><time>2026-04-24T13:56:44.651Z</time></trkpt><trkpt lat="43.8899598" lon="11.2721686"><ele>440.0</ele><time>2026-04-24T13:56:45.652Z</time></trkpt><trkpt lat="43.8900289" lon="11.2720725"><ele>437.6</ele><time>2026-04-24T13:56:47.652Z</time></trkpt><trkpt lat="43.8901799" lon="11.2721002"><ele>435.2</ele><time>2026-04-24T13:56:49.652Z</time></trkpt><trkpt lat="43.8902819" lon="11.2721378"><ele>432.79999999999995</ele><time>2026-04-24T13:56:50.651Z</time></trkpt><trkpt lat="43.8903591" lon="11.2721632"><ele>430.4</ele><time>2026-04-24T13:56:51.652Z</time></trkpt><trkpt lat="43.8904218" lon="11.2722029"><ele>428.0</ele><time>2026-04-24T13:56:52.652Z</time></trkpt><trkpt lat="43.8904918" lon="11.2722985"><ele>428.0</ele><time>2026-04-24T13:56:53.652Z</time></trkpt><trkpt lat="43.8905553" lon="11.272387"><ele>427.99999999999994</ele><time>2026-04-24T13:56:54.652Z</time></trkpt><trkpt lat="43.8906235" lon="11.2724602"><ele>427.99999999999994</ele><time>2026-04-24T13:56:55.652Z</time></trkpt><trkpt lat="43.8906944" lon="11.2725367"><ele>428.0</ele><time>2026-04-24T13:56:56.652Z</time></trkpt><trkpt lat="43.8907951" lon="11.2725642"><ele>428.0</ele><time>2026-04-24T13:56:57.652Z</time></trkpt><trkpt lat="43.8908963" lon="11.2725955"><ele>425.2</ele><time>2026-04-24T13:56:58.652Z</time></trkpt><trkpt lat="43.8909942" lon="11.272617"><ele>422.4</ele><time>2026-04-24T13:56:59.652Z</time></trkpt><trkpt lat="43.8910978" lon="11.27264"><ele>419.59999999999997</ele><time>2026-04-24T13:57:00.652Z</time></trkpt><trkpt lat="43.8911924" lon="11.2726504"><ele>416.79999999999995</ele><time>2026-04-24T13:57:01.652Z</time></trkpt><trkpt lat="43.8912812" lon="11.2726761"><ele>414.0</ele><time>2026-04-24T13:57:02.652Z</time></trkpt><trkpt lat="43.8913825" lon="11.2726924"><ele>414.0</ele><time>2026-04-24T13:57:03.652Z</time></trkpt><trkpt lat="43.8914727" lon="11.2727087"><ele>414.0</ele><time>2026-04-24T13:57:04.652Z</time></trkpt><trkpt lat="43.8915615" lon="11.272731"><ele>414.0</ele><time>2026-04-24T13:57:05.652Z</time></trkpt><trkpt lat="43.8916534" lon="11.2727694"><ele>414.0</ele><time>2026-04-24T13:57:06.652Z</time></trkpt><trkpt lat="43.8917411" lon="11.2727875"><ele>414.0</ele><time>2026-04-24T13:57:07.652Z</time></trkpt><trkpt lat="43.8918256" lon="11.272806"><ele>413.6666666666667</ele><time>2026-04-24T13:57:08.652Z</time></trkpt><trkpt lat="43.8919155" lon="11.27283"><ele>413.33333333333337</ele><time>2026-04-24T13:57:09.652Z</time></trkpt><trkpt lat="43.8919872" lon="11.2728517"><ele>413.0</ele><time>2026-04-24T13:57:10.651Z</time></trkpt><trkpt lat="43.8920302" lon="11.2729316"><ele>412.6666666666667</ele><time>2026-04-24T13:57:11.652Z</time></trkpt><trkpt lat="43.8920985" lon="11.2729917"><ele>412.33333333333337</ele><time>2026-04-24T13:57:12.652Z</time></trkpt><trkpt lat="43.8921614" lon="11.2730947"><ele>412.0</ele><time>2026-04-24T13:57:13.652Z</time></trkpt><trkpt lat="43.8922239" lon="11.2731816"><ele>412.0</ele><time>2026-04-24T13:57:14.651Z</time></trkpt><trkpt lat="43.8922894" lon="11.2732732"><ele>412.0</ele><time>2026-04-24T13:57:15.652Z</time></trkpt><trkpt lat="43.8923537" lon="11.2733728"><ele>412.0</ele><time>2026-04-24T13:57:16.652Z</time></trkpt><trkpt lat="43.8924116" lon="11.273482"><ele>412.0</ele><time>2026-04-24T13:57:17.652Z</time></trkpt><trkpt lat="43.8924723" lon="11.2735996"><ele>412.0</ele><time>2026-04-24T13:57:18.652Z</time></trkpt><trkpt lat="43.8925381" lon="11.2737039"><ele>409.40000000000003</ele><time>2026-04-24T13:57:19.652Z</time></trkpt><trkpt lat="43.8926111" lon="11.2738135"><ele>406.8</ele><time>2026-04-24T13:57:20.652Z</time></trkpt><trkpt lat="43.8926837" lon="11.2739112"><ele>404.2</ele><time>2026-04-24T13:57:21.652Z</time></trkpt><trkpt lat="43.8927593" lon="11.2740011"><ele>401.6</ele><time>2026-04-24T13:57:22.652Z</time></trkpt><trkpt lat="43.8928358" lon="11.2740809"><ele>399.0</ele><time>2026-04-24T13:57:23.652Z</time></trkpt><trkpt lat="43.8929166" lon="11.2741376"><ele>399.0</ele><time>2026-04-24T13:57:24.652Z</time></trkpt><trkpt lat="43.8930031" lon="11.2741747"><ele>399.0</ele><time>2026-04-24T13:57:25.652Z</time></trkpt><trkpt lat="43.8930843" lon="11.2742058"><ele>399.0</ele><time>2026-04-24T13:57:26.652Z</time></trkpt><trkpt lat="43.8931384" lon="11.2742953"><ele>399.0</ele><time>2026-04-24T13:57:27.652Z</time></trkpt><trkpt lat="43.8931929" lon="11.2743942"><ele>399.0</ele><time>2026-04-24T13:57:28.652Z</time></trkpt><trkpt lat="43.8932346" lon="11.2744973"><ele>399.0</ele><time>2026-04-24T13:57:29.652Z</time></trkpt><trkpt lat="43.8932701" lon="11.2746063"><ele>399.0</ele><time>2026-04-24T13:57:30.651Z</time></trkpt><trkpt lat="43.893319" lon="11.2746919"><ele>399.0</ele><time>2026-04-24T13:57:31.652Z</time></trkpt><trkpt lat="43.8933961" lon="11.2747475"><ele>399.0</ele><time>2026-04-24T13:57:32.652Z</time></trkpt><trkpt lat="43.8934772" lon="11.2747909"><ele>399.0</ele><time>2026-04-24T13:57:33.652Z</time></trkpt><trkpt lat="43.8935431" lon="11.2748392"><ele>399.0</ele><time>2026-04-24T13:57:34.652Z</time></trkpt><trkpt lat="43.8935986" lon="11.2749004"><ele>399.0</ele><time>2026-04-24T13:57:35.651Z</time></trkpt><trkpt lat="43.8936288" lon="11.2749866"><ele>395.0</ele><time>2026-04-24T13:57:36.652Z</time></trkpt><trkpt lat="43.8936429" lon="11.275098"><ele>391.0</ele><time>2026-04-24T13:57:37.652Z</time></trkpt><trkpt lat="43.8936482" lon="11.27522"><ele>387.0</ele><time>2026-04-24T13:57:38.652Z</time></trkpt><trkpt lat="43.8936648" lon="11.2753316"><ele>383.0</ele><time>2026-04-24T13:57:39.651Z</time></trkpt><trkpt lat="43.8936973" lon="11.2754309"><ele>379.0</ele><time>2026-04-24T13:57:40.652Z</time></trkpt><trkpt lat="43.8937555" lon="11.2755147"><ele>375.0</ele><time>2026-04-24T13:57:41.652Z</time></trkpt><trkpt lat="43.893844" lon="11.2755225"><ele>375.0</ele><time>2026-04-24T13:57:42.652Z</time></trkpt><trkpt lat="43.8939397" lon="11.2755424"><ele>375.0</ele><time>2026-04-24T13:57:43.652Z</time></trkpt><trkpt lat="43.8940214" lon="11.2755823"><ele>375.0</ele><time>2026-04-24T13:57:44.652Z</time></trkpt><trkpt lat="43.8941148" lon="11.2756519"><ele>375.0</ele><time>2026-04-24T13:57:45.652Z</time></trkpt><trkpt lat="43.8942048" lon="11.2757401"><ele>375.0</ele><time>2026-04-24T13:57:46.652Z</time></trkpt><trkpt lat="43.894297" lon="11.2758229"><ele>370.4</ele><time>2026-04-24T13:57:47.652Z</time></trkpt><trkpt lat="43.8943898" lon="11.275894"><ele>365.8</ele><time>2026-04-24T13:57:48.652Z</time></trkpt><trkpt lat="43.8944784" lon="11.2759744"><ele>361.20000000000005</ele><time>2026-04-24T13:57:49.652Z</time></trkpt><trkpt lat="43.8945574" lon="11.2760582"><ele>356.6</ele><time>2026-04-24T13:57:50.652Z</time></trkpt><trkpt lat="43.8946298" lon="11.2761377"><ele>352.0</ele><time>2026-04-24T13:57:51.652Z</time></trkpt><trkpt lat="43.8946905" lon="11.2762419"><ele>352.0</ele><time>2026-04-24T13:57:52.651Z</time></trkpt><trkpt lat="43.8947445" lon="11.2763743"><ele>352.0</ele><time>2026-04-24T13:57:53.652Z</time></trkpt><trkpt lat="43.894784" lon="11.2765093"><ele>352.0</ele><time>2026-04-24T13:57:54.652Z</time></trkpt><trkpt lat="43.8948138" lon="11.2766422"><ele>352.0</ele><time>2026-04-24T13:57:55.652Z</time></trkpt><trkpt lat="43.8948385" lon="11.2767788"><ele>352.0</ele><time>2026-04-24T13:57:56.651Z</time></trkpt><trkpt lat="43.8948734" lon="11.2769166"><ele>353.20000000000005</ele><time>2026-04-24T13:57:57.652Z</time></trkpt><trkpt lat="43.8949069" lon="11.2770509"><ele>354.4</ele><time>2026-04-24T13:57:58.652Z</time></trkpt><trkpt lat="43.8949455" lon="11.2771779"><ele>355.6</ele><time>2026-04-24T13:57:59.652Z</time></trkpt><trkpt lat="43.8949674" lon="11.2773049"><ele>356.79999999999995</ele><time>2026-04-24T13:58:00.652Z</time></trkpt><trkpt lat="43.8949853" lon="11.2774287"><ele>358.0</ele><time>2026-04-24T13:58:01.652Z</time></trkpt><trkpt lat="43.895001" lon="11.2775548"><ele>358.2</ele><time>2026-04-24T13:58:02.651Z</time></trkpt><trkpt lat="43.8950379" lon="11.2776827"><ele>358.4</ele><time>2026-04-24T13:58:03.651Z</time></trkpt><trkpt lat="43.8950912" lon="11.2778048"><ele>358.59999999999997</ele><time>2026-04-24T13:58:04.652Z</time></trkpt><trkpt lat="43.8951425" lon="11.2779192"><ele>358.79999999999995</ele><time>2026-04-24T13:58:05.652Z</time></trkpt><trkpt lat="43.8951909" lon="11.2780378"><ele>359.0</ele><time>2026-04-24T13:58:06.652Z</time></trkpt><trkpt lat="43.8952472" lon="11.2781445"><ele>351.6</ele><time>2026-04-24T13:58:07.652Z</time></trkpt><trkpt lat="43.8953161" lon="11.2782365"><ele>344.2</ele><time>2026-04-24T13:58:08.651Z</time></trkpt><trkpt lat="43.8953836" lon="11.2783286"><ele>336.8</ele><time>2026-04-24T13:58:09.652Z</time></trkpt><trkpt lat="43.8954484" lon="11.2784243"><ele>329.40000000000003</ele><time>2026-04-24T13:58:10.652Z</time></trkpt><trkpt lat="43.8955068" lon="11.2785405"><ele>322.0</ele><time>2026-04-24T13:58:11.652Z</time></trkpt><trkpt lat="43.8955786" lon="11.2786616"><ele>322.0</ele><time>2026-04-24T13:58:12.652Z</time></trkpt><trkpt lat="43.8956442" lon="11.2787725"><ele>322.0</ele><time>2026-04-24T13:58:13.652Z</time></trkpt><trkpt lat="43.8957107" lon="11.2788736"><ele>322.0</ele><time>2026-04-24T13:58:14.652Z</time></trkpt><trkpt lat="43.8957787" lon="11.2789726"><ele>322.0</ele><time>2026-04-24T13:58:15.651Z</time></trkpt><trkpt lat="43.8958366" lon="11.2790648"><ele>322.0</ele><time>2026-04-24T13:58:16.652Z</time></trkpt><trkpt lat="43.8958896" lon="11.2791814"><ele>319.40000000000003</ele><time>2026-04-24T13:58:17.652Z</time></trkpt><trkpt lat="43.895931" lon="11.2793145"><ele>316.8</ele><time>2026-04-24T13:58:18.651Z</time></trkpt><trkpt lat="43.8959721" lon="11.2794394"><ele>314.2</ele><time>2026-04-24T13:58:19.652Z</time></trkpt><trkpt lat="43.8960182" lon="11.2795677"><ele>311.6</ele><time>2026-04-24T13:58:20.652Z</time></trkpt><trkpt lat="43.896069" lon="11.2796914"><ele>309.0</ele><time>2026-04-24T13:58:21.652Z</time></trkpt><trkpt lat="43.8961293" lon="11.2798163"><ele>309.0</ele><time>2026-04-24T13:58:22.652Z</time></trkpt><trkpt lat="43.8961859" lon="11.2799341"><ele>309.0</ele><time>2026-04-24T13:58:23.652Z</time></trkpt><trkpt lat="43.8962577" lon="11.2800466"><ele>309.0</ele><time>2026-04-24T13:58:24.652Z</time></trkpt><trkpt lat="43.8963115" lon="11.2801487"><ele>309.0</ele><time>2026-04-24T13:58:25.652Z</time></trkpt><trkpt lat="43.8963649" lon="11.2802469"><ele>309.0</ele><time>2026-04-24T13:58:26.652Z</time></trkpt><trkpt lat="43.8963847" lon="11.2803725"><ele>309.0</ele><time>2026-04-24T13:58:27.651Z</time></trkpt><trkpt lat="43.8964154" lon="11.2804925"><ele>309.0</ele><time>2026-04-24T13:58:28.651Z</time></trkpt><trkpt lat="43.8964298" lon="11.2806257"><ele>309.0</ele><time>2026-04-24T13:58:29.652Z</time></trkpt><trkpt lat="43.8964399" lon="11.2807582"><ele>309.0</ele><time>2026-04-24T13:58:30.652Z</time></trkpt><trkpt lat="43.89644" lon="11.2808959"><ele>309.0</ele><time>2026-04-24T13:58:31.652Z</time></trkpt><trkpt lat="43.8964555" lon="11.2810267"><ele>309.0</ele><time>2026-04-24T13:58:32.651Z</time></trkpt><trkpt lat="43.8964777" lon="11.2811566"><ele>309.0</ele><time>2026-04-24T13:58:33.651Z</time></trkpt><trkpt lat="43.8964959" lon="11.2812813"><ele>309.0</ele><time>2026-04-24T13:58:34.652Z</time></trkpt><trkpt lat="43.8965064" lon="11.2814009"><ele>309.0</ele><time>2026-04-24T13:58:35.652Z</time></trkpt><trkpt lat="43.8965149" lon="11.2815191"><ele>309.0</ele><time>2026-04-24T13:58:36.652Z</time></trkpt><trkpt lat="43.8965152" lon="11.2816404"><ele>309.0</ele><time>2026-04-24T13:58:37.652Z</time></trkpt><trkpt lat="43.8965289" lon="11.2817622"><ele>308.1666666666667</ele><time>2026-04-24T13:58:38.652Z</time></trkpt><trkpt lat="43.8965423" lon="11.2818881"><ele>307.3333333333333</ele><time>2026-04-24T13:58:39.651Z</time></trkpt><trkpt lat="43.8965579" lon="11.2820091"><ele>306.5</ele><time>2026-04-24T13:58:40.651Z</time></trkpt><trkpt lat="43.8966084" lon="11.2820906"><ele>305.66666666666663</ele><time>2026-04-24T13:58:41.652Z</time></trkpt><trkpt lat="43.8966576" lon="11.2822172"><ele>304.8333333333333</ele><time>2026-04-24T13:58:42.652Z</time></trkpt><trkpt lat="43.8966942" lon="11.2823204"><ele>304.0</ele><time>2026-04-24T13:58:43.652Z</time></trkpt><trkpt lat="43.8967283" lon="11.2824235"><ele>303.16666666666663</ele><time>2026-04-24T13:58:44.652Z</time></trkpt><trkpt lat="43.8967339" lon="11.2825207"><ele>302.3333333333333</ele><time>2026-04-24T13:58:45.652Z</time></trkpt><trkpt lat="43.896733" lon="11.2826118"><ele>301.5</ele><time>2026-04-24T13:58:46.651Z</time></trkpt><trkpt lat="43.8967042" lon="11.2827385"><ele>300.6666666666667</ele><time>2026-04-24T13:58:48.651Z</time></trkpt><trkpt lat="43.8966546" lon="11.2827973"><ele>299.83333333333337</ele><time>2026-04-24T13:59:01.652Z</time></trkpt><trkpt lat="43.896572" lon="11.2828249"><ele>299.0</ele><time>2026-04-24T13:59:05.652Z</time></trkpt><trkpt lat="43.8965004" lon="11.2828759"><ele>299.0</ele><time>2026-04-24T13:59:07.652Z</time></trkpt><trkpt lat="43.8964267" lon="11.2829376"><ele>299.0</ele><time>2026-04-24T13:59:08.652Z</time></trkpt><trkpt lat="43.8963155" lon="11.2830265"><ele>299.0</ele><time>2026-04-24T13:59:09.652Z</time></trkpt><trkpt lat="43.896172" lon="11.2831138"><ele>299.0</ele><time>2026-04-24T13:59:10.652Z</time></trkpt><trkpt lat="43.8960249" lon="11.2831797"><ele>299.0</ele><time>2026-04-24T13:59:11.651Z</time></trkpt><trkpt lat="43.8958852" lon="11.2832561"><ele>299.0</ele><time>2026-04-24T13:59:12.652Z</time></trkpt><trkpt lat="43.8957437" lon="11.2833382"><ele>299.0</ele><time>2026-04-24T13:59:13.652Z</time></trkpt><trkpt lat="43.8956051" lon="11.2834213"><ele>299.0</ele><time>2026-04-24T13:59:14.652Z</time></trkpt><trkpt lat="43.895468" lon="11.2835006"><ele>299.0</ele><time>2026-04-24T13:59:15.652Z</time></trkpt><trkpt lat="43.895336" lon="11.2835766"><ele>299.0</ele><time>2026-04-24T13:59:16.652Z</time></trkpt><trkpt lat="43.8952064" lon="11.2836526"><ele>299.0</ele><time>2026-04-24T13:59:17.652Z</time></trkpt><trkpt lat="43.8950819" lon="11.2837303"><ele>300.25</ele><time>2026-04-24T13:59:18.652Z</time></trkpt><trkpt lat="43.8949591" lon="11.2838029"><ele>301.5</ele><time>2026-04-24T13:59:19.652Z</time></trkpt><trkpt lat="43.894838" lon="11.2838755"><ele>302.75</ele><time>2026-04-24T13:59:20.651Z</time></trkpt><trkpt lat="43.8947192" lon="11.2839477"><ele>304.0</ele><time>2026-04-24T13:59:21.651Z</time></trkpt><trkpt lat="43.8945978" lon="11.2840232"><ele>304.0</ele><time>2026-04-24T13:59:22.652Z</time></trkpt><trkpt lat="43.8944761" lon="11.2840974"><ele>304.0</ele><time>2026-04-24T13:59:23.652Z</time></trkpt><trkpt lat="43.8943537" lon="11.2841746"><ele>304.0</ele><time>2026-04-24T13:59:24.652Z</time></trkpt><trkpt lat="43.8942278" lon="11.2842532"><ele>304.0</ele><time>2026-04-24T13:59:25.652Z</time></trkpt><trkpt lat="43.8941009" lon="11.2843297"><ele>303.0</ele><time>2026-04-24T13:59:26.652Z</time></trkpt><trkpt lat="43.8939751" lon="11.2844105"><ele>302.0</ele><time>2026-04-24T13:59:27.651Z</time></trkpt><trkpt lat="43.893845" lon="11.2844873"><ele>301.0</ele><time>2026-04-24T13:59:28.652Z</time></trkpt><trkpt lat="43.8937139" lon="11.2845582"><ele>300.0</ele><time>2026-04-24T13:59:29.652Z</time></trkpt><trkpt lat="43.8935872" lon="11.2846362"><ele>300.0</ele><time>2026-04-24T13:59:30.652Z</time></trkpt><trkpt lat="43.8934569" lon="11.2847111"><ele>300.0</ele><time>2026-04-24T13:59:31.652Z</time></trkpt><trkpt lat="43.8933276" lon="11.2847844"><ele>300.0</ele><time>2026-04-24T13:59:32.652Z</time></trkpt><trkpt lat="43.8931985" lon="11.2848604"><ele>300.0</ele><time>2026-04-24T13:59:33.652Z</time></trkpt><trkpt lat="43.8930696" lon="11.28493"><ele>300.75</ele><time>2026-04-24T13:59:34.652Z</time></trkpt><trkpt lat="43.8929439" lon="11.2850064"><ele>301.5</ele><time>2026-04-24T13:59:35.651Z</time></trkpt><trkpt lat="43.8928196" lon="11.2850797"><ele>302.25</ele><time>2026-04-24T13:59:36.652Z</time></trkpt><trkpt lat="43.8926957" lon="11.2851504"><ele>303.0</ele><time>2026-04-24T13:59:37.652Z</time></trkpt><trkpt lat="43.8925723" lon="11.2852202"><ele>302.75</ele><time>2026-04-24T13:59:38.652Z</time></trkpt><trkpt lat="43.8924522" lon="11.2852958"><ele>302.5</ele><time>2026-04-24T13:59:39.652Z</time></trkpt><trkpt lat="43.8923369" lon="11.2853842"><ele>302.25</ele><time>2026-04-24T13:59:40.652Z</time></trkpt><trkpt lat="43.8922352" lon="11.2854898"><ele>302.0</ele><time>2026-04-24T13:59:41.652Z</time></trkpt><trkpt lat="43.8921387" lon="11.2856003"><ele>302.0</ele><time>2026-04-24T13:59:42.652Z</time></trkpt><trkpt lat="43.8920432" lon="11.285702"><ele>302.0</ele><time>2026-04-24T13:59:43.652Z</time></trkpt><trkpt lat="43.8919595" lon="11.2858192"><ele>302.0</ele><time>2026-04-24T13:59:44.652Z</time></trkpt><trkpt lat="43.8918855" lon="11.2859406"><ele>302.0</ele><time>2026-04-24T13:59:45.652Z</time></trkpt><trkpt lat="43.8918262" lon="11.2860545"><ele>302.0</ele><time>2026-04-24T13:59:46.652Z</time></trkpt><trkpt lat="43.8917842" lon="11.2861408"><ele>302.0</ele><time>2026-04-24T13:59:47.652Z</time></trkpt><trkpt lat="43.8918" lon="11.2862637"><ele>302.0</ele><time>2026-04-24T13:59:49.652Z</time></trkpt><trkpt lat="43.8919229" lon="11.2863151"><ele>302.0</ele><time>2026-04-24T13:59:51.652Z</time></trkpt><trkpt lat="43.8920071" lon="11.2863405"><ele>302.0</ele><time>2026-04-24T13:59:52.651Z</time></trkpt><trkpt lat="43.892101" lon="11.2863606"><ele>302.0</ele><time>2026-04-24T13:59:53.652Z</time></trkpt><trkpt lat="43.8921915" lon="11.2863569"><ele>302.0</ele><time>2026-04-24T13:59:54.652Z</time></trkpt><trkpt lat="43.892267" lon="11.2863237"><ele>302.0</ele><time>2026-04-24T13:59:55.652Z</time></trkpt><trkpt lat="43.892329" lon="11.2862519"><ele>302.0</ele><time>2026-04-24T13:59:56.652Z</time></trkpt><trkpt lat="43.8923773" lon="11.2861694"><ele>302.0</ele><time>2026-04-24T13:59:57.652Z</time></trkpt><trkpt lat="43.8924233" lon="11.2860964"><ele>302.0</ele><time>2026-04-24T13:59:58.652Z</time></trkpt><trkpt lat="43.8925414" lon="11.2860404"><ele>303.0</ele><time>2026-04-24T14:00:00.652Z</time></trkpt><trkpt lat="43.8926269" lon="11.2860512"><ele>304.0</ele><time>2026-04-24T14:00:01.652Z</time></trkpt><trkpt lat="43.8926987" lon="11.2860873"><ele>305.0</ele><time>2026-04-24T14:00:02.652Z</time></trkpt><trkpt lat="43.8927713" lon="11.2862273"><ele>306.0</ele><time>2026-04-24T14:00:04.652Z</time></trkpt><trkpt lat="43.8927628" lon="11.286352"><ele>307.0</ele><time>2026-04-24T14:00:05.652Z</time></trkpt><trkpt lat="43.8927235" lon="11.2864812"><ele>307.8333333333333</ele><time>2026-04-24T14:00:06.652Z</time></trkpt><trkpt lat="43.8926799" lon="11.2865964"><ele>308.66666666666663</ele><time>2026-04-24T14:00:07.651Z</time></trkpt><trkpt lat="43.8926669" lon="11.2867044"><ele>309.5</ele><time>2026-04-24T14:00:08.652Z</time></trkpt><trkpt lat="43.8926785" lon="11.2868091"><ele>310.3333333333333</ele><time>2026-04-24T14:00:09.652Z</time></trkpt><trkpt lat="43.8927104" lon="11.2869064"><ele>311.1666666666667</ele><time>2026-04-24T14:00:10.652Z</time></trkpt><trkpt lat="43.8927642" lon="11.2870062"><ele>312.0</ele><time>2026-04-24T14:00:11.651Z</time></trkpt><trkpt lat="43.8928088" lon="11.2870987"><ele>312.0</ele><time>2026-04-24T14:00:12.652Z</time></trkpt><trkpt lat="43.8928539" lon="11.2871966"><ele>312.0</ele><time>2026-04-24T14:00:13.651Z</time></trkpt><trkpt lat="43.8928941" lon="11.2873006"><ele>312.0</ele><time>2026-04-24T14:00:14.652Z</time></trkpt><trkpt lat="43.8929262" lon="11.2874051"><ele>312.0</ele><time>2026-04-24T14:00:15.651Z</time></trkpt><trkpt lat="43.8929489" lon="11.2875121"><ele>312.0</ele><time>2026-04-24T14:00:16.652Z</time></trkpt><trkpt lat="43.8929707" lon="11.2876206"><ele>312.0</ele><time>2026-04-24T14:00:17.652Z</time></trkpt><trkpt lat="43.8929954" lon="11.2877402"><ele>311.6</ele><time>2026-04-24T14:00:18.652Z</time></trkpt><trkpt lat="43.8930139" lon="11.2878655"><ele>311.2</ele><time>2026-04-24T14:00:19.652Z</time></trkpt><trkpt lat="43.8930299" lon="11.287991"><ele>310.8</ele><time>2026-04-24T14:00:20.652Z</time></trkpt><trkpt lat="43.8930502" lon="11.288121"><ele>310.4</ele><time>2026-04-24T14:00:21.652Z</time></trkpt><trkpt lat="43.8930663" lon="11.2882563"><ele>310.0</ele><time>2026-04-24T14:00:22.652Z</time></trkpt><trkpt lat="43.8930841" lon="11.2883937"><ele>310.0</ele><time>2026-04-24T14:00:23.652Z</time></trkpt><trkpt lat="43.8931146" lon="11.2885398"><ele>310.0</ele><time>2026-04-24T14:00:24.651Z</time></trkpt><trkpt lat="43.8931563" lon="11.2886853"><ele>310.0</ele><time>2026-04-24T14:00:25.651Z</time></trkpt><trkpt lat="43.8932084" lon="11.2888087"><ele>310.0</ele><time>2026-04-24T14:00:26.652Z</time></trkpt><trkpt lat="43.8932807" lon="11.2889302"><ele>310.0</ele><time>2026-04-24T14:00:27.652Z</time></trkpt><trkpt lat="43.8933696" lon="11.2890379"><ele>312.8</ele><time>2026-04-24T14:00:28.652Z</time></trkpt><trkpt lat="43.8934609" lon="11.2891472"><ele>315.6</ele><time>2026-04-24T14:00:29.652Z</time></trkpt><trkpt lat="43.8935445" lon="11.2892632"><ele>318.4</ele><time>2026-04-24T14:00:30.652Z</time></trkpt><trkpt lat="43.8936101" lon="11.2893775"><ele>321.2</ele><time>2026-04-24T14:00:31.652Z</time></trkpt><trkpt lat="43.8936736" lon="11.2894875"><ele>324.0</ele><time>2026-04-24T14:00:32.652Z</time></trkpt><trkpt lat="43.8937225" lon="11.289606"><ele>324.0</ele><time>2026-04-24T14:00:33.652Z</time></trkpt><trkpt lat="43.8937548" lon="11.2897379"><ele>324.0</ele><time>2026-04-24T14:00:34.652Z</time></trkpt><trkpt lat="43.8937639" lon="11.2898852"><ele>324.0</ele><time>2026-04-24T14:00:35.652Z</time></trkpt><trkpt lat="43.8937766" lon="11.2900419"><ele>324.0</ele><time>2026-04-24T14:00:36.652Z</time></trkpt><trkpt lat="43.8937907" lon="11.2902114"><ele>324.0</ele><time>2026-04-24T14:00:37.652Z</time></trkpt><trkpt lat="43.893805" lon="11.2903842"><ele>322.5</ele><time>2026-04-24T14:00:38.652Z</time></trkpt><trkpt lat="43.893816" lon="11.2905635"><ele>321.0</ele><time>2026-04-24T14:00:39.652Z</time></trkpt><trkpt lat="43.8938203" lon="11.2907707"><ele>319.5</ele><time>2026-04-24T14:00:40.652Z</time></trkpt><trkpt lat="43.8938243" lon="11.2909781"><ele>318.0</ele><time>2026-04-24T14:00:41.651Z</time></trkpt><trkpt lat="43.8937928" lon="11.2911977"><ele>319.3333333333333</ele><time>2026-04-24T14:00:42.652Z</time></trkpt><trkpt lat="43.8937799" lon="11.2914287"><ele>320.66666666666663</ele><time>2026-04-24T14:00:43.652Z</time></trkpt><trkpt lat="43.8937448" lon="11.2916966"><ele>322.0</ele><time>2026-04-24T14:00:44.652Z</time></trkpt><trkpt lat="43.8937256" lon="11.2918955"><ele>322.0</ele><time>2026-04-24T14:00:45.652Z</time></trkpt><trkpt lat="43.8937134" lon="11.2920778"><ele>322.0</ele><time>2026-04-24T14:00:46.652Z</time></trkpt><trkpt lat="43.8937404" lon="11.2922468"><ele>322.0</ele><time>2026-04-24T14:00:47.652Z</time></trkpt><trkpt lat="43.8937628" lon="11.2924057"><ele>322.0</ele><time>2026-04-24T14:00:48.652Z</time></trkpt><trkpt lat="43.8937916" lon="11.292548"><ele>323.0</ele><time>2026-04-24T14:00:49.652Z</time></trkpt><trkpt lat="43.8938184" lon="11.2926952"><ele>324.0</ele><time>2026-04-24T14:00:50.652Z</time></trkpt><trkpt lat="43.8938418" lon="11.2928281"><ele>325.0</ele><time>2026-04-24T14:00:51.652Z</time></trkpt><trkpt lat="43.8938587" lon="11.2929457"><ele>326.0</ele><time>2026-04-24T14:00:52.652Z</time></trkpt><trkpt lat="43.8938854" lon="11.2930765"><ele>327.0</ele><time>2026-04-24T14:00:53.652Z</time></trkpt><trkpt lat="43.8939467" lon="11.2931893"><ele>327.6</ele><time>2026-04-24T14:00:54.652Z</time></trkpt><trkpt lat="43.8940314" lon="11.2932185"><ele>328.20000000000005</ele><time>2026-04-24T14:00:55.652Z</time></trkpt><trkpt lat="43.8941022" lon="11.2932834"><ele>328.8</ele><time>2026-04-24T14:00:56.652Z</time></trkpt><trkpt lat="43.8941712" lon="11.2933488"><ele>329.4</ele><time>2026-04-24T14:00:57.652Z</time></trkpt><trkpt lat="43.894218" lon="11.2934698"><ele>330.0</ele><time>2026-04-24T14:00:58.651Z</time></trkpt><trkpt lat="43.8942035" lon="11.2936562"><ele>330.0</ele><time>2026-04-24T14:00:59.652Z</time></trkpt><trkpt lat="43.8942251" lon="11.2938424"><ele>330.0</ele><time>2026-04-24T14:01:00.652Z</time></trkpt><trkpt lat="43.8942577" lon="11.2940325"><ele>330.0</ele><time>2026-04-24T14:01:01.652Z</time></trkpt><trkpt lat="43.8942902" lon="11.2942221"><ele>330.0</ele><time>2026-04-24T14:01:02.653Z</time></trkpt><trkpt lat="43.8943212" lon="11.294388"><ele>334.25</ele><time>2026-04-24T14:01:03.652Z</time></trkpt><trkpt lat="43.894353" lon="11.2945571"><ele>338.5</ele><time>2026-04-24T14:01:04.653Z</time></trkpt><trkpt lat="43.8943932" lon="11.2947069"><ele>342.75</ele><time>2026-04-24T14:01:05.653Z</time></trkpt><trkpt lat="43.8944316" lon="11.2948717"><ele>347.0</ele><time>2026-04-24T14:01:06.653Z</time></trkpt><trkpt lat="43.8944587" lon="11.29503"><ele>347.0</ele><time>2026-04-24T14:01:07.653Z</time></trkpt><trkpt lat="43.8944992" lon="11.2951799"><ele>347.0</ele><time>2026-04-24T14:01:08.653Z</time></trkpt><trkpt lat="43.8945181" lon="11.2953073"><ele>347.0</ele><time>2026-04-24T14:01:09.653Z</time></trkpt><trkpt lat="43.89452" lon="11.2954442"><ele>347.0</ele><time>2026-04-24T14:01:10.653Z</time></trkpt><trkpt lat="43.8945276" lon="11.2955796"><ele>347.0</ele><time>2026-04-24T14:01:11.652Z</time></trkpt><trkpt lat="43.8945005" lon="11.2957237"><ele>348.0</ele><time>2026-04-24T14:01:12.653Z</time></trkpt><trkpt lat="43.8944706" lon="11.2958614"><ele>349.0</ele><time>2026-04-24T14:01:13.653Z</time></trkpt><trkpt lat="43.894457" lon="11.2960132"><ele>350.0</ele><time>2026-04-24T14:01:14.653Z</time></trkpt><trkpt lat="43.8944341" lon="11.2961317"><ele>351.0</ele><time>2026-04-24T14:01:15.652Z</time></trkpt><trkpt lat="43.8944114" lon="11.2962393"><ele>352.0</ele><time>2026-04-24T14:01:16.653Z</time></trkpt><trkpt lat="43.8944232" lon="11.2963416"><ele>353.40000000000003</ele><time>2026-04-24T14:01:17.653Z</time></trkpt><trkpt lat="43.8944764" lon="11.2964213"><ele>354.8</ele><time>2026-04-24T14:01:18.653Z</time></trkpt><trkpt lat="43.8945401" lon="11.2965018"><ele>356.2</ele><time>2026-04-24T14:01:19.653Z</time></trkpt><trkpt lat="43.8946173" lon="11.2965722"><ele>357.6</ele><time>2026-04-24T14:01:20.652Z</time></trkpt><trkpt lat="43.8947059" lon="11.2966199"><ele>359.0</ele><time>2026-04-24T14:01:21.653Z</time></trkpt><trkpt lat="43.8948185" lon="11.2966752"><ele>359.0</ele><time>2026-04-24T14:01:22.653Z</time></trkpt><trkpt lat="43.894912" lon="11.296731"><ele>359.0</ele><time>2026-04-24T14:01:23.653Z</time></trkpt><trkpt lat="43.8950082" lon="11.2967855"><ele>359.0</ele><time>2026-04-24T14:01:24.652Z</time></trkpt><trkpt lat="43.8951063" lon="11.2968398"><ele>359.0</ele><time>2026-04-24T14:01:25.653Z</time></trkpt><trkpt lat="43.8952101" lon="11.2968907"><ele>359.0</ele><time>2026-04-24T14:01:26.653Z</time></trkpt><trkpt lat="43.8953186" lon="11.2969523"><ele>360.5</ele><time>2026-04-24T14:01:27.653Z</time></trkpt><trkpt lat="43.8954365" lon="11.2970173"><ele>362.0</ele><time>2026-04-24T14:01:28.651Z</time></trkpt><trkpt lat="43.8955588" lon="11.2970898"><ele>363.5</ele><time>2026-04-24T14:01:29.653Z</time></trkpt><trkpt lat="43.8956784" lon="11.2971606"><ele>365.0</ele><time>2026-04-24T14:01:30.653Z</time></trkpt><trkpt lat="43.8957964" lon="11.2972355"><ele>369.25</ele><time>2026-04-24T14:01:31.653Z</time></trkpt><trkpt lat="43.8959218" lon="11.2973102"><ele>373.5</ele><time>2026-04-24T14:01:32.653Z</time></trkpt><trkpt lat="43.8960452" lon="11.2973861"><ele>377.75</ele><time>2026-04-24T14:01:33.653Z</time></trkpt><trkpt lat="43.8961675" lon="11.2974809"><ele>382.0</ele><time>2026-04-24T14:01:34.653Z</time></trkpt><trkpt lat="43.8962921" lon="11.2975814"><ele>382.0</ele><time>2026-04-24T14:01:35.653Z</time></trkpt><trkpt lat="43.8964031" lon="11.2976682"><ele>382.0</ele><time>2026-04-24T14:01:36.652Z</time></trkpt><trkpt lat="43.8965066" lon="11.2977061"><ele>382.0</ele><time>2026-04-24T14:01:37.653Z</time></trkpt><trkpt lat="43.8966059" lon="11.297688"><ele>382.0</ele><time>2026-04-24T14:01:38.653Z</time></trkpt><trkpt lat="43.8967045" lon="11.297634"><ele>382.0</ele><time>2026-04-24T14:01:39.653Z</time></trkpt><trkpt lat="43.8968042" lon="11.2975639"><ele>385.25</ele><time>2026-04-24T14:01:40.653Z</time></trkpt><trkpt lat="43.8969274" lon="11.297474"><ele>388.5</ele><time>2026-04-24T14:01:41.653Z</time></trkpt><trkpt lat="43.8970593" lon="11.2973697"><ele>391.75</ele><time>2026-04-24T14:01:42.653Z</time></trkpt><trkpt lat="43.8971861" lon="11.2972747"><ele>395.0</ele><time>2026-04-24T14:01:43.652Z</time></trkpt><trkpt lat="43.8972971" lon="11.2971777"><ele>396.0</ele><time>2026-04-24T14:01:44.653Z</time></trkpt><trkpt lat="43.8973798" lon="11.2970936"><ele>397.0</ele><time>2026-04-24T14:01:45.653Z</time></trkpt><trkpt lat="43.8974832" lon="11.2970193"><ele>398.0</ele><time>2026-04-24T14:01:47.653Z</time></trkpt><trkpt lat="43.8975454" lon="11.2970001"><ele>399.0</ele><time>2026-04-24T14:01:48.653Z</time></trkpt><trkpt lat="43.8976086" lon="11.29698"><ele>400.0</ele><time>2026-04-24T14:01:49.653Z</time></trkpt><trkpt lat="43.8976926" lon="11.2968968"><ele>404.8</ele><time>2026-04-24T14:01:51.653Z</time></trkpt><trkpt lat="43.8976472" lon="11.2967648"><ele>409.6</ele><time>2026-04-24T14:01:53.652Z</time></trkpt><trkpt lat="43.8976494" lon="11.2966355"><ele>414.4</ele><time>2026-04-24T14:01:55.653Z</time></trkpt><trkpt lat="43.8977559" lon="11.2965859"><ele>419.2</ele><time>2026-04-24T14:01:57.653Z</time></trkpt><trkpt lat="43.897826" lon="11.2965821"><ele>424.0</ele><time>2026-04-24T14:01:58.653Z</time></trkpt><trkpt lat="43.8979045" lon="11.296581"><ele>424.0</ele><time>2026-04-24T14:01:59.653Z</time></trkpt><trkpt lat="43.8979766" lon="11.2965842"><ele>424.0</ele><time>2026-04-24T14:02:00.653Z</time></trkpt><trkpt lat="43.8980452" lon="11.2965827"><ele>424.0</ele><time>2026-04-24T14:02:01.653Z</time></trkpt><trkpt lat="43.8981689" lon="11.2965587"><ele>424.0</ele><time>2026-04-24T14:02:03.653Z</time></trkpt><trkpt lat="43.8982907" lon="11.2965172"><ele>424.0</ele><time>2026-04-24T14:02:05.653Z</time></trkpt><trkpt lat="43.8983593" lon="11.2964811"><ele>424.00000000000006</ele><time>2026-04-24T14:02:06.653Z</time></trkpt><trkpt lat="43.8984504" lon="11.2965084"><ele>424.0</ele><time>2026-04-24T14:02:08.653Z</time></trkpt><trkpt lat="43.8984399" lon="11.296596"><ele>424.0</ele><time>2026-04-24T14:03:46.653Z</time></trkpt><trkpt lat="43.8983899" lon="11.2965223"><ele>424.0</ele><time>2026-04-24T14:03:57.653Z</time></trkpt><trkpt lat="43.8983292" lon="11.2963934"><ele>424.00000000000006</ele><time>2026-04-24T14:04:00.652Z</time></trkpt><trkpt lat="43.8983171" lon="11.2962749"><ele>424.0</ele><time>2026-04-24T14:04:01.653Z</time></trkpt><trkpt lat="43.898308" lon="11.2961499"><ele>427.0</ele><time>2026-04-24T14:04:02.653Z</time></trkpt><trkpt lat="43.8982999" lon="11.2960349"><ele>430.0</ele><time>2026-04-24T14:04:03.653Z</time></trkpt><trkpt lat="43.8982786" lon="11.2959319"><ele>433.0</ele><time>2026-04-24T14:04:04.653Z</time></trkpt><trkpt lat="43.8982422" lon="11.295793"><ele>436.0</ele><time>2026-04-24T14:04:05.653Z</time></trkpt><trkpt lat="43.8982088" lon="11.2956317"><ele>439.0</ele><time>2026-04-24T14:04:06.653Z</time></trkpt><trkpt lat="43.898088" lon="11.2954314"><ele>443.25</ele><time>2026-04-24T14:04:07.653Z</time></trkpt><trkpt lat="43.8980209" lon="11.2952774"><ele>447.5</ele><time>2026-04-24T14:04:08.653Z</time></trkpt><trkpt lat="43.8979474" lon="11.2951265"><ele>451.75</ele><time>2026-04-24T14:04:09.652Z</time></trkpt><trkpt lat="43.8978826" lon="11.2949987"><ele>456.0</ele><time>2026-04-24T14:04:10.652Z</time></trkpt><trkpt lat="43.8978208" lon="11.2948495"><ele>459.6</ele><time>2026-04-24T14:04:11.652Z</time></trkpt><trkpt lat="43.8977613" lon="11.2947226"><ele>463.20000000000005</ele><time>2026-04-24T14:04:12.653Z</time></trkpt><trkpt lat="43.897704" lon="11.2945992"><ele>466.79999999999995</ele><time>2026-04-24T14:04:13.652Z</time></trkpt><trkpt lat="43.8976514" lon="11.2944981"><ele>470.4</ele><time>2026-04-24T14:04:14.653Z</time></trkpt><trkpt lat="43.897616" lon="11.2943508"><ele>474.0</ele><time>2026-04-24T14:04:15.652Z</time></trkpt><trkpt lat="43.8975607" lon="11.2941655"><ele>470.0</ele><time>2026-04-24T14:04:16.653Z</time></trkpt><trkpt lat="43.8975205" lon="11.2940023"><ele>466.0</ele><time>2026-04-24T14:04:17.653Z</time></trkpt><trkpt lat="43.8974649" lon="11.293882"><ele>462.0</ele><time>2026-04-24T14:04:18.653Z</time></trkpt><trkpt lat="43.8973966" lon="11.293798"><ele>458.0</ele><time>2026-04-24T14:04:19.653Z</time></trkpt><trkpt lat="43.897298" lon="11.2937255"><ele>454.0</ele><time>2026-04-24T14:04:20.653Z</time></trkpt><trkpt lat="43.897216" lon="11.2936448"><ele>454.0</ele><time>2026-04-24T14:04:21.653Z</time></trkpt><trkpt lat="43.8970826" lon="11.2935554"><ele>454.0</ele><time>2026-04-24T14:04:22.653Z</time></trkpt><trkpt lat="43.8969786" lon="11.2934745"><ele>454.0</ele><time>2026-04-24T14:04:23.653Z</time></trkpt><trkpt lat="43.8968944" lon="11.2933934"><ele>454.0</ele><time>2026-04-24T14:04:24.653Z</time></trkpt><trkpt lat="43.8968379" lon="11.2932919"><ele>454.0</ele><time>2026-04-24T14:04:25.653Z</time></trkpt><trkpt lat="43.8967593" lon="11.2932042"><ele>454.0</ele><time>2026-04-24T14:04:26.653Z</time></trkpt><trkpt lat="43.8967047" lon="11.2930498"><ele>454.0</ele><time>2026-04-24T14:04:28.653Z</time></trkpt><trkpt lat="43.8967143" lon="11.2929028"><ele>454.0</ele><time>2026-04-24T14:04:29.653Z</time></trkpt><trkpt lat="43.896699" lon="11.2928019"><ele>454.0</ele><time>2026-04-24T14:04:30.653Z</time></trkpt><trkpt lat="43.8967092" lon="11.2926919"><ele>453.6</ele><time>2026-04-24T14:04:31.653Z</time></trkpt><trkpt lat="43.8967237" lon="11.2925859"><ele>453.2</ele><time>2026-04-24T14:04:32.653Z</time></trkpt><trkpt lat="43.8967588" lon="11.2924894"><ele>452.80000000000007</ele><time>2026-04-24T14:04:33.653Z</time></trkpt><trkpt lat="43.896785" lon="11.2923697"><ele>452.40000000000003</ele><time>2026-04-24T14:04:34.653Z</time></trkpt><trkpt lat="43.8968313" lon="11.2922009"><ele>452.0</ele><time>2026-04-24T14:04:35.653Z</time></trkpt><trkpt lat="43.8968719" lon="11.2920669"><ele>451.99999999999994</ele><time>2026-04-24T14:04:36.653Z</time></trkpt><trkpt lat="43.8968999" lon="11.2919655"><ele>452.0</ele><time>2026-04-24T14:04:37.653Z</time></trkpt><trkpt lat="43.896939" lon="11.2918409"><ele>452.0</ele><time>2026-04-24T14:04:38.653Z</time></trkpt><trkpt lat="43.8969806" lon="11.2917318"><ele>452.0</ele><time>2026-04-24T14:04:39.653Z</time></trkpt><trkpt lat="43.8970196" lon="11.2916249"><ele>451.99999999999994</ele><time>2026-04-24T14:04:40.653Z</time></trkpt><trkpt lat="43.8970499" lon="11.2915406"><ele>452.0</ele><time>2026-04-24T14:04:41.652Z</time></trkpt><trkpt lat="43.897115" lon="11.2914917"><ele>452.0</ele><time>2026-04-24T14:04:50.653Z</time></trkpt><trkpt lat="43.8971837" lon="11.2914864"><ele>452.0</ele><time>2026-04-24T14:04:52.653Z</time></trkpt><trkpt lat="43.8973198" lon="11.2914837"><ele>452.0</ele><time>2026-04-24T14:04:53.653Z</time></trkpt><trkpt lat="43.8974312" lon="11.2915303"><ele>452.0</ele><time>2026-04-24T14:04:54.653Z</time></trkpt><trkpt lat="43.8975641" lon="11.291458"><ele>453.8</ele><time>2026-04-24T14:04:55.653Z</time></trkpt><trkpt lat="43.8976804" lon="11.2914293"><ele>455.6</ele><time>2026-04-24T14:04:56.653Z</time></trkpt><trkpt lat="43.897744" lon="11.2913847"><ele>457.40000000000003</ele><time>2026-04-24T14:04:57.653Z</time></trkpt><trkpt lat="43.8978384" lon="11.2913645"><ele>459.20000000000005</ele><time>2026-04-24T14:04:58.653Z</time></trkpt><trkpt lat="43.8979267" lon="11.291365"><ele>461.0</ele><time>2026-04-24T14:04:59.653Z</time></trkpt><trkpt lat="43.8980125" lon="11.291376"><ele>456.8333333333333</ele><time>2026-04-24T14:05:00.653Z</time></trkpt><trkpt lat="43.8980836" lon="11.2913664"><ele>452.66666666666663</ele><time>2026-04-24T14:05:01.653Z</time></trkpt><trkpt lat="43.8981571" lon="11.29135"><ele>448.5</ele><time>2026-04-24T14:05:02.653Z</time></trkpt><trkpt lat="43.898237" lon="11.2913156"><ele>444.33333333333337</ele><time>2026-04-24T14:05:03.653Z</time></trkpt><trkpt lat="43.8983279" lon="11.2912594"><ele>440.1666666666667</ele><time>2026-04-24T14:05:04.653Z</time></trkpt><trkpt lat="43.8984136" lon="11.2911907"><ele>436.0</ele><time>2026-04-24T14:05:05.653Z</time></trkpt><trkpt lat="43.8984961" lon="11.2911212"><ele>436.0</ele><time>2026-04-24T14:05:06.652Z</time></trkpt><trkpt lat="43.8985703" lon="11.2910599"><ele>436.0</ele><time>2026-04-24T14:05:07.653Z</time></trkpt><trkpt lat="43.8986494" lon="11.2910266"><ele>436.0</ele><time>2026-04-24T14:05:08.653Z</time></trkpt><trkpt lat="43.8987468" lon="11.2909889"><ele>436.0</ele><time>2026-04-24T14:05:10.652Z</time></trkpt><trkpt lat="43.8987548" lon="11.2910831"><ele>436.0</ele><time>2026-04-24T14:05:45.652Z</time></trkpt><trkpt lat="43.8986882" lon="11.2912208"><ele>436.0</ele><time>2026-04-24T14:05:47.653Z</time></trkpt><trkpt lat="43.8986347" lon="11.2913726"><ele>436.0</ele><time>2026-04-24T14:05:49.652Z</time></trkpt><trkpt lat="43.8985987" lon="11.2914793"><ele>436.0</ele><time>2026-04-24T14:05:50.653Z</time></trkpt><trkpt lat="43.898572" lon="11.2915759"><ele>436.0</ele><time>2026-04-24T14:05:51.653Z</time></trkpt><trkpt lat="43.8985616" lon="11.2917579"><ele>436.0</ele><time>2026-04-24T14:05:53.653Z</time></trkpt><trkpt lat="43.8986693" lon="11.2919384"><ele>441.8</ele><time>2026-04-24T14:05:55.653Z</time></trkpt><trkpt lat="43.8987446" lon="11.2920798"><ele>447.6</ele><time>2026-04-24T14:05:57.653Z</time></trkpt><trkpt lat="43.8987856" lon="11.2921609"><ele>453.4</ele><time>2026-04-24T14:05:58.653Z</time></trkpt><trkpt lat="43.8988327" lon="11.2923185"><ele>459.2</ele><time>2026-04-24T14:06:00.653Z</time></trkpt><trkpt lat="43.8988587" lon="11.2924094"><ele>465.0</ele><time>2026-04-24T14:06:02.653Z</time></trkpt><trkpt lat="43.8988783" lon="11.2925266"><ele>469.1666666666667</ele><time>2026-04-24T14:06:04.653Z</time></trkpt><trkpt lat="43.8989176" lon="11.2926655"><ele>473.33333333333337</ele><time>2026-04-24T14:06:06.653Z</time></trkpt><trkpt lat="43.8989492" lon="11.2927459"><ele>477.5</ele><time>2026-04-24T14:06:07.653Z</time></trkpt><trkpt lat="43.8990012" lon="11.2928359"><ele>481.6666666666667</ele><time>2026-04-24T14:06:11.652Z</time></trkpt><trkpt lat="43.8990318" lon="11.2929526"><ele>485.83333333333337</ele><time>2026-04-24T14:06:12.653Z</time></trkpt><trkpt lat="43.8990612" lon="11.2930367"><ele>490.0</ele><time>2026-04-24T14:06:13.653Z</time></trkpt><trkpt lat="43.8990876" lon="11.2931174"><ele>490.6666666666667</ele><time>2026-04-24T14:06:14.653Z</time></trkpt><trkpt lat="43.8991259" lon="11.2932248"><ele>491.33333333333337</ele><time>2026-04-24T14:06:15.653Z</time></trkpt><trkpt lat="43.8991674" lon="11.2932918"><ele>492.0</ele><time>2026-04-24T14:06:16.653Z</time></trkpt><trkpt lat="43.8992029" lon="11.293372"><ele>492.66666666666663</ele><time>2026-04-24T14:06:17.652Z</time></trkpt><trkpt lat="43.8992406" lon="11.2935033"><ele>493.3333333333333</ele><time>2026-04-24T14:06:19.653Z</time></trkpt><trkpt lat="43.8992865" lon="11.2936344"><ele>494.0</ele><time>2026-04-24T14:06:21.653Z</time></trkpt><trkpt lat="43.8993333" lon="11.293769"><ele>493.99999999999994</ele><time>2026-04-24T14:06:23.653Z</time></trkpt><trkpt lat="43.8993739" lon="11.2938365"><ele>494.0</ele><time>2026-04-24T14:06:24.653Z</time></trkpt><trkpt lat="43.899405" lon="11.2939288"><ele>494.0</ele><time>2026-04-24T14:06:25.653Z</time></trkpt><trkpt lat="43.8994376" lon="11.294004"><ele>494.0</ele><time>2026-04-24T14:06:26.652Z</time></trkpt><trkpt lat="43.8994925" lon="11.294132"><ele>493.99999999999994</ele><time>2026-04-24T14:06:28.652Z</time></trkpt><trkpt lat="43.8995669" lon="11.2942396"><ele>494.0</ele><time>2026-04-24T14:06:30.653Z</time></trkpt><trkpt lat="43.8996511" lon="11.2943529"><ele>498.2</ele><time>2026-04-24T14:06:32.653Z</time></trkpt><trkpt lat="43.8997206" lon="11.2944352"><ele>502.4</ele><time>2026-04-24T14:06:34.653Z</time></trkpt><trkpt lat="43.8998148" lon="11.2945155"><ele>506.6</ele><time>2026-04-24T14:06:36.653Z</time></trkpt><trkpt lat="43.8998963" lon="11.2945915"><ele>510.8</ele><time>2026-04-24T14:06:38.652Z</time></trkpt><trkpt lat="43.8999752" lon="11.2946458"><ele>515.0</ele><time>2026-04-24T14:06:40.653Z</time></trkpt><trkpt lat="43.900063" lon="11.2947375"><ele>515.3333333333333</ele><time>2026-04-24T14:06:42.653Z</time></trkpt><trkpt lat="43.9001332" lon="11.2947892"><ele>515.6666666666666</ele><time>2026-04-24T14:06:44.653Z</time></trkpt><trkpt lat="43.900177" lon="11.2948564"><ele>516.0</ele><time>2026-04-24T14:06:45.653Z</time></trkpt><trkpt lat="43.9002777" lon="11.2949294"><ele>516.3333333333334</ele><time>2026-04-24T14:06:47.652Z</time></trkpt><trkpt lat="43.9003299" lon="11.2949839"><ele>516.6666666666667</ele><time>2026-04-24T14:06:48.652Z</time></trkpt><trkpt lat="43.9004277" lon="11.2950872"><ele>517.0</ele><time>2026-04-24T14:06:50.652Z</time></trkpt><trkpt lat="43.9004938" lon="11.2951545"><ele>517.0</ele><time>2026-04-24T14:06:52.653Z</time></trkpt><trkpt lat="43.9005584" lon="11.2952696"><ele>517.0</ele><time>2026-04-24T14:06:54.653Z</time></trkpt><trkpt lat="43.9006305" lon="11.2953361"><ele>517.0</ele><time>2026-04-24T14:06:56.653Z</time></trkpt><trkpt lat="43.9006852" lon="11.2954164"><ele>517.0</ele><time>2026-04-24T14:06:58.653Z</time></trkpt><trkpt lat="43.9007427" lon="11.2955068"><ele>517.0</ele><time>2026-04-24T14:07:00.653Z</time></trkpt><trkpt lat="43.9008509" lon="11.2955471"><ele>516.8333333333334</ele><time>2026-04-24T14:07:01.653Z</time></trkpt><trkpt lat="43.9009102" lon="11.2956311"><ele>516.6666666666667</ele><time>2026-04-24T14:07:02.653Z</time></trkpt><trkpt lat="43.9009904" lon="11.2956918"><ele>516.5</ele><time>2026-04-24T14:07:03.653Z</time></trkpt><trkpt lat="43.9010596" lon="11.2957589"><ele>516.3333333333334</ele><time>2026-04-24T14:07:04.653Z</time></trkpt><trkpt lat="43.901135" lon="11.2958182"><ele>516.1666666666666</ele><time>2026-04-24T14:07:05.653Z</time></trkpt><trkpt lat="43.9012072" lon="11.2958741"><ele>516.0</ele><time>2026-04-24T14:07:06.653Z</time></trkpt><trkpt lat="43.9012849" lon="11.2959272"><ele>515.4</ele><time>2026-04-24T14:07:07.653Z</time></trkpt><trkpt lat="43.9013502" lon="11.2959838"><ele>514.8</ele><time>2026-04-24T14:07:08.652Z</time></trkpt><trkpt lat="43.9014586" lon="11.2960463"><ele>514.1999999999999</ele><time>2026-04-24T14:07:10.653Z</time></trkpt><trkpt lat="43.9015143" lon="11.2961414"><ele>513.6</ele><time>2026-04-24T14:08:38.653Z</time></trkpt><trkpt lat="43.9015779" lon="11.2962128"><ele>513.0</ele><time>2026-04-24T14:08:39.653Z</time></trkpt><trkpt lat="43.9016833" lon="11.2962929"><ele>513.1666666666666</ele><time>2026-04-24T14:08:41.653Z</time></trkpt><trkpt lat="43.9017499" lon="11.2963532"><ele>513.3333333333334</ele><time>2026-04-24T14:08:42.653Z</time></trkpt><trkpt lat="43.9018229" lon="11.2964161"><ele>513.5</ele><time>2026-04-24T14:08:43.653Z</time></trkpt><trkpt lat="43.9018947" lon="11.296484"><ele>513.6666666666667</ele><time>2026-04-24T14:08:44.653Z</time></trkpt><trkpt lat="43.9019615" lon="11.2965425"><ele>513.8333333333334</ele><time>2026-04-24T14:08:45.653Z</time></trkpt><trkpt lat="43.9020182" lon="11.2965947"><ele>514.0</ele><time>2026-04-24T14:08:46.653Z</time></trkpt><trkpt lat="43.9020808" lon="11.2966436"><ele>516.8333333333334</ele><time>2026-04-24T14:08:47.653Z</time></trkpt><trkpt lat="43.9021564" lon="11.2966869"><ele>519.6666666666667</ele><time>2026-04-24T14:08:48.652Z</time></trkpt><trkpt lat="43.9022356" lon="11.2967228"><ele>522.5</ele><time>2026-04-24T14:08:49.653Z</time></trkpt><trkpt lat="43.9023165" lon="11.296773"><ele>525.3333333333334</ele><time>2026-04-24T14:08:50.653Z</time></trkpt><trkpt lat="43.9023827" lon="11.2968232"><ele>528.1666666666666</ele><time>2026-04-24T14:08:51.653Z</time></trkpt><trkpt lat="43.9024603" lon="11.2968645"><ele>531.0</ele><time>2026-04-24T14:08:52.653Z</time></trkpt><trkpt lat="43.9025848" lon="11.2969055"><ele>531.0</ele><time>2026-04-24T14:08:54.653Z</time></trkpt><trkpt lat="43.9026389" lon="11.2969582"><ele>531.0</ele><time>2026-04-24T14:08:55.653Z</time></trkpt><trkpt lat="43.9027009" lon="11.2969884"><ele>531.0</ele><time>2026-04-24T14:08:56.653Z</time></trkpt><trkpt lat="43.9027599" lon="11.2970254"><ele>531.0</ele><time>2026-04-24T14:08:57.652Z</time></trkpt><trkpt lat="43.9028647" lon="11.2970713"><ele>531.0</ele><time>2026-04-24T14:08:59.653Z</time></trkpt><trkpt lat="43.9029723" lon="11.2971282"><ele>531.0</ele><time>2026-04-24T14:09:01.653Z</time></trkpt><trkpt lat="43.9030506" lon="11.2971619"><ele>531.0</ele><time>2026-04-24T14:09:03.653Z</time></trkpt><trkpt lat="43.9031092" lon="11.2972435"><ele>531.0</ele><time>2026-04-24T14:09:05.653Z</time></trkpt><trkpt lat="43.9032428" lon="11.29731"><ele>531.0</ele><time>2026-04-24T14:09:07.653Z</time></trkpt><trkpt lat="43.9033169" lon="11.2973239"><ele>531.0</ele><time>2026-04-24T14:09:08.653Z</time></trkpt><trkpt lat="43.9033907" lon="11.2973431"><ele>531.0</ele><time>2026-04-24T14:09:09.653Z</time></trkpt><trkpt lat="43.9034628" lon="11.2973674"><ele>531.0</ele><time>2026-04-24T14:09:10.653Z</time></trkpt><trkpt lat="43.9035376" lon="11.2973769"><ele>531.0</ele><time>2026-04-24T14:09:11.653Z</time></trkpt><trkpt lat="43.9036328" lon="11.2973739"><ele>531.0</ele><time>2026-04-24T14:09:13.653Z</time></trkpt><trkpt lat="43.9036991" lon="11.2973502"><ele>531.0</ele><time>2026-04-24T14:09:16.652Z</time></trkpt><trkpt lat="43.903764" lon="11.2973773"><ele>531.0</ele><time>2026-04-24T14:09:17.653Z</time></trkpt><trkpt lat="43.9038341" lon="11.2973682"><ele>531.0</ele><time>2026-04-24T14:09:19.653Z</time></trkpt><trkpt lat="43.9039127" lon="11.2973578"><ele>531.0</ele><time>2026-04-24T14:09:33.653Z</time></trkpt><trkpt lat="43.9039617" lon="11.2972477"><ele>528.8333333333334</ele><time>2026-04-24T14:09:35.652Z</time></trkpt><trkpt lat="43.9039918" lon="11.2971453"><ele>526.6666666666666</ele><time>2026-04-24T14:09:36.653Z</time></trkpt><trkpt lat="43.9040193" lon="11.2970455"><ele>524.5</ele><time>2026-04-24T14:09:37.653Z</time></trkpt><trkpt lat="43.9040401" lon="11.2969572"><ele>522.3333333333333</ele><time>2026-04-24T14:09:38.653Z</time></trkpt><trkpt lat="43.9039722" lon="11.2968938"><ele>520.1666666666666</ele><time>2026-04-24T14:09:39.653Z</time></trkpt><trkpt lat="43.9039175" lon="11.2968234"><ele>518.0</ele><time>2026-04-24T14:09:40.653Z</time></trkpt><trkpt lat="43.9038616" lon="11.2967486"><ele>518.0</ele><time>2026-04-24T14:09:41.652Z</time></trkpt><trkpt lat="43.9038157" lon="11.2966609"><ele>518.0</ele><time>2026-04-24T14:09:42.653Z</time></trkpt><trkpt lat="43.9038145" lon="11.2965562"><ele>518.0</ele><time>2026-04-24T14:09:43.653Z</time></trkpt><trkpt lat="43.9037974" lon="11.2964373"><ele>518.0</ele><time>2026-04-24T14:09:44.653Z</time></trkpt><trkpt lat="43.9037895" lon="11.2963063"><ele>518.0</ele><time>2026-04-24T14:09:45.653Z</time></trkpt><trkpt lat="43.9037871" lon="11.2961782"><ele>518.0</ele><time>2026-04-24T14:09:46.653Z</time></trkpt><trkpt lat="43.9037942" lon="11.2960747"><ele>514.1666666666666</ele><time>2026-04-24T14:09:47.653Z</time></trkpt><trkpt lat="43.9038003" lon="11.2959734"><ele>510.3333333333333</ele><time>2026-04-24T14:09:48.653Z</time></trkpt><trkpt lat="43.9038092" lon="11.2958678"><ele>506.5</ele><time>2026-04-24T14:09:49.652Z</time></trkpt><trkpt lat="43.903822" lon="11.2957583"><ele>502.66666666666663</ele><time>2026-04-24T14:09:50.652Z</time></trkpt><trkpt lat="43.903833" lon="11.2956485"><ele>498.8333333333333</ele><time>2026-04-24T14:09:51.653Z</time></trkpt><trkpt lat="43.9038391" lon="11.2955607"><ele>495.0</ele><time>2026-04-24T14:09:52.653Z</time></trkpt><trkpt lat="43.9038203" lon="11.2953991"><ele>490.6666666666667</ele><time>2026-04-24T14:09:54.653Z</time></trkpt><trkpt lat="43.9037699" lon="11.2952392"><ele>486.33333333333337</ele><time>2026-04-24T14:09:56.653Z</time></trkpt><trkpt lat="43.9037527" lon="11.2951376"><ele>482.0</ele><time>2026-04-24T14:09:57.652Z</time></trkpt><trkpt lat="43.9037288" lon="11.2950307"><ele>477.6666666666667</ele><time>2026-04-24T14:09:58.653Z</time></trkpt><trkpt lat="43.9036962" lon="11.2949391"><ele>473.33333333333337</ele><time>2026-04-24T14:09:59.652Z</time></trkpt><trkpt lat="43.9036446" lon="11.2948652"><ele>469.0</ele><time>2026-04-24T14:10:00.653Z</time></trkpt><trkpt lat="43.9035978" lon="11.2947897"><ele>464.6</ele><time>2026-04-24T14:10:01.653Z</time></trkpt><trkpt lat="43.9035555" lon="11.2946698"><ele>460.2</ele><time>2026-04-24T14:10:03.652Z</time></trkpt><trkpt lat="43.9035209" lon="11.2944956"><ele>455.80000000000007</ele><time>2026-04-24T14:10:05.653Z</time></trkpt><trkpt lat="43.9035139" lon="11.294386"><ele>451.40000000000003</ele><time>2026-04-24T14:10:06.653Z</time></trkpt><trkpt lat="43.9035032" lon="11.2942959"><ele>447.0</ele><time>2026-04-24T14:10:07.653Z</time></trkpt><trkpt lat="43.9034538" lon="11.2941551"><ele>447.0</ele><time>2026-04-24T14:10:09.653Z</time></trkpt><trkpt lat="43.9034658" lon="11.2939977"><ele>447.0</ele><time>2026-04-24T14:10:11.653Z</time></trkpt><trkpt lat="43.903483" lon="11.2939095"><ele>447.0</ele><time>2026-04-24T14:10:12.653Z</time></trkpt><trkpt lat="43.9035063" lon="11.2938025"><ele>447.0</ele><time>2026-04-24T14:10:13.653Z</time></trkpt><trkpt lat="43.9035265" lon="11.2936891"><ele>447.0</ele><time>2026-04-24T14:10:14.652Z</time></trkpt><trkpt lat="43.9035349" lon="11.2935743"><ele>447.0</ele><time>2026-04-24T14:10:15.653Z</time></trkpt><trkpt lat="43.9035293" lon="11.293458"><ele>444.5</ele><time>2026-04-24T14:10:16.653Z</time></trkpt><trkpt lat="43.9035302" lon="11.2933425"><ele>442.0</ele><time>2026-04-24T14:10:17.653Z</time></trkpt><trkpt lat="43.9035344" lon="11.2932221"><ele>439.5</ele><time>2026-04-24T14:10:18.653Z</time></trkpt><trkpt lat="43.903532" lon="11.2931036"><ele>437.0</ele><time>2026-04-24T14:10:19.653Z</time></trkpt><trkpt lat="43.9035448" lon="11.293005"><ele>434.5</ele><time>2026-04-24T14:10:20.651Z</time></trkpt><trkpt lat="43.9035628" lon="11.2928552"><ele>432.0</ele><time>2026-04-24T14:10:22.652Z</time></trkpt><trkpt lat="43.9035498" lon="11.292734"><ele>431.57142857142856</ele><time>2026-04-24T14:10:24.653Z</time></trkpt><trkpt lat="43.9035021" lon="11.2926717"><ele>431.1428571428571</ele><time>2026-04-24T14:10:55.653Z</time></trkpt><trkpt lat="43.9034338" lon="11.2926719"><ele>430.7142857142857</ele><time>2026-04-24T14:11:00.653Z</time></trkpt><trkpt lat="43.9033799" lon="11.2927445"><ele>430.2857142857143</ele><time>2026-04-24T14:11:25.653Z</time></trkpt><trkpt lat="43.9033078" lon="11.292817"><ele>429.8571428571429</ele><time>2026-04-24T14:11:30.653Z</time></trkpt><trkpt lat="43.9032493" lon="11.2928525"><ele>429.42857142857144</ele><time>2026-04-24T14:11:32.653Z</time></trkpt><trkpt lat="43.9031818" lon="11.292884"><ele>429.0</ele><time>2026-04-24T14:11:34.653Z</time></trkpt><trkpt lat="43.9031083" lon="11.292915"><ele>429.0</ele><time>2026-04-24T14:11:36.652Z</time></trkpt><trkpt lat="43.9030477" lon="11.2929423"><ele>429.0</ele><time>2026-04-24T14:11:38.653Z</time></trkpt><trkpt lat="43.9029853" lon="11.2929845"><ele>429.0</ele><time>2026-04-24T14:11:41.653Z</time></trkpt><trkpt lat="43.902929" lon="11.2930254"><ele>429.0</ele><time>2026-04-24T14:11:44.653Z</time></trkpt><trkpt lat="43.9028501" lon="11.2930617"><ele>429.0</ele><time>2026-04-24T14:11:47.652Z</time></trkpt><trkpt lat="43.9027831" lon="11.2930525"><ele>429.0</ele><time>2026-04-24T14:11:49.651Z</time></trkpt><trkpt lat="43.9027105" lon="11.2930169"><ele>429.0</ele><time>2026-04-24T14:11:51.653Z</time></trkpt><trkpt lat="43.9026475" lon="11.2930144"><ele>429.0</ele><time>2026-04-24T14:12:02.653Z</time></trkpt><trkpt lat="43.9027488" lon="11.2930698"><ele>429.0</ele><time>2026-04-24T14:12:06.653Z</time></trkpt><trkpt lat="43.9028737" lon="11.2930575"><ele>429.0</ele><time>2026-04-24T14:12:08.653Z</time></trkpt><trkpt lat="43.9029358" lon="11.2930364"><ele>429.0</ele><time>2026-04-24T14:12:09.653Z</time></trkpt><trkpt lat="43.9029978" lon="11.2930006"><ele>429.0</ele><time>2026-04-24T14:12:10.653Z</time></trkpt><trkpt lat="43.9031088" lon="11.2929415"><ele>429.0</ele><time>2026-04-24T14:12:12.653Z</time></trkpt><trkpt lat="43.903172" lon="11.2929096"><ele>429.0</ele><time>2026-04-24T14:12:13.653Z</time></trkpt><trkpt lat="43.9032702" lon="11.2928415"><ele>429.0</ele><time>2026-04-24T14:12:15.653Z</time></trkpt><trkpt lat="43.9033608" lon="11.2927584"><ele>429.0</ele><time>2026-04-24T14:12:17.653Z</time></trkpt><trkpt lat="43.9034343" lon="11.2926874"><ele>429.0</ele><time>2026-04-24T14:12:19.653Z</time></trkpt><trkpt lat="43.9035145" lon="11.292687"><ele>429.5</ele><time>2026-04-24T14:12:22.652Z</time></trkpt><trkpt lat="43.9035357" lon="11.2927809"><ele>430.0</ele><time>2026-04-24T14:12:23.653Z</time></trkpt><trkpt lat="43.9035403" lon="11.2929282"><ele>430.5</ele><time>2026-04-24T14:12:25.653Z</time></trkpt><trkpt lat="43.9035371" lon="11.2930156"><ele>431.0</ele><time>2026-04-24T14:12:26.653Z</time></trkpt><trkpt lat="43.9035391" lon="11.293128"><ele>431.5</ele><time>2026-04-24T14:12:27.653Z</time></trkpt><trkpt lat="43.9035217" lon="11.2932723"><ele>432.0</ele><time>2026-04-24T14:12:28.653Z</time></trkpt><trkpt lat="43.9035139" lon="11.2934111"><ele>432.0</ele><time>2026-04-24T14:12:29.653Z</time></trkpt><trkpt lat="43.9035124" lon="11.2935479"><ele>432.0</ele><time>2026-04-24T14:12:30.653Z</time></trkpt><trkpt lat="43.9035082" lon="11.2936727"><ele>432.0</ele><time>2026-04-24T14:12:31.653Z</time></trkpt><trkpt lat="43.903489" lon="11.2937941"><ele>432.0</ele><time>2026-04-24T14:12:32.653Z</time></trkpt><trkpt lat="43.9034742" lon="11.2939051"><ele>432.0</ele><time>2026-04-24T14:12:33.653Z</time></trkpt><trkpt lat="43.9034567" lon="11.293995"><ele>432.0</ele><time>2026-04-24T14:12:34.653Z</time></trkpt><trkpt lat="43.9034591" lon="11.2941599"><ele>434.5</ele><time>2026-04-24T14:12:36.653Z</time></trkpt><trkpt lat="43.9035105" lon="11.2943206"><ele>437.0</ele><time>2026-04-24T14:12:38.653Z</time></trkpt><trkpt lat="43.9035328" lon="11.294418"><ele>439.5</ele><time>2026-04-24T14:12:39.653Z</time></trkpt><trkpt lat="43.9035474" lon="11.294507"><ele>442.0</ele><time>2026-04-24T14:12:40.653Z</time></trkpt><trkpt lat="43.9035578" lon="11.294603"><ele>444.5</ele><time>2026-04-24T14:12:41.653Z</time></trkpt><trkpt lat="43.9035686" lon="11.2946915"><ele>447.0</ele><time>2026-04-24T14:12:42.652Z</time></trkpt><trkpt lat="43.9036084" lon="11.2948207"><ele>450.6666666666667</ele><time>2026-04-24T14:12:44.653Z</time></trkpt><trkpt lat="43.9036553" lon="11.2948863"><ele>454.33333333333337</ele><time>2026-04-24T14:12:45.653Z</time></trkpt><trkpt lat="43.9036982" lon="11.2949525"><ele>458.0</ele><time>2026-04-24T14:12:46.652Z</time></trkpt><trkpt lat="43.90374" lon="11.295111"><ele>461.6666666666667</ele><time>2026-04-24T14:12:48.653Z</time></trkpt><trkpt lat="43.903757" lon="11.2952098"><ele>465.33333333333337</ele><time>2026-04-24T14:12:49.653Z</time></trkpt><trkpt lat="43.9037794" lon="11.2953031"><ele>469.0</ele><time>2026-04-24T14:12:50.653Z</time></trkpt><trkpt lat="43.9038069" lon="11.2953862"><ele>469.00000000000006</ele><time>2026-04-24T14:12:51.653Z</time></trkpt><trkpt lat="43.9038374" lon="11.2954757"><ele>469.0</ele><time>2026-04-24T14:12:52.653Z</time></trkpt><trkpt lat="43.9038494" lon="11.2956486"><ele>469.0</ele><time>2026-04-24T14:12:54.653Z</time></trkpt><trkpt lat="43.9038425" lon="11.2957514"><ele>469.0</ele><time>2026-04-24T14:12:55.653Z</time></trkpt><trkpt lat="43.9038263" lon="11.2958436"><ele>469.00000000000006</ele><time>2026-04-24T14:12:56.653Z</time></trkpt><trkpt lat="43.9038111" lon="11.2959469"><ele>469.0</ele><time>2026-04-24T14:12:57.653Z</time></trkpt><trkpt lat="43.9038033" lon="11.2960622"><ele>473.33333333333337</ele><time>2026-04-24T14:12:58.653Z</time></trkpt><trkpt lat="43.9038019" lon="11.2961784"><ele>477.6666666666667</ele><time>2026-04-24T14:12:59.653Z</time></trkpt><trkpt lat="43.903804" lon="11.2962964"><ele>482.0</ele><time>2026-04-24T14:13:00.653Z</time></trkpt><trkpt lat="43.9038074" lon="11.2964347"><ele>486.33333333333337</ele><time>2026-04-24T14:13:01.653Z</time></trkpt><trkpt lat="43.9038107" lon="11.2965439"><ele>490.6666666666667</ele><time>2026-04-24T14:13:02.653Z</time></trkpt><trkpt lat="43.9038245" lon="11.2966341"><ele>495.0</ele><time>2026-04-24T14:13:03.652Z</time></trkpt><trkpt lat="43.9038672" lon="11.2967905"><ele>498.2857142857142</ele><time>2026-04-24T14:13:05.653Z</time></trkpt><trkpt lat="43.9039445" lon="11.2968648"><ele>501.57142857142856</ele><time>2026-04-24T14:13:06.653Z</time></trkpt><trkpt lat="43.9040042" lon="11.2969372"><ele>504.85714285714283</ele><time>2026-04-24T14:13:07.652Z</time></trkpt><trkpt lat="43.9040459" lon="11.297015"><ele>508.1428571428571</ele><time>2026-04-24T14:13:08.652Z</time></trkpt><trkpt lat="43.904051" lon="11.2971024"><ele>511.42857142857144</ele><time>2026-04-24T14:13:09.653Z</time></trkpt><trkpt lat="43.9040611" lon="11.2971971"><ele>514.7142857142857</ele><time>2026-04-24T14:13:10.653Z</time></trkpt><trkpt lat="43.9040398" lon="11.2972798"><ele>518.0</ele><time>2026-04-24T14:13:11.653Z</time></trkpt><trkpt lat="43.9039844" lon="11.2973738"><ele>520.1666666666666</ele><time>2026-04-24T14:13:12.653Z</time></trkpt><trkpt lat="43.9039203" lon="11.2973829"><ele>522.3333333333333</ele><time>2026-04-24T14:13:13.653Z</time></trkpt><trkpt lat="43.90383" lon="11.297353"><ele>524.5</ele><time>2026-04-24T14:13:15.653Z</time></trkpt><trkpt lat="43.9037514" lon="11.2973165"><ele>526.6666666666666</ele><time>2026-04-24T14:13:18.652Z</time></trkpt><trkpt lat="43.9036865" lon="11.2972957"><ele>528.8333333333334</ele><time>2026-04-24T14:13:20.653Z</time></trkpt><trkpt lat="43.9035981" lon="11.2973136"><ele>531.0</ele><time>2026-04-24T14:13:23.653Z</time></trkpt><trkpt lat="43.9035272" lon="11.2973234"><ele>531.0</ele><time>2026-04-24T14:13:24.653Z</time></trkpt><trkpt lat="43.9034205" lon="11.2973678"><ele>531.0</ele><time>2026-04-24T14:13:26.652Z</time></trkpt><trkpt lat="43.9033052" lon="11.2973408"><ele>531.0</ele><time>2026-04-24T14:13:27.653Z</time></trkpt><trkpt lat="43.9032466" lon="11.2973059"><ele>531.0</ele><time>2026-04-24T14:13:28.651Z</time></trkpt><trkpt lat="43.9031762" lon="11.2972827"><ele>531.0</ele><time>2026-04-24T14:13:29.652Z</time></trkpt><trkpt lat="43.9031089" lon="11.2972321"><ele>531.0</ele><time>2026-04-24T14:13:30.653Z</time></trkpt><trkpt lat="43.9030404" lon="11.2971562"><ele>531.0</ele><time>2026-04-24T14:13:31.653Z</time></trkpt><trkpt lat="43.9029495" lon="11.2970827"><ele>531.0</ele><time>2026-04-24T14:13:32.653Z</time></trkpt><trkpt lat="43.9028834" lon="11.2970484"><ele>531.0</ele><time>2026-04-24T14:13:33.653Z</time></trkpt><trkpt lat="43.9027376" lon="11.2969847"><ele>531.0</ele><time>2026-04-24T14:13:34.653Z</time></trkpt><trkpt lat="43.9026516" lon="11.2969394"><ele>531.0</ele><time>2026-04-24T14:13:35.652Z</time></trkpt><trkpt lat="43.9025772" lon="11.2968981"><ele>531.4</ele><time>2026-04-24T14:13:36.653Z</time></trkpt><trkpt lat="43.9025007" lon="11.2968603"><ele>531.8</ele><time>2026-04-24T14:13:37.652Z</time></trkpt><trkpt lat="43.9024036" lon="11.2968144"><ele>532.1999999999999</ele><time>2026-04-24T14:13:38.653Z</time></trkpt><trkpt lat="43.9023189" lon="11.2967787"><ele>532.6</ele><time>2026-04-24T14:13:39.653Z</time></trkpt><trkpt lat="43.9022275" lon="11.2967276"><ele>533.0</ele><time>2026-04-24T14:13:40.653Z</time></trkpt><trkpt lat="43.9021208" lon="11.2966545"><ele>533.0</ele><time>2026-04-24T14:13:41.653Z</time></trkpt><trkpt lat="43.9020517" lon="11.2965987"><ele>533.0</ele><time>2026-04-24T14:13:42.653Z</time></trkpt><trkpt lat="43.9019737" lon="11.29656"><ele>533.0</ele><time>2026-04-24T14:13:43.653Z</time></trkpt><trkpt lat="43.901897" lon="11.2965013"><ele>533.0</ele><time>2026-04-24T14:13:44.653Z</time></trkpt><trkpt lat="43.9017892" lon="11.2964174"><ele>533.0</ele><time>2026-04-24T14:13:46.653Z</time></trkpt><trkpt lat="43.9017384" lon="11.2963608"><ele>533.0</ele><time>2026-04-24T14:13:47.653Z</time></trkpt><trkpt lat="43.9016729" lon="11.2963036"><ele>529.0</ele><time>2026-04-24T14:13:48.652Z</time></trkpt><trkpt lat="43.9015644" lon="11.2961991"><ele>525.0</ele><time>2026-04-24T14:13:50.653Z</time></trkpt><trkpt lat="43.901511" lon="11.2961528"><ele>521.0</ele><time>2026-04-24T14:13:52.653Z</time></trkpt><trkpt lat="43.901469" lon="11.2960849"><ele>517.0</ele><time>2026-04-24T14:14:18.653Z</time></trkpt><trkpt lat="43.9014293" lon="11.2960137"><ele>513.0</ele><time>2026-04-24T14:14:47.653Z</time></trkpt><trkpt lat="43.9013229" lon="11.2959218"><ele>513.0</ele><time>2026-04-24T14:15:04.653Z</time></trkpt><trkpt lat="43.9012056" lon="11.2958476"><ele>513.0</ele><time>2026-04-24T14:15:06.652Z</time></trkpt><trkpt lat="43.9011229" lon="11.2957795"><ele>513.0</ele><time>2026-04-24T14:15:07.653Z</time></trkpt><trkpt lat="43.9010567" lon="11.2957188"><ele>513.0</ele><time>2026-04-24T14:15:08.653Z</time></trkpt><trkpt lat="43.9009819" lon="11.2956499"><ele>513.0</ele><time>2026-04-24T14:15:09.653Z</time></trkpt><trkpt lat="43.900905" lon="11.2955789"><ele>513.8</ele><time>2026-04-24T14:15:10.653Z</time></trkpt><trkpt lat="43.9008305" lon="11.2955136"><ele>514.5999999999999</ele><time>2026-04-24T14:15:11.653Z</time></trkpt><trkpt lat="43.9007481" lon="11.2954376"><ele>515.4000000000001</ele><time>2026-04-24T14:15:12.653Z</time></trkpt><trkpt lat="43.9006708" lon="11.2953956"><ele>516.2</ele><time>2026-04-24T14:15:13.653Z</time></trkpt><trkpt lat="43.9006037" lon="11.2953095"><ele>517.0</ele><time>2026-04-24T14:15:14.653Z</time></trkpt><trkpt lat="43.900533" lon="11.2952187"><ele>517.0</ele><time>2026-04-24T14:15:15.652Z</time></trkpt><trkpt lat="43.9004556" lon="11.2951245"><ele>517.0</ele><time>2026-04-24T14:15:16.653Z</time></trkpt><trkpt lat="43.9003844" lon="11.2950307"><ele>517.0</ele><time>2026-04-24T14:15:17.653Z</time></trkpt><trkpt lat="43.9003091" lon="11.2949462"><ele>517.0</ele><time>2026-04-24T14:15:18.653Z</time></trkpt><trkpt lat="43.9002269" lon="11.294874"><ele>517.0</ele><time>2026-04-24T14:15:19.653Z</time></trkpt><trkpt lat="43.9001488" lon="11.2947978"><ele>516.6666666666667</ele><time>2026-04-24T14:15:20.653Z</time></trkpt><trkpt lat="43.9000881" lon="11.2947299"><ele>516.3333333333334</ele><time>2026-04-24T14:15:21.653Z</time></trkpt><trkpt lat="43.8999885" lon="11.2946743"><ele>516.0</ele><time>2026-04-24T14:15:23.653Z</time></trkpt><trkpt lat="43.899908" lon="11.2945786"><ele>515.6666666666666</ele><time>2026-04-24T14:15:25.652Z</time></trkpt><trkpt lat="43.8998462" lon="11.2945093"><ele>515.3333333333333</ele><time>2026-04-24T14:15:26.653Z</time></trkpt><trkpt lat="43.8997929" lon="11.294448"><ele>515.0</ele><time>2026-04-24T14:15:27.653Z</time></trkpt><trkpt lat="43.8997387" lon="11.2943862"><ele>515.0</ele><time>2026-04-24T14:15:28.653Z</time></trkpt><trkpt lat="43.8996535" lon="11.2943022"><ele>515.0</ele><time>2026-04-24T14:15:30.653Z</time></trkpt><trkpt lat="43.8996016" lon="11.2942365"><ele>515.0</ele><time>2026-04-24T14:15:31.652Z</time></trkpt><trkpt lat="43.899553" lon="11.2941768"><ele>515.0</ele><time>2026-04-24T14:15:32.652Z</time></trkpt><trkpt lat="43.8994584" lon="11.2940715"><ele>515.0</ele><time>2026-04-24T14:15:34.653Z</time></trkpt><trkpt lat="43.8994101" lon="11.2940001"><ele>515.0</ele><time>2026-04-24T14:15:35.652Z</time></trkpt><trkpt lat="43.8993834" lon="11.2939167"><ele>513.8333333333333</ele><time>2026-04-24T14:15:36.653Z</time></trkpt><trkpt lat="43.8993439" lon="11.2938378"><ele>512.6666666666666</ele><time>2026-04-24T14:15:37.652Z</time></trkpt><trkpt lat="43.8993051" lon="11.2937427"><ele>511.5</ele><time>2026-04-24T14:15:38.653Z</time></trkpt><trkpt lat="43.8992657" lon="11.2936437"><ele>510.33333333333337</ele><time>2026-04-24T14:15:39.652Z</time></trkpt><trkpt lat="43.8992375" lon="11.2935618"><ele>509.1666666666667</ele><time>2026-04-24T14:15:40.653Z</time></trkpt><trkpt lat="43.8991822" lon="11.2934203"><ele>508.0</ele><time>2026-04-24T14:15:42.653Z</time></trkpt><trkpt lat="43.8991298" lon="11.2932725"><ele>508.0</ele><time>2026-04-24T14:15:44.653Z</time></trkpt><trkpt lat="43.8990815" lon="11.2931414"><ele>507.99999999999994</ele><time>2026-04-24T14:15:46.653Z</time></trkpt><trkpt lat="43.899043" lon="11.2929995"><ele>507.99999999999994</ele><time>2026-04-24T14:15:48.653Z</time></trkpt><trkpt lat="43.8989936" lon="11.292854"><ele>508.0</ele><time>2026-04-24T14:15:50.653Z</time></trkpt><trkpt lat="43.8989639" lon="11.2927256"><ele>508.0</ele><time>2026-04-24T14:15:52.653Z</time></trkpt><trkpt lat="43.8989047" lon="11.2925966"><ele>505.00000000000006</ele><time>2026-04-24T14:15:54.653Z</time></trkpt><trkpt lat="43.8988679" lon="11.2924725"><ele>502.0</ele><time>2026-04-24T14:15:56.652Z</time></trkpt><trkpt lat="43.8988201" lon="11.2923555"><ele>499.0</ele><time>2026-04-24T14:15:58.653Z</time></trkpt><trkpt lat="43.8988137" lon="11.2922575"><ele>496.0</ele><time>2026-04-24T14:16:00.653Z</time></trkpt><trkpt lat="43.8987828" lon="11.2921371"><ele>493.00000000000006</ele><time>2026-04-24T14:16:02.652Z</time></trkpt><trkpt lat="43.8987445" lon="11.2920219"><ele>490.0</ele><time>2026-04-24T14:16:04.653Z</time></trkpt><trkpt lat="43.8987023" lon="11.2918928"><ele>485.0</ele><time>2026-04-24T14:16:06.649Z</time></trkpt><trkpt lat="43.8986646" lon="11.2917584"><ele>480.0</ele><time>2026-04-24T14:16:08.653Z</time></trkpt><trkpt lat="43.8986075" lon="11.2916429"><ele>475.0</ele><time>2026-04-24T14:16:10.653Z</time></trkpt><trkpt lat="43.898583" lon="11.2915312"><ele>470.0</ele><time>2026-04-24T14:16:12.653Z</time></trkpt><trkpt lat="43.8986286" lon="11.2914447"><ele>465.0</ele><time>2026-04-24T14:16:13.653Z</time></trkpt><trkpt lat="43.8986837" lon="11.2912998"><ele>459.2</ele><time>2026-04-24T14:16:15.652Z</time></trkpt><trkpt lat="43.8987292" lon="11.2911531"><ele>453.4</ele><time>2026-04-24T14:16:17.653Z</time></trkpt><trkpt lat="43.8987701" lon="11.2910513"><ele>447.6</ele><time>2026-04-24T14:16:19.652Z</time></trkpt><trkpt lat="43.8986725" lon="11.2910301"><ele>441.8</ele><time>2026-04-24T14:16:25.653Z</time></trkpt><trkpt lat="43.8985571" lon="11.2910905"><ele>436.0</ele><time>2026-04-24T14:16:27.652Z</time></trkpt><trkpt lat="43.8985005" lon="11.2911343"><ele>436.00000000000006</ele><time>2026-04-24T14:16:28.653Z</time></trkpt><trkpt lat="43.8984331" lon="11.2911912"><ele>436.0</ele><time>2026-04-24T14:16:29.653Z</time></trkpt><trkpt lat="43.8983612" lon="11.2912448"><ele>436.0</ele><time>2026-04-24T14:16:30.653Z</time></trkpt><trkpt lat="43.898284" lon="11.2912988"><ele>436.0</ele><time>2026-04-24T14:16:31.653Z</time></trkpt><trkpt lat="43.8982022" lon="11.2913418"><ele>436.00000000000006</ele><time>2026-04-24T14:16:32.653Z</time></trkpt><trkpt lat="43.8981189" lon="11.2913677"><ele>436.0</ele><time>2026-04-24T14:16:33.653Z</time></trkpt><trkpt lat="43.8980193" lon="11.2913827"><ele>435.0</ele><time>2026-04-24T14:16:34.652Z</time></trkpt><trkpt lat="43.897921" lon="11.29136"><ele>434.0</ele><time>2026-04-24T14:16:35.652Z</time></trkpt><trkpt lat="43.8978208" lon="11.2913784"><ele>433.0</ele><time>2026-04-24T14:16:36.651Z</time></trkpt><trkpt lat="43.8977298" lon="11.2914076"><ele>432.0</ele><time>2026-04-24T14:16:37.653Z</time></trkpt><trkpt lat="43.8976258" lon="11.2914632"><ele>431.0</ele><time>2026-04-24T14:16:38.652Z</time></trkpt><trkpt lat="43.8975274" lon="11.2915084"><ele>435.20000000000005</ele><time>2026-04-24T14:16:39.653Z</time></trkpt><trkpt lat="43.8974393" lon="11.291544"><ele>439.40000000000003</ele><time>2026-04-24T14:16:40.653Z</time></trkpt><trkpt lat="43.8972833" lon="11.2915223"><ele>443.6</ele><time>2026-04-24T14:16:41.653Z</time></trkpt><trkpt lat="43.8971946" lon="11.2914617"><ele>447.8</ele><time>2026-04-24T14:16:42.653Z</time></trkpt><trkpt lat="43.897119" lon="11.2914604"><ele>452.0</ele><time>2026-04-24T14:16:43.653Z</time></trkpt><trkpt lat="43.897046" lon="11.2914729"><ele>452.0</ele><time>2026-04-24T14:16:44.653Z</time></trkpt><trkpt lat="43.8969649" lon="11.2915895"><ele>452.0</ele><time>2026-04-24T14:16:46.653Z</time></trkpt><trkpt lat="43.8969388" lon="11.2917994"><ele>452.0</ele><time>2026-04-24T14:16:47.653Z</time></trkpt><trkpt lat="43.8968777" lon="11.2919407"><ele>452.0</ele><time>2026-04-24T14:16:48.653Z</time></trkpt><trkpt lat="43.896836" lon="11.2921323"><ele>454.5</ele><time>2026-04-24T14:16:49.653Z</time></trkpt><trkpt lat="43.8967925" lon="11.2923046"><ele>457.0</ele><time>2026-04-24T14:16:50.653Z</time></trkpt><trkpt lat="43.8967393" lon="11.2924674"><ele>459.5</ele><time>2026-04-24T14:16:51.652Z</time></trkpt><trkpt lat="43.8966941" lon="11.2926286"><ele>462.0</ele><time>2026-04-24T14:16:52.653Z</time></trkpt><trkpt lat="43.896677" lon="11.2928268"><ele>460.40000000000003</ele><time>2026-04-24T14:16:54.653Z</time></trkpt><trkpt lat="43.8966876" lon="11.2929508"><ele>458.80000000000007</ele><time>2026-04-24T14:16:55.653Z</time></trkpt><trkpt lat="43.8967046" lon="11.2930722"><ele>457.2</ele><time>2026-04-24T14:16:56.653Z</time></trkpt><trkpt lat="43.8967531" lon="11.2931955"><ele>455.6</ele><time>2026-04-24T14:16:57.652Z</time></trkpt><trkpt lat="43.8968017" lon="11.2933099"><ele>454.0</ele><time>2026-04-24T14:16:58.653Z</time></trkpt><trkpt lat="43.896852" lon="11.2934074"><ele>454.00000000000006</ele><time>2026-04-24T14:16:59.653Z</time></trkpt><trkpt lat="43.8969072" lon="11.2934823"><ele>454.0</ele><time>2026-04-24T14:17:00.653Z</time></trkpt><trkpt lat="43.8969736" lon="11.2935391"><ele>454.0</ele><time>2026-04-24T14:17:01.653Z</time></trkpt><trkpt lat="43.8970507" lon="11.2935951"><ele>454.0</ele><time>2026-04-24T14:17:02.653Z</time></trkpt><trkpt lat="43.8971333" lon="11.2936457"><ele>454.00000000000006</ele><time>2026-04-24T14:17:03.653Z</time></trkpt><trkpt lat="43.8972321" lon="11.2937062"><ele>454.0</ele><time>2026-04-24T14:17:04.653Z</time></trkpt><trkpt lat="43.8973135" lon="11.293767"><ele>454.0</ele><time>2026-04-24T14:17:05.653Z</time></trkpt><trkpt lat="43.8973853" lon="11.2938431"><ele>454.0</ele><time>2026-04-24T14:17:06.653Z</time></trkpt><trkpt lat="43.897433" lon="11.29399"><ele>454.0</ele><time>2026-04-24T14:17:07.653Z</time></trkpt><trkpt lat="43.8974883" lon="11.2941342"><ele>454.0</ele><time>2026-04-24T14:17:08.653Z</time></trkpt><trkpt lat="43.8975369" lon="11.2942898"><ele>454.0</ele><time>2026-04-24T14:17:09.653Z</time></trkpt><trkpt lat="43.8975739" lon="11.2944379"><ele>454.4</ele><time>2026-04-24T14:17:10.653Z</time></trkpt><trkpt lat="43.8976168" lon="11.2945496"><ele>454.79999999999995</ele><time>2026-04-24T14:17:11.653Z</time></trkpt><trkpt lat="43.8976737" lon="11.2946646"><ele>455.20000000000005</ele><time>2026-04-24T14:17:12.653Z</time></trkpt><trkpt lat="43.8977351" lon="11.2947658"><ele>455.6</ele><time>2026-04-24T14:17:13.652Z</time></trkpt><trkpt lat="43.8977934" lon="11.2948957"><ele>456.0</ele><time>2026-04-24T14:17:14.653Z</time></trkpt><trkpt lat="43.8978721" lon="11.2950314"><ele>456.0</ele><time>2026-04-24T14:17:15.653Z</time></trkpt><trkpt lat="43.8979522" lon="11.2951663"><ele>456.0</ele><time>2026-04-24T14:17:16.652Z</time></trkpt><trkpt lat="43.8980243" lon="11.2953031"><ele>456.0</ele><time>2026-04-24T14:17:17.653Z</time></trkpt><trkpt lat="43.8980996" lon="11.2954538"><ele>456.0</ele><time>2026-04-24T14:17:18.653Z</time></trkpt><trkpt lat="43.8981447" lon="11.295566"><ele>452.6</ele><time>2026-04-24T14:17:19.653Z</time></trkpt><trkpt lat="43.898191" lon="11.2957062"><ele>449.20000000000005</ele><time>2026-04-24T14:17:20.653Z</time></trkpt><trkpt lat="43.8982528" lon="11.2958205"><ele>445.79999999999995</ele><time>2026-04-24T14:17:21.652Z</time></trkpt><trkpt lat="43.8982967" lon="11.295919"><ele>442.4</ele><time>2026-04-24T14:17:22.652Z</time></trkpt><trkpt lat="43.898306" lon="11.2960526"><ele>439.0</ele><time>2026-04-24T14:17:23.653Z</time></trkpt><trkpt lat="43.8982891" lon="11.2961944"><ele>439.0</ele><time>2026-04-24T14:17:24.653Z</time></trkpt><trkpt lat="43.8983176" lon="11.2963723"><ele>439.0</ele><time>2026-04-24T14:17:26.653Z</time></trkpt><trkpt lat="43.8983446" lon="11.2965092"><ele>439.0</ele><time>2026-04-24T14:17:28.653Z</time></trkpt><trkpt lat="43.8984067" lon="11.2965542"><ele>439.0</ele><time>2026-04-24T14:17:30.653Z</time></trkpt><trkpt lat="43.8984641" lon="11.2966101"><ele>439.0</ele><time>2026-04-24T14:17:32.653Z</time></trkpt><trkpt lat="43.8985648" lon="11.29669"><ele>441.2</ele><time>2026-04-24T14:17:34.653Z</time></trkpt><trkpt lat="43.8986439" lon="11.2968061"><ele>443.4</ele><time>2026-04-24T14:17:36.653Z</time></trkpt><trkpt lat="43.8987312" lon="11.2968946"><ele>445.6</ele><time>2026-04-24T14:17:37.653Z</time></trkpt><trkpt lat="43.8988082" lon="11.2969786"><ele>447.8</ele><time>2026-04-24T14:17:38.653Z</time></trkpt><trkpt lat="43.8988452" lon="11.2970742"><ele>450.0</ele><time>2026-04-24T14:17:39.653Z</time></trkpt><trkpt lat="43.8988986" lon="11.2971235"><ele>450.0</ele><time>2026-04-24T14:17:40.653Z</time></trkpt><trkpt lat="43.8989867" lon="11.297224"><ele>450.0</ele><time>2026-04-24T14:17:42.652Z</time></trkpt><trkpt lat="43.8990471" lon="11.2972832"><ele>450.0</ele><time>2026-04-24T14:17:43.653Z</time></trkpt><trkpt lat="43.899159" lon="11.297359"><ele>450.0</ele><time>2026-04-24T14:17:44.652Z</time></trkpt><trkpt lat="43.8992211" lon="11.2974078"><ele>450.0</ele><time>2026-04-24T14:17:45.653Z</time></trkpt><trkpt lat="43.8992499" lon="11.2974901"><ele>451.0</ele><time>2026-04-24T14:17:46.653Z</time></trkpt><trkpt lat="43.8992849" lon="11.2975887"><ele>452.0</ele><time>2026-04-24T14:17:47.653Z</time></trkpt><trkpt lat="43.8992961" lon="11.2976859"><ele>453.0</ele><time>2026-04-24T14:17:48.653Z</time></trkpt><trkpt lat="43.8993123" lon="11.2977744"><ele>454.0</ele><time>2026-04-24T14:17:49.653Z</time></trkpt><trkpt lat="43.8993639" lon="11.2978991"><ele>455.0</ele><time>2026-04-24T14:17:51.653Z</time></trkpt><trkpt lat="43.8994057" lon="11.2979798"><ele>456.0</ele><time>2026-04-24T14:17:52.653Z</time></trkpt><trkpt lat="43.8994436" lon="11.2980662"><ele>454.1666666666667</ele><time>2026-04-24T14:17:53.653Z</time></trkpt><trkpt lat="43.8994831" lon="11.2981556"><ele>452.33333333333337</ele><time>2026-04-24T14:17:54.653Z</time></trkpt><trkpt lat="43.8994984" lon="11.2982705"><ele>450.5</ele><time>2026-04-24T14:17:55.652Z</time></trkpt><trkpt lat="43.8995221" lon="11.2984"><ele>448.6666666666667</ele><time>2026-04-24T14:17:57.653Z</time></trkpt><trkpt lat="43.8995443" lon="11.2984966"><ele>446.83333333333337</ele><time>2026-04-24T14:17:59.652Z</time></trkpt><trkpt lat="43.8995981" lon="11.2986005"><ele>445.0</ele><time>2026-04-24T14:18:01.653Z</time></trkpt><trkpt lat="43.8996741" lon="11.2986862"><ele>445.00000000000006</ele><time>2026-04-24T14:18:03.653Z</time></trkpt><trkpt lat="43.8997552" lon="11.2987648"><ele>445.0</ele><time>2026-04-24T14:18:05.653Z</time></trkpt><trkpt lat="43.8998001" lon="11.2988554"><ele>445.0</ele><time>2026-04-24T14:18:06.653Z</time></trkpt><trkpt lat="43.8998413" lon="11.2989426"><ele>445.0</ele><time>2026-04-24T14:18:07.653Z</time></trkpt><trkpt lat="43.899893" lon="11.2990335"><ele>445.00000000000006</ele><time>2026-04-24T14:18:08.653Z</time></trkpt><trkpt lat="43.8999373" lon="11.2991241"><ele>445.0</ele><time>2026-04-24T14:18:09.652Z</time></trkpt><trkpt lat="43.8999837" lon="11.2992194"><ele>444.33333333333337</ele><time>2026-04-24T14:18:10.653Z</time></trkpt><trkpt lat="43.9000304" lon="11.2993039"><ele>443.6666666666667</ele><time>2026-04-24T14:18:11.653Z</time></trkpt><trkpt lat="43.9000713" lon="11.2994115"><ele>443.0</ele><time>2026-04-24T14:18:12.653Z</time></trkpt><trkpt lat="43.9001228" lon="11.299508"><ele>442.33333333333337</ele><time>2026-04-24T14:18:13.653Z</time></trkpt><trkpt lat="43.9001667" lon="11.2995907"><ele>441.6666666666667</ele><time>2026-04-24T14:18:14.653Z</time></trkpt><trkpt lat="43.9002071" lon="11.2996701"><ele>441.0</ele><time>2026-04-24T14:18:15.653Z</time></trkpt><trkpt lat="43.9002822" lon="11.2997693"><ele>443.20000000000005</ele><time>2026-04-24T14:18:17.653Z</time></trkpt><trkpt lat="43.9004083" lon="11.2998338"><ele>445.40000000000003</ele><time>2026-04-24T14:18:19.653Z</time></trkpt><trkpt lat="43.9004882" lon="11.2998926"><ele>447.6</ele><time>2026-04-24T14:18:20.653Z</time></trkpt><trkpt lat="43.9005746" lon="11.2999685"><ele>449.8</ele><time>2026-04-24T14:18:21.653Z</time></trkpt><trkpt lat="43.9006656" lon="11.3000337"><ele>452.0</ele><time>2026-04-24T14:18:22.653Z</time></trkpt><trkpt lat="43.9007567" lon="11.3001337"><ele>452.0</ele><time>2026-04-24T14:18:23.653Z</time></trkpt><trkpt lat="43.9008371" lon="11.3002621"><ele>452.0</ele><time>2026-04-24T14:18:24.652Z</time></trkpt><trkpt lat="43.9009277" lon="11.3004124"><ele>452.0</ele><time>2026-04-24T14:18:25.653Z</time></trkpt><trkpt lat="43.9010336" lon="11.3005776"><ele>452.0</ele><time>2026-04-24T14:18:26.653Z</time></trkpt><trkpt lat="43.9011339" lon="11.3007412"><ele>454.6</ele><time>2026-04-24T14:18:27.653Z</time></trkpt><trkpt lat="43.9012154" lon="11.3008823"><ele>457.20000000000005</ele><time>2026-04-24T14:18:28.653Z</time></trkpt><trkpt lat="43.9012533" lon="11.3009854"><ele>459.8</ele><time>2026-04-24T14:18:29.653Z</time></trkpt><trkpt lat="43.9012908" lon="11.3010989"><ele>462.4</ele><time>2026-04-24T14:18:30.653Z</time></trkpt><trkpt lat="43.9012653" lon="11.3012084"><ele>465.0</ele><time>2026-04-24T14:18:31.653Z</time></trkpt><trkpt lat="43.9012801" lon="11.3013297"><ele>464.6666666666667</ele><time>2026-04-24T14:18:32.652Z</time></trkpt><trkpt lat="43.901303" lon="11.3014466"><ele>464.33333333333337</ele><time>2026-04-24T14:18:33.652Z</time></trkpt><trkpt lat="43.9013406" lon="11.3015558"><ele>464.0</ele><time>2026-04-24T14:18:34.653Z</time></trkpt><trkpt lat="43.9013769" lon="11.3016478"><ele>463.6666666666667</ele><time>2026-04-24T14:18:35.653Z</time></trkpt><trkpt lat="43.9014308" lon="11.3017352"><ele>463.33333333333337</ele><time>2026-04-24T14:18:36.653Z</time></trkpt><trkpt lat="43.9014924" lon="11.3018273"><ele>463.0</ele><time>2026-04-24T14:18:37.653Z</time></trkpt><trkpt lat="43.9015502" lon="11.3019054"><ele>463.00000000000006</ele><time>2026-04-24T14:18:38.652Z</time></trkpt><trkpt lat="43.9016024" lon="11.3019836"><ele>463.0</ele><time>2026-04-24T14:18:39.652Z</time></trkpt><trkpt lat="43.901648" lon="11.3020545"><ele>463.0</ele><time>2026-04-24T14:18:40.653Z</time></trkpt><trkpt lat="43.9017228" lon="11.3021509"><ele>463.0</ele><time>2026-04-24T14:18:42.653Z</time></trkpt><trkpt lat="43.9017735" lon="11.302211"><ele>463.00000000000006</ele><time>2026-04-24T14:18:44.652Z</time></trkpt><trkpt lat="43.9018385" lon="11.3022787"><ele>463.0</ele><time>2026-04-24T14:18:47.653Z</time></trkpt><trkpt lat="43.9019088" lon="11.302378"><ele>465.33333333333337</ele><time>2026-04-24T14:18:49.653Z</time></trkpt><trkpt lat="43.9019717" lon="11.3024096"><ele>467.6666666666667</ele><time>2026-04-24T14:19:11.653Z</time></trkpt><trkpt lat="43.9020382" lon="11.302511"><ele>470.0</ele><time>2026-04-24T14:19:14.653Z</time></trkpt><trkpt lat="43.9020916" lon="11.3026107"><ele>472.33333333333337</ele><time>2026-04-24T14:19:16.653Z</time></trkpt><trkpt lat="43.902156" lon="11.3026678"><ele>474.6666666666667</ele><time>2026-04-24T14:19:18.653Z</time></trkpt><trkpt lat="43.9022509" lon="11.3027506"><ele>477.0</ele><time>2026-04-24T14:19:20.653Z</time></trkpt><trkpt lat="43.9023131" lon="11.3028093"><ele>477.0</ele><time>2026-04-24T14:19:21.653Z</time></trkpt><trkpt lat="43.9023645" lon="11.3028749"><ele>477.00000000000006</ele><time>2026-04-24T14:19:22.653Z</time></trkpt><trkpt lat="43.9024175" lon="11.3029436"><ele>477.00000000000006</ele><time>2026-04-24T14:19:23.653Z</time></trkpt><trkpt lat="43.9025047" lon="11.3030493"><ele>477.0</ele><time>2026-04-24T14:19:25.653Z</time></trkpt><trkpt lat="43.9026" lon="11.3031674"><ele>477.0</ele><time>2026-04-24T14:19:27.653Z</time></trkpt><trkpt lat="43.9026546" lon="11.3033167"><ele>480.6</ele><time>2026-04-24T14:19:29.653Z</time></trkpt><trkpt lat="43.9026939" lon="11.3034745"><ele>484.20000000000005</ele><time>2026-04-24T14:19:31.653Z</time></trkpt><trkpt lat="43.9027227" lon="11.3036303"><ele>487.8</ele><time>2026-04-24T14:19:33.653Z</time></trkpt><trkpt lat="43.9027369" lon="11.3037266"><ele>491.4</ele><time>2026-04-24T14:19:35.653Z</time></trkpt><trkpt lat="43.9027836" lon="11.3038207"><ele>495.0</ele><time>2026-04-24T14:19:38.653Z</time></trkpt><trkpt lat="43.9028371" lon="11.3038814"><ele>495.5714285714285</ele><time>2026-04-24T14:19:40.653Z</time></trkpt><trkpt lat="43.902898" lon="11.3039257"><ele>496.1428571428571</ele><time>2026-04-24T14:19:41.652Z</time></trkpt><trkpt lat="43.9029413" lon="11.3039947"><ele>496.7142857142857</ele><time>2026-04-24T14:19:42.653Z</time></trkpt><trkpt lat="43.9029701" lon="11.3040785"><ele>497.2857142857143</ele><time>2026-04-24T14:19:43.653Z</time></trkpt><trkpt lat="43.902988" lon="11.3041721"><ele>497.8571428571429</ele><time>2026-04-24T14:19:44.653Z</time></trkpt><trkpt lat="43.9030074" lon="11.3042706"><ele>498.4285714285715</ele><time>2026-04-24T14:19:45.652Z</time></trkpt><trkpt lat="43.9030286" lon="11.3043533"><ele>499.00000000000006</ele><time>2026-04-24T14:19:46.652Z</time></trkpt><trkpt lat="43.9030697" lon="11.3044944"><ele>499.00000000000006</ele><time>2026-04-24T14:19:48.653Z</time></trkpt><trkpt lat="43.9030857" lon="11.3046289"><ele>499.0</ele><time>2026-04-24T14:19:50.653Z</time></trkpt><trkpt lat="43.903058" lon="11.3047247"><ele>499.0</ele><time>2026-04-24T14:19:52.653Z</time></trkpt><trkpt lat="43.9029856" lon="11.3047266"><ele>499.0</ele><time>2026-04-24T14:19:53.653Z</time></trkpt><trkpt lat="43.9028927" lon="11.3047498"><ele>499.00000000000006</ele><time>2026-04-24T14:19:55.653Z</time></trkpt><trkpt lat="43.9028057" lon="11.3048219"><ele>499.0</ele><time>2026-04-24T14:19:57.653Z</time></trkpt><trkpt lat="43.9026946" lon="11.3048662"><ele>500.2</ele><time>2026-04-24T14:19:59.652Z</time></trkpt><trkpt lat="43.9026315" lon="11.3048828"><ele>501.4</ele><time>2026-04-24T14:20:00.653Z</time></trkpt><trkpt lat="43.9025268" lon="11.3048976"><ele>502.6</ele><time>2026-04-24T14:20:02.653Z</time></trkpt><trkpt lat="43.9024196" lon="11.3049154"><ele>503.8</ele><time>2026-04-24T14:20:04.652Z</time></trkpt><trkpt lat="43.9023181" lon="11.3049905"><ele>505.0</ele><time>2026-04-24T14:20:06.653Z</time></trkpt><trkpt lat="43.9022695" lon="11.3051048"><ele>505.0</ele><time>2026-04-24T14:20:08.653Z</time></trkpt><trkpt lat="43.9022822" lon="11.3052332"><ele>505.0</ele><time>2026-04-24T14:20:10.653Z</time></trkpt><trkpt lat="43.9023727" lon="11.3052945"><ele>505.0</ele><time>2026-04-24T14:20:12.652Z</time></trkpt><trkpt lat="43.9024229" lon="11.3053997"><ele>505.0</ele><time>2026-04-24T14:20:14.652Z</time></trkpt><trkpt lat="43.9024343" lon="11.3055422"><ele>505.0</ele><time>2026-04-24T14:20:16.653Z</time></trkpt><trkpt lat="43.9024303" lon="11.3056575"><ele>507.2</ele><time>2026-04-24T14:20:18.652Z</time></trkpt><trkpt lat="43.9025036" lon="11.3057253"><ele>509.4</ele><time>2026-04-24T14:20:20.653Z</time></trkpt><trkpt lat="43.9025997" lon="11.3057232"><ele>511.6</ele><time>2026-04-24T14:20:22.653Z</time></trkpt><trkpt lat="43.9026794" lon="11.3057393"><ele>513.8</ele><time>2026-04-24T14:20:23.652Z</time></trkpt><trkpt lat="43.9027999" lon="11.3058501"><ele>516.0</ele><time>2026-04-24T14:20:25.653Z</time></trkpt><trkpt lat="43.9028444" lon="11.3059394"><ele>516.2</ele><time>2026-04-24T14:20:26.652Z</time></trkpt><trkpt lat="43.9028793" lon="11.3060372"><ele>516.4000000000001</ele><time>2026-04-24T14:20:27.653Z</time></trkpt><trkpt lat="43.9029122" lon="11.3061281"><ele>516.6</ele><time>2026-04-24T14:20:28.653Z</time></trkpt><trkpt lat="43.9029181" lon="11.3062425"><ele>516.8000000000001</ele><time>2026-04-24T14:20:29.653Z</time></trkpt><trkpt lat="43.9029313" lon="11.3063676"><ele>517.0</ele><time>2026-04-24T14:20:30.653Z</time></trkpt><trkpt lat="43.9029057" lon="11.3065388"><ele>519.75</ele><time>2026-04-24T14:20:31.653Z</time></trkpt><trkpt lat="43.9028743" lon="11.3066917"><ele>522.5</ele><time>2026-04-24T14:20:32.653Z</time></trkpt><trkpt lat="43.9028445" lon="11.3068458"><ele>525.25</ele><time>2026-04-24T14:20:33.652Z</time></trkpt><trkpt lat="43.9028274" lon="11.3069977"><ele>528.0</ele><time>2026-04-24T14:20:34.653Z</time></trkpt><trkpt lat="43.9027866" lon="11.3071397"><ele>529.8</ele><time>2026-04-24T14:20:35.652Z</time></trkpt><trkpt lat="43.9027518" lon="11.307274"><ele>531.5999999999999</ele><time>2026-04-24T14:20:36.653Z</time></trkpt><trkpt lat="43.902783" lon="11.3074297"><ele>533.4000000000001</ele><time>2026-04-24T14:20:37.653Z</time></trkpt><trkpt lat="43.9028069" lon="11.3075671"><ele>535.2</ele><time>2026-04-24T14:20:38.653Z</time></trkpt><trkpt lat="43.9028399" lon="11.3077046"><ele>537.0</ele><time>2026-04-24T14:20:39.653Z</time></trkpt><trkpt lat="43.9029236" lon="11.3077283"><ele>537.0</ele><time>2026-04-24T14:20:40.653Z</time></trkpt><trkpt lat="43.9029737" lon="11.307799"><ele>537.0</ele><time>2026-04-24T14:20:43.653Z</time></trkpt><trkpt lat="43.9029591" lon="11.3079023"><ele>537.0</ele><time>2026-04-24T14:21:04.652Z</time></trkpt><trkpt lat="43.9029919" lon="11.307985"><ele>537.0</ele><time>2026-04-24T14:21:17.653Z</time></trkpt><trkpt lat="43.9030276" lon="11.3080613"><ele>537.0</ele><time>2026-04-24T14:21:23.653Z</time></trkpt><trkpt lat="43.903068" lon="11.3081753"><ele>537.0</ele><time>2026-04-24T14:21:25.653Z</time></trkpt><trkpt lat="43.9031068" lon="11.3083353"><ele>539.5</ele><time>2026-04-24T14:21:27.653Z</time></trkpt><trkpt lat="43.9031292" lon="11.3084567"><ele>542.0</ele><time>2026-04-24T14:21:29.653Z</time></trkpt><trkpt lat="43.9031709" lon="11.3085267"><ele>544.5</ele><time>2026-04-24T14:21:30.653Z</time></trkpt><trkpt lat="43.9031956" lon="11.3086754"><ele>547.0</ele><time>2026-04-24T14:21:32.653Z</time></trkpt><trkpt lat="43.9032051" lon="11.3087932"><ele>549.5</ele><time>2026-04-24T14:21:34.652Z</time></trkpt><trkpt lat="43.9032593" lon="11.308721"><ele>552.0</ele><time>2026-04-24T14:22:53.653Z</time></trkpt><trkpt lat="43.9033119" lon="11.3086652"><ele>552.0</ele><time>2026-04-24T14:24:27.652Z</time></trkpt><trkpt lat="43.9033874" lon="11.3086482"><ele>552.0</ele><time>2026-04-24T14:25:03.653Z</time></trkpt><trkpt lat="43.9034271" lon="11.3085466"><ele>552.0</ele><time>2026-04-24T14:25:06.653Z</time></trkpt><trkpt lat="43.9034893" lon="11.3084827"><ele>552.0</ele><time>2026-04-24T14:25:16.652Z</time></trkpt><trkpt lat="43.9035475" lon="11.3084388"><ele>552.0</ele><time>2026-04-24T14:25:18.653Z</time></trkpt><trkpt lat="43.9035679" lon="11.3083557"><ele>552.0</ele><time>2026-04-24T14:25:31.653Z</time></trkpt><trkpt lat="43.9036151" lon="11.3082757"><ele>552.0</ele><time>2026-04-24T14:25:41.653Z</time></trkpt><trkpt lat="43.9036628" lon="11.3082092"><ele>555.0</ele><time>2026-04-24T14:25:44.652Z</time></trkpt><trkpt lat="43.9037328" lon="11.3081563"><ele>558.0</ele><time>2026-04-24T14:25:47.653Z</time></trkpt><trkpt lat="43.9037985" lon="11.3081305"><ele>561.0</ele><time>2026-04-24T14:25:54.653Z</time></trkpt><trkpt lat="43.9038614" lon="11.3080908"><ele>564.0</ele><time>2026-04-24T14:25:57.653Z</time></trkpt><trkpt lat="43.9039109" lon="11.3081636"><ele>567.0</ele><time>2026-04-24T14:26:26.653Z</time></trkpt><trkpt lat="43.9039111" lon="11.3082604"><ele>570.0</ele><time>2026-04-24T14:26:40.652Z</time></trkpt><trkpt lat="43.9039096" lon="11.3083713"><ele>573.0</ele><time>2026-04-24T14:30:20.653Z</time></trkpt><trkpt lat="43.9038641" lon="11.3082823"><ele>573.0</ele><time>2026-04-24T14:30:41.653Z</time></trkpt><trkpt lat="43.9037926" lon="11.3082978"><ele>573.0</ele><time>2026-04-24T14:30:57.653Z</time></trkpt><trkpt lat="43.9037232" lon="11.3083131"><ele>573.0</ele><time>2026-04-24T14:31:00.652Z</time></trkpt><trkpt lat="43.9036917" lon="11.3083939"><ele>573.0</ele><time>2026-04-24T14:31:05.653Z</time></trkpt><trkpt lat="43.9036242" lon="11.3084393"><ele>573.0</ele><time>2026-04-24T14:31:13.653Z</time></trkpt><trkpt lat="43.903555" lon="11.3084211"><ele>573.0</ele><time>2026-04-24T14:31:30.653Z</time></trkpt><trkpt lat="43.9035019" lon="11.3084709"><ele>573.0</ele><time>2026-04-24T14:31:35.653Z</time></trkpt><trkpt lat="43.9034402" lon="11.3084924"><ele>569.5</ele><time>2026-04-24T14:31:38.653Z</time></trkpt><trkpt lat="43.9033594" lon="11.3085179"><ele>566.0</ele><time>2026-04-24T14:31:41.653Z</time></trkpt><trkpt lat="43.9032882" lon="11.3085706"><ele>562.5</ele><time>2026-04-24T14:31:45.653Z</time></trkpt><trkpt lat="43.9032115" lon="11.3085919"><ele>559.0</ele><time>2026-04-24T14:31:48.652Z</time></trkpt><trkpt lat="43.903149" lon="11.3085633"><ele>555.5</ele><time>2026-04-24T14:31:50.653Z</time></trkpt><trkpt lat="43.903099" lon="11.3084989"><ele>552.0</ele><time>2026-04-24T14:31:51.653Z</time></trkpt><trkpt lat="43.90307" lon="11.3083781"><ele>552.0</ele><time>2026-04-24T14:31:54.653Z</time></trkpt><trkpt lat="43.9030446" lon="11.3082839"><ele>552.0</ele><time>2026-04-24T14:31:56.653Z</time></trkpt><trkpt lat="43.9030128" lon="11.3081714"><ele>552.0</ele><time>2026-04-24T14:31:58.653Z</time></trkpt><trkpt lat="43.9029635" lon="11.3080748"><ele>552.0</ele><time>2026-04-24T14:32:01.652Z</time></trkpt><trkpt lat="43.9029056" lon="11.3080002"><ele>552.0</ele><time>2026-04-24T14:32:11.652Z</time></trkpt><trkpt lat="43.9029005" lon="11.3078973"><ele>552.0</ele><time>2026-04-24T14:32:30.652Z</time></trkpt><trkpt lat="43.9029904" lon="11.3078272"><ele>549.0</ele><time>2026-04-24T14:41:01.653Z</time></trkpt><trkpt lat="43.9030694" lon="11.3077324"><ele>546.0</ele><time>2026-04-24T14:41:03.653Z</time></trkpt><trkpt lat="43.9031447" lon="11.3076159"><ele>543.0</ele><time>2026-04-24T14:41:05.653Z</time></trkpt><trkpt lat="43.9032303" lon="11.3074901"><ele>540.0</ele><time>2026-04-24T14:41:07.652Z</time></trkpt><trkpt lat="43.9032768" lon="11.3074219"><ele>537.0</ele><time>2026-04-24T14:41:08.653Z</time></trkpt><trkpt lat="43.9033234" lon="11.3073487"><ele>537.0</ele><time>2026-04-24T14:41:09.653Z</time></trkpt><trkpt lat="43.9033742" lon="11.3072714"><ele>537.0</ele><time>2026-04-24T14:41:10.652Z</time></trkpt><trkpt lat="43.9034283" lon="11.3071937"><ele>537.0</ele><time>2026-04-24T14:41:11.653Z</time></trkpt><trkpt lat="43.9034854" lon="11.3071197"><ele>537.0</ele><time>2026-04-24T14:41:12.653Z</time></trkpt><trkpt lat="43.9035474" lon="11.3070467"><ele>537.0</ele><time>2026-04-24T14:41:13.653Z</time></trkpt><trkpt lat="43.9036103" lon="11.3069799"><ele>537.0</ele><time>2026-04-24T14:41:14.652Z</time></trkpt><trkpt lat="43.9036794" lon="11.3069207"><ele>537.1666666666666</ele><time>2026-04-24T14:41:15.653Z</time></trkpt><trkpt lat="43.9037563" lon="11.306864"><ele>537.3333333333334</ele><time>2026-04-24T14:41:16.653Z</time></trkpt><trkpt lat="43.9038327" lon="11.3068055"><ele>537.5</ele><time>2026-04-24T14:41:17.652Z</time></trkpt><trkpt lat="43.9039118" lon="11.3067501"><ele>537.6666666666667</ele><time>2026-04-24T14:41:18.653Z</time></trkpt><trkpt lat="43.9039864" lon="11.3066968"><ele>537.8333333333334</ele><time>2026-04-24T14:41:19.652Z</time></trkpt><trkpt lat="43.9040575" lon="11.3066325"><ele>538.0</ele><time>2026-04-24T14:41:20.652Z</time></trkpt><trkpt lat="43.9041235" lon="11.3065659"><ele>538.0</ele><time>2026-04-24T14:41:21.652Z</time></trkpt><trkpt lat="43.9041928" lon="11.3064956"><ele>538.0</ele><time>2026-04-24T14:41:22.653Z</time></trkpt><trkpt lat="43.9042652" lon="11.3064324"><ele>538.0</ele><time>2026-04-24T14:41:23.653Z</time></trkpt><trkpt lat="43.9043486" lon="11.3063869"><ele>538.0</ele><time>2026-04-24T14:41:24.653Z</time></trkpt><trkpt lat="43.9044281" lon="11.3063418"><ele>538.0</ele><time>2026-04-24T14:41:25.653Z</time></trkpt><trkpt lat="43.9044955" lon="11.3062596"><ele>538.0</ele><time>2026-04-24T14:41:26.652Z</time></trkpt><trkpt lat="43.904536" lon="11.3061536"><ele>538.5</ele><time>2026-04-24T14:41:27.653Z</time></trkpt><trkpt lat="43.9045621" lon="11.3060413"><ele>539.0</ele><time>2026-04-24T14:41:28.652Z</time></trkpt><trkpt lat="43.904602" lon="11.3059349"><ele>539.5</ele><time>2026-04-24T14:41:29.653Z</time></trkpt><trkpt lat="43.9046469" lon="11.3058711"><ele>540.0</ele><time>2026-04-24T14:41:30.653Z</time></trkpt><trkpt lat="43.904714" lon="11.3058334"><ele>540.5</ele><time>2026-04-24T14:41:31.651Z</time></trkpt><trkpt lat="43.9048012" lon="11.3058405"><ele>541.0</ele><time>2026-04-24T14:41:32.652Z</time></trkpt><trkpt lat="43.9048759" lon="11.305857"><ele>541.0</ele><time>2026-04-24T14:41:33.653Z</time></trkpt><trkpt lat="43.9049536" lon="11.3058745"><ele>541.0</ele><time>2026-04-24T14:41:34.653Z</time></trkpt><trkpt lat="43.9050344" lon="11.3058811"><ele>541.0</ele><time>2026-04-24T14:41:35.653Z</time></trkpt><trkpt lat="43.9051148" lon="11.3058905"><ele>541.0</ele><time>2026-04-24T14:41:36.653Z</time></trkpt><trkpt lat="43.905199" lon="11.3059009"><ele>541.0</ele><time>2026-04-24T14:41:37.653Z</time></trkpt><trkpt lat="43.9052821" lon="11.3059072"><ele>541.0</ele><time>2026-04-24T14:41:38.653Z</time></trkpt><trkpt lat="43.9053674" lon="11.3059078"><ele>542.1666666666667</ele><time>2026-04-24T14:41:39.653Z</time></trkpt><trkpt lat="43.9054491" lon="11.3059078"><ele>543.3333333333334</ele><time>2026-04-24T14:41:40.653Z</time></trkpt><trkpt lat="43.9055353" lon="11.305908"><ele>544.5</ele><time>2026-04-24T14:41:41.653Z</time></trkpt><trkpt lat="43.9056126" lon="11.3059234"><ele>545.6666666666666</ele><time>2026-04-24T14:41:42.653Z</time></trkpt><trkpt lat="43.9056698" lon="11.3059703"><ele>546.8333333333333</ele><time>2026-04-24T14:41:43.653Z</time></trkpt><trkpt lat="43.9057037" lon="11.306054"><ele>548.0</ele><time>2026-04-24T14:41:44.653Z</time></trkpt><trkpt lat="43.9057185" lon="11.3061585"><ele>548.0</ele><time>2026-04-24T14:41:45.653Z</time></trkpt><trkpt lat="43.9057254" lon="11.3062743"><ele>548.0</ele><time>2026-04-24T14:41:46.652Z</time></trkpt><trkpt lat="43.9057311" lon="11.3063956"><ele>548.0</ele><time>2026-04-24T14:41:47.653Z</time></trkpt><trkpt lat="43.9057261" lon="11.3064987"><ele>548.0</ele><time>2026-04-24T14:41:48.653Z</time></trkpt><trkpt lat="43.9057067" lon="11.3065847"><ele>548.0</ele><time>2026-04-24T14:41:49.652Z</time></trkpt><trkpt lat="43.9056754" lon="11.3066613"><ele>548.0</ele><time>2026-04-24T14:41:50.652Z</time></trkpt><trkpt lat="43.9056463" lon="11.3068006"><ele>548.8333333333333</ele><time>2026-04-24T14:41:52.653Z</time></trkpt><trkpt lat="43.9056506" lon="11.3069396"><ele>549.6666666666666</ele><time>2026-04-24T14:41:54.653Z</time></trkpt><trkpt lat="43.9056701" lon="11.3070493"><ele>550.5</ele><time>2026-04-24T14:42:02.653Z</time></trkpt><trkpt lat="43.9056877" lon="11.3071598"><ele>551.3333333333334</ele><time>2026-04-24T14:42:04.653Z</time></trkpt><trkpt lat="43.9057335" lon="11.3072809"><ele>552.1666666666667</ele><time>2026-04-24T14:42:06.653Z</time></trkpt><trkpt lat="43.9057796" lon="11.3073827"><ele>553.0</ele><time>2026-04-24T14:42:08.653Z</time></trkpt><trkpt lat="43.9058256" lon="11.3075233"><ele>553.3333333333334</ele><time>2026-04-24T14:42:10.653Z</time></trkpt><trkpt lat="43.9058489" lon="11.3076192"><ele>553.6666666666667</ele><time>2026-04-24T14:42:11.653Z</time></trkpt><trkpt lat="43.9058528" lon="11.3077162"><ele>554.0</ele><time>2026-04-24T14:42:12.652Z</time></trkpt><trkpt lat="43.905875" lon="11.3078627"><ele>554.3333333333334</ele><time>2026-04-24T14:42:14.653Z</time></trkpt><trkpt lat="43.9059201" lon="11.3079779"><ele>554.6666666666666</ele><time>2026-04-24T14:42:17.653Z</time></trkpt><trkpt lat="43.9059485" lon="11.3080693"><ele>555.0</ele><time>2026-04-24T14:42:18.653Z</time></trkpt><trkpt lat="43.9059736" lon="11.3081557"><ele>555.0</ele><time>2026-04-24T14:42:19.653Z</time></trkpt><trkpt lat="43.906034" lon="11.3082949"><ele>555.0</ele><time>2026-04-24T14:42:21.652Z</time></trkpt><trkpt lat="43.9060686" lon="11.3083745"><ele>555.0</ele><time>2026-04-24T14:42:22.652Z</time></trkpt><trkpt lat="43.9061475" lon="11.3085035"><ele>555.0</ele><time>2026-04-24T14:42:24.651Z</time></trkpt><trkpt lat="43.9061756" lon="11.3085898"><ele>555.0</ele><time>2026-04-24T14:42:25.653Z</time></trkpt><trkpt lat="43.906207" lon="11.3087291"><ele>555.0</ele><time>2026-04-24T14:42:26.653Z</time></trkpt><trkpt lat="43.9062192" lon="11.3088284"><ele>555.0</ele><time>2026-04-24T14:42:27.653Z</time></trkpt><trkpt lat="43.9061918" lon="11.3089578"><ele>555.0</ele><time>2026-04-24T14:42:28.653Z</time></trkpt><trkpt lat="43.9061896" lon="11.3090651"><ele>555.0</ele><time>2026-04-24T14:42:29.653Z</time></trkpt><trkpt lat="43.9061698" lon="11.3092047"><ele>555.0</ele><time>2026-04-24T14:42:31.653Z</time></trkpt><trkpt lat="43.9062092" lon="11.3093099"><ele>555.0</ele><time>2026-04-24T14:42:59.653Z</time></trkpt><trkpt lat="43.9062559" lon="11.3093705"><ele>556.5714285714287</ele><time>2026-04-24T14:43:01.653Z</time></trkpt><trkpt lat="43.9063417" lon="11.3094289"><ele>558.1428571428571</ele><time>2026-04-24T14:43:04.652Z</time></trkpt><trkpt lat="43.9063903" lon="11.3095127"><ele>559.7142857142858</ele><time>2026-04-24T14:43:06.653Z</time></trkpt><trkpt lat="43.9064312" lon="11.3095874"><ele>561.2857142857143</ele><time>2026-04-24T14:43:08.653Z</time></trkpt><trkpt lat="43.9064758" lon="11.3096546"><ele>562.8571428571429</ele><time>2026-04-24T14:43:10.653Z</time></trkpt><trkpt lat="43.9065142" lon="11.3097358"><ele>564.4285714285714</ele><time>2026-04-24T14:43:13.653Z</time></trkpt><trkpt lat="43.9064595" lon="11.3096706"><ele>566.0</ele><time>2026-04-24T14:43:37.652Z</time></trkpt><trkpt lat="43.9064291" lon="11.3095527"><ele>566.0</ele><time>2026-04-24T14:43:38.653Z</time></trkpt><trkpt lat="43.9063623" lon="11.3094919"><ele>566.0</ele><time>2026-04-24T14:43:39.652Z</time></trkpt><trkpt lat="43.90631" lon="11.3094153"><ele>566.0</ele><time>2026-04-24T14:43:40.653Z</time></trkpt><trkpt lat="43.9062526" lon="11.3093363"><ele>566.0</ele><time>2026-04-24T14:43:42.653Z</time></trkpt><trkpt lat="43.9062283" lon="11.3092371"><ele>566.0</ele><time>2026-04-24T14:43:44.653Z</time></trkpt><trkpt lat="43.9061653" lon="11.3091823"><ele>566.0</ele><time>2026-04-24T14:43:47.651Z</time></trkpt><trkpt lat="43.9060995" lon="11.3092499"><ele>566.0</ele><time>2026-04-24T14:43:50.653Z</time></trkpt><trkpt lat="43.906092" lon="11.3093367"><ele>566.0</ele><time>2026-04-24T14:43:52.652Z</time></trkpt><trkpt lat="43.9061167" lon="11.3094507"><ele>566.0</ele><time>2026-04-24T14:43:55.652Z</time></trkpt><trkpt lat="43.9061509" lon="11.3095532"><ele>566.0</ele><time>2026-04-24T14:43:57.653Z</time></trkpt><trkpt lat="43.9061663" lon="11.3096586"><ele>566.0</ele><time>2026-04-24T14:43:58.653Z</time></trkpt><trkpt lat="43.9061718" lon="11.3097694"><ele>566.0</ele><time>2026-04-24T14:43:59.653Z</time></trkpt><trkpt lat="43.9061825" lon="11.3098765"><ele>567.6666666666666</ele><time>2026-04-24T14:44:00.652Z</time></trkpt><trkpt lat="43.9061948" lon="11.3099724"><ele>569.3333333333333</ele><time>2026-04-24T14:44:02.652Z</time></trkpt><trkpt lat="43.9062114" lon="11.310065"><ele>571.0</ele><time>2026-04-24T14:44:14.652Z</time></trkpt><trkpt lat="43.9062444" lon="11.3101611"><ele>572.6666666666666</ele><time>2026-04-24T14:44:16.653Z</time></trkpt><trkpt lat="43.9062865" lon="11.3102763"><ele>574.3333333333334</ele><time>2026-04-24T14:44:18.653Z</time></trkpt><trkpt lat="43.9063168" lon="11.3104431"><ele>576.0</ele><time>2026-04-24T14:44:20.653Z</time></trkpt><trkpt lat="43.9063353" lon="11.3105651"><ele>576.7142857142858</ele><time>2026-04-24T14:44:21.653Z</time></trkpt><trkpt lat="43.906335" lon="11.3106814"><ele>577.4285714285714</ele><time>2026-04-24T14:44:22.653Z</time></trkpt><trkpt lat="43.90634" lon="11.3107743"><ele>578.1428571428571</ele><time>2026-04-24T14:44:23.653Z</time></trkpt><trkpt lat="43.9063376" lon="11.3108895"><ele>578.8571428571429</ele><time>2026-04-24T14:44:27.653Z</time></trkpt><trkpt lat="43.9063381" lon="11.310987"><ele>579.5714285714286</ele><time>2026-04-24T14:44:31.652Z</time></trkpt><trkpt lat="43.9063282" lon="11.3110758"><ele>580.2857142857143</ele><time>2026-04-24T14:44:34.653Z</time></trkpt><trkpt lat="43.9063593" lon="11.3111589"><ele>581.0</ele><time>2026-04-24T14:44:56.653Z</time></trkpt><trkpt lat="43.9063849" lon="11.311259"><ele>581.0</ele><time>2026-04-24T14:44:59.652Z</time></trkpt><trkpt lat="43.906385" lon="11.3113467"><ele>581.0</ele><time>2026-04-24T14:45:01.653Z</time></trkpt><trkpt lat="43.9063783" lon="11.3114514"><ele>581.0</ele><time>2026-04-24T14:45:04.653Z</time></trkpt><trkpt lat="43.9063553" lon="11.3115769"><ele>581.0</ele><time>2026-04-24T14:45:07.653Z</time></trkpt><trkpt lat="43.9062916" lon="11.3116622"><ele>581.0</ele><time>2026-04-24T14:45:09.653Z</time></trkpt><trkpt lat="43.9061953" lon="11.3117432"><ele>581.0</ele><time>2026-04-24T14:45:11.652Z</time></trkpt><trkpt lat="43.9061275" lon="11.3118217"><ele>581.8333333333333</ele><time>2026-04-24T14:45:13.653Z</time></trkpt><trkpt lat="43.9060556" lon="11.3119459"><ele>582.6666666666666</ele><time>2026-04-24T14:45:15.653Z</time></trkpt><trkpt lat="43.9059904" lon="11.3119595"><ele>583.5</ele><time>2026-04-24T14:45:17.652Z</time></trkpt><trkpt lat="43.9059063" lon="11.3120073"><ele>584.3333333333334</ele><time>2026-04-24T14:45:19.653Z</time></trkpt><trkpt lat="43.905857" lon="11.3120986"><ele>585.1666666666667</ele><time>2026-04-24T14:45:21.653Z</time></trkpt><trkpt lat="43.9058109" lon="11.3121787"><ele>586.0</ele><time>2026-04-24T14:45:23.653Z</time></trkpt><trkpt lat="43.9057465" lon="11.3122534"><ele>587.8333333333334</ele><time>2026-04-24T14:45:26.653Z</time></trkpt><trkpt lat="43.9056949" lon="11.3123403"><ele>589.6666666666667</ele><time>2026-04-24T14:45:28.653Z</time></trkpt><trkpt lat="43.9056295" lon="11.3124404"><ele>591.5</ele><time>2026-04-24T14:45:30.653Z</time></trkpt><trkpt lat="43.9056124" lon="11.3125526"><ele>593.3333333333334</ele><time>2026-04-24T14:45:32.652Z</time></trkpt><trkpt lat="43.9056039" lon="11.3126412"><ele>595.1666666666666</ele><time>2026-04-24T14:45:35.652Z</time></trkpt><trkpt lat="43.9056339" lon="11.3127354"><ele>597.0</ele><time>2026-04-24T14:45:46.653Z</time></trkpt><trkpt lat="43.9056705" lon="11.3128212"><ele>597.0</ele><time>2026-04-24T14:45:48.652Z</time></trkpt><trkpt lat="43.905729" lon="11.3128988"><ele>597.0</ele><time>2026-04-24T14:45:50.652Z</time></trkpt><trkpt lat="43.9057952" lon="11.3130175"><ele>597.0</ele><time>2026-04-24T14:45:52.653Z</time></trkpt><trkpt lat="43.9058429" lon="11.3130774"><ele>597.0</ele><time>2026-04-24T14:45:55.653Z</time></trkpt><trkpt lat="43.9058837" lon="11.3131853"><ele>597.0</ele><time>2026-04-24T14:45:58.652Z</time></trkpt><trkpt lat="43.9059201" lon="11.3132939"><ele>597.0</ele><time>2026-04-24T14:46:01.652Z</time></trkpt><trkpt lat="43.9059848" lon="11.3133555"><ele>598.5</ele><time>2026-04-24T14:46:04.653Z</time></trkpt><trkpt lat="43.9060615" lon="11.3134024"><ele>600.0</ele><time>2026-04-24T14:46:06.652Z</time></trkpt><trkpt lat="43.9061063" lon="11.3134722"><ele>601.5</ele><time>2026-04-24T14:46:34.654Z</time></trkpt><trkpt lat="43.9060479" lon="11.3135313"><ele>603.0</ele><time>2026-04-24T14:46:37.654Z</time></trkpt><trkpt lat="43.9059626" lon="11.3135349"><ele>604.5</ele><time>2026-04-24T14:46:39.653Z</time></trkpt><trkpt lat="43.9058595" lon="11.3134958"><ele>606.0</ele><time>2026-04-24T14:46:41.654Z</time></trkpt><trkpt lat="43.9057502" lon="11.3134566"><ele>606.8</ele><time>2026-04-24T14:46:43.654Z</time></trkpt><trkpt lat="43.9056427" lon="11.3134388"><ele>607.6</ele><time>2026-04-24T14:46:45.654Z</time></trkpt><trkpt lat="43.9055378" lon="11.3134837"><ele>608.4</ele><time>2026-04-24T14:46:47.654Z</time></trkpt><trkpt lat="43.9054786" lon="11.3135213"><ele>609.2</ele><time>2026-04-24T14:46:48.654Z</time></trkpt><trkpt lat="43.9054208" lon="11.3135578"><ele>610.0</ele><time>2026-04-24T14:46:49.654Z</time></trkpt><trkpt lat="43.9053017" lon="11.3135962"><ele>610.0</ele><time>2026-04-24T14:46:51.654Z</time></trkpt><trkpt lat="43.9052425" lon="11.313696"><ele>610.0</ele><time>2026-04-24T14:46:53.653Z</time></trkpt><trkpt lat="43.9051634" lon="11.3137928"><ele>610.0</ele><time>2026-04-24T14:46:55.654Z</time></trkpt><trkpt lat="43.905098" lon="11.3138405"><ele>610.0</ele><time>2026-04-24T14:46:56.654Z</time></trkpt><trkpt lat="43.9050159" lon="11.3138955"><ele>610.0</ele><time>2026-04-24T14:46:58.654Z</time></trkpt><trkpt lat="43.9049152" lon="11.3138965"><ele>612.1666666666667</ele><time>2026-04-24T14:47:00.653Z</time></trkpt><trkpt lat="43.9048451" lon="11.3139564"><ele>614.3333333333334</ele><time>2026-04-24T14:47:02.654Z</time></trkpt><trkpt lat="43.9047831" lon="11.3140457"><ele>616.5</ele><time>2026-04-24T14:47:04.654Z</time></trkpt><trkpt lat="43.9047225" lon="11.3141202"><ele>618.6666666666666</ele><time>2026-04-24T14:47:06.654Z</time></trkpt><trkpt lat="43.9046664" lon="11.3142215"><ele>620.8333333333333</ele><time>2026-04-24T14:47:09.654Z</time></trkpt><trkpt lat="43.9046175" lon="11.3143029"><ele>623.0</ele><time>2026-04-24T14:47:11.654Z</time></trkpt><trkpt lat="43.9045532" lon="11.3142786"><ele>623.0</ele><time>2026-04-24T14:47:12.654Z</time></trkpt><trkpt lat="43.9044398" lon="11.314296"><ele>623.0</ele><time>2026-04-24T14:47:14.654Z</time></trkpt><trkpt lat="43.9043744" lon="11.3143139"><ele>623.0</ele><time>2026-04-24T14:47:15.654Z</time></trkpt><trkpt lat="43.9042638" lon="11.3143562"><ele>623.0</ele><time>2026-04-24T14:47:17.654Z</time></trkpt><trkpt lat="43.9041885" lon="11.3143811"><ele>623.0</ele><time>2026-04-24T14:47:18.654Z</time></trkpt><trkpt lat="43.9040629" lon="11.3144255"><ele>621.5</ele><time>2026-04-24T14:47:20.653Z</time></trkpt><trkpt lat="43.9039894" lon="11.314459"><ele>620.0</ele><time>2026-04-24T14:47:21.654Z</time></trkpt><trkpt lat="43.9039234" lon="11.3145051"><ele>618.5</ele><time>2026-04-24T14:47:22.654Z</time></trkpt><trkpt lat="43.9038611" lon="11.3145402"><ele>617.0</ele><time>2026-04-24T14:47:23.654Z</time></trkpt><trkpt lat="43.9037877" lon="11.3145736"><ele>615.5</ele><time>2026-04-24T14:47:24.654Z</time></trkpt><trkpt lat="43.9037581" lon="11.3146524"><ele>614.0</ele><time>2026-04-24T14:47:25.654Z</time></trkpt><trkpt lat="43.903677" lon="11.314723"><ele>615.1666666666666</ele><time>2026-04-24T14:47:26.654Z</time></trkpt><trkpt lat="43.9036186" lon="11.3147749"><ele>616.3333333333333</ele><time>2026-04-24T14:47:27.653Z</time></trkpt><trkpt lat="43.9035634" lon="11.3148475"><ele>617.5</ele><time>2026-04-24T14:47:28.653Z</time></trkpt><trkpt lat="43.9035016" lon="11.3149266"><ele>618.6666666666666</ele><time>2026-04-24T14:47:29.653Z</time></trkpt><trkpt lat="43.9034482" lon="11.3150025"><ele>619.8333333333334</ele><time>2026-04-24T14:47:30.653Z</time></trkpt><trkpt lat="43.9033903" lon="11.3150705"><ele>621.0</ele><time>2026-04-24T14:47:31.654Z</time></trkpt><trkpt lat="43.9032918" lon="11.3150829"><ele>621.0</ele><time>2026-04-24T14:47:33.654Z</time></trkpt><trkpt lat="43.9031933" lon="11.3150947"><ele>621.0</ele><time>2026-04-24T14:47:34.654Z</time></trkpt><trkpt lat="43.9031304" lon="11.3151109"><ele>621.0</ele><time>2026-04-24T14:47:35.653Z</time></trkpt><trkpt lat="43.9030206" lon="11.3151299"><ele>621.0</ele><time>2026-04-24T14:47:38.654Z</time></trkpt><trkpt lat="43.9029316" lon="11.3151081"><ele>621.0</ele><time>2026-04-24T14:47:39.654Z</time></trkpt><trkpt lat="43.9028479" lon="11.3151001"><ele>621.0</ele><time>2026-04-24T14:47:40.654Z</time></trkpt><trkpt lat="43.9027619" lon="11.3150899"><ele>621.0</ele><time>2026-04-24T14:47:41.654Z</time></trkpt><trkpt lat="43.9026701" lon="11.3150578"><ele>621.0</ele><time>2026-04-24T14:47:42.654Z</time></trkpt><trkpt lat="43.9026156" lon="11.3151031"><ele>621.0</ele><time>2026-04-24T14:47:43.654Z</time></trkpt><trkpt lat="43.9025465" lon="11.315104"><ele>621.0</ele><time>2026-04-24T14:47:44.653Z</time></trkpt><trkpt lat="43.9024595" lon="11.3150989"><ele>621.0</ele><time>2026-04-24T14:47:45.654Z</time></trkpt><trkpt lat="43.902388" lon="11.3151013"><ele>621.0</ele><time>2026-04-24T14:47:46.654Z</time></trkpt><trkpt lat="43.902317" lon="11.3151635"><ele>621.8333333333334</ele><time>2026-04-24T14:47:47.654Z</time></trkpt><trkpt lat="43.9022412" lon="11.3151977"><ele>622.6666666666666</ele><time>2026-04-24T14:47:48.654Z</time></trkpt><trkpt lat="43.9021616" lon="11.3152457"><ele>623.5</ele><time>2026-04-24T14:47:49.654Z</time></trkpt><trkpt lat="43.9020977" lon="11.3153161"><ele>624.3333333333333</ele><time>2026-04-24T14:47:50.654Z</time></trkpt><trkpt lat="43.9020543" lon="11.3154011"><ele>625.1666666666666</ele><time>2026-04-24T14:47:51.654Z</time></trkpt><trkpt lat="43.9020517" lon="11.3155473"><ele>626.0</ele><time>2026-04-24T14:47:53.654Z</time></trkpt><trkpt lat="43.9019765" lon="11.3156851"><ele>626.0</ele><time>2026-04-24T14:47:55.654Z</time></trkpt><trkpt lat="43.9019457" lon="11.3157884"><ele>626.0</ele><time>2026-04-24T14:47:56.654Z</time></trkpt><trkpt lat="43.901909" lon="11.3159113"><ele>626.0</ele><time>2026-04-24T14:47:58.653Z</time></trkpt><trkpt lat="43.9018535" lon="11.3160075"><ele>626.0</ele><time>2026-04-24T14:48:00.654Z</time></trkpt><trkpt lat="43.9017322" lon="11.3159958"><ele>626.0</ele><time>2026-04-24T14:48:02.654Z</time></trkpt><trkpt lat="43.9016591" lon="11.3160317"><ele>623.3333333333333</ele><time>2026-04-24T14:48:03.654Z</time></trkpt><trkpt lat="43.9015451" lon="11.316074"><ele>620.6666666666666</ele><time>2026-04-24T14:48:04.654Z</time></trkpt><trkpt lat="43.9014541" lon="11.3161057"><ele>618.0</ele><time>2026-04-24T14:48:05.653Z</time></trkpt><trkpt lat="43.9013985" lon="11.3161677"><ele>615.3333333333334</ele><time>2026-04-24T14:48:06.654Z</time></trkpt><trkpt lat="43.9013315" lon="11.3162187"><ele>612.6666666666667</ele><time>2026-04-24T14:48:07.654Z</time></trkpt><trkpt lat="43.9012646" lon="11.3162761"><ele>610.0</ele><time>2026-04-24T14:48:08.654Z</time></trkpt><trkpt lat="43.9011606" lon="11.3163514"><ele>610.0</ele><time>2026-04-24T14:48:10.654Z</time></trkpt><trkpt lat="43.9010883" lon="11.316353"><ele>610.0</ele><time>2026-04-24T14:48:11.654Z</time></trkpt><trkpt lat="43.901015" lon="11.3163666"><ele>610.0</ele><time>2026-04-24T14:48:12.653Z</time></trkpt><trkpt lat="43.9009597" lon="11.316422"><ele>610.0</ele><time>2026-04-24T14:48:13.654Z</time></trkpt><trkpt lat="43.9008936" lon="11.3164803"><ele>610.0</ele><time>2026-04-24T14:48:14.654Z</time></trkpt><trkpt lat="43.9008093" lon="11.3165984"><ele>610.0</ele><time>2026-04-24T14:48:16.654Z</time></trkpt><trkpt lat="43.9007315" lon="11.3166745"><ele>610.8571428571429</ele><time>2026-04-24T14:48:18.654Z</time></trkpt><trkpt lat="43.9006602" lon="11.3167117"><ele>611.7142857142857</ele><time>2026-04-24T14:49:53.654Z</time></trkpt><trkpt lat="43.9006059" lon="11.3167769"><ele>612.5714285714286</ele><time>2026-04-24T14:49:56.654Z</time></trkpt><trkpt lat="43.9005391" lon="11.3168449"><ele>613.4285714285714</ele><time>2026-04-24T14:49:59.654Z</time></trkpt><trkpt lat="43.9004856" lon="11.3168971"><ele>614.2857142857142</ele><time>2026-04-24T14:50:01.654Z</time></trkpt><trkpt lat="43.9004313" lon="11.3169416"><ele>615.1428571428571</ele><time>2026-04-24T14:50:03.654Z</time></trkpt><trkpt lat="43.9003588" lon="11.3169915"><ele>616.0</ele><time>2026-04-24T14:50:05.654Z</time></trkpt><trkpt lat="43.9002881" lon="11.317036"><ele>616.0</ele><time>2026-04-24T14:50:08.653Z</time></trkpt><trkpt lat="43.9002343" lon="11.3170875"><ele>616.0</ele><time>2026-04-24T14:50:10.654Z</time></trkpt><trkpt lat="43.900157" lon="11.3172085"><ele>616.0</ele><time>2026-04-24T14:50:12.653Z</time></trkpt><trkpt lat="43.9000923" lon="11.3172966"><ele>616.0</ele><time>2026-04-24T14:50:14.653Z</time></trkpt><trkpt lat="43.8999969" lon="11.3173511"><ele>616.0</ele><time>2026-04-24T14:50:16.654Z</time></trkpt><trkpt lat="43.8999257" lon="11.3174044"><ele>615.2</ele><time>2026-04-24T14:50:18.654Z</time></trkpt><trkpt lat="43.8998656" lon="11.3174821"><ele>614.4000000000001</ele><time>2026-04-24T14:50:20.653Z</time></trkpt><trkpt lat="43.8998203" lon="11.317578"><ele>613.6</ele><time>2026-04-24T14:50:22.654Z</time></trkpt><trkpt lat="43.8997842" lon="11.3177254"><ele>612.8000000000001</ele><time>2026-04-24T14:50:24.654Z</time></trkpt><trkpt lat="43.8997412" lon="11.3178168"><ele>612.0</ele><time>2026-04-24T14:50:25.653Z</time></trkpt><trkpt lat="43.8996873" lon="11.3179847"><ele>613.0</ele><time>2026-04-24T14:50:27.652Z</time></trkpt><trkpt lat="43.8996311" lon="11.3181078"><ele>614.0</ele><time>2026-04-24T14:50:29.653Z</time></trkpt><trkpt lat="43.8995553" lon="11.3181861"><ele>615.0</ele><time>2026-04-24T14:50:31.654Z</time></trkpt><trkpt lat="43.8994878" lon="11.3182327"><ele>616.0</ele><time>2026-04-24T14:50:33.654Z</time></trkpt><trkpt lat="43.8994105" lon="11.3182811"><ele>617.0</ele><time>2026-04-24T14:50:35.654Z</time></trkpt><trkpt lat="43.8993341" lon="11.3183658"><ele>617.0</ele><time>2026-04-24T14:50:37.654Z</time></trkpt><trkpt lat="43.8992762" lon="11.3184728"><ele>617.0</ele><time>2026-04-24T14:50:39.654Z</time></trkpt><trkpt lat="43.8992399" lon="11.3185999"><ele>617.0</ele><time>2026-04-24T14:50:41.653Z</time></trkpt><trkpt lat="43.8992076" lon="11.3186791"><ele>617.0</ele><time>2026-04-24T14:50:43.654Z</time></trkpt><trkpt lat="43.8991638" lon="11.3187499"><ele>617.0</ele><time>2026-04-24T14:50:45.654Z</time></trkpt><trkpt lat="43.8991145" lon="11.318839"><ele>617.0</ele><time>2026-04-24T14:50:47.653Z</time></trkpt><trkpt lat="43.8990691" lon="11.3189426"><ele>614.6666666666666</ele><time>2026-04-24T14:50:49.654Z</time></trkpt><trkpt lat="43.8990127" lon="11.3190179"><ele>612.3333333333333</ele><time>2026-04-24T14:50:51.653Z</time></trkpt><trkpt lat="43.8989347" lon="11.3190074"><ele>610.0</ele><time>2026-04-24T14:50:53.654Z</time></trkpt><trkpt lat="43.8988285" lon="11.3189749"><ele>607.6666666666666</ele><time>2026-04-24T14:50:55.654Z</time></trkpt><trkpt lat="43.8987084" lon="11.3189808"><ele>605.3333333333334</ele><time>2026-04-24T14:50:57.653Z</time></trkpt><trkpt lat="43.8986454" lon="11.3189921"><ele>603.0</ele><time>2026-04-24T14:50:58.654Z</time></trkpt><trkpt lat="43.8985763" lon="11.3190082"><ele>603.0</ele><time>2026-04-24T14:50:59.654Z</time></trkpt><trkpt lat="43.8985129" lon="11.31902"><ele>603.0</ele><time>2026-04-24T14:51:00.653Z</time></trkpt><trkpt lat="43.8984452" lon="11.3190391"><ele>603.0</ele><time>2026-04-24T14:51:01.654Z</time></trkpt><trkpt lat="43.8983747" lon="11.3190797"><ele>603.0</ele><time>2026-04-24T14:51:02.654Z</time></trkpt><trkpt lat="43.8983067" lon="11.3191228"><ele>603.0</ele><time>2026-04-24T14:51:03.654Z</time></trkpt><trkpt lat="43.8982396" lon="11.3191809"><ele>603.0</ele><time>2026-04-24T14:51:04.654Z</time></trkpt><trkpt lat="43.8981771" lon="11.3192328"><ele>603.0</ele><time>2026-04-24T14:51:05.654Z</time></trkpt><trkpt lat="43.8981128" lon="11.3192793"><ele>599.0</ele><time>2026-04-24T14:51:06.654Z</time></trkpt><trkpt lat="43.8980531" lon="11.319334"><ele>595.0</ele><time>2026-04-24T14:51:07.653Z</time></trkpt><trkpt lat="43.8979726" lon="11.319398"><ele>591.0</ele><time>2026-04-24T14:51:09.654Z</time></trkpt><trkpt lat="43.8979068" lon="11.3194897"><ele>587.0</ele><time>2026-04-24T14:51:11.654Z</time></trkpt><trkpt lat="43.8978264" lon="11.3196214"><ele>583.0</ele><time>2026-04-24T14:51:13.654Z</time></trkpt><trkpt lat="43.8977782" lon="11.319698"><ele>582.5</ele><time>2026-04-24T14:51:14.654Z</time></trkpt><trkpt lat="43.8977194" lon="11.3197644"><ele>582.0</ele><time>2026-04-24T14:51:15.653Z</time></trkpt><trkpt lat="43.8976507" lon="11.3198234"><ele>581.5</ele><time>2026-04-24T14:51:16.653Z</time></trkpt><trkpt lat="43.8975773" lon="11.3198872"><ele>581.0</ele><time>2026-04-24T14:51:17.654Z</time></trkpt><trkpt lat="43.8975027" lon="11.3199558"><ele>580.5</ele><time>2026-04-24T14:51:18.654Z</time></trkpt><trkpt lat="43.8974274" lon="11.3200233"><ele>580.0</ele><time>2026-04-24T14:51:19.654Z</time></trkpt><trkpt lat="43.8973546" lon="11.3200885"><ele>580.0</ele><time>2026-04-24T14:51:20.654Z</time></trkpt><trkpt lat="43.8972821" lon="11.3201543"><ele>580.0</ele><time>2026-04-24T14:51:21.654Z</time></trkpt><trkpt lat="43.8972062" lon="11.3202191"><ele>580.0</ele><time>2026-04-24T14:51:22.653Z</time></trkpt><trkpt lat="43.8971273" lon="11.3202867"><ele>580.0</ele><time>2026-04-24T14:51:23.653Z</time></trkpt><trkpt lat="43.8970486" lon="11.3203568"><ele>580.0</ele><time>2026-04-24T14:51:24.654Z</time></trkpt><trkpt lat="43.8969725" lon="11.3204216"><ele>580.0</ele><time>2026-04-24T14:51:25.654Z</time></trkpt><trkpt lat="43.8969138" lon="11.3204741"><ele>580.0</ele><time>2026-04-24T14:51:26.654Z</time></trkpt><trkpt lat="43.8968185" lon="11.3205618"><ele>580.0</ele><time>2026-04-24T14:51:28.654Z</time></trkpt><trkpt lat="43.8967554" lon="11.320612"><ele>580.0</ele><time>2026-04-24T14:51:29.654Z</time></trkpt><trkpt lat="43.8966838" lon="11.3206628"><ele>580.0</ele><time>2026-04-24T14:51:30.653Z</time></trkpt><trkpt lat="43.8966114" lon="11.3207078"><ele>580.0</ele><time>2026-04-24T14:51:31.654Z</time></trkpt><trkpt lat="43.8965352" lon="11.3207538"><ele>581.5</ele><time>2026-04-24T14:51:32.653Z</time></trkpt><trkpt lat="43.896459" lon="11.320796"><ele>583.0</ele><time>2026-04-24T14:51:33.654Z</time></trkpt><trkpt lat="43.8963993" lon="11.3208381"><ele>584.5</ele><time>2026-04-24T14:51:34.653Z</time></trkpt><trkpt lat="43.8963303" lon="11.3208745"><ele>586.0</ele><time>2026-04-24T14:51:35.654Z</time></trkpt><trkpt lat="43.8962728" lon="11.3209137"><ele>587.5</ele><time>2026-04-24T14:51:36.653Z</time></trkpt><trkpt lat="43.8961663" lon="11.3209682"><ele>589.0</ele><time>2026-04-24T14:51:38.654Z</time></trkpt><trkpt lat="43.8960878" lon="11.3210309"><ele>589.0</ele><time>2026-04-24T14:51:40.654Z</time></trkpt><trkpt lat="43.8960663" lon="11.3211276"><ele>589.0</ele><time>2026-04-24T14:51:42.654Z</time></trkpt><trkpt lat="43.8961029" lon="11.3212412"><ele>589.0</ele><time>2026-04-24T14:51:44.654Z</time></trkpt><trkpt lat="43.8961489" lon="11.321333"><ele>589.0</ele><time>2026-04-24T14:51:46.654Z</time></trkpt><trkpt lat="43.8961796" lon="11.3214747"><ele>589.0</ele><time>2026-04-24T14:51:48.654Z</time></trkpt><trkpt lat="43.8962133" lon="11.3216465"><ele>590.1666666666667</ele><time>2026-04-24T14:51:50.653Z</time></trkpt><trkpt lat="43.8962306" lon="11.3217423"><ele>591.3333333333334</ele><time>2026-04-24T14:51:51.653Z</time></trkpt><trkpt lat="43.8962484" lon="11.3218417"><ele>592.5</ele><time>2026-04-24T14:51:52.654Z</time></trkpt><trkpt lat="43.8962671" lon="11.3219471"><ele>593.6666666666666</ele><time>2026-04-24T14:51:53.654Z</time></trkpt><trkpt lat="43.8962834" lon="11.3220537"><ele>594.8333333333333</ele><time>2026-04-24T14:51:54.654Z</time></trkpt><trkpt lat="43.896296" lon="11.32216"><ele>596.0</ele><time>2026-04-24T14:51:55.654Z</time></trkpt><trkpt lat="43.8963079" lon="11.322267"><ele>597.0</ele><time>2026-04-24T14:51:56.654Z</time></trkpt><trkpt lat="43.8963117" lon="11.3223708"><ele>598.0</ele><time>2026-04-24T14:51:57.654Z</time></trkpt><trkpt lat="43.8963029" lon="11.3224658"><ele>599.0</ele><time>2026-04-24T14:51:58.653Z</time></trkpt><trkpt lat="43.8962786" lon="11.3225615"><ele>600.0</ele><time>2026-04-24T14:51:59.653Z</time></trkpt><trkpt lat="43.8962192" lon="11.3226208"><ele>601.0</ele><time>2026-04-24T14:52:00.653Z</time></trkpt><trkpt lat="43.8961561" lon="11.3226905"><ele>602.0</ele><time>2026-04-24T14:52:01.653Z</time></trkpt><trkpt lat="43.8960872" lon="11.3227427"><ele>603.0</ele><time>2026-04-24T14:52:02.654Z</time></trkpt><trkpt lat="43.8960184" lon="11.3227963"><ele>603.0</ele><time>2026-04-24T14:52:03.654Z</time></trkpt><trkpt lat="43.8959472" lon="11.3228467"><ele>603.0</ele><time>2026-04-24T14:52:04.654Z</time></trkpt><trkpt lat="43.8958681" lon="11.3228928"><ele>603.0</ele><time>2026-04-24T14:52:05.654Z</time></trkpt><trkpt lat="43.8957866" lon="11.3229381"><ele>603.0</ele><time>2026-04-24T14:52:06.653Z</time></trkpt><trkpt lat="43.8957063" lon="11.3229827"><ele>603.0</ele><time>2026-04-24T14:52:07.654Z</time></trkpt><trkpt lat="43.8956281" lon="11.3230288"><ele>603.0</ele><time>2026-04-24T14:52:08.654Z</time></trkpt><trkpt lat="43.8955487" lon="11.3230752"><ele>605.6</ele><time>2026-04-24T14:52:09.654Z</time></trkpt><trkpt lat="43.8954662" lon="11.3231241"><ele>608.1999999999999</ele><time>2026-04-24T14:52:10.653Z</time></trkpt><trkpt lat="43.8953851" lon="11.3231738"><ele>610.8</ele><time>2026-04-24T14:52:11.654Z</time></trkpt><trkpt lat="43.8953042" lon="11.3232249"><ele>613.4</ele><time>2026-04-24T14:52:12.654Z</time></trkpt><trkpt lat="43.8952218" lon="11.3232808"><ele>616.0</ele><time>2026-04-24T14:52:13.654Z</time></trkpt><trkpt lat="43.8951333" lon="11.3233296"><ele>614.8333333333334</ele><time>2026-04-24T14:52:14.654Z</time></trkpt><trkpt lat="43.8950461" lon="11.3233821"><ele>613.6666666666667</ele><time>2026-04-24T14:52:15.654Z</time></trkpt><trkpt lat="43.8949695" lon="11.3234337"><ele>612.5</ele><time>2026-04-24T14:52:16.654Z</time></trkpt><trkpt lat="43.8949134" lon="11.3234985"><ele>611.3333333333334</ele><time>2026-04-24T14:52:17.654Z</time></trkpt><trkpt lat="43.8948901" lon="11.3235935"><ele>610.1666666666666</ele><time>2026-04-24T14:52:18.654Z</time></trkpt><trkpt lat="43.8949121" lon="11.3236821"><ele>609.0</ele><time>2026-04-24T14:52:19.654Z</time></trkpt><trkpt lat="43.8949868" lon="11.3238117"><ele>610.1666666666666</ele><time>2026-04-24T14:52:21.654Z</time></trkpt><trkpt lat="43.8951148" lon="11.3238482"><ele>611.3333333333334</ele><time>2026-04-24T14:52:23.654Z</time></trkpt><trkpt lat="43.8951913" lon="11.3238445"><ele>612.5</ele><time>2026-04-24T14:52:24.654Z</time></trkpt><trkpt lat="43.8952663" lon="11.3238277"><ele>613.6666666666667</ele><time>2026-04-24T14:52:25.653Z</time></trkpt><trkpt lat="43.8953453" lon="11.3238045"><ele>614.8333333333334</ele><time>2026-04-24T14:52:26.654Z</time></trkpt><trkpt lat="43.8954256" lon="11.3237783"><ele>616.0</ele><time>2026-04-24T14:52:27.654Z</time></trkpt><trkpt lat="43.8955105" lon="11.3237527"><ele>616.0</ele><time>2026-04-24T14:52:28.654Z</time></trkpt><trkpt lat="43.8955954" lon="11.3237306"><ele>616.0</ele><time>2026-04-24T14:52:29.653Z</time></trkpt><trkpt lat="43.8956821" lon="11.3237063"><ele>616.0</ele><time>2026-04-24T14:52:30.654Z</time></trkpt><trkpt lat="43.8957694" lon="11.3236746"><ele>616.0</ele><time>2026-04-24T14:52:31.654Z</time></trkpt><trkpt lat="43.895859" lon="11.3236413"><ele>616.0</ele><time>2026-04-24T14:52:32.654Z</time></trkpt><trkpt lat="43.8959504" lon="11.3236103"><ele>618.0</ele><time>2026-04-24T14:52:33.654Z</time></trkpt><trkpt lat="43.8960429" lon="11.3235889"><ele>620.0</ele><time>2026-04-24T14:52:34.653Z</time></trkpt><trkpt lat="43.896136" lon="11.3235726"><ele>622.0</ele><time>2026-04-24T14:52:35.654Z</time></trkpt><trkpt lat="43.8962304" lon="11.3235654"><ele>624.0</ele><time>2026-04-24T14:52:36.654Z</time></trkpt><trkpt lat="43.896325" lon="11.3235787"><ele>626.0</ele><time>2026-04-24T14:52:37.654Z</time></trkpt><trkpt lat="43.8964029" lon="11.3236125"><ele>626.0</ele><time>2026-04-24T14:52:38.654Z</time></trkpt><trkpt lat="43.8965049" lon="11.323695"><ele>626.0</ele><time>2026-04-24T14:52:40.654Z</time></trkpt><trkpt lat="43.8965769" lon="11.3237034"><ele>626.0</ele><time>2026-04-24T14:52:41.653Z</time></trkpt><trkpt lat="43.8966524" lon="11.3237088"><ele>626.0</ele><time>2026-04-24T14:52:42.653Z</time></trkpt><trkpt lat="43.8967259" lon="11.3237264"><ele>626.0</ele><time>2026-04-24T14:52:43.654Z</time></trkpt><trkpt lat="43.896803" lon="11.3237681"><ele>626.0</ele><time>2026-04-24T14:52:44.654Z</time></trkpt><trkpt lat="43.8968725" lon="11.3238258"><ele>627.8333333333333</ele><time>2026-04-24T14:52:45.654Z</time></trkpt><trkpt lat="43.8969428" lon="11.32389"><ele>629.6666666666666</ele><time>2026-04-24T14:52:46.654Z</time></trkpt><trkpt lat="43.8970047" lon="11.3239597"><ele>631.5</ele><time>2026-04-24T14:52:47.653Z</time></trkpt><trkpt lat="43.8970822" lon="11.3240301"><ele>633.3333333333334</ele><time>2026-04-24T14:52:48.654Z</time></trkpt><trkpt lat="43.8971473" lon="11.3240933"><ele>635.1666666666667</ele><time>2026-04-24T14:52:49.654Z</time></trkpt><trkpt lat="43.8972251" lon="11.3241596"><ele>637.0</ele><time>2026-04-24T14:52:50.654Z</time></trkpt><trkpt lat="43.8972863" lon="11.3243023"><ele>638.8333333333334</ele><time>2026-04-24T14:52:52.654Z</time></trkpt><trkpt lat="43.8973165" lon="11.3244021"><ele>640.6666666666667</ele><time>2026-04-24T14:52:53.654Z</time></trkpt><trkpt lat="43.8972792" lon="11.3245303"><ele>642.5</ele><time>2026-04-24T14:52:54.653Z</time></trkpt><trkpt lat="43.8972452" lon="11.324642"><ele>644.3333333333334</ele><time>2026-04-24T14:52:55.653Z</time></trkpt><trkpt lat="43.8972027" lon="11.3247493"><ele>646.1666666666666</ele><time>2026-04-24T14:52:56.654Z</time></trkpt><trkpt lat="43.8971751" lon="11.3248511"><ele>648.0</ele><time>2026-04-24T14:52:57.654Z</time></trkpt><trkpt lat="43.8971389" lon="11.3249646"><ele>649.6666666666666</ele><time>2026-04-24T14:52:58.654Z</time></trkpt><trkpt lat="43.8971139" lon="11.3250808"><ele>651.3333333333334</ele><time>2026-04-24T14:52:59.653Z</time></trkpt><trkpt lat="43.8970948" lon="11.3251913"><ele>653.0</ele><time>2026-04-24T14:53:00.654Z</time></trkpt><trkpt lat="43.8970895" lon="11.3253082"><ele>654.6666666666667</ele><time>2026-04-24T14:53:01.654Z</time></trkpt><trkpt lat="43.8970917" lon="11.3254265"><ele>656.3333333333334</ele><time>2026-04-24T14:53:02.654Z</time></trkpt><trkpt lat="43.8970928" lon="11.3255405"><ele>658.0</ele><time>2026-04-24T14:53:03.653Z</time></trkpt><trkpt lat="43.89709" lon="11.3256602"><ele>659.3333333333334</ele><time>2026-04-24T14:53:04.654Z</time></trkpt><trkpt lat="43.8970838" lon="11.3257607"><ele>660.6666666666667</ele><time>2026-04-24T14:53:05.653Z</time></trkpt><trkpt lat="43.8970702" lon="11.325856"><ele>662.0</ele><time>2026-04-24T14:53:06.654Z</time></trkpt><trkpt lat="43.8970343" lon="11.3259361"><ele>663.3333333333334</ele><time>2026-04-24T14:53:07.654Z</time></trkpt><trkpt lat="43.8970005" lon="11.3260222"><ele>664.6666666666666</ele><time>2026-04-24T14:53:08.654Z</time></trkpt><trkpt lat="43.8969706" lon="11.3261721"><ele>666.0</ele><time>2026-04-24T14:53:10.654Z</time></trkpt><trkpt lat="43.8969718" lon="11.3263266"><ele>668.25</ele><time>2026-04-24T14:53:12.654Z</time></trkpt><trkpt lat="43.896983" lon="11.3264886"><ele>670.5</ele><time>2026-04-24T14:53:14.653Z</time></trkpt><trkpt lat="43.8969932" lon="11.3266762"><ele>672.75</ele><time>2026-04-24T14:53:16.653Z</time></trkpt><trkpt lat="43.8969933" lon="11.3268079"><ele>675.0</ele><time>2026-04-24T14:53:17.654Z</time></trkpt><trkpt lat="43.8969572" lon="11.3269803"><ele>675.0</ele><time>2026-04-24T14:53:19.653Z</time></trkpt><trkpt lat="43.8969176" lon="11.3270592"><ele>675.0</ele><time>2026-04-24T14:53:20.654Z</time></trkpt><trkpt lat="43.8968871" lon="11.3272017"><ele>675.0</ele><time>2026-04-24T14:53:22.653Z</time></trkpt><trkpt lat="43.8969401" lon="11.3273457"><ele>675.0</ele><time>2026-04-24T14:53:24.654Z</time></trkpt><trkpt lat="43.8969914" lon="11.3274063"><ele>675.0</ele><time>2026-04-24T14:53:25.654Z</time></trkpt><trkpt lat="43.8970581" lon="11.3274803"><ele>675.0</ele><time>2026-04-24T14:53:27.654Z</time></trkpt><trkpt lat="43.8970331" lon="11.3275903"><ele>676.6</ele><time>2026-04-24T14:54:10.654Z</time></trkpt><trkpt lat="43.8969758" lon="11.3276283"><ele>678.2</ele><time>2026-04-24T14:54:11.654Z</time></trkpt><trkpt lat="43.8968897" lon="11.3277062"><ele>679.8</ele><time>2026-04-24T14:54:13.653Z</time></trkpt><trkpt lat="43.896801" lon="11.3278137"><ele>681.4</ele><time>2026-04-24T14:54:15.654Z</time></trkpt><trkpt lat="43.8967355" lon="11.3278872"><ele>683.0</ele><time>2026-04-24T14:54:17.653Z</time></trkpt><trkpt lat="43.8966905" lon="11.3279834"><ele>683.0</ele><time>2026-04-24T14:54:19.653Z</time></trkpt><trkpt lat="43.8967337" lon="11.3280497"><ele>683.0</ele><time>2026-04-24T14:54:21.653Z</time></trkpt><trkpt lat="43.8969285" lon="11.3280806"><ele>683.0</ele><time>2026-04-24T14:54:23.654Z</time></trkpt><trkpt lat="43.8970236" lon="11.3281229"><ele>683.0</ele><time>2026-04-24T14:54:24.654Z</time></trkpt><trkpt lat="43.8971709" lon="11.3281633"><ele>686.5</ele><time>2026-04-24T14:54:25.653Z</time></trkpt><trkpt lat="43.8972643" lon="11.3282137"><ele>690.0</ele><time>2026-04-24T14:54:26.654Z</time></trkpt><trkpt lat="43.8973547" lon="11.3282515"><ele>693.5</ele><time>2026-04-24T14:54:27.654Z</time></trkpt><trkpt lat="43.8973985" lon="11.3283291"><ele>697.0</ele><time>2026-04-24T14:54:28.653Z</time></trkpt><trkpt lat="43.8974728" lon="11.3283844"><ele>700.5</ele><time>2026-04-24T14:54:29.654Z</time></trkpt><trkpt lat="43.8975416" lon="11.328462"><ele>704.0</ele><time>2026-04-24T14:54:30.654Z</time></trkpt><trkpt lat="43.897603" lon="11.328508"><ele>707.1666666666666</ele><time>2026-04-24T14:54:31.654Z</time></trkpt><trkpt lat="43.8976655" lon="11.3285209"><ele>710.3333333333333</ele><time>2026-04-24T14:54:32.654Z</time></trkpt><trkpt lat="43.8977306" lon="11.3285526"><ele>713.5</ele><time>2026-04-24T14:54:33.654Z</time></trkpt><trkpt lat="43.8977975" lon="11.328478"><ele>716.6666666666666</ele><time>2026-04-24T14:54:34.654Z</time></trkpt><trkpt lat="43.8978721" lon="11.3284362"><ele>719.8333333333334</ele><time>2026-04-24T14:54:35.654Z</time></trkpt><trkpt lat="43.8979443" lon="11.3283913"><ele>723.0</ele><time>2026-04-24T14:54:36.654Z</time></trkpt><trkpt lat="43.8980084" lon="11.3283444"><ele>723.0000000000001</ele><time>2026-04-24T14:54:37.654Z</time></trkpt><trkpt lat="43.8980651" lon="11.328288"><ele>723.0</ele><time>2026-04-24T14:54:38.654Z</time></trkpt><trkpt lat="43.8981244" lon="11.3282365"><ele>723.0</ele><time>2026-04-24T14:54:39.654Z</time></trkpt><trkpt lat="43.898184" lon="11.3281885"><ele>723.0</ele><time>2026-04-24T14:54:40.653Z</time></trkpt><trkpt lat="43.8982436" lon="11.3281361"><ele>723.0</ele><time>2026-04-24T14:54:41.654Z</time></trkpt><trkpt lat="43.8982877" lon="11.3280623"><ele>723.0000000000001</ele><time>2026-04-24T14:54:42.654Z</time></trkpt><trkpt lat="43.8983226" lon="11.3279756"><ele>723.0</ele><time>2026-04-24T14:54:43.654Z</time></trkpt><trkpt lat="43.8983605" lon="11.3278874"><ele>725.2</ele><time>2026-04-24T14:54:44.654Z</time></trkpt><trkpt lat="43.8984419" lon="11.3277589"><ele>727.4</ele><time>2026-04-24T14:54:46.654Z</time></trkpt><trkpt lat="43.8985473" lon="11.3277491"><ele>729.6</ele><time>2026-04-24T14:54:48.654Z</time></trkpt><trkpt lat="43.8986596" lon="11.3277144"><ele>731.8000000000001</ele><time>2026-04-24T14:54:50.654Z</time></trkpt><trkpt lat="43.8987428" lon="11.3276738"><ele>734.0</ele><time>2026-04-24T14:54:52.654Z</time></trkpt><trkpt lat="43.8988564" lon="11.327643"><ele>734.0</ele><time>2026-04-24T14:54:54.654Z</time></trkpt><trkpt lat="43.8989566" lon="11.3276155"><ele>734.0</ele><time>2026-04-24T14:54:56.654Z</time></trkpt><trkpt lat="43.89908" lon="11.3276513"><ele>734.0</ele><time>2026-04-24T14:54:58.653Z</time></trkpt><trkpt lat="43.8991976" lon="11.3277007"><ele>734.0</ele><time>2026-04-24T14:55:00.653Z</time></trkpt><trkpt lat="43.8992716" lon="11.3277109"><ele>734.0</ele><time>2026-04-24T14:55:01.654Z</time></trkpt><trkpt lat="43.8993391" lon="11.3277192"><ele>738.6</ele><time>2026-04-24T14:55:02.654Z</time></trkpt><trkpt lat="43.8994404" lon="11.327689"><ele>743.2</ele><time>2026-04-24T14:55:04.654Z</time></trkpt><trkpt lat="43.8995029" lon="11.3276106"><ele>747.8000000000001</ele><time>2026-04-24T14:55:06.654Z</time></trkpt><trkpt lat="43.8995869" lon="11.3275141"><ele>752.4000000000001</ele><time>2026-04-24T14:55:08.654Z</time></trkpt><trkpt lat="43.8997044" lon="11.3275031"><ele>757.0</ele><time>2026-04-24T14:55:10.654Z</time></trkpt><trkpt lat="43.8997945" lon="11.327491"><ele>757.0</ele><time>2026-04-24T14:55:11.654Z</time></trkpt><trkpt lat="43.8998734" lon="11.3275032"><ele>757.0</ele><time>2026-04-24T14:55:12.654Z</time></trkpt><trkpt lat="43.8999495" lon="11.3275202"><ele>757.0</ele><time>2026-04-24T14:55:13.654Z</time></trkpt><trkpt lat="43.9000306" lon="11.3275256"><ele>757.0</ele><time>2026-04-24T14:55:14.654Z</time></trkpt><trkpt lat="43.9001027" lon="11.3275402"><ele>757.0</ele><time>2026-04-24T14:55:15.654Z</time></trkpt><trkpt lat="43.90018" lon="11.3275566"><ele>757.0</ele><time>2026-04-24T14:55:16.654Z</time></trkpt><trkpt lat="43.9002494" lon="11.3275505"><ele>760.3333333333334</ele><time>2026-04-24T14:55:17.654Z</time></trkpt><trkpt lat="43.9003617" lon="11.3275428"><ele>763.6666666666667</ele><time>2026-04-24T14:55:19.654Z</time></trkpt><trkpt lat="43.9004451" lon="11.3275588"><ele>767.0</ele><time>2026-04-24T14:55:21.654Z</time></trkpt><trkpt lat="43.9005105" lon="11.3275523"><ele>770.3333333333334</ele><time>2026-04-24T14:55:32.654Z</time></trkpt><trkpt lat="43.900575" lon="11.3275429"><ele>773.6666666666666</ele><time>2026-04-24T14:55:41.654Z</time></trkpt><trkpt lat="43.9006575" lon="11.3275449"><ele>777.0</ele><time>2026-04-24T14:55:44.654Z</time></trkpt><trkpt lat="43.9006981" lon="11.3276283"><ele>777.0</ele><time>2026-04-24T14:56:36.654Z</time></trkpt><trkpt lat="43.9006181" lon="11.3278534"><ele>777.0</ele><time>2026-04-24T14:56:39.654Z</time></trkpt><trkpt lat="43.9004973" lon="11.3279368"><ele>777.0</ele><time>2026-04-24T14:56:40.654Z</time></trkpt><trkpt lat="43.9004047" lon="11.3281043"><ele>774.75</ele><time>2026-04-24T14:56:41.654Z</time></trkpt><trkpt lat="43.9003329" lon="11.3282589"><ele>772.5</ele><time>2026-04-24T14:56:42.654Z</time></trkpt><trkpt lat="43.900226" lon="11.328378"><ele>770.25</ele><time>2026-04-24T14:56:43.653Z</time></trkpt><trkpt lat="43.9001374" lon="11.3284898"><ele>768.0</ele><time>2026-04-24T14:56:44.654Z</time></trkpt><trkpt lat="43.900083" lon="11.3286362"><ele>768.0</ele><time>2026-04-24T14:56:45.654Z</time></trkpt><trkpt lat="43.900024" lon="11.3287474"><ele>768.0</ele><time>2026-04-24T14:56:46.654Z</time></trkpt><trkpt lat="43.899972" lon="11.3288232"><ele>768.0</ele><time>2026-04-24T14:56:47.653Z</time></trkpt><trkpt lat="43.8999324" lon="11.3288929"><ele>768.0</ele><time>2026-04-24T14:56:48.654Z</time></trkpt><trkpt lat="43.899871" lon="11.3289664"><ele>768.0</ele><time>2026-04-24T14:56:49.654Z</time></trkpt><trkpt lat="43.8998362" lon="11.3290442"><ele>768.0</ele><time>2026-04-24T14:56:50.654Z</time></trkpt><trkpt lat="43.8998038" lon="11.3291481"><ele>769.8571428571428</ele><time>2026-04-24T14:56:51.654Z</time></trkpt><trkpt lat="43.8998037" lon="11.3292684"><ele>771.7142857142857</ele><time>2026-04-24T14:56:52.654Z</time></trkpt><trkpt lat="43.8997583" lon="11.3293529"><ele>773.5714285714286</ele><time>2026-04-24T14:56:53.654Z</time></trkpt><trkpt lat="43.8997032" lon="11.3294114"><ele>775.4285714285713</ele><time>2026-04-24T14:56:54.654Z</time></trkpt><trkpt lat="43.8996374" lon="11.3294617"><ele>777.2857142857143</ele><time>2026-04-24T14:56:55.654Z</time></trkpt><trkpt lat="43.8995835" lon="11.3295121"><ele>779.1428571428571</ele><time>2026-04-24T14:56:56.654Z</time></trkpt><trkpt lat="43.8995439" lon="11.3295824"><ele>781.0</ele><time>2026-04-24T14:56:57.654Z</time></trkpt><trkpt lat="43.8995154" lon="11.3296623"><ele>781.4999999999999</ele><time>2026-04-24T14:56:58.653Z</time></trkpt><trkpt lat="43.8994879" lon="11.3297534"><ele>782.0</ele><time>2026-04-24T14:56:59.654Z</time></trkpt><trkpt lat="43.8994596" lon="11.3298423"><ele>782.5</ele><time>2026-04-24T14:57:00.654Z</time></trkpt><trkpt lat="43.8994227" lon="11.3299211"><ele>783.0</ele><time>2026-04-24T14:57:01.654Z</time></trkpt><trkpt lat="43.899367" lon="11.3300625"><ele>783.4999999999999</ele><time>2026-04-24T14:57:03.653Z</time></trkpt><trkpt lat="43.8993392" lon="11.3302044"><ele>784.0</ele><time>2026-04-24T14:57:05.654Z</time></trkpt><trkpt lat="43.8992985" lon="11.3303074"><ele>783.9999999999999</ele><time>2026-04-24T14:57:14.654Z</time></trkpt><trkpt lat="43.8992556" lon="11.3303922"><ele>784.0</ele><time>2026-04-24T14:57:16.654Z</time></trkpt><trkpt lat="43.89922" lon="11.3304711"><ele>784.0</ele><time>2026-04-24T14:57:18.653Z</time></trkpt><trkpt lat="43.8991825" lon="11.3305553"><ele>784.0</ele><time>2026-04-24T14:57:20.654Z</time></trkpt><trkpt lat="43.8991407" lon="11.3306541"><ele>783.9999999999999</ele><time>2026-04-24T14:57:22.654Z</time></trkpt><trkpt lat="43.8990814" lon="11.330798"><ele>784.0</ele><time>2026-04-24T14:57:24.654Z</time></trkpt><trkpt lat="43.8990244" lon="11.3309256"><ele>782.3333333333333</ele><time>2026-04-24T14:57:26.652Z</time></trkpt><trkpt lat="43.8989489" lon="11.3310263"><ele>780.6666666666666</ele><time>2026-04-24T14:57:28.654Z</time></trkpt><trkpt lat="43.8988756" lon="11.3310975"><ele>779.0</ele><time>2026-04-24T14:57:30.654Z</time></trkpt><trkpt lat="43.8988001" lon="11.3311685"><ele>777.3333333333333</ele><time>2026-04-24T14:57:33.654Z</time></trkpt><trkpt lat="43.8987691" lon="11.3312633"><ele>775.6666666666666</ele><time>2026-04-24T14:57:39.653Z</time></trkpt><trkpt lat="43.8986995" lon="11.3312547"><ele>774.0</ele><time>2026-04-24T14:58:01.654Z</time></trkpt><trkpt lat="43.8986134" lon="11.3313134"><ele>774.0</ele><time>2026-04-24T14:58:04.654Z</time></trkpt><trkpt lat="43.8985189" lon="11.3313685"><ele>774.0</ele><time>2026-04-24T14:58:06.653Z</time></trkpt><trkpt lat="43.8984028" lon="11.3314065"><ele>774.0</ele><time>2026-04-24T14:58:08.654Z</time></trkpt><trkpt lat="43.8983095" lon="11.3314524"><ele>774.0</ele><time>2026-04-24T14:58:10.654Z</time></trkpt><trkpt lat="43.8982487" lon="11.3314845"><ele>774.0</ele><time>2026-04-24T14:58:11.653Z</time></trkpt><trkpt lat="43.8981853" lon="11.3315256"><ele>776.0</ele><time>2026-04-24T14:58:12.653Z</time></trkpt><trkpt lat="43.8980921" lon="11.3316163"><ele>778.0</ele><time>2026-04-24T14:58:14.654Z</time></trkpt><trkpt lat="43.8980119" lon="11.3317092"><ele>780.0</ele><time>2026-04-24T14:58:16.654Z</time></trkpt><trkpt lat="43.8979513" lon="11.3317584"><ele>782.0</ele><time>2026-04-24T14:58:17.654Z</time></trkpt><trkpt lat="43.8978816" lon="11.3318156"><ele>784.0</ele><time>2026-04-24T14:58:18.654Z</time></trkpt><trkpt lat="43.8978151" lon="11.3318686"><ele>786.0</ele><time>2026-04-24T14:58:19.654Z</time></trkpt><trkpt lat="43.8977489" lon="11.3319251"><ele>786.0</ele><time>2026-04-24T14:58:20.654Z</time></trkpt><trkpt lat="43.897669" lon="11.3319767"><ele>786.0</ele><time>2026-04-24T14:58:21.654Z</time></trkpt><trkpt lat="43.8976054" lon="11.3320152"><ele>786.0</ele><time>2026-04-24T14:58:22.654Z</time></trkpt><trkpt lat="43.897477" lon="11.332092"><ele>786.0</ele><time>2026-04-24T14:58:24.653Z</time></trkpt><trkpt lat="43.8973462" lon="11.3321779"><ele>786.0</ele><time>2026-04-24T14:58:26.654Z</time></trkpt><trkpt lat="43.89729" lon="11.332225"><ele>786.6666666666666</ele><time>2026-04-24T14:58:27.654Z</time></trkpt><trkpt lat="43.8972216" lon="11.3322761"><ele>787.3333333333333</ele><time>2026-04-24T14:58:28.654Z</time></trkpt><trkpt lat="43.8971588" lon="11.3323237"><ele>788.0</ele><time>2026-04-24T14:58:29.654Z</time></trkpt><trkpt lat="43.8970945" lon="11.3323727"><ele>788.6666666666666</ele><time>2026-04-24T14:58:30.654Z</time></trkpt><trkpt lat="43.8970294" lon="11.3324177"><ele>789.3333333333333</ele><time>2026-04-24T14:58:31.653Z</time></trkpt><trkpt lat="43.8969024" lon="11.3324966"><ele>790.0</ele><time>2026-04-24T14:58:33.654Z</time></trkpt><trkpt lat="43.8968317" lon="11.332553"><ele>789.9999999999999</ele><time>2026-04-24T14:58:34.654Z</time></trkpt><trkpt lat="43.8967652" lon="11.3325976"><ele>790.0</ele><time>2026-04-24T14:58:35.654Z</time></trkpt><trkpt lat="43.8967039" lon="11.3326477"><ele>790.0</ele><time>2026-04-24T14:58:36.654Z</time></trkpt><trkpt lat="43.8966428" lon="11.3326893"><ele>790.0</ele><time>2026-04-24T14:58:37.654Z</time></trkpt><trkpt lat="43.8965804" lon="11.3327255"><ele>789.9999999999999</ele><time>2026-04-24T14:58:38.654Z</time></trkpt><trkpt lat="43.8965183" lon="11.3327618"><ele>790.0</ele><time>2026-04-24T14:58:39.653Z</time></trkpt><trkpt lat="43.8964212" lon="11.3328597"><ele>789.9999999999999</ele><time>2026-04-24T14:58:41.654Z</time></trkpt><trkpt lat="43.896365" lon="11.3329049"><ele>790.0</ele><time>2026-04-24T14:58:42.654Z</time></trkpt><trkpt lat="43.8963067" lon="11.3329417"><ele>790.0</ele><time>2026-04-24T14:58:43.653Z</time></trkpt><trkpt lat="43.8962057" lon="11.3330272"><ele>790.0</ele><time>2026-04-24T14:58:45.654Z</time></trkpt><trkpt lat="43.8961282" lon="11.3331008"><ele>789.9999999999999</ele><time>2026-04-24T14:58:47.654Z</time></trkpt><trkpt lat="43.8960418" lon="11.3331516"><ele>790.0</ele><time>2026-04-24T14:58:49.654Z</time></trkpt><trkpt lat="43.8959601" lon="11.3331875"><ele>791.3333333333333</ele><time>2026-04-24T14:58:51.654Z</time></trkpt><trkpt lat="43.8958733" lon="11.3332102"><ele>792.6666666666666</ele><time>2026-04-24T14:58:53.654Z</time></trkpt><trkpt lat="43.89579" lon="11.3332289"><ele>794.0</ele><time>2026-04-24T14:58:55.654Z</time></trkpt><trkpt lat="43.8957194" lon="11.3332168"><ele>795.3333333333333</ele><time>2026-04-24T14:58:57.654Z</time></trkpt><trkpt lat="43.8956662" lon="11.3331624"><ele>796.6666666666666</ele><time>2026-04-24T14:59:00.653Z</time></trkpt><trkpt lat="43.8956011" lon="11.3330995"><ele>798.0</ele><time>2026-04-24T14:59:03.654Z</time></trkpt><trkpt lat="43.8955462" lon="11.3330476"><ele>798.0</ele><time>2026-04-24T14:59:05.654Z</time></trkpt><trkpt lat="43.8954821" lon="11.3329902"><ele>798.0</ele><time>2026-04-24T14:59:07.653Z</time></trkpt><trkpt lat="43.8953864" lon="11.3329271"><ele>798.0</ele><time>2026-04-24T14:59:09.653Z</time></trkpt><trkpt lat="43.8952944" lon="11.3328543"><ele>798.0</ele><time>2026-04-24T14:59:11.653Z</time></trkpt><trkpt lat="43.895194" lon="11.3327728"><ele>798.0</ele><time>2026-04-24T14:59:13.654Z</time></trkpt><trkpt lat="43.8950988" lon="11.3327101"><ele>796.8</ele><time>2026-04-24T14:59:15.654Z</time></trkpt><trkpt lat="43.8950132" lon="11.3326732"><ele>795.5999999999999</ele><time>2026-04-24T14:59:18.654Z</time></trkpt><trkpt lat="43.8949198" lon="11.3326593"><ele>794.4000000000001</ele><time>2026-04-24T14:59:20.654Z</time></trkpt><trkpt lat="43.8948146" lon="11.3326843"><ele>793.2</ele><time>2026-04-24T14:59:22.654Z</time></trkpt><trkpt lat="43.8947551" lon="11.3327399"><ele>792.0</ele><time>2026-04-24T14:59:24.654Z</time></trkpt><trkpt lat="43.8947432" lon="11.3325164"><ele>792.0</ele><time>2026-04-24T15:00:08.654Z</time></trkpt><trkpt lat="43.8947042" lon="11.3324345"><ele>792.0</ele><time>2026-04-24T15:00:10.654Z</time></trkpt><trkpt lat="43.8946951" lon="11.3323399"><ele>792.0</ele><time>2026-04-24T15:00:12.654Z</time></trkpt><trkpt lat="43.8946372" lon="11.3322958"><ele>792.0</ele><time>2026-04-24T15:00:30.654Z</time></trkpt><trkpt lat="43.8945629" lon="11.3323185"><ele>792.0</ele><time>2026-04-24T15:00:32.653Z</time></trkpt><trkpt lat="43.8944406" lon="11.3323971"><ele>792.0</ele><time>2026-04-24T15:00:34.654Z</time></trkpt><trkpt lat="43.8943365" lon="11.3324835"><ele>788.2</ele><time>2026-04-24T15:00:36.654Z</time></trkpt><trkpt lat="43.894247" lon="11.3326095"><ele>784.4000000000001</ele><time>2026-04-24T15:00:38.654Z</time></trkpt><trkpt lat="43.8941434" lon="11.3326603"><ele>780.5999999999999</ele><time>2026-04-24T15:00:39.654Z</time></trkpt><trkpt lat="43.8940826" lon="11.3327044"><ele>776.8</ele><time>2026-04-24T15:00:40.654Z</time></trkpt><trkpt lat="43.894054" lon="11.3328089"><ele>773.0</ele><time>2026-04-24T15:00:41.654Z</time></trkpt><trkpt lat="43.8939984" lon="11.3328724"><ele>773.0000000000001</ele><time>2026-04-24T15:00:42.654Z</time></trkpt><trkpt lat="43.8939575" lon="11.3329696"><ele>773.0</ele><time>2026-04-24T15:00:43.654Z</time></trkpt><trkpt lat="43.8939104" lon="11.3330483"><ele>773.0</ele><time>2026-04-24T15:00:44.654Z</time></trkpt><trkpt lat="43.8938539" lon="11.3331"><ele>773.0</ele><time>2026-04-24T15:00:45.654Z</time></trkpt><trkpt lat="43.893747" lon="11.3332119"><ele>773.0000000000001</ele><time>2026-04-24T15:00:47.653Z</time></trkpt><trkpt lat="43.8936972" lon="11.3332815"><ele>773.0</ele><time>2026-04-24T15:00:48.654Z</time></trkpt><trkpt lat="43.8936315" lon="11.3333586"><ele>774.1666666666667</ele><time>2026-04-24T15:00:49.654Z</time></trkpt><trkpt lat="43.8935823" lon="11.3334207"><ele>775.3333333333334</ele><time>2026-04-24T15:00:50.654Z</time></trkpt><trkpt lat="43.8935342" lon="11.3334881"><ele>776.5</ele><time>2026-04-24T15:00:51.654Z</time></trkpt><trkpt lat="43.8934527" lon="11.3335864"><ele>777.6666666666667</ele><time>2026-04-24T15:00:52.654Z</time></trkpt><trkpt lat="43.8933774" lon="11.3336734"><ele>778.8333333333334</ele><time>2026-04-24T15:00:53.653Z</time></trkpt><trkpt lat="43.8933021" lon="11.3337498"><ele>780.0</ele><time>2026-04-24T15:00:54.653Z</time></trkpt><trkpt lat="43.8932404" lon="11.3338067"><ele>776.1666666666666</ele><time>2026-04-24T15:00:55.654Z</time></trkpt><trkpt lat="43.8931471" lon="11.3338749"><ele>772.3333333333334</ele><time>2026-04-24T15:00:57.654Z</time></trkpt><trkpt lat="43.8930808" lon="11.333857"><ele>768.5</ele><time>2026-04-24T15:01:00.654Z</time></trkpt><trkpt lat="43.8930178" lon="11.3338433"><ele>764.6666666666667</ele><time>2026-04-24T15:01:02.654Z</time></trkpt><trkpt lat="43.8929512" lon="11.333811"><ele>760.8333333333334</ele><time>2026-04-24T15:01:05.654Z</time></trkpt><trkpt lat="43.8928864" lon="11.3338288"><ele>757.0</ele><time>2026-04-24T15:01:10.654Z</time></trkpt><trkpt lat="43.8927855" lon="11.3338273"><ele>757.0</ele><time>2026-04-24T15:01:14.654Z</time></trkpt><trkpt lat="43.8927083" lon="11.3338082"><ele>757.0</ele><time>2026-04-24T15:01:17.654Z</time></trkpt><trkpt lat="43.8926204" lon="11.3337874"><ele>757.0</ele><time>2026-04-24T15:01:20.654Z</time></trkpt><trkpt lat="43.8925264" lon="11.3337584"><ele>757.0</ele><time>2026-04-24T15:01:23.654Z</time></trkpt><trkpt lat="43.8924573" lon="11.3336962"><ele>757.0</ele><time>2026-04-24T15:01:25.654Z</time></trkpt><trkpt lat="43.8923861" lon="11.3336541"><ele>757.0</ele><time>2026-04-24T15:01:27.652Z</time></trkpt><trkpt lat="43.8922758" lon="11.3336174"><ele>755.4000000000001</ele><time>2026-04-24T15:01:29.654Z</time></trkpt><trkpt lat="43.8921343" lon="11.3335937"><ele>753.8000000000001</ele><time>2026-04-24T15:01:30.654Z</time></trkpt><trkpt lat="43.8920606" lon="11.3335726"><ele>752.2</ele><time>2026-04-24T15:01:31.654Z</time></trkpt><trkpt lat="43.8919855" lon="11.3335499"><ele>750.6</ele><time>2026-04-24T15:01:32.654Z</time></trkpt><trkpt lat="43.8918484" lon="11.3335042"><ele>749.0</ele><time>2026-04-24T15:01:33.654Z</time></trkpt><trkpt lat="43.8917757" lon="11.3334747"><ele>747.2</ele><time>2026-04-24T15:01:34.654Z</time></trkpt><trkpt lat="43.8917085" lon="11.3334519"><ele>745.4000000000001</ele><time>2026-04-24T15:01:35.654Z</time></trkpt><trkpt lat="43.8916019" lon="11.333415"><ele>743.6</ele><time>2026-04-24T15:01:37.654Z</time></trkpt><trkpt lat="43.8914878" lon="11.3333756"><ele>741.8</ele><time>2026-04-24T15:01:39.654Z</time></trkpt><trkpt lat="43.891364" lon="11.333326"><ele>740.0</ele><time>2026-04-24T15:01:41.653Z</time></trkpt><trkpt lat="43.8912961" lon="11.3332745"><ele>740.0</ele><time>2026-04-24T15:01:42.654Z</time></trkpt><trkpt lat="43.8912339" lon="11.333251"><ele>740.0</ele><time>2026-04-24T15:01:43.654Z</time></trkpt><trkpt lat="43.8910975" lon="11.3331888"><ele>740.0</ele><time>2026-04-24T15:01:45.654Z</time></trkpt><trkpt lat="43.8910265" lon="11.3331537"><ele>740.0</ele><time>2026-04-24T15:01:46.653Z</time></trkpt><trkpt lat="43.8909663" lon="11.3331241"><ele>740.0</ele><time>2026-04-24T15:01:47.653Z</time></trkpt><trkpt lat="43.8908986" lon="11.333092"><ele>740.0</ele><time>2026-04-24T15:01:48.653Z</time></trkpt><trkpt lat="43.8908254" lon="11.3330688"><ele>738.7142857142857</ele><time>2026-04-24T15:01:49.654Z</time></trkpt><trkpt lat="43.8907433" lon="11.3330909"><ele>737.4285714285714</ele><time>2026-04-24T15:01:50.654Z</time></trkpt><trkpt lat="43.8906826" lon="11.3331163"><ele>736.1428571428571</ele><time>2026-04-24T15:01:51.653Z</time></trkpt><trkpt lat="43.890612" lon="11.3331074"><ele>734.8571428571429</ele><time>2026-04-24T15:01:52.654Z</time></trkpt><trkpt lat="43.8905868" lon="11.3332113"><ele>733.5714285714286</ele><time>2026-04-24T15:01:55.653Z</time></trkpt><trkpt lat="43.8905239" lon="11.3332547"><ele>732.2857142857142</ele><time>2026-04-24T15:01:58.654Z</time></trkpt><trkpt lat="43.8904772" lon="11.333327"><ele>731.0</ele><time>2026-04-24T15:01:59.654Z</time></trkpt><trkpt lat="43.8904392" lon="11.3334208"><ele>731.0</ele><time>2026-04-24T15:02:03.654Z</time></trkpt><trkpt lat="43.8904243" lon="11.3335446"><ele>731.0</ele><time>2026-04-24T15:02:05.654Z</time></trkpt><trkpt lat="43.8904084" lon="11.3336352"><ele>731.0</ele><time>2026-04-24T15:02:06.654Z</time></trkpt><trkpt lat="43.8904206" lon="11.3337586"><ele>731.0</ele><time>2026-04-24T15:02:07.654Z</time></trkpt><trkpt lat="43.8904096" lon="11.3338535"><ele>731.0</ele><time>2026-04-24T15:02:08.654Z</time></trkpt><trkpt lat="43.8904005" lon="11.3339966"><ele>731.0</ele><time>2026-04-24T15:02:10.654Z</time></trkpt><trkpt lat="43.8903917" lon="11.3341096"><ele>730.1666666666666</ele><time>2026-04-24T15:02:12.654Z</time></trkpt><trkpt lat="43.8903609" lon="11.3342159"><ele>729.3333333333333</ele><time>2026-04-24T15:02:14.654Z</time></trkpt><trkpt lat="43.8903488" lon="11.3343144"><ele>728.5</ele><time>2026-04-24T15:02:16.653Z</time></trkpt><trkpt lat="43.890365" lon="11.3344317"><ele>727.6666666666666</ele><time>2026-04-24T15:02:18.654Z</time></trkpt><trkpt lat="43.8903623" lon="11.3345408"><ele>726.8333333333334</ele><time>2026-04-24T15:02:20.654Z</time></trkpt><trkpt lat="43.8903528" lon="11.3346319"><ele>726.0</ele><time>2026-04-24T15:02:22.654Z</time></trkpt><trkpt lat="43.8902697" lon="11.33457"><ele>726.0</ele><time>2026-04-24T15:02:27.654Z</time></trkpt><trkpt lat="43.8902451" lon="11.3344799"><ele>726.0</ele><time>2026-04-24T15:02:28.654Z</time></trkpt><trkpt lat="43.8902311" lon="11.3343781"><ele>726.0</ele><time>2026-04-24T15:02:29.654Z</time></trkpt><trkpt lat="43.8902099" lon="11.3342535"><ele>726.0</ele><time>2026-04-24T15:02:31.653Z</time></trkpt><trkpt lat="43.8901779" lon="11.3341291"><ele>726.0</ele><time>2026-04-24T15:02:33.653Z</time></trkpt><trkpt lat="43.8901078" lon="11.3340073"><ele>726.0</ele><time>2026-04-24T15:02:35.654Z</time></trkpt><trkpt lat="43.890055" lon="11.3339519"><ele>722.3333333333334</ele><time>2026-04-24T15:02:36.654Z</time></trkpt><trkpt lat="43.8899832" lon="11.3339284"><ele>718.6666666666666</ele><time>2026-04-24T15:02:46.653Z</time></trkpt><trkpt lat="43.8899132" lon="11.3338359"><ele>715.0</ele><time>2026-04-24T15:02:49.654Z</time></trkpt><trkpt lat="43.8898349" lon="11.3337453"><ele>711.3333333333333</ele><time>2026-04-24T15:02:51.654Z</time></trkpt><trkpt lat="43.8897702" lon="11.3336756"><ele>707.6666666666666</ele><time>2026-04-24T15:02:53.654Z</time></trkpt><trkpt lat="43.8897116" lon="11.3335781"><ele>704.0</ele><time>2026-04-24T15:02:55.654Z</time></trkpt><trkpt lat="43.88965" lon="11.3334857"><ele>704.0</ele><time>2026-04-24T15:02:57.654Z</time></trkpt><trkpt lat="43.8895589" lon="11.3334076"><ele>704.0</ele><time>2026-04-24T15:02:59.654Z</time></trkpt><trkpt lat="43.8894688" lon="11.3333828"><ele>704.0</ele><time>2026-04-24T15:03:00.654Z</time></trkpt><trkpt lat="43.8893521" lon="11.3333522"><ele>704.0</ele><time>2026-04-24T15:03:02.654Z</time></trkpt><trkpt lat="43.8892815" lon="11.3333496"><ele>704.0</ele><time>2026-04-24T15:03:03.654Z</time></trkpt><trkpt lat="43.8891627" lon="11.3333078"><ele>698.8333333333333</ele><time>2026-04-24T15:03:05.654Z</time></trkpt><trkpt lat="43.8890962" lon="11.333255"><ele>693.6666666666666</ele><time>2026-04-24T15:03:06.653Z</time></trkpt><trkpt lat="43.8890322" lon="11.3332033"><ele>688.5</ele><time>2026-04-24T15:03:07.654Z</time></trkpt><trkpt lat="43.8889461" lon="11.3331247"><ele>683.3333333333334</ele><time>2026-04-24T15:03:09.654Z</time></trkpt><trkpt lat="43.8888991" lon="11.3330444"><ele>678.1666666666667</ele><time>2026-04-24T15:03:11.653Z</time></trkpt><trkpt lat="43.8888498" lon="11.3329316"><ele>673.0</ele><time>2026-04-24T15:03:14.654Z</time></trkpt><trkpt lat="43.8888195" lon="11.3328548"><ele>672.5999999999999</ele><time>2026-04-24T15:03:17.654Z</time></trkpt><trkpt lat="43.8887596" lon="11.3328039"><ele>672.1999999999999</ele><time>2026-04-24T15:03:20.654Z</time></trkpt><trkpt lat="43.8887035" lon="11.3327275"><ele>671.8</ele><time>2026-04-24T15:04:04.654Z</time></trkpt><trkpt lat="43.8886231" lon="11.332641"><ele>671.4</ele><time>2026-04-24T15:04:07.654Z</time></trkpt><trkpt lat="43.8885247" lon="11.3325092"><ele>671.0</ele><time>2026-04-24T15:04:09.654Z</time></trkpt><trkpt lat="43.8884697" lon="11.3324646"><ele>669.0</ele><time>2026-04-24T15:04:10.654Z</time></trkpt><trkpt lat="43.8883713" lon="11.332404"><ele>667.0</ele><time>2026-04-24T15:04:12.654Z</time></trkpt><trkpt lat="43.8883109" lon="11.3323596"><ele>665.0</ele><time>2026-04-24T15:04:13.654Z</time></trkpt><trkpt lat="43.888219" lon="11.3323093"><ele>663.0</ele><time>2026-04-24T15:04:15.654Z</time></trkpt><trkpt lat="43.8881347" lon="11.3323015"><ele>661.0</ele><time>2026-04-24T15:04:17.654Z</time></trkpt><trkpt lat="43.8880659" lon="11.3322512"><ele>659.0</ele><time>2026-04-24T15:04:30.654Z</time></trkpt><trkpt lat="43.8879967" lon="11.3322514"><ele>659.0</ele><time>2026-04-24T15:04:31.654Z</time></trkpt><trkpt lat="43.8878933" lon="11.3322528"><ele>659.0</ele><time>2026-04-24T15:04:32.654Z</time></trkpt><trkpt lat="43.8878161" lon="11.3322421"><ele>659.0</ele><time>2026-04-24T15:04:33.654Z</time></trkpt><trkpt lat="43.8877452" lon="11.3322307"><ele>659.0</ele><time>2026-04-24T15:04:34.654Z</time></trkpt><trkpt lat="43.8876646" lon="11.3322098"><ele>659.0</ele><time>2026-04-24T15:04:35.654Z</time></trkpt><trkpt lat="43.8875769" lon="11.3321785"><ele>659.0</ele><time>2026-04-24T15:04:36.654Z</time></trkpt><trkpt lat="43.887484" lon="11.3321553"><ele>657.2</ele><time>2026-04-24T15:04:37.654Z</time></trkpt><trkpt lat="43.8873923" lon="11.3321332"><ele>655.4000000000001</ele><time>2026-04-24T15:04:38.654Z</time></trkpt><trkpt lat="43.8872967" lon="11.3321223"><ele>653.6</ele><time>2026-04-24T15:04:39.654Z</time></trkpt><trkpt lat="43.8872039" lon="11.3321222"><ele>651.8</ele><time>2026-04-24T15:04:40.653Z</time></trkpt><trkpt lat="43.8871002" lon="11.3321215"><ele>650.0</ele><time>2026-04-24T15:04:41.654Z</time></trkpt><trkpt lat="43.8869935" lon="11.3321164"><ele>650.0</ele><time>2026-04-24T15:04:42.654Z</time></trkpt><trkpt lat="43.8868933" lon="11.3321278"><ele>650.0</ele><time>2026-04-24T15:04:43.654Z</time></trkpt><trkpt lat="43.8868247" lon="11.3321312"><ele>650.0</ele><time>2026-04-24T15:04:44.653Z</time></trkpt><trkpt lat="43.8867577" lon="11.3321583"><ele>650.0</ele><time>2026-04-24T15:04:45.654Z</time></trkpt><trkpt lat="43.8866693" lon="11.3322084"><ele>650.0</ele><time>2026-04-24T15:04:47.654Z</time></trkpt><trkpt lat="43.8865795" lon="11.3322818"><ele>650.0</ele><time>2026-04-24T15:04:49.654Z</time></trkpt><trkpt lat="43.8864734" lon="11.3323777"><ele>650.8571428571428</ele><time>2026-04-24T15:04:51.654Z</time></trkpt><trkpt lat="43.8864152" lon="11.3324238"><ele>651.7142857142858</ele><time>2026-04-24T15:04:52.654Z</time></trkpt><trkpt lat="43.886348" lon="11.3324711"><ele>652.5714285714286</ele><time>2026-04-24T15:04:53.654Z</time></trkpt><trkpt lat="43.8862872" lon="11.3325158"><ele>653.4285714285713</ele><time>2026-04-24T15:04:54.653Z</time></trkpt><trkpt lat="43.8862216" lon="11.3325499"><ele>654.2857142857142</ele><time>2026-04-24T15:04:55.653Z</time></trkpt><trkpt lat="43.8861503" lon="11.332569"><ele>655.1428571428571</ele><time>2026-04-24T15:04:56.654Z</time></trkpt><trkpt lat="43.8860742" lon="11.3325792"><ele>656.0</ele><time>2026-04-24T15:04:57.654Z</time></trkpt><trkpt lat="43.8859976" lon="11.3325971"><ele>655.8333333333333</ele><time>2026-04-24T15:04:58.654Z</time></trkpt><trkpt lat="43.8859198" lon="11.3326191"><ele>655.6666666666666</ele><time>2026-04-24T15:04:59.654Z</time></trkpt><trkpt lat="43.8858386" lon="11.3326456"><ele>655.5</ele><time>2026-04-24T15:05:00.654Z</time></trkpt><trkpt lat="43.8857577" lon="11.3326799"><ele>655.3333333333334</ele><time>2026-04-24T15:05:01.654Z</time></trkpt><trkpt lat="43.8856714" lon="11.3327069"><ele>655.1666666666667</ele><time>2026-04-24T15:05:02.654Z</time></trkpt><trkpt lat="43.8855881" lon="11.3327514"><ele>655.0</ele><time>2026-04-24T15:05:03.654Z</time></trkpt><trkpt lat="43.8855046" lon="11.3328179"><ele>655.0</ele><time>2026-04-24T15:05:04.654Z</time></trkpt><trkpt lat="43.8854155" lon="11.3328826"><ele>655.0</ele><time>2026-04-24T15:05:05.654Z</time></trkpt><trkpt lat="43.8853143" lon="11.3329316"><ele>655.0</ele><time>2026-04-24T15:05:06.654Z</time></trkpt><trkpt lat="43.8852143" lon="11.3329813"><ele>655.0</ele><time>2026-04-24T15:05:07.654Z</time></trkpt><trkpt lat="43.8851147" lon="11.3330261"><ele>655.0</ele><time>2026-04-24T15:05:08.654Z</time></trkpt><trkpt lat="43.8850201" lon="11.3330682"><ele>655.8</ele><time>2026-04-24T15:05:09.654Z</time></trkpt><trkpt lat="43.884927" lon="11.333111"><ele>656.6</ele><time>2026-04-24T15:05:10.654Z</time></trkpt><trkpt lat="43.8848298" lon="11.3331542"><ele>657.4000000000001</ele><time>2026-04-24T15:05:11.654Z</time></trkpt><trkpt lat="43.884742" lon="11.3332028"><ele>658.2</ele><time>2026-04-24T15:05:12.654Z</time></trkpt><trkpt lat="43.8846503" lon="11.3332693"><ele>659.0</ele><time>2026-04-24T15:05:13.653Z</time></trkpt><trkpt lat="43.8845654" lon="11.3333464"><ele>659.0</ele><time>2026-04-24T15:05:14.654Z</time></trkpt><trkpt lat="43.8844793" lon="11.3334272"><ele>659.0</ele><time>2026-04-24T15:05:15.654Z</time></trkpt><trkpt lat="43.8843987" lon="11.3335078"><ele>659.0</ele><time>2026-04-24T15:05:16.653Z</time></trkpt><trkpt lat="43.8843195" lon="11.3335907"><ele>659.0</ele><time>2026-04-24T15:05:17.654Z</time></trkpt><trkpt lat="43.8842435" lon="11.3336736"><ele>659.0</ele><time>2026-04-24T15:05:18.654Z</time></trkpt><trkpt lat="43.8841766" lon="11.3337647"><ele>659.0</ele><time>2026-04-24T15:05:19.654Z</time></trkpt><trkpt lat="43.884098" lon="11.3338392"><ele>659.0</ele><time>2026-04-24T15:05:20.653Z</time></trkpt><trkpt lat="43.8840011" lon="11.3338894"><ele>659.0</ele><time>2026-04-24T15:05:21.653Z</time></trkpt><trkpt lat="43.88389" lon="11.3338996"><ele>659.0</ele><time>2026-04-24T15:05:22.654Z</time></trkpt><trkpt lat="43.8837881" lon="11.3338918"><ele>659.0</ele><time>2026-04-24T15:05:23.654Z</time></trkpt><trkpt lat="43.8836748" lon="11.3338801"><ele>659.0</ele><time>2026-04-24T15:05:24.654Z</time></trkpt><trkpt lat="43.8835647" lon="11.33387"><ele>659.0</ele><time>2026-04-24T15:05:25.654Z</time></trkpt><trkpt lat="43.8834479" lon="11.3338885"><ele>659.0</ele><time>2026-04-24T15:05:26.654Z</time></trkpt><trkpt lat="43.883341" lon="11.3339207"><ele>659.0</ele><time>2026-04-24T15:05:27.654Z</time></trkpt><trkpt lat="43.8832371" lon="11.3339537"><ele>659.0</ele><time>2026-04-24T15:05:28.654Z</time></trkpt><trkpt lat="43.8831346" lon="11.3339912"><ele>656.8000000000001</ele><time>2026-04-24T15:05:29.654Z</time></trkpt><trkpt lat="43.8830283" lon="11.3340285"><ele>654.6</ele><time>2026-04-24T15:05:30.654Z</time></trkpt><trkpt lat="43.882928" lon="11.3340344"><ele>652.4</ele><time>2026-04-24T15:05:31.654Z</time></trkpt><trkpt lat="43.8828242" lon="11.3340161"><ele>650.2</ele><time>2026-04-24T15:05:32.654Z</time></trkpt><trkpt lat="43.8827266" lon="11.3339847"><ele>648.0</ele><time>2026-04-24T15:05:33.654Z</time></trkpt><trkpt lat="43.8826217" lon="11.3339552"><ele>646.8</ele><time>2026-04-24T15:05:34.654Z</time></trkpt><trkpt lat="43.8825168" lon="11.3339248"><ele>645.5999999999999</ele><time>2026-04-24T15:05:35.654Z</time></trkpt><trkpt lat="43.8824206" lon="11.3338898"><ele>644.4000000000001</ele><time>2026-04-24T15:05:36.653Z</time></trkpt><trkpt lat="43.8823283" lon="11.333856"><ele>643.2</ele><time>2026-04-24T15:05:37.653Z</time></trkpt><trkpt lat="43.882234" lon="11.3338206"><ele>642.0</ele><time>2026-04-24T15:05:38.654Z</time></trkpt><trkpt lat="43.8821539" lon="11.3337934"><ele>641.5</ele><time>2026-04-24T15:05:39.654Z</time></trkpt><trkpt lat="43.882088" lon="11.3337669"><ele>641.0</ele><time>2026-04-24T15:05:40.654Z</time></trkpt><trkpt lat="43.882014" lon="11.333739"><ele>640.5</ele><time>2026-04-24T15:05:41.653Z</time></trkpt><trkpt lat="43.8819297" lon="11.3337036"><ele>640.0</ele><time>2026-04-24T15:05:42.653Z</time></trkpt><trkpt lat="43.8818395" lon="11.3336703"><ele>639.5</ele><time>2026-04-24T15:05:43.654Z</time></trkpt><trkpt lat="43.8817456" lon="11.3336376"><ele>639.0</ele><time>2026-04-24T15:05:44.654Z</time></trkpt><trkpt lat="43.8816615" lon="11.3336041"><ele>639.0</ele><time>2026-04-24T15:05:45.654Z</time></trkpt><trkpt lat="43.8815931" lon="11.3335784"><ele>639.0</ele><time>2026-04-24T15:05:46.654Z</time></trkpt><trkpt lat="43.8815124" lon="11.3335454"><ele>639.0</ele><time>2026-04-24T15:05:48.654Z</time></trkpt><trkpt lat="43.881446" lon="11.3334888"><ele>639.0</ele><time>2026-04-24T15:05:55.654Z</time></trkpt><trkpt lat="43.8814936" lon="11.3333976"><ele>639.0</ele><time>2026-04-24T15:06:00.654Z</time></trkpt><trkpt lat="43.8815662" lon="11.3333452"><ele>639.0</ele><time>2026-04-24T15:06:03.654Z</time></trkpt><trkpt lat="43.8816266" lon="11.3333021"><ele>639.0</ele><time>2026-04-24T15:08:39.654Z</time></trkpt><trkpt lat="43.8815972" lon="11.3333997"><ele>639.0</ele><time>2026-04-24T15:24:11.655Z</time></trkpt><trkpt lat="43.8815247" lon="11.3334362"><ele>639.0</ele><time>2026-04-24T15:24:13.655Z</time></trkpt><trkpt lat="43.881448" lon="11.3334407"><ele>639.0</ele><time>2026-04-24T15:24:15.655Z</time></trkpt><trkpt lat="43.8813811" lon="11.3334293"><ele>639.0</ele><time>2026-04-24T15:24:17.655Z</time></trkpt><trkpt lat="43.8812956" lon="11.333453"><ele>639.0</ele><time>2026-04-24T15:24:20.655Z</time></trkpt><trkpt lat="43.8812007" lon="11.3334147"><ele>639.0</ele><time>2026-04-24T15:24:22.655Z</time></trkpt><trkpt lat="43.8810976" lon="11.3333382"><ele>639.0</ele><time>2026-04-24T15:24:24.654Z</time></trkpt><trkpt lat="43.8809879" lon="11.3332521"><ele>639.0</ele><time>2026-04-24T15:24:26.655Z</time></trkpt><trkpt lat="43.8808865" lon="11.3331581"><ele>639.0</ele><time>2026-04-24T15:24:28.655Z</time></trkpt><trkpt lat="43.8808098" lon="11.3330669"><ele>638.0</ele><time>2026-04-24T15:24:30.654Z</time></trkpt><trkpt lat="43.8807075" lon="11.3329756"><ele>637.0</ele><time>2026-04-24T15:24:32.655Z</time></trkpt><trkpt lat="43.8806487" lon="11.3329222"><ele>636.0</ele><time>2026-04-24T15:24:33.654Z</time></trkpt><trkpt lat="43.8805834" lon="11.3328723"><ele>635.0</ele><time>2026-04-24T15:24:34.655Z</time></trkpt><trkpt lat="43.8805182" lon="11.3328329"><ele>634.0</ele><time>2026-04-24T15:24:35.655Z</time></trkpt><trkpt lat="43.8804541" lon="11.3328096"><ele>633.0</ele><time>2026-04-24T15:24:36.654Z</time></trkpt><trkpt lat="43.8803432" lon="11.3327771"><ele>633.0</ele><time>2026-04-24T15:24:38.655Z</time></trkpt><trkpt lat="43.8802273" lon="11.3327461"><ele>633.0</ele><time>2026-04-24T15:24:40.655Z</time></trkpt><trkpt lat="43.8801626" lon="11.3327244"><ele>633.0</ele><time>2026-04-24T15:24:41.655Z</time></trkpt><trkpt lat="43.8800966" lon="11.3327008"><ele>633.0</ele><time>2026-04-24T15:24:42.655Z</time></trkpt><trkpt lat="43.8799967" lon="11.3326727"><ele>633.0</ele><time>2026-04-24T15:24:44.655Z</time></trkpt><trkpt lat="43.8799241" lon="11.3326966"><ele>633.0</ele><time>2026-04-24T15:24:46.655Z</time></trkpt><trkpt lat="43.8798578" lon="11.3327267"><ele>633.3333333333334</ele><time>2026-04-24T15:24:48.655Z</time></trkpt><trkpt lat="43.8797526" lon="11.3326823"><ele>633.6666666666666</ele><time>2026-04-24T15:24:50.655Z</time></trkpt><trkpt lat="43.8796934" lon="11.3326459"><ele>634.0</ele><time>2026-04-24T15:24:51.655Z</time></trkpt><trkpt lat="43.8796223" lon="11.3326082"><ele>634.3333333333333</ele><time>2026-04-24T15:24:52.654Z</time></trkpt><trkpt lat="43.8795503" lon="11.3325661"><ele>634.6666666666666</ele><time>2026-04-24T15:24:53.655Z</time></trkpt><trkpt lat="43.87948" lon="11.3325282"><ele>635.0</ele><time>2026-04-24T15:24:54.655Z</time></trkpt><trkpt lat="43.8793981" lon="11.3324713"><ele>635.0</ele><time>2026-04-24T15:24:55.655Z</time></trkpt><trkpt lat="43.8793156" lon="11.3324202"><ele>635.0</ele><time>2026-04-24T15:24:56.655Z</time></trkpt><trkpt lat="43.87923" lon="11.3323581"><ele>635.0</ele><time>2026-04-24T15:24:57.655Z</time></trkpt><trkpt lat="43.8791448" lon="11.3322839"><ele>635.0</ele><time>2026-04-24T15:24:58.655Z</time></trkpt><trkpt lat="43.8790614" lon="11.3322207"><ele>635.0</ele><time>2026-04-24T15:24:59.655Z</time></trkpt><trkpt lat="43.8789696" lon="11.3321731"><ele>632.8</ele><time>2026-04-24T15:25:00.655Z</time></trkpt><trkpt lat="43.8788727" lon="11.3321393"><ele>630.6</ele><time>2026-04-24T15:25:01.655Z</time></trkpt><trkpt lat="43.8787718" lon="11.3321211"><ele>628.4</ele><time>2026-04-24T15:25:02.655Z</time></trkpt><trkpt lat="43.8786722" lon="11.3320978"><ele>626.2</ele><time>2026-04-24T15:25:03.655Z</time></trkpt><trkpt lat="43.8785796" lon="11.3320769"><ele>624.0</ele><time>2026-04-24T15:25:04.654Z</time></trkpt><trkpt lat="43.8784898" lon="11.3320562"><ele>623.1666666666666</ele><time>2026-04-24T15:25:05.655Z</time></trkpt><trkpt lat="43.878413" lon="11.3320321"><ele>622.3333333333334</ele><time>2026-04-24T15:25:06.655Z</time></trkpt><trkpt lat="43.8783133" lon="11.331975"><ele>621.5</ele><time>2026-04-24T15:25:08.655Z</time></trkpt><trkpt lat="43.8782419" lon="11.3319722"><ele>620.6666666666667</ele><time>2026-04-24T15:25:11.655Z</time></trkpt><trkpt lat="43.878207" lon="11.332086"><ele>619.8333333333334</ele><time>2026-04-24T15:25:17.655Z</time></trkpt><trkpt lat="43.8781502" lon="11.3321636"><ele>619.0</ele><time>2026-04-24T15:25:19.655Z</time></trkpt><trkpt lat="43.8780688" lon="11.3322044"><ele>618.1666666666667</ele><time>2026-04-24T15:25:21.654Z</time></trkpt><trkpt lat="43.8779512" lon="11.3322465"><ele>617.3333333333334</ele><time>2026-04-24T15:25:23.655Z</time></trkpt><trkpt lat="43.877888" lon="11.3322681"><ele>616.5</ele><time>2026-04-24T15:25:24.655Z</time></trkpt><trkpt lat="43.8778247" lon="11.3322871"><ele>615.6666666666666</ele><time>2026-04-24T15:25:25.655Z</time></trkpt><trkpt lat="43.8777496" lon="11.3323131"><ele>614.8333333333333</ele><time>2026-04-24T15:25:26.655Z</time></trkpt><trkpt lat="43.877665" lon="11.3323478"><ele>614.0</ele><time>2026-04-24T15:25:27.655Z</time></trkpt><trkpt lat="43.8775793" lon="11.3323853"><ele>612.4</ele><time>2026-04-24T15:25:28.655Z</time></trkpt><trkpt lat="43.8774956" lon="11.3324258"><ele>610.8</ele><time>2026-04-24T15:25:29.655Z</time></trkpt><trkpt lat="43.8774012" lon="11.3324605"><ele>609.2</ele><time>2026-04-24T15:25:30.655Z</time></trkpt><trkpt lat="43.8773035" lon="11.3325003"><ele>607.6</ele><time>2026-04-24T15:25:31.655Z</time></trkpt><trkpt lat="43.8772014" lon="11.3325389"><ele>606.0</ele><time>2026-04-24T15:25:32.655Z</time></trkpt><trkpt lat="43.8771025" lon="11.3325837"><ele>606.0</ele><time>2026-04-24T15:25:33.655Z</time></trkpt><trkpt lat="43.8770027" lon="11.3326279"><ele>606.0</ele><time>2026-04-24T15:25:34.655Z</time></trkpt><trkpt lat="43.8769005" lon="11.3326751"><ele>606.0</ele><time>2026-04-24T15:25:35.655Z</time></trkpt><trkpt lat="43.8767983" lon="11.3327278"><ele>606.0</ele><time>2026-04-24T15:25:36.655Z</time></trkpt><trkpt lat="43.8766952" lon="11.3327785"><ele>606.0</ele><time>2026-04-24T15:25:37.655Z</time></trkpt><trkpt lat="43.8765957" lon="11.3328357"><ele>604.5</ele><time>2026-04-24T15:25:38.655Z</time></trkpt><trkpt lat="43.8764938" lon="11.3329016"><ele>603.0</ele><time>2026-04-24T15:25:39.654Z</time></trkpt><trkpt lat="43.8763927" lon="11.3329793"><ele>601.5</ele><time>2026-04-24T15:25:40.655Z</time></trkpt><trkpt lat="43.8762959" lon="11.3330584"><ele>600.0</ele><time>2026-04-24T15:25:41.655Z</time></trkpt><trkpt lat="43.876199" lon="11.3331349"><ele>598.6</ele><time>2026-04-24T15:25:42.655Z</time></trkpt><trkpt lat="43.8761003" lon="11.3332078"><ele>597.2</ele><time>2026-04-24T15:25:43.655Z</time></trkpt><trkpt lat="43.8760035" lon="11.3332784"><ele>595.8</ele><time>2026-04-24T15:25:44.655Z</time></trkpt><trkpt lat="43.8759041" lon="11.3333508"><ele>594.4</ele><time>2026-04-24T15:25:45.655Z</time></trkpt><trkpt lat="43.8758102" lon="11.3334211"><ele>593.0</ele><time>2026-04-24T15:25:46.654Z</time></trkpt><trkpt lat="43.8757283" lon="11.3334985"><ele>592.1999999999999</ele><time>2026-04-24T15:25:47.655Z</time></trkpt><trkpt lat="43.8756481" lon="11.3335839"><ele>591.4</ele><time>2026-04-24T15:25:48.655Z</time></trkpt><trkpt lat="43.8755662" lon="11.3336687"><ele>590.5999999999999</ele><time>2026-04-24T15:25:49.655Z</time></trkpt><trkpt lat="43.8754853" lon="11.3337556"><ele>589.8</ele><time>2026-04-24T15:25:50.655Z</time></trkpt><trkpt lat="43.8754102" lon="11.3338394"><ele>589.0</ele><time>2026-04-24T15:25:51.655Z</time></trkpt><trkpt lat="43.8753416" lon="11.3339191"><ele>588.3333333333334</ele><time>2026-04-24T15:25:52.655Z</time></trkpt><trkpt lat="43.8752776" lon="11.3339955"><ele>587.6666666666667</ele><time>2026-04-24T15:25:53.655Z</time></trkpt><trkpt lat="43.8752149" lon="11.3340636"><ele>587.0</ele><time>2026-04-24T15:25:54.655Z</time></trkpt><trkpt lat="43.875156" lon="11.3341327"><ele>586.3333333333334</ele><time>2026-04-24T15:25:55.655Z</time></trkpt><trkpt lat="43.8751071" lon="11.3342103"><ele>585.6666666666666</ele><time>2026-04-24T15:25:56.655Z</time></trkpt><trkpt lat="43.8750541" lon="11.334293"><ele>585.0</ele><time>2026-04-24T15:25:57.655Z</time></trkpt><trkpt lat="43.8749949" lon="11.3343748"><ele>584.5</ele><time>2026-04-24T15:25:58.655Z</time></trkpt><trkpt lat="43.8749233" lon="11.334449"><ele>584.0</ele><time>2026-04-24T15:25:59.655Z</time></trkpt><trkpt lat="43.874851" lon="11.3345212"><ele>583.5</ele><time>2026-04-24T15:26:00.654Z</time></trkpt><trkpt lat="43.8747797" lon="11.3346014"><ele>583.0</ele><time>2026-04-24T15:26:01.655Z</time></trkpt><trkpt lat="43.8747192" lon="11.3346848"><ele>582.5</ele><time>2026-04-24T15:26:02.655Z</time></trkpt><trkpt lat="43.8746552" lon="11.334777"><ele>582.0</ele><time>2026-04-24T15:26:03.655Z</time></trkpt><trkpt lat="43.8745794" lon="11.3348658"><ele>581.75</ele><time>2026-04-24T15:26:04.655Z</time></trkpt><trkpt lat="43.874492" lon="11.3349641"><ele>581.5</ele><time>2026-04-24T15:26:05.655Z</time></trkpt><trkpt lat="43.8743862" lon="11.3350965"><ele>581.25</ele><time>2026-04-24T15:26:06.654Z</time></trkpt><trkpt lat="43.8742969" lon="11.3352247"><ele>581.0</ele><time>2026-04-24T15:26:07.655Z</time></trkpt><trkpt lat="43.8742003" lon="11.335389"><ele>582.0</ele><time>2026-04-24T15:26:08.655Z</time></trkpt><trkpt lat="43.8741009" lon="11.3355636"><ele>583.0</ele><time>2026-04-24T15:26:09.655Z</time></trkpt><trkpt lat="43.8740051" lon="11.335713"><ele>584.0</ele><time>2026-04-24T15:26:10.654Z</time></trkpt><trkpt lat="43.8738923" lon="11.3358488"><ele>584.0</ele><time>2026-04-24T15:26:11.655Z</time></trkpt><trkpt lat="43.8737649" lon="11.3359598"><ele>584.0</ele><time>2026-04-24T15:26:12.655Z</time></trkpt><trkpt lat="43.8736125" lon="11.3360518"><ele>584.0</ele><time>2026-04-24T15:26:13.655Z</time></trkpt><trkpt lat="43.8734395" lon="11.3361248"><ele>582.6666666666666</ele><time>2026-04-24T15:26:14.654Z</time></trkpt><trkpt lat="43.8732621" lon="11.3361927"><ele>581.3333333333334</ele><time>2026-04-24T15:26:15.654Z</time></trkpt><trkpt lat="43.8730737" lon="11.336232"><ele>580.0</ele><time>2026-04-24T15:26:16.655Z</time></trkpt><trkpt lat="43.8728769" lon="11.3362409"><ele>580.0</ele><time>2026-04-24T15:26:17.655Z</time></trkpt><trkpt lat="43.8726954" lon="11.3362295"><ele>580.0</ele><time>2026-04-24T15:26:18.655Z</time></trkpt><trkpt lat="43.8725412" lon="11.336215"><ele>580.0</ele><time>2026-04-24T15:26:19.655Z</time></trkpt><trkpt lat="43.8723782" lon="11.3362384"><ele>579.6666666666667</ele><time>2026-04-24T15:26:20.655Z</time></trkpt><trkpt lat="43.8722104" lon="11.3362995"><ele>579.3333333333334</ele><time>2026-04-24T15:26:21.655Z</time></trkpt><trkpt lat="43.8720337" lon="11.3363802"><ele>579.0</ele><time>2026-04-24T15:26:22.655Z</time></trkpt><trkpt lat="43.8718599" lon="11.3364626"><ele>578.0</ele><time>2026-04-24T15:26:23.654Z</time></trkpt><trkpt lat="43.8717007" lon="11.3365433"><ele>577.0</ele><time>2026-04-24T15:26:24.655Z</time></trkpt><trkpt lat="43.8715496" lon="11.33663"><ele>576.0</ele><time>2026-04-24T15:26:25.655Z</time></trkpt><trkpt lat="43.8714022" lon="11.3367325"><ele>576.0</ele><time>2026-04-24T15:26:26.655Z</time></trkpt><trkpt lat="43.8712549" lon="11.3368448"><ele>576.0</ele><time>2026-04-24T15:26:27.655Z</time></trkpt><trkpt lat="43.8711331" lon="11.3369404"><ele>576.0</ele><time>2026-04-24T15:26:28.655Z</time></trkpt><trkpt lat="43.871035" lon="11.3370172"><ele>576.0</ele><time>2026-04-24T15:26:29.655Z</time></trkpt><trkpt lat="43.8709577" lon="11.3370763"><ele>576.0</ele><time>2026-04-24T15:26:30.655Z</time></trkpt><trkpt lat="43.8708906" lon="11.3371245"><ele>576.0</ele><time>2026-04-24T15:26:31.655Z</time></trkpt><trkpt lat="43.870829" lon="11.3371652"><ele>576.0</ele><time>2026-04-24T15:26:32.655Z</time></trkpt><trkpt lat="43.8707658" lon="11.3371882"><ele>576.0</ele><time>2026-04-24T15:26:33.655Z</time></trkpt><trkpt lat="43.870647" lon="11.3372612"><ele>576.0</ele><time>2026-04-24T15:26:35.655Z</time></trkpt><trkpt lat="43.870575" lon="11.3373431"><ele>576.0</ele><time>2026-04-24T15:26:36.655Z</time></trkpt><trkpt lat="43.8705123" lon="11.3374318"><ele>576.6666666666666</ele><time>2026-04-24T15:26:37.655Z</time></trkpt><trkpt lat="43.8704476" lon="11.3375276"><ele>577.3333333333334</ele><time>2026-04-24T15:26:38.654Z</time></trkpt><trkpt lat="43.8703779" lon="11.3376423"><ele>578.0</ele><time>2026-04-24T15:26:39.655Z</time></trkpt><trkpt lat="43.8703359" lon="11.3377235"><ele>578.6666666666667</ele><time>2026-04-24T15:26:40.655Z</time></trkpt><trkpt lat="43.8702964" lon="11.3377968"><ele>579.3333333333334</ele><time>2026-04-24T15:26:41.655Z</time></trkpt><trkpt lat="43.8702421" lon="11.3378621"><ele>580.0</ele><time>2026-04-24T15:26:42.655Z</time></trkpt><trkpt lat="43.8701713" lon="11.3379601"><ele>581.0</ele><time>2026-04-24T15:26:44.655Z</time></trkpt><trkpt lat="43.8701074" lon="11.3379736"><ele>582.0</ele><time>2026-04-24T15:26:45.655Z</time></trkpt><trkpt lat="43.8700512" lon="11.3379286"><ele>583.0</ele><time>2026-04-24T15:26:46.655Z</time></trkpt><trkpt lat="43.869961" lon="11.3379547"><ele>584.0</ele><time>2026-04-24T15:26:48.655Z</time></trkpt><trkpt lat="43.8699318" lon="11.3380411"><ele>585.0</ele><time>2026-04-24T15:26:52.655Z</time></trkpt><trkpt lat="43.8698773" lon="11.3381701"><ele>586.0</ele><time>2026-04-24T15:26:55.655Z</time></trkpt><trkpt lat="43.8697586" lon="11.3382561"><ele>586.0</ele><time>2026-04-24T15:26:57.655Z</time></trkpt><trkpt lat="43.8696706" lon="11.3382758"><ele>586.0</ele><time>2026-04-24T15:26:58.655Z</time></trkpt><trkpt lat="43.8695548" lon="11.338271"><ele>586.0</ele><time>2026-04-24T15:26:59.655Z</time></trkpt><trkpt lat="43.869444" lon="11.3382609"><ele>586.0</ele><time>2026-04-24T15:27:00.655Z</time></trkpt><trkpt lat="43.8693377" lon="11.3382414"><ele>586.0</ele><time>2026-04-24T15:27:01.655Z</time></trkpt><trkpt lat="43.8692397" lon="11.3381963"><ele>587.2</ele><time>2026-04-24T15:27:02.655Z</time></trkpt><trkpt lat="43.8691439" lon="11.3382232"><ele>588.4000000000001</ele><time>2026-04-24T15:27:04.655Z</time></trkpt><trkpt lat="43.8690596" lon="11.3382523"><ele>589.6</ele><time>2026-04-24T15:27:06.655Z</time></trkpt><trkpt lat="43.8690037" lon="11.3383863"><ele>590.8000000000001</ele><time>2026-04-24T15:27:08.653Z</time></trkpt><trkpt lat="43.8689643" lon="11.3385882"><ele>592.0</ele><time>2026-04-24T15:27:10.655Z</time></trkpt><trkpt lat="43.8689539" lon="11.3386771"><ele>592.0</ele><time>2026-04-24T15:27:11.655Z</time></trkpt><trkpt lat="43.868898" lon="11.3387887"><ele>592.0</ele><time>2026-04-24T15:27:13.655Z</time></trkpt><trkpt lat="43.8688278" lon="11.3388665"><ele>592.0</ele><time>2026-04-24T15:27:15.654Z</time></trkpt><trkpt lat="43.8687581" lon="11.3389863"><ele>592.0</ele><time>2026-04-24T15:27:17.655Z</time></trkpt><trkpt lat="43.8686909" lon="11.3390849"><ele>592.0</ele><time>2026-04-24T15:27:19.655Z</time></trkpt><trkpt lat="43.8686543" lon="11.3392367"><ele>588.75</ele><time>2026-04-24T15:27:20.655Z</time></trkpt><trkpt lat="43.8685328" lon="11.3393756"><ele>585.5</ele><time>2026-04-24T15:27:21.655Z</time></trkpt><trkpt lat="43.8684614" lon="11.3394804"><ele>582.25</ele><time>2026-04-24T15:27:22.654Z</time></trkpt><trkpt lat="43.8683878" lon="11.3395982"><ele>579.0</ele><time>2026-04-24T15:27:23.655Z</time></trkpt><trkpt lat="43.8683151" lon="11.3397478"><ele>576.8</ele><time>2026-04-24T15:27:24.655Z</time></trkpt><trkpt lat="43.8682501" lon="11.3398696"><ele>574.5999999999999</ele><time>2026-04-24T15:27:25.655Z</time></trkpt><trkpt lat="43.8681952" lon="11.3399905"><ele>572.4</ele><time>2026-04-24T15:27:26.655Z</time></trkpt><trkpt lat="43.8681414" lon="11.3401175"><ele>570.1999999999999</ele><time>2026-04-24T15:27:27.654Z</time></trkpt><trkpt lat="43.8680857" lon="11.3402496"><ele>568.0</ele><time>2026-04-24T15:27:28.655Z</time></trkpt><trkpt lat="43.8680257" lon="11.3403888"><ele>568.0</ele><time>2026-04-24T15:27:29.654Z</time></trkpt><trkpt lat="43.8679667" lon="11.3405323"><ele>568.0</ele><time>2026-04-24T15:27:30.655Z</time></trkpt><trkpt lat="43.867918" lon="11.3406557"><ele>568.0</ele><time>2026-04-24T15:27:31.655Z</time></trkpt><trkpt lat="43.8678641" lon="11.3407788"><ele>568.0</ele><time>2026-04-24T15:27:32.655Z</time></trkpt><trkpt lat="43.867808" lon="11.3408957"><ele>568.0</ele><time>2026-04-24T15:27:33.655Z</time></trkpt><trkpt lat="43.8677428" lon="11.3409855"><ele>565.8</ele><time>2026-04-24T15:27:34.655Z</time></trkpt><trkpt lat="43.8677036" lon="11.3410931"><ele>563.5999999999999</ele><time>2026-04-24T15:27:35.655Z</time></trkpt><trkpt lat="43.8676852" lon="11.3411883"><ele>561.4000000000001</ele><time>2026-04-24T15:27:36.654Z</time></trkpt><trkpt lat="43.8676178" lon="11.341315"><ele>559.2</ele><time>2026-04-24T15:27:38.655Z</time></trkpt><trkpt lat="43.8675092" lon="11.3413814"><ele>557.0</ele><time>2026-04-24T15:27:40.655Z</time></trkpt><trkpt lat="43.8673966" lon="11.341377"><ele>554.0</ele><time>2026-04-24T15:27:41.654Z</time></trkpt><trkpt lat="43.8673168" lon="11.3413843"><ele>551.0</ele><time>2026-04-24T15:27:42.655Z</time></trkpt><trkpt lat="43.8672314" lon="11.341392"><ele>548.0</ele><time>2026-04-24T15:27:43.655Z</time></trkpt><trkpt lat="43.8671502" lon="11.3413957"><ele>545.0</ele><time>2026-04-24T15:27:44.655Z</time></trkpt><trkpt lat="43.867067" lon="11.3414012"><ele>542.0</ele><time>2026-04-24T15:27:45.654Z</time></trkpt><trkpt lat="43.8669884" lon="11.3414077"><ele>539.0</ele><time>2026-04-24T15:27:46.655Z</time></trkpt><trkpt lat="43.8669126" lon="11.3414124"><ele>539.0</ele><time>2026-04-24T15:27:47.655Z</time></trkpt><trkpt lat="43.8668321" lon="11.3414197"><ele>539.0</ele><time>2026-04-24T15:27:48.655Z</time></trkpt><trkpt lat="43.8667522" lon="11.3414306"><ele>539.0</ele><time>2026-04-24T15:27:49.654Z</time></trkpt><trkpt lat="43.8666721" lon="11.3414443"><ele>539.0</ele><time>2026-04-24T15:27:50.654Z</time></trkpt><trkpt lat="43.866592" lon="11.3414541"><ele>539.0</ele><time>2026-04-24T15:27:51.655Z</time></trkpt><trkpt lat="43.8665058" lon="11.3414617"><ele>539.0</ele><time>2026-04-24T15:27:52.655Z</time></trkpt><trkpt lat="43.8664184" lon="11.3414548"><ele>537.2</ele><time>2026-04-24T15:27:53.655Z</time></trkpt><trkpt lat="43.8663226" lon="11.3414406"><ele>535.4</ele><time>2026-04-24T15:27:54.655Z</time></trkpt><trkpt lat="43.8662361" lon="11.3414169"><ele>533.6</ele><time>2026-04-24T15:27:55.654Z</time></trkpt><trkpt lat="43.8661582" lon="11.3414108"><ele>531.8</ele><time>2026-04-24T15:27:56.654Z</time></trkpt><trkpt lat="43.8660515" lon="11.3414343"><ele>530.0</ele><time>2026-04-24T15:27:58.655Z</time></trkpt><trkpt lat="43.8659721" lon="11.3414485"><ele>529.3333333333333</ele><time>2026-04-24T15:28:00.655Z</time></trkpt><trkpt lat="43.8659085" lon="11.3415018"><ele>528.6666666666666</ele><time>2026-04-24T15:28:04.654Z</time></trkpt><trkpt lat="43.86585" lon="11.3415456"><ele>528.0</ele><time>2026-04-24T15:28:07.653Z</time></trkpt><trkpt lat="43.8657812" lon="11.3415739"><ele>527.3333333333334</ele><time>2026-04-24T15:28:11.655Z</time></trkpt><trkpt lat="43.8657177" lon="11.3415305"><ele>526.6666666666667</ele><time>2026-04-24T15:29:30.655Z</time></trkpt><trkpt lat="43.8656662" lon="11.3414758"><ele>526.0</ele><time>2026-04-24T15:29:31.655Z</time></trkpt><trkpt lat="43.8655989" lon="11.3413701"><ele>526.0</ele><time>2026-04-24T15:29:32.655Z</time></trkpt><trkpt lat="43.8655357" lon="11.3412744"><ele>526.0</ele><time>2026-04-24T15:29:33.655Z</time></trkpt><trkpt lat="43.8654738" lon="11.3411645"><ele>526.0</ele><time>2026-04-24T15:29:34.655Z</time></trkpt><trkpt lat="43.8654133" lon="11.3410512"><ele>526.0</ele><time>2026-04-24T15:29:35.655Z</time></trkpt><trkpt lat="43.8653513" lon="11.3409374"><ele>526.0</ele><time>2026-04-24T15:29:36.655Z</time></trkpt><trkpt lat="43.865286" lon="11.340822"><ele>526.0</ele><time>2026-04-24T15:29:37.654Z</time></trkpt><trkpt lat="43.8652066" lon="11.3407226"><ele>526.0</ele><time>2026-04-24T15:29:38.655Z</time></trkpt><trkpt lat="43.865115" lon="11.3406443"><ele>526.0</ele><time>2026-04-24T15:29:39.654Z</time></trkpt><trkpt lat="43.8650163" lon="11.340585"><ele>526.0</ele><time>2026-04-24T15:29:40.654Z</time></trkpt><trkpt lat="43.8649137" lon="11.3405277"><ele>526.0</ele><time>2026-04-24T15:29:41.655Z</time></trkpt><trkpt lat="43.8648104" lon="11.3404713"><ele>523.6</ele><time>2026-04-24T15:29:42.655Z</time></trkpt><trkpt lat="43.864708" lon="11.3404208"><ele>521.2</ele><time>2026-04-24T15:29:43.655Z</time></trkpt><trkpt lat="43.8646069" lon="11.3403667"><ele>518.8</ele><time>2026-04-24T15:29:44.655Z</time></trkpt><trkpt lat="43.864508" lon="11.34032"><ele>516.4</ele><time>2026-04-24T15:29:45.655Z</time></trkpt><trkpt lat="43.8644105" lon="11.3402726"><ele>514.0</ele><time>2026-04-24T15:29:46.655Z</time></trkpt><trkpt lat="43.8643092" lon="11.3402316"><ele>513.2</ele><time>2026-04-24T15:29:47.655Z</time></trkpt><trkpt lat="43.8642096" lon="11.3401942"><ele>512.4</ele><time>2026-04-24T15:29:48.655Z</time></trkpt><trkpt lat="43.8641049" lon="11.3401623"><ele>511.6</ele><time>2026-04-24T15:29:49.655Z</time></trkpt><trkpt lat="43.8639998" lon="11.3401318"><ele>510.8</ele><time>2026-04-24T15:29:50.654Z</time></trkpt><trkpt lat="43.8638971" lon="11.3400988"><ele>510.0</ele><time>2026-04-24T15:29:51.655Z</time></trkpt><trkpt lat="43.8637947" lon="11.3400681"><ele>510.0</ele><time>2026-04-24T15:29:52.655Z</time></trkpt><trkpt lat="43.8636938" lon="11.3400356"><ele>510.0</ele><time>2026-04-24T15:29:53.655Z</time></trkpt><trkpt lat="43.8635948" lon="11.3399965"><ele>510.0</ele><time>2026-04-24T15:29:54.655Z</time></trkpt><trkpt lat="43.8634957" lon="11.3399573"><ele>510.0</ele><time>2026-04-24T15:29:55.655Z</time></trkpt><trkpt lat="43.8633959" lon="11.3399157"><ele>510.0</ele><time>2026-04-24T15:29:56.655Z</time></trkpt><trkpt lat="43.8632989" lon="11.3398685"><ele>508.8</ele><time>2026-04-24T15:29:57.654Z</time></trkpt><trkpt lat="43.8631996" lon="11.3398282"><ele>507.6</ele><time>2026-04-24T15:29:58.655Z</time></trkpt><trkpt lat="43.8631027" lon="11.339779"><ele>506.4</ele><time>2026-04-24T15:29:59.655Z</time></trkpt><trkpt lat="43.8630001" lon="11.3397398"><ele>505.2</ele><time>2026-04-24T15:30:00.655Z</time></trkpt><trkpt lat="43.8628984" lon="11.3397"><ele>504.0</ele><time>2026-04-24T15:30:01.655Z</time></trkpt><trkpt lat="43.8627925" lon="11.3396659"><ele>503.79999999999995</ele><time>2026-04-24T15:30:02.655Z</time></trkpt><trkpt lat="43.8626935" lon="11.3396584"><ele>503.59999999999997</ele><time>2026-04-24T15:30:03.655Z</time></trkpt><trkpt lat="43.8625891" lon="11.3396545"><ele>503.4</ele><time>2026-04-24T15:30:04.655Z</time></trkpt><trkpt lat="43.8624871" lon="11.339649"><ele>503.2</ele><time>2026-04-24T15:30:05.655Z</time></trkpt><trkpt lat="43.8623834" lon="11.3396406"><ele>503.0</ele><time>2026-04-24T15:30:06.655Z</time></trkpt><trkpt lat="43.8622827" lon="11.3396405"><ele>501.3333333333333</ele><time>2026-04-24T15:30:07.654Z</time></trkpt><trkpt lat="43.8621851" lon="11.3396366"><ele>499.66666666666663</ele><time>2026-04-24T15:30:08.655Z</time></trkpt><trkpt lat="43.8620973" lon="11.3396301"><ele>498.0</ele><time>2026-04-24T15:30:09.655Z</time></trkpt><trkpt lat="43.8620158" lon="11.3396245"><ele>496.33333333333337</ele><time>2026-04-24T15:30:10.655Z</time></trkpt><trkpt lat="43.861933" lon="11.3396193"><ele>494.6666666666667</ele><time>2026-04-24T15:30:11.655Z</time></trkpt><trkpt lat="43.861849" lon="11.3396144"><ele>493.0</ele><time>2026-04-24T15:30:12.656Z</time></trkpt><trkpt lat="43.8617686" lon="11.3396019"><ele>491.5</ele><time>2026-04-24T15:30:13.656Z</time></trkpt><trkpt lat="43.8616719" lon="11.3395382"><ele>490.0</ele><time>2026-04-24T15:30:14.656Z</time></trkpt><trkpt lat="43.8615599" lon="11.339482"><ele>488.5</ele><time>2026-04-24T15:30:15.656Z</time></trkpt><trkpt lat="43.8614607" lon="11.3393996"><ele>487.0</ele><time>2026-04-24T15:30:16.656Z</time></trkpt><trkpt lat="43.861405" lon="11.3392586"><ele>487.0</ele><time>2026-04-24T15:30:17.655Z</time></trkpt><trkpt lat="43.8612953" lon="11.3391764"><ele>487.0</ele><time>2026-04-24T15:30:18.656Z</time></trkpt><trkpt lat="43.8612015" lon="11.3391122"><ele>487.0</ele><time>2026-04-24T15:30:19.656Z</time></trkpt><trkpt lat="43.8611076" lon="11.3390299"><ele>487.0</ele><time>2026-04-24T15:30:20.656Z</time></trkpt><trkpt lat="43.8610035" lon="11.3389478"><ele>485.0</ele><time>2026-04-24T15:30:21.656Z</time></trkpt><trkpt lat="43.8608146" lon="11.3389245"><ele>483.0</ele><time>2026-04-24T15:30:22.656Z</time></trkpt><trkpt lat="43.8607032" lon="11.3388582"><ele>481.0</ele><time>2026-04-24T15:30:23.656Z</time></trkpt><trkpt lat="43.8605839" lon="11.3387658"><ele>479.0</ele><time>2026-04-24T15:30:24.656Z</time></trkpt><trkpt lat="43.86046" lon="11.3386782"><ele>478.25</ele><time>2026-04-24T15:30:25.656Z</time></trkpt><trkpt lat="43.8603419" lon="11.3385869"><ele>477.5</ele><time>2026-04-24T15:30:26.656Z</time></trkpt><trkpt lat="43.8602375" lon="11.3385157"><ele>476.75</ele><time>2026-04-24T15:30:27.656Z</time></trkpt><trkpt lat="43.8601443" lon="11.3384657"><ele>476.0</ele><time>2026-04-24T15:30:28.656Z</time></trkpt><trkpt lat="43.8600437" lon="11.3384115"><ele>474.0</ele><time>2026-04-24T15:30:29.656Z</time></trkpt><trkpt lat="43.8599433" lon="11.3383292"><ele>472.0</ele><time>2026-04-24T15:30:30.655Z</time></trkpt><trkpt lat="43.8598649" lon="11.3382719"><ele>470.0</ele><time>2026-04-24T15:30:31.654Z</time></trkpt><trkpt lat="43.8597775" lon="11.3381536"><ele>468.0</ele><time>2026-04-24T15:30:32.655Z</time></trkpt><trkpt lat="43.859702" lon="11.3380409"><ele>466.0</ele><time>2026-04-24T15:30:33.656Z</time></trkpt><trkpt lat="43.8596174" lon="11.3379623"><ele>464.8</ele><time>2026-04-24T15:30:34.656Z</time></trkpt><trkpt lat="43.8595231" lon="11.3379473"><ele>463.6</ele><time>2026-04-24T15:30:35.655Z</time></trkpt><trkpt lat="43.8594341" lon="11.3378998"><ele>462.4</ele><time>2026-04-24T15:30:36.656Z</time></trkpt><trkpt lat="43.8593492" lon="11.3378372"><ele>461.2</ele><time>2026-04-24T15:30:37.656Z</time></trkpt><trkpt lat="43.8592641" lon="11.3377827"><ele>460.0</ele><time>2026-04-24T15:30:38.656Z</time></trkpt><trkpt lat="43.859185" lon="11.3377183"><ele>458.6</ele><time>2026-04-24T15:30:39.656Z</time></trkpt><trkpt lat="43.8590796" lon="11.3376611"><ele>457.2</ele><time>2026-04-24T15:30:40.656Z</time></trkpt><trkpt lat="43.8589837" lon="11.3375872"><ele>455.79999999999995</ele><time>2026-04-24T15:30:41.656Z</time></trkpt><trkpt lat="43.858901" lon="11.3375315"><ele>454.4</ele><time>2026-04-24T15:30:42.656Z</time></trkpt><trkpt lat="43.8588151" lon="11.3374797"><ele>453.0</ele><time>2026-04-24T15:30:43.656Z</time></trkpt><trkpt lat="43.8587369" lon="11.3374061"><ele>453.0</ele><time>2026-04-24T15:30:44.656Z</time></trkpt><trkpt lat="43.8586633" lon="11.3373437"><ele>453.0</ele><time>2026-04-24T15:30:45.656Z</time></trkpt><trkpt lat="43.8585971" lon="11.3372747"><ele>453.0</ele><time>2026-04-24T15:30:46.655Z</time></trkpt><trkpt lat="43.8585341" lon="11.3372032"><ele>453.0</ele><time>2026-04-24T15:30:47.656Z</time></trkpt><trkpt lat="43.8584759" lon="11.3371222"><ele>453.0</ele><time>2026-04-24T15:30:48.656Z</time></trkpt><trkpt lat="43.8584175" lon="11.3370417"><ele>453.0</ele><time>2026-04-24T15:30:49.656Z</time></trkpt><trkpt lat="43.8583626" lon="11.3369532"><ele>450.3333333333333</ele><time>2026-04-24T15:30:50.656Z</time></trkpt><trkpt lat="43.8583126" lon="11.3368685"><ele>447.66666666666663</ele><time>2026-04-24T15:30:51.656Z</time></trkpt><trkpt lat="43.8582713" lon="11.3367867"><ele>445.0</ele><time>2026-04-24T15:30:52.656Z</time></trkpt><trkpt lat="43.858233" lon="11.3367139"><ele>442.3333333333333</ele><time>2026-04-24T15:30:53.656Z</time></trkpt><trkpt lat="43.8581865" lon="11.3366286"><ele>439.66666666666663</ele><time>2026-04-24T15:30:55.656Z</time></trkpt><trkpt lat="43.8581483" lon="11.3365013"><ele>437.0</ele><time>2026-04-24T15:30:57.656Z</time></trkpt><trkpt lat="43.8581481" lon="11.3363901"><ele>435.49999999999994</ele><time>2026-04-24T15:30:58.656Z</time></trkpt><trkpt lat="43.8581661" lon="11.3362637"><ele>434.0</ele><time>2026-04-24T15:30:59.656Z</time></trkpt><trkpt lat="43.8581932" lon="11.3361549"><ele>432.5</ele><time>2026-04-24T15:31:00.656Z</time></trkpt><trkpt lat="43.8582224" lon="11.3360591"><ele>431.0</ele><time>2026-04-24T15:31:01.656Z</time></trkpt><trkpt lat="43.8582346" lon="11.3359423"><ele>429.49999999999994</ele><time>2026-04-24T15:31:03.656Z</time></trkpt><trkpt lat="43.8581765" lon="11.3359959"><ele>428.0</ele><time>2026-04-24T15:31:06.656Z</time></trkpt><trkpt lat="43.8581253" lon="11.3360976"><ele>427.99999999999994</ele><time>2026-04-24T15:31:08.655Z</time></trkpt><trkpt lat="43.8580741" lon="11.336182"><ele>428.0</ele><time>2026-04-24T15:31:10.656Z</time></trkpt><trkpt lat="43.8579963" lon="11.3362376"><ele>428.0</ele><time>2026-04-24T15:31:13.656Z</time></trkpt><trkpt lat="43.857911" lon="11.3362753"><ele>428.0</ele><time>2026-04-24T15:31:16.656Z</time></trkpt><trkpt lat="43.8578427" lon="11.3363306"><ele>427.99999999999994</ele><time>2026-04-24T15:31:19.656Z</time></trkpt><trkpt lat="43.8577667" lon="11.3363872"><ele>428.0</ele><time>2026-04-24T15:31:22.655Z</time></trkpt><trkpt lat="43.8576869" lon="11.3364507"><ele>426.66666666666663</ele><time>2026-04-24T15:31:25.656Z</time></trkpt><trkpt lat="43.8576116" lon="11.3365067"><ele>425.3333333333333</ele><time>2026-04-24T15:31:28.656Z</time></trkpt><trkpt lat="43.8575287" lon="11.3365664"><ele>424.0</ele><time>2026-04-24T15:31:31.656Z</time></trkpt><trkpt lat="43.8574541" lon="11.3366074"><ele>422.66666666666663</ele><time>2026-04-24T15:31:33.656Z</time></trkpt><trkpt lat="43.8573812" lon="11.3366606"><ele>421.3333333333333</ele><time>2026-04-24T15:31:35.655Z</time></trkpt><trkpt lat="43.8573103" lon="11.3367196"><ele>420.0</ele><time>2026-04-24T15:31:37.656Z</time></trkpt><trkpt lat="43.8572399" lon="11.3367754"><ele>420.0</ele><time>2026-04-24T15:31:39.656Z</time></trkpt><trkpt lat="43.8571695" lon="11.3368266"><ele>420.0</ele><time>2026-04-24T15:31:41.656Z</time></trkpt><trkpt lat="43.8570914" lon="11.3368481"><ele>420.0</ele><time>2026-04-24T15:31:43.656Z</time></trkpt><trkpt lat="43.8569969" lon="11.3367968"><ele>420.0</ele><time>2026-04-24T15:31:45.656Z</time></trkpt><trkpt lat="43.856925" lon="11.3367246"><ele>420.0</ele><time>2026-04-24T15:31:47.656Z</time></trkpt><trkpt lat="43.8568393" lon="11.336714"><ele>420.0</ele><time>2026-04-24T15:31:49.656Z</time></trkpt><trkpt lat="43.8567602" lon="11.3367576"><ele>417.8</ele><time>2026-04-24T15:31:51.656Z</time></trkpt><trkpt lat="43.856693" lon="11.336739"><ele>415.6</ele><time>2026-04-24T15:31:55.656Z</time></trkpt><trkpt lat="43.8566137" lon="11.3367377"><ele>413.4</ele><time>2026-04-24T15:32:26.656Z</time></trkpt><trkpt lat="43.8565478" lon="11.3367453"><ele>411.2</ele><time>2026-04-24T15:32:27.655Z</time></trkpt><trkpt lat="43.8564271" lon="11.3367636"><ele>409.0</ele><time>2026-04-24T15:32:28.655Z</time></trkpt><trkpt lat="43.8562819" lon="11.3367859"><ele>409.0</ele><time>2026-04-24T15:32:29.656Z</time></trkpt><trkpt lat="43.8561211" lon="11.3368011"><ele>409.0</ele><time>2026-04-24T15:32:30.655Z</time></trkpt><trkpt lat="43.8559444" lon="11.3367939"><ele>409.0</ele><time>2026-04-24T15:32:31.656Z</time></trkpt><trkpt lat="43.8557905" lon="11.3367777"><ele>409.0</ele><time>2026-04-24T15:32:32.656Z</time></trkpt><trkpt lat="43.8556333" lon="11.3367744"><ele>409.0</ele><time>2026-04-24T15:32:33.656Z</time></trkpt><trkpt lat="43.8554801" lon="11.3367838"><ele>409.0</ele><time>2026-04-24T15:32:34.655Z</time></trkpt><trkpt lat="43.8553425" lon="11.3367969"><ele>409.0</ele><time>2026-04-24T15:32:35.656Z</time></trkpt><trkpt lat="43.8552094" lon="11.3368301"><ele>409.6</ele><time>2026-04-24T15:32:36.656Z</time></trkpt><trkpt lat="43.8550962" lon="11.3368737"><ele>410.2</ele><time>2026-04-24T15:32:37.655Z</time></trkpt><trkpt lat="43.8549911" lon="11.3369009"><ele>410.8</ele><time>2026-04-24T15:32:38.655Z</time></trkpt><trkpt lat="43.8548962" lon="11.3369018"><ele>411.40000000000003</ele><time>2026-04-24T15:32:39.656Z</time></trkpt><trkpt lat="43.854812" lon="11.336885"><ele>412.0</ele><time>2026-04-24T15:32:40.656Z</time></trkpt><trkpt lat="43.8547378" lon="11.3367703"><ele>411.99999999999994</ele><time>2026-04-24T15:32:42.656Z</time></trkpt><trkpt lat="43.854737" lon="11.3366793"><ele>412.0</ele><time>2026-04-24T15:32:43.656Z</time></trkpt><trkpt lat="43.8547391" lon="11.3365853"><ele>412.0</ele><time>2026-04-24T15:32:44.655Z</time></trkpt><trkpt lat="43.8547352" lon="11.3364906"><ele>412.0</ele><time>2026-04-24T15:32:45.655Z</time></trkpt><trkpt lat="43.8547246" lon="11.3364028"><ele>412.0</ele><time>2026-04-24T15:32:46.656Z</time></trkpt><trkpt lat="43.8546859" lon="11.3362602"><ele>411.99999999999994</ele><time>2026-04-24T15:32:48.656Z</time></trkpt><trkpt lat="43.8546557" lon="11.3361681"><ele>412.0</ele><time>2026-04-24T15:33:11.656Z</time></trkpt><trkpt lat="43.8545592" lon="11.3361595"><ele>411.20000000000005</ele><time>2026-04-24T15:33:23.656Z</time></trkpt><trkpt lat="43.8544423" lon="11.3361513"><ele>410.4</ele><time>2026-04-24T15:33:25.656Z</time></trkpt><trkpt lat="43.8543815" lon="11.3361234"><ele>409.6</ele><time>2026-04-24T15:33:26.656Z</time></trkpt><trkpt lat="43.8542779" lon="11.3360267"><ele>408.79999999999995</ele><time>2026-04-24T15:33:28.656Z</time></trkpt><trkpt lat="43.854181" lon="11.3359653"><ele>408.0</ele><time>2026-04-24T15:33:29.656Z</time></trkpt><trkpt lat="43.8540864" lon="11.3359046"><ele>408.0</ele><time>2026-04-24T15:33:30.656Z</time></trkpt><trkpt lat="43.8539904" lon="11.3358338"><ele>408.0</ele><time>2026-04-24T15:33:31.656Z</time></trkpt><trkpt lat="43.85389" lon="11.3357547"><ele>408.0</ele><time>2026-04-24T15:33:32.656Z</time></trkpt><trkpt lat="43.8537962" lon="11.335661"><ele>408.0</ele><time>2026-04-24T15:33:33.656Z</time></trkpt><trkpt lat="43.8537127" lon="11.3355477"><ele>406.5</ele><time>2026-04-24T15:33:34.656Z</time></trkpt><trkpt lat="43.8536352" lon="11.335415"><ele>405.0</ele><time>2026-04-24T15:33:35.656Z</time></trkpt><trkpt lat="43.8535346" lon="11.3353187"><ele>403.5</ele><time>2026-04-24T15:33:36.656Z</time></trkpt><trkpt lat="43.853416" lon="11.3352425"><ele>402.0</ele><time>2026-04-24T15:33:37.656Z</time></trkpt><trkpt lat="43.8533057" lon="11.3351716"><ele>402.0</ele><time>2026-04-24T15:33:38.656Z</time></trkpt><trkpt lat="43.8532097" lon="11.3350798"><ele>402.0</ele><time>2026-04-24T15:33:39.656Z</time></trkpt><trkpt lat="43.8531261" lon="11.3349542"><ele>402.0</ele><time>2026-04-24T15:33:40.656Z</time></trkpt><trkpt lat="43.853043" lon="11.3348052"><ele>402.0</ele><time>2026-04-24T15:33:41.656Z</time></trkpt><trkpt lat="43.8529782" lon="11.3347038"><ele>401.6</ele><time>2026-04-24T15:33:42.656Z</time></trkpt><trkpt lat="43.8529206" lon="11.3346356"><ele>401.20000000000005</ele><time>2026-04-24T15:33:43.656Z</time></trkpt><trkpt lat="43.8527954" lon="11.3346179"><ele>400.8</ele><time>2026-04-24T15:33:45.656Z</time></trkpt><trkpt lat="43.8527176" lon="11.3346467"><ele>400.4</ele><time>2026-04-24T15:33:46.656Z</time></trkpt><trkpt lat="43.8525865" lon="11.334743"><ele>400.0</ele><time>2026-04-24T15:33:47.655Z</time></trkpt><trkpt lat="43.8524619" lon="11.3347932"><ele>402.0</ele><time>2026-04-24T15:33:48.656Z</time></trkpt><trkpt lat="43.85235" lon="11.3348472"><ele>404.0</ele><time>2026-04-24T15:33:49.656Z</time></trkpt><trkpt lat="43.8522683" lon="11.3348639"><ele>406.0</ele><time>2026-04-24T15:33:50.656Z</time></trkpt><trkpt lat="43.8521829" lon="11.3348613"><ele>408.0</ele><time>2026-04-24T15:33:51.656Z</time></trkpt><trkpt lat="43.8520976" lon="11.334823"><ele>410.0</ele><time>2026-04-24T15:33:52.656Z</time></trkpt><trkpt lat="43.8520122" lon="11.3347451"><ele>408.6</ele><time>2026-04-24T15:33:53.655Z</time></trkpt><trkpt lat="43.8519391" lon="11.334647"><ele>407.2</ele><time>2026-04-24T15:33:54.656Z</time></trkpt><trkpt lat="43.8518659" lon="11.334544"><ele>405.79999999999995</ele><time>2026-04-24T15:33:55.656Z</time></trkpt><trkpt lat="43.8518122" lon="11.3344158"><ele>404.4</ele><time>2026-04-24T15:33:56.655Z</time></trkpt><trkpt lat="43.8517477" lon="11.3343127"><ele>403.0</ele><time>2026-04-24T15:33:57.655Z</time></trkpt><trkpt lat="43.8517043" lon="11.334226"><ele>403.0</ele><time>2026-04-24T15:33:58.655Z</time></trkpt><trkpt lat="43.8516467" lon="11.3341802"><ele>403.0</ele><time>2026-04-24T15:33:59.656Z</time></trkpt><trkpt lat="43.8515707" lon="11.3341861"><ele>403.0</ele><time>2026-04-24T15:34:00.656Z</time></trkpt><trkpt lat="43.8514927" lon="11.3341939"><ele>403.0</ele><time>2026-04-24T15:34:01.656Z</time></trkpt><trkpt lat="43.8513659" lon="11.334245"><ele>403.0</ele><time>2026-04-24T15:34:02.656Z</time></trkpt><trkpt lat="43.8512579" lon="11.3342732"><ele>403.0</ele><time>2026-04-24T15:34:03.656Z</time></trkpt><trkpt lat="43.8511489" lon="11.3343179"><ele>403.0</ele><time>2026-04-24T15:34:04.656Z</time></trkpt><trkpt lat="43.8510526" lon="11.3343899"><ele>403.0</ele><time>2026-04-24T15:34:05.656Z</time></trkpt><trkpt lat="43.8509687" lon="11.3344809"><ele>403.0</ele><time>2026-04-24T15:34:06.656Z</time></trkpt><trkpt lat="43.8508825" lon="11.3345545"><ele>403.0</ele><time>2026-04-24T15:34:07.656Z</time></trkpt><trkpt lat="43.8507954" lon="11.3346257"><ele>404.59999999999997</ele><time>2026-04-24T15:34:08.656Z</time></trkpt><trkpt lat="43.8507014" lon="11.3347193"><ele>406.2</ele><time>2026-04-24T15:34:09.656Z</time></trkpt><trkpt lat="43.8506017" lon="11.3348096"><ele>407.8</ele><time>2026-04-24T15:34:10.655Z</time></trkpt><trkpt lat="43.8505049" lon="11.3348936"><ele>409.4</ele><time>2026-04-24T15:34:11.655Z</time></trkpt><trkpt lat="43.850459" lon="11.3349643"><ele>411.0</ele><time>2026-04-24T15:34:12.656Z</time></trkpt><trkpt lat="43.8503992" lon="11.3350128"><ele>411.0</ele><time>2026-04-24T15:34:14.656Z</time></trkpt><trkpt lat="43.8503311" lon="11.3350286"><ele>411.0</ele><time>2026-04-24T15:34:15.656Z</time></trkpt><trkpt lat="43.8502382" lon="11.3350739"><ele>411.0</ele><time>2026-04-24T15:34:17.656Z</time></trkpt><trkpt lat="43.8501239" lon="11.3350374"><ele>411.0</ele><time>2026-04-24T15:34:18.656Z</time></trkpt><trkpt lat="43.8500515" lon="11.3350313"><ele>411.0</ele><time>2026-04-24T15:34:19.656Z</time></trkpt><trkpt lat="43.8499839" lon="11.3350011"><ele>411.0</ele><time>2026-04-24T15:34:20.656Z</time></trkpt><trkpt lat="43.8498754" lon="11.3349711"><ele>409.6</ele><time>2026-04-24T15:34:22.656Z</time></trkpt><trkpt lat="43.8497424" lon="11.3349878"><ele>408.20000000000005</ele><time>2026-04-24T15:34:24.655Z</time></trkpt><trkpt lat="43.8496589" lon="11.3349946"><ele>406.79999999999995</ele><time>2026-04-24T15:34:25.656Z</time></trkpt><trkpt lat="43.8495829" lon="11.3350203"><ele>405.4</ele><time>2026-04-24T15:34:26.655Z</time></trkpt><trkpt lat="43.8495027" lon="11.3350767"><ele>404.0</ele><time>2026-04-24T15:34:27.656Z</time></trkpt><trkpt lat="43.8494377" lon="11.3351229"><ele>404.0</ele><time>2026-04-24T15:34:28.656Z</time></trkpt><trkpt lat="43.8493621" lon="11.3351636"><ele>404.0</ele><time>2026-04-24T15:34:29.656Z</time></trkpt><trkpt lat="43.849303" lon="11.335236"><ele>404.0</ele><time>2026-04-24T15:34:30.656Z</time></trkpt><trkpt lat="43.8491936" lon="11.3353065"><ele>404.0</ele><time>2026-04-24T15:34:32.655Z</time></trkpt><trkpt lat="43.8490688" lon="11.335225"><ele>404.0</ele><time>2026-04-24T15:34:33.656Z</time></trkpt><trkpt lat="43.8489801" lon="11.3352141"><ele>402.0</ele><time>2026-04-24T15:34:34.656Z</time></trkpt><trkpt lat="43.8488833" lon="11.3351817"><ele>400.0</ele><time>2026-04-24T15:34:35.656Z</time></trkpt><trkpt lat="43.8487887" lon="11.3351605"><ele>398.0</ele><time>2026-04-24T15:34:36.656Z</time></trkpt><trkpt lat="43.848691" lon="11.335154"><ele>396.0</ele><time>2026-04-24T15:34:37.655Z</time></trkpt><trkpt lat="43.8485923" lon="11.3351931"><ele>394.0</ele><time>2026-04-24T15:34:39.656Z</time></trkpt><trkpt lat="43.8484502" lon="11.3351342"><ele>394.00000000000006</ele><time>2026-04-24T15:34:41.656Z</time></trkpt><trkpt lat="43.8483579" lon="11.3351037"><ele>394.0</ele><time>2026-04-24T15:34:42.655Z</time></trkpt><trkpt lat="43.8482888" lon="11.3350536"><ele>394.0</ele><time>2026-04-24T15:34:43.655Z</time></trkpt><trkpt lat="43.8481995" lon="11.3350012"><ele>394.0</ele><time>2026-04-24T15:34:46.656Z</time></trkpt><trkpt lat="43.8481273" lon="11.3349893"><ele>394.00000000000006</ele><time>2026-04-24T15:34:49.655Z</time></trkpt><trkpt lat="43.8480629" lon="11.3349956"><ele>394.0</ele><time>2026-04-24T15:34:50.656Z</time></trkpt><trkpt lat="43.8479661" lon="11.3349877"><ele>394.0</ele><time>2026-04-24T15:34:52.656Z</time></trkpt><trkpt lat="43.8478847" lon="11.3349956"><ele>394.0</ele><time>2026-04-24T15:34:55.656Z</time></trkpt><trkpt lat="43.8478015" lon="11.3349707"><ele>394.0</ele><time>2026-04-24T15:34:58.655Z</time></trkpt><trkpt lat="43.84775" lon="11.3349146"><ele>394.0</ele><time>2026-04-24T15:35:00.656Z</time></trkpt><trkpt lat="43.8476967" lon="11.3348536"><ele>394.0</ele><time>2026-04-24T15:35:03.655Z</time></trkpt><trkpt lat="43.8476334" lon="11.3348085"><ele>394.0</ele><time>2026-04-24T15:35:07.656Z</time></trkpt><trkpt lat="43.8475685" lon="11.3347604"><ele>394.0</ele><time>2026-04-24T15:35:11.656Z</time></trkpt><trkpt lat="43.8474997" lon="11.3347056"><ele>391.75</ele><time>2026-04-24T15:35:15.654Z</time></trkpt><trkpt lat="43.8473853" lon="11.3346584"><ele>389.5</ele><time>2026-04-24T15:35:18.655Z</time></trkpt><trkpt lat="43.8471905" lon="11.3346242"><ele>387.25</ele><time>2026-04-24T15:35:20.656Z</time></trkpt><trkpt lat="43.8471259" lon="11.3345869"><ele>385.0</ele><time>2026-04-24T15:35:21.656Z</time></trkpt><trkpt lat="43.8470619" lon="11.3345585"><ele>385.00000000000006</ele><time>2026-04-24T15:35:22.656Z</time></trkpt><trkpt lat="43.8469925" lon="11.3345341"><ele>385.0</ele><time>2026-04-24T15:35:23.656Z</time></trkpt><trkpt lat="43.8468864" lon="11.3344536"><ele>385.0</ele><time>2026-04-24T15:35:26.656Z</time></trkpt><trkpt lat="43.8468226" lon="11.3344002"><ele>385.0</ele><time>2026-04-24T15:35:27.656Z</time></trkpt><trkpt lat="43.8467462" lon="11.3343538"><ele>385.00000000000006</ele><time>2026-04-24T15:35:28.656Z</time></trkpt><trkpt lat="43.8466842" lon="11.3342625"><ele>385.0</ele><time>2026-04-24T15:35:29.656Z</time></trkpt><trkpt lat="43.8466195" lon="11.3341959"><ele>387.8</ele><time>2026-04-24T15:35:30.656Z</time></trkpt><trkpt lat="43.8465195" lon="11.3340927"><ele>390.6</ele><time>2026-04-24T15:35:32.656Z</time></trkpt><trkpt lat="43.8463782" lon="11.3340573"><ele>393.4</ele><time>2026-04-24T15:35:34.656Z</time></trkpt><trkpt lat="43.8463082" lon="11.3340302"><ele>396.2</ele><time>2026-04-24T15:35:35.655Z</time></trkpt><trkpt lat="43.8462259" lon="11.333991"><ele>399.0</ele><time>2026-04-24T15:35:36.656Z</time></trkpt><trkpt lat="43.8461384" lon="11.3339775"><ele>399.0</ele><time>2026-04-24T15:35:37.656Z</time></trkpt><trkpt lat="43.8460673" lon="11.3339662"><ele>399.0</ele><time>2026-04-24T15:35:38.656Z</time></trkpt><trkpt lat="43.845967" lon="11.3339166"><ele>399.0</ele><time>2026-04-24T15:35:40.656Z</time></trkpt><trkpt lat="43.8458624" lon="11.3339013"><ele>399.0</ele><time>2026-04-24T15:35:41.655Z</time></trkpt><trkpt lat="43.8457959" lon="11.3338715"><ele>399.0</ele><time>2026-04-24T15:35:42.656Z</time></trkpt><trkpt lat="43.8457102" lon="11.3338548"><ele>399.0</ele><time>2026-04-24T15:35:43.656Z</time></trkpt><trkpt lat="43.845626" lon="11.3338629"><ele>397.6</ele><time>2026-04-24T15:35:44.654Z</time></trkpt><trkpt lat="43.845541" lon="11.3338568"><ele>396.2</ele><time>2026-04-24T15:35:45.656Z</time></trkpt><trkpt lat="43.8454549" lon="11.3338393"><ele>394.8</ele><time>2026-04-24T15:35:46.656Z</time></trkpt><trkpt lat="43.8453404" lon="11.3338329"><ele>393.40000000000003</ele><time>2026-04-24T15:35:47.656Z</time></trkpt><trkpt lat="43.8452559" lon="11.3338261"><ele>392.0</ele><time>2026-04-24T15:35:48.656Z</time></trkpt><trkpt lat="43.8451706" lon="11.333824"><ele>391.8</ele><time>2026-04-24T15:35:49.656Z</time></trkpt><trkpt lat="43.8450872" lon="11.333849"><ele>391.6</ele><time>2026-04-24T15:35:50.656Z</time></trkpt><trkpt lat="43.8450079" lon="11.3339235"><ele>391.40000000000003</ele><time>2026-04-24T15:35:52.656Z</time></trkpt><trkpt lat="43.8449346" lon="11.3339628"><ele>391.20000000000005</ele><time>2026-04-24T15:35:53.656Z</time></trkpt><trkpt lat="43.8447994" lon="11.3340938"><ele>391.0</ele><time>2026-04-24T15:35:55.656Z</time></trkpt><trkpt lat="43.8447374" lon="11.3342464"><ele>396.0</ele><time>2026-04-24T15:35:56.656Z</time></trkpt><trkpt lat="43.844667" lon="11.3344885"><ele>401.0</ele><time>2026-04-24T15:35:57.656Z</time></trkpt><trkpt lat="43.8446286" lon="11.3346481"><ele>406.0</ele><time>2026-04-24T15:35:58.656Z</time></trkpt><trkpt lat="43.8445769" lon="11.3347839"><ele>411.0</ele><time>2026-04-24T15:35:59.655Z</time></trkpt><trkpt lat="43.8445313" lon="11.3348885"><ele>411.3333333333333</ele><time>2026-04-24T15:36:00.655Z</time></trkpt><trkpt lat="43.8444895" lon="11.3349655"><ele>411.66666666666663</ele><time>2026-04-24T15:36:01.656Z</time></trkpt><trkpt lat="43.8444031" lon="11.3349773"><ele>412.0</ele><time>2026-04-24T15:36:02.656Z</time></trkpt><trkpt lat="43.8443417" lon="11.3349982"><ele>412.3333333333333</ele><time>2026-04-24T15:36:03.656Z</time></trkpt><trkpt lat="43.8442723" lon="11.3350001"><ele>412.66666666666663</ele><time>2026-04-24T15:36:04.656Z</time></trkpt><trkpt lat="43.8441915" lon="11.3349706"><ele>413.0</ele><time>2026-04-24T15:36:05.656Z</time></trkpt><trkpt lat="43.844116" lon="11.3349289"><ele>413.0</ele><time>2026-04-24T15:36:06.656Z</time></trkpt><trkpt lat="43.8440098" lon="11.3348829"><ele>413.0</ele><time>2026-04-24T15:36:07.656Z</time></trkpt><trkpt lat="43.8439281" lon="11.3348413"><ele>413.0</ele><time>2026-04-24T15:36:08.656Z</time></trkpt><trkpt lat="43.8438433" lon="11.3347727"><ele>413.0</ele><time>2026-04-24T15:36:09.656Z</time></trkpt><trkpt lat="43.8437756" lon="11.3347004"><ele>413.0</ele><time>2026-04-24T15:36:10.656Z</time></trkpt><trkpt lat="43.8436983" lon="11.334672"><ele>412.16666666666663</ele><time>2026-04-24T15:36:11.656Z</time></trkpt><trkpt lat="43.8436015" lon="11.3346661"><ele>411.3333333333333</ele><time>2026-04-24T15:36:12.656Z</time></trkpt><trkpt lat="43.8435202" lon="11.3346612"><ele>410.5</ele><time>2026-04-24T15:36:13.656Z</time></trkpt><trkpt lat="43.8434483" lon="11.3346771"><ele>409.66666666666663</ele><time>2026-04-24T15:36:14.656Z</time></trkpt><trkpt lat="43.8433628" lon="11.3347124"><ele>408.8333333333333</ele><time>2026-04-24T15:36:15.656Z</time></trkpt><trkpt lat="43.8433034" lon="11.3348056"><ele>408.0</ele><time>2026-04-24T15:36:16.656Z</time></trkpt><trkpt lat="43.8432231" lon="11.3348802"><ele>408.0</ele><time>2026-04-24T15:36:17.656Z</time></trkpt><trkpt lat="43.8431505" lon="11.3349284"><ele>408.0</ele><time>2026-04-24T15:36:18.656Z</time></trkpt><trkpt lat="43.8430735" lon="11.3349602"><ele>408.0</ele><time>2026-04-24T15:36:19.655Z</time></trkpt><trkpt lat="43.842987" lon="11.3349713"><ele>408.0</ele><time>2026-04-24T15:36:20.656Z</time></trkpt><trkpt lat="43.8429069" lon="11.3349055"><ele>408.0</ele><time>2026-04-24T15:36:21.656Z</time></trkpt><trkpt lat="43.8428183" lon="11.3348826"><ele>408.0</ele><time>2026-04-24T15:36:22.656Z</time></trkpt><trkpt lat="43.8427273" lon="11.3348688"><ele>408.0</ele><time>2026-04-24T15:36:23.656Z</time></trkpt><trkpt lat="43.842657" lon="11.3348823"><ele>408.0</ele><time>2026-04-24T15:36:24.656Z</time></trkpt><trkpt lat="43.8425621" lon="11.3348879"><ele>408.0</ele><time>2026-04-24T15:36:25.655Z</time></trkpt><trkpt lat="43.8424832" lon="11.3348378"><ele>408.0</ele><time>2026-04-24T15:36:26.656Z</time></trkpt><trkpt lat="43.8424008" lon="11.3348154"><ele>408.0</ele><time>2026-04-24T15:36:27.656Z</time></trkpt><trkpt lat="43.842317" lon="11.3347972"><ele>408.0</ele><time>2026-04-24T15:36:28.656Z</time></trkpt><trkpt lat="43.8422303" lon="11.334777"><ele>409.0</ele><time>2026-04-24T15:36:29.655Z</time></trkpt><trkpt lat="43.8421419" lon="11.3347479"><ele>410.0</ele><time>2026-04-24T15:36:30.656Z</time></trkpt><trkpt lat="43.8420646" lon="11.3347274"><ele>411.0</ele><time>2026-04-24T15:36:31.656Z</time></trkpt><trkpt lat="43.8419761" lon="11.3347442"><ele>412.0</ele><time>2026-04-24T15:36:32.655Z</time></trkpt><trkpt lat="43.8418952" lon="11.3347846"><ele>413.0</ele><time>2026-04-24T15:36:33.656Z</time></trkpt><trkpt lat="43.8418104" lon="11.334822"><ele>414.0</ele><time>2026-04-24T15:36:34.656Z</time></trkpt><trkpt lat="43.8417313" lon="11.3348702"><ele>417.0</ele><time>2026-04-24T15:36:35.656Z</time></trkpt><trkpt lat="43.8416535" lon="11.3349042"><ele>420.0</ele><time>2026-04-24T15:36:36.656Z</time></trkpt><trkpt lat="43.8415565" lon="11.3349469"><ele>423.0</ele><time>2026-04-24T15:36:37.655Z</time></trkpt><trkpt lat="43.8414693" lon="11.3349521"><ele>426.0</ele><time>2026-04-24T15:36:38.656Z</time></trkpt><trkpt lat="43.8413544" lon="11.3348879"><ele>429.0</ele><time>2026-04-24T15:36:40.656Z</time></trkpt><trkpt lat="43.8412728" lon="11.3348394"><ele>429.0</ele><time>2026-04-24T15:36:42.656Z</time></trkpt><trkpt lat="43.8412413" lon="11.33474"><ele>429.0</ele><time>2026-04-24T15:36:45.656Z</time></trkpt><trkpt lat="43.8412345" lon="11.3346258"><ele>429.0</ele><time>2026-04-24T15:36:47.656Z</time></trkpt><trkpt lat="43.8411743" lon="11.3345352"><ele>429.0</ele><time>2026-04-24T15:36:49.656Z</time></trkpt><trkpt lat="43.8410847" lon="11.3344753"><ele>429.0</ele><time>2026-04-24T15:36:51.656Z</time></trkpt><trkpt lat="43.841055" lon="11.3343523"><ele>429.0</ele><time>2026-04-24T15:36:53.655Z</time></trkpt><trkpt lat="43.8410503" lon="11.3342032"><ele>426.79999999999995</ele><time>2026-04-24T15:36:55.656Z</time></trkpt><trkpt lat="43.841042" lon="11.334056"><ele>424.59999999999997</ele><time>2026-04-24T15:36:57.656Z</time></trkpt><trkpt lat="43.8410347" lon="11.333922"><ele>422.4</ele><time>2026-04-24T15:36:59.656Z</time></trkpt><trkpt lat="43.8410369" lon="11.333776"><ele>420.2</ele><time>2026-04-24T15:37:01.655Z</time></trkpt><trkpt lat="43.8410211" lon="11.3336533"><ele>418.0</ele><time>2026-04-24T15:37:03.656Z</time></trkpt><trkpt lat="43.8409769" lon="11.3335622"><ele>418.83333333333337</ele><time>2026-04-24T15:37:05.656Z</time></trkpt><trkpt lat="43.8408779" lon="11.3334751"><ele>419.6666666666667</ele><time>2026-04-24T15:37:07.655Z</time></trkpt><trkpt lat="43.8408079" lon="11.3334334"><ele>420.5</ele><time>2026-04-24T15:37:08.656Z</time></trkpt><trkpt lat="43.8407326" lon="11.3333742"><ele>421.33333333333337</ele><time>2026-04-24T15:37:09.656Z</time></trkpt><trkpt lat="43.8406666" lon="11.3333238"><ele>422.1666666666667</ele><time>2026-04-24T15:37:10.656Z</time></trkpt><trkpt lat="43.840607" lon="11.3332566"><ele>423.0</ele><time>2026-04-24T15:37:11.656Z</time></trkpt><trkpt lat="43.8405481" lon="11.3331833"><ele>423.0</ele><time>2026-04-24T15:37:12.656Z</time></trkpt><trkpt lat="43.8404824" lon="11.3331093"><ele>423.0</ele><time>2026-04-24T15:37:13.656Z</time></trkpt><trkpt lat="43.8404151" lon="11.3330358"><ele>423.0</ele><time>2026-04-24T15:37:14.656Z</time></trkpt><trkpt lat="43.8403465" lon="11.3329599"><ele>423.0</ele><time>2026-04-24T15:37:15.656Z</time></trkpt><trkpt lat="43.8402772" lon="11.3328816"><ele>423.0</ele><time>2026-04-24T15:37:16.656Z</time></trkpt><trkpt lat="43.8402115" lon="11.3327969"><ele>423.0</ele><time>2026-04-24T15:37:17.656Z</time></trkpt><trkpt lat="43.8401471" lon="11.3327007"><ele>420.2</ele><time>2026-04-24T15:37:18.656Z</time></trkpt><trkpt lat="43.840079" lon="11.3326003"><ele>417.4</ele><time>2026-04-24T15:37:19.656Z</time></trkpt><trkpt lat="43.8399992" lon="11.3324986"><ele>414.59999999999997</ele><time>2026-04-24T15:37:20.656Z</time></trkpt><trkpt lat="43.8399241" lon="11.3323875"><ele>411.79999999999995</ele><time>2026-04-24T15:37:21.656Z</time></trkpt><trkpt lat="43.8398517" lon="11.3322762"><ele>409.0</ele><time>2026-04-24T15:37:22.656Z</time></trkpt><trkpt lat="43.8397831" lon="11.3321654"><ele>404.4</ele><time>2026-04-24T15:37:23.656Z</time></trkpt><trkpt lat="43.8397214" lon="11.3320565"><ele>399.79999999999995</ele><time>2026-04-24T15:37:24.656Z</time></trkpt><trkpt lat="43.8396617" lon="11.3319538"><ele>395.20000000000005</ele><time>2026-04-24T15:37:25.656Z</time></trkpt><trkpt lat="43.839604" lon="11.3318603"><ele>390.6</ele><time>2026-04-24T15:37:26.655Z</time></trkpt><trkpt lat="43.8395431" lon="11.3317763"><ele>386.0</ele><time>2026-04-24T15:37:27.655Z</time></trkpt><trkpt lat="43.8394812" lon="11.3316892"><ele>386.0</ele><time>2026-04-24T15:37:28.656Z</time></trkpt><trkpt lat="43.8393923" lon="11.3315912"><ele>386.0</ele><time>2026-04-24T15:37:29.656Z</time></trkpt><trkpt lat="43.8393204" lon="11.3314995"><ele>386.0</ele><time>2026-04-24T15:37:30.656Z</time></trkpt><trkpt lat="43.839266" lon="11.3314513"><ele>386.0</ele><time>2026-04-24T15:37:31.656Z</time></trkpt><trkpt lat="43.8391564" lon="11.3314045"><ele>386.0</ele><time>2026-04-24T15:37:33.656Z</time></trkpt><trkpt lat="43.8390892" lon="11.331413"><ele>387.6</ele><time>2026-04-24T15:37:34.656Z</time></trkpt><trkpt lat="43.8389828" lon="11.3314612"><ele>389.20000000000005</ele><time>2026-04-24T15:37:36.656Z</time></trkpt><trkpt lat="43.8389003" lon="11.3315387"><ele>390.79999999999995</ele><time>2026-04-24T15:37:42.656Z</time></trkpt><trkpt lat="43.8388394" lon="11.3315936"><ele>392.4</ele><time>2026-04-24T15:37:44.656Z</time></trkpt><trkpt lat="43.8387103" lon="11.3315871"><ele>394.0</ele><time>2026-04-24T15:37:46.656Z</time></trkpt><trkpt lat="43.8386376" lon="11.331583"><ele>394.00000000000006</ele><time>2026-04-24T15:37:47.656Z</time></trkpt><trkpt lat="43.838573" lon="11.3315827"><ele>394.0</ele><time>2026-04-24T15:37:48.656Z</time></trkpt><trkpt lat="43.8385058" lon="11.3315963"><ele>394.0</ele><time>2026-04-24T15:37:50.656Z</time></trkpt><trkpt lat="43.8384286" lon="11.3315396"><ele>394.0</ele><time>2026-04-24T15:37:54.655Z</time></trkpt><trkpt lat="43.8383511" lon="11.3314618"><ele>394.00000000000006</ele><time>2026-04-24T15:37:56.656Z</time></trkpt><trkpt lat="43.838235" lon="11.3314176"><ele>394.0</ele><time>2026-04-24T15:37:58.656Z</time></trkpt><trkpt lat="43.8381232" lon="11.3313605"><ele>388.6</ele><time>2026-04-24T15:38:00.656Z</time></trkpt><trkpt lat="43.838022" lon="11.3313081"><ele>383.2</ele><time>2026-04-24T15:38:02.656Z</time></trkpt><trkpt lat="43.8379307" lon="11.3312629"><ele>377.8</ele><time>2026-04-24T15:38:04.656Z</time></trkpt><trkpt lat="43.8378169" lon="11.3312418"><ele>372.40000000000003</ele><time>2026-04-24T15:38:06.656Z</time></trkpt><trkpt lat="43.8377342" lon="11.3312485"><ele>367.0</ele><time>2026-04-24T15:38:07.656Z</time></trkpt><trkpt lat="43.8376445" lon="11.3312434"><ele>368.66666666666663</ele><time>2026-04-24T15:38:08.656Z</time></trkpt><trkpt lat="43.8375508" lon="11.3312337"><ele>370.3333333333333</ele><time>2026-04-24T15:38:09.656Z</time></trkpt><trkpt lat="43.8374724" lon="11.3312349"><ele>372.0</ele><time>2026-04-24T15:38:10.656Z</time></trkpt><trkpt lat="43.8373961" lon="11.3312406"><ele>373.6666666666667</ele><time>2026-04-24T15:38:11.656Z</time></trkpt><trkpt lat="43.8373255" lon="11.331238"><ele>375.33333333333337</ele><time>2026-04-24T15:38:12.656Z</time></trkpt><trkpt lat="43.8372032" lon="11.3311959"><ele>377.0</ele><time>2026-04-24T15:38:14.656Z</time></trkpt><trkpt lat="43.8371409" lon="11.3311485"><ele>377.0</ele><time>2026-04-24T15:38:15.656Z</time></trkpt><trkpt lat="43.8370782" lon="11.3310891"><ele>377.0</ele><time>2026-04-24T15:38:16.655Z</time></trkpt><trkpt lat="43.837024" lon="11.3310245"><ele>377.0</ele><time>2026-04-24T15:38:17.655Z</time></trkpt><trkpt lat="43.8369694" lon="11.3309614"><ele>377.0</ele><time>2026-04-24T15:38:18.656Z</time></trkpt><trkpt lat="43.8369136" lon="11.3309014"><ele>377.0</ele><time>2026-04-24T15:38:19.656Z</time></trkpt><trkpt lat="43.8368096" lon="11.3308079"><ele>377.0</ele><time>2026-04-24T15:38:21.656Z</time></trkpt><trkpt lat="43.8367512" lon="11.3307674"><ele>378.4285714285714</ele><time>2026-04-24T15:38:22.656Z</time></trkpt><trkpt lat="43.8366959" lon="11.3307155"><ele>379.85714285714283</ele><time>2026-04-24T15:38:23.656Z</time></trkpt><trkpt lat="43.8366475" lon="11.3306455"><ele>381.2857142857143</ele><time>2026-04-24T15:38:24.656Z</time></trkpt><trkpt lat="43.8366061" lon="11.3305714"><ele>382.71428571428567</ele><time>2026-04-24T15:38:25.655Z</time></trkpt><trkpt lat="43.8365714" lon="11.3304964"><ele>384.14285714285717</ele><time>2026-04-24T15:38:26.655Z</time></trkpt><trkpt lat="43.8365096" lon="11.3304186"><ele>385.57142857142856</ele><time>2026-04-24T15:38:28.656Z</time></trkpt><trkpt lat="43.8364435" lon="11.3303856"><ele>387.0</ele><time>2026-04-24T15:38:29.656Z</time></trkpt><trkpt lat="43.8363727" lon="11.3303685"><ele>387.0</ele><time>2026-04-24T15:38:30.656Z</time></trkpt><trkpt lat="43.8363085" lon="11.3303432"><ele>387.0</ele><time>2026-04-24T15:38:31.655Z</time></trkpt><trkpt lat="43.8362115" lon="11.3302963"><ele>387.0</ele><time>2026-04-24T15:38:33.655Z</time></trkpt><trkpt lat="43.836155" lon="11.3303379"><ele>387.0</ele><time>2026-04-24T15:38:43.656Z</time></trkpt><trkpt lat="43.8360956" lon="11.3303703"><ele>387.0</ele><time>2026-04-24T15:38:45.656Z</time></trkpt><trkpt lat="43.8360407" lon="11.3304186"><ele>387.0</ele><time>2026-04-24T15:38:48.656Z</time></trkpt><trkpt lat="43.8360341" lon="11.3303199"><ele>387.0</ele><time>2026-04-24T15:45:12.657Z</time></trkpt><trkpt lat="43.8360941" lon="11.3302723"><ele>387.0</ele><time>2026-04-24T15:45:14.657Z</time></trkpt><trkpt lat="43.8361605" lon="11.3302599"><ele>387.0</ele><time>2026-04-24T15:45:16.657Z</time></trkpt><trkpt lat="43.8361919" lon="11.330175"><ele>387.0</ele><time>2026-04-24T15:45:20.657Z</time></trkpt><trkpt lat="43.8360587" lon="11.330092"><ele>387.0</ele><time>2026-04-24T15:45:22.657Z</time></trkpt><trkpt lat="43.8359659" lon="11.3300036"><ele>387.0</ele><time>2026-04-24T15:45:23.656Z</time></trkpt><trkpt lat="43.8359023" lon="11.3299977"><ele>388.6666666666667</ele><time>2026-04-24T15:45:26.657Z</time></trkpt><trkpt lat="43.835845" lon="11.3300455"><ele>390.33333333333337</ele><time>2026-04-24T15:45:55.657Z</time></trkpt><trkpt lat="43.8357449" lon="11.3301353"><ele>392.0</ele><time>2026-04-24T15:45:57.657Z</time></trkpt><trkpt lat="43.8356836" lon="11.3301842"><ele>393.6666666666667</ele><time>2026-04-24T15:45:58.656Z</time></trkpt><trkpt lat="43.8356151" lon="11.330233"><ele>395.33333333333337</ele><time>2026-04-24T15:45:59.657Z</time></trkpt><trkpt lat="43.8355435" lon="11.3302883"><ele>397.0</ele><time>2026-04-24T15:46:00.657Z</time></trkpt><trkpt lat="43.8354711" lon="11.3303398"><ele>397.00000000000006</ele><time>2026-04-24T15:46:01.657Z</time></trkpt><trkpt lat="43.8354077" lon="11.3303918"><ele>397.0</ele><time>2026-04-24T15:46:02.656Z</time></trkpt><trkpt lat="43.8353564" lon="11.3305021"><ele>397.0</ele><time>2026-04-24T15:46:04.655Z</time></trkpt><trkpt lat="43.8354181" lon="11.3305914"><ele>397.0</ele><time>2026-04-24T15:46:06.657Z</time></trkpt><trkpt lat="43.8354895" lon="11.3306195"><ele>397.00000000000006</ele><time>2026-04-24T15:46:07.656Z</time></trkpt><trkpt lat="43.8355644" lon="11.33066"><ele>397.0</ele><time>2026-04-24T15:46:08.657Z</time></trkpt><trkpt lat="43.8356381" lon="11.3307105"><ele>399.33333333333337</ele><time>2026-04-24T15:46:09.657Z</time></trkpt><trkpt lat="43.8357126" lon="11.3307588"><ele>401.6666666666667</ele><time>2026-04-24T15:46:10.657Z</time></trkpt><trkpt lat="43.8357831" lon="11.3308084"><ele>404.0</ele><time>2026-04-24T15:46:11.657Z</time></trkpt><trkpt lat="43.835849" lon="11.3308595"><ele>406.33333333333337</ele><time>2026-04-24T15:46:12.657Z</time></trkpt><trkpt lat="43.8358982" lon="11.3309227"><ele>408.6666666666667</ele><time>2026-04-24T15:46:13.657Z</time></trkpt><trkpt lat="43.8359357" lon="11.3310599"><ele>411.0</ele><time>2026-04-24T15:46:15.657Z</time></trkpt><trkpt lat="43.8359113" lon="11.3312211"><ele>411.0</ele><time>2026-04-24T15:46:17.657Z</time></trkpt><trkpt lat="43.8358795" lon="11.3313494"><ele>411.0</ele><time>2026-04-24T15:46:19.656Z</time></trkpt><trkpt lat="43.8358555" lon="11.3314358"><ele>411.0</ele><time>2026-04-24T15:46:22.657Z</time></trkpt><trkpt lat="43.8358881" lon="11.3315189"><ele>411.0</ele><time>2026-04-24T15:46:24.657Z</time></trkpt><trkpt lat="43.8357933" lon="11.3315403"><ele>411.0</ele><time>2026-04-24T15:46:28.657Z</time></trkpt><trkpt lat="43.8357185" lon="11.3315156"><ele>411.0</ele><time>2026-04-24T15:46:29.657Z</time></trkpt><trkpt lat="43.8356378" lon="11.331504"><ele>413.8</ele><time>2026-04-24T15:46:30.657Z</time></trkpt><trkpt lat="43.8355511" lon="11.3315111"><ele>416.6</ele><time>2026-04-24T15:46:31.657Z</time></trkpt><trkpt lat="43.8354635" lon="11.3315418"><ele>419.4</ele><time>2026-04-24T15:46:32.657Z</time></trkpt><trkpt lat="43.8353762" lon="11.3315905"><ele>422.2</ele><time>2026-04-24T15:46:33.656Z</time></trkpt><trkpt lat="43.8352888" lon="11.3316563"><ele>425.0</ele><time>2026-04-24T15:46:34.656Z</time></trkpt><trkpt lat="43.8352007" lon="11.3317248"><ele>424.4</ele><time>2026-04-24T15:46:35.656Z</time></trkpt><trkpt lat="43.83511" lon="11.3317919"><ele>423.8</ele><time>2026-04-24T15:46:36.657Z</time></trkpt><trkpt lat="43.8350194" lon="11.3318536"><ele>423.20000000000005</ele><time>2026-04-24T15:46:37.657Z</time></trkpt><trkpt lat="43.8349264" lon="11.331895"><ele>422.6</ele><time>2026-04-24T15:46:38.657Z</time></trkpt><trkpt lat="43.8348282" lon="11.3319141"><ele>422.0</ele><time>2026-04-24T15:46:39.657Z</time></trkpt><trkpt lat="43.8347271" lon="11.3319001"><ele>422.0</ele><time>2026-04-24T15:46:40.657Z</time></trkpt><trkpt lat="43.8346221" lon="11.3318743"><ele>422.0</ele><time>2026-04-24T15:46:41.657Z</time></trkpt><trkpt lat="43.8345157" lon="11.331848"><ele>422.0</ele><time>2026-04-24T15:46:42.657Z</time></trkpt><trkpt lat="43.8344225" lon="11.3318186"><ele>422.0</ele><time>2026-04-24T15:46:43.657Z</time></trkpt><trkpt lat="43.8343366" lon="11.3317908"><ele>422.0</ele><time>2026-04-24T15:46:44.657Z</time></trkpt><trkpt lat="43.8342634" lon="11.3317594"><ele>422.6</ele><time>2026-04-24T15:46:45.657Z</time></trkpt><trkpt lat="43.8341808" lon="11.3317412"><ele>423.20000000000005</ele><time>2026-04-24T15:46:46.657Z</time></trkpt><trkpt lat="43.8340898" lon="11.3317248"><ele>423.8</ele><time>2026-04-24T15:46:47.657Z</time></trkpt><trkpt lat="43.8339911" lon="11.3317016"><ele>424.4</ele><time>2026-04-24T15:46:48.657Z</time></trkpt><trkpt lat="43.8338893" lon="11.3316753"><ele>425.0</ele><time>2026-04-24T15:46:49.657Z</time></trkpt><trkpt lat="43.8337819" lon="11.3316448"><ele>425.0</ele><time>2026-04-24T15:46:50.657Z</time></trkpt><trkpt lat="43.8336766" lon="11.3316129"><ele>425.0</ele><time>2026-04-24T15:46:51.657Z</time></trkpt><trkpt lat="43.833571" lon="11.3315756"><ele>425.0</ele><time>2026-04-24T15:46:52.657Z</time></trkpt><trkpt lat="43.8334724" lon="11.3315223"><ele>425.0</ele><time>2026-04-24T15:46:53.657Z</time></trkpt><trkpt lat="43.8333805" lon="11.3314625"><ele>425.0</ele><time>2026-04-24T15:46:54.657Z</time></trkpt><trkpt lat="43.8332883" lon="11.331408"><ele>423.99999999999994</ele><time>2026-04-24T15:46:55.657Z</time></trkpt><trkpt lat="43.8332002" lon="11.3313516"><ele>423.0</ele><time>2026-04-24T15:46:56.657Z</time></trkpt><trkpt lat="43.8331266" lon="11.3313018"><ele>422.0</ele><time>2026-04-24T15:46:57.656Z</time></trkpt><trkpt lat="43.8330622" lon="11.3312608"><ele>421.0</ele><time>2026-04-24T15:46:58.657Z</time></trkpt><trkpt lat="43.8329723" lon="11.3312146"><ele>419.99999999999994</ele><time>2026-04-24T15:47:00.657Z</time></trkpt><trkpt lat="43.8329079" lon="11.3311982"><ele>419.0</ele><time>2026-04-24T15:47:02.657Z</time></trkpt><trkpt lat="43.8328253" lon="11.3312431"><ele>418.99999999999994</ele><time>2026-04-24T15:47:04.657Z</time></trkpt><trkpt lat="43.8327664" lon="11.3313014"><ele>419.0</ele><time>2026-04-24T15:47:05.657Z</time></trkpt><trkpt lat="43.8327043" lon="11.3313716"><ele>419.0</ele><time>2026-04-24T15:47:06.657Z</time></trkpt><trkpt lat="43.8326406" lon="11.3314454"><ele>419.0</ele><time>2026-04-24T15:47:07.656Z</time></trkpt><trkpt lat="43.8325755" lon="11.3315193"><ele>418.99999999999994</ele><time>2026-04-24T15:47:08.657Z</time></trkpt><trkpt lat="43.832512" lon="11.331592"><ele>419.0</ele><time>2026-04-24T15:47:09.657Z</time></trkpt><trkpt lat="43.8324448" lon="11.3316626"><ele>422.3333333333333</ele><time>2026-04-24T15:47:10.657Z</time></trkpt><trkpt lat="43.8323751" lon="11.3317371"><ele>425.66666666666663</ele><time>2026-04-24T15:47:11.657Z</time></trkpt><trkpt lat="43.8323054" lon="11.33181"><ele>429.0</ele><time>2026-04-24T15:47:12.657Z</time></trkpt><trkpt lat="43.8322376" lon="11.3318839"><ele>432.33333333333337</ele><time>2026-04-24T15:47:13.656Z</time></trkpt><trkpt lat="43.8321708" lon="11.3319543"><ele>435.6666666666667</ele><time>2026-04-24T15:47:14.657Z</time></trkpt><trkpt lat="43.8321054" lon="11.3320254"><ele>439.0</ele><time>2026-04-24T15:47:15.657Z</time></trkpt><trkpt lat="43.8320438" lon="11.332092"><ele>439.0</ele><time>2026-04-24T15:47:16.657Z</time></trkpt><trkpt lat="43.8319892" lon="11.3321512"><ele>439.0</ele><time>2026-04-24T15:47:17.657Z</time></trkpt><trkpt lat="43.8319347" lon="11.3321975"><ele>439.0</ele><time>2026-04-24T15:47:18.657Z</time></trkpt><trkpt lat="43.8318338" lon="11.3321916"><ele>439.0</ele><time>2026-04-24T15:47:20.657Z</time></trkpt><trkpt lat="43.831784" lon="11.3321345"><ele>439.0</ele><time>2026-04-24T15:47:21.657Z</time></trkpt><trkpt lat="43.8317442" lon="11.3320565"><ele>439.0</ele><time>2026-04-24T15:47:22.657Z</time></trkpt><trkpt lat="43.8317021" lon="11.3319863"><ele>439.0</ele><time>2026-04-24T15:47:23.657Z</time></trkpt><trkpt lat="43.8316359" lon="11.3319283"><ele>439.83333333333337</ele><time>2026-04-24T15:47:24.657Z</time></trkpt><trkpt lat="43.8315631" lon="11.3318831"><ele>440.6666666666667</ele><time>2026-04-24T15:47:25.657Z</time></trkpt><trkpt lat="43.831505" lon="11.3318377"><ele>441.5</ele><time>2026-04-24T15:47:26.657Z</time></trkpt><trkpt lat="43.8314464" lon="11.3317802"><ele>442.33333333333337</ele><time>2026-04-24T15:47:27.656Z</time></trkpt><trkpt lat="43.8313917" lon="11.3317102"><ele>443.1666666666667</ele><time>2026-04-24T15:47:28.657Z</time></trkpt><trkpt lat="43.8313321" lon="11.3316348"><ele>444.0</ele><time>2026-04-24T15:47:29.657Z</time></trkpt><trkpt lat="43.8312663" lon="11.3315652"><ele>444.0</ele><time>2026-04-24T15:47:30.657Z</time></trkpt><trkpt lat="43.8312109" lon="11.331488"><ele>444.0</ele><time>2026-04-24T15:47:31.657Z</time></trkpt><trkpt lat="43.8311554" lon="11.3314164"><ele>444.0</ele><time>2026-04-24T15:47:32.657Z</time></trkpt><trkpt lat="43.8311085" lon="11.3313475"><ele>444.0</ele><time>2026-04-24T15:47:33.657Z</time></trkpt><trkpt lat="43.8310109" lon="11.3312607"><ele>444.0</ele><time>2026-04-24T15:47:35.657Z</time></trkpt><trkpt lat="43.8309176" lon="11.3312091"><ele>444.0</ele><time>2026-04-24T15:47:37.657Z</time></trkpt><trkpt lat="43.8308249" lon="11.3311423"><ele>445.2</ele><time>2026-04-24T15:47:39.657Z</time></trkpt><trkpt lat="43.8307479" lon="11.3311072"><ele>446.4</ele><time>2026-04-24T15:47:41.657Z</time></trkpt><trkpt lat="43.8306728" lon="11.3310939"><ele>447.6</ele><time>2026-04-24T15:47:43.657Z</time></trkpt><trkpt lat="43.8305618" lon="11.3311226"><ele>448.8</ele><time>2026-04-24T15:47:45.657Z</time></trkpt><trkpt lat="43.8304472" lon="11.3311723"><ele>450.0</ele><time>2026-04-24T15:47:47.657Z</time></trkpt><trkpt lat="43.8303792" lon="11.3311836"><ele>450.0</ele><time>2026-04-24T15:47:48.657Z</time></trkpt><trkpt lat="43.8302606" lon="11.3312379"><ele>450.0</ele><time>2026-04-24T15:47:50.657Z</time></trkpt><trkpt lat="43.8301561" lon="11.3312846"><ele>450.0</ele><time>2026-04-24T15:47:52.657Z</time></trkpt><trkpt lat="43.8300779" lon="11.331338"><ele>450.0</ele><time>2026-04-24T15:47:54.656Z</time></trkpt><trkpt lat="43.8300097" lon="11.3313246"><ele>450.0</ele><time>2026-04-24T15:47:57.657Z</time></trkpt><trkpt lat="43.8299866" lon="11.3312153"><ele>452.8333333333333</ele><time>2026-04-24T15:48:01.657Z</time></trkpt><trkpt lat="43.8299656" lon="11.331128"><ele>455.66666666666663</ele><time>2026-04-24T15:48:02.657Z</time></trkpt><trkpt lat="43.8299283" lon="11.3309999"><ele>458.5</ele><time>2026-04-24T15:48:03.657Z</time></trkpt><trkpt lat="43.8298961" lon="11.3308994"><ele>461.3333333333333</ele><time>2026-04-24T15:48:04.656Z</time></trkpt><trkpt lat="43.8298571" lon="11.3307926"><ele>464.16666666666663</ele><time>2026-04-24T15:48:05.657Z</time></trkpt><trkpt lat="43.8298044" lon="11.3307126"><ele>467.0</ele><time>2026-04-24T15:48:08.657Z</time></trkpt><trkpt lat="43.829727" lon="11.3306119"><ele>463.8</ele><time>2026-04-24T15:48:10.657Z</time></trkpt><trkpt lat="43.829628" lon="11.3305047"><ele>460.6</ele><time>2026-04-24T15:48:12.657Z</time></trkpt><trkpt lat="43.8295727" lon="11.3304415"><ele>457.40000000000003</ele><time>2026-04-24T15:48:13.657Z</time></trkpt><trkpt lat="43.8295161" lon="11.33038"><ele>454.20000000000005</ele><time>2026-04-24T15:48:14.657Z</time></trkpt><trkpt lat="43.8294111" lon="11.3303116"><ele>451.0</ele><time>2026-04-24T15:48:16.656Z</time></trkpt><trkpt lat="43.8293114" lon="11.3302583"><ele>453.8</ele><time>2026-04-24T15:48:18.657Z</time></trkpt><trkpt lat="43.8292046" lon="11.3302089"><ele>456.6</ele><time>2026-04-24T15:48:20.657Z</time></trkpt><trkpt lat="43.8291056" lon="11.3301575"><ele>459.4</ele><time>2026-04-24T15:48:22.657Z</time></trkpt><trkpt lat="43.8290206" lon="11.3300981"><ele>462.2</ele><time>2026-04-24T15:48:24.657Z</time></trkpt><trkpt lat="43.8289256" lon="11.3300504"><ele>465.0</ele><time>2026-04-24T15:48:26.657Z</time></trkpt><trkpt lat="43.8288272" lon="11.3300014"><ele>465.0</ele><time>2026-04-24T15:48:28.657Z</time></trkpt><trkpt lat="43.828743" lon="11.3299864"><ele>465.0</ele><time>2026-04-24T15:48:30.657Z</time></trkpt><trkpt lat="43.8286452" lon="11.3299938"><ele>465.0</ele><time>2026-04-24T15:48:33.657Z</time></trkpt><trkpt lat="43.8285504" lon="11.3299706"><ele>465.0</ele><time>2026-04-24T15:48:35.657Z</time></trkpt><trkpt lat="43.8284778" lon="11.3299622"><ele>465.0</ele><time>2026-04-24T15:48:36.657Z</time></trkpt><trkpt lat="43.8284134" lon="11.3299502"><ele>465.0</ele><time>2026-04-24T15:48:37.657Z</time></trkpt><trkpt lat="43.8283226" lon="11.3299258"><ele>467.3333333333333</ele><time>2026-04-24T15:48:38.657Z</time></trkpt><trkpt lat="43.8282422" lon="11.3299171"><ele>469.66666666666663</ele><time>2026-04-24T15:48:39.656Z</time></trkpt><trkpt lat="43.8281669" lon="11.3299201"><ele>472.0</ele><time>2026-04-24T15:48:40.657Z</time></trkpt><trkpt lat="43.8280824" lon="11.3298768"><ele>474.3333333333333</ele><time>2026-04-24T15:48:41.657Z</time></trkpt><trkpt lat="43.8280093" lon="11.329848"><ele>476.66666666666663</ele><time>2026-04-24T15:48:42.657Z</time></trkpt><trkpt lat="43.8279412" lon="11.3298187"><ele>479.0</ele><time>2026-04-24T15:48:43.657Z</time></trkpt><trkpt lat="43.8278766" lon="11.3298099"><ele>478.99999999999994</ele><time>2026-04-24T15:48:44.657Z</time></trkpt><trkpt lat="43.8278152" lon="11.3297898"><ele>479.0</ele><time>2026-04-24T15:48:45.656Z</time></trkpt><trkpt lat="43.827693" lon="11.3297712"><ele>479.0</ele><time>2026-04-24T15:48:47.656Z</time></trkpt><trkpt lat="43.8276306" lon="11.3297582"><ele>479.0</ele><time>2026-04-24T15:48:48.656Z</time></trkpt><trkpt lat="43.827564" lon="11.3297653"><ele>478.99999999999994</ele><time>2026-04-24T15:48:49.656Z</time></trkpt><trkpt lat="43.8274973" lon="11.3297857"><ele>479.0</ele><time>2026-04-24T15:48:50.657Z</time></trkpt><trkpt lat="43.8274252" lon="11.3298024"><ele>477.66666666666663</ele><time>2026-04-24T15:48:51.657Z</time></trkpt><trkpt lat="43.8273322" lon="11.3298451"><ele>476.3333333333333</ele><time>2026-04-24T15:48:52.657Z</time></trkpt><trkpt lat="43.8272284" lon="11.3298319"><ele>475.0</ele><time>2026-04-24T15:48:53.657Z</time></trkpt><trkpt lat="43.8271625" lon="11.3298227"><ele>473.66666666666663</ele><time>2026-04-24T15:48:54.657Z</time></trkpt><trkpt lat="43.8270945" lon="11.3298024"><ele>472.3333333333333</ele><time>2026-04-24T15:48:55.656Z</time></trkpt><trkpt lat="43.8270316" lon="11.329762"><ele>471.0</ele><time>2026-04-24T15:48:56.657Z</time></trkpt><trkpt lat="43.8269735" lon="11.3297223"><ele>471.0</ele><time>2026-04-24T15:48:57.657Z</time></trkpt><trkpt lat="43.8268972" lon="11.3296808"><ele>471.0</ele><time>2026-04-24T15:48:58.657Z</time></trkpt><trkpt lat="43.826817" lon="11.3296552"><ele>471.0</ele><time>2026-04-24T15:48:59.657Z</time></trkpt><trkpt lat="43.8267271" lon="11.3296381"><ele>471.0</ele><time>2026-04-24T15:49:00.657Z</time></trkpt><trkpt lat="43.8266529" lon="11.3296345"><ele>471.0</ele><time>2026-04-24T15:49:01.656Z</time></trkpt><trkpt lat="43.8265876" lon="11.3296274"><ele>471.0</ele><time>2026-04-24T15:49:02.657Z</time></trkpt><trkpt lat="43.8264893" lon="11.3296035"><ele>472.6666666666667</ele><time>2026-04-24T15:49:04.657Z</time></trkpt><trkpt lat="43.826423" lon="11.3295845"><ele>474.33333333333337</ele><time>2026-04-24T15:49:06.657Z</time></trkpt><trkpt lat="43.8263461" lon="11.3295702"><ele>476.0</ele><time>2026-04-24T15:49:08.657Z</time></trkpt><trkpt lat="43.826247" lon="11.3295412"><ele>477.6666666666667</ele><time>2026-04-24T15:49:10.657Z</time></trkpt><trkpt lat="43.8261385" lon="11.329455"><ele>479.33333333333337</ele><time>2026-04-24T15:49:12.657Z</time></trkpt><trkpt lat="43.8260832" lon="11.3294013"><ele>481.0</ele><time>2026-04-24T15:49:13.656Z</time></trkpt><trkpt lat="43.8259877" lon="11.3292884"><ele>482.50000000000006</ele><time>2026-04-24T15:49:15.657Z</time></trkpt><trkpt lat="43.8259412" lon="11.3292257"><ele>484.0</ele><time>2026-04-24T15:49:16.657Z</time></trkpt><trkpt lat="43.8258628" lon="11.3291091"><ele>485.5</ele><time>2026-04-24T15:49:18.657Z</time></trkpt><trkpt lat="43.8258001" lon="11.3290616"><ele>487.0</ele><time>2026-04-24T15:49:20.657Z</time></trkpt><trkpt lat="43.825729" lon="11.3290542"><ele>488.50000000000006</ele><time>2026-04-24T15:49:23.657Z</time></trkpt><trkpt lat="43.8256486" lon="11.329047"><ele>490.0</ele><time>2026-04-24T15:49:25.656Z</time></trkpt><trkpt lat="43.82557" lon="11.3290436"><ele>490.0</ele><time>2026-04-24T15:49:27.657Z</time></trkpt><trkpt lat="43.8254385" lon="11.329049"><ele>490.0</ele><time>2026-04-24T15:49:29.656Z</time></trkpt><trkpt lat="43.8253741" lon="11.3290415"><ele>490.0</ele><time>2026-04-24T15:49:30.656Z</time></trkpt><trkpt lat="43.825256" lon="11.3290305"><ele>490.0</ele><time>2026-04-24T15:49:32.657Z</time></trkpt><trkpt lat="43.8251649" lon="11.3290212"><ele>490.0</ele><time>2026-04-24T15:49:34.656Z</time></trkpt><trkpt lat="43.8250883" lon="11.329014"><ele>491.6666666666667</ele><time>2026-04-24T15:49:36.657Z</time></trkpt><trkpt lat="43.8249698" lon="11.3289956"><ele>493.33333333333337</ele><time>2026-04-24T15:49:38.657Z</time></trkpt><trkpt lat="43.8249012" lon="11.3289893"><ele>495.0</ele><time>2026-04-24T15:49:39.657Z</time></trkpt><trkpt lat="43.8248343" lon="11.3289831"><ele>496.66666666666663</ele><time>2026-04-24T15:49:40.657Z</time></trkpt><trkpt lat="43.8247693" lon="11.3289716"><ele>498.3333333333333</ele><time>2026-04-24T15:49:41.657Z</time></trkpt><trkpt lat="43.8246626" lon="11.3289568"><ele>500.0</ele><time>2026-04-24T15:49:43.657Z</time></trkpt><trkpt lat="43.8246049" lon="11.3290068"><ele>499.99999999999994</ele><time>2026-04-24T15:49:46.657Z</time></trkpt><trkpt lat="43.8245797" lon="11.3291422"><ele>500.0</ele><time>2026-04-24T15:49:48.657Z</time></trkpt><trkpt lat="43.8245709" lon="11.3292301"><ele>500.0</ele><time>2026-04-24T15:49:49.657Z</time></trkpt><trkpt lat="43.8245617" lon="11.3293864"><ele>500.0</ele><time>2026-04-24T15:49:51.657Z</time></trkpt><trkpt lat="43.8245435" lon="11.3295009"><ele>499.99999999999994</ele><time>2026-04-24T15:49:53.657Z</time></trkpt><trkpt lat="43.8245261" lon="11.3296051"><ele>500.0</ele><time>2026-04-24T15:50:05.657Z</time></trkpt><trkpt lat="43.8245107" lon="11.3297367"><ele>500.0</ele><time>2026-04-24T15:50:07.657Z</time></trkpt><trkpt lat="43.8244987" lon="11.3298499"><ele>500.0</ele><time>2026-04-24T15:50:09.657Z</time></trkpt><trkpt lat="43.8245087" lon="11.3299376"><ele>500.0</ele><time>2026-04-24T15:50:12.657Z</time></trkpt><trkpt lat="43.8245104" lon="11.3298384"><ele>500.0</ele><time>2026-04-24T15:50:17.656Z</time></trkpt><trkpt lat="43.8245188" lon="11.329737"><ele>500.0</ele><time>2026-04-24T15:50:19.657Z</time></trkpt><trkpt lat="43.8245325" lon="11.3296199"><ele>500.0</ele><time>2026-04-24T15:50:22.657Z</time></trkpt><trkpt lat="43.8245228" lon="11.329526"><ele>500.0</ele><time>2026-04-24T15:50:25.657Z</time></trkpt><trkpt lat="43.824463" lon="11.3294795"><ele>499.99999999999994</ele><time>2026-04-24T15:50:29.657Z</time></trkpt><trkpt lat="43.8244505" lon="11.3293847"><ele>500.0</ele><time>2026-04-24T15:50:33.657Z</time></trkpt><trkpt lat="43.8244467" lon="11.3294729"><ele>500.0</ele><time>2026-04-24T15:50:37.657Z</time></trkpt><trkpt lat="43.8244654" lon="11.3295665"><ele>500.0</ele><time>2026-04-24T15:50:41.656Z</time></trkpt><trkpt lat="43.8244291" lon="11.3296765"><ele>499.99999999999994</ele><time>2026-04-24T15:50:44.656Z</time></trkpt><trkpt lat="43.8244023" lon="11.3297829"><ele>500.0</ele><time>2026-04-24T15:50:46.656Z</time></trkpt><trkpt lat="43.8244032" lon="11.3298935"><ele>502.66666666666663</ele><time>2026-04-24T15:50:49.657Z</time></trkpt><trkpt lat="43.8244256" lon="11.3299777"><ele>505.3333333333333</ele><time>2026-04-24T15:50:53.657Z</time></trkpt><trkpt lat="43.8243214" lon="11.32999"><ele>508.0</ele><time>2026-04-24T15:50:57.656Z</time></trkpt><trkpt lat="43.8242293" lon="11.3299869"><ele>510.66666666666663</ele><time>2026-04-24T15:50:59.656Z</time></trkpt><trkpt lat="43.8241629" lon="11.3299872"><ele>513.3333333333334</ele><time>2026-04-24T15:51:00.656Z</time></trkpt><trkpt lat="43.8240989" lon="11.3299885"><ele>516.0</ele><time>2026-04-24T15:51:01.657Z</time></trkpt><trkpt lat="43.8240352" lon="11.3299882"><ele>517.2</ele><time>2026-04-24T15:51:02.657Z</time></trkpt><trkpt lat="43.8239107" lon="11.3299867"><ele>518.4000000000001</ele><time>2026-04-24T15:51:04.657Z</time></trkpt><trkpt lat="43.8237905" lon="11.3299918"><ele>519.6</ele><time>2026-04-24T15:51:06.657Z</time></trkpt><trkpt lat="43.8237268" lon="11.3300223"><ele>520.8000000000001</ele><time>2026-04-24T15:51:08.656Z</time></trkpt><trkpt lat="43.8236452" lon="11.3300063"><ele>522.0</ele><time>2026-04-24T15:51:10.656Z</time></trkpt><trkpt lat="43.8235302" lon="11.3300155"><ele>523.0</ele><time>2026-04-24T15:51:12.656Z</time></trkpt><trkpt lat="43.8234491" lon="11.3300676"><ele>524.0</ele><time>2026-04-24T15:51:14.657Z</time></trkpt><trkpt lat="43.8233536" lon="11.3301128"><ele>525.0</ele><time>2026-04-24T15:51:16.657Z</time></trkpt><trkpt lat="43.8232292" lon="11.3301505"><ele>526.0</ele><time>2026-04-24T15:51:18.657Z</time></trkpt><trkpt lat="43.8231584" lon="11.330168"><ele>527.0</ele><time>2026-04-24T15:51:20.657Z</time></trkpt><trkpt lat="43.8230843" lon="11.3301984"><ele>527.0</ele><time>2026-04-24T15:51:28.657Z</time></trkpt><trkpt lat="43.8229911" lon="11.330228"><ele>527.0</ele><time>2026-04-24T15:51:30.656Z</time></trkpt><trkpt lat="43.8228945" lon="11.3302407"><ele>527.0</ele><time>2026-04-24T15:51:33.657Z</time></trkpt><trkpt lat="43.822795" lon="11.3302626"><ele>527.0</ele><time>2026-04-24T15:51:35.656Z</time></trkpt><trkpt lat="43.8226677" lon="11.3302473"><ele>527.0</ele><time>2026-04-24T15:51:37.657Z</time></trkpt><trkpt lat="43.822576" lon="11.3302788"><ele>527.8333333333333</ele><time>2026-04-24T15:51:39.657Z</time></trkpt><trkpt lat="43.8225068" lon="11.3302946"><ele>528.6666666666666</ele><time>2026-04-24T15:51:40.657Z</time></trkpt><trkpt lat="43.8223457" lon="11.330249"><ele>529.5</ele><time>2026-04-24T15:51:42.657Z</time></trkpt><trkpt lat="43.8222722" lon="11.3302248"><ele>530.3333333333334</ele><time>2026-04-24T15:51:43.656Z</time></trkpt><trkpt lat="43.8222064" lon="11.3302131"><ele>531.1666666666667</ele><time>2026-04-24T15:51:44.657Z</time></trkpt><trkpt lat="43.8221356" lon="11.3301957"><ele>532.0</ele><time>2026-04-24T15:51:45.657Z</time></trkpt><trkpt lat="43.8220609" lon="11.3301765"><ele>532.0</ele><time>2026-04-24T15:51:46.657Z</time></trkpt><trkpt lat="43.8219829" lon="11.3301393"><ele>532.0</ele><time>2026-04-24T15:51:47.657Z</time></trkpt><trkpt lat="43.8219025" lon="11.3301037"><ele>532.0</ele><time>2026-04-24T15:51:48.655Z</time></trkpt><trkpt lat="43.821823" lon="11.3300832"><ele>532.0</ele><time>2026-04-24T15:51:49.657Z</time></trkpt><trkpt lat="43.8217532" lon="11.3300591"><ele>532.0</ele><time>2026-04-24T15:51:50.656Z</time></trkpt><trkpt lat="43.821686" lon="11.3300424"><ele>532.0</ele><time>2026-04-24T15:51:51.657Z</time></trkpt><trkpt lat="43.8216077" lon="11.3300126"><ele>532.6</ele><time>2026-04-24T15:51:53.657Z</time></trkpt><trkpt lat="43.8215265" lon="11.3300281"><ele>533.2</ele><time>2026-04-24T15:51:55.657Z</time></trkpt><trkpt lat="43.821439" lon="11.3300316"><ele>533.8</ele><time>2026-04-24T15:51:57.657Z</time></trkpt><trkpt lat="43.8213597" lon="11.3300483"><ele>534.4</ele><time>2026-04-24T15:51:59.657Z</time></trkpt><trkpt lat="43.8212855" lon="11.3300591"><ele>535.0</ele><time>2026-04-24T15:52:01.657Z</time></trkpt><trkpt lat="43.8211333" lon="11.3299758"><ele>535.0</ele><time>2026-04-24T15:52:04.657Z</time></trkpt><trkpt lat="43.8209915" lon="11.3299393"><ele>535.0</ele><time>2026-04-24T15:52:06.657Z</time></trkpt><trkpt lat="43.8208628" lon="11.3299059"><ele>535.0</ele><time>2026-04-24T15:52:08.656Z</time></trkpt><trkpt lat="43.8207731" lon="11.3298255"><ele>535.0</ele><time>2026-04-24T15:52:10.657Z</time></trkpt><trkpt lat="43.8207211" lon="11.3297568"><ele>534.6</ele><time>2026-04-24T15:52:12.657Z</time></trkpt><trkpt lat="43.8206447" lon="11.3296648"><ele>534.2</ele><time>2026-04-24T15:52:14.656Z</time></trkpt><trkpt lat="43.8205954" lon="11.3295607"><ele>533.8</ele><time>2026-04-24T15:52:15.657Z</time></trkpt><trkpt lat="43.8205489" lon="11.3294633"><ele>533.4</ele><time>2026-04-24T15:52:16.655Z</time></trkpt><trkpt lat="43.8205069" lon="11.3293399"><ele>533.0</ele><time>2026-04-24T15:52:17.657Z</time></trkpt><trkpt lat="43.8204649" lon="11.3292282"><ele>533.0</ele><time>2026-04-24T15:52:18.657Z</time></trkpt><trkpt lat="43.8204393" lon="11.3290949"><ele>533.0</ele><time>2026-04-24T15:52:19.657Z</time></trkpt><trkpt lat="43.8204051" lon="11.3289675"><ele>533.0</ele><time>2026-04-24T15:52:20.657Z</time></trkpt><trkpt lat="43.8203656" lon="11.3288419"><ele>533.0</ele><time>2026-04-24T15:52:21.657Z</time></trkpt><trkpt lat="43.8203238" lon="11.3287144"><ele>533.0</ele><time>2026-04-24T15:52:22.657Z</time></trkpt><trkpt lat="43.8202847" lon="11.3285839"><ele>531.8</ele><time>2026-04-24T15:52:23.657Z</time></trkpt><trkpt lat="43.8202448" lon="11.3284607"><ele>530.5999999999999</ele><time>2026-04-24T15:52:24.657Z</time></trkpt><trkpt lat="43.8202096" lon="11.3283417"><ele>529.4000000000001</ele><time>2026-04-24T15:52:25.657Z</time></trkpt><trkpt lat="43.8201724" lon="11.3282233"><ele>528.2</ele><time>2026-04-24T15:52:26.656Z</time></trkpt><trkpt lat="43.8201372" lon="11.3281093"><ele>527.0</ele><time>2026-04-24T15:52:27.657Z</time></trkpt><trkpt lat="43.8200998" lon="11.3279968"><ele>525.1666666666666</ele><time>2026-04-24T15:52:28.657Z</time></trkpt><trkpt lat="43.8200648" lon="11.3278816"><ele>523.3333333333333</ele><time>2026-04-24T15:52:29.657Z</time></trkpt><trkpt lat="43.8200296" lon="11.3277771"><ele>521.5</ele><time>2026-04-24T15:52:30.657Z</time></trkpt><trkpt lat="43.8199951" lon="11.3276721"><ele>519.6666666666666</ele><time>2026-04-24T15:52:31.657Z</time></trkpt><trkpt lat="43.8199623" lon="11.3275684"><ele>517.8333333333334</ele><time>2026-04-24T15:52:32.656Z</time></trkpt><trkpt lat="43.8199244" lon="11.3274693"><ele>516.0</ele><time>2026-04-24T15:52:33.657Z</time></trkpt><trkpt lat="43.8198728" lon="11.3273784"><ele>516.0</ele><time>2026-04-24T15:52:34.657Z</time></trkpt><trkpt lat="43.8198116" lon="11.3273014"><ele>516.0</ele><time>2026-04-24T15:52:35.657Z</time></trkpt><trkpt lat="43.8197363" lon="11.3272327"><ele>516.0</ele><time>2026-04-24T15:52:36.657Z</time></trkpt><trkpt lat="43.8196548" lon="11.3271746"><ele>516.0</ele><time>2026-04-24T15:52:37.657Z</time></trkpt><trkpt lat="43.8195679" lon="11.3271304"><ele>516.0</ele><time>2026-04-24T15:52:38.657Z</time></trkpt><trkpt lat="43.8194786" lon="11.3270925"><ele>514.6</ele><time>2026-04-24T15:52:39.657Z</time></trkpt><trkpt lat="43.8193529" lon="11.3270385"><ele>513.2</ele><time>2026-04-24T15:52:41.657Z</time></trkpt><trkpt lat="43.8192794" lon="11.3270174"><ele>511.79999999999995</ele><time>2026-04-24T15:52:43.657Z</time></trkpt><trkpt lat="43.8192079" lon="11.3269988"><ele>510.4</ele><time>2026-04-24T15:52:45.657Z</time></trkpt><trkpt lat="43.8191415" lon="11.3270496"><ele>509.0</ele><time>2026-04-24T15:52:47.657Z</time></trkpt><trkpt lat="43.819011" lon="11.3270389"><ele>508.6</ele><time>2026-04-24T15:52:49.657Z</time></trkpt><trkpt lat="43.8189376" lon="11.3270372"><ele>508.2</ele><time>2026-04-24T15:52:50.657Z</time></trkpt><trkpt lat="43.8188228" lon="11.3270272"><ele>507.80000000000007</ele><time>2026-04-24T15:52:52.657Z</time></trkpt><trkpt lat="43.8187525" lon="11.3270166"><ele>507.40000000000003</ele><time>2026-04-24T15:52:54.657Z</time></trkpt><trkpt lat="43.8186762" lon="11.3270343"><ele>507.0</ele><time>2026-04-24T15:52:58.657Z</time></trkpt><trkpt lat="43.8185559" lon="11.3270374"><ele>509.6</ele><time>2026-04-24T15:52:59.657Z</time></trkpt><trkpt lat="43.8184659" lon="11.3270581"><ele>512.2</ele><time>2026-04-24T15:53:00.657Z</time></trkpt><trkpt lat="43.8183682" lon="11.3270834"><ele>514.8</ele><time>2026-04-24T15:53:01.657Z</time></trkpt><trkpt lat="43.8182682" lon="11.3271063"><ele>517.4</ele><time>2026-04-24T15:53:02.657Z</time></trkpt><trkpt lat="43.818182" lon="11.3271267"><ele>520.0</ele><time>2026-04-24T15:53:03.657Z</time></trkpt><trkpt lat="43.818101" lon="11.327139"><ele>520.0000000000001</ele><time>2026-04-24T15:53:04.656Z</time></trkpt><trkpt lat="43.8180241" lon="11.3271434"><ele>520.0</ele><time>2026-04-24T15:53:05.657Z</time></trkpt><trkpt lat="43.8179524" lon="11.3271557"><ele>520.0</ele><time>2026-04-24T15:53:06.657Z</time></trkpt><trkpt lat="43.8178832" lon="11.327173"><ele>520.0</ele><time>2026-04-24T15:53:07.657Z</time></trkpt><trkpt lat="43.8178104" lon="11.3271961"><ele>520.0</ele><time>2026-04-24T15:53:08.657Z</time></trkpt><trkpt lat="43.8177393" lon="11.3272068"><ele>520.0000000000001</ele><time>2026-04-24T15:53:09.656Z</time></trkpt><trkpt lat="43.8176761" lon="11.3272295"><ele>520.0</ele><time>2026-04-24T15:53:10.655Z</time></trkpt><trkpt lat="43.8175963" lon="11.3272583"><ele>517.4</ele><time>2026-04-24T15:53:11.657Z</time></trkpt><trkpt lat="43.8175156" lon="11.3272781"><ele>514.8</ele><time>2026-04-24T15:53:12.657Z</time></trkpt><trkpt lat="43.8174457" lon="11.3272987"><ele>512.2</ele><time>2026-04-24T15:53:13.657Z</time></trkpt><trkpt lat="43.8173183" lon="11.327371"><ele>509.6</ele><time>2026-04-24T15:53:15.657Z</time></trkpt><trkpt lat="43.8172029" lon="11.3274273"><ele>507.0</ele><time>2026-04-24T15:53:17.657Z</time></trkpt><trkpt lat="43.8171349" lon="11.3274532"><ele>507.0</ele><time>2026-04-24T15:53:18.657Z</time></trkpt><trkpt lat="43.8170692" lon="11.3274639"><ele>507.0</ele><time>2026-04-24T15:53:19.657Z</time></trkpt><trkpt lat="43.8169491" lon="11.3274905"><ele>507.0</ele><time>2026-04-24T15:53:21.657Z</time></trkpt><trkpt lat="43.816887" lon="11.3275137"><ele>507.0</ele><time>2026-04-24T15:53:22.656Z</time></trkpt><trkpt lat="43.8168214" lon="11.3275231"><ele>507.0</ele><time>2026-04-24T15:53:23.657Z</time></trkpt><trkpt lat="43.8167578" lon="11.3275482"><ele>507.0</ele><time>2026-04-24T15:53:24.657Z</time></trkpt><trkpt lat="43.8166944" lon="11.3275866"><ele>508.0</ele><time>2026-04-24T15:53:25.656Z</time></trkpt><trkpt lat="43.8165736" lon="11.3276225"><ele>509.00000000000006</ele><time>2026-04-24T15:53:27.657Z</time></trkpt><trkpt lat="43.8165035" lon="11.3276298"><ele>510.00000000000006</ele><time>2026-04-24T15:53:28.656Z</time></trkpt><trkpt lat="43.816386" lon="11.3276579"><ele>511.0</ele><time>2026-04-24T15:53:30.657Z</time></trkpt><trkpt lat="43.81632" lon="11.327651"><ele>512.0</ele><time>2026-04-24T15:53:31.657Z</time></trkpt><trkpt lat="43.8162066" lon="11.3276068"><ele>512.0</ele><time>2026-04-24T15:53:33.657Z</time></trkpt><trkpt lat="43.8161037" lon="11.3275451"><ele>512.0</ele><time>2026-04-24T15:53:35.657Z</time></trkpt><trkpt lat="43.8159957" lon="11.3274452"><ele>512.0</ele><time>2026-04-24T15:53:37.656Z</time></trkpt><trkpt lat="43.8159311" lon="11.3273845"><ele>512.0</ele><time>2026-04-24T15:53:38.657Z</time></trkpt><trkpt lat="43.8158759" lon="11.3273251"><ele>512.0</ele><time>2026-04-24T15:53:39.656Z</time></trkpt><trkpt lat="43.8158293" lon="11.3272509"><ele>513.6666666666666</ele><time>2026-04-24T15:53:40.656Z</time></trkpt><trkpt lat="43.815791" lon="11.3271722"><ele>515.3333333333333</ele><time>2026-04-24T15:53:41.657Z</time></trkpt><trkpt lat="43.8157449" lon="11.3271126"><ele>517.0</ele><time>2026-04-24T15:53:42.657Z</time></trkpt><trkpt lat="43.8156841" lon="11.3270498"><ele>518.6666666666666</ele><time>2026-04-24T15:53:43.657Z</time></trkpt><trkpt lat="43.8156134" lon="11.3269974"><ele>520.3333333333334</ele><time>2026-04-24T15:53:44.657Z</time></trkpt><trkpt lat="43.8155533" lon="11.3269584"><ele>522.0</ele><time>2026-04-24T15:53:45.657Z</time></trkpt><trkpt lat="43.8154572" lon="11.3269282"><ele>522.0</ele><time>2026-04-24T15:53:47.657Z</time></trkpt><trkpt lat="43.8153287" lon="11.3269604"><ele>522.0</ele><time>2026-04-24T15:53:49.657Z</time></trkpt><trkpt lat="43.8152642" lon="11.3269806"><ele>522.0</ele><time>2026-04-24T15:53:50.657Z</time></trkpt><trkpt lat="43.8151856" lon="11.3269877"><ele>522.0</ele><time>2026-04-24T15:53:51.657Z</time></trkpt><trkpt lat="43.8151061" lon="11.3269954"><ele>522.0</ele><time>2026-04-24T15:53:52.657Z</time></trkpt><trkpt lat="43.8150064" lon="11.3270809"><ele>521.0</ele><time>2026-04-24T15:53:54.657Z</time></trkpt><trkpt lat="43.8149532" lon="11.3271477"><ele>520.0</ele><time>2026-04-24T15:53:55.657Z</time></trkpt><trkpt lat="43.814897" lon="11.327217"><ele>519.0</ele><time>2026-04-24T15:53:56.657Z</time></trkpt><trkpt lat="43.8148329" lon="11.3272604"><ele>518.0</ele><time>2026-04-24T15:53:57.656Z</time></trkpt><trkpt lat="43.8147538" lon="11.3272923"><ele>517.0</ele><time>2026-04-24T15:53:58.657Z</time></trkpt><trkpt lat="43.8146769" lon="11.3273065"><ele>516.0</ele><time>2026-04-24T15:53:59.657Z</time></trkpt><trkpt lat="43.8146024" lon="11.3273306"><ele>513.1666666666666</ele><time>2026-04-24T15:54:00.657Z</time></trkpt><trkpt lat="43.8145184" lon="11.3273517"><ele>510.33333333333337</ele><time>2026-04-24T15:54:01.657Z</time></trkpt><trkpt lat="43.8144405" lon="11.3273624"><ele>507.5</ele><time>2026-04-24T15:54:02.656Z</time></trkpt><trkpt lat="43.8143722" lon="11.3273703"><ele>504.6666666666667</ele><time>2026-04-24T15:54:03.656Z</time></trkpt><trkpt lat="43.8142596" lon="11.3273564"><ele>501.83333333333337</ele><time>2026-04-24T15:54:05.657Z</time></trkpt><trkpt lat="43.8141973" lon="11.3273299"><ele>499.0</ele><time>2026-04-24T15:54:06.657Z</time></trkpt><trkpt lat="43.8140891" lon="11.3272988"><ele>499.0</ele><time>2026-04-24T15:54:08.656Z</time></trkpt><trkpt lat="43.8140155" lon="11.3272362"><ele>499.0</ele><time>2026-04-24T15:54:10.657Z</time></trkpt><trkpt lat="43.8139135" lon="11.3271952"><ele>499.0</ele><time>2026-04-24T15:54:12.657Z</time></trkpt><trkpt lat="43.8138319" lon="11.3271889"><ele>499.0</ele><time>2026-04-24T15:54:14.657Z</time></trkpt><trkpt lat="43.8137464" lon="11.3271203"><ele>499.0</ele><time>2026-04-24T15:54:16.657Z</time></trkpt><trkpt lat="43.8136704" lon="11.327001"><ele>497.79999999999995</ele><time>2026-04-24T15:54:18.657Z</time></trkpt><trkpt lat="43.8135855" lon="11.326879"><ele>496.59999999999997</ele><time>2026-04-24T15:54:20.658Z</time></trkpt><trkpt lat="43.8134987" lon="11.3267849"><ele>495.4</ele><time>2026-04-24T15:54:22.657Z</time></trkpt><trkpt lat="43.8134127" lon="11.326708"><ele>494.2</ele><time>2026-04-24T15:54:24.658Z</time></trkpt><trkpt lat="43.8133423" lon="11.3266369"><ele>493.0</ele><time>2026-04-24T15:54:26.658Z</time></trkpt><trkpt lat="43.8132677" lon="11.3265359"><ele>493.0</ele><time>2026-04-24T15:54:29.657Z</time></trkpt><trkpt lat="43.8131874" lon="11.3264754"><ele>492.99999999999994</ele><time>2026-04-24T15:54:31.658Z</time></trkpt><trkpt lat="43.8131016" lon="11.3264036"><ele>492.99999999999994</ele><time>2026-04-24T15:54:33.658Z</time></trkpt><trkpt lat="43.8130098" lon="11.3263255"><ele>493.0</ele><time>2026-04-24T15:54:35.657Z</time></trkpt><trkpt lat="43.8129219" lon="11.3262681"><ele>493.0</ele><time>2026-04-24T15:54:37.658Z</time></trkpt><trkpt lat="43.8128528" lon="11.3262286"><ele>492.1666666666667</ele><time>2026-04-24T15:54:39.658Z</time></trkpt><trkpt lat="43.8127846" lon="11.3261941"><ele>491.33333333333337</ele><time>2026-04-24T15:54:41.658Z</time></trkpt><trkpt lat="43.8127213" lon="11.3261839"><ele>490.5</ele><time>2026-04-24T15:54:43.658Z</time></trkpt><trkpt lat="43.8126493" lon="11.3262003"><ele>489.66666666666663</ele><time>2026-04-24T15:54:46.658Z</time></trkpt><trkpt lat="43.8125762" lon="11.3262368"><ele>488.8333333333333</ele><time>2026-04-24T15:54:48.656Z</time></trkpt><trkpt lat="43.8124856" lon="11.3262161"><ele>488.0</ele><time>2026-04-24T15:54:50.658Z</time></trkpt><trkpt lat="43.8124094" lon="11.326191"><ele>487.99999999999994</ele><time>2026-04-24T15:54:52.658Z</time></trkpt><trkpt lat="43.8123344" lon="11.3261322"><ele>488.0</ele><time>2026-04-24T15:54:54.658Z</time></trkpt><trkpt lat="43.8122608" lon="11.3260804"><ele>488.0</ele><time>2026-04-24T15:54:56.657Z</time></trkpt><trkpt lat="43.8121871" lon="11.3260538"><ele>488.0</ele><time>2026-04-24T15:54:58.658Z</time></trkpt><trkpt lat="43.8121064" lon="11.3260139"><ele>487.99999999999994</ele><time>2026-04-24T15:55:00.658Z</time></trkpt><trkpt lat="43.8120137" lon="11.3259538"><ele>488.0</ele><time>2026-04-24T15:55:02.658Z</time></trkpt><trkpt lat="43.8119405" lon="11.3258695"><ele>487.99999999999994</ele><time>2026-04-24T15:55:04.658Z</time></trkpt><trkpt lat="43.8119049" lon="11.3257398"><ele>488.0</ele><time>2026-04-24T15:55:06.658Z</time></trkpt><trkpt lat="43.8118767" lon="11.325632"><ele>488.0</ele><time>2026-04-24T15:55:08.658Z</time></trkpt><trkpt lat="43.8118285" lon="11.3255442"><ele>488.0</ele><time>2026-04-24T15:55:10.658Z</time></trkpt><trkpt lat="43.8117782" lon="11.3254509"><ele>487.99999999999994</ele><time>2026-04-24T15:55:12.658Z</time></trkpt><trkpt lat="43.8117183" lon="11.3253633"><ele>488.0</ele><time>2026-04-24T15:55:14.658Z</time></trkpt><trkpt lat="43.8116649" lon="11.3252532"><ele>486.2</ele><time>2026-04-24T15:55:16.658Z</time></trkpt><trkpt lat="43.8116108" lon="11.3251592"><ele>484.4</ele><time>2026-04-24T15:55:18.658Z</time></trkpt><trkpt lat="43.8115373" lon="11.3251083"><ele>482.59999999999997</ele><time>2026-04-24T15:55:20.657Z</time></trkpt><trkpt lat="43.8114316" lon="11.325085"><ele>480.79999999999995</ele><time>2026-04-24T15:55:22.658Z</time></trkpt><trkpt lat="43.8113217" lon="11.3250786"><ele>479.0</ele><time>2026-04-24T15:55:24.658Z</time></trkpt><trkpt lat="43.8112147" lon="11.3250285"><ele>478.99999999999994</ele><time>2026-04-24T15:55:26.657Z</time></trkpt><trkpt lat="43.8111547" lon="11.3249997"><ele>479.0</ele><time>2026-04-24T15:55:27.657Z</time></trkpt><trkpt lat="43.8110505" lon="11.3249489"><ele>479.0</ele><time>2026-04-24T15:55:29.658Z</time></trkpt><trkpt lat="43.8109819" lon="11.3248901"><ele>479.0</ele><time>2026-04-24T15:55:31.657Z</time></trkpt><trkpt lat="43.8109309" lon="11.3248224"><ele>478.99999999999994</ele><time>2026-04-24T15:55:33.658Z</time></trkpt><trkpt lat="43.8108585" lon="11.3248405"><ele>479.0</ele><time>2026-04-24T15:55:37.658Z</time></trkpt><trkpt lat="43.810844" lon="11.3249892"><ele>476.0</ele><time>2026-04-24T15:55:39.658Z</time></trkpt><trkpt lat="43.8108415" lon="11.3250956"><ele>473.0</ele><time>2026-04-24T15:55:40.658Z</time></trkpt><trkpt lat="43.8107328" lon="11.3252067"><ele>470.0</ele><time>2026-04-24T15:55:42.658Z</time></trkpt><trkpt lat="43.8106305" lon="11.3252626"><ele>467.0</ele><time>2026-04-24T15:55:43.658Z</time></trkpt><trkpt lat="43.8104947" lon="11.3253372"><ele>467.0</ele><time>2026-04-24T15:55:44.658Z</time></trkpt><trkpt lat="43.8103623" lon="11.3254076"><ele>467.0</ele><time>2026-04-24T15:55:45.657Z</time></trkpt><trkpt lat="43.8102377" lon="11.3254951"><ele>467.0</ele><time>2026-04-24T15:55:46.657Z</time></trkpt><trkpt lat="43.810113" lon="11.3255712"><ele>467.0</ele><time>2026-04-24T15:55:47.658Z</time></trkpt><trkpt lat="43.8099936" lon="11.3256298"><ele>463.40000000000003</ele><time>2026-04-24T15:55:48.656Z</time></trkpt><trkpt lat="43.8098831" lon="11.3256688"><ele>459.80000000000007</ele><time>2026-04-24T15:55:49.658Z</time></trkpt><trkpt lat="43.8097819" lon="11.3257209"><ele>456.2</ele><time>2026-04-24T15:55:50.657Z</time></trkpt><trkpt lat="43.8096864" lon="11.3257644"><ele>452.6</ele><time>2026-04-24T15:55:51.658Z</time></trkpt><trkpt lat="43.8096036" lon="11.3257786"><ele>449.0</ele><time>2026-04-24T15:55:53.657Z</time></trkpt><trkpt lat="43.8095567" lon="11.3258405"><ele>449.0</ele><time>2026-04-24T15:55:57.658Z</time></trkpt><trkpt lat="43.8095492" lon="11.3259319"><ele>449.0</ele><time>2026-04-24T15:56:00.658Z</time></trkpt><trkpt lat="43.8094134" lon="11.3259816"><ele>449.0</ele><time>2026-04-24T15:56:02.656Z</time></trkpt><trkpt lat="43.8093321" lon="11.3260462"><ele>449.0</ele><time>2026-04-24T15:56:03.658Z</time></trkpt><trkpt lat="43.8092573" lon="11.3261254"><ele>449.0</ele><time>2026-04-24T15:56:04.658Z</time></trkpt><trkpt lat="43.8091861" lon="11.3261841"><ele>447.99999999999994</ele><time>2026-04-24T15:56:05.658Z</time></trkpt><trkpt lat="43.809114" lon="11.3262177"><ele>447.0</ele><time>2026-04-24T15:56:06.657Z</time></trkpt><trkpt lat="43.8090128" lon="11.3262325"><ele>446.0</ele><time>2026-04-24T15:56:07.658Z</time></trkpt><trkpt lat="43.8089246" lon="11.3262485"><ele>445.0</ele><time>2026-04-24T15:56:08.658Z</time></trkpt><trkpt lat="43.8088439" lon="11.326259"><ele>443.99999999999994</ele><time>2026-04-24T15:56:09.658Z</time></trkpt><trkpt lat="43.808773" lon="11.3262569"><ele>443.0</ele><time>2026-04-24T15:56:10.658Z</time></trkpt><trkpt lat="43.8086676" lon="11.3262995"><ele>442.99999999999994</ele><time>2026-04-24T15:56:12.658Z</time></trkpt><trkpt lat="43.8085902" lon="11.3262222"><ele>443.0</ele><time>2026-04-24T15:56:15.658Z</time></trkpt><trkpt lat="43.8085283" lon="11.3261824"><ele>443.0</ele><time>2026-04-24T15:56:17.658Z</time></trkpt><trkpt lat="43.8084346" lon="11.3262"><ele>443.0</ele><time>2026-04-24T15:56:19.658Z</time></trkpt><trkpt lat="43.8083731" lon="11.3262464"><ele>442.99999999999994</ele><time>2026-04-24T15:56:21.658Z</time></trkpt><trkpt lat="43.8083264" lon="11.3263353"><ele>443.0</ele><time>2026-04-24T15:56:23.657Z</time></trkpt><trkpt lat="43.8082847" lon="11.3264152"><ele>442.42857142857144</ele><time>2026-04-24T15:56:25.657Z</time></trkpt><trkpt lat="43.8082435" lon="11.326482"><ele>441.8571428571429</ele><time>2026-04-24T15:56:27.657Z</time></trkpt><trkpt lat="43.808179" lon="11.326537"><ele>441.2857142857143</ele><time>2026-04-24T15:56:30.657Z</time></trkpt><trkpt lat="43.8081312" lon="11.3266099"><ele>440.7142857142857</ele><time>2026-04-24T15:56:33.658Z</time></trkpt><trkpt lat="43.8080853" lon="11.3266714"><ele>440.1428571428571</ele><time>2026-04-24T15:56:35.658Z</time></trkpt><trkpt lat="43.8080236" lon="11.3267014"><ele>439.57142857142856</ele><time>2026-04-24T15:56:38.657Z</time></trkpt><trkpt lat="43.8079589" lon="11.326725"><ele>439.0</ele><time>2026-04-24T15:56:40.658Z</time></trkpt><trkpt lat="43.8078934" lon="11.3267"><ele>439.0</ele><time>2026-04-24T15:56:42.658Z</time></trkpt><trkpt lat="43.8078002" lon="11.3266667"><ele>439.0</ele><time>2026-04-24T15:56:44.658Z</time></trkpt><trkpt lat="43.8077062" lon="11.3266729"><ele>439.0</ele><time>2026-04-24T15:56:46.658Z</time></trkpt><trkpt lat="43.8076097" lon="11.3267114"><ele>439.0</ele><time>2026-04-24T15:56:48.658Z</time></trkpt><trkpt lat="43.8074783" lon="11.326713"><ele>439.0</ele><time>2026-04-24T15:56:50.657Z</time></trkpt><trkpt lat="43.8073941" lon="11.3267354"><ele>436.0</ele><time>2026-04-24T15:56:51.658Z</time></trkpt><trkpt lat="43.8073325" lon="11.326765"><ele>433.0</ele><time>2026-04-24T15:56:52.658Z</time></trkpt><trkpt lat="43.8071985" lon="11.3267645"><ele>430.0</ele><time>2026-04-24T15:56:54.658Z</time></trkpt><trkpt lat="43.8070953" lon="11.3267494"><ele>427.0</ele><time>2026-04-24T15:56:56.657Z</time></trkpt><trkpt lat="43.8069984" lon="11.3267662"><ele>424.0</ele><time>2026-04-24T15:56:58.658Z</time></trkpt><trkpt lat="43.8069123" lon="11.3268692"><ele>422.0</ele><time>2026-04-24T15:57:00.658Z</time></trkpt><trkpt lat="43.8068056" lon="11.3269158"><ele>420.0</ele><time>2026-04-24T15:57:02.658Z</time></trkpt><trkpt lat="43.806707" lon="11.3269572"><ele>418.0</ele><time>2026-04-24T15:57:04.658Z</time></trkpt><trkpt lat="43.8066027" lon="11.3269921"><ele>416.0</ele><time>2026-04-24T15:57:06.658Z</time></trkpt><trkpt lat="43.8064767" lon="11.3270248"><ele>415.99999999999994</ele><time>2026-04-24T15:57:08.658Z</time></trkpt><trkpt lat="43.806391" lon="11.3270284"><ele>416.0</ele><time>2026-04-24T15:57:10.657Z</time></trkpt><trkpt lat="43.8063183" lon="11.3269589"><ele>416.0</ele><time>2026-04-24T15:57:12.658Z</time></trkpt><trkpt lat="43.8062476" lon="11.326895"><ele>416.0</ele><time>2026-04-24T15:57:15.658Z</time></trkpt><trkpt lat="43.806159" lon="11.3268481"><ele>415.99999999999994</ele><time>2026-04-24T15:57:18.658Z</time></trkpt><trkpt lat="43.8060921" lon="11.3268196"><ele>416.0</ele><time>2026-04-24T15:57:21.658Z</time></trkpt><trkpt lat="43.8059996" lon="11.3267572"><ele>414.99999999999994</ele><time>2026-04-24T15:57:24.658Z</time></trkpt><trkpt lat="43.8059133" lon="11.3266921"><ele>414.0</ele><time>2026-04-24T15:57:26.658Z</time></trkpt><trkpt lat="43.8058433" lon="11.3266689"><ele>413.0</ele><time>2026-04-24T15:57:28.658Z</time></trkpt><trkpt lat="43.8057589" lon="11.3266333"><ele>412.0</ele><time>2026-04-24T15:57:31.658Z</time></trkpt><trkpt lat="43.8057323" lon="11.3265518"><ele>410.99999999999994</ele><time>2026-04-24T15:57:34.657Z</time></trkpt><trkpt lat="43.8056874" lon="11.3264631"><ele>410.0</ele><time>2026-04-24T15:57:37.658Z</time></trkpt><trkpt lat="43.8056229" lon="11.3264271"><ele>406.0</ele><time>2026-04-24T15:57:39.658Z</time></trkpt><trkpt lat="43.8055571" lon="11.3263834"><ele>402.0</ele><time>2026-04-24T15:57:41.658Z</time></trkpt><trkpt lat="43.8054647" lon="11.3262941"><ele>398.0</ele><time>2026-04-24T15:57:43.657Z</time></trkpt><trkpt lat="43.8053899" lon="11.3262521"><ele>394.0</ele><time>2026-04-24T15:57:45.658Z</time></trkpt><trkpt lat="43.8052761" lon="11.3262124"><ele>390.0</ele><time>2026-04-24T15:57:47.658Z</time></trkpt><trkpt lat="43.8051705" lon="11.3261763"><ele>390.0</ele><time>2026-04-24T15:57:49.658Z</time></trkpt><trkpt lat="43.8050989" lon="11.3261572"><ele>390.0</ele><time>2026-04-24T15:57:52.658Z</time></trkpt><trkpt lat="43.8050406" lon="11.326087"><ele>390.0</ele><time>2026-04-24T15:57:56.658Z</time></trkpt><trkpt lat="43.8049685" lon="11.3260489"><ele>390.0</ele><time>2026-04-24T15:57:58.658Z</time></trkpt><trkpt lat="43.804894" lon="11.3260314"><ele>390.0</ele><time>2026-04-24T15:58:00.658Z</time></trkpt><trkpt lat="43.8048074" lon="11.3260062"><ele>390.0</ele><time>2026-04-24T15:58:02.658Z</time></trkpt><trkpt lat="43.8047116" lon="11.3259722"><ele>390.0</ele><time>2026-04-24T15:58:04.658Z</time></trkpt><trkpt lat="43.8046663" lon="11.3258947"><ele>390.0</ele><time>2026-04-24T15:58:05.658Z</time></trkpt><trkpt lat="43.8046344" lon="11.325806"><ele>390.0</ele><time>2026-04-24T15:58:06.658Z</time></trkpt><trkpt lat="43.8045624" lon="11.3257161"><ele>390.0</ele><time>2026-04-24T15:58:08.657Z</time></trkpt><trkpt lat="43.8045173" lon="11.3256349"><ele>390.0</ele><time>2026-04-24T15:58:10.658Z</time></trkpt><trkpt lat="43.8044475" lon="11.3255698"><ele>390.0</ele><time>2026-04-24T15:58:13.658Z</time></trkpt><trkpt lat="43.8043706" lon="11.3255498"><ele>387.3333333333333</ele><time>2026-04-24T15:58:15.658Z</time></trkpt><trkpt lat="43.8043222" lon="11.3254908"><ele>384.6666666666667</ele><time>2026-04-24T15:58:16.658Z</time></trkpt><trkpt lat="43.804225" lon="11.3254277"><ele>382.0</ele><time>2026-04-24T15:58:18.658Z</time></trkpt><trkpt lat="43.8041611" lon="11.3253741"><ele>379.33333333333337</ele><time>2026-04-24T15:58:20.658Z</time></trkpt><trkpt lat="43.8040801" lon="11.325322"><ele>376.6666666666667</ele><time>2026-04-24T15:58:22.658Z</time></trkpt><trkpt lat="43.8039996" lon="11.3252919"><ele>374.0</ele><time>2026-04-24T15:58:24.658Z</time></trkpt><trkpt lat="43.8039375" lon="11.325209"><ele>374.0</ele><time>2026-04-24T15:58:27.658Z</time></trkpt><trkpt lat="43.8038983" lon="11.3251254"><ele>374.0</ele><time>2026-04-24T15:58:54.658Z</time></trkpt><trkpt lat="43.8038265" lon="11.3251207"><ele>374.0</ele><time>2026-04-24T15:58:56.658Z</time></trkpt><trkpt lat="43.8037129" lon="11.325132"><ele>374.0</ele><time>2026-04-24T15:58:57.658Z</time></trkpt><trkpt lat="43.8036326" lon="11.3251317"><ele>374.0</ele><time>2026-04-24T15:58:58.658Z</time></trkpt><trkpt lat="43.8035481" lon="11.3251302"><ele>374.0</ele><time>2026-04-24T15:58:59.658Z</time></trkpt><trkpt lat="43.8034494" lon="11.3251122"><ele>373.0</ele><time>2026-04-24T15:59:00.657Z</time></trkpt><trkpt lat="43.8033529" lon="11.3251119"><ele>372.0</ele><time>2026-04-24T15:59:01.658Z</time></trkpt><trkpt lat="43.8032586" lon="11.3251287"><ele>371.0</ele><time>2026-04-24T15:59:02.658Z</time></trkpt><trkpt lat="43.8031642" lon="11.3251299"><ele>370.0</ele><time>2026-04-24T15:59:03.658Z</time></trkpt><trkpt lat="43.8030734" lon="11.3251237"><ele>369.0</ele><time>2026-04-24T15:59:04.658Z</time></trkpt><trkpt lat="43.8029853" lon="11.3251243"><ele>369.0</ele><time>2026-04-24T15:59:05.658Z</time></trkpt><trkpt lat="43.8028994" lon="11.3251379"><ele>369.0</ele><time>2026-04-24T15:59:06.658Z</time></trkpt><trkpt lat="43.8028129" lon="11.3251517"><ele>369.0</ele><time>2026-04-24T15:59:07.658Z</time></trkpt><trkpt lat="43.8027342" lon="11.325167"><ele>369.0</ele><time>2026-04-24T15:59:08.658Z</time></trkpt><trkpt lat="43.8026512" lon="11.3251873"><ele>369.0</ele><time>2026-04-24T15:59:09.657Z</time></trkpt><trkpt lat="43.8025656" lon="11.3252"><ele>369.0</ele><time>2026-04-24T15:59:10.657Z</time></trkpt><trkpt lat="43.8024826" lon="11.3252145"><ele>369.1666666666667</ele><time>2026-04-24T15:59:11.658Z</time></trkpt><trkpt lat="43.8023993" lon="11.325215"><ele>369.3333333333333</ele><time>2026-04-24T15:59:12.657Z</time></trkpt><trkpt lat="43.8023228" lon="11.325222"><ele>369.5</ele><time>2026-04-24T15:59:13.658Z</time></trkpt><trkpt lat="43.8022469" lon="11.3252364"><ele>369.66666666666663</ele><time>2026-04-24T15:59:14.658Z</time></trkpt><trkpt lat="43.8021603" lon="11.3252236"><ele>369.8333333333333</ele><time>2026-04-24T15:59:15.658Z</time></trkpt><trkpt lat="43.8020749" lon="11.3251986"><ele>370.0</ele><time>2026-04-24T15:59:16.658Z</time></trkpt><trkpt lat="43.8019886" lon="11.3251771"><ele>370.0</ele><time>2026-04-24T15:59:17.658Z</time></trkpt><trkpt lat="43.8018978" lon="11.3251674"><ele>370.0</ele><time>2026-04-24T15:59:18.658Z</time></trkpt><trkpt lat="43.8018177" lon="11.325187"><ele>370.0</ele><time>2026-04-24T15:59:19.658Z</time></trkpt><trkpt lat="43.8017156" lon="11.3251984"><ele>370.0</ele><time>2026-04-24T15:59:20.658Z</time></trkpt><trkpt lat="43.8016191" lon="11.3252205"><ele>370.0</ele><time>2026-04-24T15:59:21.657Z</time></trkpt><trkpt lat="43.8015393" lon="11.3252486"><ele>371.5</ele><time>2026-04-24T15:59:22.658Z</time></trkpt><trkpt lat="43.8014534" lon="11.3252725"><ele>373.0</ele><time>2026-04-24T15:59:23.658Z</time></trkpt><trkpt lat="43.8013719" lon="11.3253136"><ele>374.5</ele><time>2026-04-24T15:59:24.658Z</time></trkpt><trkpt lat="43.8012851" lon="11.3253438"><ele>376.0</ele><time>2026-04-24T15:59:25.658Z</time></trkpt><trkpt lat="43.8012064" lon="11.3253631"><ele>377.5</ele><time>2026-04-24T15:59:26.658Z</time></trkpt><trkpt lat="43.8011113" lon="11.3253562"><ele>379.0</ele><time>2026-04-24T15:59:27.658Z</time></trkpt><trkpt lat="43.8010373" lon="11.3253337"><ele>378.6</ele><time>2026-04-24T15:59:28.658Z</time></trkpt><trkpt lat="43.8009652" lon="11.3252989"><ele>378.2</ele><time>2026-04-24T15:59:29.658Z</time></trkpt><trkpt lat="43.8008807" lon="11.325265"><ele>377.8</ele><time>2026-04-24T15:59:30.658Z</time></trkpt><trkpt lat="43.8008092" lon="11.3252476"><ele>377.40000000000003</ele><time>2026-04-24T15:59:31.658Z</time></trkpt><trkpt lat="43.8006964" lon="11.3252821"><ele>377.0</ele><time>2026-04-24T15:59:33.657Z</time></trkpt><trkpt lat="43.8005871" lon="11.3252786"><ele>377.0</ele><time>2026-04-24T15:59:34.658Z</time></trkpt><trkpt lat="43.800492" lon="11.3252674"><ele>377.0</ele><time>2026-04-24T15:59:35.657Z</time></trkpt><trkpt lat="43.8003972" lon="11.3252427"><ele>377.0</ele><time>2026-04-24T15:59:36.658Z</time></trkpt><trkpt lat="43.8003137" lon="11.3252083"><ele>377.0</ele><time>2026-04-24T15:59:37.658Z</time></trkpt><trkpt lat="43.8002338" lon="11.3251668"><ele>377.0</ele><time>2026-04-24T15:59:38.658Z</time></trkpt><trkpt lat="43.8001517" lon="11.3251428"><ele>377.0</ele><time>2026-04-24T15:59:39.658Z</time></trkpt><trkpt lat="43.8000638" lon="11.3251265"><ele>375.40000000000003</ele><time>2026-04-24T15:59:40.658Z</time></trkpt><trkpt lat="43.7999801" lon="11.3251131"><ele>373.8</ele><time>2026-04-24T15:59:41.658Z</time></trkpt><trkpt lat="43.7999096" lon="11.325114"><ele>372.2</ele><time>2026-04-24T15:59:42.658Z</time></trkpt><trkpt lat="43.7998054" lon="11.3251185"><ele>370.6</ele><time>2026-04-24T15:59:44.658Z</time></trkpt><trkpt lat="43.7996984" lon="11.3251129"><ele>369.0</ele><time>2026-04-24T15:59:46.658Z</time></trkpt><trkpt lat="43.799597" lon="11.3250786"><ele>369.0</ele><time>2026-04-24T15:59:48.658Z</time></trkpt><trkpt lat="43.7995334" lon="11.3250541"><ele>369.0</ele><time>2026-04-24T15:59:49.657Z</time></trkpt><trkpt lat="43.799453" lon="11.3250168"><ele>369.0</ele><time>2026-04-24T15:59:50.658Z</time></trkpt><trkpt lat="43.7993656" lon="11.3249769"><ele>369.0</ele><time>2026-04-24T15:59:51.658Z</time></trkpt><trkpt lat="43.7992863" lon="11.3249516"><ele>369.0</ele><time>2026-04-24T15:59:52.658Z</time></trkpt><trkpt lat="43.7992158" lon="11.3249194"><ele>369.0</ele><time>2026-04-24T15:59:53.658Z</time></trkpt><trkpt lat="43.7991448" lon="11.324892"><ele>368.6</ele><time>2026-04-24T15:59:54.658Z</time></trkpt><trkpt lat="43.7990521" lon="11.3248741"><ele>368.2</ele><time>2026-04-24T15:59:56.658Z</time></trkpt><trkpt lat="43.7989666" lon="11.3248616"><ele>367.8</ele><time>2026-04-24T15:59:58.657Z</time></trkpt><trkpt lat="43.7988934" lon="11.3248679"><ele>367.40000000000003</ele><time>2026-04-24T16:00:12.658Z</time></trkpt><trkpt lat="43.7987793" lon="11.3249274"><ele>367.0</ele><time>2026-04-24T16:00:15.658Z</time></trkpt><trkpt lat="43.7986964" lon="11.3249578"><ele>367.0</ele><time>2026-04-24T16:00:17.657Z</time></trkpt><trkpt lat="43.7985997" lon="11.3249563"><ele>367.0</ele><time>2026-04-24T16:00:19.658Z</time></trkpt><trkpt lat="43.798535" lon="11.3249726"><ele>367.0</ele><time>2026-04-24T16:00:20.658Z</time></trkpt><trkpt lat="43.7984527" lon="11.3249613"><ele>367.0</ele><time>2026-04-24T16:00:21.658Z</time></trkpt><trkpt lat="43.7983542" lon="11.3249398"><ele>367.0</ele><time>2026-04-24T16:00:22.658Z</time></trkpt><trkpt lat="43.7982592" lon="11.3248981"><ele>367.0</ele><time>2026-04-24T16:00:23.658Z</time></trkpt><trkpt lat="43.7981383" lon="11.3248706"><ele>367.0</ele><time>2026-04-24T16:00:25.658Z</time></trkpt><trkpt lat="43.798044" lon="11.3248464"><ele>367.0</ele><time>2026-04-24T16:00:26.658Z</time></trkpt><trkpt lat="43.797947" lon="11.3248275"><ele>367.0</ele><time>2026-04-24T16:00:27.658Z</time></trkpt><trkpt lat="43.797874" lon="11.3248152"><ele>367.0</ele><time>2026-04-24T16:00:29.658Z</time></trkpt><trkpt lat="43.7978253" lon="11.324725"><ele>367.0</ele><time>2026-04-24T16:00:31.658Z</time></trkpt><trkpt lat="43.7977275" lon="11.3246731"><ele>366.3333333333333</ele><time>2026-04-24T16:00:33.657Z</time></trkpt><trkpt lat="43.797648" lon="11.3246566"><ele>365.66666666666663</ele><time>2026-04-24T16:00:35.657Z</time></trkpt><trkpt lat="43.7975388" lon="11.3246086"><ele>365.0</ele><time>2026-04-24T16:00:37.656Z</time></trkpt><trkpt lat="43.7974677" lon="11.3246062"><ele>364.3333333333333</ele><time>2026-04-24T16:00:38.658Z</time></trkpt><trkpt lat="43.7974036" lon="11.3245834"><ele>363.6666666666667</ele><time>2026-04-24T16:00:39.658Z</time></trkpt><trkpt lat="43.7973519" lon="11.3245062"><ele>363.0</ele><time>2026-04-24T16:00:40.658Z</time></trkpt><trkpt lat="43.7972843" lon="11.3244749"><ele>363.0</ele><time>2026-04-24T16:00:41.658Z</time></trkpt><trkpt lat="43.7971814" lon="11.324492"><ele>363.0</ele><time>2026-04-24T16:00:43.658Z</time></trkpt><trkpt lat="43.7971126" lon="11.3244837"><ele>363.0</ele><time>2026-04-24T16:00:44.657Z</time></trkpt><trkpt lat="43.7970352" lon="11.3244818"><ele>363.0</ele><time>2026-04-24T16:00:45.658Z</time></trkpt><trkpt lat="43.7969601" lon="11.324475"><ele>363.0</ele><time>2026-04-24T16:00:46.658Z</time></trkpt><trkpt lat="43.7968736" lon="11.324437"><ele>363.0</ele><time>2026-04-24T16:00:47.658Z</time></trkpt><trkpt lat="43.7968056" lon="11.3244011"><ele>361.8333333333333</ele><time>2026-04-24T16:00:48.656Z</time></trkpt><trkpt lat="43.7967338" lon="11.3243891"><ele>360.6666666666667</ele><time>2026-04-24T16:00:49.658Z</time></trkpt><trkpt lat="43.7966635" lon="11.3243547"><ele>359.5</ele><time>2026-04-24T16:00:50.658Z</time></trkpt><trkpt lat="43.7965417" lon="11.3243246"><ele>358.33333333333337</ele><time>2026-04-24T16:00:52.658Z</time></trkpt><trkpt lat="43.7964808" lon="11.3243023"><ele>357.1666666666667</ele><time>2026-04-24T16:00:53.658Z</time></trkpt><trkpt lat="43.7963827" lon="11.3242513"><ele>356.0</ele><time>2026-04-24T16:00:55.658Z</time></trkpt><trkpt lat="43.7963224" lon="11.3242139"><ele>356.0</ele><time>2026-04-24T16:00:56.658Z</time></trkpt><trkpt lat="43.7962616" lon="11.3241813"><ele>356.0</ele><time>2026-04-24T16:00:57.658Z</time></trkpt><trkpt lat="43.7961515" lon="11.3241396"><ele>356.0</ele><time>2026-04-24T16:00:59.658Z</time></trkpt><trkpt lat="43.7960555" lon="11.3240774"><ele>356.0</ele><time>2026-04-24T16:01:01.657Z</time></trkpt><trkpt lat="43.7959669" lon="11.3240686"><ele>356.0</ele><time>2026-04-24T16:01:03.658Z</time></trkpt><trkpt lat="43.7958917" lon="11.3240363"><ele>354.33333333333337</ele><time>2026-04-24T16:01:05.657Z</time></trkpt><trkpt lat="43.7957974" lon="11.323997"><ele>352.6666666666667</ele><time>2026-04-24T16:01:07.658Z</time></trkpt><trkpt lat="43.7957292" lon="11.3240157"><ele>351.0</ele><time>2026-04-24T16:01:09.658Z</time></trkpt><trkpt lat="43.7956447" lon="11.3239407"><ele>349.3333333333333</ele><time>2026-04-24T16:01:12.658Z</time></trkpt><trkpt lat="43.795574" lon="11.3238661"><ele>347.66666666666663</ele><time>2026-04-24T16:01:14.658Z</time></trkpt><trkpt lat="43.7954973" lon="11.3238063"><ele>346.0</ele><time>2026-04-24T16:01:17.658Z</time></trkpt><trkpt lat="43.7954107" lon="11.3238019"><ele>345.16666666666663</ele><time>2026-04-24T16:01:20.658Z</time></trkpt><trkpt lat="43.7953276" lon="11.3237588"><ele>344.3333333333333</ele><time>2026-04-24T16:01:23.658Z</time></trkpt><trkpt lat="43.7952625" lon="11.3236819"><ele>343.5</ele><time>2026-04-24T16:01:26.657Z</time></trkpt><trkpt lat="43.7951798" lon="11.3237447"><ele>342.6666666666667</ele><time>2026-04-24T16:01:28.658Z</time></trkpt><trkpt lat="43.7951257" lon="11.3237932"><ele>341.83333333333337</ele><time>2026-04-24T16:01:29.658Z</time></trkpt><trkpt lat="43.79506" lon="11.3238287"><ele>341.0</ele><time>2026-04-24T16:01:31.657Z</time></trkpt><trkpt lat="43.7949771" lon="11.3238517"><ele>340.33333333333337</ele><time>2026-04-24T16:01:33.658Z</time></trkpt><trkpt lat="43.794865" lon="11.3239116"><ele>339.6666666666667</ele><time>2026-04-24T16:01:35.658Z</time></trkpt><trkpt lat="43.7947942" lon="11.3239731"><ele>339.0</ele><time>2026-04-24T16:01:37.658Z</time></trkpt><trkpt lat="43.7947121" lon="11.3239643"><ele>338.3333333333333</ele><time>2026-04-24T16:01:39.658Z</time></trkpt><trkpt lat="43.7946353" lon="11.3239526"><ele>337.66666666666663</ele><time>2026-04-24T16:01:41.657Z</time></trkpt><trkpt lat="43.7945671" lon="11.3238915"><ele>337.0</ele><time>2026-04-24T16:01:43.657Z</time></trkpt><trkpt lat="43.7945304" lon="11.3238177"><ele>336.16666666666663</ele><time>2026-04-24T16:01:45.658Z</time></trkpt><trkpt lat="43.7945021" lon="11.3237284"><ele>335.3333333333333</ele><time>2026-04-24T16:01:48.658Z</time></trkpt><trkpt lat="43.7945179" lon="11.3236222"><ele>334.5</ele><time>2026-04-24T16:01:51.658Z</time></trkpt><trkpt lat="43.7945059" lon="11.3235064"><ele>333.6666666666667</ele><time>2026-04-24T16:01:56.657Z</time></trkpt><trkpt lat="43.7944343" lon="11.3234861"><ele>332.83333333333337</ele><time>2026-04-24T16:01:58.657Z</time></trkpt><trkpt lat="43.794334" lon="11.3234628"><ele>332.0</ele><time>2026-04-24T16:02:00.657Z</time></trkpt><trkpt lat="43.7942622" lon="11.3234159"><ele>330.5</ele><time>2026-04-24T16:02:02.658Z</time></trkpt><trkpt lat="43.7942052" lon="11.3233466"><ele>329.0</ele><time>2026-04-24T16:02:04.658Z</time></trkpt><trkpt lat="43.7941347" lon="11.3232887"><ele>327.5</ele><time>2026-04-24T16:02:07.658Z</time></trkpt><trkpt lat="43.7940837" lon="11.323234"><ele>326.0</ele><time>2026-04-24T16:02:12.657Z</time></trkpt><trkpt lat="43.7940229" lon="11.3232054"><ele>324.5</ele><time>2026-04-24T16:02:15.658Z</time></trkpt><trkpt lat="43.7939531" lon="11.3231296"><ele>323.0</ele><time>2026-04-24T16:02:18.658Z</time></trkpt><trkpt lat="43.7939031" lon="11.3230507"><ele>321.00000000000006</ele><time>2026-04-24T16:02:21.658Z</time></trkpt><trkpt lat="43.7938525" lon="11.3229988"><ele>319.0</ele><time>2026-04-24T16:02:23.658Z</time></trkpt><trkpt lat="43.7937841" lon="11.3229716"><ele>317.0</ele><time>2026-04-24T16:02:25.658Z</time></trkpt><trkpt lat="43.7937116" lon="11.3229064"><ele>315.0</ele><time>2026-04-24T16:02:28.658Z</time></trkpt><trkpt lat="43.7936397" lon="11.3228657"><ele>313.0</ele><time>2026-04-24T16:02:32.658Z</time></trkpt><trkpt lat="43.7935668" lon="11.3228516"><ele>311.00000000000006</ele><time>2026-04-24T16:02:34.658Z</time></trkpt><trkpt lat="43.7935088" lon="11.3227918"><ele>309.0</ele><time>2026-04-24T16:02:37.657Z</time></trkpt><trkpt lat="43.7934491" lon="11.3227318"><ele>307.2</ele><time>2026-04-24T16:02:40.658Z</time></trkpt><trkpt lat="43.7933824" lon="11.3226851"><ele>305.4</ele><time>2026-04-24T16:02:42.658Z</time></trkpt><trkpt lat="43.7933152" lon="11.3226407"><ele>303.6</ele><time>2026-04-24T16:02:44.658Z</time></trkpt><trkpt lat="43.7932521" lon="11.3226388"><ele>301.8</ele><time>2026-04-24T16:02:46.658Z</time></trkpt><trkpt lat="43.7931699" lon="11.3225983"><ele>300.0</ele><time>2026-04-24T16:02:47.658Z</time></trkpt><trkpt lat="43.792973" lon="11.3224906"><ele>300.0</ele><time>2026-04-24T16:02:48.658Z</time></trkpt><trkpt lat="43.7929039" lon="11.3224578"><ele>300.0</ele><time>2026-04-24T16:02:49.657Z</time></trkpt><trkpt lat="43.7927775" lon="11.3223373"><ele>300.0</ele><time>2026-04-24T16:02:51.658Z</time></trkpt><trkpt lat="43.7927288" lon="11.3222662"><ele>300.0</ele><time>2026-04-24T16:02:52.657Z</time></trkpt><trkpt lat="43.7926766" lon="11.3222015"><ele>300.0</ele><time>2026-04-24T16:02:53.658Z</time></trkpt><trkpt lat="43.7926154" lon="11.3221332"><ele>300.0</ele><time>2026-04-24T16:02:54.658Z</time></trkpt><trkpt lat="43.7925601" lon="11.3220882"><ele>297.3333333333333</ele><time>2026-04-24T16:02:55.658Z</time></trkpt><trkpt lat="43.792498" lon="11.3220298"><ele>294.6666666666667</ele><time>2026-04-24T16:02:57.658Z</time></trkpt><trkpt lat="43.7924466" lon="11.3219551"><ele>292.0</ele><time>2026-04-24T16:02:59.658Z</time></trkpt><trkpt lat="43.792371" lon="11.3219319"><ele>289.33333333333337</ele><time>2026-04-24T16:03:02.658Z</time></trkpt><trkpt lat="43.7922699" lon="11.3218761"><ele>286.6666666666667</ele><time>2026-04-24T16:03:04.658Z</time></trkpt><trkpt lat="43.7921828" lon="11.3218513"><ele>284.0</ele><time>2026-04-24T16:03:06.658Z</time></trkpt><trkpt lat="43.7921256" lon="11.3218003"><ele>284.0</ele><time>2026-04-24T16:03:07.657Z</time></trkpt><trkpt lat="43.792045" lon="11.3217633"><ele>284.0</ele><time>2026-04-24T16:03:10.658Z</time></trkpt><trkpt lat="43.7919792" lon="11.3217394"><ele>284.0</ele><time>2026-04-24T16:03:12.658Z</time></trkpt><trkpt lat="43.7918942" lon="11.3216995"><ele>284.0</ele><time>2026-04-24T16:03:13.658Z</time></trkpt><trkpt lat="43.7917858" lon="11.3216329"><ele>284.0</ele><time>2026-04-24T16:03:15.658Z</time></trkpt><trkpt lat="43.7917198" lon="11.3215882"><ele>284.0</ele><time>2026-04-24T16:03:17.658Z</time></trkpt><trkpt lat="43.7916504" lon="11.3215158"><ele>282.2</ele><time>2026-04-24T16:03:19.658Z</time></trkpt><trkpt lat="43.7915682" lon="11.3214522"><ele>280.4</ele><time>2026-04-24T16:03:21.658Z</time></trkpt><trkpt lat="43.7914995" lon="11.3213759"><ele>278.6</ele><time>2026-04-24T16:03:23.658Z</time></trkpt><trkpt lat="43.7914324" lon="11.3212101"><ele>276.8</ele><time>2026-04-24T16:03:25.658Z</time></trkpt><trkpt lat="43.7913743" lon="11.3211181"><ele>275.0</ele><time>2026-04-24T16:03:26.658Z</time></trkpt><trkpt lat="43.7912826" lon="11.3210224"><ele>273.6</ele><time>2026-04-24T16:03:27.657Z</time></trkpt><trkpt lat="43.7912087" lon="11.3209483"><ele>272.2</ele><time>2026-04-24T16:03:28.658Z</time></trkpt><trkpt lat="43.7911439" lon="11.3208689"><ele>270.8</ele><time>2026-04-24T16:03:29.658Z</time></trkpt><trkpt lat="43.7910886" lon="11.3207827"><ele>269.4</ele><time>2026-04-24T16:03:30.658Z</time></trkpt><trkpt lat="43.7910397" lon="11.3207048"><ele>268.0</ele><time>2026-04-24T16:03:31.657Z</time></trkpt><trkpt lat="43.7909445" lon="11.3206053"><ele>265.3333333333333</ele><time>2026-04-24T16:03:33.658Z</time></trkpt><trkpt lat="43.7908891" lon="11.3205536"><ele>262.66666666666663</ele><time>2026-04-24T16:03:34.658Z</time></trkpt><trkpt lat="43.7908139" lon="11.3204211"><ele>260.0</ele><time>2026-04-24T16:03:36.658Z</time></trkpt><trkpt lat="43.7907474" lon="11.3203527"><ele>257.3333333333333</ele><time>2026-04-24T16:03:37.658Z</time></trkpt><trkpt lat="43.7906763" lon="11.3202909"><ele>254.66666666666666</ele><time>2026-04-24T16:03:38.658Z</time></trkpt><trkpt lat="43.7906133" lon="11.3202261"><ele>252.0</ele><time>2026-04-24T16:03:39.658Z</time></trkpt><trkpt lat="43.7905612" lon="11.3201498"><ele>252.0</ele><time>2026-04-24T16:03:40.658Z</time></trkpt><trkpt lat="43.7905056" lon="11.3201026"><ele>252.0</ele><time>2026-04-24T16:03:41.658Z</time></trkpt><trkpt lat="43.7904602" lon="11.3199733"><ele>252.0</ele><time>2026-04-24T16:03:43.658Z</time></trkpt><trkpt lat="43.7904755" lon="11.3198618"><ele>252.0</ele><time>2026-04-24T16:03:45.658Z</time></trkpt><trkpt lat="43.7904721" lon="11.319766"><ele>252.0</ele><time>2026-04-24T16:03:48.657Z</time></trkpt><trkpt lat="43.7905101" lon="11.3196896"><ele>252.0</ele><time>2026-04-24T16:03:54.658Z</time></trkpt><trkpt lat="43.790623" lon="11.3197062"><ele>250.16666666666666</ele><time>2026-04-24T16:03:56.658Z</time></trkpt><trkpt lat="43.7907362" lon="11.3196435"><ele>248.33333333333331</ele><time>2026-04-24T16:03:58.657Z</time></trkpt><trkpt lat="43.7908017" lon="11.3196221"><ele>246.5</ele><time>2026-04-24T16:03:59.658Z</time></trkpt><trkpt lat="43.790876" lon="11.319629"><ele>244.66666666666666</ele><time>2026-04-24T16:04:00.657Z</time></trkpt><trkpt lat="43.7909556" lon="11.3196449"><ele>242.83333333333331</ele><time>2026-04-24T16:04:01.658Z</time></trkpt><trkpt lat="43.79104" lon="11.3196528"><ele>241.0</ele><time>2026-04-24T16:04:02.658Z</time></trkpt><trkpt lat="43.7911219" lon="11.3196816"><ele>240.83333333333331</ele><time>2026-04-24T16:04:03.658Z</time></trkpt><trkpt lat="43.7912045" lon="11.3197231"><ele>240.66666666666666</ele><time>2026-04-24T16:04:04.658Z</time></trkpt><trkpt lat="43.7912896" lon="11.3197497"><ele>240.5</ele><time>2026-04-24T16:04:05.658Z</time></trkpt><trkpt lat="43.7913737" lon="11.3197685"><ele>240.33333333333331</ele><time>2026-04-24T16:04:06.658Z</time></trkpt><trkpt lat="43.7914574" lon="11.3197843"><ele>240.16666666666666</ele><time>2026-04-24T16:04:07.658Z</time></trkpt><trkpt lat="43.7915369" lon="11.3197947"><ele>240.0</ele><time>2026-04-24T16:04:08.658Z</time></trkpt><trkpt lat="43.7916142" lon="11.3198108"><ele>241.83333333333334</ele><time>2026-04-24T16:04:09.658Z</time></trkpt><trkpt lat="43.7916906" lon="11.3198293"><ele>243.66666666666669</ele><time>2026-04-24T16:04:10.658Z</time></trkpt><trkpt lat="43.7917628" lon="11.31984"><ele>245.5</ele><time>2026-04-24T16:04:11.657Z</time></trkpt><trkpt lat="43.7918377" lon="11.3198401"><ele>247.33333333333334</ele><time>2026-04-24T16:04:12.658Z</time></trkpt><trkpt lat="43.7919189" lon="11.3198175"><ele>249.16666666666669</ele><time>2026-04-24T16:04:13.658Z</time></trkpt><trkpt lat="43.7919924" lon="11.3197766"><ele>251.0</ele><time>2026-04-24T16:04:14.657Z</time></trkpt><trkpt lat="43.7920518" lon="11.3197348"><ele>251.20000000000002</ele><time>2026-04-24T16:04:15.658Z</time></trkpt><trkpt lat="43.7921445" lon="11.3197177"><ele>251.40000000000003</ele><time>2026-04-24T16:04:17.657Z</time></trkpt><trkpt lat="43.7922665" lon="11.319787"><ele>251.6</ele><time>2026-04-24T16:04:19.658Z</time></trkpt><trkpt lat="43.7923332" lon="11.3198473"><ele>251.8</ele><time>2026-04-24T16:04:20.658Z</time></trkpt><trkpt lat="43.7924105" lon="11.3199093"><ele>252.0</ele><time>2026-04-24T16:04:21.658Z</time></trkpt><trkpt lat="43.7924938" lon="11.3199561"><ele>252.0</ele><time>2026-04-24T16:04:22.658Z</time></trkpt><trkpt lat="43.7925871" lon="11.3199901"><ele>252.0</ele><time>2026-04-24T16:04:23.658Z</time></trkpt><trkpt lat="43.7926767" lon="11.3200334"><ele>252.0</ele><time>2026-04-24T16:04:24.658Z</time></trkpt><trkpt lat="43.7927597" lon="11.3200848"><ele>252.0</ele><time>2026-04-24T16:04:25.658Z</time></trkpt><trkpt lat="43.7928403" lon="11.3201229"><ele>252.0</ele><time>2026-04-24T16:04:26.658Z</time></trkpt><trkpt lat="43.792914" lon="11.3201575"><ele>252.0</ele><time>2026-04-24T16:04:27.658Z</time></trkpt><trkpt lat="43.792983" lon="11.3201785"><ele>252.0</ele><time>2026-04-24T16:04:28.658Z</time></trkpt><trkpt lat="43.7930541" lon="11.3201591"><ele>252.0</ele><time>2026-04-24T16:04:29.658Z</time></trkpt><trkpt lat="43.7931187" lon="11.3201108"><ele>252.0</ele><time>2026-04-24T16:04:30.657Z</time></trkpt><trkpt lat="43.7931893" lon="11.3200276"><ele>252.0</ele><time>2026-04-24T16:04:32.658Z</time></trkpt><trkpt lat="43.7932849" lon="11.3199079"><ele>252.0</ele><time>2026-04-24T16:04:34.658Z</time></trkpt><trkpt lat="43.7933435" lon="11.3198412"><ele>252.0</ele><time>2026-04-24T16:04:35.658Z</time></trkpt><trkpt lat="43.793408" lon="11.3197702"><ele>251.33333333333334</ele><time>2026-04-24T16:04:36.658Z</time></trkpt><trkpt lat="43.7934718" lon="11.3197004"><ele>250.66666666666669</ele><time>2026-04-24T16:04:37.658Z</time></trkpt><trkpt lat="43.7935368" lon="11.3196272"><ele>250.0</ele><time>2026-04-24T16:04:38.658Z</time></trkpt><trkpt lat="43.7936038" lon="11.3195449"><ele>249.33333333333334</ele><time>2026-04-24T16:04:39.657Z</time></trkpt><trkpt lat="43.7936706" lon="11.3194608"><ele>248.66666666666669</ele><time>2026-04-24T16:04:40.657Z</time></trkpt><trkpt lat="43.7937395" lon="11.3193733"><ele>248.0</ele><time>2026-04-24T16:04:41.658Z</time></trkpt><trkpt lat="43.7938125" lon="11.3192772"><ele>248.0</ele><time>2026-04-24T16:04:42.658Z</time></trkpt><trkpt lat="43.7938857" lon="11.3191783"><ele>248.0</ele><time>2026-04-24T16:04:43.657Z</time></trkpt><trkpt lat="43.7939616" lon="11.3190757"><ele>248.0</ele><time>2026-04-24T16:04:44.657Z</time></trkpt><trkpt lat="43.7940377" lon="11.3189787"><ele>248.0</ele><time>2026-04-24T16:04:45.658Z</time></trkpt><trkpt lat="43.7941079" lon="11.3188856"><ele>248.0</ele><time>2026-04-24T16:04:46.657Z</time></trkpt><trkpt lat="43.7941714" lon="11.318792"><ele>249.4</ele><time>2026-04-24T16:04:47.658Z</time></trkpt><trkpt lat="43.7942282" lon="11.3186827"><ele>250.8</ele><time>2026-04-24T16:04:48.657Z</time></trkpt><trkpt lat="43.7942774" lon="11.3185623"><ele>252.2</ele><time>2026-04-24T16:04:49.657Z</time></trkpt><trkpt lat="43.7943236" lon="11.3184396"><ele>253.6</ele><time>2026-04-24T16:04:50.658Z</time></trkpt><trkpt lat="43.794349" lon="11.3183263"><ele>255.0</ele><time>2026-04-24T16:04:51.658Z</time></trkpt><trkpt lat="43.7943552" lon="11.3182058"><ele>255.0</ele><time>2026-04-24T16:04:52.658Z</time></trkpt><trkpt lat="43.7943396" lon="11.3180703"><ele>255.0</ele><time>2026-04-24T16:04:53.658Z</time></trkpt><trkpt lat="43.7943176" lon="11.3179267"><ele>255.0</ele><time>2026-04-24T16:04:54.657Z</time></trkpt><trkpt lat="43.7942867" lon="11.3177788"><ele>255.0</ele><time>2026-04-24T16:04:55.658Z</time></trkpt><trkpt lat="43.7942489" lon="11.3176276"><ele>255.0</ele><time>2026-04-24T16:04:56.658Z</time></trkpt><trkpt lat="43.7941932" lon="11.3174316"><ele>251.0</ele><time>2026-04-24T16:04:57.658Z</time></trkpt><trkpt lat="43.7941338" lon="11.3172228"><ele>247.0</ele><time>2026-04-24T16:04:58.658Z</time></trkpt><trkpt lat="43.7940824" lon="11.3170296"><ele>243.0</ele><time>2026-04-24T16:04:59.658Z</time></trkpt><trkpt lat="43.7940312" lon="11.3168438"><ele>243.0</ele><time>2026-04-24T16:05:00.658Z</time></trkpt><trkpt lat="43.7939823" lon="11.3166492"><ele>243.0</ele><time>2026-04-24T16:05:01.658Z</time></trkpt><trkpt lat="43.7939288" lon="11.3164348"><ele>243.0</ele><time>2026-04-24T16:05:02.658Z</time></trkpt><trkpt lat="43.7938853" lon="11.3162642"><ele>243.0</ele><time>2026-04-24T16:05:03.658Z</time></trkpt><trkpt lat="43.7938515" lon="11.3161317"><ele>245.2</ele><time>2026-04-24T16:05:04.657Z</time></trkpt><trkpt lat="43.7938255" lon="11.3160213"><ele>247.4</ele><time>2026-04-24T16:05:05.658Z</time></trkpt><trkpt lat="43.7938034" lon="11.3159373"><ele>249.59999999999997</ele><time>2026-04-24T16:05:06.658Z</time></trkpt><trkpt lat="43.7937469" lon="11.3157991"><ele>251.79999999999998</ele><time>2026-04-24T16:05:08.658Z</time></trkpt><trkpt lat="43.7937001" lon="11.3156455"><ele>254.0</ele><time>2026-04-24T16:05:10.658Z</time></trkpt><trkpt lat="43.7936698" lon="11.3155606"><ele>255.0</ele><time>2026-04-24T16:05:11.658Z</time></trkpt><trkpt lat="43.7936409" lon="11.3154757"><ele>255.99999999999997</ele><time>2026-04-24T16:05:12.658Z</time></trkpt><trkpt lat="43.7936272" lon="11.3153136"><ele>257.0</ele><time>2026-04-24T16:05:14.658Z</time></trkpt><trkpt lat="43.793598" lon="11.3152188"><ele>258.0</ele><time>2026-04-24T16:05:16.658Z</time></trkpt><trkpt lat="43.793565" lon="11.3151073"><ele>259.0</ele><time>2026-04-24T16:05:18.658Z</time></trkpt><trkpt lat="43.7935801" lon="11.3149536"><ele>259.0</ele><time>2026-04-24T16:05:20.658Z</time></trkpt><trkpt lat="43.7936042" lon="11.3148151"><ele>259.0</ele><time>2026-04-24T16:05:22.659Z</time></trkpt><trkpt lat="43.7936006" lon="11.3146849"><ele>259.0</ele><time>2026-04-24T16:05:24.659Z</time></trkpt><trkpt lat="43.7935865" lon="11.3145819"><ele>259.0</ele><time>2026-04-24T16:05:26.659Z</time></trkpt><trkpt lat="43.7935662" lon="11.3144907"><ele>259.0</ele><time>2026-04-24T16:05:28.659Z</time></trkpt><trkpt lat="43.7935843" lon="11.314389"><ele>259.0</ele><time>2026-04-24T16:05:30.659Z</time></trkpt><trkpt lat="43.7935946" lon="11.3142972"><ele>258.16666666666663</ele><time>2026-04-24T16:05:32.659Z</time></trkpt><trkpt lat="43.7935927" lon="11.3142098"><ele>257.3333333333333</ele><time>2026-04-24T16:05:34.659Z</time></trkpt><trkpt lat="43.7936097" lon="11.3141106"><ele>256.5</ele><time>2026-04-24T16:05:36.659Z</time></trkpt><trkpt lat="43.7936726" lon="11.3140118"><ele>255.66666666666669</ele><time>2026-04-24T16:05:38.659Z</time></trkpt><trkpt lat="43.7937398" lon="11.313925"><ele>254.83333333333334</ele><time>2026-04-24T16:05:40.659Z</time></trkpt><trkpt lat="43.7938118" lon="11.3138571"><ele>254.0</ele><time>2026-04-24T16:05:43.659Z</time></trkpt><trkpt lat="43.79383" lon="11.313773"><ele>251.66666666666669</ele><time>2026-04-24T16:05:45.659Z</time></trkpt><trkpt lat="43.7938399" lon="11.3136799"><ele>249.33333333333334</ele><time>2026-04-24T16:05:48.659Z</time></trkpt><trkpt lat="43.7938818" lon="11.3135631"><ele>247.0</ele><time>2026-04-24T16:05:51.659Z</time></trkpt><trkpt lat="43.7938946" lon="11.3134578"><ele>244.66666666666669</ele><time>2026-04-24T16:05:53.659Z</time></trkpt><trkpt lat="43.7939283" lon="11.3133398"><ele>242.33333333333334</ele><time>2026-04-24T16:05:55.659Z</time></trkpt><trkpt lat="43.7939883" lon="11.3132787"><ele>240.0</ele><time>2026-04-24T16:05:56.659Z</time></trkpt><trkpt lat="43.7940561" lon="11.3131902"><ele>240.0</ele><time>2026-04-24T16:05:58.659Z</time></trkpt><trkpt lat="43.7941455" lon="11.313101"><ele>240.0</ele><time>2026-04-24T16:06:00.659Z</time></trkpt><trkpt lat="43.7942913" lon="11.3130819"><ele>240.0</ele><time>2026-04-24T16:06:02.659Z</time></trkpt><trkpt lat="43.7943697" lon="11.3130632"><ele>240.0</ele><time>2026-04-24T16:06:03.659Z</time></trkpt><trkpt lat="43.7945073" lon="11.3130188"><ele>235.4</ele><time>2026-04-24T16:06:05.659Z</time></trkpt><trkpt lat="43.7946196" lon="11.312974"><ele>230.8</ele><time>2026-04-24T16:06:07.659Z</time></trkpt><trkpt lat="43.7946759" lon="11.3128934"><ele>226.2</ele><time>2026-04-24T16:06:09.659Z</time></trkpt><trkpt lat="43.7947595" lon="11.3127472"><ele>221.6</ele><time>2026-04-24T16:06:11.659Z</time></trkpt><trkpt lat="43.7948251" lon="11.3126193"><ele>217.0</ele><time>2026-04-24T16:06:13.659Z</time></trkpt><trkpt lat="43.794934" lon="11.3125998"><ele>217.0</ele><time>2026-04-24T16:06:15.659Z</time></trkpt><trkpt lat="43.7950399" lon="11.3125779"><ele>217.0</ele><time>2026-04-24T16:06:17.659Z</time></trkpt><trkpt lat="43.7951147" lon="11.3125281"><ele>217.0</ele><time>2026-04-24T16:06:19.659Z</time></trkpt><trkpt lat="43.7951663" lon="11.3124156"><ele>217.0</ele><time>2026-04-24T16:06:21.659Z</time></trkpt><trkpt lat="43.7952188" lon="11.3122765"><ele>217.0</ele><time>2026-04-24T16:06:23.659Z</time></trkpt><trkpt lat="43.7952865" lon="11.3121755"><ele>215.0</ele><time>2026-04-24T16:06:25.659Z</time></trkpt><trkpt lat="43.7952733" lon="11.3120815"><ele>213.0</ele><time>2026-04-24T16:06:27.659Z</time></trkpt><trkpt lat="43.7951411" lon="11.3120294"><ele>211.0</ele><time>2026-04-24T16:06:29.659Z</time></trkpt><trkpt lat="43.7949675" lon="11.3120803"><ele>209.0</ele><time>2026-04-24T16:06:30.659Z</time></trkpt><trkpt lat="43.7948392" lon="11.3120966"><ele>208.75</ele><time>2026-04-24T16:06:31.659Z</time></trkpt><trkpt lat="43.7947353" lon="11.3121023"><ele>208.5</ele><time>2026-04-24T16:06:32.659Z</time></trkpt><trkpt lat="43.7945883" lon="11.3120621"><ele>208.25</ele><time>2026-04-24T16:06:33.659Z</time></trkpt><trkpt lat="43.7944302" lon="11.3120147"><ele>208.0</ele><time>2026-04-24T16:06:34.659Z</time></trkpt><trkpt lat="43.7942549" lon="11.3119703"><ele>206.5</ele><time>2026-04-24T16:06:35.659Z</time></trkpt><trkpt lat="43.7940886" lon="11.3119275"><ele>205.0</ele><time>2026-04-24T16:06:36.659Z</time></trkpt><trkpt lat="43.7939514" lon="11.3118754"><ele>203.5</ele><time>2026-04-24T16:06:37.658Z</time></trkpt><trkpt lat="43.7938485" lon="11.3118326"><ele>202.0</ele><time>2026-04-24T16:06:38.659Z</time></trkpt><trkpt lat="43.7937442" lon="11.3118178"><ele>202.0</ele><time>2026-04-24T16:06:39.658Z</time></trkpt><trkpt lat="43.7936205" lon="11.311808"><ele>202.0</ele><time>2026-04-24T16:06:40.659Z</time></trkpt><trkpt lat="43.793461" lon="11.3118214"><ele>202.0</ele><time>2026-04-24T16:06:41.659Z</time></trkpt><trkpt lat="43.793345" lon="11.3118138"><ele>202.0</ele><time>2026-04-24T16:06:42.659Z</time></trkpt><trkpt lat="43.7932264" lon="11.311805"><ele>201.49999999999997</ele><time>2026-04-24T16:06:43.658Z</time></trkpt><trkpt lat="43.7931165" lon="11.3118138"><ele>201.0</ele><time>2026-04-24T16:06:44.659Z</time></trkpt><trkpt lat="43.7930302" lon="11.3118332"><ele>200.5</ele><time>2026-04-24T16:06:45.659Z</time></trkpt><trkpt lat="43.7929516" lon="11.3118177"><ele>200.0</ele><time>2026-04-24T16:06:47.659Z</time></trkpt><trkpt lat="43.7929441" lon="11.3117299"><ele>199.49999999999997</ele><time>2026-04-24T16:07:08.659Z</time></trkpt><trkpt lat="43.7930041" lon="11.3116959"><ele>199.0</ele><time>2026-04-24T16:07:10.659Z</time></trkpt><trkpt lat="43.7930642" lon="11.3116395"><ele>199.0</ele><time>2026-04-24T16:07:11.658Z</time></trkpt><trkpt lat="43.7931187" lon="11.3115308"><ele>199.0</ele><time>2026-04-24T16:07:12.658Z</time></trkpt><trkpt lat="43.7931653" lon="11.3113884"><ele>199.0</ele><time>2026-04-24T16:07:13.659Z</time></trkpt><trkpt lat="43.7932141" lon="11.3112455"><ele>199.0</ele><time>2026-04-24T16:07:14.659Z</time></trkpt><trkpt lat="43.7932742" lon="11.3111148"><ele>199.0</ele><time>2026-04-24T16:07:15.659Z</time></trkpt><trkpt lat="43.7933394" lon="11.3109953"><ele>197.2</ele><time>2026-04-24T16:07:16.659Z</time></trkpt><trkpt lat="43.7934032" lon="11.3108782"><ele>195.39999999999998</ele><time>2026-04-24T16:07:17.658Z</time></trkpt><trkpt lat="43.7934643" lon="11.310754"><ele>193.6</ele><time>2026-04-24T16:07:18.659Z</time></trkpt><trkpt lat="43.7935183" lon="11.3106377"><ele>191.8</ele><time>2026-04-24T16:07:19.659Z</time></trkpt><trkpt lat="43.793572" lon="11.3105293"><ele>190.0</ele><time>2026-04-24T16:07:20.659Z</time></trkpt><trkpt lat="43.7936307" lon="11.3104304"><ele>188.66666666666669</ele><time>2026-04-24T16:07:21.659Z</time></trkpt><trkpt lat="43.7936898" lon="11.3103389"><ele>187.33333333333334</ele><time>2026-04-24T16:07:22.659Z</time></trkpt><trkpt lat="43.7937423" lon="11.3102517"><ele>186.0</ele><time>2026-04-24T16:07:23.659Z</time></trkpt><trkpt lat="43.7937887" lon="11.3101695"><ele>184.66666666666666</ele><time>2026-04-24T16:07:24.658Z</time></trkpt><trkpt lat="43.7938894" lon="11.3101446"><ele>183.33333333333331</ele><time>2026-04-24T16:07:26.659Z</time></trkpt><trkpt lat="43.7939585" lon="11.3101652"><ele>182.0</ele><time>2026-04-24T16:07:27.659Z</time></trkpt><trkpt lat="43.794024" lon="11.3101812"><ele>182.0</ele><time>2026-04-24T16:07:28.659Z</time></trkpt><trkpt lat="43.7940894" lon="11.310185"><ele>182.0</ele><time>2026-04-24T16:07:29.658Z</time></trkpt><trkpt lat="43.7942163" lon="11.3101927"><ele>182.0</ele><time>2026-04-24T16:07:31.659Z</time></trkpt><trkpt lat="43.7943001" lon="11.310196"><ele>182.0</ele><time>2026-04-24T16:07:32.659Z</time></trkpt><trkpt lat="43.7943782" lon="11.3102166"><ele>182.0</ele><time>2026-04-24T16:07:33.658Z</time></trkpt><trkpt lat="43.7944486" lon="11.3102504"><ele>182.0</ele><time>2026-04-24T16:07:34.659Z</time></trkpt><trkpt lat="43.7945544" lon="11.3102616"><ele>181.8</ele><time>2026-04-24T16:07:36.659Z</time></trkpt><trkpt lat="43.7946207" lon="11.3102433"><ele>181.6</ele><time>2026-04-24T16:07:37.659Z</time></trkpt><trkpt lat="43.7946825" lon="11.3101756"><ele>181.4</ele><time>2026-04-24T16:07:38.659Z</time></trkpt><trkpt lat="43.7947746" lon="11.3100653"><ele>181.20000000000002</ele><time>2026-04-24T16:07:39.658Z</time></trkpt><trkpt lat="43.7948841" lon="11.3099244"><ele>181.0</ele><time>2026-04-24T16:07:40.659Z</time></trkpt><trkpt lat="43.7949826" lon="11.3097831"><ele>178.0</ele><time>2026-04-24T16:07:41.658Z</time></trkpt><trkpt lat="43.7950725" lon="11.3096658"><ele>175.0</ele><time>2026-04-24T16:07:42.658Z</time></trkpt><trkpt lat="43.7951667" lon="11.3095652"><ele>172.0</ele><time>2026-04-24T16:07:43.658Z</time></trkpt><trkpt lat="43.7952657" lon="11.3094916"><ele>169.0</ele><time>2026-04-24T16:07:44.659Z</time></trkpt><trkpt lat="43.7953931" lon="11.3094269"><ele>167.5</ele><time>2026-04-24T16:07:45.659Z</time></trkpt><trkpt lat="43.7955247" lon="11.3093721"><ele>166.0</ele><time>2026-04-24T16:07:46.659Z</time></trkpt><trkpt lat="43.7956516" lon="11.3093416"><ele>164.5</ele><time>2026-04-24T16:07:47.659Z</time></trkpt><trkpt lat="43.795777" lon="11.309317"><ele>163.0</ele><time>2026-04-24T16:07:48.659Z</time></trkpt><trkpt lat="43.7958984" lon="11.3093002"><ele>162.5</ele><time>2026-04-24T16:07:49.659Z</time></trkpt><trkpt lat="43.796015" lon="11.309278"><ele>162.0</ele><time>2026-04-24T16:07:50.659Z</time></trkpt><trkpt lat="43.7961319" lon="11.3092675"><ele>161.5</ele><time>2026-04-24T16:07:51.659Z</time></trkpt><trkpt lat="43.7962449" lon="11.3092663"><ele>161.0</ele><time>2026-04-24T16:07:52.659Z</time></trkpt><trkpt lat="43.7963519" lon="11.3092669"><ele>161.0</ele><time>2026-04-24T16:07:53.659Z</time></trkpt><trkpt lat="43.7964663" lon="11.3092864"><ele>161.0</ele><time>2026-04-24T16:07:54.659Z</time></trkpt><trkpt lat="43.7965714" lon="11.3093068"><ele>161.0</ele><time>2026-04-24T16:07:55.659Z</time></trkpt><trkpt lat="43.796675" lon="11.3093251"><ele>161.0</ele><time>2026-04-24T16:07:56.658Z</time></trkpt><trkpt lat="43.7967715" lon="11.3093514"><ele>161.0</ele><time>2026-04-24T16:07:57.658Z</time></trkpt><trkpt lat="43.7968735" lon="11.3094104"><ele>161.33333333333331</ele><time>2026-04-24T16:07:58.659Z</time></trkpt><trkpt lat="43.7969672" lon="11.3094723"><ele>161.66666666666666</ele><time>2026-04-24T16:07:59.659Z</time></trkpt><trkpt lat="43.7970289" lon="11.3095363"><ele>162.0</ele><time>2026-04-24T16:08:00.659Z</time></trkpt><trkpt lat="43.7971454" lon="11.3095438"><ele>162.33333333333334</ele><time>2026-04-24T16:08:02.659Z</time></trkpt><trkpt lat="43.7972062" lon="11.3095084"><ele>162.66666666666669</ele><time>2026-04-24T16:08:03.659Z</time></trkpt><trkpt lat="43.7972861" lon="11.3094646"><ele>163.0</ele><time>2026-04-24T16:08:04.657Z</time></trkpt><trkpt lat="43.7973723" lon="11.3094288"><ele>163.0</ele><time>2026-04-24T16:08:05.659Z</time></trkpt><trkpt lat="43.7974488" lon="11.3094055"><ele>163.0</ele><time>2026-04-24T16:08:06.659Z</time></trkpt><trkpt lat="43.7975203" lon="11.3093908"><ele>163.0</ele><time>2026-04-24T16:08:07.659Z</time></trkpt><trkpt lat="43.7976098" lon="11.3092968"><ele>163.0</ele><time>2026-04-24T16:08:09.658Z</time></trkpt><trkpt lat="43.7976282" lon="11.3092042"><ele>163.0</ele><time>2026-04-24T16:08:10.658Z</time></trkpt><trkpt lat="43.7976374" lon="11.3090597"><ele>163.0</ele><time>2026-04-24T16:08:12.659Z</time></trkpt><trkpt lat="43.7975248" lon="11.3090041"><ele>163.0</ele><time>2026-04-24T16:08:13.659Z</time></trkpt><trkpt lat="43.7974474" lon="11.3089227"><ele>163.0</ele><time>2026-04-24T16:08:14.659Z</time></trkpt><trkpt lat="43.7973384" lon="11.308812"><ele>163.0</ele><time>2026-04-24T16:08:15.659Z</time></trkpt><trkpt lat="43.7972391" lon="11.308735"><ele>163.0</ele><time>2026-04-24T16:08:16.659Z</time></trkpt><trkpt lat="43.7971336" lon="11.3086769"><ele>165.2</ele><time>2026-04-24T16:08:17.659Z</time></trkpt><trkpt lat="43.7970123" lon="11.3086918"><ele>167.4</ele><time>2026-04-24T16:08:18.659Z</time></trkpt><trkpt lat="43.7969047" lon="11.3086605"><ele>169.6</ele><time>2026-04-24T16:08:19.659Z</time></trkpt><trkpt lat="43.7967989" lon="11.3086435"><ele>171.79999999999998</ele><time>2026-04-24T16:08:20.659Z</time></trkpt><trkpt lat="43.7967028" lon="11.3086346"><ele>174.0</ele><time>2026-04-24T16:08:21.659Z</time></trkpt><trkpt lat="43.796635" lon="11.3085694"><ele>174.0</ele><time>2026-04-24T16:08:22.659Z</time></trkpt><trkpt lat="43.7965533" lon="11.3085193"><ele>174.0</ele><time>2026-04-24T16:08:23.659Z</time></trkpt><trkpt lat="43.7964718" lon="11.3084605"><ele>174.0</ele><time>2026-04-24T16:08:24.659Z</time></trkpt><trkpt lat="43.7963791" lon="11.3083369"><ele>174.0</ele><time>2026-04-24T16:08:25.659Z</time></trkpt><trkpt lat="43.7963078" lon="11.3082144"><ele>174.0</ele><time>2026-04-24T16:08:26.659Z</time></trkpt><trkpt lat="43.7962193" lon="11.3081203"><ele>176.0</ele><time>2026-04-24T16:08:27.659Z</time></trkpt><trkpt lat="43.7961065" lon="11.308023"><ele>178.0</ele><time>2026-04-24T16:08:28.659Z</time></trkpt><trkpt lat="43.7959961" lon="11.3079642"><ele>180.0</ele><time>2026-04-24T16:08:29.658Z</time></trkpt><trkpt lat="43.7959088" lon="11.3078809"><ele>182.0</ele><time>2026-04-24T16:08:30.659Z</time></trkpt><trkpt lat="43.7958276" lon="11.3077775"><ele>182.0</ele><time>2026-04-24T16:08:31.659Z</time></trkpt><trkpt lat="43.795744" lon="11.3076635"><ele>182.0</ele><time>2026-04-24T16:08:32.659Z</time></trkpt><trkpt lat="43.7956592" lon="11.3075504"><ele>182.0</ele><time>2026-04-24T16:08:33.659Z</time></trkpt><trkpt lat="43.7955733" lon="11.3074341"><ele>182.0</ele><time>2026-04-24T16:08:34.659Z</time></trkpt><trkpt lat="43.795495" lon="11.3073974"><ele>182.0</ele><time>2026-04-24T16:08:35.659Z</time></trkpt><trkpt lat="43.7954567" lon="11.3072235"><ele>183.5</ele><time>2026-04-24T16:08:37.658Z</time></trkpt><trkpt lat="43.7954628" lon="11.3071127"><ele>185.0</ele><time>2026-04-24T16:08:38.659Z</time></trkpt><trkpt lat="43.7954592" lon="11.307013"><ele>186.5</ele><time>2026-04-24T16:08:39.659Z</time></trkpt><trkpt lat="43.7954308" lon="11.3069344"><ele>188.0</ele><time>2026-04-24T16:08:40.659Z</time></trkpt><trkpt lat="43.7954066" lon="11.3068501"><ele>189.5</ele><time>2026-04-24T16:08:41.658Z</time></trkpt><trkpt lat="43.7953284" lon="11.3067849"><ele>191.0</ele><time>2026-04-24T16:08:42.659Z</time></trkpt><trkpt lat="43.7952071" lon="11.3067394"><ele>191.0</ele><time>2026-04-24T16:08:43.659Z</time></trkpt><trkpt lat="43.7950919" lon="11.3067609"><ele>191.0</ele><time>2026-04-24T16:08:44.659Z</time></trkpt><trkpt lat="43.7950211" lon="11.3067242"><ele>191.0</ele><time>2026-04-24T16:08:45.659Z</time></trkpt><trkpt lat="43.7949571" lon="11.3065849"><ele>191.0</ele><time>2026-04-24T16:08:47.659Z</time></trkpt><trkpt lat="43.7949267" lon="11.3064777"><ele>191.0</ele><time>2026-04-24T16:08:48.659Z</time></trkpt><trkpt lat="43.7948934" lon="11.3063845"><ele>191.0</ele><time>2026-04-24T16:08:49.658Z</time></trkpt><trkpt lat="43.7948672" lon="11.3063032"><ele>191.0</ele><time>2026-04-24T16:08:51.659Z</time></trkpt><trkpt lat="43.7949442" lon="11.3063677"><ele>191.0</ele><time>2026-04-24T16:08:55.659Z</time></trkpt><trkpt lat="43.7949905" lon="11.3064441"><ele>191.0</ele><time>2026-04-24T16:08:56.658Z</time></trkpt><trkpt lat="43.7950675" lon="11.3065017"><ele>191.0</ele><time>2026-04-24T16:08:57.659Z</time></trkpt><trkpt lat="43.7951531" lon="11.3065506"><ele>191.0</ele><time>2026-04-24T16:08:58.659Z</time></trkpt><trkpt lat="43.7952495" lon="11.3065907"><ele>191.0</ele><time>2026-04-24T16:08:59.659Z</time></trkpt><trkpt lat="43.7953454" lon="11.3066324"><ele>191.0</ele><time>2026-04-24T16:09:00.659Z</time></trkpt><trkpt lat="43.7954396" lon="11.30668"><ele>191.0</ele><time>2026-04-24T16:09:01.658Z</time></trkpt><trkpt lat="43.7955332" lon="11.3067329"><ele>191.0</ele><time>2026-04-24T16:09:02.659Z</time></trkpt><trkpt lat="43.7956233" lon="11.3067945"><ele>191.0</ele><time>2026-04-24T16:09:03.658Z</time></trkpt><trkpt lat="43.7957123" lon="11.3068571"><ele>191.0</ele><time>2026-04-24T16:09:04.658Z</time></trkpt><trkpt lat="43.7957977" lon="11.3069185"><ele>191.0</ele><time>2026-04-24T16:09:05.659Z</time></trkpt><trkpt lat="43.7958766" lon="11.3069869"><ele>191.0</ele><time>2026-04-24T16:09:06.659Z</time></trkpt><trkpt lat="43.7959448" lon="11.3070673"><ele>191.0</ele><time>2026-04-24T16:09:07.659Z</time></trkpt><trkpt lat="43.7960043" lon="11.3071473"><ele>191.0</ele><time>2026-04-24T16:09:08.659Z</time></trkpt><trkpt lat="43.7960781" lon="11.3072123"><ele>191.0</ele><time>2026-04-24T16:09:09.659Z</time></trkpt><trkpt lat="43.7961588" lon="11.3072613"><ele>192.0</ele><time>2026-04-24T16:09:10.659Z</time></trkpt><trkpt lat="43.7962426" lon="11.307308"><ele>193.0</ele><time>2026-04-24T16:09:11.659Z</time></trkpt><trkpt lat="43.7963254" lon="11.3073493"><ele>194.0</ele><time>2026-04-24T16:09:12.659Z</time></trkpt><trkpt lat="43.7964094" lon="11.3073935"><ele>195.0</ele><time>2026-04-24T16:09:13.659Z</time></trkpt><trkpt lat="43.7964968" lon="11.3074448"><ele>196.0</ele><time>2026-04-24T16:09:14.657Z</time></trkpt><trkpt lat="43.7965821" lon="11.307493"><ele>195.99999999999997</ele><time>2026-04-24T16:09:15.659Z</time></trkpt><trkpt lat="43.796657" lon="11.3075153"><ele>196.0</ele><time>2026-04-24T16:09:16.658Z</time></trkpt><trkpt lat="43.7967285" lon="11.3075249"><ele>196.0</ele><time>2026-04-24T16:09:17.659Z</time></trkpt><trkpt lat="43.7967956" lon="11.3075251"><ele>196.0</ele><time>2026-04-24T16:09:18.658Z</time></trkpt><trkpt lat="43.7968633" lon="11.3075237"><ele>195.99999999999997</ele><time>2026-04-24T16:09:19.658Z</time></trkpt><trkpt lat="43.7969623" lon="11.3075242"><ele>196.0</ele><time>2026-04-24T16:09:21.659Z</time></trkpt><trkpt lat="43.7970452" lon="11.3075246"><ele>197.83333333333331</ele><time>2026-04-24T16:09:23.659Z</time></trkpt><trkpt lat="43.7971187" lon="11.3075191"><ele>199.66666666666666</ele><time>2026-04-24T16:09:25.659Z</time></trkpt><trkpt lat="43.7971905" lon="11.3075141"><ele>201.5</ele><time>2026-04-24T16:09:27.658Z</time></trkpt><trkpt lat="43.7972705" lon="11.3075297"><ele>203.33333333333331</ele><time>2026-04-24T16:09:29.659Z</time></trkpt><trkpt lat="43.7973684" lon="11.3075342"><ele>205.16666666666666</ele><time>2026-04-24T16:09:31.659Z</time></trkpt><trkpt lat="43.7974802" lon="11.3075606"><ele>207.0</ele><time>2026-04-24T16:09:33.658Z</time></trkpt><trkpt lat="43.7975999" lon="11.3075447"><ele>212.2</ele><time>2026-04-24T16:09:35.659Z</time></trkpt><trkpt lat="43.7976962" lon="11.3075312"><ele>217.39999999999998</ele><time>2026-04-24T16:09:37.659Z</time></trkpt><trkpt lat="43.7977743" lon="11.3075553"><ele>222.60000000000002</ele><time>2026-04-24T16:09:40.659Z</time></trkpt><trkpt lat="43.7978986" lon="11.3076366"><ele>227.8</ele><time>2026-04-24T16:09:42.659Z</time></trkpt><trkpt lat="43.7979879" lon="11.3076906"><ele>233.0</ele><time>2026-04-24T16:09:43.659Z</time></trkpt><trkpt lat="43.7980633" lon="11.3077698"><ele>233.00000000000003</ele><time>2026-04-24T16:09:44.659Z</time></trkpt><trkpt lat="43.7981222" lon="11.3078504"><ele>233.0</ele><time>2026-04-24T16:09:45.659Z</time></trkpt><trkpt lat="43.7981901" lon="11.3079311"><ele>233.0</ele><time>2026-04-24T16:09:46.659Z</time></trkpt><trkpt lat="43.798248" lon="11.3080121"><ele>233.0</ele><time>2026-04-24T16:09:47.659Z</time></trkpt><trkpt lat="43.7983102" lon="11.3080958"><ele>233.00000000000003</ele><time>2026-04-24T16:09:48.659Z</time></trkpt><trkpt lat="43.7983931" lon="11.3081566"><ele>233.0</ele><time>2026-04-24T16:09:49.659Z</time></trkpt><trkpt lat="43.7984876" lon="11.3082099"><ele>230.8</ele><time>2026-04-24T16:09:50.659Z</time></trkpt><trkpt lat="43.7985899" lon="11.3082536"><ele>228.60000000000002</ele><time>2026-04-24T16:09:51.659Z</time></trkpt><trkpt lat="43.7986939" lon="11.3082859"><ele>226.39999999999998</ele><time>2026-04-24T16:09:52.659Z</time></trkpt><trkpt lat="43.7987964" lon="11.3083127"><ele>224.2</ele><time>2026-04-24T16:09:53.659Z</time></trkpt><trkpt lat="43.7988927" lon="11.3083334"><ele>222.0</ele><time>2026-04-24T16:09:54.659Z</time></trkpt><trkpt lat="43.7989798" lon="11.3083641"><ele>222.0</ele><time>2026-04-24T16:09:55.659Z</time></trkpt><trkpt lat="43.7990599" lon="11.3084133"><ele>222.0</ele><time>2026-04-24T16:09:56.659Z</time></trkpt><trkpt lat="43.799118" lon="11.3084631"><ele>222.0</ele><time>2026-04-24T16:09:57.659Z</time></trkpt><trkpt lat="43.7991922" lon="11.3085382"><ele>222.0</ele><time>2026-04-24T16:09:59.659Z</time></trkpt><trkpt lat="43.7991415" lon="11.3084611"><ele>222.0</ele><time>2026-04-24T16:10:05.659Z</time></trkpt><trkpt lat="43.799074" lon="11.3084168"><ele>222.0</ele><time>2026-04-24T16:10:07.659Z</time></trkpt><trkpt lat="43.7990835" lon="11.3083286"><ele>222.0</ele><time>2026-04-24T16:10:10.659Z</time></trkpt><trkpt lat="43.7991517" lon="11.3082881"><ele>222.0</ele><time>2026-04-24T16:10:12.658Z</time></trkpt><trkpt lat="43.7992038" lon="11.308237"><ele>222.0</ele><time>2026-04-24T16:10:14.659Z</time></trkpt><trkpt lat="43.7992675" lon="11.3081524"><ele>222.0</ele><time>2026-04-24T16:10:16.659Z</time></trkpt><trkpt lat="43.7993052" lon="11.3080699"><ele>222.0</ele><time>2026-04-24T16:10:18.658Z</time></trkpt><trkpt lat="43.7992999" lon="11.3079694"><ele>222.0</ele><time>2026-04-24T16:10:20.659Z</time></trkpt><trkpt lat="43.7992099" lon="11.30792"><ele>228.8</ele><time>2026-04-24T16:10:23.659Z</time></trkpt><trkpt lat="43.7991188" lon="11.3079222"><ele>235.6</ele><time>2026-04-24T16:10:25.659Z</time></trkpt><trkpt lat="43.7989948" lon="11.3079079"><ele>242.40000000000003</ele><time>2026-04-24T16:10:27.659Z</time></trkpt><trkpt lat="43.7989287" lon="11.3078592"><ele>249.20000000000002</ele><time>2026-04-24T16:10:29.659Z</time></trkpt><trkpt lat="43.7988524" lon="11.307808"><ele>256.0</ele><time>2026-04-24T16:10:31.659Z</time></trkpt><trkpt lat="43.7987637" lon="11.3076775"><ele>255.99999999999997</ele><time>2026-04-24T16:10:33.658Z</time></trkpt><trkpt lat="43.7987301" lon="11.3076026"><ele>256.0</ele><time>2026-04-24T16:10:34.658Z</time></trkpt><trkpt lat="43.7986936" lon="11.3075149"><ele>256.0</ele><time>2026-04-24T16:10:35.659Z</time></trkpt><trkpt lat="43.7986299" lon="11.307378"><ele>256.0</ele><time>2026-04-24T16:10:37.659Z</time></trkpt><trkpt lat="43.7985883" lon="11.3073099"><ele>255.99999999999997</ele><time>2026-04-24T16:10:38.658Z</time></trkpt><trkpt lat="43.7985399" lon="11.3072523"><ele>256.0</ele><time>2026-04-24T16:10:42.658Z</time></trkpt><trkpt lat="43.7984827" lon="11.3071993"><ele>256.6</ele><time>2026-04-24T16:10:48.659Z</time></trkpt><trkpt lat="43.7984254" lon="11.307095"><ele>257.20000000000005</ele><time>2026-04-24T16:10:51.659Z</time></trkpt><trkpt lat="43.7983958" lon="11.3069742"><ele>257.79999999999995</ele><time>2026-04-24T16:10:54.659Z</time></trkpt><trkpt lat="43.7983722" lon="11.3068593"><ele>258.4</ele><time>2026-04-24T16:10:56.659Z</time></trkpt><trkpt lat="43.7983462" lon="11.3067344"><ele>259.0</ele><time>2026-04-24T16:10:58.659Z</time></trkpt><trkpt lat="43.7982881" lon="11.3066161"><ele>259.0</ele><time>2026-04-24T16:11:00.659Z</time></trkpt><trkpt lat="43.7982403" lon="11.3065565"><ele>259.0</ele><time>2026-04-24T16:11:01.659Z</time></trkpt><trkpt lat="43.7981712" lon="11.3064347"><ele>259.0</ele><time>2026-04-24T16:11:03.659Z</time></trkpt><trkpt lat="43.7981109" lon="11.3063311"><ele>259.0</ele><time>2026-04-24T16:11:04.659Z</time></trkpt><trkpt lat="43.798049" lon="11.3062355"><ele>259.0</ele><time>2026-04-24T16:11:05.659Z</time></trkpt><trkpt lat="43.7979783" lon="11.3061018"><ele>258.16666666666663</ele><time>2026-04-24T16:11:07.659Z</time></trkpt><trkpt lat="43.7979289" lon="11.3060299"><ele>257.3333333333333</ele><time>2026-04-24T16:11:09.659Z</time></trkpt><trkpt lat="43.7978581" lon="11.3059724"><ele>256.5</ele><time>2026-04-24T16:11:11.659Z</time></trkpt><trkpt lat="43.7977982" lon="11.3059086"><ele>255.66666666666669</ele><time>2026-04-24T16:11:13.658Z</time></trkpt><trkpt lat="43.7977362" lon="11.305926"><ele>254.83333333333334</ele><time>2026-04-24T16:11:31.659Z</time></trkpt><trkpt lat="43.7976644" lon="11.3059342"><ele>254.0</ele><time>2026-04-24T16:11:33.658Z</time></trkpt><trkpt lat="43.7975798" lon="11.3059069"><ele>254.00000000000003</ele><time>2026-04-24T16:11:35.658Z</time></trkpt><trkpt lat="43.7975111" lon="11.3058284"><ele>254.0</ele><time>2026-04-24T16:11:38.658Z</time></trkpt><trkpt lat="43.7975926" lon="11.3058895"><ele>254.0</ele><time>2026-04-24T16:12:14.659Z</time></trkpt><trkpt lat="43.7976711" lon="11.3058921"><ele>254.0</ele><time>2026-04-24T16:12:16.659Z</time></trkpt><trkpt lat="43.7977282" lon="11.3058446"><ele>254.00000000000003</ele><time>2026-04-24T16:12:19.659Z</time></trkpt><trkpt lat="43.7977639" lon="11.3057526"><ele>254.0</ele><time>2026-04-24T16:12:21.658Z</time></trkpt><trkpt lat="43.7977957" lon="11.3056651"><ele>261.1666666666667</ele><time>2026-04-24T16:12:23.659Z</time></trkpt><trkpt lat="43.7978446" lon="11.3055218"><ele>268.33333333333337</ele><time>2026-04-24T16:12:25.659Z</time></trkpt><trkpt lat="43.7978324" lon="11.305407"><ele>275.5</ele><time>2026-04-24T16:12:29.659Z</time></trkpt><trkpt lat="43.7978125" lon="11.3053166"><ele>282.6666666666667</ele><time>2026-04-24T16:12:32.659Z</time></trkpt><trkpt lat="43.7978137" lon="11.3052256"><ele>289.8333333333333</ele><time>2026-04-24T16:12:35.659Z</time></trkpt><trkpt lat="43.7977642" lon="11.3051289"><ele>297.0</ele><time>2026-04-24T16:12:39.659Z</time></trkpt><trkpt lat="43.7976978" lon="11.3050647"><ele>292.8333333333333</ele><time>2026-04-24T16:12:42.659Z</time></trkpt><trkpt lat="43.7976279" lon="11.3049991"><ele>288.6666666666667</ele><time>2026-04-24T16:12:50.659Z</time></trkpt><trkpt lat="43.797554" lon="11.3049798"><ele>284.5</ele><time>2026-04-24T16:13:00.659Z</time></trkpt><trkpt lat="43.7974925" lon="11.3050244"><ele>280.33333333333337</ele><time>2026-04-24T16:13:02.659Z</time></trkpt><trkpt lat="43.7974301" lon="11.3050545"><ele>276.1666666666667</ele><time>2026-04-24T16:13:04.659Z</time></trkpt><trkpt lat="43.7973481" lon="11.3050789"><ele>272.0</ele><time>2026-04-24T16:13:07.659Z</time></trkpt><trkpt lat="43.7974039" lon="11.3050145"><ele>272.0</ele><time>2026-04-24T16:13:53.659Z</time></trkpt><trkpt lat="43.7974661" lon="11.3049664"><ele>272.0</ele><time>2026-04-24T16:13:54.659Z</time></trkpt><trkpt lat="43.797537" lon="11.304913"><ele>272.0</ele><time>2026-04-24T16:13:56.659Z</time></trkpt><trkpt lat="43.7975674" lon="11.3048211"><ele>272.0</ele><time>2026-04-24T16:13:58.659Z</time></trkpt><trkpt lat="43.7976102" lon="11.3047319"><ele>272.0</ele><time>2026-04-24T16:14:00.658Z</time></trkpt><trkpt lat="43.7976594" lon="11.3046354"><ele>272.0</ele><time>2026-04-24T16:14:03.659Z</time></trkpt><trkpt lat="43.7976708" lon="11.3045464"><ele>273.1428571428571</ele><time>2026-04-24T16:14:13.658Z</time></trkpt><trkpt lat="43.7976815" lon="11.3044567"><ele>274.2857142857143</ele><time>2026-04-24T16:14:26.659Z</time></trkpt><trkpt lat="43.7976212" lon="11.3043907"><ele>275.42857142857144</ele><time>2026-04-24T16:14:31.659Z</time></trkpt><trkpt lat="43.7975681" lon="11.3043099"><ele>276.57142857142856</ele><time>2026-04-24T16:14:33.659Z</time></trkpt><trkpt lat="43.7975254" lon="11.3042313"><ele>277.7142857142857</ele><time>2026-04-24T16:14:35.659Z</time></trkpt><trkpt lat="43.7974848" lon="11.3041327"><ele>278.85714285714283</ele><time>2026-04-24T16:14:38.658Z</time></trkpt><trkpt lat="43.7975091" lon="11.3042132"><ele>280.0</ele><time>2026-04-24T16:14:52.659Z</time></trkpt><trkpt lat="43.7975488" lon="11.3042832"><ele>280.0</ele><time>2026-04-24T16:14:57.658Z</time></trkpt><trkpt lat="43.7975972" lon="11.3043412"><ele>280.0</ele><time>2026-04-24T16:14:59.659Z</time></trkpt><trkpt lat="43.7976512" lon="11.3043876"><ele>280.0</ele><time>2026-04-24T16:15:05.659Z</time></trkpt><trkpt lat="43.7976784" lon="11.3044847"><ele>280.0</ele><time>2026-04-24T16:15:16.658Z</time></trkpt><trkpt lat="43.797673" lon="11.3045781"><ele>280.0</ele><time>2026-04-24T16:15:19.659Z</time></trkpt><trkpt lat="43.7976547" lon="11.3046766"><ele>280.0</ele><time>2026-04-24T16:15:21.659Z</time></trkpt><trkpt lat="43.7976103" lon="11.3047858"><ele>280.0</ele><time>2026-04-24T16:15:23.659Z</time></trkpt><trkpt lat="43.7975785" lon="11.304868"><ele>278.66666666666663</ele><time>2026-04-24T16:15:25.659Z</time></trkpt><trkpt lat="43.7976318" lon="11.3049543"><ele>277.3333333333333</ele><time>2026-04-24T16:15:30.658Z</time></trkpt><trkpt lat="43.7976879" lon="11.3050282"><ele>276.0</ele><time>2026-04-24T16:15:37.659Z</time></trkpt><trkpt lat="43.797739" lon="11.3050855"><ele>274.6666666666667</ele><time>2026-04-24T16:15:40.658Z</time></trkpt><trkpt lat="43.7977866" lon="11.3051763"><ele>273.33333333333337</ele><time>2026-04-24T16:15:44.659Z</time></trkpt><trkpt lat="43.7978059" lon="11.3052731"><ele>272.0</ele><time>2026-04-24T16:15:47.659Z</time></trkpt><trkpt lat="43.7978211" lon="11.3053951"><ele>273.33333333333337</ele><time>2026-04-24T16:15:51.659Z</time></trkpt><trkpt lat="43.7978202" lon="11.3054944"><ele>274.6666666666667</ele><time>2026-04-24T16:15:53.659Z</time></trkpt><trkpt lat="43.797803" lon="11.3056022"><ele>276.0</ele><time>2026-04-24T16:15:54.659Z</time></trkpt><trkpt lat="43.7977429" lon="11.305738"><ele>277.3333333333333</ele><time>2026-04-24T16:15:56.659Z</time></trkpt><trkpt lat="43.7977578" lon="11.3058831"><ele>278.66666666666663</ele><time>2026-04-24T16:15:58.659Z</time></trkpt><trkpt lat="43.7978203" lon="11.3059248"><ele>280.0</ele><time>2026-04-24T16:15:59.659Z</time></trkpt><trkpt lat="43.7978771" lon="11.3060204"><ele>280.0</ele><time>2026-04-24T16:16:01.659Z</time></trkpt><trkpt lat="43.7979426" lon="11.3061035"><ele>280.0</ele><time>2026-04-24T16:16:03.659Z</time></trkpt><trkpt lat="43.7979959" lon="11.3062309"><ele>280.0</ele><time>2026-04-24T16:16:05.659Z</time></trkpt><trkpt lat="43.7981113" lon="11.3063522"><ele>280.0</ele><time>2026-04-24T16:16:07.659Z</time></trkpt><trkpt lat="43.7981649" lon="11.3064211"><ele>280.0</ele><time>2026-04-24T16:16:08.659Z</time></trkpt><trkpt lat="43.7982118" lon="11.3064907"><ele>276.5</ele><time>2026-04-24T16:16:09.659Z</time></trkpt><trkpt lat="43.7982767" lon="11.3065984"><ele>273.0</ele><time>2026-04-24T16:16:11.658Z</time></trkpt><trkpt lat="43.7983042" lon="11.3066772"><ele>269.5</ele><time>2026-04-24T16:16:13.659Z</time></trkpt><trkpt lat="43.798335" lon="11.3067763"><ele>266.0</ele><time>2026-04-24T16:16:15.659Z</time></trkpt><trkpt lat="43.7983478" lon="11.30689"><ele>262.5</ele><time>2026-04-24T16:16:17.659Z</time></trkpt><trkpt lat="43.7983818" lon="11.3070243"><ele>259.0</ele><time>2026-04-24T16:16:19.659Z</time></trkpt><trkpt lat="43.7984357" lon="11.3071306"><ele>259.0</ele><time>2026-04-24T16:16:21.659Z</time></trkpt><trkpt lat="43.7984785" lon="11.3072039"><ele>259.0</ele><time>2026-04-24T16:16:24.659Z</time></trkpt><trkpt lat="43.798558" lon="11.3072948"><ele>259.0</ele><time>2026-04-24T16:16:27.659Z</time></trkpt><trkpt lat="43.7986115" lon="11.3073893"><ele>259.0</ele><time>2026-04-24T16:16:29.659Z</time></trkpt><trkpt lat="43.7986512" lon="11.3074989"><ele>259.0</ele><time>2026-04-24T16:16:31.659Z</time></trkpt><trkpt lat="43.7986935" lon="11.3076037"><ele>259.0</ele><time>2026-04-24T16:16:33.658Z</time></trkpt><trkpt lat="43.7987385" lon="11.307667"><ele>258.5</ele><time>2026-04-24T16:16:35.659Z</time></trkpt><trkpt lat="43.7987963" lon="11.3075721"><ele>258.0</ele><time>2026-04-24T16:16:48.66Z</time></trkpt><trkpt lat="43.7988412" lon="11.3075069"><ele>257.5</ele><time>2026-04-24T16:16:50.66Z</time></trkpt><trkpt lat="43.7988009" lon="11.3075879"><ele>257.0</ele><time>2026-04-24T16:17:10.66Z</time></trkpt><trkpt lat="43.7987708" lon="11.3076724"><ele>256.5</ele><time>2026-04-24T16:17:12.66Z</time></trkpt><trkpt lat="43.7988053" lon="11.3077616"><ele>256.0</ele><time>2026-04-24T16:17:14.66Z</time></trkpt><trkpt lat="43.7988984" lon="11.3078149"><ele>255.99999999999997</ele><time>2026-04-24T16:17:16.659Z</time></trkpt><trkpt lat="43.7989784" lon="11.3078626"><ele>256.0</ele><time>2026-04-24T16:17:18.66Z</time></trkpt><trkpt lat="43.7990521" lon="11.3078889"><ele>256.0</ele><time>2026-04-24T16:17:20.659Z</time></trkpt><trkpt lat="43.7991536" lon="11.3078643"><ele>256.0</ele><time>2026-04-24T16:17:23.66Z</time></trkpt><trkpt lat="43.7992221" lon="11.3078664"><ele>255.99999999999997</ele><time>2026-04-24T16:17:25.66Z</time></trkpt><trkpt lat="43.799286" lon="11.3079101"><ele>256.0</ele><time>2026-04-24T16:17:28.66Z</time></trkpt><trkpt lat="43.7993095" lon="11.3080062"><ele>249.20000000000002</ele><time>2026-04-24T16:17:30.66Z</time></trkpt><trkpt lat="43.7992465" lon="11.3081046"><ele>242.40000000000003</ele><time>2026-04-24T16:17:31.659Z</time></trkpt><trkpt lat="43.7991678" lon="11.3082397"><ele>235.6</ele><time>2026-04-24T16:17:33.66Z</time></trkpt><trkpt lat="43.7990821" lon="11.3083107"><ele>228.8</ele><time>2026-04-24T16:17:35.66Z</time></trkpt><trkpt lat="43.7990913" lon="11.3084047"><ele>222.0</ele><time>2026-04-24T16:17:38.66Z</time></trkpt><trkpt lat="43.7991454" lon="11.3084563"><ele>222.0</ele><time>2026-04-24T16:17:39.66Z</time></trkpt><trkpt lat="43.7991937" lon="11.3085137"><ele>222.0</ele><time>2026-04-24T16:17:40.66Z</time></trkpt><trkpt lat="43.7992808" lon="11.3086464"><ele>222.0</ele><time>2026-04-24T16:17:42.66Z</time></trkpt><trkpt lat="43.7993241" lon="11.3087265"><ele>222.0</ele><time>2026-04-24T16:17:43.66Z</time></trkpt><trkpt lat="43.799363" lon="11.3088049"><ele>222.0</ele><time>2026-04-24T16:17:44.66Z</time></trkpt><trkpt lat="43.799419" lon="11.3089479"><ele>222.0</ele><time>2026-04-24T16:17:46.659Z</time></trkpt><trkpt lat="43.7994519" lon="11.3090462"><ele>222.0</ele><time>2026-04-24T16:17:48.658Z</time></trkpt><trkpt lat="43.799489" lon="11.3091168"><ele>222.0</ele><time>2026-04-24T16:17:51.66Z</time></trkpt><trkpt lat="43.79954" lon="11.3092143"><ele>222.0</ele><time>2026-04-24T16:17:54.66Z</time></trkpt><trkpt lat="43.7996662" lon="11.3093373"><ele>222.0</ele><time>2026-04-24T16:17:55.66Z</time></trkpt><trkpt lat="43.7997722" lon="11.3094366"><ele>222.0</ele><time>2026-04-24T16:17:56.66Z</time></trkpt><trkpt lat="43.7998634" lon="11.3095449"><ele>222.0</ele><time>2026-04-24T16:17:57.66Z</time></trkpt><trkpt lat="43.7999594" lon="11.3096983"><ele>222.0</ele><time>2026-04-24T16:17:58.659Z</time></trkpt><trkpt lat="43.8000523" lon="11.3098139"><ele>222.0</ele><time>2026-04-24T16:17:59.66Z</time></trkpt><trkpt lat="43.8001458" lon="11.3099132"><ele>223.0</ele><time>2026-04-24T16:18:00.66Z</time></trkpt><trkpt lat="43.8002303" lon="11.309995"><ele>224.0</ele><time>2026-04-24T16:18:01.66Z</time></trkpt><trkpt lat="43.8003138" lon="11.3100535"><ele>225.0</ele><time>2026-04-24T16:18:02.66Z</time></trkpt><trkpt lat="43.800394" lon="11.3100996"><ele>226.0</ele><time>2026-04-24T16:18:03.66Z</time></trkpt><trkpt lat="43.8004618" lon="11.3101359"><ele>227.0</ele><time>2026-04-24T16:18:04.659Z</time></trkpt><trkpt lat="43.8005222" lon="11.3101711"><ele>228.0</ele><time>2026-04-24T16:18:05.66Z</time></trkpt><trkpt lat="43.8006291" lon="11.3102286"><ele>228.0</ele><time>2026-04-24T16:18:07.66Z</time></trkpt><trkpt lat="43.8007065" lon="11.3102746"><ele>228.0</ele><time>2026-04-24T16:18:09.66Z</time></trkpt><trkpt lat="43.8007937" lon="11.3103129"><ele>228.0</ele><time>2026-04-24T16:18:17.66Z</time></trkpt><trkpt lat="43.800889" lon="11.3103278"><ele>228.0</ele><time>2026-04-24T16:18:19.66Z</time></trkpt><trkpt lat="43.8009516" lon="11.3103694"><ele>228.0</ele><time>2026-04-24T16:18:20.659Z</time></trkpt><trkpt lat="43.8010248" lon="11.3104183"><ele>228.0</ele><time>2026-04-24T16:18:21.659Z</time></trkpt><trkpt lat="43.8011085" lon="11.3104885"><ele>228.33333333333334</ele><time>2026-04-24T16:18:22.66Z</time></trkpt><trkpt lat="43.801188" lon="11.3105766"><ele>228.66666666666669</ele><time>2026-04-24T16:18:23.66Z</time></trkpt><trkpt lat="43.8012496" lon="11.3106622"><ele>229.0</ele><time>2026-04-24T16:18:24.66Z</time></trkpt><trkpt lat="43.8013181" lon="11.3107386"><ele>229.33333333333334</ele><time>2026-04-24T16:18:26.66Z</time></trkpt><trkpt lat="43.8013671" lon="11.3106471"><ele>229.66666666666669</ele><time>2026-04-24T16:18:30.66Z</time></trkpt><trkpt lat="43.8013612" lon="11.3105602"><ele>230.0</ele><time>2026-04-24T16:18:33.66Z</time></trkpt><trkpt lat="43.8013237" lon="11.3104602"><ele>233.16666666666669</ele><time>2026-04-24T16:18:35.66Z</time></trkpt><trkpt lat="43.8012803" lon="11.310397"><ele>236.33333333333334</ele><time>2026-04-24T16:18:36.66Z</time></trkpt><trkpt lat="43.8012248" lon="11.3102548"><ele>239.5</ele><time>2026-04-24T16:18:38.659Z</time></trkpt><trkpt lat="43.8011847" lon="11.310165"><ele>242.66666666666669</ele><time>2026-04-24T16:18:40.66Z</time></trkpt><trkpt lat="43.8011514" lon="11.3100498"><ele>245.83333333333334</ele><time>2026-04-24T16:18:43.659Z</time></trkpt><trkpt lat="43.8011411" lon="11.3099276"><ele>249.0</ele><time>2026-04-24T16:18:45.66Z</time></trkpt><trkpt lat="43.8011086" lon="11.3097844"><ele>249.79999999999998</ele><time>2026-04-24T16:18:47.66Z</time></trkpt><trkpt lat="43.8010666" lon="11.3097089"><ele>250.59999999999997</ele><time>2026-04-24T16:18:48.659Z</time></trkpt><trkpt lat="43.8010483" lon="11.3095815"><ele>251.4</ele><time>2026-04-24T16:18:50.66Z</time></trkpt><trkpt lat="43.8010077" lon="11.3094464"><ele>252.2</ele><time>2026-04-24T16:18:52.659Z</time></trkpt><trkpt lat="43.8009404" lon="11.309323"><ele>253.0</ele><time>2026-04-24T16:18:54.659Z</time></trkpt><trkpt lat="43.8008937" lon="11.3092105"><ele>252.99999999999997</ele><time>2026-04-24T16:18:56.66Z</time></trkpt><trkpt lat="43.8008435" lon="11.3090748"><ele>253.0</ele><time>2026-04-24T16:18:58.659Z</time></trkpt><trkpt lat="43.800813" lon="11.308994"><ele>253.0</ele><time>2026-04-24T16:18:59.66Z</time></trkpt><trkpt lat="43.8007827" lon="11.3089096"><ele>253.0</ele><time>2026-04-24T16:19:00.66Z</time></trkpt><trkpt lat="43.8007487" lon="11.3088329"><ele>252.99999999999997</ele><time>2026-04-24T16:19:01.66Z</time></trkpt><trkpt lat="43.8006912" lon="11.3087242"><ele>253.0</ele><time>2026-04-24T16:19:03.66Z</time></trkpt><trkpt lat="43.8006762" lon="11.308634"><ele>258.4</ele><time>2026-04-24T16:19:05.66Z</time></trkpt><trkpt lat="43.8006715" lon="11.308504"><ele>263.8</ele><time>2026-04-24T16:19:08.66Z</time></trkpt><trkpt lat="43.8006083" lon="11.3084055"><ele>269.2</ele><time>2026-04-24T16:19:10.66Z</time></trkpt><trkpt lat="43.8005571" lon="11.3083437"><ele>274.6</ele><time>2026-04-24T16:19:11.66Z</time></trkpt><trkpt lat="43.8004733" lon="11.3082673"><ele>280.0</ele><time>2026-04-24T16:19:13.66Z</time></trkpt><trkpt lat="43.8003551" lon="11.3081651"><ele>280.0</ele><time>2026-04-24T16:19:15.66Z</time></trkpt><trkpt lat="43.8002839" lon="11.308089"><ele>280.0</ele><time>2026-04-24T16:19:16.659Z</time></trkpt><trkpt lat="43.8002275" lon="11.3080255"><ele>280.0</ele><time>2026-04-24T16:19:17.659Z</time></trkpt><trkpt lat="43.8001704" lon="11.3079011"><ele>280.0</ele><time>2026-04-24T16:19:19.66Z</time></trkpt><trkpt lat="43.8001717" lon="11.3078048"><ele>280.0</ele><time>2026-04-24T16:19:21.66Z</time></trkpt><trkpt lat="43.8002283" lon="11.3076372"><ele>284.42857142857144</ele><time>2026-04-24T16:19:23.66Z</time></trkpt><trkpt lat="43.8002424" lon="11.3075494"><ele>288.8571428571429</ele><time>2026-04-24T16:19:24.659Z</time></trkpt><trkpt lat="43.8002459" lon="11.3074439"><ele>293.2857142857143</ele><time>2026-04-24T16:19:25.66Z</time></trkpt><trkpt lat="43.8002454" lon="11.3073393"><ele>297.7142857142857</ele><time>2026-04-24T16:19:26.66Z</time></trkpt><trkpt lat="43.8002208" lon="11.3072417"><ele>302.14285714285717</ele><time>2026-04-24T16:19:27.659Z</time></trkpt><trkpt lat="43.8002129" lon="11.3071297"><ele>306.57142857142856</ele><time>2026-04-24T16:19:29.66Z</time></trkpt><trkpt lat="43.8002108" lon="11.3070352"><ele>311.0</ele><time>2026-04-24T16:19:31.66Z</time></trkpt><trkpt lat="43.8002451" lon="11.3069465"><ele>309.40000000000003</ele><time>2026-04-24T16:19:32.66Z</time></trkpt><trkpt lat="43.8002342" lon="11.3068289"><ele>307.8</ele><time>2026-04-24T16:19:34.66Z</time></trkpt><trkpt lat="43.8001775" lon="11.3067538"><ele>306.20000000000005</ele><time>2026-04-24T16:19:35.66Z</time></trkpt><trkpt lat="43.8000868" lon="11.3067273"><ele>304.6</ele><time>2026-04-24T16:19:36.66Z</time></trkpt><trkpt lat="43.7999856" lon="11.3066888"><ele>303.0</ele><time>2026-04-24T16:19:37.66Z</time></trkpt><trkpt lat="43.7998841" lon="11.306649"><ele>303.0</ele><time>2026-04-24T16:19:38.66Z</time></trkpt><trkpt lat="43.7997996" lon="11.3066063"><ele>303.0</ele><time>2026-04-24T16:19:39.659Z</time></trkpt><trkpt lat="43.7996916" lon="11.3065666"><ele>303.0</ele><time>2026-04-24T16:19:40.66Z</time></trkpt><trkpt lat="43.7995777" lon="11.3065232"><ele>303.0</ele><time>2026-04-24T16:19:41.66Z</time></trkpt><trkpt lat="43.7994913" lon="11.3065011"><ele>303.0</ele><time>2026-04-24T16:19:42.66Z</time></trkpt><trkpt lat="43.7994104" lon="11.3064558"><ele>303.5</ele><time>2026-04-24T16:19:43.66Z</time></trkpt><trkpt lat="43.7993404" lon="11.3064065"><ele>304.0</ele><time>2026-04-24T16:19:44.66Z</time></trkpt><trkpt lat="43.7992903" lon="11.3063528"><ele>304.5</ele><time>2026-04-24T16:19:45.66Z</time></trkpt><trkpt lat="43.7992566" lon="11.3062614"><ele>305.0</ele><time>2026-04-24T16:19:46.66Z</time></trkpt><trkpt lat="43.799191" lon="11.3061482"><ele>305.5</ele><time>2026-04-24T16:19:48.66Z</time></trkpt><trkpt lat="43.7991369" lon="11.3060146"><ele>306.0</ele><time>2026-04-24T16:19:50.66Z</time></trkpt><trkpt lat="43.7990781" lon="11.3058829"><ele>306.0</ele><time>2026-04-24T16:19:52.66Z</time></trkpt><trkpt lat="43.799024" lon="11.3058041"><ele>306.0</ele><time>2026-04-24T16:19:53.66Z</time></trkpt><trkpt lat="43.798984" lon="11.3057352"><ele>306.0</ele><time>2026-04-24T16:19:54.66Z</time></trkpt><trkpt lat="43.7989573" lon="11.3055917"><ele>306.0</ele><time>2026-04-24T16:19:56.66Z</time></trkpt><trkpt lat="43.7989559" lon="11.3054722"><ele>306.0</ele><time>2026-04-24T16:19:58.66Z</time></trkpt><trkpt lat="43.7988862" lon="11.3053375"><ele>309.6666666666667</ele><time>2026-04-24T16:20:00.66Z</time></trkpt><trkpt lat="43.7988414" lon="11.3052646"><ele>313.3333333333333</ele><time>2026-04-24T16:20:01.66Z</time></trkpt><trkpt lat="43.7987684" lon="11.3051717"><ele>317.0</ele><time>2026-04-24T16:20:02.66Z</time></trkpt><trkpt lat="43.7986693" lon="11.3050714"><ele>320.66666666666663</ele><time>2026-04-24T16:20:03.658Z</time></trkpt><trkpt lat="43.7986178" lon="11.3050042"><ele>324.3333333333333</ele><time>2026-04-24T16:20:04.66Z</time></trkpt><trkpt lat="43.7985737" lon="11.3049254"><ele>328.0</ele><time>2026-04-24T16:20:05.659Z</time></trkpt><trkpt lat="43.7985101" lon="11.3048624"><ele>324.2</ele><time>2026-04-24T16:20:06.66Z</time></trkpt><trkpt lat="43.7984019" lon="11.3047855"><ele>320.4</ele><time>2026-04-24T16:20:08.66Z</time></trkpt><trkpt lat="43.7983075" lon="11.3046879"><ele>316.59999999999997</ele><time>2026-04-24T16:20:10.66Z</time></trkpt><trkpt lat="43.7982552" lon="11.3045352"><ele>312.79999999999995</ele><time>2026-04-24T16:20:12.66Z</time></trkpt><trkpt lat="43.7982275" lon="11.3044565"><ele>309.0</ele><time>2026-04-24T16:20:13.66Z</time></trkpt><trkpt lat="43.7982122" lon="11.3042507"><ele>309.0</ele><time>2026-04-24T16:20:15.66Z</time></trkpt><trkpt lat="43.798216" lon="11.3041465"><ele>309.0</ele><time>2026-04-24T16:20:16.66Z</time></trkpt><trkpt lat="43.7982172" lon="11.3040263"><ele>309.0</ele><time>2026-04-24T16:20:17.66Z</time></trkpt><trkpt lat="43.7982118" lon="11.3039136"><ele>309.0</ele><time>2026-04-24T16:20:18.659Z</time></trkpt><trkpt lat="43.7982452" lon="11.3037927"><ele>309.0</ele><time>2026-04-24T16:20:19.659Z</time></trkpt><trkpt lat="43.7983057" lon="11.3037424"><ele>309.0</ele><time>2026-04-24T16:20:20.659Z</time></trkpt><trkpt lat="43.798346" lon="11.3036351"><ele>308.0</ele><time>2026-04-24T16:20:22.66Z</time></trkpt><trkpt lat="43.7984423" lon="11.3034105"><ele>307.0</ele><time>2026-04-24T16:20:24.66Z</time></trkpt><trkpt lat="43.7984818" lon="11.3032813"><ele>306.0</ele><time>2026-04-24T16:20:25.66Z</time></trkpt><trkpt lat="43.7985371" lon="11.3031414"><ele>305.0</ele><time>2026-04-24T16:20:27.66Z</time></trkpt><trkpt lat="43.7985685" lon="11.3030584"><ele>306.5</ele><time>2026-04-24T16:20:28.66Z</time></trkpt><trkpt lat="43.7985854" lon="11.3029229"><ele>308.0</ele><time>2026-04-24T16:20:30.66Z</time></trkpt><trkpt lat="43.7986131" lon="11.3028419"><ele>309.5</ele><time>2026-04-24T16:20:33.66Z</time></trkpt><trkpt lat="43.798638" lon="11.3027246"><ele>311.0</ele><time>2026-04-24T16:20:36.66Z</time></trkpt><trkpt lat="43.7986832" lon="11.3026379"><ele>312.5</ele><time>2026-04-24T16:20:39.66Z</time></trkpt><trkpt lat="43.798734" lon="11.3025783"><ele>314.0</ele><time>2026-04-24T16:20:41.66Z</time></trkpt><trkpt lat="43.7988202" lon="11.3025342"><ele>314.0</ele><time>2026-04-24T16:20:42.66Z</time></trkpt><trkpt lat="43.798874" lon="11.3024753"><ele>314.0</ele><time>2026-04-24T16:20:43.659Z</time></trkpt><trkpt lat="43.7989404" lon="11.3024164"><ele>314.0</ele><time>2026-04-24T16:20:44.66Z</time></trkpt><trkpt lat="43.7989895" lon="11.3023497"><ele>314.0</ele><time>2026-04-24T16:20:45.66Z</time></trkpt><trkpt lat="43.7990391" lon="11.3022382"><ele>314.0</ele><time>2026-04-24T16:20:46.66Z</time></trkpt><trkpt lat="43.7991032" lon="11.302158"><ele>314.0</ele><time>2026-04-24T16:20:47.66Z</time></trkpt><trkpt lat="43.7991716" lon="11.3020629"><ele>312.0</ele><time>2026-04-24T16:20:48.66Z</time></trkpt><trkpt lat="43.7992334" lon="11.3019703"><ele>310.0</ele><time>2026-04-24T16:20:49.659Z</time></trkpt><trkpt lat="43.7993071" lon="11.3018753"><ele>308.0</ele><time>2026-04-24T16:20:50.66Z</time></trkpt><trkpt lat="43.7993891" lon="11.3018011"><ele>306.0</ele><time>2026-04-24T16:20:51.66Z</time></trkpt><trkpt lat="43.7994526" lon="11.3016995"><ele>304.0</ele><time>2026-04-24T16:20:52.66Z</time></trkpt><trkpt lat="43.7995167" lon="11.3016104"><ele>304.0</ele><time>2026-04-24T16:20:53.66Z</time></trkpt><trkpt lat="43.79958" lon="11.3015055"><ele>304.0</ele><time>2026-04-24T16:20:55.66Z</time></trkpt><trkpt lat="43.7996639" lon="11.3013861"><ele>304.0</ele><time>2026-04-24T16:20:57.66Z</time></trkpt><trkpt lat="43.7997217" lon="11.301258"><ele>304.0</ele><time>2026-04-24T16:20:59.66Z</time></trkpt><trkpt lat="43.799775" lon="11.3011425"><ele>304.0</ele><time>2026-04-24T16:21:01.66Z</time></trkpt><trkpt lat="43.7998213" lon="11.3010264"><ele>300.5</ele><time>2026-04-24T16:21:03.66Z</time></trkpt><trkpt lat="43.7998596" lon="11.3009147"><ele>297.0</ele><time>2026-04-24T16:21:05.66Z</time></trkpt><trkpt lat="43.7998676" lon="11.3008085"><ele>293.5</ele><time>2026-04-24T16:21:07.66Z</time></trkpt><trkpt lat="43.7998647" lon="11.3006915"><ele>290.0</ele><time>2026-04-24T16:21:09.66Z</time></trkpt><trkpt lat="43.7998524" lon="11.3005569"><ele>286.5</ele><time>2026-04-24T16:21:11.66Z</time></trkpt><trkpt lat="43.7998379" lon="11.3004409"><ele>283.0</ele><time>2026-04-24T16:21:12.66Z</time></trkpt><trkpt lat="43.7998404" lon="11.3003328"><ele>278.2</ele><time>2026-04-24T16:21:13.66Z</time></trkpt><trkpt lat="43.7998456" lon="11.3002357"><ele>273.4</ele><time>2026-04-24T16:21:14.659Z</time></trkpt><trkpt lat="43.7998633" lon="11.3001417"><ele>268.59999999999997</ele><time>2026-04-24T16:21:15.659Z</time></trkpt><trkpt lat="43.7999488" lon="11.300059"><ele>263.8</ele><time>2026-04-24T16:21:16.659Z</time></trkpt><trkpt lat="43.8000004" lon="11.2999616"><ele>259.0</ele><time>2026-04-24T16:21:17.659Z</time></trkpt><trkpt lat="43.800102" lon="11.299853"><ele>256.8</ele><time>2026-04-24T16:21:18.66Z</time></trkpt><trkpt lat="43.8001948" lon="11.2997608"><ele>254.59999999999997</ele><time>2026-04-24T16:21:19.66Z</time></trkpt><trkpt lat="43.8003137" lon="11.2996896"><ele>252.4</ele><time>2026-04-24T16:21:20.66Z</time></trkpt><trkpt lat="43.8004005" lon="11.299604"><ele>250.2</ele><time>2026-04-24T16:21:21.66Z</time></trkpt><trkpt lat="43.8004862" lon="11.2995632"><ele>248.0</ele><time>2026-04-24T16:21:22.66Z</time></trkpt><trkpt lat="43.8005646" lon="11.2995203"><ele>248.0</ele><time>2026-04-24T16:21:23.66Z</time></trkpt><trkpt lat="43.8006378" lon="11.2994667"><ele>248.0</ele><time>2026-04-24T16:21:24.66Z</time></trkpt><trkpt lat="43.8007106" lon="11.2994127"><ele>248.0</ele><time>2026-04-24T16:21:25.66Z</time></trkpt><trkpt lat="43.8007806" lon="11.2993258"><ele>248.0</ele><time>2026-04-24T16:21:26.659Z</time></trkpt><trkpt lat="43.8008614" lon="11.299259"><ele>248.0</ele><time>2026-04-24T16:21:27.659Z</time></trkpt><trkpt lat="43.8009317" lon="11.299126"><ele>248.0</ele><time>2026-04-24T16:21:29.66Z</time></trkpt><trkpt lat="43.8009592" lon="11.2990432"><ele>248.0</ele><time>2026-04-24T16:21:30.66Z</time></trkpt><trkpt lat="43.8009834" lon="11.298962"><ele>248.0</ele><time>2026-04-24T16:21:31.66Z</time></trkpt><trkpt lat="43.801039" lon="11.2988143"><ele>248.0</ele><time>2026-04-24T16:21:33.66Z</time></trkpt><trkpt lat="43.8010965" lon="11.2986777"><ele>248.0</ele><time>2026-04-24T16:21:35.66Z</time></trkpt><trkpt lat="43.8011654" lon="11.2985575"><ele>246.66666666666669</ele><time>2026-04-24T16:21:37.66Z</time></trkpt><trkpt lat="43.8012293" lon="11.2984519"><ele>245.33333333333334</ele><time>2026-04-24T16:21:39.66Z</time></trkpt><trkpt lat="43.8012947" lon="11.2983631"><ele>244.0</ele><time>2026-04-24T16:21:41.66Z</time></trkpt><trkpt lat="43.8013506" lon="11.2983053"><ele>242.66666666666669</ele><time>2026-04-24T16:21:42.659Z</time></trkpt><trkpt lat="43.8014384" lon="11.2982831"><ele>241.33333333333334</ele><time>2026-04-24T16:21:43.66Z</time></trkpt><trkpt lat="43.8015265" lon="11.2982717"><ele>240.0</ele><time>2026-04-24T16:21:44.66Z</time></trkpt><trkpt lat="43.8016096" lon="11.2982692"><ele>240.0</ele><time>2026-04-24T16:21:45.66Z</time></trkpt><trkpt lat="43.8016857" lon="11.298284"><ele>240.0</ele><time>2026-04-24T16:21:46.66Z</time></trkpt><trkpt lat="43.8017548" lon="11.2983032"><ele>240.0</ele><time>2026-04-24T16:21:47.66Z</time></trkpt><trkpt lat="43.8018197" lon="11.2983111"><ele>240.0</ele><time>2026-04-24T16:21:48.66Z</time></trkpt><trkpt lat="43.8019004" lon="11.2982304"><ele>240.0</ele><time>2026-04-24T16:21:50.66Z</time></trkpt><trkpt lat="43.8018888" lon="11.2981211"><ele>240.0</ele><time>2026-04-24T16:21:52.66Z</time></trkpt><trkpt lat="43.8017407" lon="11.2980883"><ele>240.0</ele><time>2026-04-24T16:21:54.66Z</time></trkpt><trkpt lat="43.8016146" lon="11.2981113"><ele>240.0</ele><time>2026-04-24T16:21:55.66Z</time></trkpt><trkpt lat="43.8014685" lon="11.2981356"><ele>240.0</ele><time>2026-04-24T16:21:56.66Z</time></trkpt><trkpt lat="43.801307" lon="11.2981737"><ele>240.0</ele><time>2026-04-24T16:21:57.659Z</time></trkpt><trkpt lat="43.8011462" lon="11.2982524"><ele>240.0</ele><time>2026-04-24T16:21:58.66Z</time></trkpt><trkpt lat="43.8010013" lon="11.2983364"><ele>240.0</ele><time>2026-04-24T16:21:59.66Z</time></trkpt><trkpt lat="43.800897" lon="11.2984005"><ele>240.0</ele><time>2026-04-24T16:22:00.66Z</time></trkpt><trkpt lat="43.8008123" lon="11.2984316"><ele>240.0</ele><time>2026-04-24T16:22:01.66Z</time></trkpt><trkpt lat="43.8007479" lon="11.2984098"><ele>240.0</ele><time>2026-04-24T16:22:02.66Z</time></trkpt><trkpt lat="43.8007153" lon="11.298332"><ele>237.6</ele><time>2026-04-24T16:22:03.66Z</time></trkpt><trkpt lat="43.8007354" lon="11.2982416"><ele>235.2</ele><time>2026-04-24T16:22:04.659Z</time></trkpt><trkpt lat="43.8008064" lon="11.298168"><ele>232.8</ele><time>2026-04-24T16:22:05.66Z</time></trkpt><trkpt lat="43.8009137" lon="11.298111"><ele>230.4</ele><time>2026-04-24T16:22:06.66Z</time></trkpt><trkpt lat="43.8010285" lon="11.298072"><ele>228.0</ele><time>2026-04-24T16:22:07.66Z</time></trkpt><trkpt lat="43.8011388" lon="11.2980309"><ele>228.0</ele><time>2026-04-24T16:22:08.66Z</time></trkpt><trkpt lat="43.8012477" lon="11.2979856"><ele>228.0</ele><time>2026-04-24T16:22:09.66Z</time></trkpt><trkpt lat="43.8013566" lon="11.297938"><ele>228.0</ele><time>2026-04-24T16:22:10.66Z</time></trkpt><trkpt lat="43.801463" lon="11.2978767"><ele>228.0</ele><time>2026-04-24T16:22:11.66Z</time></trkpt><trkpt lat="43.80156" lon="11.2977899"><ele>228.0</ele><time>2026-04-24T16:22:12.66Z</time></trkpt><trkpt lat="43.8016353" lon="11.2976634"><ele>228.0</ele><time>2026-04-24T16:22:13.66Z</time></trkpt><trkpt lat="43.8016863" lon="11.2975132"><ele>228.0</ele><time>2026-04-24T16:22:14.659Z</time></trkpt><trkpt lat="43.8017039" lon="11.2973509"><ele>228.0</ele><time>2026-04-24T16:22:15.66Z</time></trkpt><trkpt lat="43.8016972" lon="11.2971912"><ele>225.75</ele><time>2026-04-24T16:22:16.66Z</time></trkpt><trkpt lat="43.8016836" lon="11.2970245"><ele>223.5</ele><time>2026-04-24T16:22:17.66Z</time></trkpt><trkpt lat="43.8016764" lon="11.2968631"><ele>221.25</ele><time>2026-04-24T16:22:18.66Z</time></trkpt><trkpt lat="43.8016649" lon="11.2966917"><ele>219.0</ele><time>2026-04-24T16:22:19.659Z</time></trkpt><trkpt lat="43.8016394" lon="11.2965464"><ele>218.0</ele><time>2026-04-24T16:22:20.66Z</time></trkpt><trkpt lat="43.8016152" lon="11.2963919"><ele>217.0</ele><time>2026-04-24T16:22:21.66Z</time></trkpt><trkpt lat="43.8015735" lon="11.2962269"><ele>216.0</ele><time>2026-04-24T16:22:22.66Z</time></trkpt><trkpt lat="43.8015323" lon="11.2960622"><ele>215.0</ele><time>2026-04-24T16:22:23.66Z</time></trkpt><trkpt lat="43.8014812" lon="11.2958985"><ele>215.0</ele><time>2026-04-24T16:22:24.66Z</time></trkpt><trkpt lat="43.8014347" lon="11.2957454"><ele>215.0</ele><time>2026-04-24T16:22:25.66Z</time></trkpt><trkpt lat="43.8014055" lon="11.2955799"><ele>215.0</ele><time>2026-04-24T16:22:26.66Z</time></trkpt><trkpt lat="43.8013899" lon="11.2954159"><ele>215.0</ele><time>2026-04-24T16:22:27.66Z</time></trkpt><trkpt lat="43.8013898" lon="11.2952434"><ele>212.75</ele><time>2026-04-24T16:22:28.659Z</time></trkpt><trkpt lat="43.8013962" lon="11.29508"><ele>210.5</ele><time>2026-04-24T16:22:29.66Z</time></trkpt><trkpt lat="43.8013992" lon="11.2949157"><ele>208.25</ele><time>2026-04-24T16:22:30.66Z</time></trkpt><trkpt lat="43.8014037" lon="11.2947531"><ele>206.0</ele><time>2026-04-24T16:22:31.659Z</time></trkpt><trkpt lat="43.8013997" lon="11.294595"><ele>205.0</ele><time>2026-04-24T16:22:32.66Z</time></trkpt><trkpt lat="43.8013835" lon="11.2944398"><ele>204.0</ele><time>2026-04-24T16:22:33.66Z</time></trkpt><trkpt lat="43.8013413" lon="11.2942902"><ele>203.0</ele><time>2026-04-24T16:22:34.659Z</time></trkpt><trkpt lat="43.8012828" lon="11.2941476"><ele>202.0</ele><time>2026-04-24T16:22:35.659Z</time></trkpt><trkpt lat="43.8012123" lon="11.2940079"><ele>201.75</ele><time>2026-04-24T16:22:36.66Z</time></trkpt><trkpt lat="43.8011473" lon="11.2938623"><ele>201.5</ele><time>2026-04-24T16:22:37.66Z</time></trkpt><trkpt lat="43.8010802" lon="11.2937225"><ele>201.25</ele><time>2026-04-24T16:22:38.659Z</time></trkpt><trkpt lat="43.8010142" lon="11.2935874"><ele>201.0</ele><time>2026-04-24T16:22:39.66Z</time></trkpt><trkpt lat="43.8009491" lon="11.2934574"><ele>197.25</ele><time>2026-04-24T16:22:40.66Z</time></trkpt><trkpt lat="43.8008781" lon="11.2933382"><ele>193.5</ele><time>2026-04-24T16:22:41.66Z</time></trkpt><trkpt lat="43.8007992" lon="11.293226"><ele>189.75</ele><time>2026-04-24T16:22:42.66Z</time></trkpt><trkpt lat="43.8007209" lon="11.2931084"><ele>186.0</ele><time>2026-04-24T16:22:43.659Z</time></trkpt><trkpt lat="43.800667" lon="11.2929748"><ele>186.0</ele><time>2026-04-24T16:22:44.66Z</time></trkpt><trkpt lat="43.8006473" lon="11.2928108"><ele>186.0</ele><time>2026-04-24T16:22:45.66Z</time></trkpt><trkpt lat="43.8006569" lon="11.2926472"><ele>186.0</ele><time>2026-04-24T16:22:46.66Z</time></trkpt><trkpt lat="43.8006946" lon="11.2924834"><ele>186.0</ele><time>2026-04-24T16:22:47.66Z</time></trkpt><trkpt lat="43.8007327" lon="11.2923239"><ele>183.5</ele><time>2026-04-24T16:22:48.66Z</time></trkpt><trkpt lat="43.8007754" lon="11.2921627"><ele>181.0</ele><time>2026-04-24T16:22:49.66Z</time></trkpt><trkpt lat="43.8008182" lon="11.2920015"><ele>178.5</ele><time>2026-04-24T16:22:50.66Z</time></trkpt><trkpt lat="43.8008658" lon="11.2918468"><ele>176.0</ele><time>2026-04-24T16:22:51.66Z</time></trkpt><trkpt lat="43.8009206" lon="11.2916935"><ele>176.0</ele><time>2026-04-24T16:22:52.66Z</time></trkpt><trkpt lat="43.8009864" lon="11.291552"><ele>176.0</ele><time>2026-04-24T16:22:53.66Z</time></trkpt><trkpt lat="43.8010649" lon="11.2914155"><ele>176.0</ele><time>2026-04-24T16:22:54.66Z</time></trkpt><trkpt lat="43.8011457" lon="11.2912872"><ele>176.0</ele><time>2026-04-24T16:22:55.66Z</time></trkpt><trkpt lat="43.8012302" lon="11.2911586"><ele>175.25</ele><time>2026-04-24T16:22:56.66Z</time></trkpt><trkpt lat="43.8013111" lon="11.2910306"><ele>174.5</ele><time>2026-04-24T16:22:57.66Z</time></trkpt><trkpt lat="43.8013884" lon="11.2909014"><ele>173.75</ele><time>2026-04-24T16:22:58.659Z</time></trkpt><trkpt lat="43.8014731" lon="11.2907754"><ele>173.0</ele><time>2026-04-24T16:22:59.66Z</time></trkpt><trkpt lat="43.8015716" lon="11.2906696"><ele>173.0</ele><time>2026-04-24T16:23:00.66Z</time></trkpt><trkpt lat="43.8016812" lon="11.2905996"><ele>173.0</ele><time>2026-04-24T16:23:01.66Z</time></trkpt><trkpt lat="43.8018027" lon="11.2905548"><ele>173.0</ele><time>2026-04-24T16:23:02.659Z</time></trkpt><trkpt lat="43.8019223" lon="11.2905197"><ele>173.0</ele><time>2026-04-24T16:23:03.66Z</time></trkpt><trkpt lat="43.8020399" lon="11.2904801"><ele>172.4</ele><time>2026-04-24T16:23:04.66Z</time></trkpt><trkpt lat="43.8021539" lon="11.2904331"><ele>171.8</ele><time>2026-04-24T16:23:05.659Z</time></trkpt><trkpt lat="43.8022607" lon="11.290371"><ele>171.2</ele><time>2026-04-24T16:23:06.66Z</time></trkpt><trkpt lat="43.8023544" lon="11.2902967"><ele>170.6</ele><time>2026-04-24T16:23:07.66Z</time></trkpt><trkpt lat="43.8024365" lon="11.290212"><ele>170.0</ele><time>2026-04-24T16:23:08.66Z</time></trkpt><trkpt lat="43.8025074" lon="11.2901133"><ele>170.0</ele><time>2026-04-24T16:23:09.66Z</time></trkpt><trkpt lat="43.8025606" lon="11.2900015"><ele>170.0</ele><time>2026-04-24T16:23:10.659Z</time></trkpt><trkpt lat="43.8026072" lon="11.2898755"><ele>170.0</ele><time>2026-04-24T16:23:11.66Z</time></trkpt><trkpt lat="43.8026438" lon="11.2897417"><ele>170.0</ele><time>2026-04-24T16:23:12.66Z</time></trkpt><trkpt lat="43.8026724" lon="11.2896011"><ele>170.0</ele><time>2026-04-24T16:23:13.66Z</time></trkpt><trkpt lat="43.8027007" lon="11.2894577"><ele>170.4</ele><time>2026-04-24T16:23:14.66Z</time></trkpt><trkpt lat="43.8027192" lon="11.2893069"><ele>170.8</ele><time>2026-04-24T16:23:15.66Z</time></trkpt><trkpt lat="43.8027396" lon="11.2891618"><ele>171.2</ele><time>2026-04-24T16:23:16.66Z</time></trkpt><trkpt lat="43.8027451" lon="11.2890005"><ele>171.6</ele><time>2026-04-24T16:23:17.66Z</time></trkpt><trkpt lat="43.8027419" lon="11.2888484"><ele>172.0</ele><time>2026-04-24T16:23:18.66Z</time></trkpt><trkpt lat="43.8027336" lon="11.2886965"><ele>172.0</ele><time>2026-04-24T16:23:19.66Z</time></trkpt><trkpt lat="43.8027122" lon="11.288543"><ele>172.0</ele><time>2026-04-24T16:23:20.66Z</time></trkpt><trkpt lat="43.8026804" lon="11.2883955"><ele>172.0</ele><time>2026-04-24T16:23:21.66Z</time></trkpt><trkpt lat="43.8026461" lon="11.2882498"><ele>172.0</ele><time>2026-04-24T16:23:22.659Z</time></trkpt><trkpt lat="43.8026046" lon="11.2881063"><ele>172.0</ele><time>2026-04-24T16:23:23.66Z</time></trkpt><trkpt lat="43.8025629" lon="11.2879635"><ele>169.4</ele><time>2026-04-24T16:23:24.66Z</time></trkpt><trkpt lat="43.8025182" lon="11.2878205"><ele>166.79999999999998</ele><time>2026-04-24T16:23:25.66Z</time></trkpt><trkpt lat="43.8024731" lon="11.2876772"><ele>164.2</ele><time>2026-04-24T16:23:26.66Z</time></trkpt><trkpt lat="43.8024257" lon="11.2875357"><ele>161.6</ele><time>2026-04-24T16:23:27.66Z</time></trkpt><trkpt lat="43.8023812" lon="11.2873939"><ele>159.0</ele><time>2026-04-24T16:23:28.66Z</time></trkpt><trkpt lat="43.8023365" lon="11.2872514"><ele>158.4</ele><time>2026-04-24T16:23:29.66Z</time></trkpt><trkpt lat="43.8022913" lon="11.2871096"><ele>157.8</ele><time>2026-04-24T16:23:30.658Z</time></trkpt><trkpt lat="43.8022464" lon="11.2869658"><ele>157.2</ele><time>2026-04-24T16:23:31.66Z</time></trkpt><trkpt lat="43.8022017" lon="11.2868293"><ele>156.6</ele><time>2026-04-24T16:23:32.66Z</time></trkpt><trkpt lat="43.8021588" lon="11.2866948"><ele>156.0</ele><time>2026-04-24T16:23:33.659Z</time></trkpt><trkpt lat="43.8021183" lon="11.2865694"><ele>156.0</ele><time>2026-04-24T16:23:34.66Z</time></trkpt><trkpt lat="43.8020788" lon="11.2864495"><ele>156.0</ele><time>2026-04-24T16:23:35.66Z</time></trkpt><trkpt lat="43.8020348" lon="11.2863432"><ele>156.0</ele><time>2026-04-24T16:23:36.66Z</time></trkpt><trkpt lat="43.8019855" lon="11.2862493"><ele>156.0</ele><time>2026-04-24T16:23:37.659Z</time></trkpt><trkpt lat="43.8019333" lon="11.2861713"><ele>156.0</ele><time>2026-04-24T16:23:38.659Z</time></trkpt><trkpt lat="43.8018742" lon="11.2861134"><ele>156.0</ele><time>2026-04-24T16:23:39.66Z</time></trkpt><trkpt lat="43.8018143" lon="11.2860578"><ele>154.5</ele><time>2026-04-24T16:23:40.66Z</time></trkpt><trkpt lat="43.8017549" lon="11.2860192"><ele>153.0</ele><time>2026-04-24T16:23:41.66Z</time></trkpt><trkpt lat="43.8017024" lon="11.2859637"><ele>151.5</ele><time>2026-04-24T16:23:42.659Z</time></trkpt><trkpt lat="43.8016422" lon="11.2858904"><ele>150.0</ele><time>2026-04-24T16:23:43.66Z</time></trkpt><trkpt lat="43.8015668" lon="11.2858188"><ele>148.5</ele><time>2026-04-24T16:23:44.659Z</time></trkpt><trkpt lat="43.8014821" lon="11.2857389"><ele>147.0</ele><time>2026-04-24T16:23:45.66Z</time></trkpt><trkpt lat="43.8014001" lon="11.2856656"><ele>147.0</ele><time>2026-04-24T16:23:46.659Z</time></trkpt><trkpt lat="43.8013254" lon="11.2855963"><ele>147.0</ele><time>2026-04-24T16:23:47.659Z</time></trkpt><trkpt lat="43.8012507" lon="11.2855255"><ele>147.0</ele><time>2026-04-24T16:23:48.66Z</time></trkpt><trkpt lat="43.8011778" lon="11.2854696"><ele>147.0</ele><time>2026-04-24T16:23:49.659Z</time></trkpt><trkpt lat="43.8011127" lon="11.2854209"><ele>147.0</ele><time>2026-04-24T16:23:50.659Z</time></trkpt><trkpt lat="43.8010327" lon="11.2853577"><ele>147.0</ele><time>2026-04-24T16:23:52.66Z</time></trkpt><trkpt lat="43.8009611" lon="11.2853016"><ele>146.6</ele><time>2026-04-24T16:23:54.659Z</time></trkpt><trkpt lat="43.8008901" lon="11.2851996"><ele>146.2</ele><time>2026-04-24T16:23:56.66Z</time></trkpt><trkpt lat="43.8008038" lon="11.2850868"><ele>145.8</ele><time>2026-04-24T16:23:58.66Z</time></trkpt><trkpt lat="43.80076" lon="11.2850191"><ele>145.4</ele><time>2026-04-24T16:23:59.66Z</time></trkpt><trkpt lat="43.8007139" lon="11.2849534"><ele>145.0</ele><time>2026-04-24T16:24:00.66Z</time></trkpt><trkpt lat="43.8006421" lon="11.2848401"><ele>145.0</ele><time>2026-04-24T16:24:02.66Z</time></trkpt><trkpt lat="43.8005899" lon="11.2847649"><ele>145.0</ele><time>2026-04-24T16:24:04.66Z</time></trkpt><trkpt lat="43.8005242" lon="11.2846891"><ele>145.0</ele><time>2026-04-24T16:24:06.66Z</time></trkpt><trkpt lat="43.8004395" lon="11.2845389"><ele>145.0</ele><time>2026-04-24T16:24:08.66Z</time></trkpt><trkpt lat="43.8003774" lon="11.2844464"><ele>145.0</ele><time>2026-04-24T16:24:09.659Z</time></trkpt><trkpt lat="43.8003064" lon="11.2843449"><ele>144.25</ele><time>2026-04-24T16:24:10.66Z</time></trkpt><trkpt lat="43.800228" lon="11.2842341"><ele>143.5</ele><time>2026-04-24T16:24:11.66Z</time></trkpt><trkpt lat="43.8001375" lon="11.2841135"><ele>142.75</ele><time>2026-04-24T16:24:12.659Z</time></trkpt><trkpt lat="43.8000366" lon="11.28398"><ele>142.0</ele><time>2026-04-24T16:24:13.658Z</time></trkpt><trkpt lat="43.7999402" lon="11.2838597"><ele>139.79999999999998</ele><time>2026-04-24T16:24:14.659Z</time></trkpt><trkpt lat="43.7998572" lon="11.2837598"><ele>137.6</ele><time>2026-04-24T16:24:15.66Z</time></trkpt><trkpt lat="43.7997744" lon="11.2836612"><ele>135.39999999999998</ele><time>2026-04-24T16:24:16.659Z</time></trkpt><trkpt lat="43.7997126" lon="11.2835884"><ele>133.2</ele><time>2026-04-24T16:24:18.66Z</time></trkpt><trkpt lat="43.7997347" lon="11.2834962"><ele>131.0</ele><time>2026-04-24T16:24:20.659Z</time></trkpt><trkpt lat="43.7998156" lon="11.2834281"><ele>131.0</ele><time>2026-04-24T16:24:22.66Z</time></trkpt><trkpt lat="43.7998725" lon="11.2833771"><ele>131.0</ele><time>2026-04-24T16:24:23.66Z</time></trkpt><trkpt lat="43.7999298" lon="11.2833265"><ele>131.0</ele><time>2026-04-24T16:24:24.659Z</time></trkpt><trkpt lat="43.7999934" lon="11.2832736"><ele>131.0</ele><time>2026-04-24T16:24:25.66Z</time></trkpt><trkpt lat="43.8000519" lon="11.2832183"><ele>131.0</ele><time>2026-04-24T16:24:26.66Z</time></trkpt><trkpt lat="43.8001097" lon="11.2831661"><ele>131.0</ele><time>2026-04-24T16:24:27.659Z</time></trkpt><trkpt lat="43.8001667" lon="11.28311"><ele>131.0</ele><time>2026-04-24T16:24:28.659Z</time></trkpt><trkpt lat="43.8002232" lon="11.2830686"><ele>129.85714285714286</ele><time>2026-04-24T16:24:29.66Z</time></trkpt><trkpt lat="43.8002779" lon="11.2830154"><ele>128.71428571428572</ele><time>2026-04-24T16:24:30.66Z</time></trkpt><trkpt lat="43.800271" lon="11.2828662"><ele>127.57142857142858</ele><time>2026-04-24T16:24:32.66Z</time></trkpt><trkpt lat="43.8002318" lon="11.2827946"><ele>126.42857142857144</ele><time>2026-04-24T16:24:33.66Z</time></trkpt><trkpt lat="43.8001929" lon="11.2827253"><ele>125.28571428571429</ele><time>2026-04-24T16:24:34.659Z</time></trkpt><trkpt lat="43.8001506" lon="11.2826448"><ele>124.14285714285717</ele><time>2026-04-24T16:24:35.66Z</time></trkpt><trkpt lat="43.8001091" lon="11.2825657"><ele>123.00000000000001</ele><time>2026-04-24T16:24:36.66Z</time></trkpt><trkpt lat="43.8000599" lon="11.2824869"><ele>123.0</ele><time>2026-04-24T16:24:37.659Z</time></trkpt><trkpt lat="43.8000195" lon="11.282415"><ele>123.0</ele><time>2026-04-24T16:24:38.66Z</time></trkpt><trkpt lat="43.7999447" lon="11.2822942"><ele>123.0</ele><time>2026-04-24T16:24:40.66Z</time></trkpt><trkpt lat="43.7999355" lon="11.2821982"><ele>123.0</ele><time>2026-04-24T16:24:42.659Z</time></trkpt><trkpt lat="43.7999746" lon="11.2821107"><ele>123.0</ele><time>2026-04-24T16:24:44.66Z</time></trkpt><trkpt lat="43.7999997" lon="11.282006"><ele>123.0</ele><time>2026-04-24T16:24:46.66Z</time></trkpt><trkpt lat="43.7999838" lon="11.2819058"><ele>121.71428571428572</ele><time>2026-04-24T16:24:48.66Z</time></trkpt><trkpt lat="43.7999312" lon="11.2818462"><ele>120.42857142857143</ele><time>2026-04-24T16:24:50.659Z</time></trkpt><trkpt lat="43.7998679" lon="11.2818549"><ele>119.14285714285714</ele><time>2026-04-24T16:25:03.659Z</time></trkpt><trkpt lat="43.799825" lon="11.2817601"><ele>117.85714285714286</ele><time>2026-04-24T16:29:42.661Z</time></trkpt><trkpt lat="43.7997643" lon="11.2817238"><ele>116.57142857142856</ele><time>2026-04-24T16:29:47.661Z</time></trkpt><trkpt lat="43.7997013" lon="11.2817305"><ele>115.28571428571428</ele><time>2026-04-24T16:29:54.661Z</time></trkpt><trkpt lat="43.7996644" lon="11.2818031"><ele>114.0</ele><time>2026-04-24T16:29:59.661Z</time></trkpt><trkpt lat="43.7996253" lon="11.2818781"><ele>114.0</ele><time>2026-04-24T16:30:04.661Z</time></trkpt><trkpt lat="43.7996331" lon="11.2819712"><ele>114.0</ele><time>2026-04-24T16:30:09.661Z</time></trkpt></trkseg></trk></gpx>